<?xml version='1.0' encoding='UTF-8'?><gpx version="1.1" creator="JPX - https://github.com/jenetics/jpx" xmlns="http://www.topografix.com/GPX/1/1"><trk><trkseg><trkpt lat="39.347206" lon="16.2451605"><ele>179.0</ele><time>2026-04-12T07:14:43.53Z</time></trkpt><trkpt lat="39.3471929" lon="16.2450767"><ele>179.0</ele><time>2026-04-12T07:14:46.537Z</time></trkpt><trkpt lat="39.347141" lon="16.2450252"><ele>179.0</ele><time>2026-04-12T07:15:55.529Z</time></trkpt><trkpt lat="39.3470991" lon="16.2448918"><ele>179.0</ele><time>2026-04-12T07:15:57.53Z</time></trkpt><trkpt lat="39.3470779" lon="16.244761"><ele>179.0</ele><time>2026-04-12T07:15:59.538Z</time></trkpt><trkpt lat="39.3470512" lon="16.2446339"><ele>179.0</ele><time>2026-04-12T07:16:01.54Z</time></trkpt><trkpt lat="39.3470286" lon="16.2444961"><ele>178.5</ele><time>2026-04-12T07:16:03.555Z</time></trkpt><trkpt lat="39.3470055" lon="16.2444177"><ele>178.0</ele><time>2026-04-12T07:16:04.519Z</time></trkpt><trkpt lat="39.3469713" lon="16.2443394"><ele>177.5</ele><time>2026-04-12T07:16:05.525Z</time></trkpt><trkpt lat="39.3469195" lon="16.2442544"><ele>177.0</ele><time>2026-04-12T07:16:06.539Z</time></trkpt><trkpt lat="39.3468693" lon="16.2441844"><ele>176.5</ele><time>2026-04-12T07:16:07.534Z</time></trkpt><trkpt lat="39.3468997" lon="16.2440878"><ele>176.0</ele><time>2026-04-12T07:16:09.527Z</time></trkpt><trkpt lat="39.3470126" lon="16.2440629"><ele>176.0</ele><time>2026-04-12T07:16:11.536Z</time></trkpt><trkpt lat="39.347079" lon="16.2440738"><ele>176.0</ele><time>2026-04-12T07:16:12.519Z</time></trkpt><trkpt lat="39.3471521" lon="16.2440785"><ele>176.0</ele><time>2026-04-12T07:16:13.526Z</time></trkpt><trkpt lat="39.3472292" lon="16.2440816"><ele>176.0</ele><time>2026-04-12T07:16:14.528Z</time></trkpt><trkpt lat="39.3473006" lon="16.2440852"><ele>176.0</ele><time>2026-04-12T07:16:15.527Z</time></trkpt><trkpt lat="39.3473749" lon="16.2440854"><ele>176.0</ele><time>2026-04-12T07:16:16.531Z</time></trkpt><trkpt lat="39.3474585" lon="16.2440872"><ele>176.0</ele><time>2026-04-12T07:16:17.536Z</time></trkpt><trkpt lat="39.3475479" lon="16.244089"><ele>176.8</ele><time>2026-04-12T07:16:18.528Z</time></trkpt><trkpt lat="39.3476416" lon="16.244092"><ele>177.60000000000002</ele><time>2026-04-12T07:16:19.529Z</time></trkpt><trkpt lat="39.3477378" lon="16.2440952"><ele>178.4</ele><time>2026-04-12T07:16:20.532Z</time></trkpt><trkpt lat="39.3478348" lon="16.2440932"><ele>179.2</ele><time>2026-04-12T07:16:21.526Z</time></trkpt><trkpt lat="39.3479341" lon="16.2440891"><ele>180.0</ele><time>2026-04-12T07:16:22.521Z</time></trkpt><trkpt lat="39.3480349" lon="16.2440855"><ele>180.8</ele><time>2026-04-12T07:16:23.541Z</time></trkpt><trkpt lat="39.3481388" lon="16.2440843"><ele>181.6</ele><time>2026-04-12T07:16:24.543Z</time></trkpt><trkpt lat="39.3482467" lon="16.2440912"><ele>182.39999999999998</ele><time>2026-04-12T07:16:25.538Z</time></trkpt><trkpt lat="39.3483548" lon="16.2440976"><ele>183.2</ele><time>2026-04-12T07:16:26.569Z</time></trkpt><trkpt lat="39.3484591" lon="16.2440979"><ele>184.0</ele><time>2026-04-12T07:16:27.523Z</time></trkpt><trkpt lat="39.3485599" lon="16.2440965"><ele>184.0</ele><time>2026-04-12T07:16:28.52Z</time></trkpt><trkpt lat="39.3486595" lon="16.2440912"><ele>184.0</ele><time>2026-04-12T07:16:29.527Z</time></trkpt><trkpt lat="39.3487555" lon="16.244086"><ele>184.0</ele><time>2026-04-12T07:16:30.53Z</time></trkpt><trkpt lat="39.3488477" lon="16.244081"><ele>184.0</ele><time>2026-04-12T07:16:31.523Z</time></trkpt><trkpt lat="39.3489355" lon="16.2440752"><ele>184.0</ele><time>2026-04-12T07:16:32.524Z</time></trkpt><trkpt lat="39.3490221" lon="16.2440696"><ele>184.66666666666669</ele><time>2026-04-12T07:16:33.529Z</time></trkpt><trkpt lat="39.3491064" lon="16.2440672"><ele>185.33333333333334</ele><time>2026-04-12T07:16:34.54Z</time></trkpt><trkpt lat="39.3491868" lon="16.2440639"><ele>186.0</ele><time>2026-04-12T07:16:35.532Z</time></trkpt><trkpt lat="39.3492699" lon="16.2440558"><ele>186.66666666666666</ele><time>2026-04-12T07:16:36.536Z</time></trkpt><trkpt lat="39.3493537" lon="16.2440521"><ele>187.33333333333331</ele><time>2026-04-12T07:16:37.521Z</time></trkpt><trkpt lat="39.3494421" lon="16.244049"><ele>188.0</ele><time>2026-04-12T07:16:38.521Z</time></trkpt><trkpt lat="39.349536" lon="16.244043"><ele>188.0</ele><time>2026-04-12T07:16:39.521Z</time></trkpt><trkpt lat="39.3496298" lon="16.2440398"><ele>188.0</ele><time>2026-04-12T07:16:40.527Z</time></trkpt><trkpt lat="39.3497253" lon="16.2440363"><ele>188.0</ele><time>2026-04-12T07:16:41.53Z</time></trkpt><trkpt lat="39.3498156" lon="16.2440305"><ele>188.0</ele><time>2026-04-12T07:16:42.53Z</time></trkpt><trkpt lat="39.3499127" lon="16.2440268"><ele>188.0</ele><time>2026-04-12T07:16:43.54Z</time></trkpt><trkpt lat="39.3500068" lon="16.2440154"><ele>187.4</ele><time>2026-04-12T07:16:44.543Z</time></trkpt><trkpt lat="39.3500967" lon="16.2440102"><ele>186.8</ele><time>2026-04-12T07:16:45.523Z</time></trkpt><trkpt lat="39.3502013" lon="16.2440008"><ele>186.2</ele><time>2026-04-12T07:16:46.589Z</time></trkpt><trkpt lat="39.3503082" lon="16.2439911"><ele>185.6</ele><time>2026-04-12T07:16:47.521Z</time></trkpt><trkpt lat="39.3504061" lon="16.2439868"><ele>185.0</ele><time>2026-04-12T07:16:48.526Z</time></trkpt><trkpt lat="39.3505065" lon="16.2439808"><ele>185.0</ele><time>2026-04-12T07:16:49.527Z</time></trkpt><trkpt lat="39.3506065" lon="16.2439761"><ele>185.0</ele><time>2026-04-12T07:16:50.571Z</time></trkpt><trkpt lat="39.3507062" lon="16.2439763"><ele>185.0</ele><time>2026-04-12T07:16:51.525Z</time></trkpt><trkpt lat="39.3508032" lon="16.2439736"><ele>185.0</ele><time>2026-04-12T07:16:52.523Z</time></trkpt><trkpt lat="39.3509014" lon="16.2439671"><ele>185.0</ele><time>2026-04-12T07:16:53.533Z</time></trkpt><trkpt lat="39.3510043" lon="16.2439626"><ele>185.0</ele><time>2026-04-12T07:16:54.529Z</time></trkpt><trkpt lat="39.3511047" lon="16.2439582"><ele>185.0</ele><time>2026-04-12T07:16:55.524Z</time></trkpt><trkpt lat="39.3512098" lon="16.2439546"><ele>185.0</ele><time>2026-04-12T07:16:56.522Z</time></trkpt><trkpt lat="39.3513172" lon="16.2439498"><ele>185.0</ele><time>2026-04-12T07:16:57.522Z</time></trkpt><trkpt lat="39.3514277" lon="16.2439462"><ele>185.0</ele><time>2026-04-12T07:16:58.533Z</time></trkpt><trkpt lat="39.3515494" lon="16.2439437"><ele>185.5</ele><time>2026-04-12T07:16:59.538Z</time></trkpt><trkpt lat="39.3516818" lon="16.2439376"><ele>186.0</ele><time>2026-04-12T07:17:00.615Z</time></trkpt><trkpt lat="39.3518149" lon="16.2439306"><ele>186.5</ele><time>2026-04-12T07:17:01.53Z</time></trkpt><trkpt lat="39.351944" lon="16.2439095"><ele>187.0</ele><time>2026-04-12T07:17:02.553Z</time></trkpt><trkpt lat="39.3520696" lon="16.2438948"><ele>187.0</ele><time>2026-04-12T07:17:03.531Z</time></trkpt><trkpt lat="39.3521831" lon="16.2438839"><ele>187.0</ele><time>2026-04-12T07:17:04.538Z</time></trkpt><trkpt lat="39.3522951" lon="16.2438749"><ele>187.0</ele><time>2026-04-12T07:17:05.527Z</time></trkpt><trkpt lat="39.3523977" lon="16.2438703"><ele>187.0</ele><time>2026-04-12T07:17:06.519Z</time></trkpt><trkpt lat="39.3524951" lon="16.2438664"><ele>187.0</ele><time>2026-04-12T07:17:07.525Z</time></trkpt><trkpt lat="39.3525831" lon="16.2438622"><ele>187.16666666666669</ele><time>2026-04-12T07:17:08.528Z</time></trkpt><trkpt lat="39.3526662" lon="16.2438579"><ele>187.33333333333334</ele><time>2026-04-12T07:17:09.556Z</time></trkpt><trkpt lat="39.3527396" lon="16.2438522"><ele>187.5</ele><time>2026-04-12T07:17:10.523Z</time></trkpt><trkpt lat="39.3528046" lon="16.2438496"><ele>187.66666666666666</ele><time>2026-04-12T07:17:11.526Z</time></trkpt><trkpt lat="39.352916" lon="16.2438405"><ele>187.83333333333331</ele><time>2026-04-12T07:17:13.525Z</time></trkpt><trkpt lat="39.3530175" lon="16.2438377"><ele>188.0</ele><time>2026-04-12T07:17:15.523Z</time></trkpt><trkpt lat="39.3531104" lon="16.2438408"><ele>188.0</ele><time>2026-04-12T07:17:17.531Z</time></trkpt><trkpt lat="39.3531917" lon="16.2438354"><ele>188.0</ele><time>2026-04-12T07:17:19.526Z</time></trkpt><trkpt lat="39.3532778" lon="16.2438321"><ele>188.0</ele><time>2026-04-12T07:17:21.541Z</time></trkpt><trkpt lat="39.353365" lon="16.2438257"><ele>188.0</ele><time>2026-04-12T07:17:23.536Z</time></trkpt><trkpt lat="39.3534441" lon="16.2438211"><ele>188.0</ele><time>2026-04-12T07:17:25.527Z</time></trkpt><trkpt lat="39.3535137" lon="16.2438198"><ele>188.0</ele><time>2026-04-12T07:17:27.531Z</time></trkpt><trkpt lat="39.3536033" lon="16.2438189"><ele>188.0</ele><time>2026-04-12T07:17:30.53Z</time></trkpt><trkpt lat="39.3536663" lon="16.2438159"><ele>188.0</ele><time>2026-04-12T07:17:32.536Z</time></trkpt><trkpt lat="39.3537584" lon="16.2438043"><ele>188.0</ele><time>2026-04-12T07:17:35.538Z</time></trkpt><trkpt lat="39.3538326" lon="16.2438055"><ele>188.0</ele><time>2026-04-12T07:17:38.537Z</time></trkpt><trkpt lat="39.3538987" lon="16.2438068"><ele>188.0</ele><time>2026-04-12T07:17:41.525Z</time></trkpt><trkpt lat="39.3539719" lon="16.2438035"><ele>188.0</ele><time>2026-04-12T07:17:45.533Z</time></trkpt><trkpt lat="39.3540408" lon="16.2437979"><ele>188.0</ele><time>2026-04-12T07:17:47.522Z</time></trkpt><trkpt lat="39.3541166" lon="16.2437869"><ele>187.5</ele><time>2026-04-12T07:17:49.545Z</time></trkpt><trkpt lat="39.3541881" lon="16.2437698"><ele>187.0</ele><time>2026-04-12T07:17:51.535Z</time></trkpt><trkpt lat="39.3542619" lon="16.2437594"><ele>186.5</ele><time>2026-04-12T07:17:53.528Z</time></trkpt><trkpt lat="39.354338" lon="16.2437563"><ele>186.0</ele><time>2026-04-12T07:17:55.544Z</time></trkpt><trkpt lat="39.3544083" lon="16.2437519"><ele>185.5</ele><time>2026-04-12T07:17:57.57Z</time></trkpt><trkpt lat="39.3545066" lon="16.2437451"><ele>185.0</ele><time>2026-04-12T07:17:59.527Z</time></trkpt><trkpt lat="39.3546355" lon="16.2437308"><ele>184.14285714285714</ele><time>2026-04-12T07:18:01.526Z</time></trkpt><trkpt lat="39.354707" lon="16.2437237"><ele>183.28571428571428</ele><time>2026-04-12T07:18:02.521Z</time></trkpt><trkpt lat="39.3547772" lon="16.2437183"><ele>182.42857142857144</ele><time>2026-04-12T07:18:03.537Z</time></trkpt><trkpt lat="39.3548505" lon="16.2437171"><ele>181.57142857142856</ele><time>2026-04-12T07:18:04.525Z</time></trkpt><trkpt lat="39.354925" lon="16.2437069"><ele>180.71428571428572</ele><time>2026-04-12T07:18:05.549Z</time></trkpt><trkpt lat="39.3550017" lon="16.2436983"><ele>179.85714285714286</ele><time>2026-04-12T07:18:06.53Z</time></trkpt><trkpt lat="39.3550797" lon="16.2436889"><ele>179.0</ele><time>2026-04-12T07:18:07.532Z</time></trkpt><trkpt lat="39.3551578" lon="16.2436751"><ele>179.0</ele><time>2026-04-12T07:18:08.525Z</time></trkpt><trkpt lat="39.3552353" lon="16.2436634"><ele>179.0</ele><time>2026-04-12T07:18:09.538Z</time></trkpt><trkpt lat="39.3553134" lon="16.2436559"><ele>179.0</ele><time>2026-04-12T07:18:10.528Z</time></trkpt><trkpt lat="39.355394" lon="16.2436478"><ele>179.0</ele><time>2026-04-12T07:18:11.534Z</time></trkpt><trkpt lat="39.3554822" lon="16.24364"><ele>179.0</ele><time>2026-04-12T07:18:12.524Z</time></trkpt><trkpt lat="39.3555739" lon="16.243626"><ele>179.0</ele><time>2026-04-12T07:18:13.53Z</time></trkpt><trkpt lat="39.3556708" lon="16.2436116"><ele>178.79999999999998</ele><time>2026-04-12T07:18:14.524Z</time></trkpt><trkpt lat="39.3557744" lon="16.2436102"><ele>178.6</ele><time>2026-04-12T07:18:15.557Z</time></trkpt><trkpt lat="39.3558761" lon="16.2436122"><ele>178.4</ele><time>2026-04-12T07:18:16.531Z</time></trkpt><trkpt lat="39.3559816" lon="16.243613"><ele>178.2</ele><time>2026-04-12T07:18:17.531Z</time></trkpt><trkpt lat="39.3560823" lon="16.243611"><ele>178.0</ele><time>2026-04-12T07:18:18.525Z</time></trkpt><trkpt lat="39.3561763" lon="16.2436003"><ele>178.0</ele><time>2026-04-12T07:18:19.524Z</time></trkpt><trkpt lat="39.3562737" lon="16.2435906"><ele>178.0</ele><time>2026-04-12T07:18:20.523Z</time></trkpt><trkpt lat="39.3563649" lon="16.2435628"><ele>178.0</ele><time>2026-04-12T07:18:21.531Z</time></trkpt><trkpt lat="39.3564619" lon="16.243531"><ele>178.0</ele><time>2026-04-12T07:18:22.526Z</time></trkpt><trkpt lat="39.3565517" lon="16.2434984"><ele>178.0</ele><time>2026-04-12T07:18:23.532Z</time></trkpt><trkpt lat="39.3566351" lon="16.2434706"><ele>177.8</ele><time>2026-04-12T07:18:24.524Z</time></trkpt><trkpt lat="39.3567146" lon="16.2434467"><ele>177.60000000000002</ele><time>2026-04-12T07:18:25.52Z</time></trkpt><trkpt lat="39.3567804" lon="16.2434239"><ele>177.39999999999998</ele><time>2026-04-12T07:18:26.527Z</time></trkpt><trkpt lat="39.3568697" lon="16.2433555"><ele>177.2</ele><time>2026-04-12T07:18:28.52Z</time></trkpt><trkpt lat="39.3568784" lon="16.2432377"><ele>177.0</ele><time>2026-04-12T07:18:30.523Z</time></trkpt><trkpt lat="39.3568284" lon="16.243096"><ele>177.6</ele><time>2026-04-12T07:18:32.533Z</time></trkpt><trkpt lat="39.3567877" lon="16.2430224"><ele>178.2</ele><time>2026-04-12T07:18:33.532Z</time></trkpt><trkpt lat="39.3567407" lon="16.242938"><ele>178.8</ele><time>2026-04-12T07:18:34.517Z</time></trkpt><trkpt lat="39.3566852" lon="16.2428313"><ele>179.4</ele><time>2026-04-12T07:18:35.522Z</time></trkpt><trkpt lat="39.3566205" lon="16.2427014"><ele>180.0</ele><time>2026-04-12T07:18:36.528Z</time></trkpt><trkpt lat="39.3565629" lon="16.2425754"><ele>180.0</ele><time>2026-04-12T07:18:37.524Z</time></trkpt><trkpt lat="39.3565133" lon="16.242463"><ele>180.0</ele><time>2026-04-12T07:18:38.526Z</time></trkpt><trkpt lat="39.35647" lon="16.2423591"><ele>180.0</ele><time>2026-04-12T07:18:39.531Z</time></trkpt><trkpt lat="39.3564305" lon="16.2422584"><ele>180.0</ele><time>2026-04-12T07:18:40.529Z</time></trkpt><trkpt lat="39.3563865" lon="16.2421658"><ele>180.0</ele><time>2026-04-12T07:18:41.525Z</time></trkpt><trkpt lat="39.3563342" lon="16.2420894"><ele>180.0</ele><time>2026-04-12T07:18:42.529Z</time></trkpt><trkpt lat="39.3562736" lon="16.2420334"><ele>180.16666666666666</ele><time>2026-04-12T07:18:43.529Z</time></trkpt><trkpt lat="39.3562082" lon="16.2420029"><ele>180.33333333333334</ele><time>2026-04-12T07:18:44.541Z</time></trkpt><trkpt lat="39.3561359" lon="16.2419929"><ele>180.5</ele><time>2026-04-12T07:18:45.52Z</time></trkpt><trkpt lat="39.3560487" lon="16.241999"><ele>180.66666666666669</ele><time>2026-04-12T07:18:46.527Z</time></trkpt><trkpt lat="39.3559491" lon="16.2420118"><ele>180.83333333333334</ele><time>2026-04-12T07:18:47.53Z</time></trkpt><trkpt lat="39.3558362" lon="16.2420275"><ele>181.0</ele><time>2026-04-12T07:18:48.524Z</time></trkpt><trkpt lat="39.3557124" lon="16.2420454"><ele>181.0</ele><time>2026-04-12T07:18:49.52Z</time></trkpt><trkpt lat="39.3555866" lon="16.242061"><ele>181.0</ele><time>2026-04-12T07:18:50.529Z</time></trkpt><trkpt lat="39.3554634" lon="16.2420761"><ele>181.0</ele><time>2026-04-12T07:18:51.536Z</time></trkpt><trkpt lat="39.3553443" lon="16.2420893"><ele>181.0</ele><time>2026-04-12T07:18:52.524Z</time></trkpt><trkpt lat="39.3552272" lon="16.2421038"><ele>181.0</ele><time>2026-04-12T07:18:53.528Z</time></trkpt><trkpt lat="39.3551142" lon="16.2421176"><ele>181.0</ele><time>2026-04-12T07:18:54.524Z</time></trkpt><trkpt lat="39.3550041" lon="16.2421247"><ele>181.0</ele><time>2026-04-12T07:18:55.528Z</time></trkpt><trkpt lat="39.3548962" lon="16.2421344"><ele>181.0</ele><time>2026-04-12T07:18:56.533Z</time></trkpt><trkpt lat="39.3547896" lon="16.2421482"><ele>181.0</ele><time>2026-04-12T07:18:57.525Z</time></trkpt><trkpt lat="39.3546837" lon="16.2421603"><ele>181.5</ele><time>2026-04-12T07:18:58.527Z</time></trkpt><trkpt lat="39.3545814" lon="16.2421713"><ele>182.0</ele><time>2026-04-12T07:18:59.534Z</time></trkpt><trkpt lat="39.3544898" lon="16.2421837"><ele>182.5</ele><time>2026-04-12T07:19:00.53Z</time></trkpt><trkpt lat="39.3544046" lon="16.2421875"><ele>183.0</ele><time>2026-04-12T07:19:01.527Z</time></trkpt><trkpt lat="39.3543253" lon="16.2421728"><ele>183.5</ele><time>2026-04-12T07:19:02.523Z</time></trkpt><trkpt lat="39.354252" lon="16.242131"><ele>184.0</ele><time>2026-04-12T07:19:03.53Z</time></trkpt><trkpt lat="39.3541901" lon="16.2420658"><ele>184.0</ele><time>2026-04-12T07:19:04.53Z</time></trkpt><trkpt lat="39.3541427" lon="16.2419757"><ele>184.0</ele><time>2026-04-12T07:19:05.532Z</time></trkpt><trkpt lat="39.3541117" lon="16.2418616"><ele>184.0</ele><time>2026-04-12T07:19:06.535Z</time></trkpt><trkpt lat="39.3540925" lon="16.241734"><ele>184.0</ele><time>2026-04-12T07:19:07.573Z</time></trkpt><trkpt lat="39.3540751" lon="16.2416066"><ele>184.0</ele><time>2026-04-12T07:19:08.522Z</time></trkpt><trkpt lat="39.3540593" lon="16.2414794"><ele>184.0</ele><time>2026-04-12T07:19:09.523Z</time></trkpt><trkpt lat="39.3540468" lon="16.2413509"><ele>184.0</ele><time>2026-04-12T07:19:10.525Z</time></trkpt><trkpt lat="39.3540325" lon="16.2412235"><ele>184.0</ele><time>2026-04-12T07:19:11.533Z</time></trkpt><trkpt lat="39.3540141" lon="16.2410949"><ele>184.0</ele><time>2026-04-12T07:19:12.526Z</time></trkpt><trkpt lat="39.3539924" lon="16.2409663"><ele>184.0</ele><time>2026-04-12T07:19:13.525Z</time></trkpt><trkpt lat="39.3539697" lon="16.2408386"><ele>184.0</ele><time>2026-04-12T07:19:14.521Z</time></trkpt><trkpt lat="39.3539501" lon="16.2407092"><ele>184.0</ele><time>2026-04-12T07:19:15.531Z</time></trkpt><trkpt lat="39.3539322" lon="16.2405803"><ele>184.0</ele><time>2026-04-12T07:19:16.533Z</time></trkpt><trkpt lat="39.3539134" lon="16.2404544"><ele>184.0</ele><time>2026-04-12T07:19:17.526Z</time></trkpt><trkpt lat="39.3538955" lon="16.24033"><ele>184.0</ele><time>2026-04-12T07:19:18.527Z</time></trkpt><trkpt lat="39.3538798" lon="16.2402076"><ele>184.2</ele><time>2026-04-12T07:19:19.518Z</time></trkpt><trkpt lat="39.3538648" lon="16.2400856"><ele>184.39999999999998</ele><time>2026-04-12T07:19:20.52Z</time></trkpt><trkpt lat="39.3538477" lon="16.2399632"><ele>184.6</ele><time>2026-04-12T07:19:21.52Z</time></trkpt><trkpt lat="39.3538314" lon="16.2398404"><ele>184.8</ele><time>2026-04-12T07:19:22.526Z</time></trkpt><trkpt lat="39.3538149" lon="16.2397181"><ele>185.0</ele><time>2026-04-12T07:19:23.524Z</time></trkpt><trkpt lat="39.353799" lon="16.2395949"><ele>185.0</ele><time>2026-04-12T07:19:24.527Z</time></trkpt><trkpt lat="39.3537828" lon="16.2394709"><ele>185.0</ele><time>2026-04-12T07:19:25.533Z</time></trkpt><trkpt lat="39.3537674" lon="16.2393448"><ele>185.0</ele><time>2026-04-12T07:19:26.518Z</time></trkpt><trkpt lat="39.3537539" lon="16.239217"><ele>185.0</ele><time>2026-04-12T07:19:27.523Z</time></trkpt><trkpt lat="39.3537417" lon="16.2390878"><ele>185.0</ele><time>2026-04-12T07:19:28.524Z</time></trkpt><trkpt lat="39.3537284" lon="16.2389563"><ele>185.5</ele><time>2026-04-12T07:19:29.533Z</time></trkpt><trkpt lat="39.3537104" lon="16.2388164"><ele>186.0</ele><time>2026-04-12T07:19:30.524Z</time></trkpt><trkpt lat="39.3536899" lon="16.2386665"><ele>186.5</ele><time>2026-04-12T07:19:31.537Z</time></trkpt><trkpt lat="39.3536674" lon="16.2385195"><ele>187.0</ele><time>2026-04-12T07:19:32.531Z</time></trkpt><trkpt lat="39.3536452" lon="16.238376"><ele>187.0</ele><time>2026-04-12T07:19:33.524Z</time></trkpt><trkpt lat="39.3536248" lon="16.2382321"><ele>187.0</ele><time>2026-04-12T07:19:34.531Z</time></trkpt><trkpt lat="39.3536065" lon="16.2380903"><ele>187.0</ele><time>2026-04-12T07:19:35.529Z</time></trkpt><trkpt lat="39.3535881" lon="16.237951"><ele>187.0</ele><time>2026-04-12T07:19:36.535Z</time></trkpt><trkpt lat="39.3535671" lon="16.2378132"><ele>187.0</ele><time>2026-04-12T07:19:37.521Z</time></trkpt><trkpt lat="39.3535469" lon="16.2376754"><ele>187.2</ele><time>2026-04-12T07:19:38.527Z</time></trkpt><trkpt lat="39.353529" lon="16.2375383"><ele>187.39999999999998</ele><time>2026-04-12T07:19:39.53Z</time></trkpt><trkpt lat="39.3535133" lon="16.2374043"><ele>187.60000000000002</ele><time>2026-04-12T07:19:40.53Z</time></trkpt><trkpt lat="39.3534944" lon="16.237272"><ele>187.8</ele><time>2026-04-12T07:19:41.523Z</time></trkpt><trkpt lat="39.3534759" lon="16.2371489"><ele>188.0</ele><time>2026-04-12T07:19:42.529Z</time></trkpt><trkpt lat="39.3534646" lon="16.2370475"><ele>188.0</ele><time>2026-04-12T07:19:43.521Z</time></trkpt><trkpt lat="39.3534577" lon="16.2369651"><ele>188.0</ele><time>2026-04-12T07:19:44.528Z</time></trkpt><trkpt lat="39.3534447" lon="16.2368396"><ele>188.0</ele><time>2026-04-12T07:19:46.517Z</time></trkpt><trkpt lat="39.3534306" lon="16.2367329"><ele>188.0</ele><time>2026-04-12T07:19:48.525Z</time></trkpt><trkpt lat="39.3534086" lon="16.2365954"><ele>188.0</ele><time>2026-04-12T07:19:50.525Z</time></trkpt><trkpt lat="39.3533916" lon="16.2365059"><ele>188.0</ele><time>2026-04-12T07:19:51.521Z</time></trkpt><trkpt lat="39.3533764" lon="16.2363973"><ele>188.0</ele><time>2026-04-12T07:19:52.519Z</time></trkpt><trkpt lat="39.3533582" lon="16.2362729"><ele>188.0</ele><time>2026-04-12T07:19:53.524Z</time></trkpt><trkpt lat="39.3533385" lon="16.236142"><ele>188.0</ele><time>2026-04-12T07:19:54.531Z</time></trkpt><trkpt lat="39.3533213" lon="16.2360136"><ele>188.0</ele><time>2026-04-12T07:19:55.531Z</time></trkpt><trkpt lat="39.3533039" lon="16.2358898"><ele>188.0</ele><time>2026-04-12T07:19:56.529Z</time></trkpt><trkpt lat="39.3532893" lon="16.2357822"><ele>188.4</ele><time>2026-04-12T07:19:57.521Z</time></trkpt><trkpt lat="39.3532665" lon="16.2356363"><ele>188.8</ele><time>2026-04-12T07:19:59.523Z</time></trkpt><trkpt lat="39.3532519" lon="16.2354935"><ele>189.2</ele><time>2026-04-12T07:20:01.528Z</time></trkpt><trkpt lat="39.3532463" lon="16.2353597"><ele>189.6</ele><time>2026-04-12T07:20:03.534Z</time></trkpt><trkpt lat="39.3532461" lon="16.2352726"><ele>190.0</ele><time>2026-04-12T07:20:04.529Z</time></trkpt><trkpt lat="39.353233" lon="16.2351804"><ele>190.0</ele><time>2026-04-12T07:20:05.523Z</time></trkpt><trkpt lat="39.353219" lon="16.2350881"><ele>190.0</ele><time>2026-04-12T07:20:06.529Z</time></trkpt><trkpt lat="39.3531656" lon="16.2350096"><ele>190.0</ele><time>2026-04-12T07:20:07.538Z</time></trkpt><trkpt lat="39.3531009" lon="16.23495"><ele>190.0</ele><time>2026-04-12T07:20:08.528Z</time></trkpt><trkpt lat="39.3530262" lon="16.2349274"><ele>190.0</ele><time>2026-04-12T07:20:09.543Z</time></trkpt><trkpt lat="39.3529498" lon="16.234939"><ele>190.0</ele><time>2026-04-12T07:20:10.523Z</time></trkpt><trkpt lat="39.3528806" lon="16.2349874"><ele>189.83333333333334</ele><time>2026-04-12T07:20:11.521Z</time></trkpt><trkpt lat="39.3528243" lon="16.2350633"><ele>189.66666666666669</ele><time>2026-04-12T07:20:12.526Z</time></trkpt><trkpt lat="39.352782" lon="16.2351589"><ele>189.5</ele><time>2026-04-12T07:20:13.518Z</time></trkpt><trkpt lat="39.3527469" lon="16.2352676"><ele>189.33333333333334</ele><time>2026-04-12T07:20:14.532Z</time></trkpt><trkpt lat="39.3527094" lon="16.2353752"><ele>189.16666666666666</ele><time>2026-04-12T07:20:15.527Z</time></trkpt><trkpt lat="39.3526628" lon="16.2354752"><ele>189.0</ele><time>2026-04-12T07:20:16.53Z</time></trkpt><trkpt lat="39.3525974" lon="16.2355583"><ele>189.0</ele><time>2026-04-12T07:20:17.525Z</time></trkpt><trkpt lat="39.3525133" lon="16.2356172"><ele>189.0</ele><time>2026-04-12T07:20:18.518Z</time></trkpt><trkpt lat="39.3524148" lon="16.2356503"><ele>189.0</ele><time>2026-04-12T07:20:19.523Z</time></trkpt><trkpt lat="39.3523093" lon="16.2356571"><ele>189.0</ele><time>2026-04-12T07:20:20.532Z</time></trkpt><trkpt lat="39.3522032" lon="16.2356371"><ele>189.0</ele><time>2026-04-12T07:20:21.522Z</time></trkpt><trkpt lat="39.352103" lon="16.2355955"><ele>189.5</ele><time>2026-04-12T07:20:22.535Z</time></trkpt><trkpt lat="39.3520093" lon="16.2355328"><ele>190.0</ele><time>2026-04-12T07:20:23.532Z</time></trkpt><trkpt lat="39.3519219" lon="16.2354515"><ele>190.5</ele><time>2026-04-12T07:20:24.533Z</time></trkpt><trkpt lat="39.3518284" lon="16.235363"><ele>191.0</ele><time>2026-04-12T07:20:25.533Z</time></trkpt><trkpt lat="39.351738" lon="16.2352453"><ele>191.0</ele><time>2026-04-12T07:20:26.53Z</time></trkpt><trkpt lat="39.3516431" lon="16.2351139"><ele>191.0</ele><time>2026-04-12T07:20:27.535Z</time></trkpt><trkpt lat="39.3515451" lon="16.2349744"><ele>191.0</ele><time>2026-04-12T07:20:28.553Z</time></trkpt><trkpt lat="39.3514479" lon="16.2348357"><ele>191.0</ele><time>2026-04-12T07:20:29.568Z</time></trkpt><trkpt lat="39.3513503" lon="16.2347013"><ele>192.25</ele><time>2026-04-12T07:20:30.554Z</time></trkpt><trkpt lat="39.3512569" lon="16.2345662"><ele>193.5</ele><time>2026-04-12T07:20:31.545Z</time></trkpt><trkpt lat="39.351168" lon="16.234424"><ele>194.75</ele><time>2026-04-12T07:20:32.56Z</time></trkpt><trkpt lat="39.3510809" lon="16.2342802"><ele>196.0</ele><time>2026-04-12T07:20:33.543Z</time></trkpt><trkpt lat="39.351003" lon="16.2341273"><ele>195.25</ele><time>2026-04-12T07:20:34.532Z</time></trkpt><trkpt lat="39.3509377" lon="16.2339638"><ele>194.5</ele><time>2026-04-12T07:20:35.607Z</time></trkpt><trkpt lat="39.3508761" lon="16.2338101"><ele>193.75</ele><time>2026-04-12T07:20:36.538Z</time></trkpt><trkpt lat="39.3508112" lon="16.2336723"><ele>193.0</ele><time>2026-04-12T07:20:37.527Z</time></trkpt><trkpt lat="39.3507535" lon="16.2335362"><ele>193.0</ele><time>2026-04-12T07:20:38.529Z</time></trkpt><trkpt lat="39.3507011" lon="16.2333867"><ele>193.0</ele><time>2026-04-12T07:20:39.529Z</time></trkpt><trkpt lat="39.350683" lon="16.2332304"><ele>193.0</ele><time>2026-04-12T07:20:40.535Z</time></trkpt><trkpt lat="39.3506885" lon="16.233068"><ele>193.0</ele><time>2026-04-12T07:20:41.527Z</time></trkpt><trkpt lat="39.3506994" lon="16.232912"><ele>194.0</ele><time>2026-04-12T07:20:42.526Z</time></trkpt><trkpt lat="39.3507641" lon="16.232776"><ele>195.0</ele><time>2026-04-12T07:20:43.538Z</time></trkpt><trkpt lat="39.3508465" lon="16.2326645"><ele>196.0</ele><time>2026-04-12T07:20:44.527Z</time></trkpt><trkpt lat="39.3509382" lon="16.2325835"><ele>197.0</ele><time>2026-04-12T07:20:45.534Z</time></trkpt><trkpt lat="39.3510357" lon="16.2325248"><ele>197.0</ele><time>2026-04-12T07:20:46.537Z</time></trkpt><trkpt lat="39.3511386" lon="16.232489"><ele>197.0</ele><time>2026-04-12T07:20:47.537Z</time></trkpt><trkpt lat="39.3512443" lon="16.2324605"><ele>197.0</ele><time>2026-04-12T07:20:48.53Z</time></trkpt><trkpt lat="39.3513518" lon="16.2324901"><ele>197.0</ele><time>2026-04-12T07:20:49.533Z</time></trkpt><trkpt lat="39.351456" lon="16.2325251"><ele>197.0</ele><time>2026-04-12T07:20:50.529Z</time></trkpt><trkpt lat="39.3515445" lon="16.2326086"><ele>196.8</ele><time>2026-04-12T07:20:51.53Z</time></trkpt><trkpt lat="39.3516232" lon="16.2327136"><ele>196.6</ele><time>2026-04-12T07:20:52.52Z</time></trkpt><trkpt lat="39.3516834" lon="16.2328301"><ele>196.4</ele><time>2026-04-12T07:20:53.536Z</time></trkpt><trkpt lat="39.351725" lon="16.2329528"><ele>196.20000000000002</ele><time>2026-04-12T07:20:54.524Z</time></trkpt><trkpt lat="39.3517439" lon="16.2330802"><ele>196.0</ele><time>2026-04-12T07:20:55.523Z</time></trkpt><trkpt lat="39.351746" lon="16.233206"><ele>196.0</ele><time>2026-04-12T07:20:56.532Z</time></trkpt><trkpt lat="39.3517347" lon="16.2333367"><ele>196.0</ele><time>2026-04-12T07:20:57.537Z</time></trkpt><trkpt lat="39.3517021" lon="16.2334664"><ele>196.0</ele><time>2026-04-12T07:20:58.529Z</time></trkpt><trkpt lat="39.3516431" lon="16.233592"><ele>196.0</ele><time>2026-04-12T07:20:59.522Z</time></trkpt><trkpt lat="39.3515537" lon="16.2337121"><ele>196.0</ele><time>2026-04-12T07:21:00.528Z</time></trkpt><trkpt lat="39.3514245" lon="16.2338185"><ele>196.0</ele><time>2026-04-12T07:21:01.539Z</time></trkpt><trkpt lat="39.3512515" lon="16.233899"><ele>196.0</ele><time>2026-04-12T07:21:02.528Z</time></trkpt><trkpt lat="39.3510518" lon="16.2339561"><ele>196.0</ele><time>2026-04-12T07:21:03.527Z</time></trkpt><trkpt lat="39.3508489" lon="16.2340089"><ele>196.0</ele><time>2026-04-12T07:21:04.53Z</time></trkpt><trkpt lat="39.350655" lon="16.2340558"><ele>196.0</ele><time>2026-04-12T07:21:05.528Z</time></trkpt><trkpt lat="39.3504722" lon="16.2340991"><ele>196.0</ele><time>2026-04-12T07:21:06.537Z</time></trkpt><trkpt lat="39.3502985" lon="16.2341352"><ele>196.0</ele><time>2026-04-12T07:21:07.521Z</time></trkpt><trkpt lat="39.3501205" lon="16.2341773"><ele>196.0</ele><time>2026-04-12T07:21:08.523Z</time></trkpt><trkpt lat="39.3499441" lon="16.2342281"><ele>196.0</ele><time>2026-04-12T07:21:09.533Z</time></trkpt><trkpt lat="39.3497636" lon="16.2342879"><ele>196.0</ele><time>2026-04-12T07:21:10.534Z</time></trkpt><trkpt lat="39.3495716" lon="16.2343417"><ele>196.0</ele><time>2026-04-12T07:21:11.532Z</time></trkpt><trkpt lat="39.349382" lon="16.2343945"><ele>196.33333333333331</ele><time>2026-04-12T07:21:12.532Z</time></trkpt><trkpt lat="39.3492013" lon="16.234449"><ele>196.66666666666669</ele><time>2026-04-12T07:21:13.528Z</time></trkpt><trkpt lat="39.3490165" lon="16.2345046"><ele>197.0</ele><time>2026-04-12T07:21:14.528Z</time></trkpt><trkpt lat="39.3488323" lon="16.2345623"><ele>197.0</ele><time>2026-04-12T07:21:15.555Z</time></trkpt><trkpt lat="39.3486399" lon="16.2346225"><ele>197.0</ele><time>2026-04-12T07:21:16.528Z</time></trkpt><trkpt lat="39.3484405" lon="16.2346832"><ele>197.0</ele><time>2026-04-12T07:21:17.561Z</time></trkpt><trkpt lat="39.3482396" lon="16.2347429"><ele>196.33333333333334</ele><time>2026-04-12T07:21:18.529Z</time></trkpt><trkpt lat="39.3480336" lon="16.2347968"><ele>195.66666666666669</ele><time>2026-04-12T07:21:19.532Z</time></trkpt><trkpt lat="39.3478177" lon="16.2348489"><ele>195.0</ele><time>2026-04-12T07:21:20.525Z</time></trkpt><trkpt lat="39.3475934" lon="16.2349015"><ele>195.0</ele><time>2026-04-12T07:21:21.537Z</time></trkpt><trkpt lat="39.3473666" lon="16.2349529"><ele>195.0</ele><time>2026-04-12T07:21:22.529Z</time></trkpt><trkpt lat="39.3471262" lon="16.2350075"><ele>194.0</ele><time>2026-04-12T07:21:23.535Z</time></trkpt><trkpt lat="39.3468833" lon="16.2350401"><ele>193.0</ele><time>2026-04-12T07:21:24.527Z</time></trkpt><trkpt lat="39.3466295" lon="16.2350725"><ele>195.0</ele><time>2026-04-12T07:21:25.538Z</time></trkpt><trkpt lat="39.3463704" lon="16.2350862"><ele>197.0</ele><time>2026-04-12T07:21:26.521Z</time></trkpt><trkpt lat="39.3461114" lon="16.2350936"><ele>197.0</ele><time>2026-04-12T07:21:27.527Z</time></trkpt><trkpt lat="39.3458463" lon="16.2350916"><ele>197.0</ele><time>2026-04-12T07:21:28.522Z</time></trkpt><trkpt lat="39.3455763" lon="16.235079"><ele>199.0</ele><time>2026-04-12T07:21:29.527Z</time></trkpt><trkpt lat="39.3452955" lon="16.235054"><ele>201.0</ele><time>2026-04-12T07:21:30.553Z</time></trkpt><trkpt lat="39.345003" lon="16.2350131"><ele>201.0</ele><time>2026-04-12T07:21:31.531Z</time></trkpt><trkpt lat="39.3447053" lon="16.234962"><ele>201.0</ele><time>2026-04-12T07:21:32.528Z</time></trkpt><trkpt lat="39.3444058" lon="16.2349057"><ele>201.0</ele><time>2026-04-12T07:21:33.528Z</time></trkpt><trkpt lat="39.3441039" lon="16.2348478"><ele>201.0</ele><time>2026-04-12T07:21:34.525Z</time></trkpt><trkpt lat="39.3438014" lon="16.2347926"><ele>202.5</ele><time>2026-04-12T07:21:35.529Z</time></trkpt><trkpt lat="39.3435013" lon="16.23474"><ele>204.0</ele><time>2026-04-12T07:21:36.552Z</time></trkpt><trkpt lat="39.3432048" lon="16.2346859"><ele>203.0</ele><time>2026-04-12T07:21:37.534Z</time></trkpt><trkpt lat="39.342912" lon="16.2346345"><ele>202.0</ele><time>2026-04-12T07:21:38.528Z</time></trkpt><trkpt lat="39.342624" lon="16.2345882"><ele>202.0</ele><time>2026-04-12T07:21:39.526Z</time></trkpt><trkpt lat="39.342338" lon="16.2345489"><ele>202.0</ele><time>2026-04-12T07:21:40.533Z</time></trkpt><trkpt lat="39.3420511" lon="16.2345213"><ele>201.5</ele><time>2026-04-12T07:21:41.523Z</time></trkpt><trkpt lat="39.3417657" lon="16.2345048"><ele>201.0</ele><time>2026-04-12T07:21:42.529Z</time></trkpt><trkpt lat="39.3414825" lon="16.2345005"><ele>199.5</ele><time>2026-04-12T07:21:43.542Z</time></trkpt><trkpt lat="39.3412005" lon="16.2345074"><ele>198.0</ele><time>2026-04-12T07:21:44.526Z</time></trkpt><trkpt lat="39.3409208" lon="16.2345239"><ele>198.0</ele><time>2026-04-12T07:21:45.527Z</time></trkpt><trkpt lat="39.340641" lon="16.2345501"><ele>198.0</ele><time>2026-04-12T07:21:46.527Z</time></trkpt><trkpt lat="39.3403623" lon="16.2345875"><ele>197.5</ele><time>2026-04-12T07:21:47.536Z</time></trkpt><trkpt lat="39.3400836" lon="16.2346381"><ele>197.0</ele><time>2026-04-12T07:21:48.538Z</time></trkpt><trkpt lat="39.3398044" lon="16.2347016"><ele>195.0</ele><time>2026-04-12T07:21:49.525Z</time></trkpt><trkpt lat="39.3395249" lon="16.2347801"><ele>193.0</ele><time>2026-04-12T07:21:50.522Z</time></trkpt><trkpt lat="39.3392434" lon="16.2348741"><ele>193.0</ele><time>2026-04-12T07:21:51.533Z</time></trkpt><trkpt lat="39.338954" lon="16.2349813"><ele>193.0</ele><time>2026-04-12T07:21:52.534Z</time></trkpt><trkpt lat="39.3386615" lon="16.2350977"><ele>192.5</ele><time>2026-04-12T07:21:53.528Z</time></trkpt><trkpt lat="39.3383654" lon="16.2352199"><ele>192.0</ele><time>2026-04-12T07:21:54.518Z</time></trkpt><trkpt lat="39.3380589" lon="16.2353459"><ele>193.5</ele><time>2026-04-12T07:21:55.534Z</time></trkpt><trkpt lat="39.337743" lon="16.235475"><ele>195.0</ele><time>2026-04-12T07:21:56.536Z</time></trkpt><trkpt lat="39.3374182" lon="16.2356079"><ele>194.5</ele><time>2026-04-12T07:21:57.534Z</time></trkpt><trkpt lat="39.3370896" lon="16.2357447"><ele>194.0</ele><time>2026-04-12T07:21:58.527Z</time></trkpt><trkpt lat="39.336762" lon="16.2358832"><ele>194.0</ele><time>2026-04-12T07:21:59.527Z</time></trkpt><trkpt lat="39.3364394" lon="16.23602"><ele>194.0</ele><time>2026-04-12T07:22:00.531Z</time></trkpt><trkpt lat="39.3361225" lon="16.2361531"><ele>195.5</ele><time>2026-04-12T07:22:01.526Z</time></trkpt><trkpt lat="39.335812" lon="16.2362833"><ele>197.0</ele><time>2026-04-12T07:22:02.522Z</time></trkpt><trkpt lat="39.3355069" lon="16.2364114"><ele>198.0</ele><time>2026-04-12T07:22:03.53Z</time></trkpt><trkpt lat="39.3352071" lon="16.2365374"><ele>199.0</ele><time>2026-04-12T07:22:04.531Z</time></trkpt><trkpt lat="39.3349122" lon="16.2366609"><ele>200.0</ele><time>2026-04-12T07:22:05.528Z</time></trkpt><trkpt lat="39.3346193" lon="16.2367828"><ele>201.0</ele><time>2026-04-12T07:22:06.531Z</time></trkpt><trkpt lat="39.3343297" lon="16.2369035"><ele>201.0</ele><time>2026-04-12T07:22:07.53Z</time></trkpt><trkpt lat="39.3340421" lon="16.2370228"><ele>201.0</ele><time>2026-04-12T07:22:08.529Z</time></trkpt><trkpt lat="39.3337557" lon="16.2371426"><ele>203.0</ele><time>2026-04-12T07:22:09.531Z</time></trkpt><trkpt lat="39.3334689" lon="16.2372629"><ele>205.0</ele><time>2026-04-12T07:22:10.532Z</time></trkpt><trkpt lat="39.3331819" lon="16.2373795"><ele>206.0</ele><time>2026-04-12T07:22:11.528Z</time></trkpt><trkpt lat="39.3328949" lon="16.2374952"><ele>207.0</ele><time>2026-04-12T07:22:12.53Z</time></trkpt><trkpt lat="39.332608" lon="16.2376136"><ele>207.0</ele><time>2026-04-12T07:22:13.533Z</time></trkpt><trkpt lat="39.332321" lon="16.2377329"><ele>207.0</ele><time>2026-04-12T07:22:14.522Z</time></trkpt><trkpt lat="39.3320337" lon="16.2378522"><ele>208.5</ele><time>2026-04-12T07:22:15.539Z</time></trkpt><trkpt lat="39.3317469" lon="16.2379722"><ele>210.0</ele><time>2026-04-12T07:22:16.541Z</time></trkpt><trkpt lat="39.3314599" lon="16.238094"><ele>211.5</ele><time>2026-04-12T07:22:17.525Z</time></trkpt><trkpt lat="39.3311722" lon="16.2382153"><ele>213.0</ele><time>2026-04-12T07:22:18.531Z</time></trkpt><trkpt lat="39.3308838" lon="16.2383354"><ele>213.0</ele><time>2026-04-12T07:22:19.524Z</time></trkpt><trkpt lat="39.3305959" lon="16.2384552"><ele>213.0</ele><time>2026-04-12T07:22:20.519Z</time></trkpt><trkpt lat="39.330309" lon="16.238575"><ele>214.0</ele><time>2026-04-12T07:22:21.532Z</time></trkpt><trkpt lat="39.3300232" lon="16.2386944"><ele>215.0</ele><time>2026-04-12T07:22:22.53Z</time></trkpt><trkpt lat="39.3297385" lon="16.2388147"><ele>215.5</ele><time>2026-04-12T07:22:23.526Z</time></trkpt><trkpt lat="39.3294547" lon="16.2389341"><ele>216.0</ele><time>2026-04-12T07:22:24.531Z</time></trkpt><trkpt lat="39.3291713" lon="16.2390495"><ele>216.5</ele><time>2026-04-12T07:22:25.525Z</time></trkpt><trkpt lat="39.3288905" lon="16.2391601"><ele>217.0</ele><time>2026-04-12T07:22:26.531Z</time></trkpt><trkpt lat="39.3286029" lon="16.2392603"><ele>217.0</ele><time>2026-04-12T07:22:27.533Z</time></trkpt><trkpt lat="39.3283139" lon="16.2393532"><ele>217.0</ele><time>2026-04-12T07:22:28.523Z</time></trkpt><trkpt lat="39.328014" lon="16.2394354"><ele>218.0</ele><time>2026-04-12T07:22:29.532Z</time></trkpt><trkpt lat="39.3277143" lon="16.2394969"><ele>219.0</ele><time>2026-04-12T07:22:30.528Z</time></trkpt><trkpt lat="39.3274135" lon="16.2395534"><ele>220.5</ele><time>2026-04-12T07:22:31.532Z</time></trkpt><trkpt lat="39.3271086" lon="16.2395946"><ele>222.0</ele><time>2026-04-12T07:22:32.529Z</time></trkpt><trkpt lat="39.3268" lon="16.2396209"><ele>222.0</ele><time>2026-04-12T07:22:33.536Z</time></trkpt><trkpt lat="39.3264908" lon="16.2396345"><ele>222.0</ele><time>2026-04-12T07:22:34.529Z</time></trkpt><trkpt lat="39.3261805" lon="16.2396394"><ele>222.5</ele><time>2026-04-12T07:22:35.535Z</time></trkpt><trkpt lat="39.3258687" lon="16.2396358"><ele>223.0</ele><time>2026-04-12T07:22:36.537Z</time></trkpt><trkpt lat="39.3255592" lon="16.2396329"><ele>223.0</ele><time>2026-04-12T07:22:37.532Z</time></trkpt><trkpt lat="39.3252483" lon="16.2396299"><ele>223.0</ele><time>2026-04-12T07:22:38.528Z</time></trkpt><trkpt lat="39.3249359" lon="16.2396229"><ele>223.5</ele><time>2026-04-12T07:22:39.534Z</time></trkpt><trkpt lat="39.3246254" lon="16.2396191"><ele>224.0</ele><time>2026-04-12T07:22:40.526Z</time></trkpt><trkpt lat="39.3243166" lon="16.2396169"><ele>224.0</ele><time>2026-04-12T07:22:41.533Z</time></trkpt><trkpt lat="39.3240079" lon="16.2396157"><ele>224.0</ele><time>2026-04-12T07:22:42.531Z</time></trkpt><trkpt lat="39.3237005" lon="16.2396221"><ele>222.5</ele><time>2026-04-12T07:22:43.528Z</time></trkpt><trkpt lat="39.323394" lon="16.2396386"><ele>221.0</ele><time>2026-04-12T07:22:44.532Z</time></trkpt><trkpt lat="39.3230887" lon="16.2396659"><ele>220.0</ele><time>2026-04-12T07:22:45.545Z</time></trkpt><trkpt lat="39.3227831" lon="16.2397035"><ele>219.0</ele><time>2026-04-12T07:22:46.527Z</time></trkpt><trkpt lat="39.3224804" lon="16.2397548"><ele>217.0</ele><time>2026-04-12T07:22:47.528Z</time></trkpt><trkpt lat="39.3221795" lon="16.2398179"><ele>215.0</ele><time>2026-04-12T07:22:48.538Z</time></trkpt><trkpt lat="39.3218795" lon="16.2398904"><ele>215.0</ele><time>2026-04-12T07:22:49.545Z</time></trkpt><trkpt lat="39.3215823" lon="16.2399727"><ele>215.0</ele><time>2026-04-12T07:22:50.529Z</time></trkpt><trkpt lat="39.3212864" lon="16.2400655"><ele>214.0</ele><time>2026-04-12T07:22:51.523Z</time></trkpt><trkpt lat="39.3209936" lon="16.2401679"><ele>213.0</ele><time>2026-04-12T07:22:52.532Z</time></trkpt><trkpt lat="39.320703" lon="16.2402773"><ele>212.0</ele><time>2026-04-12T07:22:53.53Z</time></trkpt><trkpt lat="39.3204149" lon="16.2403912"><ele>211.0</ele><time>2026-04-12T07:22:54.523Z</time></trkpt><trkpt lat="39.3201306" lon="16.2405072"><ele>211.0</ele><time>2026-04-12T07:22:55.516Z</time></trkpt><trkpt lat="39.3198473" lon="16.2406232"><ele>211.0</ele><time>2026-04-12T07:22:56.53Z</time></trkpt><trkpt lat="39.3195624" lon="16.2407398"><ele>211.5</ele><time>2026-04-12T07:22:57.527Z</time></trkpt><trkpt lat="39.3192734" lon="16.2408533"><ele>212.0</ele><time>2026-04-12T07:22:58.522Z</time></trkpt><trkpt lat="39.318979" lon="16.2409613"><ele>210.5</ele><time>2026-04-12T07:22:59.528Z</time></trkpt><trkpt lat="39.3186798" lon="16.2410638"><ele>209.0</ele><time>2026-04-12T07:23:00.543Z</time></trkpt><trkpt lat="39.3183748" lon="16.2411578"><ele>209.5</ele><time>2026-04-12T07:23:01.53Z</time></trkpt><trkpt lat="39.3180588" lon="16.2412415"><ele>210.0</ele><time>2026-04-12T07:23:02.528Z</time></trkpt><trkpt lat="39.3177274" lon="16.2413088"><ele>210.0</ele><time>2026-04-12T07:23:03.523Z</time></trkpt><trkpt lat="39.3173842" lon="16.2413517"><ele>210.0</ele><time>2026-04-12T07:23:04.532Z</time></trkpt><trkpt lat="39.3170407" lon="16.2413711"><ele>211.0</ele><time>2026-04-12T07:23:05.534Z</time></trkpt><trkpt lat="39.3167012" lon="16.2413751"><ele>212.0</ele><time>2026-04-12T07:23:06.529Z</time></trkpt><trkpt lat="39.3163748" lon="16.241348"><ele>212.5</ele><time>2026-04-12T07:23:07.527Z</time></trkpt><trkpt lat="39.3160545" lon="16.241301"><ele>213.0</ele><time>2026-04-12T07:23:08.533Z</time></trkpt><trkpt lat="39.3157405" lon="16.2412337"><ele>215.5</ele><time>2026-04-12T07:23:09.524Z</time></trkpt><trkpt lat="39.3154328" lon="16.2411477"><ele>218.0</ele><time>2026-04-12T07:23:10.535Z</time></trkpt><trkpt lat="39.3151337" lon="16.2410474"><ele>218.0</ele><time>2026-04-12T07:23:11.522Z</time></trkpt><trkpt lat="39.3148401" lon="16.2409326"><ele>218.0</ele><time>2026-04-12T07:23:12.536Z</time></trkpt><trkpt lat="39.3145528" lon="16.2407977"><ele>220.0</ele><time>2026-04-12T07:23:13.53Z</time></trkpt><trkpt lat="39.3142679" lon="16.2406459"><ele>222.0</ele><time>2026-04-12T07:23:14.536Z</time></trkpt><trkpt lat="39.3139809" lon="16.2404792"><ele>227.5</ele><time>2026-04-12T07:23:15.521Z</time></trkpt><trkpt lat="39.3136957" lon="16.2402959"><ele>233.0</ele><time>2026-04-12T07:23:16.537Z</time></trkpt><trkpt lat="39.3134152" lon="16.2401064"><ele>233.0</ele><time>2026-04-12T07:23:17.534Z</time></trkpt><trkpt lat="39.3131422" lon="16.2399164"><ele>233.0</ele><time>2026-04-12T07:23:18.533Z</time></trkpt><trkpt lat="39.3128729" lon="16.239725"><ele>232.5</ele><time>2026-04-12T07:23:19.524Z</time></trkpt><trkpt lat="39.3126042" lon="16.2395334"><ele>232.0</ele><time>2026-04-12T07:23:20.53Z</time></trkpt><trkpt lat="39.3123365" lon="16.2393494"><ele>240.0</ele><time>2026-04-12T07:23:21.522Z</time></trkpt><trkpt lat="39.3120639" lon="16.2391772"><ele>248.0</ele><time>2026-04-12T07:23:22.533Z</time></trkpt><trkpt lat="39.3117832" lon="16.2390138"><ele>247.0</ele><time>2026-04-12T07:23:23.523Z</time></trkpt><trkpt lat="39.3114938" lon="16.238862"><ele>246.0</ele><time>2026-04-12T07:23:24.525Z</time></trkpt><trkpt lat="39.3112008" lon="16.2387264"><ele>246.0</ele><time>2026-04-12T07:23:25.54Z</time></trkpt><trkpt lat="39.310909" lon="16.2386073"><ele>246.0</ele><time>2026-04-12T07:23:26.525Z</time></trkpt><trkpt lat="39.3106179" lon="16.2384968"><ele>251.0</ele><time>2026-04-12T07:23:27.526Z</time></trkpt><trkpt lat="39.310331" lon="16.2383884"><ele>256.0</ele><time>2026-04-12T07:23:28.555Z</time></trkpt><trkpt lat="39.3100466" lon="16.2382798"><ele>256.0</ele><time>2026-04-12T07:23:29.524Z</time></trkpt><trkpt lat="39.3097603" lon="16.2381721"><ele>256.0</ele><time>2026-04-12T07:23:30.516Z</time></trkpt><trkpt lat="39.3094696" lon="16.2380686"><ele>258.0</ele><time>2026-04-12T07:23:31.527Z</time></trkpt><trkpt lat="39.3091773" lon="16.2379704"><ele>260.0</ele><time>2026-04-12T07:23:32.524Z</time></trkpt><trkpt lat="39.3088835" lon="16.237874"><ele>267.0</ele><time>2026-04-12T07:23:33.521Z</time></trkpt><trkpt lat="39.3085887" lon="16.2377767"><ele>274.0</ele><time>2026-04-12T07:23:34.524Z</time></trkpt><trkpt lat="39.3082921" lon="16.237679"><ele>281.0</ele><time>2026-04-12T07:23:35.53Z</time></trkpt><trkpt lat="39.3079974" lon="16.2375812"><ele>288.0</ele><time>2026-04-12T07:23:36.534Z</time></trkpt><trkpt lat="39.3077084" lon="16.2374877"><ele>282.0</ele><time>2026-04-12T07:23:37.526Z</time></trkpt><trkpt lat="39.3081304" lon="16.2376263"><ele>276.0</ele><time>2026-04-12T07:23:49.756Z</time></trkpt><trkpt lat="39.3022852" lon="16.23586"><ele>273.0</ele><time>2026-04-12T07:23:55.56Z</time></trkpt><trkpt lat="39.3019958" lon="16.235809"><ele>270.0</ele><time>2026-04-12T07:23:56.524Z</time></trkpt><trkpt lat="39.3017176" lon="16.2357702"><ele>269.0</ele><time>2026-04-12T07:23:57.56Z</time></trkpt><trkpt lat="39.3014073" lon="16.2357718"><ele>268.0</ele><time>2026-04-12T07:23:58.53Z</time></trkpt><trkpt lat="39.3011106" lon="16.2357768"><ele>268.0</ele><time>2026-04-12T07:23:59.531Z</time></trkpt><trkpt lat="39.3008104" lon="16.2358041"><ele>268.0</ele><time>2026-04-12T07:24:00.527Z</time></trkpt><trkpt lat="39.3005166" lon="16.2358462"><ele>269.0</ele><time>2026-04-12T07:24:01.53Z</time></trkpt><trkpt lat="39.3002271" lon="16.2358912"><ele>270.0</ele><time>2026-04-12T07:24:02.526Z</time></trkpt><trkpt lat="39.2999572" lon="16.2359605"><ele>273.5</ele><time>2026-04-12T07:24:03.54Z</time></trkpt><trkpt lat="39.2996622" lon="16.236036"><ele>277.0</ele><time>2026-04-12T07:24:04.531Z</time></trkpt><trkpt lat="39.2993749" lon="16.2361193"><ele>277.0</ele><time>2026-04-12T07:24:05.569Z</time></trkpt><trkpt lat="39.2990903" lon="16.2361999"><ele>277.0</ele><time>2026-04-12T07:24:06.527Z</time></trkpt><trkpt lat="39.2988092" lon="16.2362806"><ele>279.5</ele><time>2026-04-12T07:24:07.526Z</time></trkpt><trkpt lat="39.2985215" lon="16.2363669"><ele>282.0</ele><time>2026-04-12T07:24:08.573Z</time></trkpt><trkpt lat="39.2982201" lon="16.2364431"><ele>285.5</ele><time>2026-04-12T07:24:09.522Z</time></trkpt><trkpt lat="39.2979309" lon="16.2365405"><ele>289.0</ele><time>2026-04-12T07:24:10.525Z</time></trkpt><trkpt lat="39.297635" lon="16.2366373"><ele>289.0</ele><time>2026-04-12T07:24:11.52Z</time></trkpt><trkpt lat="39.29734" lon="16.2367163"><ele>289.0</ele><time>2026-04-12T07:24:12.526Z</time></trkpt><trkpt lat="39.2970432" lon="16.2368068"><ele>290.5</ele><time>2026-04-12T07:24:13.532Z</time></trkpt><trkpt lat="39.2967475" lon="16.2368986"><ele>292.0</ele><time>2026-04-12T07:24:14.526Z</time></trkpt><trkpt lat="39.2964498" lon="16.2369896"><ele>297.0</ele><time>2026-04-12T07:24:15.528Z</time></trkpt><trkpt lat="39.29615" lon="16.2370857"><ele>302.0</ele><time>2026-04-12T07:24:16.522Z</time></trkpt><trkpt lat="39.2958476" lon="16.2371785"><ele>312.5</ele><time>2026-04-12T07:24:17.528Z</time></trkpt><trkpt lat="39.2955466" lon="16.2372743"><ele>323.0</ele><time>2026-04-12T07:24:18.57Z</time></trkpt><trkpt lat="39.2952408" lon="16.237359"><ele>318.0</ele><time>2026-04-12T07:24:19.528Z</time></trkpt><trkpt lat="39.2918485" lon="16.2383333"><ele>318.0</ele><time>2026-04-12T07:24:30.509Z</time></trkpt><trkpt lat="39.2915759" lon="16.2384636"><ele>318.0</ele><time>2026-04-12T07:24:31.536Z</time></trkpt><trkpt lat="39.2912932" lon="16.2385586"><ele>319.5</ele><time>2026-04-12T07:24:32.531Z</time></trkpt><trkpt lat="39.2910153" lon="16.238652"><ele>321.0</ele><time>2026-04-12T07:24:33.52Z</time></trkpt><trkpt lat="39.2907425" lon="16.2387419"><ele>326.5</ele><time>2026-04-12T07:24:34.527Z</time></trkpt><trkpt lat="39.2904757" lon="16.2388339"><ele>332.0</ele><time>2026-04-12T07:24:35.528Z</time></trkpt><trkpt lat="39.290203" lon="16.2389364"><ele>325.0</ele><time>2026-04-12T07:24:36.527Z</time></trkpt><trkpt lat="39.2899254" lon="16.2390191"><ele>318.0</ele><time>2026-04-12T07:24:37.522Z</time></trkpt><trkpt lat="39.2896563" lon="16.2391023"><ele>309.0</ele><time>2026-04-12T07:24:38.54Z</time></trkpt><trkpt lat="39.2893489" lon="16.2391826"><ele>300.0</ele><time>2026-04-12T07:24:39.543Z</time></trkpt><trkpt lat="39.2890547" lon="16.2392814"><ele>285.5</ele><time>2026-04-12T07:24:40.535Z</time></trkpt><trkpt lat="39.2887619" lon="16.2394012"><ele>271.0</ele><time>2026-04-12T07:24:41.533Z</time></trkpt><trkpt lat="39.2884782" lon="16.2395349"><ele>271.0</ele><time>2026-04-12T07:24:42.532Z</time></trkpt><trkpt lat="39.2881964" lon="16.2396876"><ele>271.0</ele><time>2026-04-12T07:24:43.532Z</time></trkpt><trkpt lat="39.2879219" lon="16.239832"><ele>276.0</ele><time>2026-04-12T07:24:44.532Z</time></trkpt><trkpt lat="39.2876611" lon="16.2400154"><ele>281.0</ele><time>2026-04-12T07:24:45.534Z</time></trkpt><trkpt lat="39.2873979" lon="16.2402202"><ele>298.5</ele><time>2026-04-12T07:24:46.536Z</time></trkpt><trkpt lat="39.2871496" lon="16.2404209"><ele>316.0</ele><time>2026-04-12T07:24:47.522Z</time></trkpt><trkpt lat="39.2869029" lon="16.2406575"><ele>317.0</ele><time>2026-04-12T07:24:48.533Z</time></trkpt><trkpt lat="39.2866607" lon="16.2408996"><ele>318.0</ele><time>2026-04-12T07:24:49.531Z</time></trkpt><trkpt lat="39.2864175" lon="16.2411342"><ele>331.0</ele><time>2026-04-12T07:24:50.528Z</time></trkpt><trkpt lat="39.2861705" lon="16.2413597"><ele>344.0</ele><time>2026-04-12T07:24:51.537Z</time></trkpt><trkpt lat="39.2859294" lon="16.2415814"><ele>327.0</ele><time>2026-04-12T07:24:52.524Z</time></trkpt><trkpt lat="39.2832165" lon="16.2441751"><ele>340.0</ele><time>2026-04-12T07:25:02.537Z</time></trkpt><trkpt lat="39.2829612" lon="16.244413"><ele>353.0</ele><time>2026-04-12T07:25:03.527Z</time></trkpt><trkpt lat="39.2827485" lon="16.2446522"><ele>341.5</ele><time>2026-04-12T07:25:04.527Z</time></trkpt><trkpt lat="39.2825386" lon="16.2449045"><ele>330.0</ele><time>2026-04-12T07:25:05.53Z</time></trkpt><trkpt lat="39.2823148" lon="16.2451841"><ele>331.5</ele><time>2026-04-12T07:25:06.533Z</time></trkpt><trkpt lat="39.2821175" lon="16.2454651"><ele>333.0</ele><time>2026-04-12T07:25:07.53Z</time></trkpt><trkpt lat="39.2819178" lon="16.2457457"><ele>333.0</ele><time>2026-04-12T07:25:08.524Z</time></trkpt><trkpt lat="39.2817192" lon="16.2460253"><ele>333.0</ele><time>2026-04-12T07:25:09.536Z</time></trkpt><trkpt lat="39.2815185" lon="16.2463016"><ele>344.0</ele><time>2026-04-12T07:25:10.53Z</time></trkpt><trkpt lat="39.2813171" lon="16.2465778"><ele>355.0</ele><time>2026-04-12T07:25:11.541Z</time></trkpt><trkpt lat="39.2811124" lon="16.2468549"><ele>355.0</ele><time>2026-04-12T07:25:12.535Z</time></trkpt><trkpt lat="39.2809106" lon="16.2471376"><ele>355.0</ele><time>2026-04-12T07:25:13.532Z</time></trkpt><trkpt lat="39.2807114" lon="16.2474289"><ele>359.0</ele><time>2026-04-12T07:25:14.524Z</time></trkpt><trkpt lat="39.2805033" lon="16.2477171"><ele>363.0</ele><time>2026-04-12T07:25:15.531Z</time></trkpt><trkpt lat="39.2802818" lon="16.2479917"><ele>351.0</ele><time>2026-04-12T07:25:16.53Z</time></trkpt><trkpt lat="39.2800794" lon="16.2482786"><ele>339.0</ele><time>2026-04-12T07:25:17.536Z</time></trkpt><trkpt lat="39.2798575" lon="16.248556"><ele>335.5</ele><time>2026-04-12T07:25:18.523Z</time></trkpt><trkpt lat="39.2796234" lon="16.2487881"><ele>332.0</ele><time>2026-04-12T07:25:19.524Z</time></trkpt><trkpt lat="39.279358" lon="16.2489951"><ele>332.0</ele><time>2026-04-12T07:25:20.534Z</time></trkpt><trkpt lat="39.2790882" lon="16.2491652"><ele>332.0</ele><time>2026-04-12T07:25:21.523Z</time></trkpt><trkpt lat="39.278799" lon="16.2492831"><ele>342.0</ele><time>2026-04-12T07:25:22.525Z</time></trkpt><trkpt lat="39.2785123" lon="16.2493697"><ele>352.0</ele><time>2026-04-12T07:25:23.523Z</time></trkpt><trkpt lat="39.278218" lon="16.2494189"><ele>351.0</ele><time>2026-04-12T07:25:24.523Z</time></trkpt><trkpt lat="39.2779119" lon="16.2494286"><ele>350.0</ele><time>2026-04-12T07:25:25.525Z</time></trkpt><trkpt lat="39.2776056" lon="16.2493991"><ele>350.0</ele><time>2026-04-12T07:25:26.527Z</time></trkpt><trkpt lat="39.2772977" lon="16.2493126"><ele>350.0</ele><time>2026-04-12T07:25:27.528Z</time></trkpt><trkpt lat="39.2769891" lon="16.2491708"><ele>348.5</ele><time>2026-04-12T07:25:28.527Z</time></trkpt><trkpt lat="39.2766959" lon="16.2490028"><ele>347.0</ele><time>2026-04-12T07:25:29.53Z</time></trkpt><trkpt lat="39.2764091" lon="16.2488088"><ele>347.0</ele><time>2026-04-12T07:25:30.533Z</time></trkpt><trkpt lat="39.2761279" lon="16.2486051"><ele>347.0</ele><time>2026-04-12T07:25:31.523Z</time></trkpt><trkpt lat="39.2758471" lon="16.248414"><ele>338.0</ele><time>2026-04-12T07:25:32.536Z</time></trkpt><trkpt lat="39.2755636" lon="16.2482294"><ele>329.0</ele><time>2026-04-12T07:25:33.524Z</time></trkpt><trkpt lat="39.2752724" lon="16.2480649"><ele>341.0</ele><time>2026-04-12T07:25:34.523Z</time></trkpt><trkpt lat="39.2749777" lon="16.2479243"><ele>353.0</ele><time>2026-04-12T07:25:35.52Z</time></trkpt><trkpt lat="39.2746842" lon="16.2478043"><ele>353.0</ele><time>2026-04-12T07:25:36.525Z</time></trkpt><trkpt lat="39.2743897" lon="16.2477025"><ele>353.0</ele><time>2026-04-12T07:25:37.533Z</time></trkpt><trkpt lat="39.2740977" lon="16.2476096"><ele>343.5</ele><time>2026-04-12T07:25:38.524Z</time></trkpt><trkpt lat="39.2738093" lon="16.2475114"><ele>334.0</ele><time>2026-04-12T07:25:39.522Z</time></trkpt><trkpt lat="39.273527" lon="16.2474195"><ele>334.0</ele><time>2026-04-12T07:25:40.522Z</time></trkpt><trkpt lat="39.2732466" lon="16.2473307"><ele>334.0</ele><time>2026-04-12T07:25:41.539Z</time></trkpt><trkpt lat="39.2729724" lon="16.2472361"><ele>342.0</ele><time>2026-04-12T07:25:42.538Z</time></trkpt><trkpt lat="39.2727033" lon="16.2471442"><ele>350.0</ele><time>2026-04-12T07:25:43.522Z</time></trkpt><trkpt lat="39.2724342" lon="16.2470569"><ele>358.0</ele><time>2026-04-12T07:25:44.521Z</time></trkpt><trkpt lat="39.2721612" lon="16.2469702"><ele>366.0</ele><time>2026-04-12T07:25:45.527Z</time></trkpt><trkpt lat="39.2718875" lon="16.2468828"><ele>366.0</ele><time>2026-04-12T07:25:46.517Z</time></trkpt><trkpt lat="39.2716137" lon="16.2467932"><ele>366.0</ele><time>2026-04-12T07:25:47.519Z</time></trkpt><trkpt lat="39.2713428" lon="16.2467083"><ele>356.0</ele><time>2026-04-12T07:25:48.52Z</time></trkpt><trkpt lat="39.2710717" lon="16.2466267"><ele>346.0</ele><time>2026-04-12T07:25:49.525Z</time></trkpt><trkpt lat="39.2707998" lon="16.2465545"><ele>344.5</ele><time>2026-04-12T07:25:50.523Z</time></trkpt><trkpt lat="39.2705297" lon="16.2465051"><ele>343.0</ele><time>2026-04-12T07:25:51.53Z</time></trkpt><trkpt lat="39.2702644" lon="16.2464868"><ele>343.0</ele><time>2026-04-12T07:25:52.531Z</time></trkpt><trkpt lat="39.2699995" lon="16.2465113"><ele>343.0</ele><time>2026-04-12T07:25:53.533Z</time></trkpt><trkpt lat="39.2697376" lon="16.2465619"><ele>349.5</ele><time>2026-04-12T07:25:54.528Z</time></trkpt><trkpt lat="39.2694795" lon="16.2466524"><ele>356.0</ele><time>2026-04-12T07:25:55.527Z</time></trkpt><trkpt lat="39.2692195" lon="16.2467822"><ele>356.0</ele><time>2026-04-12T07:25:56.524Z</time></trkpt><trkpt lat="39.2689648" lon="16.2469432"><ele>356.0</ele><time>2026-04-12T07:25:57.522Z</time></trkpt><trkpt lat="39.2686919" lon="16.2471163"><ele>363.0</ele><time>2026-04-12T07:25:58.528Z</time></trkpt><trkpt lat="39.2684241" lon="16.2473229"><ele>370.0</ele><time>2026-04-12T07:25:59.536Z</time></trkpt><trkpt lat="39.2681841" lon="16.2475444"><ele>397.5</ele><time>2026-04-12T07:26:00.533Z</time></trkpt><trkpt lat="39.2679505" lon="16.2477655"><ele>425.0</ele><time>2026-04-12T07:26:01.521Z</time></trkpt><trkpt lat="39.2677154" lon="16.2479973"><ele>418.0</ele><time>2026-04-12T07:26:02.531Z</time></trkpt><trkpt lat="39.2674684" lon="16.2482385"><ele>411.0</ele><time>2026-04-12T07:26:03.528Z</time></trkpt><trkpt lat="39.2672113" lon="16.2484704"><ele>411.0</ele><time>2026-04-12T07:26:04.524Z</time></trkpt><trkpt lat="39.2669316" lon="16.2486732"><ele>411.0</ele><time>2026-04-12T07:26:05.517Z</time></trkpt><trkpt lat="39.2666445" lon="16.2488447"><ele>391.5</ele><time>2026-04-12T07:26:06.525Z</time></trkpt><trkpt lat="39.2663581" lon="16.2489977"><ele>372.0</ele><time>2026-04-12T07:26:07.515Z</time></trkpt><trkpt lat="39.2660749" lon="16.2491326"><ele>372.0</ele><time>2026-04-12T07:26:08.523Z</time></trkpt><trkpt lat="39.2657968" lon="16.2492598"><ele>372.0</ele><time>2026-04-12T07:26:09.529Z</time></trkpt><trkpt lat="39.2655224" lon="16.2493825"><ele>391.5</ele><time>2026-04-12T07:26:10.522Z</time></trkpt><trkpt lat="39.2652507" lon="16.2495042"><ele>411.0</ele><time>2026-04-12T07:26:11.518Z</time></trkpt><trkpt lat="39.26498" lon="16.2496223"><ele>406.0</ele><time>2026-04-12T07:26:12.523Z</time></trkpt><trkpt lat="39.2647086" lon="16.2497393"><ele>401.0</ele><time>2026-04-12T07:26:13.53Z</time></trkpt><trkpt lat="39.2644265" lon="16.2498539"><ele>401.0</ele><time>2026-04-12T07:26:14.527Z</time></trkpt><trkpt lat="39.2641453" lon="16.2499688"><ele>401.0</ele><time>2026-04-12T07:26:15.512Z</time></trkpt><trkpt lat="39.2638691" lon="16.2500971"><ele>400.5</ele><time>2026-04-12T07:26:16.52Z</time></trkpt><trkpt lat="39.2635959" lon="16.2502017"><ele>400.0</ele><time>2026-04-12T07:26:17.525Z</time></trkpt><trkpt lat="39.2633191" lon="16.2503164"><ele>398.0</ele><time>2026-04-12T07:26:18.528Z</time></trkpt><trkpt lat="39.2630441" lon="16.2504596"><ele>396.0</ele><time>2026-04-12T07:26:19.518Z</time></trkpt><trkpt lat="39.2627761" lon="16.2506316"><ele>376.5</ele><time>2026-04-12T07:26:20.519Z</time></trkpt><trkpt lat="39.2625096" lon="16.250826"><ele>357.0</ele><time>2026-04-12T07:26:21.525Z</time></trkpt><trkpt lat="39.2622522" lon="16.251005"><ele>357.0</ele><time>2026-04-12T07:26:22.531Z</time></trkpt><trkpt lat="39.2619984" lon="16.2511949"><ele>357.0</ele><time>2026-04-12T07:26:23.528Z</time></trkpt><trkpt lat="39.261744" lon="16.2513942"><ele>359.0</ele><time>2026-04-12T07:26:24.527Z</time></trkpt><trkpt lat="39.2614918" lon="16.2516016"><ele>361.0</ele><time>2026-04-12T07:26:25.526Z</time></trkpt><trkpt lat="39.2612456" lon="16.2518318"><ele>390.0</ele><time>2026-04-12T07:26:26.53Z</time></trkpt><trkpt lat="39.2609897" lon="16.2520777"><ele>419.0</ele><time>2026-04-12T07:26:27.523Z</time></trkpt><trkpt lat="39.2607349" lon="16.2523092"><ele>434.5</ele><time>2026-04-12T07:26:28.512Z</time></trkpt><trkpt lat="39.2604939" lon="16.2525471"><ele>450.0</ele><time>2026-04-12T07:26:29.522Z</time></trkpt><trkpt lat="39.2602701" lon="16.2528004"><ele>450.0</ele><time>2026-04-12T07:26:30.515Z</time></trkpt><trkpt lat="39.2600616" lon="16.2530569"><ele>450.0</ele><time>2026-04-12T07:26:31.512Z</time></trkpt><trkpt lat="39.2598681" lon="16.2533288"><ele>445.5</ele><time>2026-04-12T07:26:32.529Z</time></trkpt><trkpt lat="39.2596824" lon="16.2535974"><ele>441.0</ele><time>2026-04-12T07:26:33.527Z</time></trkpt><trkpt lat="39.2594974" lon="16.2538903"><ele>422.5</ele><time>2026-04-12T07:26:34.519Z</time></trkpt><trkpt lat="39.2593331" lon="16.2542099"><ele>404.0</ele><time>2026-04-12T07:26:35.525Z</time></trkpt><trkpt lat="39.259175" lon="16.2545368"><ele>396.5</ele><time>2026-04-12T07:26:36.52Z</time></trkpt><trkpt lat="39.2590139" lon="16.2548569"><ele>389.0</ele><time>2026-04-12T07:26:37.535Z</time></trkpt><trkpt lat="39.2588581" lon="16.2551698"><ele>401.5</ele><time>2026-04-12T07:26:38.523Z</time></trkpt><trkpt lat="39.258686" lon="16.2554762"><ele>414.0</ele><time>2026-04-12T07:26:39.521Z</time></trkpt><trkpt lat="39.2585208" lon="16.2557927"><ele>414.0</ele><time>2026-04-12T07:26:40.523Z</time></trkpt><trkpt lat="39.2583633" lon="16.2561197"><ele>414.0</ele><time>2026-04-12T07:26:41.533Z</time></trkpt><trkpt lat="39.2582198" lon="16.2564583"><ele>421.5</ele><time>2026-04-12T07:26:42.521Z</time></trkpt><trkpt lat="39.2580569" lon="16.256838"><ele>429.0</ele><time>2026-04-12T07:26:43.525Z</time></trkpt><trkpt lat="39.2578878" lon="16.2571853"><ele>424.5</ele><time>2026-04-12T07:26:44.529Z</time></trkpt><trkpt lat="39.2577471" lon="16.2575297"><ele>420.0</ele><time>2026-04-12T07:26:45.529Z</time></trkpt><trkpt lat="39.2576589" lon="16.257888"><ele>414.0</ele><time>2026-04-12T07:26:46.536Z</time></trkpt><trkpt lat="39.2575724" lon="16.2582638"><ele>408.0</ele><time>2026-04-12T07:26:47.522Z</time></trkpt><trkpt lat="39.2574882" lon="16.2586329"><ele>406.0</ele><time>2026-04-12T07:26:48.533Z</time></trkpt><trkpt lat="39.2574212" lon="16.2590034"><ele>404.0</ele><time>2026-04-12T07:26:49.572Z</time></trkpt><trkpt lat="39.2573787" lon="16.2593859"><ele>404.0</ele><time>2026-04-12T07:26:50.524Z</time></trkpt><trkpt lat="39.2573488" lon="16.2597704"><ele>404.0</ele><time>2026-04-12T07:26:51.524Z</time></trkpt><trkpt lat="39.2573281" lon="16.2601548"><ele>400.0</ele><time>2026-04-12T07:26:52.523Z</time></trkpt><trkpt lat="39.2573041" lon="16.2605346"><ele>396.0</ele><time>2026-04-12T07:26:53.531Z</time></trkpt><trkpt lat="39.2572827" lon="16.2609149"><ele>394.5</ele><time>2026-04-12T07:26:54.527Z</time></trkpt><trkpt lat="39.2572643" lon="16.2612923"><ele>393.0</ele><time>2026-04-12T07:26:55.536Z</time></trkpt><trkpt lat="39.2572456" lon="16.2616692"><ele>387.5</ele><time>2026-04-12T07:26:56.527Z</time></trkpt><trkpt lat="39.257225" lon="16.2620449"><ele>382.0</ele><time>2026-04-12T07:26:57.534Z</time></trkpt><trkpt lat="39.2572034" lon="16.2624178"><ele>382.0</ele><time>2026-04-12T07:26:58.525Z</time></trkpt><trkpt lat="39.2571787" lon="16.2627905"><ele>382.0</ele><time>2026-04-12T07:26:59.534Z</time></trkpt><trkpt lat="39.2571486" lon="16.2631608"><ele>402.5</ele><time>2026-04-12T07:27:00.536Z</time></trkpt><trkpt lat="39.2571109" lon="16.2635285"><ele>423.0</ele><time>2026-04-12T07:27:01.526Z</time></trkpt><trkpt lat="39.2570666" lon="16.2638933"><ele>435.5</ele><time>2026-04-12T07:27:02.537Z</time></trkpt><trkpt lat="39.2570159" lon="16.2642554"><ele>448.0</ele><time>2026-04-12T07:27:03.528Z</time></trkpt><trkpt lat="39.2569581" lon="16.2646146"><ele>443.5</ele><time>2026-04-12T07:27:04.525Z</time></trkpt><trkpt lat="39.2568961" lon="16.2649768"><ele>439.0</ele><time>2026-04-12T07:27:05.528Z</time></trkpt><trkpt lat="39.2568276" lon="16.2653435"><ele>434.5</ele><time>2026-04-12T07:27:06.53Z</time></trkpt><trkpt lat="39.2567535" lon="16.2657135"><ele>430.0</ele><time>2026-04-12T07:27:07.534Z</time></trkpt><trkpt lat="39.256672" lon="16.2660883"><ele>423.5</ele><time>2026-04-12T07:27:08.531Z</time></trkpt><trkpt lat="39.256583" lon="16.2664652"><ele>417.0</ele><time>2026-04-12T07:27:09.535Z</time></trkpt><trkpt lat="39.2564856" lon="16.2668384"><ele>437.0</ele><time>2026-04-12T07:27:10.536Z</time></trkpt><trkpt lat="39.2563812" lon="16.2672075"><ele>457.0</ele><time>2026-04-12T07:27:11.528Z</time></trkpt><trkpt lat="39.2562733" lon="16.2675746"><ele>457.0</ele><time>2026-04-12T07:27:12.539Z</time></trkpt><trkpt lat="39.2561673" lon="16.2679356"><ele>457.0</ele><time>2026-04-12T07:27:13.542Z</time></trkpt><trkpt lat="39.2560625" lon="16.2682941"><ele>448.5</ele><time>2026-04-12T07:27:14.527Z</time></trkpt><trkpt lat="39.2559497" lon="16.2686621"><ele>440.0</ele><time>2026-04-12T07:27:15.525Z</time></trkpt><trkpt lat="39.2558332" lon="16.2690431"><ele>440.0</ele><time>2026-04-12T07:27:16.524Z</time></trkpt><trkpt lat="39.2557049" lon="16.2694132"><ele>440.0</ele><time>2026-04-12T07:27:17.534Z</time></trkpt><trkpt lat="39.2555722" lon="16.2697767"><ele>440.0</ele><time>2026-04-12T07:27:18.538Z</time></trkpt><trkpt lat="39.255423" lon="16.270134"><ele>440.0</ele><time>2026-04-12T07:27:19.53Z</time></trkpt><trkpt lat="39.2552741" lon="16.2704811"><ele>435.5</ele><time>2026-04-12T07:27:20.529Z</time></trkpt><trkpt lat="39.2551113" lon="16.2708246"><ele>431.0</ele><time>2026-04-12T07:27:21.548Z</time></trkpt><trkpt lat="39.254951" lon="16.2711644"><ele>430.5</ele><time>2026-04-12T07:27:22.526Z</time></trkpt><trkpt lat="39.2547889" lon="16.2715001"><ele>430.0</ele><time>2026-04-12T07:27:23.534Z</time></trkpt><trkpt lat="39.2546282" lon="16.2718331"><ele>430.0</ele><time>2026-04-12T07:27:24.534Z</time></trkpt><trkpt lat="39.254473" lon="16.2721638"><ele>430.0</ele><time>2026-04-12T07:27:25.539Z</time></trkpt><trkpt lat="39.2543126" lon="16.272491"><ele>432.5</ele><time>2026-04-12T07:27:26.539Z</time></trkpt><trkpt lat="39.254156" lon="16.2728157"><ele>435.0</ele><time>2026-04-12T07:27:27.522Z</time></trkpt><trkpt lat="39.2540027" lon="16.2731376"><ele>450.5</ele><time>2026-04-12T07:27:28.524Z</time></trkpt><trkpt lat="39.2538502" lon="16.273457"><ele>466.0</ele><time>2026-04-12T07:27:29.528Z</time></trkpt><trkpt lat="39.2536985" lon="16.2737755"><ele>465.5</ele><time>2026-04-12T07:27:30.531Z</time></trkpt><trkpt lat="39.2535461" lon="16.2740912"><ele>465.0</ele><time>2026-04-12T07:27:31.524Z</time></trkpt><trkpt lat="39.2533954" lon="16.2744137"><ele>465.0</ele><time>2026-04-12T07:27:32.527Z</time></trkpt><trkpt lat="39.2532431" lon="16.2747378"><ele>465.0</ele><time>2026-04-12T07:27:33.549Z</time></trkpt><trkpt lat="39.2530882" lon="16.2750643"><ele>469.5</ele><time>2026-04-12T07:27:34.534Z</time></trkpt><trkpt lat="39.2529304" lon="16.2753899"><ele>474.0</ele><time>2026-04-12T07:27:35.529Z</time></trkpt><trkpt lat="39.252763" lon="16.275713"><ele>474.0</ele><time>2026-04-12T07:27:36.537Z</time></trkpt><trkpt lat="39.2525831" lon="16.276021"><ele>474.0</ele><time>2026-04-12T07:27:37.54Z</time></trkpt><trkpt lat="39.2523847" lon="16.2763322"><ele>477.5</ele><time>2026-04-12T07:27:38.536Z</time></trkpt><trkpt lat="39.252186" lon="16.2766325"><ele>481.0</ele><time>2026-04-12T07:27:39.534Z</time></trkpt><trkpt lat="39.2519905" lon="16.2769119"><ele>481.0</ele><time>2026-04-12T07:27:40.528Z</time></trkpt><trkpt lat="39.2517899" lon="16.2771784"><ele>481.0</ele><time>2026-04-12T07:27:41.538Z</time></trkpt><trkpt lat="39.251581" lon="16.2774437"><ele>482.0</ele><time>2026-04-12T07:27:42.529Z</time></trkpt><trkpt lat="39.2513731" lon="16.2777003"><ele>483.0</ele><time>2026-04-12T07:27:43.541Z</time></trkpt><trkpt lat="39.2511636" lon="16.2779494"><ele>477.0</ele><time>2026-04-12T07:27:44.527Z</time></trkpt><trkpt lat="39.2509404" lon="16.2781849"><ele>471.0</ele><time>2026-04-12T07:27:45.521Z</time></trkpt><trkpt lat="39.2507117" lon="16.2784104"><ele>481.5</ele><time>2026-04-12T07:27:46.531Z</time></trkpt><trkpt lat="39.2504685" lon="16.2786282"><ele>492.0</ele><time>2026-04-12T07:27:47.532Z</time></trkpt><trkpt lat="39.2502204" lon="16.278836"><ele>492.0</ele><time>2026-04-12T07:27:48.528Z</time></trkpt><trkpt lat="39.2499725" lon="16.2790332"><ele>492.0</ele><time>2026-04-12T07:27:49.519Z</time></trkpt><trkpt lat="39.2497251" lon="16.2792186"><ele>492.0</ele><time>2026-04-12T07:27:50.528Z</time></trkpt><trkpt lat="39.2494747" lon="16.2793948"><ele>492.0</ele><time>2026-04-12T07:27:51.529Z</time></trkpt><trkpt lat="39.2492241" lon="16.2795696"><ele>492.0</ele><time>2026-04-12T07:27:52.524Z</time></trkpt><trkpt lat="39.2489727" lon="16.2797516"><ele>492.0</ele><time>2026-04-12T07:27:53.537Z</time></trkpt><trkpt lat="39.2487172" lon="16.2799395"><ele>490.5</ele><time>2026-04-12T07:27:54.524Z</time></trkpt><trkpt lat="39.2484636" lon="16.2801373"><ele>489.0</ele><time>2026-04-12T07:27:55.52Z</time></trkpt><trkpt lat="39.2482064" lon="16.2803402"><ele>493.5</ele><time>2026-04-12T07:27:56.532Z</time></trkpt><trkpt lat="39.2479514" lon="16.2805636"><ele>498.0</ele><time>2026-04-12T07:27:57.535Z</time></trkpt><trkpt lat="39.2477072" lon="16.2807763"><ele>498.0</ele><time>2026-04-12T07:27:58.529Z</time></trkpt><trkpt lat="39.2474679" lon="16.2809959"><ele>498.0</ele><time>2026-04-12T07:27:59.522Z</time></trkpt><trkpt lat="39.2472345" lon="16.2812177"><ele>501.5</ele><time>2026-04-12T07:28:00.532Z</time></trkpt><trkpt lat="39.2469981" lon="16.2814381"><ele>505.0</ele><time>2026-04-12T07:28:01.537Z</time></trkpt><trkpt lat="39.2467571" lon="16.2816592"><ele>505.0</ele><time>2026-04-12T07:28:02.531Z</time></trkpt><trkpt lat="39.2465145" lon="16.2818822"><ele>505.0</ele><time>2026-04-12T07:28:03.52Z</time></trkpt><trkpt lat="39.2462672" lon="16.2821051"><ele>510.0</ele><time>2026-04-12T07:28:04.543Z</time></trkpt><trkpt lat="39.2460287" lon="16.2823241"><ele>515.0</ele><time>2026-04-12T07:28:05.523Z</time></trkpt><trkpt lat="39.2457799" lon="16.2825489"><ele>518.0</ele><time>2026-04-12T07:28:06.523Z</time></trkpt><trkpt lat="39.2455325" lon="16.2827761"><ele>521.0</ele><time>2026-04-12T07:28:07.534Z</time></trkpt><trkpt lat="39.2452833" lon="16.2829939"><ele>517.0</ele><time>2026-04-12T07:28:08.527Z</time></trkpt><trkpt lat="39.2450409" lon="16.2832158"><ele>513.0</ele><time>2026-04-12T07:28:09.528Z</time></trkpt><trkpt lat="39.2447965" lon="16.2834301"><ele>519.5</ele><time>2026-04-12T07:28:10.53Z</time></trkpt><trkpt lat="39.2445507" lon="16.2836673"><ele>526.0</ele><time>2026-04-12T07:28:11.529Z</time></trkpt><trkpt lat="39.2443071" lon="16.2839024"><ele>528.5</ele><time>2026-04-12T07:28:12.522Z</time></trkpt><trkpt lat="39.2440804" lon="16.284152"><ele>531.0</ele><time>2026-04-12T07:28:13.536Z</time></trkpt><trkpt lat="39.2438457" lon="16.2844042"><ele>531.0</ele><time>2026-04-12T07:28:14.531Z</time></trkpt><trkpt lat="39.2436239" lon="16.2846626"><ele>531.0</ele><time>2026-04-12T07:28:15.535Z</time></trkpt><trkpt lat="39.2434102" lon="16.284933"><ele>529.5</ele><time>2026-04-12T07:28:16.522Z</time></trkpt><trkpt lat="39.2432011" lon="16.2852142"><ele>528.0</ele><time>2026-04-12T07:28:17.533Z</time></trkpt><trkpt lat="39.2430077" lon="16.2855073"><ele>529.5</ele><time>2026-04-12T07:28:18.535Z</time></trkpt><trkpt lat="39.2428116" lon="16.2857961"><ele>531.0</ele><time>2026-04-12T07:28:19.538Z</time></trkpt><trkpt lat="39.2426251" lon="16.2861045"><ele>531.0</ele><time>2026-04-12T07:28:20.531Z</time></trkpt><trkpt lat="39.2424384" lon="16.2864078"><ele>531.0</ele><time>2026-04-12T07:28:21.525Z</time></trkpt><trkpt lat="39.2422459" lon="16.2867075"><ele>530.5</ele><time>2026-04-12T07:28:22.529Z</time></trkpt><trkpt lat="39.2420502" lon="16.2870012"><ele>530.0</ele><time>2026-04-12T07:28:23.531Z</time></trkpt><trkpt lat="39.2418574" lon="16.2872927"><ele>530.0</ele><time>2026-04-12T07:28:24.53Z</time></trkpt><trkpt lat="39.2416621" lon="16.2875836"><ele>530.0</ele><time>2026-04-12T07:28:25.525Z</time></trkpt><trkpt lat="39.2414699" lon="16.2878733"><ele>534.0</ele><time>2026-04-12T07:28:26.54Z</time></trkpt><trkpt lat="39.2412753" lon="16.2881623"><ele>538.0</ele><time>2026-04-12T07:28:27.534Z</time></trkpt><trkpt lat="39.2410725" lon="16.2884445"><ele>538.0</ele><time>2026-04-12T07:28:28.52Z</time></trkpt><trkpt lat="39.2408596" lon="16.2887139"><ele>538.0</ele><time>2026-04-12T07:28:29.534Z</time></trkpt><trkpt lat="39.2406395" lon="16.2889742"><ele>533.5</ele><time>2026-04-12T07:28:30.522Z</time></trkpt><trkpt lat="39.2404154" lon="16.2892282"><ele>529.0</ele><time>2026-04-12T07:28:31.525Z</time></trkpt><trkpt lat="39.2401851" lon="16.2894764"><ele>529.0</ele><time>2026-04-12T07:28:32.534Z</time></trkpt><trkpt lat="39.2399495" lon="16.2897199"><ele>529.0</ele><time>2026-04-12T07:28:33.536Z</time></trkpt><trkpt lat="39.2397113" lon="16.2899619"><ele>532.0</ele><time>2026-04-12T07:28:34.534Z</time></trkpt><trkpt lat="39.2394715" lon="16.2902043"><ele>535.0</ele><time>2026-04-12T07:28:35.532Z</time></trkpt><trkpt lat="39.2392321" lon="16.2904499"><ele>534.5</ele><time>2026-04-12T07:28:36.528Z</time></trkpt><trkpt lat="39.2389948" lon="16.2907028"><ele>534.0</ele><time>2026-04-12T07:28:37.532Z</time></trkpt><trkpt lat="39.2387625" lon="16.2909628"><ele>534.0</ele><time>2026-04-12T07:28:38.526Z</time></trkpt><trkpt lat="39.2385365" lon="16.2912356"><ele>534.0</ele><time>2026-04-12T07:28:39.535Z</time></trkpt><trkpt lat="39.238317" lon="16.2915193"><ele>530.5</ele><time>2026-04-12T07:28:40.527Z</time></trkpt><trkpt lat="39.2381028" lon="16.2918083"><ele>527.0</ele><time>2026-04-12T07:28:41.525Z</time></trkpt><trkpt lat="39.2378937" lon="16.2921007"><ele>536.5</ele><time>2026-04-12T07:28:42.52Z</time></trkpt><trkpt lat="39.2376827" lon="16.2923895"><ele>546.0</ele><time>2026-04-12T07:28:43.53Z</time></trkpt><trkpt lat="39.2374745" lon="16.2926746"><ele>544.0</ele><time>2026-04-12T07:28:44.527Z</time></trkpt><trkpt lat="39.2372677" lon="16.2929566"><ele>542.0</ele><time>2026-04-12T07:28:45.534Z</time></trkpt><trkpt lat="39.237062" lon="16.2932384"><ele>542.0</ele><time>2026-04-12T07:28:46.525Z</time></trkpt><trkpt lat="39.236855" lon="16.2935222"><ele>542.0</ele><time>2026-04-12T07:28:47.535Z</time></trkpt><trkpt lat="39.2366451" lon="16.2938081"><ele>542.0</ele><time>2026-04-12T07:28:48.527Z</time></trkpt><trkpt lat="39.236437" lon="16.2940975"><ele>542.0</ele><time>2026-04-12T07:28:49.523Z</time></trkpt><trkpt lat="39.2362267" lon="16.2943876"><ele>542.0</ele><time>2026-04-12T07:28:50.53Z</time></trkpt><trkpt lat="39.2360165" lon="16.294678"><ele>542.0</ele><time>2026-04-12T07:28:51.535Z</time></trkpt><trkpt lat="39.2358054" lon="16.294968"><ele>542.0</ele><time>2026-04-12T07:28:52.538Z</time></trkpt><trkpt lat="39.2355927" lon="16.2952586"><ele>542.0</ele><time>2026-04-12T07:28:53.536Z</time></trkpt><trkpt lat="39.2353802" lon="16.2955496"><ele>552.0</ele><time>2026-04-12T07:28:54.541Z</time></trkpt><trkpt lat="39.2351679" lon="16.29584"><ele>562.0</ele><time>2026-04-12T07:28:55.522Z</time></trkpt><trkpt lat="39.2349573" lon="16.2961293"><ele>561.5</ele><time>2026-04-12T07:28:56.521Z</time></trkpt><trkpt lat="39.2347468" lon="16.2964118"><ele>561.0</ele><time>2026-04-12T07:28:57.522Z</time></trkpt><trkpt lat="39.2345354" lon="16.2966976"><ele>561.0</ele><time>2026-04-12T07:28:58.54Z</time></trkpt><trkpt lat="39.234321" lon="16.2969858"><ele>561.0</ele><time>2026-04-12T07:28:59.534Z</time></trkpt><trkpt lat="39.2341115" lon="16.29727"><ele>559.5</ele><time>2026-04-12T07:29:00.522Z</time></trkpt><trkpt lat="39.2339033" lon="16.2975568"><ele>558.0</ele><time>2026-04-12T07:29:01.53Z</time></trkpt><trkpt lat="39.2336968" lon="16.2978444"><ele>565.5</ele><time>2026-04-12T07:29:02.524Z</time></trkpt><trkpt lat="39.2334878" lon="16.2981302"><ele>573.0</ele><time>2026-04-12T07:29:03.52Z</time></trkpt><trkpt lat="39.2332779" lon="16.2984148"><ele>572.5</ele><time>2026-04-12T07:29:04.524Z</time></trkpt><trkpt lat="39.2330712" lon="16.2987005"><ele>572.0</ele><time>2026-04-12T07:29:05.535Z</time></trkpt><trkpt lat="39.2328644" lon="16.2989816"><ele>572.0</ele><time>2026-04-12T07:29:06.53Z</time></trkpt><trkpt lat="39.2326593" lon="16.2992637"><ele>572.0</ele><time>2026-04-12T07:29:07.529Z</time></trkpt><trkpt lat="39.2324548" lon="16.2995447"><ele>571.5</ele><time>2026-04-12T07:29:08.521Z</time></trkpt><trkpt lat="39.2322499" lon="16.299828"><ele>571.0</ele><time>2026-04-12T07:29:09.53Z</time></trkpt><trkpt lat="39.2320422" lon="16.3001134"><ele>571.0</ele><time>2026-04-12T07:29:10.528Z</time></trkpt><trkpt lat="39.2318359" lon="16.3003977"><ele>571.0</ele><time>2026-04-12T07:29:11.526Z</time></trkpt><trkpt lat="39.2316325" lon="16.3006831"><ele>571.5</ele><time>2026-04-12T07:29:12.527Z</time></trkpt><trkpt lat="39.2314279" lon="16.3009672"><ele>572.0</ele><time>2026-04-12T07:29:13.531Z</time></trkpt><trkpt lat="39.2312196" lon="16.3012508"><ele>577.0</ele><time>2026-04-12T07:29:14.526Z</time></trkpt><trkpt lat="39.2310111" lon="16.3015365"><ele>582.0</ele><time>2026-04-12T07:29:15.524Z</time></trkpt><trkpt lat="39.2308039" lon="16.3018222"><ele>582.5</ele><time>2026-04-12T07:29:16.535Z</time></trkpt><trkpt lat="39.2305943" lon="16.3020997"><ele>583.0</ele><time>2026-04-12T07:29:17.534Z</time></trkpt><trkpt lat="39.2303741" lon="16.3023685"><ele>583.0</ele><time>2026-04-12T07:29:18.536Z</time></trkpt><trkpt lat="39.2301378" lon="16.3026205"><ele>583.0</ele><time>2026-04-12T07:29:19.525Z</time></trkpt><trkpt lat="39.2298857" lon="16.3028521"><ele>581.5</ele><time>2026-04-12T07:29:20.527Z</time></trkpt><trkpt lat="39.2296227" lon="16.3030632"><ele>580.0</ele><time>2026-04-12T07:29:21.521Z</time></trkpt><trkpt lat="39.2293473" lon="16.3032501"><ele>584.0</ele><time>2026-04-12T07:29:22.527Z</time></trkpt><trkpt lat="39.2290625" lon="16.3034125"><ele>588.0</ele><time>2026-04-12T07:29:23.535Z</time></trkpt><trkpt lat="39.2287711" lon="16.3035485"><ele>588.0</ele><time>2026-04-12T07:29:24.532Z</time></trkpt><trkpt lat="39.2284745" lon="16.3036602"><ele>588.0</ele><time>2026-04-12T07:29:25.526Z</time></trkpt><trkpt lat="39.2281713" lon="16.3037448"><ele>589.5</ele><time>2026-04-12T07:29:26.531Z</time></trkpt><trkpt lat="39.2278636" lon="16.3038056"><ele>591.0</ele><time>2026-04-12T07:29:27.536Z</time></trkpt><trkpt lat="39.2275494" lon="16.3038476"><ele>595.0</ele><time>2026-04-12T07:29:28.53Z</time></trkpt><trkpt lat="39.2272362" lon="16.3038888"><ele>599.0</ele><time>2026-04-12T07:29:29.538Z</time></trkpt><trkpt lat="39.226933" lon="16.3039291"><ele>602.0</ele><time>2026-04-12T07:29:30.526Z</time></trkpt><trkpt lat="39.2266392" lon="16.3039665"><ele>605.0</ele><time>2026-04-12T07:29:31.529Z</time></trkpt><trkpt lat="39.2263516" lon="16.3039974"><ele>607.0</ele><time>2026-04-12T07:29:32.526Z</time></trkpt><trkpt lat="39.22606" lon="16.3040347"><ele>609.0</ele><time>2026-04-12T07:29:33.53Z</time></trkpt><trkpt lat="39.2257685" lon="16.3040681"><ele>611.0</ele><time>2026-04-12T07:29:34.526Z</time></trkpt><trkpt lat="39.2254798" lon="16.304104"><ele>613.0</ele><time>2026-04-12T07:29:35.528Z</time></trkpt><trkpt lat="39.225202" lon="16.3041373"><ele>613.0</ele><time>2026-04-12T07:29:36.527Z</time></trkpt><trkpt lat="39.2249292" lon="16.3041709"><ele>613.0</ele><time>2026-04-12T07:29:37.526Z</time></trkpt><trkpt lat="39.224656" lon="16.3042086"><ele>616.0</ele><time>2026-04-12T07:29:38.541Z</time></trkpt><trkpt lat="39.2243727" lon="16.3042466"><ele>619.0</ele><time>2026-04-12T07:29:39.527Z</time></trkpt><trkpt lat="39.2240828" lon="16.3042844"><ele>620.5</ele><time>2026-04-12T07:29:40.525Z</time></trkpt><trkpt lat="39.2237827" lon="16.3043216"><ele>622.0</ele><time>2026-04-12T07:29:41.529Z</time></trkpt><trkpt lat="39.2234748" lon="16.304358"><ele>622.0</ele><time>2026-04-12T07:29:42.528Z</time></trkpt><trkpt lat="39.22316" lon="16.3043951"><ele>622.0</ele><time>2026-04-12T07:29:43.526Z</time></trkpt><trkpt lat="39.2228364" lon="16.3044335"><ele>622.5</ele><time>2026-04-12T07:29:44.53Z</time></trkpt><trkpt lat="39.2225054" lon="16.3044741"><ele>623.0</ele><time>2026-04-12T07:29:45.535Z</time></trkpt><trkpt lat="39.222182" lon="16.3045132"><ele>623.0</ele><time>2026-04-12T07:29:46.537Z</time></trkpt><trkpt lat="39.2218735" lon="16.3045505"><ele>623.0</ele><time>2026-04-12T07:29:47.533Z</time></trkpt><trkpt lat="39.2215769" lon="16.3045856"><ele>624.0</ele><time>2026-04-12T07:29:48.533Z</time></trkpt><trkpt lat="39.2212858" lon="16.3046193"><ele>625.0</ele><time>2026-04-12T07:29:49.527Z</time></trkpt><trkpt lat="39.2209957" lon="16.3046534"><ele>625.0</ele><time>2026-04-12T07:29:50.524Z</time></trkpt><trkpt lat="39.2207055" lon="16.3046874"><ele>625.0</ele><time>2026-04-12T07:29:51.531Z</time></trkpt><trkpt lat="39.22041" lon="16.3047225"><ele>626.0</ele><time>2026-04-12T07:29:52.531Z</time></trkpt><trkpt lat="39.2201115" lon="16.3047582"><ele>627.0</ele><time>2026-04-12T07:29:53.545Z</time></trkpt><trkpt lat="39.2198131" lon="16.304792"><ele>628.5</ele><time>2026-04-12T07:29:54.523Z</time></trkpt><trkpt lat="39.2195179" lon="16.3048252"><ele>630.0</ele><time>2026-04-12T07:29:55.548Z</time></trkpt><trkpt lat="39.219224" lon="16.3048568"><ele>632.5</ele><time>2026-04-12T07:29:56.531Z</time></trkpt><trkpt lat="39.2189339" lon="16.3048909"><ele>635.0</ele><time>2026-04-12T07:29:57.522Z</time></trkpt><trkpt lat="39.2186454" lon="16.3049288"><ele>635.0</ele><time>2026-04-12T07:29:58.523Z</time></trkpt><trkpt lat="39.2183588" lon="16.3049715"><ele>635.0</ele><time>2026-04-12T07:29:59.528Z</time></trkpt><trkpt lat="39.2180746" lon="16.3050202"><ele>636.5</ele><time>2026-04-12T07:30:00.531Z</time></trkpt><trkpt lat="39.2177895" lon="16.3050749"><ele>638.0</ele><time>2026-04-12T07:30:01.531Z</time></trkpt><trkpt lat="39.2175013" lon="16.3051356"><ele>641.5</ele><time>2026-04-12T07:30:02.529Z</time></trkpt><trkpt lat="39.2172094" lon="16.3052017"><ele>645.0</ele><time>2026-04-12T07:30:03.53Z</time></trkpt><trkpt lat="39.2169133" lon="16.3052746"><ele>645.0</ele><time>2026-04-12T07:30:04.523Z</time></trkpt><trkpt lat="39.2166136" lon="16.3053555"><ele>645.0</ele><time>2026-04-12T07:30:05.533Z</time></trkpt><trkpt lat="39.2163111" lon="16.3054457"><ele>644.0</ele><time>2026-04-12T07:30:06.533Z</time></trkpt><trkpt lat="39.2160066" lon="16.3055427"><ele>643.0</ele><time>2026-04-12T07:30:07.531Z</time></trkpt><trkpt lat="39.2157022" lon="16.3056482"><ele>639.5</ele><time>2026-04-12T07:30:08.521Z</time></trkpt><trkpt lat="39.215399" lon="16.3057614"><ele>636.0</ele><time>2026-04-12T07:30:09.53Z</time></trkpt><trkpt lat="39.2150979" lon="16.3058793"><ele>632.5</ele><time>2026-04-12T07:30:10.527Z</time></trkpt><trkpt lat="39.2147978" lon="16.3060018"><ele>629.0</ele><time>2026-04-12T07:30:11.525Z</time></trkpt><trkpt lat="39.2144986" lon="16.3061262"><ele>629.0</ele><time>2026-04-12T07:30:12.527Z</time></trkpt><trkpt lat="39.2141988" lon="16.3062519"><ele>629.0</ele><time>2026-04-12T07:30:13.529Z</time></trkpt><trkpt lat="39.2138942" lon="16.3063805"><ele>630.0</ele><time>2026-04-12T07:30:14.528Z</time></trkpt><trkpt lat="39.2135839" lon="16.3065112"><ele>631.0</ele><time>2026-04-12T07:30:15.53Z</time></trkpt><trkpt lat="39.213269" lon="16.306642"><ele>633.5</ele><time>2026-04-12T07:30:16.533Z</time></trkpt><trkpt lat="39.2129533" lon="16.3067725"><ele>636.0</ele><time>2026-04-12T07:30:17.53Z</time></trkpt><trkpt lat="39.212639" lon="16.3069027"><ele>636.0</ele><time>2026-04-12T07:30:18.536Z</time></trkpt><trkpt lat="39.212327" lon="16.3070316"><ele>636.0</ele><time>2026-04-12T07:30:19.527Z</time></trkpt><trkpt lat="39.212018" lon="16.3071585"><ele>636.0</ele><time>2026-04-12T07:30:20.533Z</time></trkpt><trkpt lat="39.2117129" lon="16.3072806"><ele>636.0</ele><time>2026-04-12T07:30:21.535Z</time></trkpt><trkpt lat="39.2114112" lon="16.3073973"><ele>636.0</ele><time>2026-04-12T07:30:22.527Z</time></trkpt><trkpt lat="39.2111126" lon="16.3075111"><ele>636.0</ele><time>2026-04-12T07:30:23.528Z</time></trkpt><trkpt lat="39.2108185" lon="16.3076267"><ele>636.0</ele><time>2026-04-12T07:30:24.526Z</time></trkpt><trkpt lat="39.2105258" lon="16.3077442"><ele>636.0</ele><time>2026-04-12T07:30:25.528Z</time></trkpt><trkpt lat="39.2102327" lon="16.3078627"><ele>636.0</ele><time>2026-04-12T07:30:26.531Z</time></trkpt><trkpt lat="39.2099388" lon="16.3079816"><ele>636.0</ele><time>2026-04-12T07:30:27.529Z</time></trkpt><trkpt lat="39.2096439" lon="16.3081013"><ele>634.0</ele><time>2026-04-12T07:30:28.523Z</time></trkpt><trkpt lat="39.209349" lon="16.3082235"><ele>632.0</ele><time>2026-04-12T07:30:29.528Z</time></trkpt><trkpt lat="39.2090541" lon="16.308347"><ele>629.5</ele><time>2026-04-12T07:30:30.53Z</time></trkpt><trkpt lat="39.2087588" lon="16.3084718"><ele>627.0</ele><time>2026-04-12T07:30:31.538Z</time></trkpt><trkpt lat="39.2084625" lon="16.3085961"><ele>627.0</ele><time>2026-04-12T07:30:32.528Z</time></trkpt><trkpt lat="39.2081665" lon="16.3087183"><ele>627.0</ele><time>2026-04-12T07:30:33.527Z</time></trkpt><trkpt lat="39.2078735" lon="16.3088365"><ele>625.0</ele><time>2026-04-12T07:30:34.522Z</time></trkpt><trkpt lat="39.2075835" lon="16.3089511"><ele>623.0</ele><time>2026-04-12T07:30:35.526Z</time></trkpt><trkpt lat="39.207294" lon="16.3090659"><ele>621.5</ele><time>2026-04-12T07:30:36.533Z</time></trkpt><trkpt lat="39.2070056" lon="16.3091822"><ele>620.0</ele><time>2026-04-12T07:30:37.536Z</time></trkpt><trkpt lat="39.2067187" lon="16.3092982"><ele>620.0</ele><time>2026-04-12T07:30:38.533Z</time></trkpt><trkpt lat="39.2064332" lon="16.3094128"><ele>620.0</ele><time>2026-04-12T07:30:39.53Z</time></trkpt><trkpt lat="39.2061469" lon="16.3095292"><ele>620.0</ele><time>2026-04-12T07:30:40.533Z</time></trkpt><trkpt lat="39.2058573" lon="16.3096495"><ele>620.0</ele><time>2026-04-12T07:30:41.541Z</time></trkpt><trkpt lat="39.2055666" lon="16.3097712"><ele>620.5</ele><time>2026-04-12T07:30:42.539Z</time></trkpt><trkpt lat="39.2052761" lon="16.3098925"><ele>621.0</ele><time>2026-04-12T07:30:43.539Z</time></trkpt><trkpt lat="39.2049893" lon="16.3100136"><ele>620.5</ele><time>2026-04-12T07:30:44.533Z</time></trkpt><trkpt lat="39.2047049" lon="16.3101325"><ele>620.0</ele><time>2026-04-12T07:30:45.541Z</time></trkpt><trkpt lat="39.2044191" lon="16.3102502"><ele>620.0</ele><time>2026-04-12T07:30:46.532Z</time></trkpt><trkpt lat="39.204131" lon="16.3103666"><ele>620.0</ele><time>2026-04-12T07:30:47.53Z</time></trkpt><trkpt lat="39.203842" lon="16.3104833"><ele>620.5</ele><time>2026-04-12T07:30:48.532Z</time></trkpt><trkpt lat="39.2035542" lon="16.310601"><ele>621.0</ele><time>2026-04-12T07:30:49.535Z</time></trkpt><trkpt lat="39.2032679" lon="16.310719"><ele>620.0</ele><time>2026-04-12T07:30:50.527Z</time></trkpt><trkpt lat="39.2029831" lon="16.3108371"><ele>619.0</ele><time>2026-04-12T07:30:51.526Z</time></trkpt><trkpt lat="39.2026982" lon="16.3109528"><ele>619.0</ele><time>2026-04-12T07:30:52.527Z</time></trkpt><trkpt lat="39.2024146" lon="16.3110686"><ele>619.0</ele><time>2026-04-12T07:30:53.534Z</time></trkpt><trkpt lat="39.2021309" lon="16.3111854"><ele>618.5</ele><time>2026-04-12T07:30:54.531Z</time></trkpt><trkpt lat="39.2018487" lon="16.3113009"><ele>618.0</ele><time>2026-04-12T07:30:55.529Z</time></trkpt><trkpt lat="39.2015679" lon="16.3114158"><ele>619.0</ele><time>2026-04-12T07:30:56.521Z</time></trkpt><trkpt lat="39.2012867" lon="16.3115296"><ele>620.0</ele><time>2026-04-12T07:30:57.534Z</time></trkpt><trkpt lat="39.2010054" lon="16.3116437"><ele>620.0</ele><time>2026-04-12T07:30:58.526Z</time></trkpt><trkpt lat="39.2007273" lon="16.3117583"><ele>620.0</ele><time>2026-04-12T07:30:59.524Z</time></trkpt><trkpt lat="39.2004508" lon="16.3118727"><ele>620.5</ele><time>2026-04-12T07:31:00.537Z</time></trkpt><trkpt lat="39.2001751" lon="16.3119854"><ele>621.0</ele><time>2026-04-12T07:31:01.536Z</time></trkpt><trkpt lat="39.1998944" lon="16.312091"><ele>621.0</ele><time>2026-04-12T07:31:02.528Z</time></trkpt><trkpt lat="39.1996178" lon="16.3122027"><ele>621.0</ele><time>2026-04-12T07:31:03.535Z</time></trkpt><trkpt lat="39.1993434" lon="16.3122994"><ele>621.0</ele><time>2026-04-12T07:31:04.528Z</time></trkpt><trkpt lat="39.1990627" lon="16.3123897"><ele>621.0</ele><time>2026-04-12T07:31:05.534Z</time></trkpt><trkpt lat="39.1987771" lon="16.3124719"><ele>621.0</ele><time>2026-04-12T07:31:06.522Z</time></trkpt><trkpt lat="39.198486" lon="16.3125463"><ele>621.0</ele><time>2026-04-12T07:31:07.524Z</time></trkpt><trkpt lat="39.1981864" lon="16.3126097"><ele>619.0</ele><time>2026-04-12T07:31:08.527Z</time></trkpt><trkpt lat="39.1978774" lon="16.3126572"><ele>617.0</ele><time>2026-04-12T07:31:09.537Z</time></trkpt><trkpt lat="39.1975627" lon="16.312685"><ele>613.5</ele><time>2026-04-12T07:31:10.536Z</time></trkpt><trkpt lat="39.1972457" lon="16.3126928"><ele>610.0</ele><time>2026-04-12T07:31:11.522Z</time></trkpt><trkpt lat="39.1969287" lon="16.312687"><ele>610.0</ele><time>2026-04-12T07:31:12.525Z</time></trkpt><trkpt lat="39.1966122" lon="16.3126291"><ele>610.0</ele><time>2026-04-12T07:31:13.524Z</time></trkpt><trkpt lat="39.196308" lon="16.3125508"><ele>606.5</ele><time>2026-04-12T07:31:14.522Z</time></trkpt><trkpt lat="39.1960097" lon="16.3124473"><ele>603.0</ele><time>2026-04-12T07:31:15.53Z</time></trkpt><trkpt lat="39.1957283" lon="16.3123306"><ele>605.5</ele><time>2026-04-12T07:31:16.529Z</time></trkpt><trkpt lat="39.1954533" lon="16.3122015"><ele>608.0</ele><time>2026-04-12T07:31:17.534Z</time></trkpt><trkpt lat="39.1951824" lon="16.3120596"><ele>608.0</ele><time>2026-04-12T07:31:18.524Z</time></trkpt><trkpt lat="39.1949134" lon="16.311909"><ele>608.0</ele><time>2026-04-12T07:31:19.537Z</time></trkpt><trkpt lat="39.1946415" lon="16.3117446"><ele>606.5</ele><time>2026-04-12T07:31:20.53Z</time></trkpt><trkpt lat="39.1943632" lon="16.3115637"><ele>605.0</ele><time>2026-04-12T07:31:21.53Z</time></trkpt><trkpt lat="39.1940811" lon="16.311371"><ele>600.0</ele><time>2026-04-12T07:31:22.535Z</time></trkpt><trkpt lat="39.1937981" lon="16.3111719"><ele>595.0</ele><time>2026-04-12T07:31:23.536Z</time></trkpt><trkpt lat="39.1935165" lon="16.3109715"><ele>595.0</ele><time>2026-04-12T07:31:24.525Z</time></trkpt><trkpt lat="39.1932351" lon="16.3107712"><ele>595.0</ele><time>2026-04-12T07:31:25.522Z</time></trkpt><trkpt lat="39.1929551" lon="16.3105692"><ele>591.0</ele><time>2026-04-12T07:31:26.529Z</time></trkpt><trkpt lat="39.1926743" lon="16.3103735"><ele>587.0</ele><time>2026-04-12T07:31:27.535Z</time></trkpt><trkpt lat="39.1924082" lon="16.3101685"><ele>580.5</ele><time>2026-04-12T07:31:28.535Z</time></trkpt><trkpt lat="39.1921474" lon="16.309963"><ele>574.0</ele><time>2026-04-12T07:31:29.533Z</time></trkpt><trkpt lat="39.1918853" lon="16.3097564"><ele>578.5</ele><time>2026-04-12T07:31:30.527Z</time></trkpt><trkpt lat="39.1916289" lon="16.3095535"><ele>583.0</ele><time>2026-04-12T07:31:31.534Z</time></trkpt><trkpt lat="39.1913674" lon="16.3093569"><ele>584.5</ele><time>2026-04-12T07:31:32.529Z</time></trkpt><trkpt lat="39.1911034" lon="16.3091627"><ele>586.0</ele><time>2026-04-12T07:31:33.526Z</time></trkpt><trkpt lat="39.1908423" lon="16.3089675"><ele>589.5</ele><time>2026-04-12T07:31:34.526Z</time></trkpt><trkpt lat="39.1905808" lon="16.3087704"><ele>593.0</ele><time>2026-04-12T07:31:35.517Z</time></trkpt><trkpt lat="39.1903177" lon="16.3085715"><ele>593.0</ele><time>2026-04-12T07:31:36.529Z</time></trkpt><trkpt lat="39.1900555" lon="16.3083754"><ele>593.0</ele><time>2026-04-12T07:31:37.533Z</time></trkpt><trkpt lat="39.1897928" lon="16.3081794"><ele>588.5</ele><time>2026-04-12T07:31:38.52Z</time></trkpt><trkpt lat="39.189531" lon="16.3079843"><ele>584.0</ele><time>2026-04-12T07:31:39.53Z</time></trkpt><trkpt lat="39.1892684" lon="16.3077877"><ele>581.5</ele><time>2026-04-12T07:31:40.522Z</time></trkpt><trkpt lat="39.1890056" lon="16.3075906"><ele>579.0</ele><time>2026-04-12T07:31:41.53Z</time></trkpt><trkpt lat="39.1887427" lon="16.3073948"><ele>580.0</ele><time>2026-04-12T07:31:42.532Z</time></trkpt><trkpt lat="39.1884786" lon="16.3071986"><ele>581.0</ele><time>2026-04-12T07:31:43.531Z</time></trkpt><trkpt lat="39.1882139" lon="16.3070037"><ele>579.0</ele><time>2026-04-12T07:31:44.528Z</time></trkpt><trkpt lat="39.1879508" lon="16.3068097"><ele>577.0</ele><time>2026-04-12T07:31:45.531Z</time></trkpt><trkpt lat="39.1876866" lon="16.3066145"><ele>577.0</ele><time>2026-04-12T07:31:46.531Z</time></trkpt><trkpt lat="39.1874238" lon="16.3064191"><ele>577.0</ele><time>2026-04-12T07:31:47.524Z</time></trkpt><trkpt lat="39.1871628" lon="16.3062213"><ele>574.0</ele><time>2026-04-12T07:31:48.527Z</time></trkpt><trkpt lat="39.1868999" lon="16.306023"><ele>571.0</ele><time>2026-04-12T07:31:49.533Z</time></trkpt><trkpt lat="39.1866357" lon="16.3058243"><ele>573.0</ele><time>2026-04-12T07:31:50.535Z</time></trkpt><trkpt lat="39.1863714" lon="16.3056262"><ele>575.0</ele><time>2026-04-12T07:31:51.53Z</time></trkpt><trkpt lat="39.1861065" lon="16.3054314"><ele>575.0</ele><time>2026-04-12T07:31:52.538Z</time></trkpt><trkpt lat="39.1858424" lon="16.3052364"><ele>575.0</ele><time>2026-04-12T07:31:53.524Z</time></trkpt><trkpt lat="39.1855784" lon="16.3050423"><ele>576.5</ele><time>2026-04-12T07:31:54.536Z</time></trkpt><trkpt lat="39.1853136" lon="16.3048477"><ele>578.0</ele><time>2026-04-12T07:31:55.531Z</time></trkpt><trkpt lat="39.1850465" lon="16.3046534"><ele>572.5</ele><time>2026-04-12T07:31:56.537Z</time></trkpt><trkpt lat="39.1847757" lon="16.304462"><ele>567.0</ele><time>2026-04-12T07:31:57.532Z</time></trkpt><trkpt lat="39.1845072" lon="16.3042744"><ele>567.0</ele><time>2026-04-12T07:31:58.524Z</time></trkpt><trkpt lat="39.1842424" lon="16.3040867"><ele>567.0</ele><time>2026-04-12T07:31:59.53Z</time></trkpt><trkpt lat="39.1839789" lon="16.3038974"><ele>568.0</ele><time>2026-04-12T07:32:00.524Z</time></trkpt><trkpt lat="39.1837167" lon="16.3037041"><ele>569.0</ele><time>2026-04-12T07:32:01.519Z</time></trkpt><trkpt lat="39.1834559" lon="16.3035059"><ele>569.0</ele><time>2026-04-12T07:32:02.528Z</time></trkpt><trkpt lat="39.1831965" lon="16.3033021"><ele>569.0</ele><time>2026-04-12T07:32:03.536Z</time></trkpt><trkpt lat="39.1829374" lon="16.3030922"><ele>566.0</ele><time>2026-04-12T07:32:04.522Z</time></trkpt><trkpt lat="39.1826826" lon="16.302877"><ele>563.0</ele><time>2026-04-12T07:32:05.519Z</time></trkpt><trkpt lat="39.1824321" lon="16.3026575"><ele>565.5</ele><time>2026-04-12T07:32:06.52Z</time></trkpt><trkpt lat="39.1821852" lon="16.302435"><ele>568.0</ele><time>2026-04-12T07:32:07.53Z</time></trkpt><trkpt lat="39.181943" lon="16.3022065"><ele>568.0</ele><time>2026-04-12T07:32:08.535Z</time></trkpt><trkpt lat="39.1817052" lon="16.3019735"><ele>568.0</ele><time>2026-04-12T07:32:09.528Z</time></trkpt><trkpt lat="39.181471" lon="16.3017355"><ele>564.0</ele><time>2026-04-12T07:32:10.528Z</time></trkpt><trkpt lat="39.1812394" lon="16.3014925"><ele>560.0</ele><time>2026-04-12T07:32:11.529Z</time></trkpt><trkpt lat="39.1810099" lon="16.3012439"><ele>560.0</ele><time>2026-04-12T07:32:12.525Z</time></trkpt><trkpt lat="39.1807832" lon="16.3009886"><ele>560.0</ele><time>2026-04-12T07:32:13.527Z</time></trkpt><trkpt lat="39.1805524" lon="16.3007346"><ele>555.5</ele><time>2026-04-12T07:32:14.528Z</time></trkpt><trkpt lat="39.1803342" lon="16.30047"><ele>551.0</ele><time>2026-04-12T07:32:15.523Z</time></trkpt><trkpt lat="39.1801179" lon="16.3001969"><ele>551.0</ele><time>2026-04-12T07:32:16.536Z</time></trkpt><trkpt lat="39.1798997" lon="16.2999241"><ele>551.0</ele><time>2026-04-12T07:32:17.527Z</time></trkpt><trkpt lat="39.1796822" lon="16.299644"><ele>549.5</ele><time>2026-04-12T07:32:18.532Z</time></trkpt><trkpt lat="39.1794652" lon="16.299359"><ele>548.0</ele><time>2026-04-12T07:32:19.52Z</time></trkpt><trkpt lat="39.1792536" lon="16.2990714"><ele>548.5</ele><time>2026-04-12T07:32:20.53Z</time></trkpt><trkpt lat="39.1790424" lon="16.2987819"><ele>549.0</ele><time>2026-04-12T07:32:21.534Z</time></trkpt><trkpt lat="39.1788293" lon="16.2984908"><ele>549.0</ele><time>2026-04-12T07:32:22.531Z</time></trkpt><trkpt lat="39.1786177" lon="16.2982003"><ele>549.0</ele><time>2026-04-12T07:32:23.525Z</time></trkpt><trkpt lat="39.1784135" lon="16.297895"><ele>553.5</ele><time>2026-04-12T07:32:24.539Z</time></trkpt><trkpt lat="39.1782212" lon="16.2975905"><ele>558.0</ele><time>2026-04-12T07:32:25.536Z</time></trkpt><trkpt lat="39.1780401" lon="16.2972848"><ele>540.0</ele><time>2026-04-12T07:32:26.531Z</time></trkpt><trkpt lat="39.177863" lon="16.2969831"><ele>522.0</ele><time>2026-04-12T07:32:27.526Z</time></trkpt><trkpt lat="39.1776911" lon="16.2966846"><ele>525.0</ele><time>2026-04-12T07:32:28.529Z</time></trkpt><trkpt lat="39.1775202" lon="16.2963873"><ele>528.0</ele><time>2026-04-12T07:32:29.537Z</time></trkpt><trkpt lat="39.1773459" lon="16.2960888"><ele>528.0</ele><time>2026-04-12T07:32:30.523Z</time></trkpt><trkpt lat="39.1771739" lon="16.2957952"><ele>528.0</ele><time>2026-04-12T07:32:31.528Z</time></trkpt><trkpt lat="39.1770024" lon="16.2955104"><ele>540.0</ele><time>2026-04-12T07:32:32.526Z</time></trkpt><trkpt lat="39.1768296" lon="16.2952399"><ele>552.0</ele><time>2026-04-12T07:32:33.529Z</time></trkpt><trkpt lat="39.176666" lon="16.2949751"><ele>556.5</ele><time>2026-04-12T07:32:34.536Z</time></trkpt><trkpt lat="39.1764836" lon="16.2947451"><ele>561.0</ele><time>2026-04-12T07:32:35.534Z</time></trkpt><trkpt lat="39.1759047" lon="16.2940819"><ele>561.5</ele><time>2026-04-12T07:32:38.512Z</time></trkpt><trkpt lat="39.1757362" lon="16.2938568"><ele>562.0</ele><time>2026-04-12T07:32:39.519Z</time></trkpt><trkpt lat="39.1755141" lon="16.2936829"><ele>562.0</ele><time>2026-04-12T07:32:40.543Z</time></trkpt><trkpt lat="39.1752511" lon="16.2935958"><ele>562.0</ele><time>2026-04-12T07:32:41.538Z</time></trkpt><trkpt lat="39.1749636" lon="16.29355"><ele>557.0</ele><time>2026-04-12T07:32:42.528Z</time></trkpt><trkpt lat="39.1746288" lon="16.2936303"><ele>552.0</ele><time>2026-04-12T07:32:43.521Z</time></trkpt><trkpt lat="39.1743658" lon="16.2936105"><ele>552.0</ele><time>2026-04-12T07:32:44.533Z</time></trkpt><trkpt lat="39.174108" lon="16.2936093"><ele>552.0</ele><time>2026-04-12T07:32:45.518Z</time></trkpt><trkpt lat="39.1738651" lon="16.293621"><ele>550.0</ele><time>2026-04-12T07:32:46.516Z</time></trkpt><trkpt lat="39.1736277" lon="16.2936358"><ele>548.0</ele><time>2026-04-12T07:32:47.526Z</time></trkpt><trkpt lat="39.173389" lon="16.2936284"><ele>548.5</ele><time>2026-04-12T07:32:48.538Z</time></trkpt><trkpt lat="39.1731481" lon="16.293602"><ele>549.0</ele><time>2026-04-12T07:32:49.527Z</time></trkpt><trkpt lat="39.1729098" lon="16.2935515"><ele>549.0</ele><time>2026-04-12T07:32:50.524Z</time></trkpt><trkpt lat="39.172675" lon="16.2934981"><ele>549.0</ele><time>2026-04-12T07:32:51.525Z</time></trkpt><trkpt lat="39.1724397" lon="16.293428"><ele>539.5</ele><time>2026-04-12T07:32:52.523Z</time></trkpt><trkpt lat="39.1722161" lon="16.2933229"><ele>530.0</ele><time>2026-04-12T07:32:53.521Z</time></trkpt><trkpt lat="39.1719815" lon="16.2931817"><ele>527.0</ele><time>2026-04-12T07:32:54.535Z</time></trkpt><trkpt lat="39.1717621" lon="16.2930317"><ele>524.0</ele><time>2026-04-12T07:32:55.535Z</time></trkpt><trkpt lat="39.1715213" lon="16.2928691"><ele>524.0</ele><time>2026-04-12T07:32:56.517Z</time></trkpt><trkpt lat="39.1712972" lon="16.2927117"><ele>524.0</ele><time>2026-04-12T07:32:57.536Z</time></trkpt><trkpt lat="39.1710724" lon="16.2925958"><ele>524.0</ele><time>2026-04-12T07:32:58.531Z</time></trkpt><trkpt lat="39.1708486" lon="16.2925089"><ele>524.0</ele><time>2026-04-12T07:32:59.538Z</time></trkpt><trkpt lat="39.1706193" lon="16.2924196"><ele>523.0</ele><time>2026-04-12T07:33:00.529Z</time></trkpt><trkpt lat="39.1703866" lon="16.2923635"><ele>522.0</ele><time>2026-04-12T07:33:01.525Z</time></trkpt><trkpt lat="39.1701534" lon="16.292322"><ele>522.0</ele><time>2026-04-12T07:33:02.532Z</time></trkpt><trkpt lat="39.1699156" lon="16.2923334"><ele>522.0</ele><time>2026-04-12T07:33:03.52Z</time></trkpt><trkpt lat="39.1696751" lon="16.2923832"><ele>527.5</ele><time>2026-04-12T07:33:04.527Z</time></trkpt><trkpt lat="39.1694441" lon="16.2924655"><ele>533.0</ele><time>2026-04-12T07:33:05.523Z</time></trkpt><trkpt lat="39.169223" lon="16.2925702"><ele>536.5</ele><time>2026-04-12T07:33:06.528Z</time></trkpt><trkpt lat="39.1690081" lon="16.2926882"><ele>540.0</ele><time>2026-04-12T07:33:07.539Z</time></trkpt><trkpt lat="39.1687931" lon="16.2928037"><ele>540.0</ele><time>2026-04-12T07:33:08.531Z</time></trkpt><trkpt lat="39.1685707" lon="16.2929124"><ele>540.0</ele><time>2026-04-12T07:33:09.531Z</time></trkpt><trkpt lat="39.168346" lon="16.2930156"><ele>523.5</ele><time>2026-04-12T07:33:10.527Z</time></trkpt><trkpt lat="39.1681176" lon="16.2930992"><ele>507.0</ele><time>2026-04-12T07:33:11.533Z</time></trkpt><trkpt lat="39.1678803" lon="16.2931583"><ele>507.0</ele><time>2026-04-12T07:33:12.529Z</time></trkpt><trkpt lat="39.1676418" lon="16.2931924"><ele>507.0</ele><time>2026-04-12T07:33:13.529Z</time></trkpt><trkpt lat="39.1674051" lon="16.2931998"><ele>503.5</ele><time>2026-04-12T07:33:14.533Z</time></trkpt><trkpt lat="39.1671682" lon="16.2931812"><ele>500.0</ele><time>2026-04-12T07:33:15.529Z</time></trkpt><trkpt lat="39.166934" lon="16.2931322"><ele>502.5</ele><time>2026-04-12T07:33:16.538Z</time></trkpt><trkpt lat="39.1667057" lon="16.2930583"><ele>505.0</ele><time>2026-04-12T07:33:17.542Z</time></trkpt><trkpt lat="39.1664826" lon="16.2929568"><ele>505.0</ele><time>2026-04-12T07:33:18.533Z</time></trkpt><trkpt lat="39.1662704" lon="16.2928321"><ele>505.0</ele><time>2026-04-12T07:33:19.535Z</time></trkpt><trkpt lat="39.166067" lon="16.2926796"><ele>505.0</ele><time>2026-04-12T07:33:20.546Z</time></trkpt><trkpt lat="39.1658716" lon="16.2925067"><ele>505.0</ele><time>2026-04-12T07:33:21.53Z</time></trkpt><trkpt lat="39.1656865" lon="16.2923104"><ele>503.5</ele><time>2026-04-12T07:33:22.531Z</time></trkpt><trkpt lat="39.1655111" lon="16.2920927"><ele>502.0</ele><time>2026-04-12T07:33:23.537Z</time></trkpt><trkpt lat="39.1653412" lon="16.2918562"><ele>502.0</ele><time>2026-04-12T07:33:24.528Z</time></trkpt><trkpt lat="39.1651735" lon="16.2916061"><ele>502.0</ele><time>2026-04-12T07:33:25.531Z</time></trkpt><trkpt lat="39.1650011" lon="16.2913548"><ele>508.5</ele><time>2026-04-12T07:33:26.534Z</time></trkpt><trkpt lat="39.164832" lon="16.2911085"><ele>515.0</ele><time>2026-04-12T07:33:27.522Z</time></trkpt><trkpt lat="39.1646617" lon="16.2908641"><ele>515.0</ele><time>2026-04-12T07:33:28.529Z</time></trkpt><trkpt lat="39.1644845" lon="16.290603"><ele>515.0</ele><time>2026-04-12T07:33:29.516Z</time></trkpt><trkpt lat="39.1643074" lon="16.290364"><ele>506.5</ele><time>2026-04-12T07:33:30.522Z</time></trkpt><trkpt lat="39.1641282" lon="16.2901411"><ele>498.0</ele><time>2026-04-12T07:33:31.523Z</time></trkpt><trkpt lat="39.1639901" lon="16.2898925"><ele>478.0</ele><time>2026-04-12T07:33:32.52Z</time></trkpt><trkpt lat="39.1638436" lon="16.2896197"><ele>458.0</ele><time>2026-04-12T07:33:33.543Z</time></trkpt><trkpt lat="39.1637443" lon="16.2893281"><ele>458.0</ele><time>2026-04-12T07:33:34.523Z</time></trkpt><trkpt lat="39.1636179" lon="16.2890694"><ele>458.0</ele><time>2026-04-12T07:33:35.522Z</time></trkpt><trkpt lat="39.1634995" lon="16.2888186"><ele>468.5</ele><time>2026-04-12T07:33:36.537Z</time></trkpt><trkpt lat="39.1633708" lon="16.2885688"><ele>479.0</ele><time>2026-04-12T07:33:37.527Z</time></trkpt><trkpt lat="39.163223" lon="16.2883308"><ele>473.5</ele><time>2026-04-12T07:33:38.53Z</time></trkpt><trkpt lat="39.1630676" lon="16.2881164"><ele>468.0</ele><time>2026-04-12T07:33:39.528Z</time></trkpt><trkpt lat="39.162899" lon="16.2879084"><ele>479.5</ele><time>2026-04-12T07:33:40.525Z</time></trkpt><trkpt lat="39.1627152" lon="16.2877168"><ele>491.0</ele><time>2026-04-12T07:33:41.539Z</time></trkpt><trkpt lat="39.1625222" lon="16.2875384"><ele>496.0</ele><time>2026-04-12T07:33:42.523Z</time></trkpt><trkpt lat="39.1623116" lon="16.2873799"><ele>501.0</ele><time>2026-04-12T07:33:43.542Z</time></trkpt><trkpt lat="39.1620911" lon="16.2872355"><ele>501.0</ele><time>2026-04-12T07:33:44.52Z</time></trkpt><trkpt lat="39.1618667" lon="16.2871097"><ele>501.0</ele><time>2026-04-12T07:33:45.528Z</time></trkpt><trkpt lat="39.1616346" lon="16.2870041"><ele>495.0</ele><time>2026-04-12T07:33:46.518Z</time></trkpt><trkpt lat="39.1613927" lon="16.2869244"><ele>489.0</ele><time>2026-04-12T07:33:47.524Z</time></trkpt><trkpt lat="39.1611448" lon="16.2868651"><ele>489.0</ele><time>2026-04-12T07:33:48.524Z</time></trkpt><trkpt lat="39.1608931" lon="16.2868108"><ele>489.0</ele><time>2026-04-12T07:33:49.528Z</time></trkpt><trkpt lat="39.1606408" lon="16.2867555"><ele>485.5</ele><time>2026-04-12T07:33:50.524Z</time></trkpt><trkpt lat="39.160389" lon="16.2867016"><ele>482.0</ele><time>2026-04-12T07:33:51.535Z</time></trkpt><trkpt lat="39.1601416" lon="16.2866484"><ele>482.0</ele><time>2026-04-12T07:33:52.524Z</time></trkpt><trkpt lat="39.1598953" lon="16.286606"><ele>482.0</ele><time>2026-04-12T07:33:53.522Z</time></trkpt><trkpt lat="39.1596492" lon="16.2865856"><ele>480.5</ele><time>2026-04-12T07:33:54.528Z</time></trkpt><trkpt lat="39.1594037" lon="16.2865889"><ele>479.0</ele><time>2026-04-12T07:33:55.515Z</time></trkpt><trkpt lat="39.1591593" lon="16.2866137"><ele>480.5</ele><time>2026-04-12T07:33:56.524Z</time></trkpt><trkpt lat="39.1589162" lon="16.2866624"><ele>482.0</ele><time>2026-04-12T07:33:57.517Z</time></trkpt><trkpt lat="39.1586768" lon="16.2867363"><ele>482.0</ele><time>2026-04-12T07:33:58.518Z</time></trkpt><trkpt lat="39.1584414" lon="16.2868315"><ele>482.0</ele><time>2026-04-12T07:33:59.523Z</time></trkpt><trkpt lat="39.1582055" lon="16.2869428"><ele>498.0</ele><time>2026-04-12T07:34:00.512Z</time></trkpt><trkpt lat="39.1579803" lon="16.2870812"><ele>514.0</ele><time>2026-04-12T07:34:01.52Z</time></trkpt><trkpt lat="39.1577634" lon="16.2872397"><ele>506.5</ele><time>2026-04-12T07:34:02.522Z</time></trkpt><trkpt lat="39.1575501" lon="16.2873914"><ele>499.0</ele><time>2026-04-12T07:34:03.518Z</time></trkpt><trkpt lat="39.1573343" lon="16.287541"><ele>499.0</ele><time>2026-04-12T07:34:04.525Z</time></trkpt><trkpt lat="39.1571242" lon="16.2876864"><ele>499.0</ele><time>2026-04-12T07:34:05.532Z</time></trkpt><trkpt lat="39.1569217" lon="16.2878257"><ele>499.0</ele><time>2026-04-12T07:34:06.525Z</time></trkpt><trkpt lat="39.1567192" lon="16.287943"><ele>499.0</ele><time>2026-04-12T07:34:07.517Z</time></trkpt><trkpt lat="39.1551048" lon="16.2884371"><ele>472.5</ele><time>2026-04-12T07:34:14.524Z</time></trkpt><trkpt lat="39.1548289" lon="16.2882764"><ele>446.0</ele><time>2026-04-12T07:34:15.531Z</time></trkpt><trkpt lat="39.1545202" lon="16.2880301"><ele>446.0</ele><time>2026-04-12T07:34:16.527Z</time></trkpt><trkpt lat="39.15431" lon="16.287688"><ele>446.0</ele><time>2026-04-12T07:34:17.529Z</time></trkpt><trkpt lat="39.1540892" lon="16.2874724"><ele>441.0</ele><time>2026-04-12T07:34:18.525Z</time></trkpt><trkpt lat="39.1538891" lon="16.2872759"><ele>436.0</ele><time>2026-04-12T07:34:19.528Z</time></trkpt><trkpt lat="39.1537125" lon="16.2870518"><ele>450.5</ele><time>2026-04-12T07:34:20.536Z</time></trkpt><trkpt lat="39.1535401" lon="16.2868337"><ele>465.0</ele><time>2026-04-12T07:34:21.525Z</time></trkpt><trkpt lat="39.1533756" lon="16.2866053"><ele>471.0</ele><time>2026-04-12T07:34:22.536Z</time></trkpt><trkpt lat="39.1532248" lon="16.28637"><ele>477.0</ele><time>2026-04-12T07:34:23.527Z</time></trkpt><trkpt lat="39.1530785" lon="16.2861228"><ele>465.0</ele><time>2026-04-12T07:34:24.527Z</time></trkpt><trkpt lat="39.1529202" lon="16.285881"><ele>453.0</ele><time>2026-04-12T07:34:25.517Z</time></trkpt><trkpt lat="39.1520288" lon="16.2843843"><ele>434.0</ele><time>2026-04-12T07:34:31.544Z</time></trkpt><trkpt lat="39.1519341" lon="16.2840865"><ele>415.0</ele><time>2026-04-12T07:34:32.539Z</time></trkpt><trkpt lat="39.1517259" lon="16.2838625"><ele>391.5</ele><time>2026-04-12T07:34:33.535Z</time></trkpt><trkpt lat="39.1515263" lon="16.2837069"><ele>368.0</ele><time>2026-04-12T07:34:34.535Z</time></trkpt><trkpt lat="39.1513176" lon="16.283549"><ele>368.0</ele><time>2026-04-12T07:34:35.516Z</time></trkpt><trkpt lat="39.151094" lon="16.2834251"><ele>368.0</ele><time>2026-04-12T07:34:36.533Z</time></trkpt><trkpt lat="39.1508586" lon="16.2833025"><ele>346.0</ele><time>2026-04-12T07:34:37.548Z</time></trkpt><trkpt lat="39.1506217" lon="16.2831801"><ele>324.0</ele><time>2026-04-12T07:34:38.526Z</time></trkpt><trkpt lat="39.1503685" lon="16.2830614"><ele>314.0</ele><time>2026-04-12T07:34:39.521Z</time></trkpt><trkpt lat="39.1501218" lon="16.282942"><ele>304.0</ele><time>2026-04-12T07:34:40.528Z</time></trkpt><trkpt lat="39.1498751" lon="16.282821"><ele>299.0</ele><time>2026-04-12T07:34:41.541Z</time></trkpt><trkpt lat="39.1496267" lon="16.2827026"><ele>294.0</ele><time>2026-04-12T07:34:42.534Z</time></trkpt><trkpt lat="39.1493766" lon="16.2825867"><ele>294.0</ele><time>2026-04-12T07:34:43.52Z</time></trkpt><trkpt lat="39.1491266" lon="16.2824673"><ele>294.0</ele><time>2026-04-12T07:34:44.527Z</time></trkpt><trkpt lat="39.1488776" lon="16.2823477"><ele>319.0</ele><time>2026-04-12T07:34:45.537Z</time></trkpt><trkpt lat="39.14863" lon="16.2822258"><ele>344.0</ele><time>2026-04-12T07:34:46.529Z</time></trkpt><trkpt lat="39.1483846" lon="16.2821075"><ele>371.0</ele><time>2026-04-12T07:34:47.521Z</time></trkpt><trkpt lat="39.1481381" lon="16.2819788"><ele>398.0</ele><time>2026-04-12T07:34:48.53Z</time></trkpt><trkpt lat="39.1479038" lon="16.2818129"><ele>398.0</ele><time>2026-04-12T07:34:49.526Z</time></trkpt><trkpt lat="39.1476789" lon="16.2816383"><ele>398.0</ele><time>2026-04-12T07:34:50.531Z</time></trkpt><trkpt lat="39.1474743" lon="16.281438"><ele>402.5</ele><time>2026-04-12T07:34:51.517Z</time></trkpt><trkpt lat="39.1472803" lon="16.2812185"><ele>407.0</ele><time>2026-04-12T07:34:52.531Z</time></trkpt><trkpt lat="39.1470946" lon="16.2809773"><ele>407.0</ele><time>2026-04-12T07:34:53.525Z</time></trkpt><trkpt lat="39.1469302" lon="16.2807132"><ele>407.0</ele><time>2026-04-12T07:34:54.523Z</time></trkpt><trkpt lat="39.1467846" lon="16.2804323"><ele>408.0</ele><time>2026-04-12T07:34:55.514Z</time></trkpt><trkpt lat="39.1466509" lon="16.2801503"><ele>409.0</ele><time>2026-04-12T07:34:56.526Z</time></trkpt><trkpt lat="39.1465233" lon="16.279871"><ele>407.5</ele><time>2026-04-12T07:34:57.54Z</time></trkpt><trkpt lat="39.1463972" lon="16.2795941"><ele>406.0</ele><time>2026-04-12T07:34:58.529Z</time></trkpt><trkpt lat="39.1462701" lon="16.279318"><ele>406.0</ele><time>2026-04-12T07:34:59.524Z</time></trkpt><trkpt lat="39.1461414" lon="16.2790421"><ele>406.0</ele><time>2026-04-12T07:35:00.533Z</time></trkpt><trkpt lat="39.1460162" lon="16.2787677"><ele>416.0</ele><time>2026-04-12T07:35:01.535Z</time></trkpt><trkpt lat="39.1458922" lon="16.2784951"><ele>426.0</ele><time>2026-04-12T07:35:02.523Z</time></trkpt><trkpt lat="39.1457712" lon="16.2782105"><ele>431.5</ele><time>2026-04-12T07:35:03.509Z</time></trkpt><trkpt lat="39.1456415" lon="16.2779419"><ele>437.0</ele><time>2026-04-12T07:35:04.513Z</time></trkpt><trkpt lat="39.1433808" lon="16.2748126"><ele>416.0</ele><time>2026-04-12T07:35:17.511Z</time></trkpt><trkpt lat="39.143154" lon="16.2746659"><ele>395.0</ele><time>2026-04-12T07:35:18.529Z</time></trkpt><trkpt lat="39.1429076" lon="16.274539"><ele>395.0</ele><time>2026-04-12T07:35:19.522Z</time></trkpt><trkpt lat="39.1426522" lon="16.2744476"><ele>395.0</ele><time>2026-04-12T07:35:20.518Z</time></trkpt><trkpt lat="39.1423917" lon="16.2744014"><ele>396.5</ele><time>2026-04-12T07:35:21.523Z</time></trkpt><trkpt lat="39.1421366" lon="16.2743769"><ele>398.0</ele><time>2026-04-12T07:35:22.533Z</time></trkpt><trkpt lat="39.1418799" lon="16.2743748"><ele>398.0</ele><time>2026-04-12T07:35:23.523Z</time></trkpt><trkpt lat="39.1416241" lon="16.2743846"><ele>398.0</ele><time>2026-04-12T07:35:24.527Z</time></trkpt><trkpt lat="39.1413691" lon="16.2744177"><ele>406.5</ele><time>2026-04-12T07:35:25.526Z</time></trkpt><trkpt lat="39.1411142" lon="16.2744473"><ele>415.0</ele><time>2026-04-12T07:35:26.541Z</time></trkpt><trkpt lat="39.140858" lon="16.274487"><ele>412.0</ele><time>2026-04-12T07:35:27.522Z</time></trkpt><trkpt lat="39.1406013" lon="16.2745222"><ele>409.0</ele><time>2026-04-12T07:35:28.525Z</time></trkpt><trkpt lat="39.1403483" lon="16.2745276"><ele>409.0</ele><time>2026-04-12T07:35:29.529Z</time></trkpt><trkpt lat="39.1400921" lon="16.2745401"><ele>409.0</ele><time>2026-04-12T07:35:30.527Z</time></trkpt><trkpt lat="39.1398315" lon="16.2745385"><ele>396.5</ele><time>2026-04-12T07:35:31.519Z</time></trkpt><trkpt lat="39.1395743" lon="16.2745085"><ele>384.0</ele><time>2026-04-12T07:35:32.524Z</time></trkpt><trkpt lat="39.1393201" lon="16.2744468"><ele>384.0</ele><time>2026-04-12T07:35:33.524Z</time></trkpt><trkpt lat="39.1390745" lon="16.2743528"><ele>384.0</ele><time>2026-04-12T07:35:34.526Z</time></trkpt><trkpt lat="39.1388314" lon="16.2742407"><ele>375.0</ele><time>2026-04-12T07:35:35.533Z</time></trkpt><trkpt lat="39.1385931" lon="16.2741056"><ele>366.0</ele><time>2026-04-12T07:35:36.528Z</time></trkpt><trkpt lat="39.1383456" lon="16.2739619"><ele>368.5</ele><time>2026-04-12T07:35:37.526Z</time></trkpt><trkpt lat="39.1380995" lon="16.2738201"><ele>371.0</ele><time>2026-04-12T07:35:38.525Z</time></trkpt><trkpt lat="39.1378538" lon="16.2736605"><ele>371.0</ele><time>2026-04-12T07:35:39.522Z</time></trkpt><trkpt lat="39.1376014" lon="16.2735155"><ele>371.0</ele><time>2026-04-12T07:35:40.52Z</time></trkpt><trkpt lat="39.1373614" lon="16.2733483"><ele>352.5</ele><time>2026-04-12T07:35:41.523Z</time></trkpt><trkpt lat="39.1370906" lon="16.2732154"><ele>334.0</ele><time>2026-04-12T07:35:42.529Z</time></trkpt><trkpt lat="39.1368456" lon="16.2730355"><ele>334.0</ele><time>2026-04-12T07:35:43.539Z</time></trkpt><trkpt lat="39.1365916" lon="16.2728936"><ele>334.0</ele><time>2026-04-12T07:35:44.522Z</time></trkpt><trkpt lat="39.1363281" lon="16.2727712"><ele>343.5</ele><time>2026-04-12T07:35:45.545Z</time></trkpt><trkpt lat="39.1360829" lon="16.2726242"><ele>353.0</ele><time>2026-04-12T07:35:46.54Z</time></trkpt><trkpt lat="39.1358385" lon="16.2724865"><ele>353.5</ele><time>2026-04-12T07:35:47.546Z</time></trkpt><trkpt lat="39.1355865" lon="16.2723515"><ele>354.0</ele><time>2026-04-12T07:35:48.525Z</time></trkpt><trkpt lat="39.1353308" lon="16.2722081"><ele>353.5</ele><time>2026-04-12T07:35:49.534Z</time></trkpt><trkpt lat="39.1350753" lon="16.2720536"><ele>353.0</ele><time>2026-04-12T07:35:50.545Z</time></trkpt><trkpt lat="39.1348206" lon="16.2718811"><ele>353.0</ele><time>2026-04-12T07:35:51.517Z</time></trkpt><trkpt lat="39.1345798" lon="16.2716754"><ele>353.0</ele><time>2026-04-12T07:35:52.526Z</time></trkpt><trkpt lat="39.1343516" lon="16.2714402"><ele>359.0</ele><time>2026-04-12T07:35:53.531Z</time></trkpt><trkpt lat="39.1341402" lon="16.2711806"><ele>365.0</ele><time>2026-04-12T07:35:54.525Z</time></trkpt><trkpt lat="39.1339405" lon="16.2709056"><ele>354.5</ele><time>2026-04-12T07:35:55.524Z</time></trkpt><trkpt lat="39.1337411" lon="16.2706266"><ele>344.0</ele><time>2026-04-12T07:35:56.523Z</time></trkpt><trkpt lat="39.1335381" lon="16.2703604"><ele>344.0</ele><time>2026-04-12T07:35:57.535Z</time></trkpt><trkpt lat="39.1333335" lon="16.2701189"><ele>344.0</ele><time>2026-04-12T07:35:58.535Z</time></trkpt><trkpt lat="39.13312" lon="16.2699031"><ele>346.5</ele><time>2026-04-12T07:35:59.519Z</time></trkpt><trkpt lat="39.1329091" lon="16.2697106"><ele>349.0</ele><time>2026-04-12T07:36:00.524Z</time></trkpt><trkpt lat="39.1326849" lon="16.269547"><ele>349.0</ele><time>2026-04-12T07:36:01.529Z</time></trkpt><trkpt lat="39.1324405" lon="16.2694077"><ele>349.0</ele><time>2026-04-12T07:36:02.526Z</time></trkpt><trkpt lat="39.1321902" lon="16.2692745"><ele>350.5</ele><time>2026-04-12T07:36:03.524Z</time></trkpt><trkpt lat="39.1319437" lon="16.2691395"><ele>352.0</ele><time>2026-04-12T07:36:04.531Z</time></trkpt><trkpt lat="39.1316937" lon="16.2689904"><ele>349.5</ele><time>2026-04-12T07:36:05.523Z</time></trkpt><trkpt lat="39.1314592" lon="16.2688123"><ele>347.0</ele><time>2026-04-12T07:36:06.523Z</time></trkpt><trkpt lat="39.1312476" lon="16.2685982"><ele>347.0</ele><time>2026-04-12T07:36:07.526Z</time></trkpt><trkpt lat="39.131043" lon="16.2683633"><ele>347.0</ele><time>2026-04-12T07:36:08.529Z</time></trkpt><trkpt lat="39.1308582" lon="16.2680981"><ele>338.5</ele><time>2026-04-12T07:36:09.525Z</time></trkpt><trkpt lat="39.1306914" lon="16.26782"><ele>330.0</ele><time>2026-04-12T07:36:10.523Z</time></trkpt><trkpt lat="39.1305228" lon="16.2675363"><ele>340.0</ele><time>2026-04-12T07:36:11.536Z</time></trkpt><trkpt lat="39.1303463" lon="16.2672607"><ele>350.0</ele><time>2026-04-12T07:36:12.524Z</time></trkpt><trkpt lat="39.1301508" lon="16.2669979"><ele>350.0</ele><time>2026-04-12T07:36:13.527Z</time></trkpt><trkpt lat="39.1299435" lon="16.2667521"><ele>350.0</ele><time>2026-04-12T07:36:14.534Z</time></trkpt><trkpt lat="39.1297181" lon="16.2665352"><ele>357.0</ele><time>2026-04-12T07:36:15.527Z</time></trkpt><trkpt lat="39.1294791" lon="16.2663557"><ele>364.0</ele><time>2026-04-12T07:36:16.523Z</time></trkpt><trkpt lat="39.1292195" lon="16.2661989"><ele>352.0</ele><time>2026-04-12T07:36:17.531Z</time></trkpt><trkpt lat="39.1289669" lon="16.2660562"><ele>340.0</ele><time>2026-04-12T07:36:18.528Z</time></trkpt><trkpt lat="39.1287045" lon="16.2659451"><ele>340.0</ele><time>2026-04-12T07:36:19.522Z</time></trkpt><trkpt lat="39.1284485" lon="16.2658252"><ele>340.0</ele><time>2026-04-12T07:36:20.524Z</time></trkpt><trkpt lat="39.1281954" lon="16.2657152"><ele>343.0</ele><time>2026-04-12T07:36:21.528Z</time></trkpt><trkpt lat="39.1279458" lon="16.2655954"><ele>346.0</ele><time>2026-04-12T07:36:22.534Z</time></trkpt><trkpt lat="39.1277011" lon="16.2654705"><ele>346.0</ele><time>2026-04-12T07:36:23.524Z</time></trkpt><trkpt lat="39.1274611" lon="16.2653293"><ele>346.0</ele><time>2026-04-12T07:36:24.528Z</time></trkpt><trkpt lat="39.1272157" lon="16.2651935"><ele>336.0</ele><time>2026-04-12T07:36:25.539Z</time></trkpt><trkpt lat="39.1269911" lon="16.2650117"><ele>326.0</ele><time>2026-04-12T07:36:26.531Z</time></trkpt><trkpt lat="39.1267777" lon="16.2648012"><ele>322.5</ele><time>2026-04-12T07:36:27.525Z</time></trkpt><trkpt lat="39.1265824" lon="16.264561"><ele>319.0</ele><time>2026-04-12T07:36:28.533Z</time></trkpt><trkpt lat="39.1264111" lon="16.2642989"><ele>319.0</ele><time>2026-04-12T07:36:29.553Z</time></trkpt><trkpt lat="39.1262646" lon="16.2640203"><ele>319.0</ele><time>2026-04-12T07:36:30.53Z</time></trkpt><trkpt lat="39.1261385" lon="16.2637195"><ele>323.0</ele><time>2026-04-12T07:36:31.526Z</time></trkpt><trkpt lat="39.1260377" lon="16.2634006"><ele>327.0</ele><time>2026-04-12T07:36:32.529Z</time></trkpt><trkpt lat="39.1259602" lon="16.2630685"><ele>334.5</ele><time>2026-04-12T07:36:33.526Z</time></trkpt><trkpt lat="39.1258833" lon="16.2627184"><ele>342.0</ele><time>2026-04-12T07:36:34.528Z</time></trkpt><trkpt lat="39.1258317" lon="16.2623716"><ele>348.0</ele><time>2026-04-12T07:36:35.522Z</time></trkpt><trkpt lat="39.1257658" lon="16.2620263"><ele>354.0</ele><time>2026-04-12T07:36:36.527Z</time></trkpt><trkpt lat="39.1256442" lon="16.2613395"><ele>330.0</ele><time>2026-04-12T07:36:38.51Z</time></trkpt><trkpt lat="39.1256023" lon="16.2610107"><ele>306.0</ele><time>2026-04-12T07:36:39.518Z</time></trkpt><trkpt lat="39.1255111" lon="16.2606907"><ele>308.0</ele><time>2026-04-12T07:36:40.534Z</time></trkpt><trkpt lat="39.1253948" lon="16.2603951"><ele>310.0</ele><time>2026-04-12T07:36:41.529Z</time></trkpt><trkpt lat="39.12527" lon="16.2600931"><ele>310.0</ele><time>2026-04-12T07:36:42.538Z</time></trkpt><trkpt lat="39.125107" lon="16.2598136"><ele>310.0</ele><time>2026-04-12T07:36:43.523Z</time></trkpt><trkpt lat="39.1249384" lon="16.2595434"><ele>310.0</ele><time>2026-04-12T07:36:44.529Z</time></trkpt><trkpt lat="39.124786" lon="16.2592472"><ele>310.0</ele><time>2026-04-12T07:36:45.528Z</time></trkpt><trkpt lat="39.1246305" lon="16.258948"><ele>314.0</ele><time>2026-04-12T07:36:46.522Z</time></trkpt><trkpt lat="39.1244816" lon="16.2586472"><ele>318.0</ele><time>2026-04-12T07:36:47.518Z</time></trkpt><trkpt lat="39.1243269" lon="16.2583472"><ele>315.0</ele><time>2026-04-12T07:36:48.526Z</time></trkpt><trkpt lat="39.1241596" lon="16.2580557"><ele>312.0</ele><time>2026-04-12T07:36:49.531Z</time></trkpt><trkpt lat="39.1239779" lon="16.2577752"><ele>312.0</ele><time>2026-04-12T07:36:50.518Z</time></trkpt><trkpt lat="39.1237795" lon="16.2575071"><ele>312.0</ele><time>2026-04-12T07:36:51.528Z</time></trkpt><trkpt lat="39.1235683" lon="16.2572575"><ele>315.0</ele><time>2026-04-12T07:36:52.529Z</time></trkpt><trkpt lat="39.1233373" lon="16.2570274"><ele>318.0</ele><time>2026-04-12T07:36:53.522Z</time></trkpt><trkpt lat="39.123098" lon="16.2568263"><ele>303.5</ele><time>2026-04-12T07:36:54.531Z</time></trkpt><trkpt lat="39.122859" lon="16.2566463"><ele>289.0</ele><time>2026-04-12T07:36:55.536Z</time></trkpt><trkpt lat="39.1226253" lon="16.256485"><ele>291.0</ele><time>2026-04-12T07:36:56.519Z</time></trkpt><trkpt lat="39.1223903" lon="16.2563445"><ele>293.0</ele><time>2026-04-12T07:36:57.523Z</time></trkpt><trkpt lat="39.1221482" lon="16.2562298"><ele>293.0</ele><time>2026-04-12T07:36:58.529Z</time></trkpt><trkpt lat="39.121895" lon="16.2561335"><ele>293.0</ele><time>2026-04-12T07:36:59.532Z</time></trkpt><trkpt lat="39.1216306" lon="16.2560579"><ele>299.5</ele><time>2026-04-12T07:37:00.523Z</time></trkpt><trkpt lat="39.121358" lon="16.2560059"><ele>306.0</ele><time>2026-04-12T07:37:01.52Z</time></trkpt><trkpt lat="39.1210789" lon="16.2559676"><ele>306.0</ele><time>2026-04-12T07:37:02.524Z</time></trkpt><trkpt lat="39.1207961" lon="16.2559597"><ele>306.0</ele><time>2026-04-12T07:37:03.533Z</time></trkpt><trkpt lat="39.1205081" lon="16.2559682"><ele>306.5</ele><time>2026-04-12T07:37:04.527Z</time></trkpt><trkpt lat="39.1202249" lon="16.2559675"><ele>307.0</ele><time>2026-04-12T07:37:05.525Z</time></trkpt><trkpt lat="39.1199271" lon="16.2559768"><ele>304.0</ele><time>2026-04-12T07:37:06.524Z</time></trkpt><trkpt lat="39.1196283" lon="16.2559677"><ele>301.0</ele><time>2026-04-12T07:37:07.521Z</time></trkpt><trkpt lat="39.1193305" lon="16.2559374"><ele>291.5</ele><time>2026-04-12T07:37:08.525Z</time></trkpt><trkpt lat="39.1190397" lon="16.2558783"><ele>282.0</ele><time>2026-04-12T07:37:09.525Z</time></trkpt><trkpt lat="39.1187501" lon="16.2557927"><ele>282.0</ele><time>2026-04-12T07:37:10.525Z</time></trkpt><trkpt lat="39.118468" lon="16.255688"><ele>282.0</ele><time>2026-04-12T07:37:11.524Z</time></trkpt><trkpt lat="39.1181988" lon="16.2555768"><ele>283.5</ele><time>2026-04-12T07:37:12.523Z</time></trkpt><trkpt lat="39.1179371" lon="16.2554698"><ele>285.0</ele><time>2026-04-12T07:37:13.528Z</time></trkpt><trkpt lat="39.117676" lon="16.2553865"><ele>285.0</ele><time>2026-04-12T07:37:14.531Z</time></trkpt><trkpt lat="39.1174101" lon="16.25533"><ele>285.0</ele><time>2026-04-12T07:37:15.534Z</time></trkpt><trkpt lat="39.1171392" lon="16.2553069"><ele>290.0</ele><time>2026-04-12T07:37:16.521Z</time></trkpt><trkpt lat="39.1168684" lon="16.2552959"><ele>295.0</ele><time>2026-04-12T07:37:17.541Z</time></trkpt><trkpt lat="39.116591" lon="16.2552894"><ele>295.0</ele><time>2026-04-12T07:37:18.535Z</time></trkpt><trkpt lat="39.1163065" lon="16.2552801"><ele>295.0</ele><time>2026-04-12T07:37:19.536Z</time></trkpt><trkpt lat="39.1160152" lon="16.2552707"><ele>291.5</ele><time>2026-04-12T07:37:20.532Z</time></trkpt><trkpt lat="39.1157238" lon="16.2552621"><ele>288.0</ele><time>2026-04-12T07:37:21.525Z</time></trkpt><trkpt lat="39.1154382" lon="16.2552542"><ele>288.0</ele><time>2026-04-12T07:37:22.526Z</time></trkpt><trkpt lat="39.1151551" lon="16.2552451"><ele>288.0</ele><time>2026-04-12T07:37:23.53Z</time></trkpt><trkpt lat="39.1148751" lon="16.2552336"><ele>283.0</ele><time>2026-04-12T07:37:24.53Z</time></trkpt><trkpt lat="39.1145964" lon="16.2552083"><ele>278.0</ele><time>2026-04-12T07:37:25.536Z</time></trkpt><trkpt lat="39.114319" lon="16.2551604"><ele>266.0</ele><time>2026-04-12T07:37:26.524Z</time></trkpt><trkpt lat="39.1140438" lon="16.2550865"><ele>254.0</ele><time>2026-04-12T07:37:27.532Z</time></trkpt><trkpt lat="39.1137732" lon="16.2549828"><ele>254.0</ele><time>2026-04-12T07:37:28.529Z</time></trkpt><trkpt lat="39.1135057" lon="16.2548502"><ele>254.0</ele><time>2026-04-12T07:37:29.542Z</time></trkpt><trkpt lat="39.1132374" lon="16.2547003"><ele>256.5</ele><time>2026-04-12T07:37:30.526Z</time></trkpt><trkpt lat="39.1129753" lon="16.2545157"><ele>259.0</ele><time>2026-04-12T07:37:31.527Z</time></trkpt><trkpt lat="39.1127149" lon="16.2543291"><ele>259.0</ele><time>2026-04-12T07:37:32.538Z</time></trkpt><trkpt lat="39.1124481" lon="16.2541333"><ele>259.0</ele><time>2026-04-12T07:37:33.54Z</time></trkpt><trkpt lat="39.1121862" lon="16.2539507"><ele>263.0</ele><time>2026-04-12T07:37:34.528Z</time></trkpt><trkpt lat="39.1119393" lon="16.2537634"><ele>267.0</ele><time>2026-04-12T07:37:35.517Z</time></trkpt><trkpt lat="39.1117052" lon="16.2535561"><ele>256.5</ele><time>2026-04-12T07:37:36.519Z</time></trkpt><trkpt lat="39.1114894" lon="16.2533253"><ele>246.0</ele><time>2026-04-12T07:37:37.522Z</time></trkpt><trkpt lat="39.1112905" lon="16.2530746"><ele>246.0</ele><time>2026-04-12T07:37:38.515Z</time></trkpt><trkpt lat="39.1111054" lon="16.2528106"><ele>246.0</ele><time>2026-04-12T07:37:39.527Z</time></trkpt><trkpt lat="39.1109199" lon="16.2525531"><ele>239.5</ele><time>2026-04-12T07:37:40.526Z</time></trkpt><trkpt lat="39.1107327" lon="16.252297"><ele>233.0</ele><time>2026-04-12T07:37:41.52Z</time></trkpt><trkpt lat="39.110538" lon="16.2520457"><ele>233.0</ele><time>2026-04-12T07:37:42.535Z</time></trkpt><trkpt lat="39.1103325" lon="16.2518059"><ele>233.0</ele><time>2026-04-12T07:37:43.545Z</time></trkpt><trkpt lat="39.1101179" lon="16.2515932"><ele>241.0</ele><time>2026-04-12T07:37:44.534Z</time></trkpt><trkpt lat="39.1098913" lon="16.2514068"><ele>249.0</ele><time>2026-04-12T07:37:45.533Z</time></trkpt><trkpt lat="39.1096528" lon="16.2512451"><ele>249.0</ele><time>2026-04-12T07:37:46.527Z</time></trkpt><trkpt lat="39.1094013" lon="16.251097"><ele>249.0</ele><time>2026-04-12T07:37:47.541Z</time></trkpt><trkpt lat="39.109143" lon="16.2509541"><ele>244.0</ele><time>2026-04-12T07:37:48.539Z</time></trkpt><trkpt lat="39.1088764" lon="16.2508077"><ele>239.0</ele><time>2026-04-12T07:37:49.528Z</time></trkpt><trkpt lat="39.1086068" lon="16.2506643"><ele>240.0</ele><time>2026-04-12T07:37:50.54Z</time></trkpt><trkpt lat="39.1083337" lon="16.2505128"><ele>241.0</ele><time>2026-04-12T07:37:51.528Z</time></trkpt><trkpt lat="39.1080628" lon="16.2503619"><ele>241.0</ele><time>2026-04-12T07:37:52.537Z</time></trkpt><trkpt lat="39.107787" lon="16.2502195"><ele>241.0</ele><time>2026-04-12T07:37:53.525Z</time></trkpt><trkpt lat="39.1075147" lon="16.2500765"><ele>235.5</ele><time>2026-04-12T07:37:54.528Z</time></trkpt><trkpt lat="39.1072451" lon="16.2499395"><ele>230.0</ele><time>2026-04-12T07:37:55.541Z</time></trkpt><trkpt lat="39.1069842" lon="16.2497935"><ele>227.5</ele><time>2026-04-12T07:37:56.538Z</time></trkpt><trkpt lat="39.1067261" lon="16.249631"><ele>225.0</ele><time>2026-04-12T07:37:57.537Z</time></trkpt><trkpt lat="39.1064726" lon="16.2494453"><ele>225.0</ele><time>2026-04-12T07:37:58.546Z</time></trkpt><trkpt lat="39.1062182" lon="16.2492478"><ele>225.0</ele><time>2026-04-12T07:37:59.527Z</time></trkpt><trkpt lat="39.1059638" lon="16.2490393"><ele>220.5</ele><time>2026-04-12T07:38:00.528Z</time></trkpt><trkpt lat="39.1057302" lon="16.2488186"><ele>216.0</ele><time>2026-04-12T07:38:01.535Z</time></trkpt><trkpt lat="39.1055088" lon="16.2485839"><ele>216.0</ele><time>2026-04-12T07:38:02.533Z</time></trkpt><trkpt lat="39.1052948" lon="16.2483362"><ele>216.0</ele><time>2026-04-12T07:38:03.531Z</time></trkpt><trkpt lat="39.1051023" lon="16.2480641"><ele>214.5</ele><time>2026-04-12T07:38:04.529Z</time></trkpt><trkpt lat="39.1049225" lon="16.2477784"><ele>213.0</ele><time>2026-04-12T07:38:05.532Z</time></trkpt><trkpt lat="39.1047517" lon="16.247476"><ele>205.5</ele><time>2026-04-12T07:38:06.557Z</time></trkpt><trkpt lat="39.1045822" lon="16.2471672"><ele>198.0</ele><time>2026-04-12T07:38:07.544Z</time></trkpt><trkpt lat="39.104414" lon="16.2468553"><ele>198.0</ele><time>2026-04-12T07:38:08.544Z</time></trkpt><trkpt lat="39.1042442" lon="16.2465384"><ele>198.0</ele><time>2026-04-12T07:38:09.541Z</time></trkpt><trkpt lat="39.104065" lon="16.2462262"><ele>190.5</ele><time>2026-04-12T07:38:10.539Z</time></trkpt><trkpt lat="39.1038805" lon="16.2459057"><ele>183.0</ele><time>2026-04-12T07:38:11.539Z</time></trkpt><trkpt lat="39.1036926" lon="16.2455977"><ele>181.5</ele><time>2026-04-12T07:38:12.539Z</time></trkpt><trkpt lat="39.1034924" lon="16.2453024"><ele>180.0</ele><time>2026-04-12T07:38:13.531Z</time></trkpt><trkpt lat="39.1032843" lon="16.2450104"><ele>185.5</ele><time>2026-04-12T07:38:14.535Z</time></trkpt><trkpt lat="39.1030714" lon="16.2447223"><ele>191.0</ele><time>2026-04-12T07:38:15.531Z</time></trkpt><trkpt lat="39.1028611" lon="16.2444321"><ele>191.0</ele><time>2026-04-12T07:38:16.527Z</time></trkpt><trkpt lat="39.1026533" lon="16.2441453"><ele>191.0</ele><time>2026-04-12T07:38:17.537Z</time></trkpt><trkpt lat="39.1024487" lon="16.2438596"><ele>199.5</ele><time>2026-04-12T07:38:18.54Z</time></trkpt><trkpt lat="39.1022451" lon="16.2435697"><ele>208.0</ele><time>2026-04-12T07:38:19.525Z</time></trkpt><trkpt lat="39.1020409" lon="16.2432809"><ele>219.0</ele><time>2026-04-12T07:38:20.535Z</time></trkpt><trkpt lat="39.1018375" lon="16.2429918"><ele>230.0</ele><time>2026-04-12T07:38:21.538Z</time></trkpt><trkpt lat="39.1016352" lon="16.2426943"><ele>172.0</ele><time>2026-04-12T07:38:22.524Z</time></trkpt><trkpt lat="39.096905" lon="16.2367827"><ele>172.0</ele><time>2026-04-12T07:38:43.483Z</time></trkpt><trkpt lat="39.0966982" lon="16.2365754"><ele>172.0</ele><time>2026-04-12T07:38:44.522Z</time></trkpt><trkpt lat="39.0964571" lon="16.2363211"><ele>171.0</ele><time>2026-04-12T07:38:45.525Z</time></trkpt><trkpt lat="39.0962375" lon="16.2360406"><ele>170.0</ele><time>2026-04-12T07:38:46.534Z</time></trkpt><trkpt lat="39.0960334" lon="16.2357647"><ele>170.0</ele><time>2026-04-12T07:38:47.531Z</time></trkpt><trkpt lat="39.0958233" lon="16.2354903"><ele>170.0</ele><time>2026-04-12T07:38:48.533Z</time></trkpt><trkpt lat="39.0956055" lon="16.2352185"><ele>170.0</ele><time>2026-04-12T07:38:49.526Z</time></trkpt><trkpt lat="39.0953922" lon="16.2349505"><ele>170.0</ele><time>2026-04-12T07:38:50.553Z</time></trkpt><trkpt lat="39.0951701" lon="16.2346918"><ele>170.0</ele><time>2026-04-12T07:38:51.53Z</time></trkpt><trkpt lat="39.0949384" lon="16.2344456"><ele>170.0</ele><time>2026-04-12T07:38:52.527Z</time></trkpt><trkpt lat="39.0946994" lon="16.2342111"><ele>170.0</ele><time>2026-04-12T07:38:53.539Z</time></trkpt><trkpt lat="39.0944534" lon="16.2339851"><ele>170.0</ele><time>2026-04-12T07:38:54.53Z</time></trkpt><trkpt lat="39.0941962" lon="16.2337638"><ele>166.5</ele><time>2026-04-12T07:38:55.532Z</time></trkpt><trkpt lat="39.0939372" lon="16.2335527"><ele>163.0</ele><time>2026-04-12T07:38:56.535Z</time></trkpt><trkpt lat="39.0936713" lon="16.2333443"><ele>163.0</ele><time>2026-04-12T07:38:57.532Z</time></trkpt><trkpt lat="39.0934043" lon="16.2331416"><ele>163.0</ele><time>2026-04-12T07:38:58.533Z</time></trkpt><trkpt lat="39.0931377" lon="16.2329435"><ele>161.0</ele><time>2026-04-12T07:38:59.523Z</time></trkpt><trkpt lat="39.0928803" lon="16.232733"><ele>159.0</ele><time>2026-04-12T07:39:00.531Z</time></trkpt><trkpt lat="39.0926277" lon="16.232496"><ele>159.5</ele><time>2026-04-12T07:39:01.537Z</time></trkpt><trkpt lat="39.0923803" lon="16.2322713"><ele>160.0</ele><time>2026-04-12T07:39:02.542Z</time></trkpt><trkpt lat="39.0921454" lon="16.2320239"><ele>160.0</ele><time>2026-04-12T07:39:03.536Z</time></trkpt><trkpt lat="39.0919217" lon="16.2317528"><ele>160.0</ele><time>2026-04-12T07:39:04.525Z</time></trkpt><trkpt lat="39.0917055" lon="16.2314743"><ele>158.0</ele><time>2026-04-12T07:39:05.535Z</time></trkpt><trkpt lat="39.0914961" lon="16.2311898"><ele>156.0</ele><time>2026-04-12T07:39:06.534Z</time></trkpt><trkpt lat="39.0913071" lon="16.2309007"><ele>155.5</ele><time>2026-04-12T07:39:07.539Z</time></trkpt><trkpt lat="39.0911158" lon="16.2305915"><ele>155.0</ele><time>2026-04-12T07:39:08.535Z</time></trkpt><trkpt lat="39.0909385" lon="16.2302798"><ele>155.0</ele><time>2026-04-12T07:39:09.528Z</time></trkpt><trkpt lat="39.0907702" lon="16.2299558"><ele>155.0</ele><time>2026-04-12T07:39:10.541Z</time></trkpt><trkpt lat="39.0906109" lon="16.2296271"><ele>156.0</ele><time>2026-04-12T07:39:11.543Z</time></trkpt><trkpt lat="39.0904623" lon="16.2292919"><ele>157.0</ele><time>2026-04-12T07:39:12.537Z</time></trkpt><trkpt lat="39.0903285" lon="16.2289445"><ele>157.5</ele><time>2026-04-12T07:39:13.521Z</time></trkpt><trkpt lat="39.0902085" lon="16.2285836"><ele>158.0</ele><time>2026-04-12T07:39:14.523Z</time></trkpt><trkpt lat="39.0900996" lon="16.2282189"><ele>157.5</ele><time>2026-04-12T07:39:15.529Z</time></trkpt><trkpt lat="39.0900061" lon="16.2278506"><ele>157.0</ele><time>2026-04-12T07:39:16.532Z</time></trkpt><trkpt lat="39.0899211" lon="16.2274803"><ele>154.5</ele><time>2026-04-12T07:39:17.521Z</time></trkpt><trkpt lat="39.0898403" lon="16.22711"><ele>152.0</ele><time>2026-04-12T07:39:18.53Z</time></trkpt><trkpt lat="39.0897558" lon="16.2267392"><ele>152.0</ele><time>2026-04-12T07:39:19.537Z</time></trkpt><trkpt lat="39.089667" lon="16.226371"><ele>152.0</ele><time>2026-04-12T07:39:20.526Z</time></trkpt><trkpt lat="39.0895763" lon="16.2259977"><ele>152.0</ele><time>2026-04-12T07:39:21.537Z</time></trkpt><trkpt lat="39.0894798" lon="16.2256243"><ele>152.0</ele><time>2026-04-12T07:39:22.519Z</time></trkpt><trkpt lat="39.0893555" lon="16.2252569"><ele>152.0</ele><time>2026-04-12T07:39:23.524Z</time></trkpt><trkpt lat="39.0892301" lon="16.2248836"><ele>152.0</ele><time>2026-04-12T07:39:24.533Z</time></trkpt><trkpt lat="39.0890851" lon="16.2245198"><ele>150.5</ele><time>2026-04-12T07:39:25.539Z</time></trkpt><trkpt lat="39.0889373" lon="16.2241698"><ele>149.0</ele><time>2026-04-12T07:39:26.532Z</time></trkpt><trkpt lat="39.0887676" lon="16.2238257"><ele>148.5</ele><time>2026-04-12T07:39:27.528Z</time></trkpt><trkpt lat="39.0885882" lon="16.2235026"><ele>148.0</ele><time>2026-04-12T07:39:28.547Z</time></trkpt><trkpt lat="39.0883983" lon="16.2231942"><ele>146.0</ele><time>2026-04-12T07:39:29.528Z</time></trkpt><trkpt lat="39.0881937" lon="16.2228951"><ele>144.0</ele><time>2026-04-12T07:39:30.538Z</time></trkpt><trkpt lat="39.0879773" lon="16.2226022"><ele>144.0</ele><time>2026-04-12T07:39:31.528Z</time></trkpt><trkpt lat="39.0877554" lon="16.2223201"><ele>144.0</ele><time>2026-04-12T07:39:32.528Z</time></trkpt><trkpt lat="39.0875306" lon="16.2220447"><ele>151.0</ele><time>2026-04-12T07:39:33.519Z</time></trkpt><trkpt lat="39.0873053" lon="16.2217729"><ele>158.0</ele><time>2026-04-12T07:39:34.528Z</time></trkpt><trkpt lat="39.0870804" lon="16.2215126"><ele>153.5</ele><time>2026-04-12T07:39:35.535Z</time></trkpt><trkpt lat="39.0868548" lon="16.2212487"><ele>149.0</ele><time>2026-04-12T07:39:36.53Z</time></trkpt><trkpt lat="39.0866257" lon="16.2209833"><ele>147.5</ele><time>2026-04-12T07:39:37.526Z</time></trkpt><trkpt lat="39.0863942" lon="16.2207138"><ele>146.0</ele><time>2026-04-12T07:39:38.533Z</time></trkpt><trkpt lat="39.0861643" lon="16.220441"><ele>146.0</ele><time>2026-04-12T07:39:39.537Z</time></trkpt><trkpt lat="39.0859335" lon="16.2201693"><ele>146.0</ele><time>2026-04-12T07:39:40.522Z</time></trkpt><trkpt lat="39.0857026" lon="16.2198956"><ele>145.0</ele><time>2026-04-12T07:39:41.536Z</time></trkpt><trkpt lat="39.0854672" lon="16.2196246"><ele>144.0</ele><time>2026-04-12T07:39:42.524Z</time></trkpt><trkpt lat="39.0852378" lon="16.219347"><ele>144.0</ele><time>2026-04-12T07:39:43.522Z</time></trkpt><trkpt lat="39.0850091" lon="16.2190712"><ele>144.0</ele><time>2026-04-12T07:39:44.526Z</time></trkpt><trkpt lat="39.0847776" lon="16.2187895"><ele>143.5</ele><time>2026-04-12T07:39:45.53Z</time></trkpt><trkpt lat="39.0845502" lon="16.2185076"><ele>143.0</ele><time>2026-04-12T07:39:46.52Z</time></trkpt><trkpt lat="39.0843284" lon="16.2182173"><ele>142.0</ele><time>2026-04-12T07:39:47.529Z</time></trkpt><trkpt lat="39.0841143" lon="16.2179217"><ele>141.0</ele><time>2026-04-12T07:39:48.529Z</time></trkpt><trkpt lat="39.083907" lon="16.2176186"><ele>141.5</ele><time>2026-04-12T07:39:49.519Z</time></trkpt><trkpt lat="39.0837044" lon="16.217312"><ele>142.0</ele><time>2026-04-12T07:39:50.523Z</time></trkpt><trkpt lat="39.0835098" lon="16.2170016"><ele>142.0</ele><time>2026-04-12T07:39:51.536Z</time></trkpt><trkpt lat="39.0833221" lon="16.2166889"><ele>142.0</ele><time>2026-04-12T07:39:52.522Z</time></trkpt><trkpt lat="39.0831386" lon="16.2163745"><ele>149.5</ele><time>2026-04-12T07:39:53.524Z</time></trkpt><trkpt lat="39.0829591" lon="16.2160559"><ele>157.0</ele><time>2026-04-12T07:39:54.538Z</time></trkpt><trkpt lat="39.0827861" lon="16.215732"><ele>151.5</ele><time>2026-04-12T07:39:55.531Z</time></trkpt><trkpt lat="39.0826194" lon="16.2154028"><ele>146.0</ele><time>2026-04-12T07:39:56.524Z</time></trkpt><trkpt lat="39.0824622" lon="16.2150676"><ele>150.0</ele><time>2026-04-12T07:39:57.529Z</time></trkpt><trkpt lat="39.0823099" lon="16.2147259"><ele>154.0</ele><time>2026-04-12T07:39:58.534Z</time></trkpt><trkpt lat="39.0821624" lon="16.2143804"><ele>154.0</ele><time>2026-04-12T07:39:59.524Z</time></trkpt><trkpt lat="39.0820199" lon="16.2140324"><ele>154.0</ele><time>2026-04-12T07:40:00.52Z</time></trkpt><trkpt lat="39.0818837" lon="16.2136803"><ele>150.0</ele><time>2026-04-12T07:40:01.529Z</time></trkpt><trkpt lat="39.0817532" lon="16.2133251"><ele>146.0</ele><time>2026-04-12T07:40:02.521Z</time></trkpt><trkpt lat="39.081626" lon="16.2129748"><ele>153.0</ele><time>2026-04-12T07:40:03.519Z</time></trkpt><trkpt lat="39.0815101" lon="16.2126185"><ele>160.0</ele><time>2026-04-12T07:40:04.52Z</time></trkpt><trkpt lat="39.0814033" lon="16.2122538"><ele>160.0</ele><time>2026-04-12T07:40:05.528Z</time></trkpt><trkpt lat="39.0812946" lon="16.2118875"><ele>160.0</ele><time>2026-04-12T07:40:06.519Z</time></trkpt><trkpt lat="39.0811968" lon="16.2115121"><ele>156.5</ele><time>2026-04-12T07:40:07.514Z</time></trkpt><trkpt lat="39.0811053" lon="16.2111274"><ele>153.0</ele><time>2026-04-12T07:40:08.525Z</time></trkpt><trkpt lat="39.0810181" lon="16.2107431"><ele>149.5</ele><time>2026-04-12T07:40:09.518Z</time></trkpt><trkpt lat="39.0809329" lon="16.2103524"><ele>146.0</ele><time>2026-04-12T07:40:10.522Z</time></trkpt><trkpt lat="39.0808486" lon="16.2099585"><ele>144.0</ele><time>2026-04-12T07:40:11.519Z</time></trkpt><trkpt lat="39.0807675" lon="16.2095596"><ele>142.0</ele><time>2026-04-12T07:40:12.544Z</time></trkpt><trkpt lat="39.0806853" lon="16.2091544"><ele>152.5</ele><time>2026-04-12T07:40:13.522Z</time></trkpt><trkpt lat="39.0806025" lon="16.2087434"><ele>163.0</ele><time>2026-04-12T07:40:14.52Z</time></trkpt><trkpt lat="39.080517" lon="16.2083259"><ele>153.5</ele><time>2026-04-12T07:40:15.525Z</time></trkpt><trkpt lat="39.0804292" lon="16.2079017"><ele>144.0</ele><time>2026-04-12T07:40:16.523Z</time></trkpt><trkpt lat="39.0803447" lon="16.2074784"><ele>140.0</ele><time>2026-04-12T07:40:17.528Z</time></trkpt><trkpt lat="39.0802698" lon="16.2070572"><ele>136.0</ele><time>2026-04-12T07:40:18.518Z</time></trkpt><trkpt lat="39.0802082" lon="16.2066367"><ele>134.0</ele><time>2026-04-12T07:40:19.519Z</time></trkpt><trkpt lat="39.0801601" lon="16.2062174"><ele>132.0</ele><time>2026-04-12T07:40:20.533Z</time></trkpt><trkpt lat="39.0801318" lon="16.2057992"><ele>130.0</ele><time>2026-04-12T07:40:21.526Z</time></trkpt><trkpt lat="39.0801105" lon="16.205386"><ele>128.0</ele><time>2026-04-12T07:40:22.524Z</time></trkpt><trkpt lat="39.0801154" lon="16.2049742"><ele>128.5</ele><time>2026-04-12T07:40:23.522Z</time></trkpt><trkpt lat="39.0801295" lon="16.2045574"><ele>129.0</ele><time>2026-04-12T07:40:24.533Z</time></trkpt><trkpt lat="39.0801641" lon="16.2041554"><ele>132.5</ele><time>2026-04-12T07:40:25.533Z</time></trkpt><trkpt lat="39.0802144" lon="16.2037571"><ele>136.0</ele><time>2026-04-12T07:40:26.522Z</time></trkpt><trkpt lat="39.0802756" lon="16.2033654"><ele>140.0</ele><time>2026-04-12T07:40:27.519Z</time></trkpt><trkpt lat="39.0803463" lon="16.2029795"><ele>144.0</ele><time>2026-04-12T07:40:28.52Z</time></trkpt><trkpt lat="39.0804198" lon="16.2025971"><ele>144.5</ele><time>2026-04-12T07:40:29.534Z</time></trkpt><trkpt lat="39.0804902" lon="16.2022163"><ele>145.0</ele><time>2026-04-12T07:40:30.525Z</time></trkpt><trkpt lat="39.0805565" lon="16.2018377"><ele>145.0</ele><time>2026-04-12T07:40:31.52Z</time></trkpt><trkpt lat="39.0806176" lon="16.2014571"><ele>145.0</ele><time>2026-04-12T07:40:32.525Z</time></trkpt><trkpt lat="39.0806688" lon="16.2010738"><ele>145.0</ele><time>2026-04-12T07:40:33.525Z</time></trkpt><trkpt lat="39.0807057" lon="16.2006862"><ele>145.0</ele><time>2026-04-12T07:40:34.521Z</time></trkpt><trkpt lat="39.0807279" lon="16.2002975"><ele>143.5</ele><time>2026-04-12T07:40:35.528Z</time></trkpt><trkpt lat="39.0807351" lon="16.1999064"><ele>142.0</ele><time>2026-04-12T07:40:36.524Z</time></trkpt><trkpt lat="39.0807293" lon="16.199512"><ele>142.0</ele><time>2026-04-12T07:40:37.517Z</time></trkpt><trkpt lat="39.0807101" lon="16.1991161"><ele>142.0</ele><time>2026-04-12T07:40:38.531Z</time></trkpt><trkpt lat="39.0806741" lon="16.1987197"><ele>138.5</ele><time>2026-04-12T07:40:39.53Z</time></trkpt><trkpt lat="39.0806227" lon="16.1983227"><ele>135.0</ele><time>2026-04-12T07:40:40.523Z</time></trkpt><trkpt lat="39.0805551" lon="16.1979264"><ele>131.0</ele><time>2026-04-12T07:40:41.513Z</time></trkpt><trkpt lat="39.0804719" lon="16.1975337"><ele>127.0</ele><time>2026-04-12T07:40:42.524Z</time></trkpt><trkpt lat="39.0803714" lon="16.1971453"><ele>123.0</ele><time>2026-04-12T07:40:43.523Z</time></trkpt><trkpt lat="39.0802548" lon="16.1967631"><ele>119.0</ele><time>2026-04-12T07:40:44.521Z</time></trkpt><trkpt lat="39.080124" lon="16.1963882"><ele>117.5</ele><time>2026-04-12T07:40:45.517Z</time></trkpt><trkpt lat="39.0799806" lon="16.1960214"><ele>116.0</ele><time>2026-04-12T07:40:46.525Z</time></trkpt><trkpt lat="39.0798223" lon="16.1956663"><ele>119.0</ele><time>2026-04-12T07:40:47.524Z</time></trkpt><trkpt lat="39.0796495" lon="16.1953228"><ele>122.0</ele><time>2026-04-12T07:40:48.521Z</time></trkpt><trkpt lat="39.0794663" lon="16.1949926"><ele>119.0</ele><time>2026-04-12T07:40:49.522Z</time></trkpt><trkpt lat="39.0792733" lon="16.1946752"><ele>116.0</ele><time>2026-04-12T07:40:50.528Z</time></trkpt><trkpt lat="39.0790698" lon="16.1943703"><ele>116.0</ele><time>2026-04-12T07:40:51.543Z</time></trkpt><trkpt lat="39.078853" lon="16.1940803"><ele>116.0</ele><time>2026-04-12T07:40:52.527Z</time></trkpt><trkpt lat="39.078625" lon="16.1938062"><ele>117.5</ele><time>2026-04-12T07:40:53.536Z</time></trkpt><trkpt lat="39.0783866" lon="16.1935446"><ele>119.0</ele><time>2026-04-12T07:40:54.529Z</time></trkpt><trkpt lat="39.0781382" lon="16.1932946"><ele>115.0</ele><time>2026-04-12T07:40:55.545Z</time></trkpt><trkpt lat="39.0778805" lon="16.1930545"><ele>111.0</ele><time>2026-04-12T07:40:56.543Z</time></trkpt><trkpt lat="39.0776169" lon="16.1928174"><ele>117.5</ele><time>2026-04-12T07:40:57.528Z</time></trkpt><trkpt lat="39.0773485" lon="16.192579"><ele>124.0</ele><time>2026-04-12T07:40:58.547Z</time></trkpt><trkpt lat="39.077079" lon="16.1923406"><ele>120.5</ele><time>2026-04-12T07:40:59.528Z</time></trkpt><trkpt lat="39.0768072" lon="16.1921016"><ele>117.0</ele><time>2026-04-12T07:41:00.52Z</time></trkpt><trkpt lat="39.0765346" lon="16.1918629"><ele>117.0</ele><time>2026-04-12T07:41:01.528Z</time></trkpt><trkpt lat="39.0762583" lon="16.1916356"><ele>117.0</ele><time>2026-04-12T07:41:02.526Z</time></trkpt><trkpt lat="39.0759884" lon="16.1914046"><ele>116.5</ele><time>2026-04-12T07:41:03.526Z</time></trkpt><trkpt lat="39.075717" lon="16.1911801"><ele>116.0</ele><time>2026-04-12T07:41:04.521Z</time></trkpt><trkpt lat="39.0754478" lon="16.1909656"><ele>116.0</ele><time>2026-04-12T07:41:05.538Z</time></trkpt><trkpt lat="39.0751706" lon="16.1907645"><ele>116.0</ele><time>2026-04-12T07:41:06.517Z</time></trkpt><trkpt lat="39.0748846" lon="16.1905713"><ele>113.0</ele><time>2026-04-12T07:41:07.521Z</time></trkpt><trkpt lat="39.0745951" lon="16.1903943"><ele>110.0</ele><time>2026-04-12T07:41:08.531Z</time></trkpt><trkpt lat="39.0743033" lon="16.1902275"><ele>116.0</ele><time>2026-04-12T07:41:09.529Z</time></trkpt><trkpt lat="39.0740136" lon="16.1900553"><ele>122.0</ele><time>2026-04-12T07:41:10.531Z</time></trkpt><trkpt lat="39.0737321" lon="16.1898608"><ele>128.5</ele><time>2026-04-12T07:41:11.526Z</time></trkpt><trkpt lat="39.0734753" lon="16.1896378"><ele>135.0</ele><time>2026-04-12T07:41:12.524Z</time></trkpt><trkpt lat="39.0732296" lon="16.1894082"><ele>135.0</ele><time>2026-04-12T07:41:13.518Z</time></trkpt><trkpt lat="39.0730219" lon="16.1891291"><ele>135.0</ele><time>2026-04-12T07:41:14.526Z</time></trkpt><trkpt lat="39.0728303" lon="16.1888335"><ele>126.5</ele><time>2026-04-12T07:41:15.523Z</time></trkpt><trkpt lat="39.0726484" lon="16.1885303"><ele>118.0</ele><time>2026-04-12T07:41:16.528Z</time></trkpt><trkpt lat="39.0724873" lon="16.1882213"><ele>129.0</ele><time>2026-04-12T07:41:17.525Z</time></trkpt><trkpt lat="39.0723151" lon="16.1879355"><ele>140.0</ele><time>2026-04-12T07:41:18.519Z</time></trkpt><trkpt lat="39.0721373" lon="16.1876652"><ele>140.0</ele><time>2026-04-12T07:41:19.521Z</time></trkpt><trkpt lat="39.0719491" lon="16.1874078"><ele>140.0</ele><time>2026-04-12T07:41:20.519Z</time></trkpt><trkpt lat="39.0717422" lon="16.1871657"><ele>131.5</ele><time>2026-04-12T07:41:21.516Z</time></trkpt><trkpt lat="39.0715471" lon="16.1869256"><ele>123.0</ele><time>2026-04-12T07:41:22.516Z</time></trkpt><trkpt lat="39.0711267" lon="16.1864712"><ele>114.0</ele><time>2026-04-12T07:41:24.507Z</time></trkpt><trkpt lat="39.0709046" lon="16.1862549"><ele>105.0</ele><time>2026-04-12T07:41:25.531Z</time></trkpt><trkpt lat="39.0705998" lon="16.1861773"><ele>105.0</ele><time>2026-04-12T07:41:26.522Z</time></trkpt><trkpt lat="39.0702657" lon="16.1861829"><ele>105.0</ele><time>2026-04-12T07:41:27.535Z</time></trkpt><trkpt lat="39.0698795" lon="16.1861968"><ele>110.0</ele><time>2026-04-12T07:41:28.531Z</time></trkpt><trkpt lat="39.0695749" lon="16.1861188"><ele>115.0</ele><time>2026-04-12T07:41:29.53Z</time></trkpt><trkpt lat="39.0692925" lon="16.1859951"><ele>118.5</ele><time>2026-04-12T07:41:30.528Z</time></trkpt><trkpt lat="39.0690251" lon="16.1858102"><ele>122.0</ele><time>2026-04-12T07:41:31.517Z</time></trkpt><trkpt lat="39.0687833" lon="16.1855751"><ele>122.0</ele><time>2026-04-12T07:41:32.535Z</time></trkpt><trkpt lat="39.0685606" lon="16.1853153"><ele>122.0</ele><time>2026-04-12T07:41:33.527Z</time></trkpt><trkpt lat="39.0683676" lon="16.1850221"><ele>126.5</ele><time>2026-04-12T07:41:34.524Z</time></trkpt><trkpt lat="39.0681986" lon="16.1847056"><ele>131.0</ele><time>2026-04-12T07:41:35.529Z</time></trkpt><trkpt lat="39.0680607" lon="16.1843673"><ele>134.5</ele><time>2026-04-12T07:41:36.525Z</time></trkpt><trkpt lat="39.0679494" lon="16.1840106"><ele>138.0</ele><time>2026-04-12T07:41:37.515Z</time></trkpt><trkpt lat="39.0678621" lon="16.183646"><ele>138.0</ele><time>2026-04-12T07:41:38.513Z</time></trkpt><trkpt lat="39.06778" lon="16.1832775"><ele>138.0</ele><time>2026-04-12T07:41:39.529Z</time></trkpt><trkpt lat="39.0676902" lon="16.1829114"><ele>134.5</ele><time>2026-04-12T07:41:40.522Z</time></trkpt><trkpt lat="39.0675812" lon="16.1825518"><ele>131.0</ele><time>2026-04-12T07:41:41.528Z</time></trkpt><trkpt lat="39.0674455" lon="16.182202"><ele>129.5</ele><time>2026-04-12T07:41:42.529Z</time></trkpt><trkpt lat="39.0672823" lon="16.1818681"><ele>128.0</ele><time>2026-04-12T07:41:43.521Z</time></trkpt><trkpt lat="39.0670815" lon="16.1815604"><ele>125.0</ele><time>2026-04-12T07:41:44.527Z</time></trkpt><trkpt lat="39.0668577" lon="16.1812751"><ele>122.0</ele><time>2026-04-12T07:41:45.517Z</time></trkpt><trkpt lat="39.0666258" lon="16.1809981"><ele>123.0</ele><time>2026-04-12T07:41:46.524Z</time></trkpt><trkpt lat="39.066393" lon="16.1807233"><ele>124.0</ele><time>2026-04-12T07:41:47.539Z</time></trkpt><trkpt lat="39.0661612" lon="16.1804453"><ele>124.5</ele><time>2026-04-12T07:41:48.526Z</time></trkpt><trkpt lat="39.0659338" lon="16.1801663"><ele>125.0</ele><time>2026-04-12T07:41:49.525Z</time></trkpt><trkpt lat="39.0657109" lon="16.179882"><ele>128.5</ele><time>2026-04-12T07:41:50.53Z</time></trkpt><trkpt lat="39.0654955" lon="16.1795917"><ele>132.0</ele><time>2026-04-12T07:41:51.531Z</time></trkpt><trkpt lat="39.0652893" lon="16.179291"><ele>130.0</ele><time>2026-04-12T07:41:52.523Z</time></trkpt><trkpt lat="39.0650941" lon="16.1789801"><ele>128.0</ele><time>2026-04-12T07:41:53.531Z</time></trkpt><trkpt lat="39.0649099" lon="16.1786589"><ele>133.0</ele><time>2026-04-12T07:41:54.532Z</time></trkpt><trkpt lat="39.0647372" lon="16.1783282"><ele>138.0</ele><time>2026-04-12T07:41:55.517Z</time></trkpt><trkpt lat="39.0645766" lon="16.1779891"><ele>138.0</ele><time>2026-04-12T07:41:56.525Z</time></trkpt><trkpt lat="39.0644304" lon="16.1776399"><ele>138.0</ele><time>2026-04-12T07:41:57.544Z</time></trkpt><trkpt lat="39.0642983" lon="16.177281"><ele>138.5</ele><time>2026-04-12T07:41:58.522Z</time></trkpt><trkpt lat="39.0641779" lon="16.1769139"><ele>139.0</ele><time>2026-04-12T07:41:59.531Z</time></trkpt><trkpt lat="39.0640631" lon="16.1765591"><ele>144.0</ele><time>2026-04-12T07:42:00.531Z</time></trkpt><trkpt lat="39.0639599" lon="16.1761854"><ele>149.0</ele><time>2026-04-12T07:42:01.541Z</time></trkpt><trkpt lat="39.0638636" lon="16.1758068"><ele>148.0</ele><time>2026-04-12T07:42:02.536Z</time></trkpt><trkpt lat="39.0637538" lon="16.1754261"><ele>147.0</ele><time>2026-04-12T07:42:03.522Z</time></trkpt><trkpt lat="39.063639" lon="16.1750511"><ele>146.0</ele><time>2026-04-12T07:42:04.524Z</time></trkpt><trkpt lat="39.0635207" lon="16.1746761"><ele>145.0</ele><time>2026-04-12T07:42:05.527Z</time></trkpt><trkpt lat="39.063396" lon="16.1743043"><ele>151.5</ele><time>2026-04-12T07:42:06.515Z</time></trkpt><trkpt lat="39.0632685" lon="16.1739407"><ele>158.0</ele><time>2026-04-12T07:42:07.541Z</time></trkpt><trkpt lat="39.0631282" lon="16.1735778"><ele>158.0</ele><time>2026-04-12T07:42:08.527Z</time></trkpt><trkpt lat="39.0629909" lon="16.1732225"><ele>158.0</ele><time>2026-04-12T07:42:09.516Z</time></trkpt><trkpt lat="39.0628558" lon="16.1728751"><ele>155.0</ele><time>2026-04-12T07:42:10.526Z</time></trkpt><trkpt lat="39.0627225" lon="16.1725294"><ele>152.0</ele><time>2026-04-12T07:42:11.522Z</time></trkpt><trkpt lat="39.0625979" lon="16.1721811"><ele>147.0</ele><time>2026-04-12T07:42:12.52Z</time></trkpt><trkpt lat="39.0624827" lon="16.1718319"><ele>142.0</ele><time>2026-04-12T07:42:13.527Z</time></trkpt><trkpt lat="39.0623776" lon="16.1714764"><ele>152.0</ele><time>2026-04-12T07:42:14.519Z</time></trkpt><trkpt lat="39.0622812" lon="16.171116"><ele>162.0</ele><time>2026-04-12T07:42:15.521Z</time></trkpt><trkpt lat="39.0621986" lon="16.1707507"><ele>162.0</ele><time>2026-04-12T07:42:16.53Z</time></trkpt><trkpt lat="39.0621284" lon="16.1703756"><ele>162.0</ele><time>2026-04-12T07:42:17.519Z</time></trkpt><trkpt lat="39.0620622" lon="16.1699973"><ele>161.0</ele><time>2026-04-12T07:42:18.533Z</time></trkpt><trkpt lat="39.0619965" lon="16.1696162"><ele>160.0</ele><time>2026-04-12T07:42:19.532Z</time></trkpt><trkpt lat="39.0619327" lon="16.1692285"><ele>158.0</ele><time>2026-04-12T07:42:20.529Z</time></trkpt><trkpt lat="39.0618603" lon="16.1688454"><ele>156.0</ele><time>2026-04-12T07:42:21.518Z</time></trkpt><trkpt lat="39.0617811" lon="16.1684677"><ele>152.0</ele><time>2026-04-12T07:42:22.524Z</time></trkpt><trkpt lat="39.0616907" lon="16.1680954"><ele>148.0</ele><time>2026-04-12T07:42:23.53Z</time></trkpt><trkpt lat="39.0615872" lon="16.1677303"><ele>153.5</ele><time>2026-04-12T07:42:24.519Z</time></trkpt><trkpt lat="39.0614723" lon="16.1673719"><ele>159.0</ele><time>2026-04-12T07:42:25.532Z</time></trkpt><trkpt lat="39.0613438" lon="16.1670164"><ele>159.0</ele><time>2026-04-12T07:42:26.532Z</time></trkpt><trkpt lat="39.0612091" lon="16.1666679"><ele>159.0</ele><time>2026-04-12T07:42:27.537Z</time></trkpt><trkpt lat="39.0610637" lon="16.166317"><ele>160.5</ele><time>2026-04-12T07:42:28.52Z</time></trkpt><trkpt lat="39.0609151" lon="16.1659664"><ele>162.0</ele><time>2026-04-12T07:42:29.53Z</time></trkpt><trkpt lat="39.0607691" lon="16.1656119"><ele>162.0</ele><time>2026-04-12T07:42:30.522Z</time></trkpt><trkpt lat="39.0606291" lon="16.165251"><ele>162.0</ele><time>2026-04-12T07:42:31.521Z</time></trkpt><trkpt lat="39.0604983" lon="16.1648832"><ele>158.0</ele><time>2026-04-12T07:42:32.524Z</time></trkpt><trkpt lat="39.060376" lon="16.164509"><ele>154.0</ele><time>2026-04-12T07:42:33.534Z</time></trkpt><trkpt lat="39.0602576" lon="16.1641306"><ele>152.5</ele><time>2026-04-12T07:42:34.522Z</time></trkpt><trkpt lat="39.0601431" lon="16.1637504"><ele>151.0</ele><time>2026-04-12T07:42:35.524Z</time></trkpt><trkpt lat="39.0600264" lon="16.1633691"><ele>160.0</ele><time>2026-04-12T07:42:36.524Z</time></trkpt><trkpt lat="39.0599084" lon="16.1629872"><ele>169.0</ele><time>2026-04-12T07:42:37.534Z</time></trkpt><trkpt lat="39.0597918" lon="16.1626048"><ele>164.0</ele><time>2026-04-12T07:42:38.526Z</time></trkpt><trkpt lat="39.0596759" lon="16.1622208"><ele>159.0</ele><time>2026-04-12T07:42:39.531Z</time></trkpt><trkpt lat="39.0595605" lon="16.1618354"><ele>152.0</ele><time>2026-04-12T07:42:40.523Z</time></trkpt><trkpt lat="39.0594432" lon="16.1614484"><ele>145.0</ele><time>2026-04-12T07:42:41.538Z</time></trkpt><trkpt lat="39.0593249" lon="16.1610607"><ele>146.0</ele><time>2026-04-12T07:42:42.528Z</time></trkpt><trkpt lat="39.0592074" lon="16.1606737"><ele>147.0</ele><time>2026-04-12T07:42:43.525Z</time></trkpt><trkpt lat="39.0590909" lon="16.1602866"><ele>147.0</ele><time>2026-04-12T07:42:44.536Z</time></trkpt><trkpt lat="39.058968" lon="16.1599057"><ele>147.0</ele><time>2026-04-12T07:42:45.53Z</time></trkpt><trkpt lat="39.0588569" lon="16.1595296"><ele>147.5</ele><time>2026-04-12T07:42:46.538Z</time></trkpt><trkpt lat="39.0587405" lon="16.1591444"><ele>148.0</ele><time>2026-04-12T07:42:47.528Z</time></trkpt><trkpt lat="39.0586109" lon="16.1587665"><ele>148.0</ele><time>2026-04-12T07:42:48.522Z</time></trkpt><trkpt lat="39.0584749" lon="16.1583994"><ele>148.0</ele><time>2026-04-12T07:42:49.526Z</time></trkpt><trkpt lat="39.0583302" lon="16.1580411"><ele>148.0</ele><time>2026-04-12T07:42:50.529Z</time></trkpt><trkpt lat="39.0581693" lon="16.1576971"><ele>148.0</ele><time>2026-04-12T07:42:51.531Z</time></trkpt><trkpt lat="39.0580009" lon="16.1573654"><ele>148.0</ele><time>2026-04-12T07:42:52.522Z</time></trkpt><trkpt lat="39.0578185" lon="16.1570465"><ele>148.0</ele><time>2026-04-12T07:42:53.529Z</time></trkpt><trkpt lat="39.0576253" lon="16.1567388"><ele>153.0</ele><time>2026-04-12T07:42:54.54Z</time></trkpt><trkpt lat="39.0574222" lon="16.1564468"><ele>158.0</ele><time>2026-04-12T07:42:55.526Z</time></trkpt><trkpt lat="39.0572109" lon="16.1561655"><ele>158.0</ele><time>2026-04-12T07:42:56.531Z</time></trkpt><trkpt lat="39.0569849" lon="16.1558969"><ele>158.0</ele><time>2026-04-12T07:42:57.53Z</time></trkpt><trkpt lat="39.0567476" lon="16.1556409"><ele>154.0</ele><time>2026-04-12T07:42:58.522Z</time></trkpt><trkpt lat="39.0564983" lon="16.1553959"><ele>150.0</ele><time>2026-04-12T07:42:59.517Z</time></trkpt><trkpt lat="39.0562314" lon="16.1551606"><ele>150.0</ele><time>2026-04-12T07:43:00.537Z</time></trkpt><trkpt lat="39.055953" lon="16.1549407"><ele>150.0</ele><time>2026-04-12T07:43:01.528Z</time></trkpt><trkpt lat="39.0556687" lon="16.1547382"><ele>148.0</ele><time>2026-04-12T07:43:02.52Z</time></trkpt><trkpt lat="39.0553819" lon="16.154548"><ele>146.0</ele><time>2026-04-12T07:43:03.533Z</time></trkpt><trkpt lat="39.0550934" lon="16.154363"><ele>144.0</ele><time>2026-04-12T07:43:04.524Z</time></trkpt><trkpt lat="39.0548051" lon="16.154182"><ele>142.0</ele><time>2026-04-12T07:43:05.523Z</time></trkpt><trkpt lat="39.0545167" lon="16.1540023"><ele>142.0</ele><time>2026-04-12T07:43:06.535Z</time></trkpt><trkpt lat="39.0542272" lon="16.1538231"><ele>142.0</ele><time>2026-04-12T07:43:07.524Z</time></trkpt><trkpt lat="39.0539369" lon="16.153648"><ele>147.5</ele><time>2026-04-12T07:43:08.521Z</time></trkpt><trkpt lat="39.0536537" lon="16.1534688"><ele>153.0</ele><time>2026-04-12T07:43:09.517Z</time></trkpt><trkpt lat="39.0533699" lon="16.1532972"><ele>149.5</ele><time>2026-04-12T07:43:10.532Z</time></trkpt><trkpt lat="39.0530824" lon="16.1531226"><ele>146.0</ele><time>2026-04-12T07:43:11.528Z</time></trkpt><trkpt lat="39.0527908" lon="16.1529473"><ele>146.0</ele><time>2026-04-12T07:43:12.523Z</time></trkpt><trkpt lat="39.0525004" lon="16.1527708"><ele>146.0</ele><time>2026-04-12T07:43:13.523Z</time></trkpt><trkpt lat="39.0522077" lon="16.1525903"><ele>145.5</ele><time>2026-04-12T07:43:14.516Z</time></trkpt><trkpt lat="39.0519174" lon="16.1524049"><ele>145.0</ele><time>2026-04-12T07:43:15.531Z</time></trkpt><trkpt lat="39.0516251" lon="16.1522098"><ele>148.0</ele><time>2026-04-12T07:43:16.524Z</time></trkpt><trkpt lat="39.0513356" lon="16.1520063"><ele>151.0</ele><time>2026-04-12T07:43:17.523Z</time></trkpt><trkpt lat="39.0510526" lon="16.1517901"><ele>150.5</ele><time>2026-04-12T07:43:18.529Z</time></trkpt><trkpt lat="39.0507734" lon="16.1515597"><ele>150.0</ele><time>2026-04-12T07:43:19.531Z</time></trkpt><trkpt lat="39.0504905" lon="16.1513213"><ele>150.0</ele><time>2026-04-12T07:43:20.53Z</time></trkpt><trkpt lat="39.0502157" lon="16.1510654"><ele>150.0</ele><time>2026-04-12T07:43:21.516Z</time></trkpt><trkpt lat="39.0499431" lon="16.150794"><ele>151.5</ele><time>2026-04-12T07:43:22.526Z</time></trkpt><trkpt lat="39.0496727" lon="16.1505192"><ele>153.0</ele><time>2026-04-12T07:43:23.528Z</time></trkpt><trkpt lat="39.0494079" lon="16.1502452"><ele>153.0</ele><time>2026-04-12T07:43:24.519Z</time></trkpt><trkpt lat="39.0491423" lon="16.1499688"><ele>153.0</ele><time>2026-04-12T07:43:25.534Z</time></trkpt><trkpt lat="39.0488765" lon="16.1496992"><ele>153.0</ele><time>2026-04-12T07:43:26.524Z</time></trkpt><trkpt lat="39.0486103" lon="16.14943"><ele>153.0</ele><time>2026-04-12T07:43:27.524Z</time></trkpt><trkpt lat="39.0483417" lon="16.1491506"><ele>152.5</ele><time>2026-04-12T07:43:28.523Z</time></trkpt><trkpt lat="39.0480771" lon="16.1488845"><ele>152.0</ele><time>2026-04-12T07:43:29.517Z</time></trkpt><trkpt lat="39.0478129" lon="16.1486251"><ele>152.0</ele><time>2026-04-12T07:43:30.521Z</time></trkpt><trkpt lat="39.0475486" lon="16.1483686"><ele>152.0</ele><time>2026-04-12T07:43:31.522Z</time></trkpt><trkpt lat="39.0472838" lon="16.1481317"><ele>149.0</ele><time>2026-04-12T07:43:32.535Z</time></trkpt><trkpt lat="39.0470125" lon="16.1479098"><ele>146.0</ele><time>2026-04-12T07:43:33.518Z</time></trkpt><trkpt lat="39.0467376" lon="16.1477047"><ele>147.5</ele><time>2026-04-12T07:43:34.519Z</time></trkpt><trkpt lat="39.0464566" lon="16.1475152"><ele>149.0</ele><time>2026-04-12T07:43:35.525Z</time></trkpt><trkpt lat="39.0461722" lon="16.1473419"><ele>149.0</ele><time>2026-04-12T07:43:36.525Z</time></trkpt><trkpt lat="39.0458844" lon="16.1471797"><ele>149.0</ele><time>2026-04-12T07:43:37.525Z</time></trkpt><trkpt lat="39.0455955" lon="16.1470179"><ele>151.5</ele><time>2026-04-12T07:43:38.528Z</time></trkpt><trkpt lat="39.0453038" lon="16.1468532"><ele>154.0</ele><time>2026-04-12T07:43:39.53Z</time></trkpt><trkpt lat="39.0450111" lon="16.1466847"><ele>144.5</ele><time>2026-04-12T07:43:40.534Z</time></trkpt><trkpt lat="39.0447205" lon="16.1465059"><ele>135.0</ele><time>2026-04-12T07:43:41.52Z</time></trkpt><trkpt lat="39.0444352" lon="16.1463136"><ele>135.0</ele><time>2026-04-12T07:43:42.519Z</time></trkpt><trkpt lat="39.0441572" lon="16.1461023"><ele>135.0</ele><time>2026-04-12T07:43:43.52Z</time></trkpt><trkpt lat="39.0438876" lon="16.1458727"><ele>137.0</ele><time>2026-04-12T07:43:44.533Z</time></trkpt><trkpt lat="39.0436289" lon="16.1456223"><ele>139.0</ele><time>2026-04-12T07:43:45.538Z</time></trkpt><trkpt lat="39.0433799" lon="16.1453546"><ele>143.5</ele><time>2026-04-12T07:43:46.527Z</time></trkpt><trkpt lat="39.0431408" lon="16.1450716"><ele>148.0</ele><time>2026-04-12T07:43:47.524Z</time></trkpt><trkpt lat="39.0429126" lon="16.1447726"><ele>148.0</ele><time>2026-04-12T07:43:48.517Z</time></trkpt><trkpt lat="39.0426954" lon="16.1444585"><ele>148.0</ele><time>2026-04-12T07:43:49.52Z</time></trkpt><trkpt lat="39.0424836" lon="16.1441431"><ele>154.5</ele><time>2026-04-12T07:43:50.526Z</time></trkpt><trkpt lat="39.0422942" lon="16.1437968"><ele>161.0</ele><time>2026-04-12T07:43:51.528Z</time></trkpt><trkpt lat="39.042114" lon="16.1434458"><ele>152.5</ele><time>2026-04-12T07:43:52.524Z</time></trkpt><trkpt lat="39.0419494" lon="16.1430825"><ele>144.0</ele><time>2026-04-12T07:43:53.531Z</time></trkpt><trkpt lat="39.0417968" lon="16.1427107"><ele>140.0</ele><time>2026-04-12T07:43:54.523Z</time></trkpt><trkpt lat="39.0416488" lon="16.1423358"><ele>136.0</ele><time>2026-04-12T07:43:55.529Z</time></trkpt><trkpt lat="39.0415084" lon="16.1419604"><ele>145.5</ele><time>2026-04-12T07:43:56.52Z</time></trkpt><trkpt lat="39.0413612" lon="16.1415847"><ele>155.0</ele><time>2026-04-12T07:43:57.534Z</time></trkpt><trkpt lat="39.0412026" lon="16.1412155"><ele>155.0</ele><time>2026-04-12T07:43:58.523Z</time></trkpt><trkpt lat="39.0410268" lon="16.1408582"><ele>155.0</ele><time>2026-04-12T07:43:59.53Z</time></trkpt><trkpt lat="39.0408351" lon="16.1405092"><ele>151.5</ele><time>2026-04-12T07:44:00.527Z</time></trkpt><trkpt lat="39.0406311" lon="16.1401695"><ele>148.0</ele><time>2026-04-12T07:44:01.532Z</time></trkpt><trkpt lat="39.0404157" lon="16.1398426"><ele>149.0</ele><time>2026-04-12T07:44:02.527Z</time></trkpt><trkpt lat="39.040184" lon="16.1395263"><ele>150.0</ele><time>2026-04-12T07:44:03.521Z</time></trkpt><trkpt lat="39.0399417" lon="16.1392217"><ele>139.0</ele><time>2026-04-12T07:44:04.523Z</time></trkpt><trkpt lat="39.03969" lon="16.138929"><ele>128.0</ele><time>2026-04-12T07:44:05.536Z</time></trkpt><trkpt lat="39.0394313" lon="16.1386453"><ele>128.0</ele><time>2026-04-12T07:44:06.528Z</time></trkpt><trkpt lat="39.0391684" lon="16.1383655"><ele>128.0</ele><time>2026-04-12T07:44:07.522Z</time></trkpt><trkpt lat="39.0389055" lon="16.1380885"><ele>130.5</ele><time>2026-04-12T07:44:08.525Z</time></trkpt><trkpt lat="39.0386425" lon="16.1378142"><ele>133.0</ele><time>2026-04-12T07:44:09.53Z</time></trkpt><trkpt lat="39.038377" lon="16.1375461"><ele>130.5</ele><time>2026-04-12T07:44:10.529Z</time></trkpt><trkpt lat="39.0381087" lon="16.1372883"><ele>128.0</ele><time>2026-04-12T07:44:11.538Z</time></trkpt><trkpt lat="39.0378397" lon="16.1370454"><ele>128.0</ele><time>2026-04-12T07:44:12.531Z</time></trkpt><trkpt lat="39.0375724" lon="16.1368242"><ele>128.0</ele><time>2026-04-12T07:44:13.53Z</time></trkpt><trkpt lat="39.0372986" lon="16.1366147"><ele>124.0</ele><time>2026-04-12T07:44:14.523Z</time></trkpt><trkpt lat="39.0370172" lon="16.1364168"><ele>120.0</ele><time>2026-04-12T07:44:15.522Z</time></trkpt><trkpt lat="39.0367292" lon="16.1362274"><ele>105.5</ele><time>2026-04-12T07:44:16.522Z</time></trkpt><trkpt lat="39.0364379" lon="16.1360418"><ele>91.0</ele><time>2026-04-12T07:44:17.533Z</time></trkpt><trkpt lat="39.0361445" lon="16.1358568"><ele>87.5</ele><time>2026-04-12T07:44:18.524Z</time></trkpt><trkpt lat="39.0358502" lon="16.1356713"><ele>84.0</ele><time>2026-04-12T07:44:19.524Z</time></trkpt><trkpt lat="39.0355564" lon="16.1354854"><ele>84.0</ele><time>2026-04-12T07:44:20.526Z</time></trkpt><trkpt lat="39.0352568" lon="16.1353012"><ele>84.0</ele><time>2026-04-12T07:44:21.531Z</time></trkpt><trkpt lat="39.0349615" lon="16.1351181"><ele>89.0</ele><time>2026-04-12T07:44:22.522Z</time></trkpt><trkpt lat="39.0346655" lon="16.1349359"><ele>94.0</ele><time>2026-04-12T07:44:23.527Z</time></trkpt><trkpt lat="39.034369" lon="16.1347503"><ele>106.0</ele><time>2026-04-12T07:44:24.522Z</time></trkpt><trkpt lat="39.0340724" lon="16.1345703"><ele>118.0</ele><time>2026-04-12T07:44:25.525Z</time></trkpt><trkpt lat="39.033773" lon="16.1343881"><ele>118.0</ele><time>2026-04-12T07:44:26.521Z</time></trkpt><trkpt lat="39.0334739" lon="16.1341927"><ele>118.0</ele><time>2026-04-12T07:44:27.529Z</time></trkpt><trkpt lat="39.033182" lon="16.1339815"><ele>114.0</ele><time>2026-04-12T07:44:28.532Z</time></trkpt><trkpt lat="39.0328969" lon="16.1337537"><ele>110.0</ele><time>2026-04-12T07:44:29.52Z</time></trkpt><trkpt lat="39.0326208" lon="16.133522"><ele>109.5</ele><time>2026-04-12T07:44:30.522Z</time></trkpt><trkpt lat="39.0323699" lon="16.1332631"><ele>109.0</ele><time>2026-04-12T07:44:31.532Z</time></trkpt><trkpt lat="39.0321281" lon="16.1329929"><ele>109.0</ele><time>2026-04-12T07:44:32.521Z</time></trkpt><trkpt lat="39.0319014" lon="16.1327036"><ele>109.0</ele><time>2026-04-12T07:44:33.522Z</time></trkpt><trkpt lat="39.0316869" lon="16.1323993"><ele>116.5</ele><time>2026-04-12T07:44:34.545Z</time></trkpt><trkpt lat="39.0314881" lon="16.1320874"><ele>124.0</ele><time>2026-04-12T07:44:35.525Z</time></trkpt><trkpt lat="39.0312982" lon="16.1317652"><ele>116.5</ele><time>2026-04-12T07:44:36.514Z</time></trkpt><trkpt lat="39.0311176" lon="16.1314339"><ele>109.0</ele><time>2026-04-12T07:44:37.529Z</time></trkpt><trkpt lat="39.030939" lon="16.131097"><ele>112.5</ele><time>2026-04-12T07:44:38.518Z</time></trkpt><trkpt lat="39.0307599" lon="16.1307565"><ele>116.0</ele><time>2026-04-12T07:44:39.517Z</time></trkpt><trkpt lat="39.0305797" lon="16.1304164"><ele>116.0</ele><time>2026-04-12T07:44:40.523Z</time></trkpt><trkpt lat="39.0304007" lon="16.1300759"><ele>116.0</ele><time>2026-04-12T07:44:41.522Z</time></trkpt><trkpt lat="39.030219" lon="16.1297397"><ele>109.0</ele><time>2026-04-12T07:44:42.531Z</time></trkpt><trkpt lat="39.0300448" lon="16.1293981"><ele>102.0</ele><time>2026-04-12T07:44:43.524Z</time></trkpt><trkpt lat="39.0298642" lon="16.1290606"><ele>109.0</ele><time>2026-04-12T07:44:44.524Z</time></trkpt><trkpt lat="39.0296779" lon="16.1287265"><ele>116.0</ele><time>2026-04-12T07:44:45.521Z</time></trkpt><trkpt lat="39.0294868" lon="16.128394"><ele>120.5</ele><time>2026-04-12T07:44:46.525Z</time></trkpt><trkpt lat="39.0292865" lon="16.1280664"><ele>125.0</ele><time>2026-04-12T07:44:47.523Z</time></trkpt><trkpt lat="39.029083" lon="16.1277393"><ele>125.0</ele><time>2026-04-12T07:44:48.515Z</time></trkpt><trkpt lat="39.028873" lon="16.1274221"><ele>125.0</ele><time>2026-04-12T07:44:49.522Z</time></trkpt><trkpt lat="39.0286597" lon="16.1270962"><ele>68.0</ele><time>2026-04-12T07:44:50.529Z</time></trkpt><trkpt lat="39.0220404" lon="16.1224085"><ele>61.5</ele><time>2026-04-12T07:45:13.495Z</time></trkpt><trkpt lat="39.0218361" lon="16.1222103"><ele>55.0</ele><time>2026-04-12T07:45:14.533Z</time></trkpt><trkpt lat="39.0215428" lon="16.122096"><ele>55.0</ele><time>2026-04-12T07:45:15.524Z</time></trkpt><trkpt lat="39.0212542" lon="16.1219918"><ele>55.0</ele><time>2026-04-12T07:45:16.53Z</time></trkpt><trkpt lat="39.0209587" lon="16.1218972"><ele>55.5</ele><time>2026-04-12T07:45:17.527Z</time></trkpt><trkpt lat="39.0206688" lon="16.121831"><ele>56.0</ele><time>2026-04-12T07:45:18.527Z</time></trkpt><trkpt lat="39.0203802" lon="16.1217837"><ele>56.0</ele><time>2026-04-12T07:45:19.525Z</time></trkpt><trkpt lat="39.0200936" lon="16.1217493"><ele>56.0</ele><time>2026-04-12T07:45:20.534Z</time></trkpt><trkpt lat="39.019813" lon="16.1217309"><ele>56.0</ele><time>2026-04-12T07:45:21.537Z</time></trkpt><trkpt lat="39.0195318" lon="16.1217277"><ele>56.0</ele><time>2026-04-12T07:45:22.516Z</time></trkpt><trkpt lat="39.0192548" lon="16.1217398"><ele>55.0</ele><time>2026-04-12T07:45:23.519Z</time></trkpt><trkpt lat="39.0189785" lon="16.1217644"><ele>54.0</ele><time>2026-04-12T07:45:24.524Z</time></trkpt><trkpt lat="39.0187057" lon="16.1218021"><ele>54.0</ele><time>2026-04-12T07:45:25.521Z</time></trkpt><trkpt lat="39.0184342" lon="16.1218499"><ele>54.0</ele><time>2026-04-12T07:45:26.524Z</time></trkpt><trkpt lat="39.0181632" lon="16.1219124"><ele>48.5</ele><time>2026-04-12T07:45:27.521Z</time></trkpt><trkpt lat="39.0178999" lon="16.1219929"><ele>43.0</ele><time>2026-04-12T07:45:28.523Z</time></trkpt><trkpt lat="39.0176384" lon="16.1220886"><ele>33.0</ele><time>2026-04-12T07:45:29.528Z</time></trkpt><trkpt lat="39.0173725" lon="16.1221987"><ele>23.0</ele><time>2026-04-12T07:45:30.535Z</time></trkpt><trkpt lat="39.0171183" lon="16.1223138"><ele>25.0</ele><time>2026-04-12T07:45:31.532Z</time></trkpt><trkpt lat="39.0168657" lon="16.122445"><ele>27.0</ele><time>2026-04-12T07:45:32.525Z</time></trkpt><trkpt lat="39.0166199" lon="16.1225956"><ele>27.0</ele><time>2026-04-12T07:45:33.523Z</time></trkpt><trkpt lat="39.0163747" lon="16.1227575"><ele>27.0</ele><time>2026-04-12T07:45:34.532Z</time></trkpt><trkpt lat="39.0161265" lon="16.1229195"><ele>27.0</ele><time>2026-04-12T07:45:35.529Z</time></trkpt><trkpt lat="39.0158808" lon="16.1230848"><ele>27.0</ele><time>2026-04-12T07:45:36.533Z</time></trkpt><trkpt lat="39.0156325" lon="16.1232451"><ele>32.0</ele><time>2026-04-12T07:45:37.523Z</time></trkpt><trkpt lat="39.0153751" lon="16.1233926"><ele>37.0</ele><time>2026-04-12T07:45:38.535Z</time></trkpt><trkpt lat="39.0151254" lon="16.1235365"><ele>35.0</ele><time>2026-04-12T07:45:39.529Z</time></trkpt><trkpt lat="39.0148665" lon="16.1236652"><ele>33.0</ele><time>2026-04-12T07:45:40.529Z</time></trkpt><trkpt lat="39.0146055" lon="16.1237905"><ele>33.0</ele><time>2026-04-12T07:45:41.534Z</time></trkpt><trkpt lat="39.0143494" lon="16.1239088"><ele>33.0</ele><time>2026-04-12T07:45:42.538Z</time></trkpt><trkpt lat="39.0140961" lon="16.1240224"><ele>29.5</ele><time>2026-04-12T07:45:43.526Z</time></trkpt><trkpt lat="39.0138446" lon="16.1241323"><ele>26.0</ele><time>2026-04-12T07:45:44.524Z</time></trkpt><trkpt lat="39.0135931" lon="16.124241"><ele>26.0</ele><time>2026-04-12T07:45:45.539Z</time></trkpt><trkpt lat="39.0133632" lon="16.1243686"><ele>26.0</ele><time>2026-04-12T07:45:46.533Z</time></trkpt><trkpt lat="39.0131129" lon="16.1244882"><ele>18.5</ele><time>2026-04-12T07:45:47.535Z</time></trkpt><trkpt lat="39.0128753" lon="16.124623"><ele>11.0</ele><time>2026-04-12T07:45:48.522Z</time></trkpt><trkpt lat="39.0126423" lon="16.1247648"><ele>12.5</ele><time>2026-04-12T07:45:49.545Z</time></trkpt><trkpt lat="39.0124157" lon="16.1249211"><ele>14.0</ele><time>2026-04-12T07:45:50.526Z</time></trkpt><trkpt lat="39.012198" lon="16.1250955"><ele>14.0</ele><time>2026-04-12T07:45:51.521Z</time></trkpt><trkpt lat="39.0119796" lon="16.1252807"><ele>14.0</ele><time>2026-04-12T07:45:52.532Z</time></trkpt><trkpt lat="39.0117668" lon="16.1254691"><ele>13.0</ele><time>2026-04-12T07:45:53.532Z</time></trkpt><trkpt lat="39.0115576" lon="16.125666"><ele>12.0</ele><time>2026-04-12T07:45:54.518Z</time></trkpt><trkpt lat="39.0113541" lon="16.1258735"><ele>12.0</ele><time>2026-04-12T07:45:55.532Z</time></trkpt><trkpt lat="39.0111505" lon="16.1260962"><ele>12.0</ele><time>2026-04-12T07:45:56.519Z</time></trkpt><trkpt lat="39.0109595" lon="16.1263209"><ele>10.0</ele><time>2026-04-12T07:45:57.529Z</time></trkpt><trkpt lat="39.0107812" lon="16.1265515"><ele>8.0</ele><time>2026-04-12T07:45:58.529Z</time></trkpt><trkpt lat="39.0106156" lon="16.126781"><ele>8.0</ele><time>2026-04-12T07:45:59.527Z</time></trkpt><trkpt lat="39.010459" lon="16.1270095"><ele>8.0</ele><time>2026-04-12T07:46:00.52Z</time></trkpt><trkpt lat="39.0102987" lon="16.1272598"><ele>13.5</ele><time>2026-04-12T07:46:01.529Z</time></trkpt><trkpt lat="39.0101429" lon="16.1275273"><ele>19.0</ele><time>2026-04-12T07:46:02.527Z</time></trkpt><trkpt lat="39.0099952" lon="16.1278056"><ele>14.0</ele><time>2026-04-12T07:46:03.526Z</time></trkpt><trkpt lat="39.0098511" lon="16.1280811"><ele>9.0</ele><time>2026-04-12T07:46:04.524Z</time></trkpt><trkpt lat="39.0097177" lon="16.1283573"><ele>9.0</ele><time>2026-04-12T07:46:05.531Z</time></trkpt><trkpt lat="39.00959" lon="16.1286357"><ele>9.0</ele><time>2026-04-12T07:46:06.534Z</time></trkpt><trkpt lat="39.0094695" lon="16.1289163"><ele>12.0</ele><time>2026-04-12T07:46:07.528Z</time></trkpt><trkpt lat="39.0093545" lon="16.1291966"><ele>15.0</ele><time>2026-04-12T07:46:08.529Z</time></trkpt><trkpt lat="39.0092381" lon="16.1294733"><ele>10.0</ele><time>2026-04-12T07:46:09.524Z</time></trkpt><trkpt lat="39.0091194" lon="16.1297484"><ele>5.0</ele><time>2026-04-12T07:46:10.524Z</time></trkpt><trkpt lat="39.0089994" lon="16.1300239"><ele>5.0</ele><time>2026-04-12T07:46:11.529Z</time></trkpt><trkpt lat="39.0088812" lon="16.1303017"><ele>5.0</ele><time>2026-04-12T07:46:12.518Z</time></trkpt><trkpt lat="39.0087515" lon="16.1305755"><ele>7.0</ele><time>2026-04-12T07:46:13.522Z</time></trkpt><trkpt lat="39.0086097" lon="16.1308416"><ele>9.0</ele><time>2026-04-12T07:46:14.553Z</time></trkpt><trkpt lat="39.0084593" lon="16.1310999"><ele>9.0</ele><time>2026-04-12T07:46:15.53Z</time></trkpt><trkpt lat="39.008304" lon="16.131351"><ele>9.0</ele><time>2026-04-12T07:46:16.515Z</time></trkpt><trkpt lat="39.0081424" lon="16.1315908"><ele>9.0</ele><time>2026-04-12T07:46:17.527Z</time></trkpt><trkpt lat="39.0079726" lon="16.1318205"><ele>9.0</ele><time>2026-04-12T07:46:18.527Z</time></trkpt><trkpt lat="39.0077966" lon="16.1320445"><ele>9.0</ele><time>2026-04-12T07:46:19.516Z</time></trkpt><trkpt lat="39.0076133" lon="16.1322574"><ele>9.0</ele><time>2026-04-12T07:46:20.521Z</time></trkpt><trkpt lat="39.0074225" lon="16.1324596"><ele>8.0</ele><time>2026-04-12T07:46:21.522Z</time></trkpt><trkpt lat="39.0072274" lon="16.1326549"><ele>7.0</ele><time>2026-04-12T07:46:22.525Z</time></trkpt><trkpt lat="39.0070265" lon="16.1328432"><ele>7.0</ele><time>2026-04-12T07:46:23.52Z</time></trkpt><trkpt lat="39.006819" lon="16.1330202"><ele>7.0</ele><time>2026-04-12T07:46:24.53Z</time></trkpt><trkpt lat="39.0066036" lon="16.133182"><ele>7.0</ele><time>2026-04-12T07:46:25.529Z</time></trkpt><trkpt lat="39.0063826" lon="16.1333333"><ele>7.0</ele><time>2026-04-12T07:46:26.519Z</time></trkpt><trkpt lat="39.0061557" lon="16.1334735"><ele>7.0</ele><time>2026-04-12T07:46:27.524Z</time></trkpt><trkpt lat="39.005925" lon="16.1336037"><ele>7.0</ele><time>2026-04-12T07:46:28.526Z</time></trkpt><trkpt lat="39.0056915" lon="16.1337238"><ele>6.0</ele><time>2026-04-12T07:46:29.539Z</time></trkpt><trkpt lat="39.0054535" lon="16.1338294"><ele>5.0</ele><time>2026-04-12T07:46:30.544Z</time></trkpt><trkpt lat="39.0052139" lon="16.1339222"><ele>4.5</ele><time>2026-04-12T07:46:31.521Z</time></trkpt><trkpt lat="39.0049732" lon="16.1340038"><ele>4.0</ele><time>2026-04-12T07:46:32.533Z</time></trkpt><trkpt lat="39.0047328" lon="16.1340793"><ele>5.0</ele><time>2026-04-12T07:46:33.522Z</time></trkpt><trkpt lat="39.0044925" lon="16.134133"><ele>6.0</ele><time>2026-04-12T07:46:34.523Z</time></trkpt><trkpt lat="39.0042655" lon="16.134192"><ele>5.0</ele><time>2026-04-12T07:46:35.52Z</time></trkpt><trkpt lat="39.0040305" lon="16.1342476"><ele>4.0</ele><time>2026-04-12T07:46:36.524Z</time></trkpt><trkpt lat="39.003802" lon="16.1343053"><ele>4.0</ele><time>2026-04-12T07:46:37.529Z</time></trkpt><trkpt lat="39.0035755" lon="16.134366"><ele>4.0</ele><time>2026-04-12T07:46:38.528Z</time></trkpt><trkpt lat="39.0033568" lon="16.1344223"><ele>4.333333333333333</ele><time>2026-04-12T07:46:39.526Z</time></trkpt><trkpt lat="39.0031361" lon="16.1344769"><ele>4.666666666666667</ele><time>2026-04-12T07:46:40.534Z</time></trkpt><trkpt lat="39.0029175" lon="16.1345318"><ele>5.0</ele><time>2026-04-12T07:46:41.53Z</time></trkpt><trkpt lat="39.002697" lon="16.1345823"><ele>5.0</ele><time>2026-04-12T07:46:42.529Z</time></trkpt><trkpt lat="39.0024779" lon="16.134634"><ele>5.0</ele><time>2026-04-12T07:46:43.535Z</time></trkpt><trkpt lat="39.0022586" lon="16.1346834"><ele>5.0</ele><time>2026-04-12T07:46:44.524Z</time></trkpt><trkpt lat="39.0020403" lon="16.1347344"><ele>5.0</ele><time>2026-04-12T07:46:45.524Z</time></trkpt><trkpt lat="39.0018229" lon="16.1347897"><ele>5.0</ele><time>2026-04-12T07:46:46.539Z</time></trkpt><trkpt lat="39.0016038" lon="16.1348451"><ele>5.0</ele><time>2026-04-12T07:46:47.531Z</time></trkpt><trkpt lat="39.0013808" lon="16.1349023"><ele>4.5</ele><time>2026-04-12T07:46:48.52Z</time></trkpt><trkpt lat="39.0011509" lon="16.13496"><ele>4.0</ele><time>2026-04-12T07:46:49.541Z</time></trkpt><trkpt lat="39.0009165" lon="16.1350153"><ele>5.0</ele><time>2026-04-12T07:46:50.529Z</time></trkpt><trkpt lat="39.0006802" lon="16.1350712"><ele>6.0</ele><time>2026-04-12T07:46:51.52Z</time></trkpt><trkpt lat="39.0004364" lon="16.135131"><ele>6.0</ele><time>2026-04-12T07:46:52.534Z</time></trkpt><trkpt lat="39.0001914" lon="16.1351912"><ele>6.0</ele><time>2026-04-12T07:46:53.523Z</time></trkpt><trkpt lat="38.9999382" lon="16.135256"><ele>6.0</ele><time>2026-04-12T07:46:54.523Z</time></trkpt><trkpt lat="38.9996853" lon="16.1353204"><ele>6.0</ele><time>2026-04-12T07:46:55.521Z</time></trkpt><trkpt lat="38.9994405" lon="16.13538"><ele>6.0</ele><time>2026-04-12T07:46:56.528Z</time></trkpt><trkpt lat="38.9992005" lon="16.1354396"><ele>6.0</ele><time>2026-04-12T07:46:57.521Z</time></trkpt><trkpt lat="38.9989628" lon="16.1354963"><ele>6.0</ele><time>2026-04-12T07:46:58.525Z</time></trkpt><trkpt lat="38.9987275" lon="16.1355515"><ele>6.0</ele><time>2026-04-12T07:46:59.533Z</time></trkpt><trkpt lat="38.9984938" lon="16.1356073"><ele>7.0</ele><time>2026-04-12T07:47:00.53Z</time></trkpt><trkpt lat="38.9982622" lon="16.1356609"><ele>8.0</ele><time>2026-04-12T07:47:01.519Z</time></trkpt><trkpt lat="38.9980329" lon="16.1357144"><ele>7.0</ele><time>2026-04-12T07:47:02.528Z</time></trkpt><trkpt lat="38.9978043" lon="16.1357697"><ele>6.0</ele><time>2026-04-12T07:47:03.534Z</time></trkpt><trkpt lat="38.9975741" lon="16.1358261"><ele>6.5</ele><time>2026-04-12T07:47:04.524Z</time></trkpt><trkpt lat="38.9973447" lon="16.1358813"><ele>7.0</ele><time>2026-04-12T07:47:05.538Z</time></trkpt><trkpt lat="38.9971191" lon="16.1359352"><ele>7.0</ele><time>2026-04-12T07:47:06.537Z</time></trkpt><trkpt lat="38.9968942" lon="16.1359883"><ele>7.0</ele><time>2026-04-12T07:47:07.523Z</time></trkpt><trkpt lat="38.9966714" lon="16.1360394"><ele>7.666666666666667</ele><time>2026-04-12T07:47:08.522Z</time></trkpt><trkpt lat="38.9964534" lon="16.1360923"><ele>8.333333333333334</ele><time>2026-04-12T07:47:09.527Z</time></trkpt><trkpt lat="38.9962368" lon="16.1361477"><ele>9.0</ele><time>2026-04-12T07:47:10.529Z</time></trkpt><trkpt lat="38.9960192" lon="16.1362077"><ele>10.5</ele><time>2026-04-12T07:47:11.529Z</time></trkpt><trkpt lat="38.9958008" lon="16.1362734"><ele>12.0</ele><time>2026-04-12T07:47:12.531Z</time></trkpt><trkpt lat="38.9955814" lon="16.1363429"><ele>12.0</ele><time>2026-04-12T07:47:13.527Z</time></trkpt><trkpt lat="38.9953622" lon="16.1364181"><ele>12.0</ele><time>2026-04-12T07:47:14.527Z</time></trkpt><trkpt lat="38.9951443" lon="16.1364991"><ele>16.5</ele><time>2026-04-12T07:47:15.536Z</time></trkpt><trkpt lat="38.9949277" lon="16.1365871"><ele>21.0</ele><time>2026-04-12T07:47:16.525Z</time></trkpt><trkpt lat="38.9947103" lon="16.1366807"><ele>21.0</ele><time>2026-04-12T07:47:17.527Z</time></trkpt><trkpt lat="38.9944938" lon="16.1367807"><ele>21.0</ele><time>2026-04-12T07:47:18.529Z</time></trkpt><trkpt lat="38.9942753" lon="16.1368871"><ele>21.0</ele><time>2026-04-12T07:47:19.536Z</time></trkpt><trkpt lat="38.9940548" lon="16.1369993"><ele>21.0</ele><time>2026-04-12T07:47:20.518Z</time></trkpt><trkpt lat="38.9938324" lon="16.1371125"><ele>21.0</ele><time>2026-04-12T07:47:21.533Z</time></trkpt><trkpt lat="38.9936104" lon="16.1372237"><ele>21.0</ele><time>2026-04-12T07:47:22.534Z</time></trkpt><trkpt lat="38.9933893" lon="16.1373338"><ele>19.0</ele><time>2026-04-12T07:47:23.536Z</time></trkpt><trkpt lat="38.9931676" lon="16.1374445"><ele>17.0</ele><time>2026-04-12T07:47:24.528Z</time></trkpt><trkpt lat="38.9929431" lon="16.1375547"><ele>17.0</ele><time>2026-04-12T07:47:25.531Z</time></trkpt><trkpt lat="38.9927162" lon="16.1376648"><ele>17.0</ele><time>2026-04-12T07:47:26.533Z</time></trkpt><trkpt lat="38.9924882" lon="16.1377764"><ele>17.0</ele><time>2026-04-12T07:47:27.524Z</time></trkpt><trkpt lat="38.9922607" lon="16.1378889"><ele>17.0</ele><time>2026-04-12T07:47:28.529Z</time></trkpt><trkpt lat="38.9920349" lon="16.1380046"><ele>17.0</ele><time>2026-04-12T07:47:29.533Z</time></trkpt><trkpt lat="38.9918092" lon="16.1381238"><ele>17.0</ele><time>2026-04-12T07:47:30.522Z</time></trkpt><trkpt lat="38.9915825" lon="16.138244"><ele>17.5</ele><time>2026-04-12T07:47:31.523Z</time></trkpt><trkpt lat="38.991354" lon="16.138363"><ele>18.0</ele><time>2026-04-12T07:47:32.53Z</time></trkpt><trkpt lat="38.9911176" lon="16.1384818"><ele>18.0</ele><time>2026-04-12T07:47:33.528Z</time></trkpt><trkpt lat="38.9908753" lon="16.1386026"><ele>18.0</ele><time>2026-04-12T07:47:34.523Z</time></trkpt><trkpt lat="38.9906291" lon="16.1387249"><ele>16.5</ele><time>2026-04-12T07:47:35.534Z</time></trkpt><trkpt lat="38.9903801" lon="16.1388479"><ele>15.0</ele><time>2026-04-12T07:47:36.541Z</time></trkpt><trkpt lat="38.9901314" lon="16.1389713"><ele>19.5</ele><time>2026-04-12T07:47:37.534Z</time></trkpt><trkpt lat="38.9898844" lon="16.139096"><ele>24.0</ele><time>2026-04-12T07:47:38.524Z</time></trkpt><trkpt lat="38.9896407" lon="16.1392229"><ele>24.0</ele><time>2026-04-12T07:47:39.538Z</time></trkpt><trkpt lat="38.9894016" lon="16.1393535"><ele>24.0</ele><time>2026-04-12T07:47:40.534Z</time></trkpt><trkpt lat="38.9891669" lon="16.1394896"><ele>22.5</ele><time>2026-04-12T07:47:41.533Z</time></trkpt><trkpt lat="38.9889377" lon="16.1396337"><ele>21.0</ele><time>2026-04-12T07:47:42.535Z</time></trkpt><trkpt lat="38.9887144" lon="16.1397881"><ele>26.0</ele><time>2026-04-12T07:47:43.525Z</time></trkpt><trkpt lat="38.9884966" lon="16.1399504"><ele>31.0</ele><time>2026-04-12T07:47:44.526Z</time></trkpt><trkpt lat="38.9882836" lon="16.1401182"><ele>31.0</ele><time>2026-04-12T07:47:45.542Z</time></trkpt><trkpt lat="38.9880748" lon="16.1402951"><ele>31.0</ele><time>2026-04-12T07:47:46.523Z</time></trkpt><trkpt lat="38.9878725" lon="16.1404824"><ele>31.0</ele><time>2026-04-12T07:47:47.538Z</time></trkpt><trkpt lat="38.9876748" lon="16.1406745"><ele>31.0</ele><time>2026-04-12T07:47:48.523Z</time></trkpt><trkpt lat="38.9874809" lon="16.1408709"><ele>34.0</ele><time>2026-04-12T07:47:49.534Z</time></trkpt><trkpt lat="38.9872896" lon="16.1410704"><ele>37.0</ele><time>2026-04-12T07:47:50.536Z</time></trkpt><trkpt lat="38.9871009" lon="16.1412721"><ele>37.0</ele><time>2026-04-12T07:47:51.524Z</time></trkpt><trkpt lat="38.9869148" lon="16.1414723"><ele>37.0</ele><time>2026-04-12T07:47:52.535Z</time></trkpt><trkpt lat="38.9867268" lon="16.1416598"><ele>34.0</ele><time>2026-04-12T07:47:53.521Z</time></trkpt><trkpt lat="38.9865341" lon="16.1418568"><ele>31.0</ele><time>2026-04-12T07:47:54.517Z</time></trkpt><trkpt lat="38.9863415" lon="16.1420575"><ele>31.0</ele><time>2026-04-12T07:47:55.518Z</time></trkpt><trkpt lat="38.9861475" lon="16.1422538"><ele>31.0</ele><time>2026-04-12T07:47:56.533Z</time></trkpt><trkpt lat="38.985948" lon="16.1424461"><ele>30.5</ele><time>2026-04-12T07:47:57.528Z</time></trkpt><trkpt lat="38.9857426" lon="16.1426326"><ele>30.0</ele><time>2026-04-12T07:47:58.536Z</time></trkpt><trkpt lat="38.9855325" lon="16.142812"><ele>30.0</ele><time>2026-04-12T07:47:59.533Z</time></trkpt><trkpt lat="38.9853152" lon="16.1429799"><ele>30.0</ele><time>2026-04-12T07:48:00.526Z</time></trkpt><trkpt lat="38.9850909" lon="16.1431402"><ele>30.5</ele><time>2026-04-12T07:48:01.535Z</time></trkpt><trkpt lat="38.9848623" lon="16.1432903"><ele>31.0</ele><time>2026-04-12T07:48:02.528Z</time></trkpt><trkpt lat="38.9846349" lon="16.1434368"><ele>31.0</ele><time>2026-04-12T07:48:03.523Z</time></trkpt><trkpt lat="38.9843966" lon="16.1435736"><ele>31.0</ele><time>2026-04-12T07:48:04.534Z</time></trkpt><trkpt lat="38.9841582" lon="16.1437051"><ele>30.0</ele><time>2026-04-12T07:48:05.534Z</time></trkpt><trkpt lat="38.9839156" lon="16.1438237"><ele>29.0</ele><time>2026-04-12T07:48:06.535Z</time></trkpt><trkpt lat="38.983668" lon="16.1439364"><ele>29.0</ele><time>2026-04-12T07:48:07.521Z</time></trkpt><trkpt lat="38.9834156" lon="16.1440388"><ele>29.0</ele><time>2026-04-12T07:48:08.532Z</time></trkpt><trkpt lat="38.9831568" lon="16.1441289"><ele>29.0</ele><time>2026-04-12T07:48:09.539Z</time></trkpt><trkpt lat="38.9828955" lon="16.1442101"><ele>29.0</ele><time>2026-04-12T07:48:10.523Z</time></trkpt><trkpt lat="38.9826305" lon="16.1442767"><ele>27.5</ele><time>2026-04-12T07:48:11.519Z</time></trkpt><trkpt lat="38.9823614" lon="16.1443318"><ele>26.0</ele><time>2026-04-12T07:48:12.528Z</time></trkpt><trkpt lat="38.9820916" lon="16.1443781"><ele>26.0</ele><time>2026-04-12T07:48:13.534Z</time></trkpt><trkpt lat="38.9818184" lon="16.1444208"><ele>26.0</ele><time>2026-04-12T07:48:14.532Z</time></trkpt><trkpt lat="38.9815455" lon="16.1444582"><ele>23.5</ele><time>2026-04-12T07:48:15.522Z</time></trkpt><trkpt lat="38.9812697" lon="16.1444908"><ele>21.0</ele><time>2026-04-12T07:48:16.532Z</time></trkpt><trkpt lat="38.980994" lon="16.1445172"><ele>20.5</ele><time>2026-04-12T07:48:17.54Z</time></trkpt><trkpt lat="38.9807203" lon="16.144543"><ele>20.0</ele><time>2026-04-12T07:48:18.519Z</time></trkpt><trkpt lat="38.9804458" lon="16.1445734"><ele>20.0</ele><time>2026-04-12T07:48:19.531Z</time></trkpt><trkpt lat="38.9801738" lon="16.1446097"><ele>20.0</ele><time>2026-04-12T07:48:20.539Z</time></trkpt><trkpt lat="38.9799052" lon="16.1446548"><ele>19.0</ele><time>2026-04-12T07:48:21.53Z</time></trkpt><trkpt lat="38.979642" lon="16.1447118"><ele>18.0</ele><time>2026-04-12T07:48:22.528Z</time></trkpt><trkpt lat="38.9793841" lon="16.1447847"><ele>19.0</ele><time>2026-04-12T07:48:23.54Z</time></trkpt><trkpt lat="38.9791317" lon="16.1448787"><ele>20.0</ele><time>2026-04-12T07:48:24.529Z</time></trkpt><trkpt lat="38.9788808" lon="16.1449888"><ele>24.5</ele><time>2026-04-12T07:48:25.529Z</time></trkpt><trkpt lat="38.9786301" lon="16.1451101"><ele>29.0</ele><time>2026-04-12T07:48:26.53Z</time></trkpt><trkpt lat="38.9783835" lon="16.1452478"><ele>28.5</ele><time>2026-04-12T07:48:27.537Z</time></trkpt><trkpt lat="38.978142" lon="16.1454003"><ele>28.0</ele><time>2026-04-12T07:48:28.529Z</time></trkpt><trkpt lat="38.977907" lon="16.145566"><ele>28.5</ele><time>2026-04-12T07:48:29.536Z</time></trkpt><trkpt lat="38.9776782" lon="16.1457436"><ele>29.0</ele><time>2026-04-12T07:48:30.525Z</time></trkpt><trkpt lat="38.9774557" lon="16.1459327"><ele>29.0</ele><time>2026-04-12T07:48:31.527Z</time></trkpt><trkpt lat="38.9772404" lon="16.1461323"><ele>29.0</ele><time>2026-04-12T07:48:32.525Z</time></trkpt><trkpt lat="38.9770319" lon="16.1463405"><ele>27.0</ele><time>2026-04-12T07:48:33.539Z</time></trkpt><trkpt lat="38.9768297" lon="16.146559"><ele>25.0</ele><time>2026-04-12T07:48:34.533Z</time></trkpt><trkpt lat="38.976636" lon="16.1467862"><ele>25.0</ele><time>2026-04-12T07:48:35.537Z</time></trkpt><trkpt lat="38.976451" lon="16.1470246"><ele>25.0</ele><time>2026-04-12T07:48:36.521Z</time></trkpt><trkpt lat="38.9762735" lon="16.1472751"><ele>28.5</ele><time>2026-04-12T07:48:37.53Z</time></trkpt><trkpt lat="38.9760973" lon="16.1475477"><ele>32.0</ele><time>2026-04-12T07:48:38.533Z</time></trkpt><trkpt lat="38.9759222" lon="16.147844"><ele>32.0</ele><time>2026-04-12T07:48:39.527Z</time></trkpt><trkpt lat="38.9757509" lon="16.1481533"><ele>32.0</ele><time>2026-04-12T07:48:40.533Z</time></trkpt><trkpt lat="38.9755852" lon="16.148468"><ele>32.0</ele><time>2026-04-12T07:48:41.531Z</time></trkpt><trkpt lat="38.9754255" lon="16.1487893"><ele>32.0</ele><time>2026-04-12T07:48:42.529Z</time></trkpt><trkpt lat="38.9752673" lon="16.1491122"><ele>32.0</ele><time>2026-04-12T07:48:43.537Z</time></trkpt><trkpt lat="38.9751049" lon="16.1494319"><ele>32.0</ele><time>2026-04-12T07:48:44.524Z</time></trkpt><trkpt lat="38.9749369" lon="16.1497477"><ele>25.0</ele><time>2026-04-12T07:48:45.535Z</time></trkpt><trkpt lat="38.9747618" lon="16.1500551"><ele>18.0</ele><time>2026-04-12T07:48:46.522Z</time></trkpt><trkpt lat="38.974577" lon="16.1503517"><ele>18.0</ele><time>2026-04-12T07:48:47.548Z</time></trkpt><trkpt lat="38.9743828" lon="16.1506344"><ele>18.0</ele><time>2026-04-12T07:48:48.532Z</time></trkpt><trkpt lat="38.9741816" lon="16.1509047"><ele>15.5</ele><time>2026-04-12T07:48:49.543Z</time></trkpt><trkpt lat="38.9739738" lon="16.1511622"><ele>13.0</ele><time>2026-04-12T07:48:50.54Z</time></trkpt><trkpt lat="38.9737596" lon="16.151404"><ele>13.5</ele><time>2026-04-12T07:48:51.539Z</time></trkpt><trkpt lat="38.973538" lon="16.1516279"><ele>14.0</ele><time>2026-04-12T07:48:52.542Z</time></trkpt><trkpt lat="38.9733109" lon="16.1518354"><ele>14.0</ele><time>2026-04-12T07:48:53.534Z</time></trkpt><trkpt lat="38.9730811" lon="16.1520275"><ele>14.0</ele><time>2026-04-12T07:48:54.533Z</time></trkpt><trkpt lat="38.9728494" lon="16.1522048"><ele>14.0</ele><time>2026-04-12T07:48:55.527Z</time></trkpt><trkpt lat="38.9726152" lon="16.1523648"><ele>14.0</ele><time>2026-04-12T07:48:56.535Z</time></trkpt><trkpt lat="38.9723778" lon="16.1525119"><ele>15.0</ele><time>2026-04-12T07:48:57.536Z</time></trkpt><trkpt lat="38.9721346" lon="16.1526508"><ele>16.0</ele><time>2026-04-12T07:48:58.534Z</time></trkpt><trkpt lat="38.9718863" lon="16.1527799"><ele>14.5</ele><time>2026-04-12T07:48:59.528Z</time></trkpt><trkpt lat="38.9716333" lon="16.1528967"><ele>13.0</ele><time>2026-04-12T07:49:00.535Z</time></trkpt><trkpt lat="38.9713773" lon="16.1530075"><ele>13.0</ele><time>2026-04-12T07:49:01.538Z</time></trkpt><trkpt lat="38.9711212" lon="16.1531172"><ele>13.0</ele><time>2026-04-12T07:49:02.529Z</time></trkpt><trkpt lat="38.9708648" lon="16.153226"><ele>14.5</ele><time>2026-04-12T07:49:03.529Z</time></trkpt><trkpt lat="38.9706068" lon="16.153334"><ele>16.0</ele><time>2026-04-12T07:49:04.529Z</time></trkpt><trkpt lat="38.9703486" lon="16.1534422"><ele>16.0</ele><time>2026-04-12T07:49:05.537Z</time></trkpt><trkpt lat="38.9700908" lon="16.1535508"><ele>16.0</ele><time>2026-04-12T07:49:06.535Z</time></trkpt><trkpt lat="38.9698323" lon="16.1536593"><ele>15.5</ele><time>2026-04-12T07:49:07.534Z</time></trkpt><trkpt lat="38.9695727" lon="16.1537678"><ele>15.0</ele><time>2026-04-12T07:49:08.533Z</time></trkpt><trkpt lat="38.9693131" lon="16.1538774"><ele>15.0</ele><time>2026-04-12T07:49:09.538Z</time></trkpt><trkpt lat="38.9690528" lon="16.1539871"><ele>15.0</ele><time>2026-04-12T07:49:10.537Z</time></trkpt><trkpt lat="38.9687923" lon="16.1540971"><ele>15.0</ele><time>2026-04-12T07:49:11.523Z</time></trkpt><trkpt lat="38.9685327" lon="16.1542039"><ele>15.0</ele><time>2026-04-12T07:49:12.537Z</time></trkpt><trkpt lat="38.9682772" lon="16.1543039"><ele>13.5</ele><time>2026-04-12T07:49:13.532Z</time></trkpt><trkpt lat="38.9680229" lon="16.1544007"><ele>12.0</ele><time>2026-04-12T07:49:14.519Z</time></trkpt><trkpt lat="38.9677644" lon="16.1544957"><ele>11.0</ele><time>2026-04-12T07:49:15.544Z</time></trkpt><trkpt lat="38.9675038" lon="16.1545889"><ele>10.0</ele><time>2026-04-12T07:49:16.529Z</time></trkpt><trkpt lat="38.9672406" lon="16.1546785"><ele>10.0</ele><time>2026-04-12T07:49:17.529Z</time></trkpt><trkpt lat="38.9669754" lon="16.1547633"><ele>10.0</ele><time>2026-04-12T07:49:18.527Z</time></trkpt><trkpt lat="38.9667078" lon="16.15484"><ele>14.0</ele><time>2026-04-12T07:49:19.533Z</time></trkpt><trkpt lat="38.9664263" lon="16.1548924"><ele>18.0</ele><time>2026-04-12T07:49:20.537Z</time></trkpt><trkpt lat="38.9661511" lon="16.1549467"><ele>18.0</ele><time>2026-04-12T07:49:21.538Z</time></trkpt><trkpt lat="38.9658848" lon="16.1550038"><ele>18.0</ele><time>2026-04-12T07:49:22.53Z</time></trkpt><trkpt lat="38.9656183" lon="16.1550606"><ele>17.0</ele><time>2026-04-12T07:49:23.541Z</time></trkpt><trkpt lat="38.9653473" lon="16.1551119"><ele>16.0</ele><time>2026-04-12T07:49:24.528Z</time></trkpt><trkpt lat="38.9650759" lon="16.1551575"><ele>15.5</ele><time>2026-04-12T07:49:25.535Z</time></trkpt><trkpt lat="38.9648011" lon="16.1551987"><ele>15.0</ele><time>2026-04-12T07:49:26.534Z</time></trkpt><trkpt lat="38.9645241" lon="16.1552296"><ele>15.0</ele><time>2026-04-12T07:49:27.546Z</time></trkpt><trkpt lat="38.9642445" lon="16.1552556"><ele>15.0</ele><time>2026-04-12T07:49:28.538Z</time></trkpt><trkpt lat="38.9639575" lon="16.1552753"><ele>15.0</ele><time>2026-04-12T07:49:29.531Z</time></trkpt><trkpt lat="38.9636674" lon="16.155291"><ele>15.0</ele><time>2026-04-12T07:49:30.533Z</time></trkpt><trkpt lat="38.9633759" lon="16.1553021"><ele>16.0</ele><time>2026-04-12T07:49:31.535Z</time></trkpt><trkpt lat="38.9630863" lon="16.1553085"><ele>17.0</ele><time>2026-04-12T07:49:32.524Z</time></trkpt><trkpt lat="38.9627957" lon="16.1553142"><ele>15.5</ele><time>2026-04-12T07:49:33.542Z</time></trkpt><trkpt lat="38.9625041" lon="16.1553158"><ele>14.0</ele><time>2026-04-12T07:49:34.524Z</time></trkpt><trkpt lat="38.9622141" lon="16.1553168"><ele>14.0</ele><time>2026-04-12T07:49:35.528Z</time></trkpt><trkpt lat="38.9619239" lon="16.1553209"><ele>14.0</ele><time>2026-04-12T07:49:36.527Z</time></trkpt><trkpt lat="38.9616346" lon="16.1553264"><ele>12.5</ele><time>2026-04-12T07:49:37.537Z</time></trkpt><trkpt lat="38.9613459" lon="16.1553323"><ele>11.0</ele><time>2026-04-12T07:49:38.538Z</time></trkpt><trkpt lat="38.9610598" lon="16.1553383"><ele>10.5</ele><time>2026-04-12T07:49:39.526Z</time></trkpt><trkpt lat="38.9607759" lon="16.155345"><ele>10.0</ele><time>2026-04-12T07:49:40.534Z</time></trkpt><trkpt lat="38.9604943" lon="16.1553493"><ele>10.0</ele><time>2026-04-12T07:49:41.538Z</time></trkpt><trkpt lat="38.9602169" lon="16.1553663"><ele>10.0</ele><time>2026-04-12T07:49:42.528Z</time></trkpt><trkpt lat="38.9599401" lon="16.1553822"><ele>9.5</ele><time>2026-04-12T07:49:43.53Z</time></trkpt><trkpt lat="38.9596633" lon="16.1554028"><ele>9.0</ele><time>2026-04-12T07:49:44.531Z</time></trkpt><trkpt lat="38.959388" lon="16.155424"><ele>8.0</ele><time>2026-04-12T07:49:45.536Z</time></trkpt><trkpt lat="38.9591142" lon="16.1554483"><ele>7.0</ele><time>2026-04-12T07:49:46.523Z</time></trkpt><trkpt lat="38.9588384" lon="16.1554813"><ele>7.0</ele><time>2026-04-12T07:49:47.536Z</time></trkpt><trkpt lat="38.9585659" lon="16.155526"><ele>7.0</ele><time>2026-04-12T07:49:48.539Z</time></trkpt><trkpt lat="38.9582945" lon="16.1555753"><ele>8.0</ele><time>2026-04-12T07:49:49.528Z</time></trkpt><trkpt lat="38.9580253" lon="16.1556333"><ele>9.0</ele><time>2026-04-12T07:49:50.526Z</time></trkpt><trkpt lat="38.9577579" lon="16.1557007"><ele>11.5</ele><time>2026-04-12T07:49:51.54Z</time></trkpt><trkpt lat="38.9574909" lon="16.1557706"><ele>14.0</ele><time>2026-04-12T07:49:52.542Z</time></trkpt><trkpt lat="38.9572281" lon="16.1558497"><ele>14.0</ele><time>2026-04-12T07:49:53.547Z</time></trkpt><trkpt lat="38.9569699" lon="16.1559367"><ele>14.0</ele><time>2026-04-12T07:49:54.528Z</time></trkpt><trkpt lat="38.9567152" lon="16.156029"><ele>15.5</ele><time>2026-04-12T07:49:55.548Z</time></trkpt><trkpt lat="38.9564652" lon="16.1561259"><ele>17.0</ele><time>2026-04-12T07:49:56.532Z</time></trkpt><trkpt lat="38.9562164" lon="16.156231"><ele>17.0</ele><time>2026-04-12T07:49:57.539Z</time></trkpt><trkpt lat="38.9559696" lon="16.1563434"><ele>17.0</ele><time>2026-04-12T07:49:58.531Z</time></trkpt><trkpt lat="38.9557233" lon="16.1564617"><ele>22.5</ele><time>2026-04-12T07:49:59.53Z</time></trkpt><trkpt lat="38.9554761" lon="16.1565907"><ele>28.0</ele><time>2026-04-12T07:50:00.525Z</time></trkpt><trkpt lat="38.9552274" lon="16.1567303"><ele>25.5</ele><time>2026-04-12T07:50:01.536Z</time></trkpt><trkpt lat="38.9549726" lon="16.1568825"><ele>23.0</ele><time>2026-04-12T07:50:02.528Z</time></trkpt><trkpt lat="38.954715" lon="16.1570462"><ele>23.0</ele><time>2026-04-12T07:50:03.541Z</time></trkpt><trkpt lat="38.9544616" lon="16.1572207"><ele>23.0</ele><time>2026-04-12T07:50:04.526Z</time></trkpt><trkpt lat="38.9542151" lon="16.1574057"><ele>24.0</ele><time>2026-04-12T07:50:05.539Z</time></trkpt><trkpt lat="38.9539764" lon="16.1576004"><ele>25.0</ele><time>2026-04-12T07:50:06.534Z</time></trkpt><trkpt lat="38.9537461" lon="16.1578053"><ele>25.0</ele><time>2026-04-12T07:50:07.539Z</time></trkpt><trkpt lat="38.9535212" lon="16.1580204"><ele>25.0</ele><time>2026-04-12T07:50:08.524Z</time></trkpt><trkpt lat="38.9533033" lon="16.1582456"><ele>29.0</ele><time>2026-04-12T07:50:09.527Z</time></trkpt><trkpt lat="38.9530931" lon="16.1584784"><ele>33.0</ele><time>2026-04-12T07:50:10.532Z</time></trkpt><trkpt lat="38.9528907" lon="16.1587202"><ele>33.0</ele><time>2026-04-12T07:50:11.536Z</time></trkpt><trkpt lat="38.9526947" lon="16.1589711"><ele>33.0</ele><time>2026-04-12T07:50:12.537Z</time></trkpt><trkpt lat="38.9525073" lon="16.1592327"><ele>33.0</ele><time>2026-04-12T07:50:13.529Z</time></trkpt><trkpt lat="38.9523281" lon="16.1595054"><ele>33.0</ele><time>2026-04-12T07:50:14.529Z</time></trkpt><trkpt lat="38.9521582" lon="16.1597907"><ele>35.5</ele><time>2026-04-12T07:50:15.526Z</time></trkpt><trkpt lat="38.9519909" lon="16.1600771"><ele>38.0</ele><time>2026-04-12T07:50:16.535Z</time></trkpt><trkpt lat="38.9518482" lon="16.1603854"><ele>39.5</ele><time>2026-04-12T07:50:17.53Z</time></trkpt><trkpt lat="38.9517094" lon="16.1607129"><ele>41.0</ele><time>2026-04-12T07:50:18.526Z</time></trkpt><trkpt lat="38.9515793" lon="16.1610437"><ele>39.0</ele><time>2026-04-12T07:50:19.523Z</time></trkpt><trkpt lat="38.9514548" lon="16.1613781"><ele>37.0</ele><time>2026-04-12T07:50:20.535Z</time></trkpt><trkpt lat="38.9513524" lon="16.1617227"><ele>37.0</ele><time>2026-04-12T07:50:21.516Z</time></trkpt><trkpt lat="38.9512594" lon="16.162077"><ele>37.0</ele><time>2026-04-12T07:50:22.539Z</time></trkpt><trkpt lat="38.9511776" lon="16.1624311"><ele>37.0</ele><time>2026-04-12T07:50:23.527Z</time></trkpt><trkpt lat="38.9511095" lon="16.1627963"><ele>37.0</ele><time>2026-04-12T07:50:24.543Z</time></trkpt><trkpt lat="38.9510528" lon="16.1631675"><ele>36.0</ele><time>2026-04-12T07:50:25.523Z</time></trkpt><trkpt lat="38.9510061" lon="16.1635416"><ele>35.0</ele><time>2026-04-12T07:50:26.53Z</time></trkpt><trkpt lat="38.9509682" lon="16.1639191"><ele>36.0</ele><time>2026-04-12T07:50:27.532Z</time></trkpt><trkpt lat="38.9509381" lon="16.1642996"><ele>37.0</ele><time>2026-04-12T07:50:28.526Z</time></trkpt><trkpt lat="38.9509153" lon="16.1646836"><ele>36.0</ele><time>2026-04-12T07:50:29.529Z</time></trkpt><trkpt lat="38.9508967" lon="16.1650667"><ele>35.0</ele><time>2026-04-12T07:50:30.527Z</time></trkpt><trkpt lat="38.9508787" lon="16.1654521"><ele>21.5</ele><time>2026-04-12T07:50:31.52Z</time></trkpt><trkpt lat="38.9508628" lon="16.1658365"><ele>8.0</ele><time>2026-04-12T07:50:32.539Z</time></trkpt><trkpt lat="38.9508483" lon="16.1662216"><ele>7.0</ele><time>2026-04-12T07:50:33.526Z</time></trkpt><trkpt lat="38.9508304" lon="16.1666066"><ele>6.0</ele><time>2026-04-12T07:50:34.531Z</time></trkpt><trkpt lat="38.9508084" lon="16.1669888"><ele>7.0</ele><time>2026-04-12T07:50:35.533Z</time></trkpt><trkpt lat="38.9507801" lon="16.1673708"><ele>8.0</ele><time>2026-04-12T07:50:36.519Z</time></trkpt><trkpt lat="38.9507508" lon="16.1677483"><ele>8.0</ele><time>2026-04-12T07:50:37.538Z</time></trkpt><trkpt lat="38.9507239" lon="16.1681235"><ele>8.0</ele><time>2026-04-12T07:50:38.532Z</time></trkpt><trkpt lat="38.9507013" lon="16.1684965"><ele>7.5</ele><time>2026-04-12T07:50:39.527Z</time></trkpt><trkpt lat="38.9506838" lon="16.1688673"><ele>7.0</ele><time>2026-04-12T07:50:40.527Z</time></trkpt><trkpt lat="38.9506667" lon="16.169236"><ele>7.0</ele><time>2026-04-12T07:50:41.535Z</time></trkpt><trkpt lat="38.9506481" lon="16.169603"><ele>7.0</ele><time>2026-04-12T07:50:42.532Z</time></trkpt><trkpt lat="38.9506294" lon="16.1699671"><ele>7.5</ele><time>2026-04-12T07:50:43.522Z</time></trkpt><trkpt lat="38.9506105" lon="16.1703297"><ele>8.0</ele><time>2026-04-12T07:50:44.536Z</time></trkpt><trkpt lat="38.9505922" lon="16.1706907"><ele>8.0</ele><time>2026-04-12T07:50:45.543Z</time></trkpt><trkpt lat="38.9505761" lon="16.1710492"><ele>8.0</ele><time>2026-04-12T07:50:46.524Z</time></trkpt><trkpt lat="38.9505598" lon="16.171406"><ele>9.0</ele><time>2026-04-12T07:50:47.531Z</time></trkpt><trkpt lat="38.9505432" lon="16.1717608"><ele>10.0</ele><time>2026-04-12T07:50:48.521Z</time></trkpt><trkpt lat="38.9505254" lon="16.1721155"><ele>11.5</ele><time>2026-04-12T07:50:49.521Z</time></trkpt><trkpt lat="38.9505059" lon="16.1724683"><ele>13.0</ele><time>2026-04-12T07:50:50.52Z</time></trkpt><trkpt lat="38.9504881" lon="16.1728184"><ele>13.0</ele><time>2026-04-12T07:50:51.531Z</time></trkpt><trkpt lat="38.9504699" lon="16.1731647"><ele>13.0</ele><time>2026-04-12T07:50:52.529Z</time></trkpt><trkpt lat="38.9504525" lon="16.1735057"><ele>14.0</ele><time>2026-04-12T07:50:53.525Z</time></trkpt><trkpt lat="38.9504358" lon="16.1738464"><ele>15.0</ele><time>2026-04-12T07:50:54.525Z</time></trkpt><trkpt lat="38.9504204" lon="16.1741878"><ele>15.0</ele><time>2026-04-12T07:50:55.521Z</time></trkpt><trkpt lat="38.9504073" lon="16.1745303"><ele>15.0</ele><time>2026-04-12T07:50:56.525Z</time></trkpt><trkpt lat="38.9503959" lon="16.1748728"><ele>16.5</ele><time>2026-04-12T07:50:57.525Z</time></trkpt><trkpt lat="38.9503819" lon="16.1752128"><ele>18.0</ele><time>2026-04-12T07:50:58.533Z</time></trkpt><trkpt lat="38.9503674" lon="16.1755521"><ele>18.5</ele><time>2026-04-12T07:50:59.526Z</time></trkpt><trkpt lat="38.9503521" lon="16.175896"><ele>19.0</ele><time>2026-04-12T07:51:00.528Z</time></trkpt><trkpt lat="38.9503293" lon="16.1762431"><ele>20.5</ele><time>2026-04-12T07:51:01.525Z</time></trkpt><trkpt lat="38.9502998" lon="16.17659"><ele>22.0</ele><time>2026-04-12T07:51:02.525Z</time></trkpt><trkpt lat="38.9502752" lon="16.1769304"><ele>22.0</ele><time>2026-04-12T07:51:03.517Z</time></trkpt><trkpt lat="38.9502392" lon="16.177271"><ele>22.0</ele><time>2026-04-12T07:51:04.525Z</time></trkpt><trkpt lat="38.9501946" lon="16.1776161"><ele>22.0</ele><time>2026-04-12T07:51:05.537Z</time></trkpt><trkpt lat="38.9501468" lon="16.177963"><ele>22.0</ele><time>2026-04-12T07:51:06.535Z</time></trkpt><trkpt lat="38.9500921" lon="16.1783128"><ele>16.0</ele><time>2026-04-12T07:51:07.528Z</time></trkpt><trkpt lat="38.9500319" lon="16.1786615"><ele>10.0</ele><time>2026-04-12T07:51:08.528Z</time></trkpt><trkpt lat="38.9499709" lon="16.1790109"><ele>10.0</ele><time>2026-04-12T07:51:09.531Z</time></trkpt><trkpt lat="38.9499029" lon="16.1793587"><ele>10.0</ele><time>2026-04-12T07:51:10.527Z</time></trkpt><trkpt lat="38.9498275" lon="16.1797029"><ele>10.5</ele><time>2026-04-12T07:51:11.528Z</time></trkpt><trkpt lat="38.9497476" lon="16.1800468"><ele>11.0</ele><time>2026-04-12T07:51:12.536Z</time></trkpt><trkpt lat="38.9496616" lon="16.180389"><ele>10.5</ele><time>2026-04-12T07:51:13.529Z</time></trkpt><trkpt lat="38.9495668" lon="16.180729"><ele>10.0</ele><time>2026-04-12T07:51:14.522Z</time></trkpt><trkpt lat="38.9494682" lon="16.1810695"><ele>10.0</ele><time>2026-04-12T07:51:15.541Z</time></trkpt><trkpt lat="38.9493639" lon="16.1814112"><ele>10.0</ele><time>2026-04-12T07:51:16.525Z</time></trkpt><trkpt lat="38.9492514" lon="16.1817638"><ele>6.5</ele><time>2026-04-12T07:51:17.536Z</time></trkpt><trkpt lat="38.9491273" lon="16.1821211"><ele>3.0</ele><time>2026-04-12T07:51:18.525Z</time></trkpt><trkpt lat="38.948997" lon="16.1824744"><ele>3.0</ele><time>2026-04-12T07:51:19.536Z</time></trkpt><trkpt lat="38.9488617" lon="16.1828204"><ele>3.0</ele><time>2026-04-12T07:51:20.527Z</time></trkpt><trkpt lat="38.9487213" lon="16.1831597"><ele>3.0</ele><time>2026-04-12T07:51:21.528Z</time></trkpt><trkpt lat="38.9485784" lon="16.1834926"><ele>3.0</ele><time>2026-04-12T07:51:22.538Z</time></trkpt><trkpt lat="38.9484322" lon="16.1838181"><ele>2.5</ele><time>2026-04-12T07:51:23.534Z</time></trkpt><trkpt lat="38.9482825" lon="16.1841381"><ele>2.0</ele><time>2026-04-12T07:51:24.532Z</time></trkpt><trkpt lat="38.9481281" lon="16.1844525"><ele>2.0</ele><time>2026-04-12T07:51:25.532Z</time></trkpt><trkpt lat="38.9479685" lon="16.1847604"><ele>2.0</ele><time>2026-04-12T07:51:26.528Z</time></trkpt><trkpt lat="38.9478056" lon="16.1850598"><ele>2.0</ele><time>2026-04-12T07:51:27.53Z</time></trkpt><trkpt lat="38.9476401" lon="16.1853529"><ele>2.0</ele><time>2026-04-12T07:51:28.519Z</time></trkpt><trkpt lat="38.9474695" lon="16.1856388"><ele>2.0</ele><time>2026-04-12T07:51:29.532Z</time></trkpt><trkpt lat="38.9472916" lon="16.1859177"><ele>2.0</ele><time>2026-04-12T07:51:30.531Z</time></trkpt><trkpt lat="38.9471076" lon="16.1861986"><ele>2.0</ele><time>2026-04-12T07:51:31.526Z</time></trkpt><trkpt lat="38.9469134" lon="16.1864907"><ele>2.0</ele><time>2026-04-12T07:51:32.525Z</time></trkpt><trkpt lat="38.9467117" lon="16.1867953"><ele>2.0</ele><time>2026-04-12T07:51:33.564Z</time></trkpt><trkpt lat="38.9465019" lon="16.187113"><ele>2.0</ele><time>2026-04-12T07:51:34.523Z</time></trkpt><trkpt lat="38.9462849" lon="16.1874434"><ele>1.5</ele><time>2026-04-12T07:51:35.53Z</time></trkpt><trkpt lat="38.946061" lon="16.1877858"><ele>1.0</ele><time>2026-04-12T07:51:36.528Z</time></trkpt><trkpt lat="38.9458332" lon="16.1881336"><ele>1.5</ele><time>2026-04-12T07:51:37.531Z</time></trkpt><trkpt lat="38.9456045" lon="16.1884824"><ele>2.0</ele><time>2026-04-12T07:51:38.524Z</time></trkpt><trkpt lat="38.9453767" lon="16.1888323"><ele>1.5</ele><time>2026-04-12T07:51:39.547Z</time></trkpt><trkpt lat="38.9451489" lon="16.1891856"><ele>1.0</ele><time>2026-04-12T07:51:40.536Z</time></trkpt><trkpt lat="38.9449191" lon="16.1895481"><ele>1.5</ele><time>2026-04-12T07:51:41.543Z</time></trkpt><trkpt lat="38.9446884" lon="16.1899222"><ele>2.0</ele><time>2026-04-12T07:51:42.545Z</time></trkpt><trkpt lat="38.9444608" lon="16.1903064"><ele>2.0</ele><time>2026-04-12T07:51:43.532Z</time></trkpt><trkpt lat="38.9442379" lon="16.1907009"><ele>2.0</ele><time>2026-04-12T07:51:44.527Z</time></trkpt><trkpt lat="38.9440212" lon="16.191107"><ele>2.0</ele><time>2026-04-12T07:51:45.545Z</time></trkpt><trkpt lat="38.9438108" lon="16.1915223"><ele>2.0</ele><time>2026-04-12T07:51:46.526Z</time></trkpt><trkpt lat="38.9436095" lon="16.1919379"><ele>1.5</ele><time>2026-04-12T07:51:47.536Z</time></trkpt><trkpt lat="38.9434179" lon="16.1923496"><ele>1.0</ele><time>2026-04-12T07:51:48.534Z</time></trkpt><trkpt lat="38.9432374" lon="16.1927547"><ele>1.0</ele><time>2026-04-12T07:51:49.525Z</time></trkpt><trkpt lat="38.9430674" lon="16.1931518"><ele>1.0</ele><time>2026-04-12T07:51:50.523Z</time></trkpt><trkpt lat="38.9429083" lon="16.1935432"><ele>1.0</ele><time>2026-04-12T07:51:51.532Z</time></trkpt><trkpt lat="38.94276" lon="16.1939291"><ele>1.0</ele><time>2026-04-12T07:51:52.536Z</time></trkpt><trkpt lat="38.9426217" lon="16.1943098"><ele>1.5</ele><time>2026-04-12T07:51:53.527Z</time></trkpt><trkpt lat="38.9424933" lon="16.194687"><ele>2.0</ele><time>2026-04-12T07:51:54.531Z</time></trkpt><trkpt lat="38.9423715" lon="16.195067"><ele>2.0</ele><time>2026-04-12T07:51:55.541Z</time></trkpt><trkpt lat="38.9422532" lon="16.1954528"><ele>2.0</ele><time>2026-04-12T07:51:56.53Z</time></trkpt><trkpt lat="38.9421377" lon="16.1958384"><ele>2.0</ele><time>2026-04-12T07:51:57.527Z</time></trkpt><trkpt lat="38.9420266" lon="16.1962219"><ele>2.0</ele><time>2026-04-12T07:51:58.529Z</time></trkpt><trkpt lat="38.9419177" lon="16.1966006"><ele>1.5</ele><time>2026-04-12T07:51:59.53Z</time></trkpt><trkpt lat="38.9418099" lon="16.1969727"><ele>1.0</ele><time>2026-04-12T07:52:00.529Z</time></trkpt><trkpt lat="38.9417025" lon="16.1973393"><ele>2.0</ele><time>2026-04-12T07:52:01.53Z</time></trkpt><trkpt lat="38.9415963" lon="16.1977013"><ele>3.0</ele><time>2026-04-12T07:52:02.524Z</time></trkpt><trkpt lat="38.9414901" lon="16.1980635"><ele>3.0</ele><time>2026-04-12T07:52:03.525Z</time></trkpt><trkpt lat="38.9413838" lon="16.1984239"><ele>3.0</ele><time>2026-04-12T07:52:04.531Z</time></trkpt><trkpt lat="38.9412808" lon="16.1987803"><ele>2.5</ele><time>2026-04-12T07:52:05.532Z</time></trkpt><trkpt lat="38.9411798" lon="16.1991324"><ele>2.0</ele><time>2026-04-12T07:52:06.536Z</time></trkpt><trkpt lat="38.9410781" lon="16.1994819"><ele>2.0</ele><time>2026-04-12T07:52:07.525Z</time></trkpt><trkpt lat="38.9409744" lon="16.1998303"><ele>2.0</ele><time>2026-04-12T07:52:08.519Z</time></trkpt><trkpt lat="38.9408716" lon="16.2001785"><ele>2.0</ele><time>2026-04-12T07:52:09.531Z</time></trkpt><trkpt lat="38.9407667" lon="16.2005256"><ele>2.0</ele><time>2026-04-12T07:52:10.524Z</time></trkpt><trkpt lat="38.9406606" lon="16.2008724"><ele>2.5</ele><time>2026-04-12T07:52:11.521Z</time></trkpt><trkpt lat="38.9405532" lon="16.2012195"><ele>3.0</ele><time>2026-04-12T07:52:12.533Z</time></trkpt><trkpt lat="38.9404457" lon="16.2015654"><ele>3.0</ele><time>2026-04-12T07:52:13.531Z</time></trkpt><trkpt lat="38.9403367" lon="16.2019077"><ele>3.0</ele><time>2026-04-12T07:52:14.522Z</time></trkpt><trkpt lat="38.9402273" lon="16.2022487"><ele>3.0</ele><time>2026-04-12T07:52:15.524Z</time></trkpt><trkpt lat="38.9401168" lon="16.2025904"><ele>3.0</ele><time>2026-04-12T07:52:16.534Z</time></trkpt><trkpt lat="38.9400045" lon="16.2029332"><ele>3.5</ele><time>2026-04-12T07:52:17.537Z</time></trkpt><trkpt lat="38.9398883" lon="16.2032762"><ele>4.0</ele><time>2026-04-12T07:52:18.523Z</time></trkpt><trkpt lat="38.9397716" lon="16.203621"><ele>4.0</ele><time>2026-04-12T07:52:19.519Z</time></trkpt><trkpt lat="38.9396547" lon="16.2039659"><ele>4.0</ele><time>2026-04-12T07:52:20.53Z</time></trkpt><trkpt lat="38.9395366" lon="16.2043099"><ele>4.0</ele><time>2026-04-12T07:52:21.536Z</time></trkpt><trkpt lat="38.9394151" lon="16.2046529"><ele>4.0</ele><time>2026-04-12T07:52:22.521Z</time></trkpt><trkpt lat="38.9392942" lon="16.2049979"><ele>5.0</ele><time>2026-04-12T07:52:23.536Z</time></trkpt><trkpt lat="38.9391747" lon="16.2053448"><ele>6.0</ele><time>2026-04-12T07:52:24.518Z</time></trkpt><trkpt lat="38.9390561" lon="16.2057007"><ele>6.5</ele><time>2026-04-12T07:52:25.526Z</time></trkpt><trkpt lat="38.9389348" lon="16.2060631"><ele>7.0</ele><time>2026-04-12T07:52:26.528Z</time></trkpt><trkpt lat="38.9388118" lon="16.2064317"><ele>6.5</ele><time>2026-04-12T07:52:27.54Z</time></trkpt><trkpt lat="38.9386877" lon="16.2068017"><ele>6.0</ele><time>2026-04-12T07:52:28.521Z</time></trkpt><trkpt lat="38.9385629" lon="16.2071699"><ele>6.5</ele><time>2026-04-12T07:52:29.553Z</time></trkpt><trkpt lat="38.9384381" lon="16.2075338"><ele>7.0</ele><time>2026-04-12T07:52:30.526Z</time></trkpt><trkpt lat="38.9383146" lon="16.2078957"><ele>5.5</ele><time>2026-04-12T07:52:31.529Z</time></trkpt><trkpt lat="38.9381918" lon="16.2082556"><ele>4.0</ele><time>2026-04-12T07:52:32.524Z</time></trkpt><trkpt lat="38.9380696" lon="16.2086135"><ele>4.0</ele><time>2026-04-12T07:52:33.535Z</time></trkpt><trkpt lat="38.9379487" lon="16.2089697"><ele>4.0</ele><time>2026-04-12T07:52:34.521Z</time></trkpt><trkpt lat="38.937829" lon="16.2093232"><ele>4.5</ele><time>2026-04-12T07:52:35.529Z</time></trkpt><trkpt lat="38.9377096" lon="16.2096735"><ele>5.0</ele><time>2026-04-12T07:52:36.54Z</time></trkpt><trkpt lat="38.9375893" lon="16.210021"><ele>4.0</ele><time>2026-04-12T07:52:37.544Z</time></trkpt><trkpt lat="38.9374699" lon="16.2103424"><ele>3.0</ele><time>2026-04-12T07:52:38.519Z</time></trkpt><trkpt lat="38.9373557" lon="16.2106825"><ele>3.0</ele><time>2026-04-12T07:52:39.536Z</time></trkpt><trkpt lat="38.9372355" lon="16.2110199"><ele>3.0</ele><time>2026-04-12T07:52:40.528Z</time></trkpt><trkpt lat="38.937117" lon="16.2113647"><ele>3.0</ele><time>2026-04-12T07:52:41.523Z</time></trkpt><trkpt lat="38.9369992" lon="16.2117085"><ele>3.0</ele><time>2026-04-12T07:52:42.534Z</time></trkpt><trkpt lat="38.9368811" lon="16.2120518"><ele>3.0</ele><time>2026-04-12T07:52:43.538Z</time></trkpt><trkpt lat="38.9367647" lon="16.2123938"><ele>3.0</ele><time>2026-04-12T07:52:44.522Z</time></trkpt><trkpt lat="38.9366474" lon="16.2127325"><ele>2.0</ele><time>2026-04-12T07:52:45.518Z</time></trkpt><trkpt lat="38.9365281" lon="16.2130725"><ele>1.0</ele><time>2026-04-12T07:52:46.527Z</time></trkpt><trkpt lat="38.9364057" lon="16.2134144"><ele>1.0</ele><time>2026-04-12T07:52:47.521Z</time></trkpt><trkpt lat="38.9362854" lon="16.2137605"><ele>1.0</ele><time>2026-04-12T07:52:48.529Z</time></trkpt><trkpt lat="38.9361686" lon="16.2141098"><ele>1.5</ele><time>2026-04-12T07:52:49.526Z</time></trkpt><trkpt lat="38.9360508" lon="16.214463"><ele>2.0</ele><time>2026-04-12T07:52:50.524Z</time></trkpt><trkpt lat="38.9359313" lon="16.2148147"><ele>2.5</ele><time>2026-04-12T07:52:51.527Z</time></trkpt><trkpt lat="38.9358115" lon="16.215167"><ele>3.0</ele><time>2026-04-12T07:52:52.525Z</time></trkpt><trkpt lat="38.9356925" lon="16.2155191"><ele>3.5</ele><time>2026-04-12T07:52:53.523Z</time></trkpt><trkpt lat="38.9355727" lon="16.2158712"><ele>4.0</ele><time>2026-04-12T07:52:54.526Z</time></trkpt><trkpt lat="38.935452" lon="16.2162212"><ele>4.5</ele><time>2026-04-12T07:52:55.531Z</time></trkpt><trkpt lat="38.9353312" lon="16.216572"><ele>5.0</ele><time>2026-04-12T07:52:56.529Z</time></trkpt><trkpt lat="38.935213" lon="16.2169216"><ele>5.0</ele><time>2026-04-12T07:52:57.523Z</time></trkpt><trkpt lat="38.9350957" lon="16.2172659"><ele>5.0</ele><time>2026-04-12T07:52:58.541Z</time></trkpt><trkpt lat="38.9349782" lon="16.2176042"><ele>4.5</ele><time>2026-04-12T07:52:59.524Z</time></trkpt><trkpt lat="38.9348616" lon="16.2179377"><ele>4.0</ele><time>2026-04-12T07:53:00.528Z</time></trkpt><trkpt lat="38.934749" lon="16.2182701"><ele>4.0</ele><time>2026-04-12T07:53:01.54Z</time></trkpt><trkpt lat="38.9346366" lon="16.2186013"><ele>4.0</ele><time>2026-04-12T07:53:02.531Z</time></trkpt><trkpt lat="38.9345225" lon="16.2189334"><ele>4.5</ele><time>2026-04-12T07:53:03.526Z</time></trkpt><trkpt lat="38.9344087" lon="16.2192669"><ele>5.0</ele><time>2026-04-12T07:53:04.536Z</time></trkpt><trkpt lat="38.9342946" lon="16.219602"><ele>5.5</ele><time>2026-04-12T07:53:05.527Z</time></trkpt><trkpt lat="38.9341803" lon="16.2199378"><ele>6.0</ele><time>2026-04-12T07:53:06.527Z</time></trkpt><trkpt lat="38.9340673" lon="16.2202751"><ele>6.0</ele><time>2026-04-12T07:53:07.525Z</time></trkpt><trkpt lat="38.9339519" lon="16.2206133"><ele>6.0</ele><time>2026-04-12T07:53:08.536Z</time></trkpt><trkpt lat="38.9338346" lon="16.2209523"><ele>6.0</ele><time>2026-04-12T07:53:09.528Z</time></trkpt><trkpt lat="38.933718" lon="16.2212934"><ele>6.0</ele><time>2026-04-12T07:53:10.534Z</time></trkpt><trkpt lat="38.9336002" lon="16.2216365"><ele>6.0</ele><time>2026-04-12T07:53:11.523Z</time></trkpt><trkpt lat="38.9334811" lon="16.2219823"><ele>6.0</ele><time>2026-04-12T07:53:12.532Z</time></trkpt><trkpt lat="38.9333623" lon="16.2223312"><ele>6.5</ele><time>2026-04-12T07:53:13.526Z</time></trkpt><trkpt lat="38.9332437" lon="16.2226837"><ele>7.0</ele><time>2026-04-12T07:53:14.524Z</time></trkpt><trkpt lat="38.9331234" lon="16.2230306"><ele>7.0</ele><time>2026-04-12T07:53:15.531Z</time></trkpt><trkpt lat="38.9330027" lon="16.2233891"><ele>7.0</ele><time>2026-04-12T07:53:16.525Z</time></trkpt><trkpt lat="38.9328857" lon="16.2237444"><ele>6.5</ele><time>2026-04-12T07:53:17.522Z</time></trkpt><trkpt lat="38.9327713" lon="16.2241047"><ele>6.0</ele><time>2026-04-12T07:53:18.537Z</time></trkpt><trkpt lat="38.9326588" lon="16.2244684"><ele>7.5</ele><time>2026-04-12T07:53:19.527Z</time></trkpt><trkpt lat="38.9325477" lon="16.2248273"><ele>9.0</ele><time>2026-04-12T07:53:20.522Z</time></trkpt><trkpt lat="38.9324368" lon="16.2251945"><ele>9.0</ele><time>2026-04-12T07:53:21.531Z</time></trkpt><trkpt lat="38.9323309" lon="16.2255646"><ele>9.0</ele><time>2026-04-12T07:53:22.52Z</time></trkpt><trkpt lat="38.9322288" lon="16.2259368"><ele>10.0</ele><time>2026-04-12T07:53:23.528Z</time></trkpt><trkpt lat="38.9321294" lon="16.2263051"><ele>11.0</ele><time>2026-04-12T07:53:24.528Z</time></trkpt><trkpt lat="38.9320298" lon="16.2266733"><ele>11.0</ele><time>2026-04-12T07:53:25.528Z</time></trkpt><trkpt lat="38.9319248" lon="16.2270448"><ele>11.0</ele><time>2026-04-12T07:53:26.529Z</time></trkpt><trkpt lat="38.9318249" lon="16.2274181"><ele>12.0</ele><time>2026-04-12T07:53:27.529Z</time></trkpt><trkpt lat="38.9317265" lon="16.2277895"><ele>13.0</ele><time>2026-04-12T07:53:28.527Z</time></trkpt><trkpt lat="38.9316297" lon="16.2281582"><ele>13.0</ele><time>2026-04-12T07:53:29.528Z</time></trkpt><trkpt lat="38.9315346" lon="16.2285291"><ele>13.0</ele><time>2026-04-12T07:53:30.531Z</time></trkpt><trkpt lat="38.9314407" lon="16.2289006"><ele>13.5</ele><time>2026-04-12T07:53:31.525Z</time></trkpt><trkpt lat="38.9313433" lon="16.2292713"><ele>14.0</ele><time>2026-04-12T07:53:32.523Z</time></trkpt><trkpt lat="38.9312494" lon="16.229646"><ele>15.0</ele><time>2026-04-12T07:53:33.531Z</time></trkpt><trkpt lat="38.9311577" lon="16.2300204"><ele>16.0</ele><time>2026-04-12T07:53:34.528Z</time></trkpt><trkpt lat="38.9310694" lon="16.2303959"><ele>16.0</ele><time>2026-04-12T07:53:35.531Z</time></trkpt><trkpt lat="38.9309804" lon="16.230771"><ele>16.0</ele><time>2026-04-12T07:53:36.533Z</time></trkpt><trkpt lat="38.9308924" lon="16.2311452"><ele>16.5</ele><time>2026-04-12T07:53:37.528Z</time></trkpt><trkpt lat="38.9308066" lon="16.2315161"><ele>17.0</ele><time>2026-04-12T07:53:38.528Z</time></trkpt><trkpt lat="38.930724" lon="16.2318834"><ele>17.0</ele><time>2026-04-12T07:53:39.524Z</time></trkpt><trkpt lat="38.9306442" lon="16.23225"><ele>17.0</ele><time>2026-04-12T07:53:40.531Z</time></trkpt><trkpt lat="38.9305649" lon="16.2326178"><ele>17.5</ele><time>2026-04-12T07:53:41.531Z</time></trkpt><trkpt lat="38.9304869" lon="16.2329903"><ele>18.0</ele><time>2026-04-12T07:53:42.528Z</time></trkpt><trkpt lat="38.9304075" lon="16.2333678"><ele>19.0</ele><time>2026-04-12T07:53:43.531Z</time></trkpt><trkpt lat="38.9303264" lon="16.2337484"><ele>20.0</ele><time>2026-04-12T07:53:44.534Z</time></trkpt><trkpt lat="38.9302413" lon="16.2341271"><ele>20.0</ele><time>2026-04-12T07:53:45.528Z</time></trkpt><trkpt lat="38.9301557" lon="16.2345036"><ele>20.0</ele><time>2026-04-12T07:53:46.525Z</time></trkpt><trkpt lat="38.9300758" lon="16.2348829"><ele>20.5</ele><time>2026-04-12T07:53:47.524Z</time></trkpt><trkpt lat="38.9299979" lon="16.2352617"><ele>21.0</ele><time>2026-04-12T07:53:48.526Z</time></trkpt><trkpt lat="38.92992" lon="16.2356382"><ele>21.5</ele><time>2026-04-12T07:53:49.536Z</time></trkpt><trkpt lat="38.9298427" lon="16.236014"><ele>22.0</ele><time>2026-04-12T07:53:50.53Z</time></trkpt><trkpt lat="38.9297642" lon="16.2363893"><ele>23.5</ele><time>2026-04-12T07:53:51.525Z</time></trkpt><trkpt lat="38.9296835" lon="16.2367631"><ele>25.0</ele><time>2026-04-12T07:53:52.536Z</time></trkpt><trkpt lat="38.929599" lon="16.2371357"><ele>25.0</ele><time>2026-04-12T07:53:53.527Z</time></trkpt><trkpt lat="38.9295133" lon="16.2375092"><ele>25.0</ele><time>2026-04-12T07:53:54.528Z</time></trkpt><trkpt lat="38.9294275" lon="16.2378849"><ele>24.5</ele><time>2026-04-12T07:53:55.525Z</time></trkpt><trkpt lat="38.9293413" lon="16.2382629"><ele>24.0</ele><time>2026-04-12T07:53:56.529Z</time></trkpt><trkpt lat="38.9292535" lon="16.2386422"><ele>25.0</ele><time>2026-04-12T07:53:57.533Z</time></trkpt><trkpt lat="38.9291622" lon="16.2390222"><ele>26.0</ele><time>2026-04-12T07:53:58.542Z</time></trkpt><trkpt lat="38.9290691" lon="16.2394034"><ele>26.0</ele><time>2026-04-12T07:53:59.527Z</time></trkpt><trkpt lat="38.928974" lon="16.2397874"><ele>26.0</ele><time>2026-04-12T07:54:00.53Z</time></trkpt><trkpt lat="38.9288758" lon="16.240171"><ele>26.0</ele><time>2026-04-12T07:54:01.532Z</time></trkpt><trkpt lat="38.9287766" lon="16.2405543"><ele>26.0</ele><time>2026-04-12T07:54:02.528Z</time></trkpt><trkpt lat="38.9286761" lon="16.240936"><ele>27.0</ele><time>2026-04-12T07:54:03.526Z</time></trkpt><trkpt lat="38.9285752" lon="16.241313"><ele>28.0</ele><time>2026-04-12T07:54:04.527Z</time></trkpt><trkpt lat="38.928474" lon="16.241686"><ele>27.5</ele><time>2026-04-12T07:54:05.537Z</time></trkpt><trkpt lat="38.9283713" lon="16.2420559"><ele>27.0</ele><time>2026-04-12T07:54:06.538Z</time></trkpt><trkpt lat="38.9282679" lon="16.2424225"><ele>28.0</ele><time>2026-04-12T07:54:07.524Z</time></trkpt><trkpt lat="38.9281646" lon="16.242788"><ele>29.0</ele><time>2026-04-12T07:54:08.548Z</time></trkpt><trkpt lat="38.9280622" lon="16.2431527"><ele>29.5</ele><time>2026-04-12T07:54:09.538Z</time></trkpt><trkpt lat="38.9279603" lon="16.2435174"><ele>30.0</ele><time>2026-04-12T07:54:10.521Z</time></trkpt><trkpt lat="38.9278577" lon="16.2438819"><ele>30.5</ele><time>2026-04-12T07:54:11.533Z</time></trkpt><trkpt lat="38.9277543" lon="16.2442465"><ele>31.0</ele><time>2026-04-12T07:54:12.532Z</time></trkpt><trkpt lat="38.9276506" lon="16.2446109"><ele>30.5</ele><time>2026-04-12T07:54:13.52Z</time></trkpt><trkpt lat="38.9275468" lon="16.2449762"><ele>30.0</ele><time>2026-04-12T07:54:14.524Z</time></trkpt><trkpt lat="38.9274442" lon="16.2453427"><ele>29.5</ele><time>2026-04-12T07:54:15.523Z</time></trkpt><trkpt lat="38.9273408" lon="16.2457106"><ele>29.0</ele><time>2026-04-12T07:54:16.523Z</time></trkpt><trkpt lat="38.9272354" lon="16.2460779"><ele>29.0</ele><time>2026-04-12T07:54:17.529Z</time></trkpt><trkpt lat="38.9271283" lon="16.2464441"><ele>29.0</ele><time>2026-04-12T07:54:18.53Z</time></trkpt><trkpt lat="38.9270221" lon="16.2468102"><ele>29.0</ele><time>2026-04-12T07:54:19.522Z</time></trkpt><trkpt lat="38.9269175" lon="16.2471765"><ele>29.0</ele><time>2026-04-12T07:54:20.525Z</time></trkpt><trkpt lat="38.9268143" lon="16.247543"><ele>28.5</ele><time>2026-04-12T07:54:21.534Z</time></trkpt><trkpt lat="38.9267115" lon="16.2479105"><ele>28.0</ele><time>2026-04-12T07:54:22.527Z</time></trkpt><trkpt lat="38.926609" lon="16.2482788"><ele>29.5</ele><time>2026-04-12T07:54:23.52Z</time></trkpt><trkpt lat="38.9265059" lon="16.2486461"><ele>31.0</ele><time>2026-04-12T07:54:24.528Z</time></trkpt><trkpt lat="38.9264026" lon="16.2490146"><ele>32.5</ele><time>2026-04-12T07:54:25.523Z</time></trkpt><trkpt lat="38.9262982" lon="16.2493825"><ele>34.0</ele><time>2026-04-12T07:54:26.523Z</time></trkpt><trkpt lat="38.9261932" lon="16.2497495"><ele>35.0</ele><time>2026-04-12T07:54:27.518Z</time></trkpt><trkpt lat="38.9260877" lon="16.2501153"><ele>36.0</ele><time>2026-04-12T07:54:28.523Z</time></trkpt><trkpt lat="38.9259835" lon="16.2504803"><ele>36.5</ele><time>2026-04-12T07:54:29.529Z</time></trkpt><trkpt lat="38.9258794" lon="16.2508433"><ele>37.0</ele><time>2026-04-12T07:54:30.544Z</time></trkpt><trkpt lat="38.9257769" lon="16.2512071"><ele>37.5</ele><time>2026-04-12T07:54:31.522Z</time></trkpt><trkpt lat="38.9256766" lon="16.2515724"><ele>38.0</ele><time>2026-04-12T07:54:32.529Z</time></trkpt><trkpt lat="38.925576" lon="16.2519389"><ele>37.5</ele><time>2026-04-12T07:54:33.536Z</time></trkpt><trkpt lat="38.9254737" lon="16.2523058"><ele>37.0</ele><time>2026-04-12T07:54:34.526Z</time></trkpt><trkpt lat="38.9253705" lon="16.2526707"><ele>37.0</ele><time>2026-04-12T07:54:35.524Z</time></trkpt><trkpt lat="38.9252684" lon="16.2530354"><ele>37.0</ele><time>2026-04-12T07:54:36.522Z</time></trkpt><trkpt lat="38.9251661" lon="16.2533996"><ele>37.0</ele><time>2026-04-12T07:54:37.527Z</time></trkpt><trkpt lat="38.9250631" lon="16.2537641"><ele>37.0</ele><time>2026-04-12T07:54:38.524Z</time></trkpt><trkpt lat="38.9249589" lon="16.2541291"><ele>36.0</ele><time>2026-04-12T07:54:39.525Z</time></trkpt><trkpt lat="38.924854" lon="16.2544947"><ele>35.0</ele><time>2026-04-12T07:54:40.527Z</time></trkpt><trkpt lat="38.9247504" lon="16.2548581"><ele>35.0</ele><time>2026-04-12T07:54:41.52Z</time></trkpt><trkpt lat="38.9246496" lon="16.2552212"><ele>35.0</ele><time>2026-04-12T07:54:42.525Z</time></trkpt><trkpt lat="38.9245489" lon="16.255582"><ele>34.5</ele><time>2026-04-12T07:54:43.528Z</time></trkpt><trkpt lat="38.9244464" lon="16.2559395"><ele>34.0</ele><time>2026-04-12T07:54:44.518Z</time></trkpt><trkpt lat="38.9243451" lon="16.256295"><ele>33.0</ele><time>2026-04-12T07:54:45.524Z</time></trkpt><trkpt lat="38.9242433" lon="16.2566497"><ele>32.0</ele><time>2026-04-12T07:54:46.525Z</time></trkpt><trkpt lat="38.9241403" lon="16.2570047"><ele>31.0</ele><time>2026-04-12T07:54:47.53Z</time></trkpt><trkpt lat="38.924034" lon="16.2573591"><ele>30.0</ele><time>2026-04-12T07:54:48.528Z</time></trkpt><trkpt lat="38.9239223" lon="16.2577115"><ele>30.0</ele><time>2026-04-12T07:54:49.531Z</time></trkpt><trkpt lat="38.9238033" lon="16.2580635"><ele>30.0</ele><time>2026-04-12T07:54:50.519Z</time></trkpt><trkpt lat="38.9236758" lon="16.2584148"><ele>30.5</ele><time>2026-04-12T07:54:51.529Z</time></trkpt><trkpt lat="38.9235374" lon="16.2587615"><ele>31.0</ele><time>2026-04-12T07:54:52.523Z</time></trkpt><trkpt lat="38.9233875" lon="16.2591014"><ele>31.0</ele><time>2026-04-12T07:54:53.52Z</time></trkpt><trkpt lat="38.9232273" lon="16.2594342"><ele>31.0</ele><time>2026-04-12T07:54:54.537Z</time></trkpt><trkpt lat="38.923059" lon="16.2597617"><ele>32.0</ele><time>2026-04-12T07:54:55.523Z</time></trkpt><trkpt lat="38.9228837" lon="16.260084"><ele>33.0</ele><time>2026-04-12T07:54:56.542Z</time></trkpt><trkpt lat="38.9226994" lon="16.2603985"><ele>31.0</ele><time>2026-04-12T07:54:57.527Z</time></trkpt><trkpt lat="38.9225054" lon="16.2607017"><ele>29.0</ele><time>2026-04-12T07:54:58.526Z</time></trkpt><trkpt lat="38.9223031" lon="16.2609959"><ele>29.0</ele><time>2026-04-12T07:54:59.528Z</time></trkpt><trkpt lat="38.9220948" lon="16.2612837"><ele>29.0</ele><time>2026-04-12T07:55:00.537Z</time></trkpt><trkpt lat="38.9218793" lon="16.2615637"><ele>29.5</ele><time>2026-04-12T07:55:01.54Z</time></trkpt><trkpt lat="38.9216548" lon="16.2618313"><ele>30.0</ele><time>2026-04-12T07:55:02.534Z</time></trkpt><trkpt lat="38.9214232" lon="16.2620882"><ele>29.5</ele><time>2026-04-12T07:55:03.518Z</time></trkpt><trkpt lat="38.921186" lon="16.262337"><ele>29.0</ele><time>2026-04-12T07:55:04.543Z</time></trkpt><trkpt lat="38.9209433" lon="16.2625781"><ele>29.0</ele><time>2026-04-12T07:55:05.523Z</time></trkpt><trkpt lat="38.9206967" lon="16.2628121"><ele>29.0</ele><time>2026-04-12T07:55:06.523Z</time></trkpt><trkpt lat="38.9204461" lon="16.2630414"><ele>28.5</ele><time>2026-04-12T07:55:07.533Z</time></trkpt><trkpt lat="38.920194" lon="16.2632682"><ele>28.0</ele><time>2026-04-12T07:55:08.534Z</time></trkpt><trkpt lat="38.919941" lon="16.2634918"><ele>28.0</ele><time>2026-04-12T07:55:09.524Z</time></trkpt><trkpt lat="38.919687" lon="16.2637134"><ele>28.0</ele><time>2026-04-12T07:55:10.53Z</time></trkpt><trkpt lat="38.9194324" lon="16.2639337"><ele>28.0</ele><time>2026-04-12T07:55:11.532Z</time></trkpt><trkpt lat="38.9191768" lon="16.2641513"><ele>28.0</ele><time>2026-04-12T07:55:12.527Z</time></trkpt><trkpt lat="38.9189144" lon="16.2643361"><ele>28.0</ele><time>2026-04-12T07:55:13.528Z</time></trkpt><trkpt lat="38.9186534" lon="16.2645349"><ele>28.0</ele><time>2026-04-12T07:55:14.53Z</time></trkpt><trkpt lat="38.9183942" lon="16.2647521"><ele>27.5</ele><time>2026-04-12T07:55:15.532Z</time></trkpt><trkpt lat="38.9181401" lon="16.2649583"><ele>27.0</ele><time>2026-04-12T07:55:16.531Z</time></trkpt><trkpt lat="38.9178907" lon="16.2651676"><ele>27.0</ele><time>2026-04-12T07:55:17.532Z</time></trkpt><trkpt lat="38.917647" lon="16.2653808"><ele>27.0</ele><time>2026-04-12T07:55:18.535Z</time></trkpt><trkpt lat="38.9174006" lon="16.2655914"><ele>28.0</ele><time>2026-04-12T07:55:19.54Z</time></trkpt><trkpt lat="38.9171533" lon="16.2658069"><ele>29.0</ele><time>2026-04-12T07:55:20.521Z</time></trkpt><trkpt lat="38.9169065" lon="16.2660219"><ele>28.5</ele><time>2026-04-12T07:55:21.536Z</time></trkpt><trkpt lat="38.9166595" lon="16.2662422"><ele>28.0</ele><time>2026-04-12T07:55:22.531Z</time></trkpt><trkpt lat="38.9164085" lon="16.2664595"><ele>28.0</ele><time>2026-04-12T07:55:23.523Z</time></trkpt><trkpt lat="38.9161576" lon="16.2666925"><ele>28.0</ele><time>2026-04-12T07:55:24.531Z</time></trkpt><trkpt lat="38.9159004" lon="16.2669281"><ele>28.0</ele><time>2026-04-12T07:55:25.527Z</time></trkpt><trkpt lat="38.9156384" lon="16.2671601"><ele>28.0</ele><time>2026-04-12T07:55:26.543Z</time></trkpt><trkpt lat="38.9153866" lon="16.2673892"><ele>28.0</ele><time>2026-04-12T07:55:27.535Z</time></trkpt><trkpt lat="38.9151346" lon="16.2676176"><ele>28.0</ele><time>2026-04-12T07:55:28.528Z</time></trkpt><trkpt lat="38.9148831" lon="16.267841"><ele>27.5</ele><time>2026-04-12T07:55:29.53Z</time></trkpt><trkpt lat="38.9146331" lon="16.2680641"><ele>27.0</ele><time>2026-04-12T07:55:30.524Z</time></trkpt><trkpt lat="38.9143881" lon="16.2682687"><ele>26.5</ele><time>2026-04-12T07:55:31.522Z</time></trkpt><trkpt lat="38.9141415" lon="16.2684867"><ele>26.0</ele><time>2026-04-12T07:55:32.527Z</time></trkpt><trkpt lat="38.9138979" lon="16.268705"><ele>26.0</ele><time>2026-04-12T07:55:33.527Z</time></trkpt><trkpt lat="38.9136535" lon="16.2689235"><ele>26.0</ele><time>2026-04-12T07:55:34.531Z</time></trkpt><trkpt lat="38.9134059" lon="16.269144"><ele>26.0</ele><time>2026-04-12T07:55:35.527Z</time></trkpt><trkpt lat="38.9131561" lon="16.2693649"><ele>26.0</ele><time>2026-04-12T07:55:36.527Z</time></trkpt><trkpt lat="38.9129083" lon="16.2695813"><ele>26.0</ele><time>2026-04-12T07:55:37.535Z</time></trkpt><trkpt lat="38.9126616" lon="16.2697987"><ele>26.0</ele><time>2026-04-12T07:55:38.522Z</time></trkpt><trkpt lat="38.9124178" lon="16.2700113"><ele>25.0</ele><time>2026-04-12T07:55:39.525Z</time></trkpt><trkpt lat="38.9121759" lon="16.270221"><ele>24.0</ele><time>2026-04-12T07:55:40.523Z</time></trkpt><trkpt lat="38.911935" lon="16.2704299"><ele>24.5</ele><time>2026-04-12T07:55:41.531Z</time></trkpt><trkpt lat="38.9116904" lon="16.2706426"><ele>25.0</ele><time>2026-04-12T07:55:42.55Z</time></trkpt><trkpt lat="38.9114463" lon="16.2708541"><ele>25.0</ele><time>2026-04-12T07:55:43.522Z</time></trkpt><trkpt lat="38.9112061" lon="16.2710646"><ele>25.0</ele><time>2026-04-12T07:55:44.524Z</time></trkpt><trkpt lat="38.910971" lon="16.2712733"><ele>25.0</ele><time>2026-04-12T07:55:45.529Z</time></trkpt><trkpt lat="38.9107374" lon="16.2714796"><ele>25.0</ele><time>2026-04-12T07:55:46.533Z</time></trkpt><trkpt lat="38.9105003" lon="16.2716867"><ele>25.0</ele><time>2026-04-12T07:55:47.526Z</time></trkpt><trkpt lat="38.9102594" lon="16.2718965"><ele>25.0</ele><time>2026-04-12T07:55:48.531Z</time></trkpt><trkpt lat="38.9100194" lon="16.2721058"><ele>25.0</ele><time>2026-04-12T07:55:49.531Z</time></trkpt><trkpt lat="38.9097784" lon="16.2723163"><ele>25.0</ele><time>2026-04-12T07:55:50.523Z</time></trkpt><trkpt lat="38.9095369" lon="16.2725268"><ele>25.0</ele><time>2026-04-12T07:55:51.526Z</time></trkpt><trkpt lat="38.909292" lon="16.2727351"><ele>25.0</ele><time>2026-04-12T07:55:52.532Z</time></trkpt><trkpt lat="38.9090469" lon="16.2729485"><ele>25.5</ele><time>2026-04-12T07:55:53.521Z</time></trkpt><trkpt lat="38.9088017" lon="16.2731649"><ele>26.0</ele><time>2026-04-12T07:55:54.532Z</time></trkpt><trkpt lat="38.9085524" lon="16.2733821"><ele>25.5</ele><time>2026-04-12T07:55:55.531Z</time></trkpt><trkpt lat="38.9083007" lon="16.273596"><ele>25.0</ele><time>2026-04-12T07:55:56.521Z</time></trkpt><trkpt lat="38.9080481" lon="16.2738125"><ele>25.5</ele><time>2026-04-12T07:55:57.528Z</time></trkpt><trkpt lat="38.9077967" lon="16.2740313"><ele>26.0</ele><time>2026-04-12T07:55:58.529Z</time></trkpt><trkpt lat="38.9075447" lon="16.2742426"><ele>26.0</ele><time>2026-04-12T07:55:59.534Z</time></trkpt><trkpt lat="38.9072886" lon="16.2744618"><ele>26.0</ele><time>2026-04-12T07:56:00.517Z</time></trkpt><trkpt lat="38.9070376" lon="16.274689"><ele>26.5</ele><time>2026-04-12T07:56:01.53Z</time></trkpt><trkpt lat="38.9067866" lon="16.2749092"><ele>27.0</ele><time>2026-04-12T07:56:02.528Z</time></trkpt><trkpt lat="38.9065375" lon="16.275122"><ele>25.0</ele><time>2026-04-12T07:56:03.517Z</time></trkpt><trkpt lat="38.906286" lon="16.2753339"><ele>23.0</ele><time>2026-04-12T07:56:04.536Z</time></trkpt><trkpt lat="38.9060362" lon="16.2755433"><ele>22.0</ele><time>2026-04-12T07:56:05.525Z</time></trkpt><trkpt lat="38.905788" lon="16.2757565"><ele>21.0</ele><time>2026-04-12T07:56:06.527Z</time></trkpt><trkpt lat="38.9055415" lon="16.275974"><ele>21.0</ele><time>2026-04-12T07:56:07.527Z</time></trkpt><trkpt lat="38.9052945" lon="16.2761895"><ele>21.0</ele><time>2026-04-12T07:56:08.527Z</time></trkpt><trkpt lat="38.9050436" lon="16.2764021"><ele>21.0</ele><time>2026-04-12T07:56:09.519Z</time></trkpt><trkpt lat="38.9047893" lon="16.2766129"><ele>21.0</ele><time>2026-04-12T07:56:10.529Z</time></trkpt><trkpt lat="38.9045238" lon="16.2768009"><ele>21.0</ele><time>2026-04-12T07:56:11.534Z</time></trkpt><trkpt lat="38.90426" lon="16.2769745"><ele>21.0</ele><time>2026-04-12T07:56:12.529Z</time></trkpt><trkpt lat="38.9039867" lon="16.2771355"><ele>20.0</ele><time>2026-04-12T07:56:13.524Z</time></trkpt><trkpt lat="38.9037014" lon="16.2773"><ele>19.0</ele><time>2026-04-12T07:56:14.525Z</time></trkpt><trkpt lat="38.9034132" lon="16.2774499"><ele>19.0</ele><time>2026-04-12T07:56:15.529Z</time></trkpt><trkpt lat="38.9031213" lon="16.2775889"><ele>19.0</ele><time>2026-04-12T07:56:16.535Z</time></trkpt><trkpt lat="38.9028215" lon="16.2777144"><ele>19.0</ele><time>2026-04-12T07:56:17.528Z</time></trkpt><trkpt lat="38.9025158" lon="16.2778294"><ele>19.0</ele><time>2026-04-12T07:56:18.519Z</time></trkpt><trkpt lat="38.90221" lon="16.2779287"><ele>19.0</ele><time>2026-04-12T07:56:19.529Z</time></trkpt><trkpt lat="38.9019005" lon="16.2780112"><ele>19.0</ele><time>2026-04-12T07:56:20.536Z</time></trkpt><trkpt lat="38.9015904" lon="16.2780813"><ele>19.0</ele><time>2026-04-12T07:56:21.519Z</time></trkpt><trkpt lat="38.9012799" lon="16.2781369"><ele>19.0</ele><time>2026-04-12T07:56:22.532Z</time></trkpt><trkpt lat="38.9009708" lon="16.2781885"><ele>19.5</ele><time>2026-04-12T07:56:23.533Z</time></trkpt><trkpt lat="38.9006587" lon="16.2782355"><ele>20.0</ele><time>2026-04-12T07:56:24.522Z</time></trkpt><trkpt lat="38.9003425" lon="16.2782842"><ele>19.5</ele><time>2026-04-12T07:56:25.532Z</time></trkpt><trkpt lat="38.900025" lon="16.2783328"><ele>19.0</ele><time>2026-04-12T07:56:26.53Z</time></trkpt><trkpt lat="38.8997068" lon="16.278382"><ele>19.0</ele><time>2026-04-12T07:56:27.522Z</time></trkpt><trkpt lat="38.8993897" lon="16.2784339"><ele>19.0</ele><time>2026-04-12T07:56:28.533Z</time></trkpt><trkpt lat="38.8990753" lon="16.2784872"><ele>18.5</ele><time>2026-04-12T07:56:29.529Z</time></trkpt><trkpt lat="38.8987625" lon="16.278537"><ele>18.0</ele><time>2026-04-12T07:56:30.526Z</time></trkpt><trkpt lat="38.89846" lon="16.2785911"><ele>19.0</ele><time>2026-04-12T07:56:31.523Z</time></trkpt><trkpt lat="38.8981606" lon="16.278636"><ele>20.0</ele><time>2026-04-12T07:56:32.531Z</time></trkpt><trkpt lat="38.8978689" lon="16.2786808"><ele>19.5</ele><time>2026-04-12T07:56:33.529Z</time></trkpt><trkpt lat="38.897583" lon="16.2787262"><ele>19.0</ele><time>2026-04-12T07:56:34.525Z</time></trkpt><trkpt lat="38.8972955" lon="16.2787705"><ele>19.0</ele><time>2026-04-12T07:56:35.539Z</time></trkpt><trkpt lat="38.8970094" lon="16.2788124"><ele>19.0</ele><time>2026-04-12T07:56:36.527Z</time></trkpt><trkpt lat="38.896726" lon="16.2788553"><ele>18.5</ele><time>2026-04-12T07:56:37.542Z</time></trkpt><trkpt lat="38.8964388" lon="16.278898"><ele>18.0</ele><time>2026-04-12T07:56:38.53Z</time></trkpt><trkpt lat="38.896151" lon="16.2789354"><ele>18.5</ele><time>2026-04-12T07:56:39.523Z</time></trkpt><trkpt lat="38.8958645" lon="16.2789752"><ele>19.0</ele><time>2026-04-12T07:56:40.541Z</time></trkpt><trkpt lat="38.8955701" lon="16.2790198"><ele>19.0</ele><time>2026-04-12T07:56:41.531Z</time></trkpt><trkpt lat="38.8952679" lon="16.2790698"><ele>19.0</ele><time>2026-04-12T07:56:42.542Z</time></trkpt><trkpt lat="38.8949578" lon="16.2791226"><ele>18.5</ele><time>2026-04-12T07:56:43.531Z</time></trkpt><trkpt lat="38.8946352" lon="16.2791572"><ele>18.0</ele><time>2026-04-12T07:56:44.531Z</time></trkpt><trkpt lat="38.8943022" lon="16.2792125"><ele>18.5</ele><time>2026-04-12T07:56:45.519Z</time></trkpt><trkpt lat="38.8939696" lon="16.2792665"><ele>19.0</ele><time>2026-04-12T07:56:46.533Z</time></trkpt><trkpt lat="38.8936502" lon="16.2793201"><ele>19.5</ele><time>2026-04-12T07:56:47.537Z</time></trkpt><trkpt lat="38.8933478" lon="16.2793677"><ele>20.0</ele><time>2026-04-12T07:56:48.524Z</time></trkpt><trkpt lat="38.8930581" lon="16.2794094"><ele>20.0</ele><time>2026-04-12T07:56:49.53Z</time></trkpt><trkpt lat="38.8927744" lon="16.2794552"><ele>20.0</ele><time>2026-04-12T07:56:50.531Z</time></trkpt><trkpt lat="38.892484" lon="16.2795028"><ele>20.0</ele><time>2026-04-12T07:56:51.53Z</time></trkpt><trkpt lat="38.8921915" lon="16.279546"><ele>20.0</ele><time>2026-04-12T07:56:52.529Z</time></trkpt><trkpt lat="38.8918876" lon="16.2795918"><ele>20.0</ele><time>2026-04-12T07:56:53.533Z</time></trkpt><trkpt lat="38.8915783" lon="16.2796367"><ele>20.0</ele><time>2026-04-12T07:56:54.531Z</time></trkpt><trkpt lat="38.8912687" lon="16.2796834"><ele>20.0</ele><time>2026-04-12T07:56:55.524Z</time></trkpt><trkpt lat="38.8909537" lon="16.2797257"><ele>20.0</ele><time>2026-04-12T07:56:56.524Z</time></trkpt><trkpt lat="38.8906301" lon="16.2797734"><ele>19.5</ele><time>2026-04-12T07:56:57.54Z</time></trkpt><trkpt lat="38.8903076" lon="16.2798199"><ele>19.0</ele><time>2026-04-12T07:56:58.533Z</time></trkpt><trkpt lat="38.8899855" lon="16.2798603"><ele>19.0</ele><time>2026-04-12T07:56:59.537Z</time></trkpt><trkpt lat="38.8896612" lon="16.2799025"><ele>19.0</ele><time>2026-04-12T07:57:00.536Z</time></trkpt><trkpt lat="38.8893401" lon="16.2799466"><ele>19.5</ele><time>2026-04-12T07:57:01.532Z</time></trkpt><trkpt lat="38.8890223" lon="16.279987"><ele>20.0</ele><time>2026-04-12T07:57:02.532Z</time></trkpt><trkpt lat="38.8887114" lon="16.2800276"><ele>20.0</ele><time>2026-04-12T07:57:03.534Z</time></trkpt><trkpt lat="38.8884082" lon="16.2800656"><ele>20.0</ele><time>2026-04-12T07:57:04.53Z</time></trkpt><trkpt lat="38.8881131" lon="16.2801092"><ele>20.0</ele><time>2026-04-12T07:57:05.529Z</time></trkpt><trkpt lat="38.8878244" lon="16.280154"><ele>20.0</ele><time>2026-04-12T07:57:06.529Z</time></trkpt><trkpt lat="38.8875377" lon="16.2801972"><ele>19.5</ele><time>2026-04-12T07:57:07.535Z</time></trkpt><trkpt lat="38.88725" lon="16.2802409"><ele>19.0</ele><time>2026-04-12T07:57:08.527Z</time></trkpt><trkpt lat="38.8869634" lon="16.2802834"><ele>20.0</ele><time>2026-04-12T07:57:09.533Z</time></trkpt><trkpt lat="38.8866749" lon="16.280326"><ele>21.0</ele><time>2026-04-12T07:57:10.527Z</time></trkpt><trkpt lat="38.8863838" lon="16.2803706"><ele>21.0</ele><time>2026-04-12T07:57:11.528Z</time></trkpt><trkpt lat="38.8860874" lon="16.2804186"><ele>21.0</ele><time>2026-04-12T07:57:12.54Z</time></trkpt><trkpt lat="38.88578" lon="16.2804688"><ele>20.0</ele><time>2026-04-12T07:57:13.536Z</time></trkpt><trkpt lat="38.8854649" lon="16.2805169"><ele>19.0</ele><time>2026-04-12T07:57:14.525Z</time></trkpt><trkpt lat="38.8851483" lon="16.2805648"><ele>19.0</ele><time>2026-04-12T07:57:15.539Z</time></trkpt><trkpt lat="38.8848333" lon="16.280611"><ele>19.0</ele><time>2026-04-12T07:57:16.525Z</time></trkpt><trkpt lat="38.8845194" lon="16.2806593"><ele>18.5</ele><time>2026-04-12T07:57:17.542Z</time></trkpt><trkpt lat="38.884207" lon="16.280707"><ele>18.0</ele><time>2026-04-12T07:57:18.522Z</time></trkpt><trkpt lat="38.8838974" lon="16.2807537"><ele>18.0</ele><time>2026-04-12T07:57:19.536Z</time></trkpt><trkpt lat="38.8835888" lon="16.2807993"><ele>18.0</ele><time>2026-04-12T07:57:20.529Z</time></trkpt><trkpt lat="38.88328" lon="16.2808464"><ele>19.0</ele><time>2026-04-12T07:57:21.531Z</time></trkpt><trkpt lat="38.8829724" lon="16.2808944"><ele>20.0</ele><time>2026-04-12T07:57:22.53Z</time></trkpt><trkpt lat="38.8826668" lon="16.2809414"><ele>19.5</ele><time>2026-04-12T07:57:23.536Z</time></trkpt><trkpt lat="38.8823635" lon="16.2809878"><ele>19.0</ele><time>2026-04-12T07:57:24.528Z</time></trkpt><trkpt lat="38.8820601" lon="16.2810344"><ele>19.5</ele><time>2026-04-12T07:57:25.541Z</time></trkpt><trkpt lat="38.8817546" lon="16.2810793"><ele>20.0</ele><time>2026-04-12T07:57:26.529Z</time></trkpt><trkpt lat="38.8814481" lon="16.2811234"><ele>20.0</ele><time>2026-04-12T07:57:27.539Z</time></trkpt><trkpt lat="38.8811422" lon="16.2811669"><ele>20.0</ele><time>2026-04-12T07:57:28.53Z</time></trkpt><trkpt lat="38.8808325" lon="16.2812063"><ele>19.5</ele><time>2026-04-12T07:57:29.535Z</time></trkpt><trkpt lat="38.8805214" lon="16.2812377"><ele>19.0</ele><time>2026-04-12T07:57:30.536Z</time></trkpt><trkpt lat="38.8802085" lon="16.2812624"><ele>19.0</ele><time>2026-04-12T07:57:31.535Z</time></trkpt><trkpt lat="38.8798962" lon="16.2812824"><ele>19.0</ele><time>2026-04-12T07:57:32.535Z</time></trkpt><trkpt lat="38.879585" lon="16.2812959"><ele>19.0</ele><time>2026-04-12T07:57:33.528Z</time></trkpt><trkpt lat="38.8792758" lon="16.2813067"><ele>19.0</ele><time>2026-04-12T07:57:34.528Z</time></trkpt><trkpt lat="38.8789682" lon="16.2813147"><ele>19.5</ele><time>2026-04-12T07:57:35.523Z</time></trkpt><trkpt lat="38.8786629" lon="16.281329"><ele>20.0</ele><time>2026-04-12T07:57:36.53Z</time></trkpt><trkpt lat="38.8783693" lon="16.2813306"><ele>20.0</ele><time>2026-04-12T07:57:37.534Z</time></trkpt><trkpt lat="38.8780849" lon="16.2813497"><ele>20.0</ele><time>2026-04-12T07:57:38.526Z</time></trkpt><trkpt lat="38.8778071" lon="16.2813615"><ele>20.0</ele><time>2026-04-12T07:57:39.532Z</time></trkpt><trkpt lat="38.8775441" lon="16.2813719"><ele>20.0</ele><time>2026-04-12T07:57:40.528Z</time></trkpt><trkpt lat="38.8772842" lon="16.2813738"><ele>20.0</ele><time>2026-04-12T07:57:41.531Z</time></trkpt><trkpt lat="38.8770287" lon="16.2813795"><ele>20.0</ele><time>2026-04-12T07:57:42.531Z</time></trkpt><trkpt lat="38.8767783" lon="16.281384"><ele>19.5</ele><time>2026-04-12T07:57:43.528Z</time></trkpt><trkpt lat="38.8765378" lon="16.2813917"><ele>19.0</ele><time>2026-04-12T07:57:44.527Z</time></trkpt><trkpt lat="38.876302" lon="16.281396"><ele>19.0</ele><time>2026-04-12T07:57:45.545Z</time></trkpt><trkpt lat="38.8760729" lon="16.2814014"><ele>19.0</ele><time>2026-04-12T07:57:46.53Z</time></trkpt><trkpt lat="38.8758432" lon="16.2814055"><ele>19.0</ele><time>2026-04-12T07:57:47.536Z</time></trkpt><trkpt lat="38.8756176" lon="16.2814111"><ele>19.0</ele><time>2026-04-12T07:57:48.532Z</time></trkpt><trkpt lat="38.8753919" lon="16.2814157"><ele>19.0</ele><time>2026-04-12T07:57:49.531Z</time></trkpt><trkpt lat="38.8751675" lon="16.2814222"><ele>19.0</ele><time>2026-04-12T07:57:50.532Z</time></trkpt><trkpt lat="38.8749456" lon="16.2814284"><ele>19.0</ele><time>2026-04-12T07:57:51.533Z</time></trkpt><trkpt lat="38.8747244" lon="16.2814311"><ele>21.666666666666664</ele><time>2026-04-12T07:57:52.532Z</time></trkpt><trkpt lat="38.8745054" lon="16.2814335"><ele>24.333333333333332</ele><time>2026-04-12T07:57:53.523Z</time></trkpt><trkpt lat="38.8742846" lon="16.2814364"><ele>27.0</ele><time>2026-04-12T07:57:54.522Z</time></trkpt><trkpt lat="38.8740621" lon="16.2814397"><ele>27.0</ele><time>2026-04-12T07:57:55.531Z</time></trkpt><trkpt lat="38.8738357" lon="16.2814431"><ele>27.0</ele><time>2026-04-12T07:57:56.527Z</time></trkpt><trkpt lat="38.8736055" lon="16.2814482"><ele>27.0</ele><time>2026-04-12T07:57:57.541Z</time></trkpt><trkpt lat="38.8733719" lon="16.2814568"><ele>27.0</ele><time>2026-04-12T07:57:58.527Z</time></trkpt><trkpt lat="38.8731319" lon="16.2814652"><ele>27.0</ele><time>2026-04-12T07:57:59.533Z</time></trkpt><trkpt lat="38.8728854" lon="16.2814735"><ele>27.0</ele><time>2026-04-12T07:58:00.526Z</time></trkpt><trkpt lat="38.8726333" lon="16.2814822"><ele>28.0</ele><time>2026-04-12T07:58:01.539Z</time></trkpt><trkpt lat="38.872375" lon="16.2814876"><ele>29.0</ele><time>2026-04-12T07:58:02.528Z</time></trkpt><trkpt lat="38.8721125" lon="16.2814928"><ele>29.0</ele><time>2026-04-12T07:58:03.538Z</time></trkpt><trkpt lat="38.8718382" lon="16.2814995"><ele>29.0</ele><time>2026-04-12T07:58:04.528Z</time></trkpt><trkpt lat="38.8715677" lon="16.2815133"><ele>29.5</ele><time>2026-04-12T07:58:05.526Z</time></trkpt><trkpt lat="38.8713024" lon="16.2814999"><ele>30.0</ele><time>2026-04-12T07:58:06.521Z</time></trkpt><trkpt lat="38.8710409" lon="16.2815061"><ele>31.5</ele><time>2026-04-12T07:58:07.534Z</time></trkpt><trkpt lat="38.8707721" lon="16.2815113"><ele>33.0</ele><time>2026-04-12T07:58:08.537Z</time></trkpt><trkpt lat="38.8704906" lon="16.281501"><ele>33.0</ele><time>2026-04-12T07:58:09.541Z</time></trkpt><trkpt lat="38.8702177" lon="16.2814748"><ele>33.0</ele><time>2026-04-12T07:58:10.532Z</time></trkpt><trkpt lat="38.8699441" lon="16.2814439"><ele>32.5</ele><time>2026-04-12T07:58:11.523Z</time></trkpt><trkpt lat="38.8696727" lon="16.2813909"><ele>32.0</ele><time>2026-04-12T07:58:12.536Z</time></trkpt><trkpt lat="38.8693984" lon="16.281319"><ele>31.5</ele><time>2026-04-12T07:58:13.541Z</time></trkpt><trkpt lat="38.8691243" lon="16.2812334"><ele>31.0</ele><time>2026-04-12T07:58:14.527Z</time></trkpt><trkpt lat="38.8688561" lon="16.2811323"><ele>31.0</ele><time>2026-04-12T07:58:15.531Z</time></trkpt><trkpt lat="38.8685929" lon="16.2810192"><ele>31.0</ele><time>2026-04-12T07:58:16.53Z</time></trkpt><trkpt lat="38.8683332" lon="16.2808894"><ele>31.0</ele><time>2026-04-12T07:58:17.529Z</time></trkpt><trkpt lat="38.8680778" lon="16.2807436"><ele>31.0</ele><time>2026-04-12T07:58:18.525Z</time></trkpt><trkpt lat="38.8678246" lon="16.2805885"><ele>30.5</ele><time>2026-04-12T07:58:19.523Z</time></trkpt><trkpt lat="38.8675759" lon="16.2804175"><ele>30.0</ele><time>2026-04-12T07:58:20.523Z</time></trkpt><trkpt lat="38.8673359" lon="16.2802291"><ele>30.0</ele><time>2026-04-12T07:58:21.531Z</time></trkpt><trkpt lat="38.8670964" lon="16.2800403"><ele>30.0</ele><time>2026-04-12T07:58:22.522Z</time></trkpt><trkpt lat="38.8668693" lon="16.2798258"><ele>30.5</ele><time>2026-04-12T07:58:23.531Z</time></trkpt><trkpt lat="38.8666432" lon="16.279609"><ele>31.0</ele><time>2026-04-12T07:58:24.536Z</time></trkpt><trkpt lat="38.8664314" lon="16.2794039"><ele>31.0</ele><time>2026-04-12T07:58:25.534Z</time></trkpt><trkpt lat="38.8662293" lon="16.2791985"><ele>31.0</ele><time>2026-04-12T07:58:26.529Z</time></trkpt><trkpt lat="38.86603" lon="16.2789943"><ele>30.5</ele><time>2026-04-12T07:58:27.532Z</time></trkpt><trkpt lat="38.8658242" lon="16.2787883"><ele>30.0</ele><time>2026-04-12T07:58:28.532Z</time></trkpt><trkpt lat="38.8656229" lon="16.2785815"><ele>30.0</ele><time>2026-04-12T07:58:29.525Z</time></trkpt><trkpt lat="38.865418" lon="16.278371"><ele>30.0</ele><time>2026-04-12T07:58:30.523Z</time></trkpt><trkpt lat="38.8652138" lon="16.2781664"><ele>29.5</ele><time>2026-04-12T07:58:31.528Z</time></trkpt><trkpt lat="38.8650127" lon="16.2779627"><ele>29.0</ele><time>2026-04-12T07:58:32.531Z</time></trkpt><trkpt lat="38.8648169" lon="16.2777635"><ele>29.0</ele><time>2026-04-12T07:58:33.53Z</time></trkpt><trkpt lat="38.8646213" lon="16.2775804"><ele>29.0</ele><time>2026-04-12T07:58:34.522Z</time></trkpt><trkpt lat="38.8644325" lon="16.2774018"><ele>27.5</ele><time>2026-04-12T07:58:35.538Z</time></trkpt><trkpt lat="38.8642445" lon="16.2772295"><ele>26.0</ele><time>2026-04-12T07:58:36.526Z</time></trkpt><trkpt lat="38.864049" lon="16.2770603"><ele>26.0</ele><time>2026-04-12T07:58:37.531Z</time></trkpt><trkpt lat="38.8638456" lon="16.2768965"><ele>26.0</ele><time>2026-04-12T07:58:38.525Z</time></trkpt><trkpt lat="38.8636385" lon="16.2767298"><ele>25.5</ele><time>2026-04-12T07:58:39.524Z</time></trkpt><trkpt lat="38.8634272" lon="16.2765741"><ele>25.0</ele><time>2026-04-12T07:58:40.521Z</time></trkpt><trkpt lat="38.8632134" lon="16.2764282"><ele>24.5</ele><time>2026-04-12T07:58:41.532Z</time></trkpt><trkpt lat="38.8629979" lon="16.2762908"><ele>24.0</ele><time>2026-04-12T07:58:42.522Z</time></trkpt><trkpt lat="38.8627786" lon="16.2761597"><ele>22.5</ele><time>2026-04-12T07:58:43.528Z</time></trkpt><trkpt lat="38.8625577" lon="16.276037"><ele>21.0</ele><time>2026-04-12T07:58:44.523Z</time></trkpt><trkpt lat="38.8623358" lon="16.2759226"><ele>21.0</ele><time>2026-04-12T07:58:45.52Z</time></trkpt><trkpt lat="38.8621185" lon="16.2758186"><ele>21.0</ele><time>2026-04-12T07:58:46.525Z</time></trkpt><trkpt lat="38.8619037" lon="16.2757215"><ele>19.5</ele><time>2026-04-12T07:58:47.531Z</time></trkpt><trkpt lat="38.8616888" lon="16.2756325"><ele>18.0</ele><time>2026-04-12T07:58:48.532Z</time></trkpt><trkpt lat="38.8614706" lon="16.2755528"><ele>17.0</ele><time>2026-04-12T07:58:49.523Z</time></trkpt><trkpt lat="38.8612485" lon="16.2754789"><ele>16.0</ele><time>2026-04-12T07:58:50.532Z</time></trkpt><trkpt lat="38.8610199" lon="16.2754071"><ele>16.5</ele><time>2026-04-12T07:58:51.534Z</time></trkpt><trkpt lat="38.8607853" lon="16.2753389"><ele>17.0</ele><time>2026-04-12T07:58:52.518Z</time></trkpt><trkpt lat="38.8605484" lon="16.2752728"><ele>17.0</ele><time>2026-04-12T07:58:53.534Z</time></trkpt><trkpt lat="38.8603144" lon="16.275207"><ele>17.0</ele><time>2026-04-12T07:58:54.533Z</time></trkpt><trkpt lat="38.8600844" lon="16.275145"><ele>18.0</ele><time>2026-04-12T07:58:55.53Z</time></trkpt><trkpt lat="38.8598614" lon="16.2750874"><ele>19.0</ele><time>2026-04-12T07:58:56.52Z</time></trkpt><trkpt lat="38.8596433" lon="16.2750288"><ele>19.0</ele><time>2026-04-12T07:58:57.53Z</time></trkpt><trkpt lat="38.8594281" lon="16.27497"><ele>19.0</ele><time>2026-04-12T07:58:58.527Z</time></trkpt><trkpt lat="38.8592125" lon="16.274911"><ele>19.0</ele><time>2026-04-12T07:58:59.523Z</time></trkpt><trkpt lat="38.8589984" lon="16.2748502"><ele>18.333333333333332</ele><time>2026-04-12T07:59:00.529Z</time></trkpt><trkpt lat="38.8587838" lon="16.2747837"><ele>17.666666666666668</ele><time>2026-04-12T07:59:01.537Z</time></trkpt><trkpt lat="38.858567" lon="16.2747105"><ele>17.0</ele><time>2026-04-12T07:59:02.529Z</time></trkpt><trkpt lat="38.8583486" lon="16.2746322"><ele>17.0</ele><time>2026-04-12T07:59:03.52Z</time></trkpt><trkpt lat="38.8581313" lon="16.2745469"><ele>17.0</ele><time>2026-04-12T07:59:04.534Z</time></trkpt><trkpt lat="38.8579138" lon="16.2744544"><ele>17.0</ele><time>2026-04-12T07:59:05.525Z</time></trkpt><trkpt lat="38.8576942" lon="16.2743587"><ele>17.0</ele><time>2026-04-12T07:59:06.521Z</time></trkpt><trkpt lat="38.8574802" lon="16.2742509"><ele>16.5</ele><time>2026-04-12T07:59:07.529Z</time></trkpt><trkpt lat="38.8572681" lon="16.2741395"><ele>16.0</ele><time>2026-04-12T07:59:08.524Z</time></trkpt><trkpt lat="38.8570572" lon="16.274016"><ele>15.5</ele><time>2026-04-12T07:59:09.521Z</time></trkpt><trkpt lat="38.8568513" lon="16.2738889"><ele>15.0</ele><time>2026-04-12T07:59:10.528Z</time></trkpt><trkpt lat="38.8566475" lon="16.2737532"><ele>16.0</ele><time>2026-04-12T07:59:11.529Z</time></trkpt><trkpt lat="38.8564433" lon="16.2736138"><ele>17.0</ele><time>2026-04-12T07:59:12.523Z</time></trkpt><trkpt lat="38.8562386" lon="16.2734649"><ele>17.0</ele><time>2026-04-12T07:59:13.533Z</time></trkpt><trkpt lat="38.8560334" lon="16.2733125"><ele>17.0</ele><time>2026-04-12T07:59:14.53Z</time></trkpt><trkpt lat="38.8558271" lon="16.2731552"><ele>18.5</ele><time>2026-04-12T07:59:15.527Z</time></trkpt><trkpt lat="38.8556206" lon="16.2729922"><ele>20.0</ele><time>2026-04-12T07:59:16.524Z</time></trkpt><trkpt lat="38.855416" lon="16.2728256"><ele>20.0</ele><time>2026-04-12T07:59:17.532Z</time></trkpt><trkpt lat="38.8552102" lon="16.2726573"><ele>20.0</ele><time>2026-04-12T07:59:18.526Z</time></trkpt><trkpt lat="38.8550038" lon="16.2724901"><ele>20.5</ele><time>2026-04-12T07:59:19.525Z</time></trkpt><trkpt lat="38.8547987" lon="16.2723215"><ele>21.0</ele><time>2026-04-12T07:59:20.528Z</time></trkpt><trkpt lat="38.8545918" lon="16.2721508"><ele>21.0</ele><time>2026-04-12T07:59:21.519Z</time></trkpt><trkpt lat="38.8543859" lon="16.2719804"><ele>21.0</ele><time>2026-04-12T07:59:22.525Z</time></trkpt><trkpt lat="38.8541797" lon="16.2718119"><ele>21.0</ele><time>2026-04-12T07:59:23.519Z</time></trkpt><trkpt lat="38.8539664" lon="16.2716376"><ele>21.0</ele><time>2026-04-12T07:59:24.525Z</time></trkpt><trkpt lat="38.8537517" lon="16.2714646"><ele>21.0</ele><time>2026-04-12T07:59:25.521Z</time></trkpt><trkpt lat="38.8535373" lon="16.2712917"><ele>21.0</ele><time>2026-04-12T07:59:26.52Z</time></trkpt><trkpt lat="38.8533222" lon="16.2711227"><ele>21.0</ele><time>2026-04-12T07:59:27.531Z</time></trkpt><trkpt lat="38.8531087" lon="16.2709509"><ele>21.0</ele><time>2026-04-12T07:59:28.52Z</time></trkpt><trkpt lat="38.8528913" lon="16.2707828"><ele>20.5</ele><time>2026-04-12T07:59:29.526Z</time></trkpt><trkpt lat="38.8526796" lon="16.270604"><ele>20.0</ele><time>2026-04-12T07:59:30.528Z</time></trkpt><trkpt lat="38.8524711" lon="16.2704362"><ele>21.5</ele><time>2026-04-12T07:59:31.527Z</time></trkpt><trkpt lat="38.8522641" lon="16.2702665"><ele>23.0</ele><time>2026-04-12T07:59:32.528Z</time></trkpt><trkpt lat="38.8520574" lon="16.2700977"><ele>23.0</ele><time>2026-04-12T07:59:33.519Z</time></trkpt><trkpt lat="38.8518484" lon="16.2699304"><ele>23.0</ele><time>2026-04-12T07:59:34.532Z</time></trkpt><trkpt lat="38.8516362" lon="16.2697568"><ele>21.5</ele><time>2026-04-12T07:59:35.533Z</time></trkpt><trkpt lat="38.8514261" lon="16.2695826"><ele>20.0</ele><time>2026-04-12T07:59:36.53Z</time></trkpt><trkpt lat="38.8512138" lon="16.2694101"><ele>20.0</ele><time>2026-04-12T07:59:37.537Z</time></trkpt><trkpt lat="38.8510009" lon="16.2692355"><ele>20.0</ele><time>2026-04-12T07:59:38.541Z</time></trkpt><trkpt lat="38.8507925" lon="16.2690629"><ele>20.5</ele><time>2026-04-12T07:59:39.537Z</time></trkpt><trkpt lat="38.8505789" lon="16.2688906"><ele>21.0</ele><time>2026-04-12T07:59:40.53Z</time></trkpt><trkpt lat="38.8503714" lon="16.268724"><ele>21.0</ele><time>2026-04-12T07:59:41.526Z</time></trkpt><trkpt lat="38.8501678" lon="16.268561"><ele>21.0</ele><time>2026-04-12T07:59:42.542Z</time></trkpt><trkpt lat="38.8499678" lon="16.2683964"><ele>21.5</ele><time>2026-04-12T07:59:43.536Z</time></trkpt><trkpt lat="38.849771" lon="16.2682376"><ele>22.0</ele><time>2026-04-12T07:59:44.531Z</time></trkpt><trkpt lat="38.8495777" lon="16.268074"><ele>22.0</ele><time>2026-04-12T07:59:45.529Z</time></trkpt><trkpt lat="38.8493744" lon="16.2679136"><ele>22.0</ele><time>2026-04-12T07:59:46.522Z</time></trkpt><trkpt lat="38.8491659" lon="16.2677512"><ele>23.0</ele><time>2026-04-12T07:59:47.533Z</time></trkpt><trkpt lat="38.8489771" lon="16.2675924"><ele>24.0</ele><time>2026-04-12T07:59:48.524Z</time></trkpt><trkpt lat="38.8487759" lon="16.2674297"><ele>23.5</ele><time>2026-04-12T07:59:49.519Z</time></trkpt><trkpt lat="38.8485804" lon="16.2672739"><ele>23.0</ele><time>2026-04-12T07:59:50.522Z</time></trkpt><trkpt lat="38.8483902" lon="16.2671158"><ele>24.0</ele><time>2026-04-12T07:59:51.524Z</time></trkpt><trkpt lat="38.8481941" lon="16.2669548"><ele>25.0</ele><time>2026-04-12T07:59:52.536Z</time></trkpt><trkpt lat="38.8479945" lon="16.2668035"><ele>25.0</ele><time>2026-04-12T07:59:53.523Z</time></trkpt><trkpt lat="38.8478019" lon="16.2666395"><ele>25.0</ele><time>2026-04-12T07:59:54.536Z</time></trkpt><trkpt lat="38.8476066" lon="16.2664801"><ele>25.5</ele><time>2026-04-12T07:59:55.53Z</time></trkpt><trkpt lat="38.8474064" lon="16.2663175"><ele>26.0</ele><time>2026-04-12T07:59:56.521Z</time></trkpt><trkpt lat="38.8471998" lon="16.2661585"><ele>26.0</ele><time>2026-04-12T07:59:57.529Z</time></trkpt><trkpt lat="38.8469953" lon="16.2659883"><ele>26.0</ele><time>2026-04-12T07:59:58.53Z</time></trkpt><trkpt lat="38.8467868" lon="16.2658228"><ele>26.5</ele><time>2026-04-12T07:59:59.523Z</time></trkpt><trkpt lat="38.8465813" lon="16.265657"><ele>27.0</ele><time>2026-04-12T08:00:00.528Z</time></trkpt><trkpt lat="38.8463772" lon="16.2655007"><ele>27.5</ele><time>2026-04-12T08:00:01.526Z</time></trkpt><trkpt lat="38.846175" lon="16.2653497"><ele>28.0</ele><time>2026-04-12T08:00:02.518Z</time></trkpt><trkpt lat="38.8459716" lon="16.2651998"><ele>27.5</ele><time>2026-04-12T08:00:03.53Z</time></trkpt><trkpt lat="38.8457678" lon="16.2650512"><ele>27.0</ele><time>2026-04-12T08:00:04.532Z</time></trkpt><trkpt lat="38.8455604" lon="16.2649073"><ele>27.0</ele><time>2026-04-12T08:00:05.525Z</time></trkpt><trkpt lat="38.8453481" lon="16.2647708"><ele>27.0</ele><time>2026-04-12T08:00:06.533Z</time></trkpt><trkpt lat="38.8451324" lon="16.2646371"><ele>28.0</ele><time>2026-04-12T08:00:07.537Z</time></trkpt><trkpt lat="38.8449155" lon="16.2645035"><ele>29.0</ele><time>2026-04-12T08:00:08.539Z</time></trkpt><trkpt lat="38.8447012" lon="16.2643742"><ele>29.0</ele><time>2026-04-12T08:00:09.527Z</time></trkpt><trkpt lat="38.8444885" lon="16.2642493"><ele>29.0</ele><time>2026-04-12T08:00:10.525Z</time></trkpt><trkpt lat="38.8442746" lon="16.2641283"><ele>28.5</ele><time>2026-04-12T08:00:11.524Z</time></trkpt><trkpt lat="38.8440608" lon="16.264014"><ele>28.0</ele><time>2026-04-12T08:00:12.521Z</time></trkpt><trkpt lat="38.8438509" lon="16.2639047"><ele>27.5</ele><time>2026-04-12T08:00:13.529Z</time></trkpt><trkpt lat="38.843639" lon="16.2637977"><ele>27.0</ele><time>2026-04-12T08:00:14.526Z</time></trkpt><trkpt lat="38.843426" lon="16.26369"><ele>28.0</ele><time>2026-04-12T08:00:15.528Z</time></trkpt><trkpt lat="38.8432151" lon="16.2635812"><ele>29.0</ele><time>2026-04-12T08:00:16.537Z</time></trkpt><trkpt lat="38.8430019" lon="16.2634735"><ele>29.0</ele><time>2026-04-12T08:00:17.532Z</time></trkpt><trkpt lat="38.8427855" lon="16.2633679"><ele>29.0</ele><time>2026-04-12T08:00:18.529Z</time></trkpt><trkpt lat="38.8425679" lon="16.263262"><ele>29.5</ele><time>2026-04-12T08:00:19.534Z</time></trkpt><trkpt lat="38.8423487" lon="16.2631545"><ele>30.0</ele><time>2026-04-12T08:00:20.533Z</time></trkpt><trkpt lat="38.8421277" lon="16.2630443"><ele>30.0</ele><time>2026-04-12T08:00:21.527Z</time></trkpt><trkpt lat="38.8418995" lon="16.2629312"><ele>30.0</ele><time>2026-04-12T08:00:22.533Z</time></trkpt><trkpt lat="38.8416679" lon="16.2628145"><ele>31.0</ele><time>2026-04-12T08:00:23.535Z</time></trkpt><trkpt lat="38.8414361" lon="16.2627003"><ele>32.0</ele><time>2026-04-12T08:00:24.533Z</time></trkpt><trkpt lat="38.8412031" lon="16.2625781"><ele>32.0</ele><time>2026-04-12T08:00:25.534Z</time></trkpt><trkpt lat="38.8409779" lon="16.262459"><ele>32.0</ele><time>2026-04-12T08:00:26.521Z</time></trkpt><trkpt lat="38.8407582" lon="16.2623315"><ele>31.0</ele><time>2026-04-12T08:00:27.528Z</time></trkpt><trkpt lat="38.8405422" lon="16.2622041"><ele>30.0</ele><time>2026-04-12T08:00:28.529Z</time></trkpt><trkpt lat="38.8403296" lon="16.2620768"><ele>33.0</ele><time>2026-04-12T08:00:29.529Z</time></trkpt><trkpt lat="38.8401212" lon="16.2619428"><ele>36.0</ele><time>2026-04-12T08:00:30.533Z</time></trkpt><trkpt lat="38.8399157" lon="16.2618032"><ele>36.0</ele><time>2026-04-12T08:00:31.534Z</time></trkpt><trkpt lat="38.8397092" lon="16.2616616"><ele>36.0</ele><time>2026-04-12T08:00:32.527Z</time></trkpt><trkpt lat="38.8395021" lon="16.2615201"><ele>34.0</ele><time>2026-04-12T08:00:33.528Z</time></trkpt><trkpt lat="38.8392921" lon="16.2613706"><ele>32.0</ele><time>2026-04-12T08:00:34.535Z</time></trkpt><trkpt lat="38.8390899" lon="16.2612207"><ele>32.0</ele><time>2026-04-12T08:00:35.53Z</time></trkpt><trkpt lat="38.8388873" lon="16.2610592"><ele>32.0</ele><time>2026-04-12T08:00:36.525Z</time></trkpt><trkpt lat="38.8386788" lon="16.2609008"><ele>32.0</ele><time>2026-04-12T08:00:37.531Z</time></trkpt><trkpt lat="38.8384767" lon="16.2607429"><ele>32.0</ele><time>2026-04-12T08:00:38.533Z</time></trkpt><trkpt lat="38.8382731" lon="16.2605769"><ele>31.0</ele><time>2026-04-12T08:00:39.54Z</time></trkpt><trkpt lat="38.8380707" lon="16.2604043"><ele>30.0</ele><time>2026-04-12T08:00:40.528Z</time></trkpt><trkpt lat="38.8378717" lon="16.260231"><ele>30.0</ele><time>2026-04-12T08:00:41.531Z</time></trkpt><trkpt lat="38.8376733" lon="16.2600567"><ele>30.0</ele><time>2026-04-12T08:00:42.534Z</time></trkpt><trkpt lat="38.837473" lon="16.2598863"><ele>28.5</ele><time>2026-04-12T08:00:43.525Z</time></trkpt><trkpt lat="38.837276" lon="16.2597171"><ele>27.0</ele><time>2026-04-12T08:00:44.53Z</time></trkpt><trkpt lat="38.8370805" lon="16.2595531"><ele>27.0</ele><time>2026-04-12T08:00:45.54Z</time></trkpt><trkpt lat="38.8368873" lon="16.2593927"><ele>27.0</ele><time>2026-04-12T08:00:46.528Z</time></trkpt><trkpt lat="38.8366928" lon="16.2592361"><ele>27.5</ele><time>2026-04-12T08:00:47.525Z</time></trkpt><trkpt lat="38.8364994" lon="16.2590776"><ele>28.0</ele><time>2026-04-12T08:00:48.529Z</time></trkpt><trkpt lat="38.8363048" lon="16.2589169"><ele>28.0</ele><time>2026-04-12T08:00:49.528Z</time></trkpt><trkpt lat="38.8361045" lon="16.2587566"><ele>28.0</ele><time>2026-04-12T08:00:50.524Z</time></trkpt><trkpt lat="38.8358961" lon="16.2585959"><ele>28.5</ele><time>2026-04-12T08:00:51.537Z</time></trkpt><trkpt lat="38.8356835" lon="16.2584384"><ele>29.0</ele><time>2026-04-12T08:00:52.531Z</time></trkpt><trkpt lat="38.8354687" lon="16.2582836"><ele>29.0</ele><time>2026-04-12T08:00:53.533Z</time></trkpt><trkpt lat="38.8352529" lon="16.2581319"><ele>29.0</ele><time>2026-04-12T08:00:54.531Z</time></trkpt><trkpt lat="38.8350339" lon="16.2579821"><ele>29.0</ele><time>2026-04-12T08:00:55.54Z</time></trkpt><trkpt lat="38.8348157" lon="16.2578339"><ele>29.0</ele><time>2026-04-12T08:00:56.525Z</time></trkpt><trkpt lat="38.8345989" lon="16.257686"><ele>29.0</ele><time>2026-04-12T08:00:57.532Z</time></trkpt><trkpt lat="38.834383" lon="16.2575395"><ele>29.0</ele><time>2026-04-12T08:00:58.525Z</time></trkpt><trkpt lat="38.8341638" lon="16.2573918"><ele>28.5</ele><time>2026-04-12T08:00:59.526Z</time></trkpt><trkpt lat="38.8339448" lon="16.2572435"><ele>28.0</ele><time>2026-04-12T08:01:00.537Z</time></trkpt><trkpt lat="38.8337264" lon="16.2570937"><ele>28.0</ele><time>2026-04-12T08:01:01.54Z</time></trkpt><trkpt lat="38.8335084" lon="16.2569437"><ele>28.0</ele><time>2026-04-12T08:01:02.529Z</time></trkpt><trkpt lat="38.8332907" lon="16.2567964"><ele>27.0</ele><time>2026-04-12T08:01:03.537Z</time></trkpt><trkpt lat="38.8330761" lon="16.2566547"><ele>26.0</ele><time>2026-04-12T08:01:04.531Z</time></trkpt><trkpt lat="38.8328666" lon="16.2565161"><ele>26.0</ele><time>2026-04-12T08:01:05.528Z</time></trkpt><trkpt lat="38.8326613" lon="16.2563767"><ele>26.0</ele><time>2026-04-12T08:01:06.525Z</time></trkpt><trkpt lat="38.8324589" lon="16.2562403"><ele>26.0</ele><time>2026-04-12T08:01:07.542Z</time></trkpt><trkpt lat="38.8322618" lon="16.2561085"><ele>26.0</ele><time>2026-04-12T08:01:08.522Z</time></trkpt><trkpt lat="38.832067" lon="16.2559759"><ele>26.0</ele><time>2026-04-12T08:01:09.53Z</time></trkpt><trkpt lat="38.8318742" lon="16.2558435"><ele>25.666666666666664</ele><time>2026-04-12T08:01:10.53Z</time></trkpt><trkpt lat="38.8316805" lon="16.2557135"><ele>25.333333333333336</ele><time>2026-04-12T08:01:11.531Z</time></trkpt><trkpt lat="38.8314841" lon="16.2555832"><ele>25.0</ele><time>2026-04-12T08:01:12.53Z</time></trkpt><trkpt lat="38.8312862" lon="16.2554481"><ele>25.0</ele><time>2026-04-12T08:01:13.534Z</time></trkpt><trkpt lat="38.8310858" lon="16.2553111"><ele>25.0</ele><time>2026-04-12T08:01:14.529Z</time></trkpt><trkpt lat="38.8308813" lon="16.2551741"><ele>25.5</ele><time>2026-04-12T08:01:15.522Z</time></trkpt><trkpt lat="38.8306741" lon="16.2550362"><ele>26.0</ele><time>2026-04-12T08:01:16.525Z</time></trkpt><trkpt lat="38.8304643" lon="16.2548948"><ele>25.5</ele><time>2026-04-12T08:01:17.527Z</time></trkpt><trkpt lat="38.830253" lon="16.2547487"><ele>25.0</ele><time>2026-04-12T08:01:18.527Z</time></trkpt><trkpt lat="38.8300414" lon="16.2546022"><ele>25.0</ele><time>2026-04-12T08:01:19.527Z</time></trkpt><trkpt lat="38.8298296" lon="16.2544561"><ele>25.0</ele><time>2026-04-12T08:01:20.531Z</time></trkpt><trkpt lat="38.8296174" lon="16.2543107"><ele>25.0</ele><time>2026-04-12T08:01:21.534Z</time></trkpt><trkpt lat="38.8294058" lon="16.2541632"><ele>25.0</ele><time>2026-04-12T08:01:22.525Z</time></trkpt><trkpt lat="38.8291953" lon="16.2540137"><ele>23.5</ele><time>2026-04-12T08:01:23.527Z</time></trkpt><trkpt lat="38.8289867" lon="16.2538636"><ele>22.0</ele><time>2026-04-12T08:01:24.535Z</time></trkpt><trkpt lat="38.828778" lon="16.2537121"><ele>22.0</ele><time>2026-04-12T08:01:25.536Z</time></trkpt><trkpt lat="38.8285685" lon="16.2535587"><ele>22.0</ele><time>2026-04-12T08:01:26.529Z</time></trkpt><trkpt lat="38.8283612" lon="16.2534039"><ele>22.5</ele><time>2026-04-12T08:01:27.538Z</time></trkpt><trkpt lat="38.8281563" lon="16.253247"><ele>23.0</ele><time>2026-04-12T08:01:28.517Z</time></trkpt><trkpt lat="38.8279528" lon="16.2530869"><ele>22.0</ele><time>2026-04-12T08:01:29.531Z</time></trkpt><trkpt lat="38.8277497" lon="16.2529232"><ele>21.0</ele><time>2026-04-12T08:01:30.529Z</time></trkpt><trkpt lat="38.8275473" lon="16.2527575"><ele>23.0</ele><time>2026-04-12T08:01:31.539Z</time></trkpt><trkpt lat="38.8273475" lon="16.2525891"><ele>25.0</ele><time>2026-04-12T08:01:32.544Z</time></trkpt><trkpt lat="38.8271491" lon="16.2524172"><ele>23.0</ele><time>2026-04-12T08:01:33.541Z</time></trkpt><trkpt lat="38.8269517" lon="16.2522412"><ele>21.0</ele><time>2026-04-12T08:01:34.529Z</time></trkpt><trkpt lat="38.8267546" lon="16.2520615"><ele>21.0</ele><time>2026-04-12T08:01:35.527Z</time></trkpt><trkpt lat="38.8265628" lon="16.2518837"><ele>21.0</ele><time>2026-04-12T08:01:36.529Z</time></trkpt><trkpt lat="38.8263768" lon="16.2517075"><ele>21.0</ele><time>2026-04-12T08:01:37.534Z</time></trkpt><trkpt lat="38.8261908" lon="16.2515259"><ele>21.0</ele><time>2026-04-12T08:01:38.532Z</time></trkpt><trkpt lat="38.8260062" lon="16.2513367"><ele>20.0</ele><time>2026-04-12T08:01:39.522Z</time></trkpt><trkpt lat="38.8258233" lon="16.2511383"><ele>19.0</ele><time>2026-04-12T08:01:40.537Z</time></trkpt><trkpt lat="38.8256424" lon="16.2509343"><ele>19.0</ele><time>2026-04-12T08:01:41.527Z</time></trkpt><trkpt lat="38.8254667" lon="16.2507281"><ele>19.0</ele><time>2026-04-12T08:01:42.532Z</time></trkpt><trkpt lat="38.8252958" lon="16.2505212"><ele>19.0</ele><time>2026-04-12T08:01:43.529Z</time></trkpt><trkpt lat="38.8251269" lon="16.2503118"><ele>19.0</ele><time>2026-04-12T08:01:44.52Z</time></trkpt><trkpt lat="38.8249611" lon="16.2500971"><ele>19.0</ele><time>2026-04-12T08:01:45.528Z</time></trkpt><trkpt lat="38.8247983" lon="16.2498767"><ele>19.0</ele><time>2026-04-12T08:01:46.523Z</time></trkpt><trkpt lat="38.8246414" lon="16.2496557"><ele>18.666666666666664</ele><time>2026-04-12T08:01:47.523Z</time></trkpt><trkpt lat="38.8244937" lon="16.2494392"><ele>18.333333333333332</ele><time>2026-04-12T08:01:48.521Z</time></trkpt><trkpt lat="38.8243542" lon="16.2492256"><ele>18.0</ele><time>2026-04-12T08:01:49.525Z</time></trkpt><trkpt lat="38.8242218" lon="16.2490129"><ele>18.333333333333332</ele><time>2026-04-12T08:01:50.535Z</time></trkpt><trkpt lat="38.8240932" lon="16.2487997"><ele>18.666666666666664</ele><time>2026-04-12T08:01:51.533Z</time></trkpt><trkpt lat="38.8239678" lon="16.2485824"><ele>19.0</ele><time>2026-04-12T08:01:52.52Z</time></trkpt><trkpt lat="38.8238455" lon="16.2483597"><ele>19.0</ele><time>2026-04-12T08:01:53.519Z</time></trkpt><trkpt lat="38.8237249" lon="16.248131"><ele>19.0</ele><time>2026-04-12T08:01:54.533Z</time></trkpt><trkpt lat="38.8236055" lon="16.2478971"><ele>19.0</ele><time>2026-04-12T08:01:55.527Z</time></trkpt><trkpt lat="38.823485" lon="16.247658"><ele>19.0</ele><time>2026-04-12T08:01:56.523Z</time></trkpt><trkpt lat="38.8233661" lon="16.2474113"><ele>19.0</ele><time>2026-04-12T08:01:57.517Z</time></trkpt><trkpt lat="38.8232492" lon="16.2471572"><ele>19.5</ele><time>2026-04-12T08:01:58.521Z</time></trkpt><trkpt lat="38.8231309" lon="16.2468964"><ele>20.0</ele><time>2026-04-12T08:01:59.53Z</time></trkpt><trkpt lat="38.8230116" lon="16.2466285"><ele>20.5</ele><time>2026-04-12T08:02:00.525Z</time></trkpt><trkpt lat="38.8228936" lon="16.2463556"><ele>21.0</ele><time>2026-04-12T08:02:01.523Z</time></trkpt><trkpt lat="38.8227772" lon="16.2460802"><ele>21.0</ele><time>2026-04-12T08:02:02.524Z</time></trkpt><trkpt lat="38.8226628" lon="16.2458011"><ele>21.0</ele><time>2026-04-12T08:02:03.527Z</time></trkpt><trkpt lat="38.8225484" lon="16.2455175"><ele>20.5</ele><time>2026-04-12T08:02:04.527Z</time></trkpt><trkpt lat="38.8224337" lon="16.2452315"><ele>20.0</ele><time>2026-04-12T08:02:05.519Z</time></trkpt><trkpt lat="38.8223186" lon="16.2449425"><ele>20.0</ele><time>2026-04-12T08:02:06.516Z</time></trkpt><trkpt lat="38.8222028" lon="16.2446527"><ele>20.0</ele><time>2026-04-12T08:02:07.528Z</time></trkpt><trkpt lat="38.8220855" lon="16.2443621"><ele>20.0</ele><time>2026-04-12T08:02:08.528Z</time></trkpt><trkpt lat="38.8219688" lon="16.2440744"><ele>20.0</ele><time>2026-04-12T08:02:09.521Z</time></trkpt><trkpt lat="38.8218529" lon="16.2437896"><ele>21.0</ele><time>2026-04-12T08:02:10.52Z</time></trkpt><trkpt lat="38.8217364" lon="16.2435051"><ele>22.0</ele><time>2026-04-12T08:02:11.527Z</time></trkpt><trkpt lat="38.821615" lon="16.2432418"><ele>22.0</ele><time>2026-04-12T08:02:12.528Z</time></trkpt><trkpt lat="38.8215004" lon="16.2429776"><ele>22.0</ele><time>2026-04-12T08:02:13.524Z</time></trkpt><trkpt lat="38.8213827" lon="16.2427081"><ele>22.0</ele><time>2026-04-12T08:02:14.53Z</time></trkpt><trkpt lat="38.821261" lon="16.2424482"><ele>22.0</ele><time>2026-04-12T08:02:15.533Z</time></trkpt><trkpt lat="38.8211424" lon="16.2421862"><ele>21.0</ele><time>2026-04-12T08:02:16.529Z</time></trkpt><trkpt lat="38.8210197" lon="16.2419259"><ele>20.0</ele><time>2026-04-12T08:02:17.525Z</time></trkpt><trkpt lat="38.8208947" lon="16.2416702"><ele>19.5</ele><time>2026-04-12T08:02:18.532Z</time></trkpt><trkpt lat="38.8207667" lon="16.2414206"><ele>19.0</ele><time>2026-04-12T08:02:19.539Z</time></trkpt><trkpt lat="38.8206349" lon="16.2411706"><ele>19.0</ele><time>2026-04-12T08:02:20.525Z</time></trkpt><trkpt lat="38.8205029" lon="16.2409278"><ele>19.0</ele><time>2026-04-12T08:02:21.53Z</time></trkpt><trkpt lat="38.8203662" lon="16.2406943"><ele>19.0</ele><time>2026-04-12T08:02:22.528Z</time></trkpt><trkpt lat="38.8202285" lon="16.2404625"><ele>19.0</ele><time>2026-04-12T08:02:23.527Z</time></trkpt><trkpt lat="38.8200855" lon="16.2402322"><ele>17.5</ele><time>2026-04-12T08:02:24.532Z</time></trkpt><trkpt lat="38.8199378" lon="16.2400046"><ele>16.0</ele><time>2026-04-12T08:02:25.536Z</time></trkpt><trkpt lat="38.8197868" lon="16.2397826"><ele>15.5</ele><time>2026-04-12T08:02:26.532Z</time></trkpt><trkpt lat="38.8196328" lon="16.2395653"><ele>15.0</ele><time>2026-04-12T08:02:27.532Z</time></trkpt><trkpt lat="38.8194741" lon="16.2393465"><ele>14.5</ele><time>2026-04-12T08:02:28.532Z</time></trkpt><trkpt lat="38.8193087" lon="16.2391284"><ele>14.0</ele><time>2026-04-12T08:02:29.533Z</time></trkpt><trkpt lat="38.8191382" lon="16.2389139"><ele>14.0</ele><time>2026-04-12T08:02:30.532Z</time></trkpt><trkpt lat="38.8189636" lon="16.2387047"><ele>14.0</ele><time>2026-04-12T08:02:31.523Z</time></trkpt><trkpt lat="38.8187862" lon="16.2384988"><ele>14.0</ele><time>2026-04-12T08:02:32.528Z</time></trkpt><trkpt lat="38.8186073" lon="16.2382993"><ele>14.0</ele><time>2026-04-12T08:02:33.526Z</time></trkpt><trkpt lat="38.8184269" lon="16.2381086"><ele>15.5</ele><time>2026-04-12T08:02:34.533Z</time></trkpt><trkpt lat="38.8182475" lon="16.2379277"><ele>17.0</ele><time>2026-04-12T08:02:35.525Z</time></trkpt><trkpt lat="38.818068" lon="16.237754"><ele>17.0</ele><time>2026-04-12T08:02:36.544Z</time></trkpt><trkpt lat="38.8178872" lon="16.2375824"><ele>17.0</ele><time>2026-04-12T08:02:37.521Z</time></trkpt><trkpt lat="38.8177025" lon="16.2374133"><ele>17.5</ele><time>2026-04-12T08:02:38.519Z</time></trkpt><trkpt lat="38.8175143" lon="16.2372479"><ele>18.0</ele><time>2026-04-12T08:02:39.529Z</time></trkpt><trkpt lat="38.8173221" lon="16.237085"><ele>18.0</ele><time>2026-04-12T08:02:40.527Z</time></trkpt><trkpt lat="38.8171281" lon="16.2369262"><ele>18.0</ele><time>2026-04-12T08:02:41.52Z</time></trkpt><trkpt lat="38.816933" lon="16.2367737"><ele>19.5</ele><time>2026-04-12T08:02:42.522Z</time></trkpt><trkpt lat="38.8167348" lon="16.2366277"><ele>21.0</ele><time>2026-04-12T08:02:43.528Z</time></trkpt><trkpt lat="38.8165347" lon="16.236489"><ele>17.5</ele><time>2026-04-12T08:02:44.532Z</time></trkpt><trkpt lat="38.8163333" lon="16.2363562"><ele>14.0</ele><time>2026-04-12T08:02:45.545Z</time></trkpt><trkpt lat="38.8161316" lon="16.2362251"><ele>16.5</ele><time>2026-04-12T08:02:46.534Z</time></trkpt><trkpt lat="38.8159275" lon="16.2360971"><ele>19.0</ele><time>2026-04-12T08:02:47.535Z</time></trkpt><trkpt lat="38.8157222" lon="16.2359757"><ele>19.0</ele><time>2026-04-12T08:02:48.536Z</time></trkpt><trkpt lat="38.815516" lon="16.2358597"><ele>19.0</ele><time>2026-04-12T08:02:49.538Z</time></trkpt><trkpt lat="38.8153078" lon="16.2357469"><ele>16.5</ele><time>2026-04-12T08:02:50.545Z</time></trkpt><trkpt lat="38.8150977" lon="16.2356362"><ele>14.0</ele><time>2026-04-12T08:02:51.535Z</time></trkpt><trkpt lat="38.8148836" lon="16.2355274"><ele>14.0</ele><time>2026-04-12T08:02:52.538Z</time></trkpt><trkpt lat="38.8146658" lon="16.2354189"><ele>14.0</ele><time>2026-04-12T08:02:53.537Z</time></trkpt><trkpt lat="38.8144443" lon="16.2353101"><ele>16.0</ele><time>2026-04-12T08:02:54.528Z</time></trkpt><trkpt lat="38.8142176" lon="16.2352015"><ele>18.0</ele><time>2026-04-12T08:02:55.535Z</time></trkpt><trkpt lat="38.8139872" lon="16.2350941"><ele>18.0</ele><time>2026-04-12T08:02:56.527Z</time></trkpt><trkpt lat="38.8137556" lon="16.2349876"><ele>18.0</ele><time>2026-04-12T08:02:57.519Z</time></trkpt><trkpt lat="38.8135233" lon="16.2348819"><ele>14.5</ele><time>2026-04-12T08:02:58.533Z</time></trkpt><trkpt lat="38.8132946" lon="16.2347776"><ele>11.0</ele><time>2026-04-12T08:02:59.529Z</time></trkpt><trkpt lat="38.8130688" lon="16.2346754"><ele>11.0</ele><time>2026-04-12T08:03:00.535Z</time></trkpt><trkpt lat="38.8128435" lon="16.2345739"><ele>11.0</ele><time>2026-04-12T08:03:01.521Z</time></trkpt><trkpt lat="38.8126177" lon="16.234471"><ele>12.0</ele><time>2026-04-12T08:03:02.531Z</time></trkpt><trkpt lat="38.8123908" lon="16.2343673"><ele>13.0</ele><time>2026-04-12T08:03:03.531Z</time></trkpt><trkpt lat="38.8121615" lon="16.2342631"><ele>13.0</ele><time>2026-04-12T08:03:04.516Z</time></trkpt><trkpt lat="38.8119303" lon="16.2341566"><ele>13.0</ele><time>2026-04-12T08:03:05.536Z</time></trkpt><trkpt lat="38.8116974" lon="16.2340496"><ele>12.5</ele><time>2026-04-12T08:03:06.532Z</time></trkpt><trkpt lat="38.8114625" lon="16.2339426"><ele>12.0</ele><time>2026-04-12T08:03:07.523Z</time></trkpt><trkpt lat="38.8112266" lon="16.2338359"><ele>14.0</ele><time>2026-04-12T08:03:08.523Z</time></trkpt><trkpt lat="38.8109902" lon="16.2337285"><ele>16.0</ele><time>2026-04-12T08:03:09.529Z</time></trkpt><trkpt lat="38.8107574" lon="16.2336229"><ele>16.0</ele><time>2026-04-12T08:03:10.518Z</time></trkpt><trkpt lat="38.8105261" lon="16.2335186"><ele>16.0</ele><time>2026-04-12T08:03:11.522Z</time></trkpt><trkpt lat="38.8102963" lon="16.2334153"><ele>16.0</ele><time>2026-04-12T08:03:12.526Z</time></trkpt><trkpt lat="38.8100679" lon="16.2333117"><ele>16.0</ele><time>2026-04-12T08:03:13.517Z</time></trkpt><trkpt lat="38.8098401" lon="16.2332075"><ele>14.5</ele><time>2026-04-12T08:03:14.533Z</time></trkpt><trkpt lat="38.8096123" lon="16.2331026"><ele>13.0</ele><time>2026-04-12T08:03:15.524Z</time></trkpt><trkpt lat="38.8093828" lon="16.2329962"><ele>13.0</ele><time>2026-04-12T08:03:16.522Z</time></trkpt><trkpt lat="38.8091514" lon="16.2328894"><ele>13.0</ele><time>2026-04-12T08:03:17.52Z</time></trkpt><trkpt lat="38.8089198" lon="16.2327838"><ele>13.0</ele><time>2026-04-12T08:03:18.532Z</time></trkpt><trkpt lat="38.8086902" lon="16.2326801"><ele>13.0</ele><time>2026-04-12T08:03:19.516Z</time></trkpt><trkpt lat="38.8084613" lon="16.2325766"><ele>15.0</ele><time>2026-04-12T08:03:20.527Z</time></trkpt><trkpt lat="38.8082345" lon="16.2324728"><ele>17.0</ele><time>2026-04-12T08:03:21.516Z</time></trkpt><trkpt lat="38.8080087" lon="16.2323687"><ele>15.5</ele><time>2026-04-12T08:03:22.531Z</time></trkpt><trkpt lat="38.8077834" lon="16.2322656"><ele>14.0</ele><time>2026-04-12T08:03:23.529Z</time></trkpt><trkpt lat="38.8075578" lon="16.2321617"><ele>14.0</ele><time>2026-04-12T08:03:24.524Z</time></trkpt><trkpt lat="38.8073317" lon="16.2320572"><ele>14.0</ele><time>2026-04-12T08:03:25.52Z</time></trkpt><trkpt lat="38.8071032" lon="16.2319523"><ele>14.0</ele><time>2026-04-12T08:03:26.523Z</time></trkpt><trkpt lat="38.8068739" lon="16.2318476"><ele>14.0</ele><time>2026-04-12T08:03:27.532Z</time></trkpt><trkpt lat="38.806644" lon="16.2317444"><ele>16.5</ele><time>2026-04-12T08:03:28.513Z</time></trkpt><trkpt lat="38.8064165" lon="16.2316422"><ele>19.0</ele><time>2026-04-12T08:03:29.522Z</time></trkpt><trkpt lat="38.806191" lon="16.2315412"><ele>17.5</ele><time>2026-04-12T08:03:30.521Z</time></trkpt><trkpt lat="38.8059656" lon="16.2314393"><ele>16.0</ele><time>2026-04-12T08:03:31.52Z</time></trkpt><trkpt lat="38.8057402" lon="16.2313371"><ele>16.0</ele><time>2026-04-12T08:03:32.529Z</time></trkpt><trkpt lat="38.8055099" lon="16.2312452"><ele>16.0</ele><time>2026-04-12T08:03:33.525Z</time></trkpt><trkpt lat="38.8052792" lon="16.2311421"><ele>17.0</ele><time>2026-04-12T08:03:34.528Z</time></trkpt><trkpt lat="38.8050546" lon="16.2310343"><ele>18.0</ele><time>2026-04-12T08:03:35.517Z</time></trkpt><trkpt lat="38.8048253" lon="16.2309293"><ele>18.0</ele><time>2026-04-12T08:03:36.518Z</time></trkpt><trkpt lat="38.8045999" lon="16.2308277"><ele>18.0</ele><time>2026-04-12T08:03:37.526Z</time></trkpt><trkpt lat="38.8043691" lon="16.2307231"><ele>16.0</ele><time>2026-04-12T08:03:38.52Z</time></trkpt><trkpt lat="38.8041402" lon="16.2306187"><ele>14.0</ele><time>2026-04-12T08:03:39.529Z</time></trkpt><trkpt lat="38.8039102" lon="16.2305104"><ele>14.0</ele><time>2026-04-12T08:03:40.518Z</time></trkpt><trkpt lat="38.8036786" lon="16.2304031"><ele>14.0</ele><time>2026-04-12T08:03:41.527Z</time></trkpt><trkpt lat="38.8034477" lon="16.2302985"><ele>15.0</ele><time>2026-04-12T08:03:42.521Z</time></trkpt><trkpt lat="38.8032212" lon="16.2301966"><ele>16.0</ele><time>2026-04-12T08:03:43.53Z</time></trkpt><trkpt lat="38.8029947" lon="16.2300951"><ele>16.0</ele><time>2026-04-12T08:03:44.525Z</time></trkpt><trkpt lat="38.8027677" lon="16.2299903"><ele>16.0</ele><time>2026-04-12T08:03:45.527Z</time></trkpt><trkpt lat="38.8025382" lon="16.2298852"><ele>15.0</ele><time>2026-04-12T08:03:46.527Z</time></trkpt><trkpt lat="38.8023083" lon="16.2297805"><ele>14.0</ele><time>2026-04-12T08:03:47.523Z</time></trkpt><trkpt lat="38.8020788" lon="16.2296754"><ele>14.0</ele><time>2026-04-12T08:03:48.525Z</time></trkpt><trkpt lat="38.801849" lon="16.2295684"><ele>14.0</ele><time>2026-04-12T08:03:49.528Z</time></trkpt><trkpt lat="38.8016201" lon="16.2294595"><ele>15.5</ele><time>2026-04-12T08:03:50.524Z</time></trkpt><trkpt lat="38.8013908" lon="16.229346"><ele>17.0</ele><time>2026-04-12T08:03:51.539Z</time></trkpt><trkpt lat="38.8011632" lon="16.2292293"><ele>17.0</ele><time>2026-04-12T08:03:52.53Z</time></trkpt><trkpt lat="38.8009365" lon="16.2291063"><ele>17.0</ele><time>2026-04-12T08:03:53.537Z</time></trkpt><trkpt lat="38.8007154" lon="16.2289803"><ele>14.0</ele><time>2026-04-12T08:03:54.531Z</time></trkpt><trkpt lat="38.8005008" lon="16.2288484"><ele>11.0</ele><time>2026-04-12T08:03:55.53Z</time></trkpt><trkpt lat="38.8002934" lon="16.2287155"><ele>14.5</ele><time>2026-04-12T08:03:56.54Z</time></trkpt><trkpt lat="38.8000933" lon="16.2285777"><ele>18.0</ele><time>2026-04-12T08:03:57.535Z</time></trkpt><trkpt lat="38.7998981" lon="16.228433"><ele>18.0</ele><time>2026-04-12T08:03:58.519Z</time></trkpt><trkpt lat="38.7997003" lon="16.2282724"><ele>18.0</ele><time>2026-04-12T08:03:59.546Z</time></trkpt><trkpt lat="38.7994931" lon="16.2281019"><ele>15.5</ele><time>2026-04-12T08:04:00.524Z</time></trkpt><trkpt lat="38.7992815" lon="16.2279306"><ele>13.0</ele><time>2026-04-12T08:04:01.524Z</time></trkpt><trkpt lat="38.7990757" lon="16.2277493"><ele>13.0</ele><time>2026-04-12T08:04:02.528Z</time></trkpt><trkpt lat="38.7988743" lon="16.2275772"><ele>13.0</ele><time>2026-04-12T08:04:03.528Z</time></trkpt><trkpt lat="38.7986874" lon="16.2274081"><ele>13.0</ele><time>2026-04-12T08:04:04.525Z</time></trkpt><trkpt lat="38.7984966" lon="16.2272324"><ele>13.0</ele><time>2026-04-12T08:04:05.528Z</time></trkpt><trkpt lat="38.7983102" lon="16.2270543"><ele>13.0</ele><time>2026-04-12T08:04:06.531Z</time></trkpt><trkpt lat="38.7981246" lon="16.22688"><ele>13.0</ele><time>2026-04-12T08:04:07.531Z</time></trkpt><trkpt lat="38.7979347" lon="16.2267017"><ele>13.0</ele><time>2026-04-12T08:04:08.525Z</time></trkpt><trkpt lat="38.7977468" lon="16.2265298"><ele>13.0</ele><time>2026-04-12T08:04:09.53Z</time></trkpt><trkpt lat="38.7975582" lon="16.226358"><ele>13.0</ele><time>2026-04-12T08:04:10.534Z</time></trkpt><trkpt lat="38.7973714" lon="16.2261894"><ele>13.0</ele><time>2026-04-12T08:04:11.519Z</time></trkpt><trkpt lat="38.7971834" lon="16.2260246"><ele>13.0</ele><time>2026-04-12T08:04:12.526Z</time></trkpt><trkpt lat="38.796994" lon="16.2258673"><ele>13.0</ele><time>2026-04-12T08:04:13.523Z</time></trkpt><trkpt lat="38.796802" lon="16.2257139"><ele>12.5</ele><time>2026-04-12T08:04:14.522Z</time></trkpt><trkpt lat="38.7966079" lon="16.2255656"><ele>12.0</ele><time>2026-04-12T08:04:15.519Z</time></trkpt><trkpt lat="38.7964108" lon="16.225422"><ele>12.0</ele><time>2026-04-12T08:04:16.526Z</time></trkpt><trkpt lat="38.7962112" lon="16.2252846"><ele>12.0</ele><time>2026-04-12T08:04:17.536Z</time></trkpt><trkpt lat="38.796006" lon="16.2251553"><ele>14.5</ele><time>2026-04-12T08:04:18.525Z</time></trkpt><trkpt lat="38.7957975" lon="16.2250335"><ele>17.0</ele><time>2026-04-12T08:04:19.519Z</time></trkpt><trkpt lat="38.7955848" lon="16.2249178"><ele>15.0</ele><time>2026-04-12T08:04:20.518Z</time></trkpt><trkpt lat="38.7953714" lon="16.224808"><ele>13.0</ele><time>2026-04-12T08:04:21.525Z</time></trkpt><trkpt lat="38.7951574" lon="16.2247035"><ele>13.0</ele><time>2026-04-12T08:04:22.522Z</time></trkpt><trkpt lat="38.7949416" lon="16.2246045"><ele>13.0</ele><time>2026-04-12T08:04:23.518Z</time></trkpt><trkpt lat="38.7947242" lon="16.2245129"><ele>13.0</ele><time>2026-04-12T08:04:24.53Z</time></trkpt><trkpt lat="38.7945043" lon="16.2244285"><ele>13.0</ele><time>2026-04-12T08:04:25.519Z</time></trkpt><trkpt lat="38.7942816" lon="16.2243514"><ele>13.0</ele><time>2026-04-12T08:04:26.512Z</time></trkpt><trkpt lat="38.7940561" lon="16.2242803"><ele>13.0</ele><time>2026-04-12T08:04:27.532Z</time></trkpt><trkpt lat="38.7938294" lon="16.2242132"><ele>13.0</ele><time>2026-04-12T08:04:28.516Z</time></trkpt><trkpt lat="38.7936013" lon="16.224151"><ele>13.0</ele><time>2026-04-12T08:04:29.516Z</time></trkpt><trkpt lat="38.7933709" lon="16.2240916"><ele>13.5</ele><time>2026-04-12T08:04:30.527Z</time></trkpt><trkpt lat="38.7931393" lon="16.2240337"><ele>14.0</ele><time>2026-04-12T08:04:31.533Z</time></trkpt><trkpt lat="38.7929071" lon="16.2239733"><ele>12.5</ele><time>2026-04-12T08:04:32.528Z</time></trkpt><trkpt lat="38.7926746" lon="16.2239118"><ele>11.0</ele><time>2026-04-12T08:04:33.522Z</time></trkpt><trkpt lat="38.7924421" lon="16.2238475"><ele>10.5</ele><time>2026-04-12T08:04:34.533Z</time></trkpt><trkpt lat="38.7922098" lon="16.2237771"><ele>10.0</ele><time>2026-04-12T08:04:35.532Z</time></trkpt><trkpt lat="38.7919781" lon="16.2237016"><ele>10.5</ele><time>2026-04-12T08:04:36.519Z</time></trkpt><trkpt lat="38.7917464" lon="16.2236209"><ele>11.0</ele><time>2026-04-12T08:04:37.53Z</time></trkpt><trkpt lat="38.7915152" lon="16.2235356"><ele>11.0</ele><time>2026-04-12T08:04:38.531Z</time></trkpt><trkpt lat="38.7912847" lon="16.2234413"><ele>11.0</ele><time>2026-04-12T08:04:39.517Z</time></trkpt><trkpt lat="38.7910563" lon="16.223337"><ele>10.0</ele><time>2026-04-12T08:04:40.524Z</time></trkpt><trkpt lat="38.7908303" lon="16.2232219"><ele>9.0</ele><time>2026-04-12T08:04:41.527Z</time></trkpt><trkpt lat="38.7906052" lon="16.223096"><ele>9.0</ele><time>2026-04-12T08:04:42.523Z</time></trkpt><trkpt lat="38.7903805" lon="16.2229604"><ele>9.0</ele><time>2026-04-12T08:04:43.522Z</time></trkpt><trkpt lat="38.790155" lon="16.222816"><ele>10.0</ele><time>2026-04-12T08:04:44.526Z</time></trkpt><trkpt lat="38.7899305" lon="16.2226617"><ele>11.0</ele><time>2026-04-12T08:04:45.517Z</time></trkpt><trkpt lat="38.7897103" lon="16.2224978"><ele>11.0</ele><time>2026-04-12T08:04:46.537Z</time></trkpt><trkpt lat="38.7894949" lon="16.2223276"><ele>11.0</ele><time>2026-04-12T08:04:47.527Z</time></trkpt><trkpt lat="38.7892832" lon="16.2221556"><ele>11.0</ele><time>2026-04-12T08:04:48.522Z</time></trkpt><trkpt lat="38.7890757" lon="16.2219835"><ele>11.0</ele><time>2026-04-12T08:04:49.537Z</time></trkpt><trkpt lat="38.7888696" lon="16.2218081"><ele>11.0</ele><time>2026-04-12T08:04:50.533Z</time></trkpt><trkpt lat="38.788666" lon="16.2216335"><ele>11.0</ele><time>2026-04-12T08:04:51.522Z</time></trkpt><trkpt lat="38.7884634" lon="16.2214616"><ele>9.5</ele><time>2026-04-12T08:04:52.52Z</time></trkpt><trkpt lat="38.7882613" lon="16.2212911"><ele>8.0</ele><time>2026-04-12T08:04:53.529Z</time></trkpt><trkpt lat="38.78806" lon="16.2211221"><ele>8.0</ele><time>2026-04-12T08:04:54.517Z</time></trkpt><trkpt lat="38.787859" lon="16.2209546"><ele>8.0</ele><time>2026-04-12T08:04:55.548Z</time></trkpt><trkpt lat="38.7876594" lon="16.2207882"><ele>8.0</ele><time>2026-04-12T08:04:56.528Z</time></trkpt><trkpt lat="38.7874619" lon="16.2206226"><ele>8.0</ele><time>2026-04-12T08:04:57.52Z</time></trkpt><trkpt lat="38.7872656" lon="16.2204553"><ele>8.0</ele><time>2026-04-12T08:04:58.527Z</time></trkpt><trkpt lat="38.7870709" lon="16.220289"><ele>8.0</ele><time>2026-04-12T08:04:59.518Z</time></trkpt><trkpt lat="38.7868769" lon="16.2201244"><ele>8.0</ele><time>2026-04-12T08:05:00.53Z</time></trkpt><trkpt lat="38.7866805" lon="16.2199632"><ele>8.0</ele><time>2026-04-12T08:05:01.528Z</time></trkpt><trkpt lat="38.7864796" lon="16.2198062"><ele>8.0</ele><time>2026-04-12T08:05:02.526Z</time></trkpt><trkpt lat="38.7862717" lon="16.2196528"><ele>8.0</ele><time>2026-04-12T08:05:03.523Z</time></trkpt><trkpt lat="38.7860596" lon="16.219505"><ele>9.5</ele><time>2026-04-12T08:05:04.521Z</time></trkpt><trkpt lat="38.7858463" lon="16.219364"><ele>11.0</ele><time>2026-04-12T08:05:05.528Z</time></trkpt><trkpt lat="38.7856308" lon="16.2192324"><ele>11.0</ele><time>2026-04-12T08:05:06.522Z</time></trkpt><trkpt lat="38.785411" lon="16.2191088"><ele>11.0</ele><time>2026-04-12T08:05:07.526Z</time></trkpt><trkpt lat="38.7851902" lon="16.2189917"><ele>8.0</ele><time>2026-04-12T08:05:08.518Z</time></trkpt><trkpt lat="38.7849725" lon="16.2188816"><ele>5.0</ele><time>2026-04-12T08:05:09.536Z</time></trkpt><trkpt lat="38.7847591" lon="16.218779"><ele>5.0</ele><time>2026-04-12T08:05:10.531Z</time></trkpt><trkpt lat="38.7845476" lon="16.2186913"><ele>5.0</ele><time>2026-04-12T08:05:11.523Z</time></trkpt><trkpt lat="38.7843376" lon="16.2186063"><ele>5.0</ele><time>2026-04-12T08:05:12.527Z</time></trkpt><trkpt lat="38.7841265" lon="16.2185209"><ele>5.666666666666667</ele><time>2026-04-12T08:05:13.539Z</time></trkpt><trkpt lat="38.7839196" lon="16.2184257"><ele>6.333333333333334</ele><time>2026-04-12T08:05:14.519Z</time></trkpt><trkpt lat="38.7837072" lon="16.2183471"><ele>7.0</ele><time>2026-04-12T08:05:15.527Z</time></trkpt><trkpt lat="38.7834971" lon="16.2182682"><ele>7.333333333333334</ele><time>2026-04-12T08:05:16.522Z</time></trkpt><trkpt lat="38.7832863" lon="16.2181899"><ele>7.666666666666666</ele><time>2026-04-12T08:05:17.527Z</time></trkpt><trkpt lat="38.7830801" lon="16.2181122"><ele>8.0</ele><time>2026-04-12T08:05:18.52Z</time></trkpt><trkpt lat="38.7828726" lon="16.2180355"><ele>8.0</ele><time>2026-04-12T08:05:19.529Z</time></trkpt><trkpt lat="38.7826648" lon="16.2179595"><ele>8.0</ele><time>2026-04-12T08:05:20.528Z</time></trkpt><trkpt lat="38.7824612" lon="16.2178818"><ele>8.0</ele><time>2026-04-12T08:05:21.516Z</time></trkpt><trkpt lat="38.782259" lon="16.2178027"><ele>8.0</ele><time>2026-04-12T08:05:22.518Z</time></trkpt><trkpt lat="38.7820617" lon="16.217725"><ele>8.0</ele><time>2026-04-12T08:05:23.533Z</time></trkpt><trkpt lat="38.7818674" lon="16.2176503"><ele>8.0</ele><time>2026-04-12T08:05:24.52Z</time></trkpt><trkpt lat="38.7816739" lon="16.2175768"><ele>7.666666666666666</ele><time>2026-04-12T08:05:25.522Z</time></trkpt><trkpt lat="38.7814809" lon="16.2175036"><ele>7.333333333333334</ele><time>2026-04-12T08:05:26.523Z</time></trkpt><trkpt lat="38.7812878" lon="16.217431"><ele>7.0</ele><time>2026-04-12T08:05:27.52Z</time></trkpt><trkpt lat="38.7810953" lon="16.217358"><ele>6.666666666666667</ele><time>2026-04-12T08:05:28.532Z</time></trkpt><trkpt lat="38.7809019" lon="16.2172851"><ele>6.333333333333334</ele><time>2026-04-12T08:05:29.527Z</time></trkpt><trkpt lat="38.7807059" lon="16.2172112"><ele>6.0</ele><time>2026-04-12T08:05:30.521Z</time></trkpt><trkpt lat="38.7805093" lon="16.2171373"><ele>6.0</ele><time>2026-04-12T08:05:31.519Z</time></trkpt><trkpt lat="38.7803087" lon="16.2170626"><ele>6.0</ele><time>2026-04-12T08:05:32.53Z</time></trkpt><trkpt lat="38.780103" lon="16.2169861"><ele>6.0</ele><time>2026-04-12T08:05:33.519Z</time></trkpt><trkpt lat="38.7798926" lon="16.2169052"><ele>6.0</ele><time>2026-04-12T08:05:34.522Z</time></trkpt><trkpt lat="38.7796787" lon="16.2168211"><ele>6.0</ele><time>2026-04-12T08:05:35.526Z</time></trkpt><trkpt lat="38.7794646" lon="16.2167361"><ele>6.0</ele><time>2026-04-12T08:05:36.527Z</time></trkpt><trkpt lat="38.77925" lon="16.216652"><ele>6.5</ele><time>2026-04-12T08:05:37.528Z</time></trkpt><trkpt lat="38.779034" lon="16.2165687"><ele>7.0</ele><time>2026-04-12T08:05:38.527Z</time></trkpt><trkpt lat="38.7788177" lon="16.2164841"><ele>7.0</ele><time>2026-04-12T08:05:39.53Z</time></trkpt><trkpt lat="38.7785993" lon="16.216397"><ele>7.0</ele><time>2026-04-12T08:05:40.532Z</time></trkpt><trkpt lat="38.77838" lon="16.2163064"><ele>7.0</ele><time>2026-04-12T08:05:41.522Z</time></trkpt><trkpt lat="38.778159" lon="16.2162117"><ele>7.0</ele><time>2026-04-12T08:05:42.523Z</time></trkpt><trkpt lat="38.7779357" lon="16.2161122"><ele>7.0</ele><time>2026-04-12T08:05:43.528Z</time></trkpt><trkpt lat="38.7777077" lon="16.2160163"><ele>7.0</ele><time>2026-04-12T08:05:44.523Z</time></trkpt><trkpt lat="38.7774797" lon="16.2159192"><ele>6.5</ele><time>2026-04-12T08:05:45.52Z</time></trkpt><trkpt lat="38.7772457" lon="16.2158244"><ele>6.0</ele><time>2026-04-12T08:05:46.526Z</time></trkpt><trkpt lat="38.7770135" lon="16.2157294"><ele>5.5</ele><time>2026-04-12T08:05:47.533Z</time></trkpt><trkpt lat="38.7767827" lon="16.215635"><ele>5.0</ele><time>2026-04-12T08:05:48.527Z</time></trkpt><trkpt lat="38.7765504" lon="16.2155416"><ele>5.0</ele><time>2026-04-12T08:05:49.535Z</time></trkpt><trkpt lat="38.7763135" lon="16.2154308"><ele>5.0</ele><time>2026-04-12T08:05:50.525Z</time></trkpt><trkpt lat="38.7760813" lon="16.2153461"><ele>5.0</ele><time>2026-04-12T08:05:51.531Z</time></trkpt><trkpt lat="38.7758511" lon="16.2152548"><ele>5.0</ele><time>2026-04-12T08:05:52.525Z</time></trkpt><trkpt lat="38.7756212" lon="16.2151593"><ele>5.0</ele><time>2026-04-12T08:05:53.523Z</time></trkpt><trkpt lat="38.7753969" lon="16.2150688"><ele>5.0</ele><time>2026-04-12T08:05:54.521Z</time></trkpt><trkpt lat="38.7751736" lon="16.214982"><ele>5.0</ele><time>2026-04-12T08:05:55.527Z</time></trkpt><trkpt lat="38.7749495" lon="16.2148928"><ele>5.0</ele><time>2026-04-12T08:05:56.523Z</time></trkpt><trkpt lat="38.7747293" lon="16.2148069"><ele>5.0</ele><time>2026-04-12T08:05:57.526Z</time></trkpt><trkpt lat="38.7745097" lon="16.2147228"><ele>5.0</ele><time>2026-04-12T08:05:58.54Z</time></trkpt><trkpt lat="38.7742902" lon="16.2146396"><ele>6.5</ele><time>2026-04-12T08:05:59.527Z</time></trkpt><trkpt lat="38.77407" lon="16.2145538"><ele>8.0</ele><time>2026-04-12T08:06:00.526Z</time></trkpt><trkpt lat="38.773851" lon="16.2144696"><ele>8.0</ele><time>2026-04-12T08:06:01.532Z</time></trkpt><trkpt lat="38.7736336" lon="16.2143863"><ele>8.0</ele><time>2026-04-12T08:06:02.53Z</time></trkpt><trkpt lat="38.773417" lon="16.2143004"><ele>8.666666666666666</ele><time>2026-04-12T08:06:03.523Z</time></trkpt><trkpt lat="38.7732033" lon="16.2142078"><ele>9.333333333333334</ele><time>2026-04-12T08:06:04.527Z</time></trkpt><trkpt lat="38.7729946" lon="16.2141037"><ele>10.0</ele><time>2026-04-12T08:06:05.533Z</time></trkpt><trkpt lat="38.7727982" lon="16.2139884"><ele>9.333333333333334</ele><time>2026-04-12T08:06:06.516Z</time></trkpt><trkpt lat="38.7726159" lon="16.2138604"><ele>8.666666666666666</ele><time>2026-04-12T08:06:07.525Z</time></trkpt><trkpt lat="38.7724462" lon="16.2137223"><ele>8.0</ele><time>2026-04-12T08:06:08.53Z</time></trkpt><trkpt lat="38.7722797" lon="16.2135728"><ele>8.0</ele><time>2026-04-12T08:06:09.517Z</time></trkpt><trkpt lat="38.7721082" lon="16.213411"><ele>8.0</ele><time>2026-04-12T08:06:10.523Z</time></trkpt><trkpt lat="38.7719288" lon="16.2132276"><ele>8.0</ele><time>2026-04-12T08:06:11.522Z</time></trkpt><trkpt lat="38.7717473" lon="16.2130137"><ele>8.0</ele><time>2026-04-12T08:06:12.531Z</time></trkpt><trkpt lat="38.7715647" lon="16.2127691"><ele>8.0</ele><time>2026-04-12T08:06:13.529Z</time></trkpt><trkpt lat="38.7713868" lon="16.212491"><ele>8.0</ele><time>2026-04-12T08:06:14.523Z</time></trkpt><trkpt lat="38.771217" lon="16.2121846"><ele>8.0</ele><time>2026-04-12T08:06:15.522Z</time></trkpt><trkpt lat="38.7710509" lon="16.2118691"><ele>8.0</ele><time>2026-04-12T08:06:16.52Z</time></trkpt><trkpt lat="38.7708856" lon="16.2115516"><ele>8.0</ele><time>2026-04-12T08:06:17.514Z</time></trkpt><trkpt lat="38.7707198" lon="16.211234"><ele>8.5</ele><time>2026-04-12T08:06:18.521Z</time></trkpt><trkpt lat="38.7705542" lon="16.2109173"><ele>9.0</ele><time>2026-04-12T08:06:19.531Z</time></trkpt><trkpt lat="38.7703894" lon="16.2106003"><ele>9.0</ele><time>2026-04-12T08:06:20.523Z</time></trkpt><trkpt lat="38.7702233" lon="16.2102845"><ele>9.0</ele><time>2026-04-12T08:06:21.53Z</time></trkpt><trkpt lat="38.7700563" lon="16.2099711"><ele>10.0</ele><time>2026-04-12T08:06:22.521Z</time></trkpt><trkpt lat="38.7698901" lon="16.2096665"><ele>11.0</ele><time>2026-04-12T08:06:23.539Z</time></trkpt><trkpt lat="38.7697253" lon="16.2093785"><ele>11.0</ele><time>2026-04-12T08:06:24.534Z</time></trkpt><trkpt lat="38.7695542" lon="16.2091081"><ele>11.0</ele><time>2026-04-12T08:06:25.514Z</time></trkpt><trkpt lat="38.7693769" lon="16.208853"><ele>14.0</ele><time>2026-04-12T08:06:26.522Z</time></trkpt><trkpt lat="38.7691987" lon="16.2086098"><ele>17.0</ele><time>2026-04-12T08:06:27.524Z</time></trkpt><trkpt lat="38.7690224" lon="16.2083742"><ele>12.5</ele><time>2026-04-12T08:06:28.519Z</time></trkpt><trkpt lat="38.7688483" lon="16.2081437"><ele>8.0</ele><time>2026-04-12T08:06:29.526Z</time></trkpt><trkpt lat="38.7686742" lon="16.2079185"><ele>15.5</ele><time>2026-04-12T08:06:30.518Z</time></trkpt><trkpt lat="38.7684966" lon="16.2077036"><ele>23.0</ele><time>2026-04-12T08:06:31.523Z</time></trkpt><trkpt lat="38.7683143" lon="16.2075023"><ele>15.0</ele><time>2026-04-12T08:06:32.525Z</time></trkpt><trkpt lat="38.7681297" lon="16.2073151"><ele>7.0</ele><time>2026-04-12T08:06:33.523Z</time></trkpt><trkpt lat="38.7679387" lon="16.2071384"><ele>7.0</ele><time>2026-04-12T08:06:34.526Z</time></trkpt><trkpt lat="38.7677418" lon="16.2069688"><ele>7.0</ele><time>2026-04-12T08:06:35.53Z</time></trkpt><trkpt lat="38.7675394" lon="16.2068017"><ele>7.5</ele><time>2026-04-12T08:06:36.517Z</time></trkpt><trkpt lat="38.7673378" lon="16.206636"><ele>8.0</ele><time>2026-04-12T08:06:37.529Z</time></trkpt><trkpt lat="38.7671422" lon="16.2064727"><ele>8.0</ele><time>2026-04-12T08:06:38.52Z</time></trkpt><trkpt lat="38.7669494" lon="16.2063097"><ele>8.0</ele><time>2026-04-12T08:06:39.522Z</time></trkpt><trkpt lat="38.7667562" lon="16.2061489"><ele>17.5</ele><time>2026-04-12T08:06:40.519Z</time></trkpt><trkpt lat="38.7665596" lon="16.205988"><ele>27.0</ele><time>2026-04-12T08:06:41.523Z</time></trkpt><trkpt lat="38.7663599" lon="16.2058271"><ele>27.0</ele><time>2026-04-12T08:06:42.517Z</time></trkpt><trkpt lat="38.7661559" lon="16.2056691"><ele>27.0</ele><time>2026-04-12T08:06:43.525Z</time></trkpt><trkpt lat="38.7659445" lon="16.205527"><ele>26.5</ele><time>2026-04-12T08:06:44.519Z</time></trkpt><trkpt lat="38.7657284" lon="16.2053912"><ele>26.0</ele><time>2026-04-12T08:06:45.521Z</time></trkpt><trkpt lat="38.7655067" lon="16.2052566"><ele>26.0</ele><time>2026-04-12T08:06:46.524Z</time></trkpt><trkpt lat="38.7652817" lon="16.2051261"><ele>26.0</ele><time>2026-04-12T08:06:47.525Z</time></trkpt><trkpt lat="38.7650574" lon="16.2049985"><ele>22.5</ele><time>2026-04-12T08:06:48.523Z</time></trkpt><trkpt lat="38.7648287" lon="16.2048692"><ele>19.0</ele><time>2026-04-12T08:06:49.521Z</time></trkpt><trkpt lat="38.7646021" lon="16.2047438"><ele>19.0</ele><time>2026-04-12T08:06:50.528Z</time></trkpt><trkpt lat="38.7643799" lon="16.204624"><ele>19.0</ele><time>2026-04-12T08:06:51.523Z</time></trkpt><trkpt lat="38.7641606" lon="16.204501"><ele>29.5</ele><time>2026-04-12T08:06:52.524Z</time></trkpt><trkpt lat="38.7639423" lon="16.2043767"><ele>40.0</ele><time>2026-04-12T08:06:53.523Z</time></trkpt><trkpt lat="38.7637347" lon="16.2042376"><ele>40.0</ele><time>2026-04-12T08:06:54.534Z</time></trkpt><trkpt lat="38.7635353" lon="16.2040782"><ele>40.0</ele><time>2026-04-12T08:06:55.522Z</time></trkpt><trkpt lat="38.7633443" lon="16.2039019"><ele>39.0</ele><time>2026-04-12T08:06:56.516Z</time></trkpt><trkpt lat="38.7631509" lon="16.203723"><ele>38.0</ele><time>2026-04-12T08:06:57.523Z</time></trkpt><trkpt lat="38.7629585" lon="16.2035289"><ele>38.0</ele><time>2026-04-12T08:06:58.525Z</time></trkpt><trkpt lat="38.7627696" lon="16.2033509"><ele>38.0</ele><time>2026-04-12T08:06:59.518Z</time></trkpt><trkpt lat="38.7625787" lon="16.203183"><ele>34.5</ele><time>2026-04-12T08:07:00.524Z</time></trkpt><trkpt lat="38.762378" lon="16.2030373"><ele>31.0</ele><time>2026-04-12T08:07:01.519Z</time></trkpt><trkpt lat="38.7621686" lon="16.2029062"><ele>31.0</ele><time>2026-04-12T08:07:02.514Z</time></trkpt><trkpt lat="38.7619463" lon="16.2027979"><ele>31.0</ele><time>2026-04-12T08:07:03.522Z</time></trkpt><trkpt lat="38.7617146" lon="16.2027073"><ele>42.5</ele><time>2026-04-12T08:07:04.523Z</time></trkpt><trkpt lat="38.7614805" lon="16.2026233"><ele>54.0</ele><time>2026-04-12T08:07:05.518Z</time></trkpt><trkpt lat="38.7612521" lon="16.2025448"><ele>62.5</ele><time>2026-04-12T08:07:06.525Z</time></trkpt><trkpt lat="38.7610159" lon="16.2024576"><ele>71.0</ele><time>2026-04-12T08:07:07.53Z</time></trkpt><trkpt lat="38.7607791" lon="16.202372"><ele>55.5</ele><time>2026-04-12T08:07:08.531Z</time></trkpt><trkpt lat="38.7605419" lon="16.2022916"><ele>40.0</ele><time>2026-04-12T08:07:09.52Z</time></trkpt><trkpt lat="38.7603111" lon="16.2022082"><ele>44.0</ele><time>2026-04-12T08:07:10.52Z</time></trkpt><trkpt lat="38.7600866" lon="16.2021261"><ele>48.0</ele><time>2026-04-12T08:07:11.519Z</time></trkpt><trkpt lat="38.759867" lon="16.2020456"><ele>48.0</ele><time>2026-04-12T08:07:12.521Z</time></trkpt><trkpt lat="38.7596581" lon="16.201952"><ele>48.0</ele><time>2026-04-12T08:07:13.514Z</time></trkpt><trkpt lat="38.7594494" lon="16.2018474"><ele>48.0</ele><time>2026-04-12T08:07:14.528Z</time></trkpt><trkpt lat="38.7592401" lon="16.2017479"><ele>48.33333333333333</ele><time>2026-04-12T08:07:15.527Z</time></trkpt><trkpt lat="38.7590477" lon="16.2016476"><ele>48.666666666666664</ele><time>2026-04-12T08:07:16.512Z</time></trkpt><trkpt lat="38.7588622" lon="16.2015327"><ele>49.0</ele><time>2026-04-12T08:07:17.515Z</time></trkpt><trkpt lat="38.758653" lon="16.2014163"><ele>59.0</ele><time>2026-04-12T08:07:18.519Z</time></trkpt><trkpt lat="38.7584361" lon="16.2012707"><ele>69.0</ele><time>2026-04-12T08:07:19.52Z</time></trkpt><trkpt lat="38.7582252" lon="16.2011163"><ele>69.0</ele><time>2026-04-12T08:07:20.523Z</time></trkpt><trkpt lat="38.7580084" lon="16.2009436"><ele>69.0</ele><time>2026-04-12T08:07:21.514Z</time></trkpt><trkpt lat="38.7578072" lon="16.2007817"><ele>69.0</ele><time>2026-04-12T08:07:22.527Z</time></trkpt><trkpt lat="38.7576141" lon="16.2006215"><ele>69.0</ele><time>2026-04-12T08:07:23.527Z</time></trkpt><trkpt lat="38.7574265" lon="16.2004639"><ele>69.0</ele><time>2026-04-12T08:07:24.518Z</time></trkpt><trkpt lat="38.7572314" lon="16.2003021"><ele>69.0</ele><time>2026-04-12T08:07:25.523Z</time></trkpt><trkpt lat="38.7570411" lon="16.2001443"><ele>78.0</ele><time>2026-04-12T08:07:26.518Z</time></trkpt><trkpt lat="38.7568497" lon="16.1999925"><ele>87.0</ele><time>2026-04-12T08:07:27.524Z</time></trkpt><trkpt lat="38.7566539" lon="16.199848"><ele>81.0</ele><time>2026-04-12T08:07:28.519Z</time></trkpt><trkpt lat="38.7564608" lon="16.1997114"><ele>75.0</ele><time>2026-04-12T08:07:29.518Z</time></trkpt><trkpt lat="38.7562733" lon="16.1995819"><ele>69.0</ele><time>2026-04-12T08:07:30.523Z</time></trkpt><trkpt lat="38.756093" lon="16.1994525"><ele>74.66666666666667</ele><time>2026-04-12T08:07:31.52Z</time></trkpt><trkpt lat="38.7559162" lon="16.1993268"><ele>80.33333333333334</ele><time>2026-04-12T08:07:32.516Z</time></trkpt><trkpt lat="38.7557433" lon="16.1992004"><ele>86.0</ele><time>2026-04-12T08:07:33.524Z</time></trkpt><trkpt lat="38.7555747" lon="16.1990695"><ele>86.33333333333334</ele><time>2026-04-12T08:07:34.52Z</time></trkpt><trkpt lat="38.75541" lon="16.1989198"><ele>86.66666666666667</ele><time>2026-04-12T08:07:35.525Z</time></trkpt><trkpt lat="38.7552545" lon="16.1987716"><ele>87.0</ele><time>2026-04-12T08:07:36.525Z</time></trkpt><trkpt lat="38.7551034" lon="16.1986078"><ele>87.0</ele><time>2026-04-12T08:07:37.524Z</time></trkpt><trkpt lat="38.7549666" lon="16.1984362"><ele>87.0</ele><time>2026-04-12T08:07:38.517Z</time></trkpt><trkpt lat="38.7548342" lon="16.1982596"><ele>87.0</ele><time>2026-04-12T08:07:39.53Z</time></trkpt><trkpt lat="38.7546991" lon="16.1980707"><ele>83.33333333333333</ele><time>2026-04-12T08:07:40.525Z</time></trkpt><trkpt lat="38.7545645" lon="16.1978681"><ele>79.66666666666666</ele><time>2026-04-12T08:07:41.527Z</time></trkpt><trkpt lat="38.7544528" lon="16.1976409"><ele>76.0</ele><time>2026-04-12T08:07:42.518Z</time></trkpt><trkpt lat="38.7543468" lon="16.1973916"><ele>87.5</ele><time>2026-04-12T08:07:43.521Z</time></trkpt><trkpt lat="38.7542428" lon="16.1971294"><ele>99.0</ele><time>2026-04-12T08:07:44.519Z</time></trkpt><trkpt lat="38.7541383" lon="16.1968555"><ele>99.0</ele><time>2026-04-12T08:07:45.523Z</time></trkpt><trkpt lat="38.7540234" lon="16.1965755"><ele>99.0</ele><time>2026-04-12T08:07:46.519Z</time></trkpt><trkpt lat="38.7539112" lon="16.1962908"><ele>92.5</ele><time>2026-04-12T08:07:47.521Z</time></trkpt><trkpt lat="38.753796" lon="16.1959999"><ele>86.0</ele><time>2026-04-12T08:07:48.529Z</time></trkpt><trkpt lat="38.7536798" lon="16.1957089"><ele>95.5</ele><time>2026-04-12T08:07:49.516Z</time></trkpt><trkpt lat="38.7535659" lon="16.1954179"><ele>105.0</ele><time>2026-04-12T08:07:50.527Z</time></trkpt><trkpt lat="38.7534499" lon="16.1951308"><ele>105.0</ele><time>2026-04-12T08:07:51.523Z</time></trkpt><trkpt lat="38.7533262" lon="16.194848"><ele>105.0</ele><time>2026-04-12T08:07:52.52Z</time></trkpt><trkpt lat="38.7531905" lon="16.1945807"><ele>99.5</ele><time>2026-04-12T08:07:53.516Z</time></trkpt><trkpt lat="38.7530413" lon="16.1943281"><ele>94.0</ele><time>2026-04-12T08:07:54.525Z</time></trkpt><trkpt lat="38.7528774" lon="16.1940974"><ele>103.0</ele><time>2026-04-12T08:07:55.532Z</time></trkpt><trkpt lat="38.7527022" lon="16.1938815"><ele>112.0</ele><time>2026-04-12T08:07:56.517Z</time></trkpt><trkpt lat="38.7525162" lon="16.1936828"><ele>112.0</ele><time>2026-04-12T08:07:57.519Z</time></trkpt><trkpt lat="38.7523183" lon="16.193503"><ele>112.0</ele><time>2026-04-12T08:07:58.522Z</time></trkpt><trkpt lat="38.7521111" lon="16.1933401"><ele>112.0</ele><time>2026-04-12T08:07:59.519Z</time></trkpt><trkpt lat="38.7518975" lon="16.1931909"><ele>112.0</ele><time>2026-04-12T08:08:00.525Z</time></trkpt><trkpt lat="38.7516783" lon="16.193053"><ele>110.0</ele><time>2026-04-12T08:08:01.518Z</time></trkpt><trkpt lat="38.7514575" lon="16.192919"><ele>108.0</ele><time>2026-04-12T08:08:02.529Z</time></trkpt><trkpt lat="38.7512389" lon="16.1927869"><ele>113.0</ele><time>2026-04-12T08:08:03.521Z</time></trkpt><trkpt lat="38.7510239" lon="16.1926578"><ele>118.0</ele><time>2026-04-12T08:08:04.515Z</time></trkpt><trkpt lat="38.7508124" lon="16.1925269"><ele>118.0</ele><time>2026-04-12T08:08:05.522Z</time></trkpt><trkpt lat="38.7506042" lon="16.1923897"><ele>118.0</ele><time>2026-04-12T08:08:06.517Z</time></trkpt><trkpt lat="38.7504118" lon="16.1922213"><ele>118.0</ele><time>2026-04-12T08:08:07.526Z</time></trkpt><trkpt lat="38.75023" lon="16.1920474"><ele>118.0</ele><time>2026-04-12T08:08:08.519Z</time></trkpt><trkpt lat="38.7500582" lon="16.1918584"><ele>118.0</ele><time>2026-04-12T08:08:09.523Z</time></trkpt><trkpt lat="38.7498924" lon="16.1916653"><ele>118.0</ele><time>2026-04-12T08:08:10.523Z</time></trkpt><trkpt lat="38.7497276" lon="16.1914708"><ele>118.0</ele><time>2026-04-12T08:08:11.517Z</time></trkpt><trkpt lat="38.7495665" lon="16.1912748"><ele>116.0</ele><time>2026-04-12T08:08:12.527Z</time></trkpt><trkpt lat="38.7493991" lon="16.1910821"><ele>114.0</ele><time>2026-04-12T08:08:13.524Z</time></trkpt><trkpt lat="38.7492284" lon="16.1908886"><ele>117.0</ele><time>2026-04-12T08:08:14.52Z</time></trkpt><trkpt lat="38.749054" lon="16.1906997"><ele>120.0</ele><time>2026-04-12T08:08:15.521Z</time></trkpt><trkpt lat="38.7488723" lon="16.190517"><ele>120.0</ele><time>2026-04-12T08:08:16.526Z</time></trkpt><trkpt lat="38.7486838" lon="16.1903475"><ele>120.0</ele><time>2026-04-12T08:08:17.516Z</time></trkpt><trkpt lat="38.7484855" lon="16.1901939"><ele>124.0</ele><time>2026-04-12T08:08:18.527Z</time></trkpt><trkpt lat="38.7482798" lon="16.1900576"><ele>128.0</ele><time>2026-04-12T08:08:19.533Z</time></trkpt><trkpt lat="38.7480588" lon="16.1899344"><ele>127.0</ele><time>2026-04-12T08:08:20.516Z</time></trkpt><trkpt lat="38.7478269" lon="16.189823"><ele>126.0</ele><time>2026-04-12T08:08:21.525Z</time></trkpt><trkpt lat="38.7475886" lon="16.1897269"><ele>128.0</ele><time>2026-04-12T08:08:22.516Z</time></trkpt><trkpt lat="38.7473389" lon="16.1896374"><ele>130.0</ele><time>2026-04-12T08:08:23.522Z</time></trkpt><trkpt lat="38.7470851" lon="16.1895521"><ele>133.5</ele><time>2026-04-12T08:08:24.531Z</time></trkpt><trkpt lat="38.7468327" lon="16.1894665"><ele>137.0</ele><time>2026-04-12T08:08:25.534Z</time></trkpt><trkpt lat="38.7465805" lon="16.1893818"><ele>137.0</ele><time>2026-04-12T08:08:26.526Z</time></trkpt><trkpt lat="38.7463291" lon="16.18929"><ele>137.0</ele><time>2026-04-12T08:08:27.519Z</time></trkpt><trkpt lat="38.7460804" lon="16.1891985"><ele>137.0</ele><time>2026-04-12T08:08:28.524Z</time></trkpt><trkpt lat="38.7458351" lon="16.1891035"><ele>137.0</ele><time>2026-04-12T08:08:29.528Z</time></trkpt><trkpt lat="38.7455957" lon="16.1889998"><ele>137.0</ele><time>2026-04-12T08:08:30.526Z</time></trkpt><trkpt lat="38.7453542" lon="16.1888949"><ele>137.0</ele><time>2026-04-12T08:08:31.519Z</time></trkpt><trkpt lat="38.7451124" lon="16.1887865"><ele>138.0</ele><time>2026-04-12T08:08:32.528Z</time></trkpt><trkpt lat="38.7448741" lon="16.18867"><ele>139.0</ele><time>2026-04-12T08:08:33.53Z</time></trkpt><trkpt lat="38.7446357" lon="16.1885461"><ele>139.0</ele><time>2026-04-12T08:08:34.522Z</time></trkpt><trkpt lat="38.7443966" lon="16.1884181"><ele>139.0</ele><time>2026-04-12T08:08:35.525Z</time></trkpt><trkpt lat="38.7441553" lon="16.1882877"><ele>137.5</ele><time>2026-04-12T08:08:36.535Z</time></trkpt><trkpt lat="38.7439139" lon="16.1881483"><ele>136.0</ele><time>2026-04-12T08:08:37.526Z</time></trkpt><trkpt lat="38.7436766" lon="16.1880013"><ele>141.5</ele><time>2026-04-12T08:08:38.529Z</time></trkpt><trkpt lat="38.7434446" lon="16.1878558"><ele>147.0</ele><time>2026-04-12T08:08:39.522Z</time></trkpt><trkpt lat="38.7432121" lon="16.1877064"><ele>147.0</ele><time>2026-04-12T08:08:40.574Z</time></trkpt><trkpt lat="38.7429822" lon="16.1875509"><ele>147.0</ele><time>2026-04-12T08:08:41.533Z</time></trkpt><trkpt lat="38.7427574" lon="16.1873937"><ele>145.5</ele><time>2026-04-12T08:08:42.523Z</time></trkpt><trkpt lat="38.7425408" lon="16.1872402"><ele>144.0</ele><time>2026-04-12T08:08:43.531Z</time></trkpt><trkpt lat="38.7423396" lon="16.1870823"><ele>144.0</ele><time>2026-04-12T08:08:44.53Z</time></trkpt><trkpt lat="38.74214" lon="16.1869342"><ele>144.0</ele><time>2026-04-12T08:08:45.528Z</time></trkpt><trkpt lat="38.7419421" lon="16.1867941"><ele>144.66666666666666</ele><time>2026-04-12T08:08:46.528Z</time></trkpt><trkpt lat="38.7417468" lon="16.1866504"><ele>145.33333333333331</ele><time>2026-04-12T08:08:47.528Z</time></trkpt><trkpt lat="38.741553" lon="16.1865057"><ele>146.0</ele><time>2026-04-12T08:08:48.539Z</time></trkpt><trkpt lat="38.7413575" lon="16.1863566"><ele>146.0</ele><time>2026-04-12T08:08:49.518Z</time></trkpt><trkpt lat="38.7411514" lon="16.1862066"><ele>146.0</ele><time>2026-04-12T08:08:50.533Z</time></trkpt><trkpt lat="38.7409477" lon="16.1860581"><ele>154.0</ele><time>2026-04-12T08:08:51.522Z</time></trkpt><trkpt lat="38.740742" lon="16.1859081"><ele>162.0</ele><time>2026-04-12T08:08:52.518Z</time></trkpt><trkpt lat="38.7405413" lon="16.1857508"><ele>165.5</ele><time>2026-04-12T08:08:53.525Z</time></trkpt><trkpt lat="38.7403472" lon="16.1855707"><ele>169.0</ele><time>2026-04-12T08:08:54.52Z</time></trkpt><trkpt lat="38.7401601" lon="16.1853736"><ele>169.0</ele><time>2026-04-12T08:08:55.522Z</time></trkpt><trkpt lat="38.7399788" lon="16.1851484"><ele>169.0</ele><time>2026-04-12T08:08:56.526Z</time></trkpt><trkpt lat="38.739811" lon="16.1849091"><ele>162.5</ele><time>2026-04-12T08:08:57.523Z</time></trkpt><trkpt lat="38.7396624" lon="16.1846692"><ele>156.0</ele><time>2026-04-12T08:08:58.527Z</time></trkpt><trkpt lat="38.7395341" lon="16.18443"><ele>156.0</ele><time>2026-04-12T08:08:59.526Z</time></trkpt><trkpt lat="38.7394047" lon="16.1841956"><ele>156.0</ele><time>2026-04-12T08:09:00.52Z</time></trkpt><trkpt lat="38.7392963" lon="16.1839478"><ele>156.0</ele><time>2026-04-12T08:09:01.525Z</time></trkpt><trkpt lat="38.7391861" lon="16.1836934"><ele>158.5</ele><time>2026-04-12T08:09:02.526Z</time></trkpt><trkpt lat="38.7390773" lon="16.1834285"><ele>161.0</ele><time>2026-04-12T08:09:03.519Z</time></trkpt><trkpt lat="38.7389649" lon="16.1831598"><ele>161.0</ele><time>2026-04-12T08:09:04.525Z</time></trkpt><trkpt lat="38.738846" lon="16.1828974"><ele>161.0</ele><time>2026-04-12T08:09:05.525Z</time></trkpt><trkpt lat="38.7387151" lon="16.18264"><ele>161.0</ele><time>2026-04-12T08:09:06.523Z</time></trkpt><trkpt lat="38.7385675" lon="16.1823947"><ele>161.0</ele><time>2026-04-12T08:09:07.531Z</time></trkpt><trkpt lat="38.7384004" lon="16.1821608"><ele>166.5</ele><time>2026-04-12T08:09:08.528Z</time></trkpt><trkpt lat="38.7382197" lon="16.1819388"><ele>172.0</ele><time>2026-04-12T08:09:09.528Z</time></trkpt><trkpt lat="38.738024" lon="16.1817316"><ele>172.0</ele><time>2026-04-12T08:09:10.523Z</time></trkpt><trkpt lat="38.7378216" lon="16.1815355"><ele>172.0</ele><time>2026-04-12T08:09:11.533Z</time></trkpt><trkpt lat="38.7376177" lon="16.1813394"><ele>174.0</ele><time>2026-04-12T08:09:12.525Z</time></trkpt><trkpt lat="38.7374182" lon="16.1811373"><ele>176.0</ele><time>2026-04-12T08:09:13.531Z</time></trkpt><trkpt lat="38.7372214" lon="16.1809328"><ele>176.0</ele><time>2026-04-12T08:09:14.524Z</time></trkpt><trkpt lat="38.7370296" lon="16.1807158"><ele>176.0</ele><time>2026-04-12T08:09:15.526Z</time></trkpt><trkpt lat="38.7368479" lon="16.1804935"><ele>179.5</ele><time>2026-04-12T08:09:16.521Z</time></trkpt><trkpt lat="38.7366674" lon="16.1802651"><ele>183.0</ele><time>2026-04-12T08:09:17.522Z</time></trkpt><trkpt lat="38.7364939" lon="16.1800307"><ele>177.5</ele><time>2026-04-12T08:09:18.521Z</time></trkpt><trkpt lat="38.7363279" lon="16.1797869"><ele>172.0</ele><time>2026-04-12T08:09:19.532Z</time></trkpt><trkpt lat="38.736169" lon="16.1795345"><ele>186.5</ele><time>2026-04-12T08:09:20.518Z</time></trkpt><trkpt lat="38.7360133" lon="16.1792787"><ele>201.0</ele><time>2026-04-12T08:09:21.524Z</time></trkpt><trkpt lat="38.7358593" lon="16.1790189"><ele>194.0</ele><time>2026-04-12T08:09:22.523Z</time></trkpt><trkpt lat="38.7357158" lon="16.1787522"><ele>187.0</ele><time>2026-04-12T08:09:23.526Z</time></trkpt><trkpt lat="38.7355783" lon="16.1784755"><ele>187.0</ele><time>2026-04-12T08:09:24.52Z</time></trkpt><trkpt lat="38.7354491" lon="16.1781916"><ele>187.0</ele><time>2026-04-12T08:09:25.52Z</time></trkpt><trkpt lat="38.7353285" lon="16.1779019"><ele>193.0</ele><time>2026-04-12T08:09:26.523Z</time></trkpt><trkpt lat="38.7352148" lon="16.1776078"><ele>199.0</ele><time>2026-04-12T08:09:27.53Z</time></trkpt><trkpt lat="38.7351058" lon="16.1773081"><ele>199.0</ele><time>2026-04-12T08:09:28.526Z</time></trkpt><trkpt lat="38.7350039" lon="16.1770045"><ele>199.0</ele><time>2026-04-12T08:09:29.526Z</time></trkpt><trkpt lat="38.7349096" lon="16.1766957"><ele>191.0</ele><time>2026-04-12T08:09:30.523Z</time></trkpt><trkpt lat="38.7348175" lon="16.1763908"><ele>183.0</ele><time>2026-04-12T08:09:31.534Z</time></trkpt><trkpt lat="38.7347432" lon="16.176073"><ele>183.0</ele><time>2026-04-12T08:09:32.526Z</time></trkpt><trkpt lat="38.734675" lon="16.1757627"><ele>183.0</ele><time>2026-04-12T08:09:33.527Z</time></trkpt><trkpt lat="38.7346015" lon="16.1754494"><ele>174.5</ele><time>2026-04-12T08:09:34.526Z</time></trkpt><trkpt lat="38.734529" lon="16.1751446"><ele>166.0</ele><time>2026-04-12T08:09:35.524Z</time></trkpt><trkpt lat="38.7344542" lon="16.1748365"><ele>186.0</ele><time>2026-04-12T08:09:36.529Z</time></trkpt><trkpt lat="38.7343827" lon="16.1745335"><ele>206.0</ele><time>2026-04-12T08:09:37.524Z</time></trkpt><trkpt lat="38.734315" lon="16.1742316"><ele>196.5</ele><time>2026-04-12T08:09:38.529Z</time></trkpt><trkpt lat="38.7342464" lon="16.173932"><ele>187.0</ele><time>2026-04-12T08:09:39.528Z</time></trkpt><trkpt lat="38.7341806" lon="16.1736337"><ele>187.0</ele><time>2026-04-12T08:09:40.522Z</time></trkpt><trkpt lat="38.7341112" lon="16.1733345"><ele>187.0</ele><time>2026-04-12T08:09:41.532Z</time></trkpt><trkpt lat="38.7340421" lon="16.1730375"><ele>181.5</ele><time>2026-04-12T08:09:42.526Z</time></trkpt><trkpt lat="38.7339699" lon="16.1727364"><ele>176.0</ele><time>2026-04-12T08:09:43.535Z</time></trkpt><trkpt lat="38.7338962" lon="16.1724353"><ele>170.0</ele><time>2026-04-12T08:09:44.524Z</time></trkpt><trkpt lat="38.7338127" lon="16.1721328"><ele>164.0</ele><time>2026-04-12T08:09:45.536Z</time></trkpt><trkpt lat="38.7337203" lon="16.1718316"><ele>164.0</ele><time>2026-04-12T08:09:46.529Z</time></trkpt><trkpt lat="38.7336175" lon="16.1715322"><ele>164.0</ele><time>2026-04-12T08:09:47.523Z</time></trkpt><trkpt lat="38.7335055" lon="16.1712312"><ele>164.5</ele><time>2026-04-12T08:09:48.529Z</time></trkpt><trkpt lat="38.7333838" lon="16.1709274"><ele>165.0</ele><time>2026-04-12T08:09:49.529Z</time></trkpt><trkpt lat="38.7332546" lon="16.1706258"><ele>165.0</ele><time>2026-04-12T08:09:50.522Z</time></trkpt><trkpt lat="38.7331157" lon="16.1703296"><ele>165.0</ele><time>2026-04-12T08:09:51.527Z</time></trkpt><trkpt lat="38.7329687" lon="16.170039"><ele>160.5</ele><time>2026-04-12T08:09:52.533Z</time></trkpt><trkpt lat="38.7328152" lon="16.1697533"><ele>156.0</ele><time>2026-04-12T08:09:53.526Z</time></trkpt><trkpt lat="38.7326535" lon="16.1694765"><ele>162.0</ele><time>2026-04-12T08:09:54.519Z</time></trkpt><trkpt lat="38.7324857" lon="16.1692086"><ele>168.0</ele><time>2026-04-12T08:09:55.535Z</time></trkpt><trkpt lat="38.7323127" lon="16.1689456"><ele>168.0</ele><time>2026-04-12T08:09:56.534Z</time></trkpt><trkpt lat="38.7321315" lon="16.1686896"><ele>168.0</ele><time>2026-04-12T08:09:57.523Z</time></trkpt><trkpt lat="38.7319413" lon="16.1684411"><ele>177.5</ele><time>2026-04-12T08:09:58.524Z</time></trkpt><trkpt lat="38.7317442" lon="16.168199"><ele>187.0</ele><time>2026-04-12T08:09:59.529Z</time></trkpt><trkpt lat="38.7315372" lon="16.1679641"><ele>187.0</ele><time>2026-04-12T08:10:00.528Z</time></trkpt><trkpt lat="38.7313233" lon="16.1677371"><ele>187.0</ele><time>2026-04-12T08:10:01.527Z</time></trkpt><trkpt lat="38.7311019" lon="16.1675111"><ele>197.5</ele><time>2026-04-12T08:10:02.517Z</time></trkpt><trkpt lat="38.7308717" lon="16.1672877"><ele>208.0</ele><time>2026-04-12T08:10:03.515Z</time></trkpt><trkpt lat="38.7306391" lon="16.1670683"><ele>208.0</ele><time>2026-04-12T08:10:04.533Z</time></trkpt><trkpt lat="38.7304038" lon="16.1668503"><ele>208.0</ele><time>2026-04-12T08:10:05.523Z</time></trkpt><trkpt lat="38.7301682" lon="16.1666335"><ele>212.0</ele><time>2026-04-12T08:10:06.515Z</time></trkpt><trkpt lat="38.7299317" lon="16.166414"><ele>216.0</ele><time>2026-04-12T08:10:07.525Z</time></trkpt><trkpt lat="38.7296956" lon="16.1661924"><ele>216.0</ele><time>2026-04-12T08:10:08.523Z</time></trkpt><trkpt lat="38.7294623" lon="16.1659735"><ele>216.0</ele><time>2026-04-12T08:10:09.517Z</time></trkpt><trkpt lat="38.7292313" lon="16.1657577"><ele>219.0</ele><time>2026-04-12T08:10:10.523Z</time></trkpt><trkpt lat="38.7290018" lon="16.1655438"><ele>222.0</ele><time>2026-04-12T08:10:11.531Z</time></trkpt><trkpt lat="38.7287743" lon="16.1653305"><ele>234.0</ele><time>2026-04-12T08:10:12.524Z</time></trkpt><trkpt lat="38.7285404" lon="16.165121"><ele>246.0</ele><time>2026-04-12T08:10:13.526Z</time></trkpt><trkpt lat="38.7283039" lon="16.1649079"><ele>237.0</ele><time>2026-04-12T08:10:14.521Z</time></trkpt><trkpt lat="38.7280599" lon="16.1646913"><ele>228.0</ele><time>2026-04-12T08:10:15.53Z</time></trkpt><trkpt lat="38.727815" lon="16.1644634"><ele>229.5</ele><time>2026-04-12T08:10:16.525Z</time></trkpt><trkpt lat="38.7275769" lon="16.1642369"><ele>231.0</ele><time>2026-04-12T08:10:17.529Z</time></trkpt><trkpt lat="38.7273425" lon="16.1640153"><ele>231.0</ele><time>2026-04-12T08:10:18.523Z</time></trkpt><trkpt lat="38.7271057" lon="16.1637929"><ele>231.0</ele><time>2026-04-12T08:10:19.525Z</time></trkpt><trkpt lat="38.7268708" lon="16.1635766"><ele>229.5</ele><time>2026-04-12T08:10:20.521Z</time></trkpt><trkpt lat="38.7266375" lon="16.1633589"><ele>228.0</ele><time>2026-04-12T08:10:21.519Z</time></trkpt><trkpt lat="38.7264069" lon="16.1631365"><ele>228.0</ele><time>2026-04-12T08:10:22.525Z</time></trkpt><trkpt lat="38.7261762" lon="16.1629168"><ele>228.0</ele><time>2026-04-12T08:10:23.53Z</time></trkpt><trkpt lat="38.7259446" lon="16.1626977"><ele>228.0</ele><time>2026-04-12T08:10:24.535Z</time></trkpt><trkpt lat="38.7257114" lon="16.1624823"><ele>228.0</ele><time>2026-04-12T08:10:25.516Z</time></trkpt><trkpt lat="38.7254791" lon="16.1622684"><ele>228.0</ele><time>2026-04-12T08:10:26.526Z</time></trkpt><trkpt lat="38.7252479" lon="16.1620514"><ele>228.0</ele><time>2026-04-12T08:10:27.521Z</time></trkpt><trkpt lat="38.7250202" lon="16.1618421"><ele>232.0</ele><time>2026-04-12T08:10:28.524Z</time></trkpt><trkpt lat="38.7247936" lon="16.1616307"><ele>236.0</ele><time>2026-04-12T08:10:29.528Z</time></trkpt><trkpt lat="38.7245641" lon="16.1614209"><ele>254.0</ele><time>2026-04-12T08:10:30.522Z</time></trkpt><trkpt lat="38.7243409" lon="16.1612112"><ele>272.0</ele><time>2026-04-12T08:10:31.527Z</time></trkpt><trkpt lat="38.7241131" lon="16.1610059"><ele>272.0</ele><time>2026-04-12T08:10:32.522Z</time></trkpt><trkpt lat="38.7238855" lon="16.1608056"><ele>272.0</ele><time>2026-04-12T08:10:33.519Z</time></trkpt><trkpt lat="38.7236569" lon="16.1606069"><ele>273.5</ele><time>2026-04-12T08:10:34.529Z</time></trkpt><trkpt lat="38.7234291" lon="16.1604122"><ele>275.0</ele><time>2026-04-12T08:10:35.519Z</time></trkpt><trkpt lat="38.7232059" lon="16.1602159"><ele>275.0</ele><time>2026-04-12T08:10:36.522Z</time></trkpt><trkpt lat="38.722983" lon="16.1600144"><ele>275.0</ele><time>2026-04-12T08:10:37.521Z</time></trkpt><trkpt lat="38.7227632" lon="16.1598163"><ele>276.0</ele><time>2026-04-12T08:10:38.526Z</time></trkpt><trkpt lat="38.7225475" lon="16.1596099"><ele>277.0</ele><time>2026-04-12T08:10:39.515Z</time></trkpt><trkpt lat="38.7223324" lon="16.1593957"><ele>277.0</ele><time>2026-04-12T08:10:40.517Z</time></trkpt><trkpt lat="38.7221236" lon="16.1591753"><ele>277.0</ele><time>2026-04-12T08:10:41.523Z</time></trkpt><trkpt lat="38.7219158" lon="16.1589469"><ele>281.0</ele><time>2026-04-12T08:10:42.516Z</time></trkpt><trkpt lat="38.7217099" lon="16.1587108"><ele>285.0</ele><time>2026-04-12T08:10:43.531Z</time></trkpt><trkpt lat="38.7215065" lon="16.1584667"><ele>285.0</ele><time>2026-04-12T08:10:44.529Z</time></trkpt><trkpt lat="38.721303" lon="16.1582185"><ele>285.0</ele><time>2026-04-12T08:10:45.513Z</time></trkpt><trkpt lat="38.7210974" lon="16.1579561"><ele>291.5</ele><time>2026-04-12T08:10:46.525Z</time></trkpt><trkpt lat="38.7208864" lon="16.1576971"><ele>298.0</ele><time>2026-04-12T08:10:47.527Z</time></trkpt><trkpt lat="38.7206748" lon="16.1574315"><ele>285.0</ele><time>2026-04-12T08:10:48.524Z</time></trkpt><trkpt lat="38.7204705" lon="16.1571688"><ele>272.0</ele><time>2026-04-12T08:10:49.516Z</time></trkpt><trkpt lat="38.7202695" lon="16.1569132"><ele>284.0</ele><time>2026-04-12T08:10:50.518Z</time></trkpt><trkpt lat="38.7200695" lon="16.156657"><ele>296.0</ele><time>2026-04-12T08:10:51.513Z</time></trkpt><trkpt lat="38.7198732" lon="16.1564064"><ele>296.0</ele><time>2026-04-12T08:10:52.518Z</time></trkpt><trkpt lat="38.7196784" lon="16.1561595"><ele>296.0</ele><time>2026-04-12T08:10:53.532Z</time></trkpt><trkpt lat="38.7194829" lon="16.1559229"><ele>294.0</ele><time>2026-04-12T08:10:54.529Z</time></trkpt><trkpt lat="38.7192794" lon="16.1556989"><ele>292.0</ele><time>2026-04-12T08:10:55.522Z</time></trkpt><trkpt lat="38.7190584" lon="16.1554968"><ele>292.0</ele><time>2026-04-12T08:10:56.531Z</time></trkpt><trkpt lat="38.7188252" lon="16.1553197"><ele>292.0</ele><time>2026-04-12T08:10:57.527Z</time></trkpt><trkpt lat="38.7185811" lon="16.1551697"><ele>301.0</ele><time>2026-04-12T08:10:58.512Z</time></trkpt><trkpt lat="38.7183392" lon="16.1550423"><ele>310.0</ele><time>2026-04-12T08:10:59.519Z</time></trkpt><trkpt lat="38.7181022" lon="16.1549372"><ele>300.0</ele><time>2026-04-12T08:11:00.518Z</time></trkpt><trkpt lat="38.7178725" lon="16.1548544"><ele>290.0</ele><time>2026-04-12T08:11:01.523Z</time></trkpt><trkpt lat="38.7176455" lon="16.1547891"><ele>290.0</ele><time>2026-04-12T08:11:02.532Z</time></trkpt><trkpt lat="38.7174202" lon="16.1547346"><ele>290.0</ele><time>2026-04-12T08:11:03.519Z</time></trkpt><trkpt lat="38.7171975" lon="16.1546819"><ele>290.0</ele><time>2026-04-12T08:11:04.529Z</time></trkpt><trkpt lat="38.7169802" lon="16.1546277"><ele>290.0</ele><time>2026-04-12T08:11:05.529Z</time></trkpt><trkpt lat="38.7167696" lon="16.1545763"><ele>290.0</ele><time>2026-04-12T08:11:06.516Z</time></trkpt><trkpt lat="38.7165608" lon="16.1545271"><ele>295.33333333333337</ele><time>2026-04-12T08:11:07.523Z</time></trkpt><trkpt lat="38.7163526" lon="16.1544803"><ele>300.6666666666667</ele><time>2026-04-12T08:11:08.522Z</time></trkpt><trkpt lat="38.7161392" lon="16.1544333"><ele>306.0</ele><time>2026-04-12T08:11:09.516Z</time></trkpt><trkpt lat="38.7159154" lon="16.1543857"><ele>312.5</ele><time>2026-04-12T08:11:10.52Z</time></trkpt><trkpt lat="38.7156791" lon="16.1543323"><ele>319.0</ele><time>2026-04-12T08:11:11.53Z</time></trkpt><trkpt lat="38.715438" lon="16.1542805"><ele>323.5</ele><time>2026-04-12T08:11:12.521Z</time></trkpt><trkpt lat="38.7151937" lon="16.1542293"><ele>328.0</ele><time>2026-04-12T08:11:13.508Z</time></trkpt><trkpt lat="38.7149426" lon="16.1541703"><ele>328.0</ele><time>2026-04-12T08:11:14.528Z</time></trkpt><trkpt lat="38.7146783" lon="16.1541158"><ele>328.0</ele><time>2026-04-12T08:11:15.523Z</time></trkpt><trkpt lat="38.7144018" lon="16.1540596"><ele>326.0</ele><time>2026-04-12T08:11:16.513Z</time></trkpt><trkpt lat="38.7141147" lon="16.1540103"><ele>324.0</ele><time>2026-04-12T08:11:17.52Z</time></trkpt><trkpt lat="38.713821" lon="16.1539628"><ele>328.0</ele><time>2026-04-12T08:11:18.522Z</time></trkpt><trkpt lat="38.7135228" lon="16.1539213"><ele>332.0</ele><time>2026-04-12T08:11:19.52Z</time></trkpt><trkpt lat="38.7132268" lon="16.153885"><ele>332.0</ele><time>2026-04-12T08:11:20.528Z</time></trkpt><trkpt lat="38.712943" lon="16.1538566"><ele>332.0</ele><time>2026-04-12T08:11:21.529Z</time></trkpt><trkpt lat="38.7126618" lon="16.1538323"><ele>337.0</ele><time>2026-04-12T08:11:22.521Z</time></trkpt><trkpt lat="38.7123837" lon="16.1538119"><ele>342.0</ele><time>2026-04-12T08:11:23.523Z</time></trkpt><trkpt lat="38.7121012" lon="16.153797"><ele>351.5</ele><time>2026-04-12T08:11:24.529Z</time></trkpt><trkpt lat="38.7118081" lon="16.1537878"><ele>361.0</ele><time>2026-04-12T08:11:25.529Z</time></trkpt><trkpt lat="38.7115005" lon="16.1537837"><ele>361.0</ele><time>2026-04-12T08:11:26.526Z</time></trkpt><trkpt lat="38.7111825" lon="16.153785"><ele>361.0</ele><time>2026-04-12T08:11:27.532Z</time></trkpt><trkpt lat="38.7108537" lon="16.1537858"><ele>361.5</ele><time>2026-04-12T08:11:28.528Z</time></trkpt><trkpt lat="38.7105165" lon="16.1537852"><ele>362.0</ele><time>2026-04-12T08:11:29.527Z</time></trkpt><trkpt lat="38.7101711" lon="16.1537865"><ele>362.0</ele><time>2026-04-12T08:11:30.524Z</time></trkpt><trkpt lat="38.7098194" lon="16.1537882"><ele>362.0</ele><time>2026-04-12T08:11:31.522Z</time></trkpt><trkpt lat="38.7094606" lon="16.1537897"><ele>362.5</ele><time>2026-04-12T08:11:32.518Z</time></trkpt><trkpt lat="38.7090939" lon="16.1537912"><ele>363.0</ele><time>2026-04-12T08:11:33.524Z</time></trkpt><trkpt lat="38.7087191" lon="16.1537947"><ele>364.5</ele><time>2026-04-12T08:11:34.523Z</time></trkpt><trkpt lat="38.7083364" lon="16.1537978"><ele>366.0</ele><time>2026-04-12T08:11:35.527Z</time></trkpt><trkpt lat="38.7079481" lon="16.1537989"><ele>371.0</ele><time>2026-04-12T08:11:36.525Z</time></trkpt><trkpt lat="38.7075562" lon="16.1537997"><ele>376.0</ele><time>2026-04-12T08:11:37.547Z</time></trkpt><trkpt lat="38.707167" lon="16.1538002"><ele>376.0</ele><time>2026-04-12T08:11:38.523Z</time></trkpt><trkpt lat="38.7067847" lon="16.1538002"><ele>376.0</ele><time>2026-04-12T08:11:39.523Z</time></trkpt><trkpt lat="38.7064079" lon="16.1537989"><ele>374.0</ele><time>2026-04-12T08:11:40.523Z</time></trkpt><trkpt lat="38.7060381" lon="16.1537987"><ele>372.0</ele><time>2026-04-12T08:11:41.534Z</time></trkpt><trkpt lat="38.7056769" lon="16.1538016"><ele>372.0</ele><time>2026-04-12T08:11:42.528Z</time></trkpt><trkpt lat="38.7053237" lon="16.1538129"><ele>372.0</ele><time>2026-04-12T08:11:43.515Z</time></trkpt><trkpt lat="38.7049798" lon="16.1538391"><ele>370.5</ele><time>2026-04-12T08:11:44.525Z</time></trkpt><trkpt lat="38.7046435" lon="16.1538876"><ele>369.0</ele><time>2026-04-12T08:11:45.529Z</time></trkpt><trkpt lat="38.7043219" lon="16.1539571"><ele>365.5</ele><time>2026-04-12T08:11:46.518Z</time></trkpt><trkpt lat="38.7040169" lon="16.1540433"><ele>362.0</ele><time>2026-04-12T08:11:47.529Z</time></trkpt><trkpt lat="38.7037279" lon="16.154141"><ele>360.0</ele><time>2026-04-12T08:11:48.537Z</time></trkpt><trkpt lat="38.7034534" lon="16.1542495"><ele>358.0</ele><time>2026-04-12T08:11:49.519Z</time></trkpt><trkpt lat="38.703186" lon="16.1543718"><ele>358.0</ele><time>2026-04-12T08:11:50.526Z</time></trkpt><trkpt lat="38.7029174" lon="16.1545148"><ele>358.0</ele><time>2026-04-12T08:11:51.525Z</time></trkpt><trkpt lat="38.7026408" lon="16.1546805"><ele>356.0</ele><time>2026-04-12T08:11:52.535Z</time></trkpt><trkpt lat="38.7023547" lon="16.1548614"><ele>354.0</ele><time>2026-04-12T08:11:53.526Z</time></trkpt><trkpt lat="38.7020619" lon="16.155041"><ele>348.0</ele><time>2026-04-12T08:11:54.534Z</time></trkpt><trkpt lat="38.7017607" lon="16.1552009"><ele>342.0</ele><time>2026-04-12T08:11:55.532Z</time></trkpt><trkpt lat="38.701451" lon="16.1553332"><ele>342.0</ele><time>2026-04-12T08:11:56.517Z</time></trkpt><trkpt lat="38.7011365" lon="16.1554364"><ele>342.0</ele><time>2026-04-12T08:11:57.527Z</time></trkpt><trkpt lat="38.7008212" lon="16.1555106"><ele>342.0</ele><time>2026-04-12T08:11:58.524Z</time></trkpt><trkpt lat="38.7005055" lon="16.155554"><ele>342.0</ele><time>2026-04-12T08:11:59.515Z</time></trkpt><trkpt lat="38.7001893" lon="16.1555667"><ele>342.0</ele><time>2026-04-12T08:12:00.521Z</time></trkpt><trkpt lat="38.6998737" lon="16.1555516"><ele>342.0</ele><time>2026-04-12T08:12:01.529Z</time></trkpt><trkpt lat="38.6995662" lon="16.1555095"><ele>339.5</ele><time>2026-04-12T08:12:02.521Z</time></trkpt><trkpt lat="38.6992662" lon="16.1554515"><ele>337.0</ele><time>2026-04-12T08:12:03.522Z</time></trkpt><trkpt lat="38.698966" lon="16.1553942"><ele>337.0</ele><time>2026-04-12T08:12:04.523Z</time></trkpt><trkpt lat="38.6986679" lon="16.1553468"><ele>337.0</ele><time>2026-04-12T08:12:05.53Z</time></trkpt><trkpt lat="38.6983712" lon="16.1553075"><ele>334.5</ele><time>2026-04-12T08:12:06.522Z</time></trkpt><trkpt lat="38.698071" lon="16.1553097"><ele>332.0</ele><time>2026-04-12T08:12:07.529Z</time></trkpt><trkpt lat="38.6977822" lon="16.155341"><ele>329.5</ele><time>2026-04-12T08:12:08.521Z</time></trkpt><trkpt lat="38.6974966" lon="16.1553804"><ele>327.0</ele><time>2026-04-12T08:12:09.525Z</time></trkpt><trkpt lat="38.6972137" lon="16.1554378"><ele>327.0</ele><time>2026-04-12T08:12:10.521Z</time></trkpt><trkpt lat="38.6969267" lon="16.1555104"><ele>327.0</ele><time>2026-04-12T08:12:11.521Z</time></trkpt><trkpt lat="38.6966365" lon="16.1555849"><ele>327.5</ele><time>2026-04-12T08:12:12.531Z</time></trkpt><trkpt lat="38.6963353" lon="16.1556619"><ele>328.0</ele><time>2026-04-12T08:12:13.524Z</time></trkpt><trkpt lat="38.6960193" lon="16.1557458"><ele>326.5</ele><time>2026-04-12T08:12:14.526Z</time></trkpt><trkpt lat="38.695687" lon="16.1558424"><ele>325.0</ele><time>2026-04-12T08:12:15.531Z</time></trkpt><trkpt lat="38.695347" lon="16.155945"><ele>324.0</ele><time>2026-04-12T08:12:16.523Z</time></trkpt><trkpt lat="38.6950062" lon="16.1560444"><ele>323.0</ele><time>2026-04-12T08:12:17.53Z</time></trkpt><trkpt lat="38.6946681" lon="16.1561379"><ele>322.5</ele><time>2026-04-12T08:12:18.519Z</time></trkpt><trkpt lat="38.6943334" lon="16.1562231"><ele>322.0</ele><time>2026-04-12T08:12:19.518Z</time></trkpt><trkpt lat="38.694004" lon="16.156303"><ele>322.0</ele><time>2026-04-12T08:12:20.522Z</time></trkpt><trkpt lat="38.693681" lon="16.1563807"><ele>322.0</ele><time>2026-04-12T08:12:21.527Z</time></trkpt><trkpt lat="38.6933649" lon="16.156461"><ele>318.0</ele><time>2026-04-12T08:12:22.521Z</time></trkpt><trkpt lat="38.6930556" lon="16.1565435"><ele>314.0</ele><time>2026-04-12T08:12:23.522Z</time></trkpt><trkpt lat="38.6927514" lon="16.156626"><ele>311.5</ele><time>2026-04-12T08:12:24.519Z</time></trkpt><trkpt lat="38.6924525" lon="16.1567094"><ele>309.0</ele><time>2026-04-12T08:12:25.518Z</time></trkpt><trkpt lat="38.692155" lon="16.1567952"><ele>308.0</ele><time>2026-04-12T08:12:26.526Z</time></trkpt><trkpt lat="38.6918598" lon="16.1568851"><ele>307.0</ele><time>2026-04-12T08:12:27.525Z</time></trkpt><trkpt lat="38.6915668" lon="16.156981"><ele>307.0</ele><time>2026-04-12T08:12:28.524Z</time></trkpt><trkpt lat="38.6912753" lon="16.1570896"><ele>307.0</ele><time>2026-04-12T08:12:29.529Z</time></trkpt><trkpt lat="38.6909862" lon="16.1572138"><ele>306.0</ele><time>2026-04-12T08:12:30.52Z</time></trkpt><trkpt lat="38.6906985" lon="16.1573517"><ele>305.0</ele><time>2026-04-12T08:12:31.536Z</time></trkpt><trkpt lat="38.690409" lon="16.1575052"><ele>307.5</ele><time>2026-04-12T08:12:32.517Z</time></trkpt><trkpt lat="38.6901204" lon="16.1576727"><ele>310.0</ele><time>2026-04-12T08:12:33.522Z</time></trkpt><trkpt lat="38.6898324" lon="16.1578594"><ele>310.0</ele><time>2026-04-12T08:12:34.522Z</time></trkpt><trkpt lat="38.689539" lon="16.1580644"><ele>310.0</ele><time>2026-04-12T08:12:35.524Z</time></trkpt><trkpt lat="38.689257" lon="16.1582744"><ele>303.5</ele><time>2026-04-12T08:12:36.529Z</time></trkpt><trkpt lat="38.6889917" lon="16.1584871"><ele>297.0</ele><time>2026-04-12T08:12:37.523Z</time></trkpt><trkpt lat="38.6887422" lon="16.1587036"><ele>295.5</ele><time>2026-04-12T08:12:38.522Z</time></trkpt><trkpt lat="38.6885058" lon="16.1589238"><ele>294.0</ele><time>2026-04-12T08:12:39.536Z</time></trkpt><trkpt lat="38.6882743" lon="16.1591469"><ele>294.0</ele><time>2026-04-12T08:12:40.532Z</time></trkpt><trkpt lat="38.6880459" lon="16.1593726"><ele>294.0</ele><time>2026-04-12T08:12:41.518Z</time></trkpt><trkpt lat="38.6878235" lon="16.1595957"><ele>293.0</ele><time>2026-04-12T08:12:42.528Z</time></trkpt><trkpt lat="38.687601" lon="16.1598195"><ele>292.0</ele><time>2026-04-12T08:12:43.535Z</time></trkpt><trkpt lat="38.6873757" lon="16.1600444"><ele>292.0</ele><time>2026-04-12T08:12:44.527Z</time></trkpt><trkpt lat="38.6871507" lon="16.1602701"><ele>292.0</ele><time>2026-04-12T08:12:45.515Z</time></trkpt><trkpt lat="38.6869316" lon="16.1604916"><ele>284.5</ele><time>2026-04-12T08:12:46.529Z</time></trkpt><trkpt lat="38.6867102" lon="16.1607141"><ele>277.0</ele><time>2026-04-12T08:12:47.521Z</time></trkpt><trkpt lat="38.6864903" lon="16.1609386"><ele>277.0</ele><time>2026-04-12T08:12:48.525Z</time></trkpt><trkpt lat="38.6862644" lon="16.1611693"><ele>277.0</ele><time>2026-04-12T08:12:49.531Z</time></trkpt><trkpt lat="38.6860372" lon="16.1614019"><ele>273.5</ele><time>2026-04-12T08:12:50.53Z</time></trkpt><trkpt lat="38.6858103" lon="16.1616357"><ele>270.0</ele><time>2026-04-12T08:12:51.53Z</time></trkpt><trkpt lat="38.6855837" lon="16.1618631"><ele>270.0</ele><time>2026-04-12T08:12:52.528Z</time></trkpt><trkpt lat="38.685359" lon="16.1620857"><ele>270.0</ele><time>2026-04-12T08:12:53.524Z</time></trkpt><trkpt lat="38.6851428" lon="16.1623078"><ele>274.5</ele><time>2026-04-12T08:12:54.531Z</time></trkpt><trkpt lat="38.6849312" lon="16.1625221"><ele>279.0</ele><time>2026-04-12T08:12:55.523Z</time></trkpt><trkpt lat="38.6847281" lon="16.1627336"><ele>279.0</ele><time>2026-04-12T08:12:56.521Z</time></trkpt><trkpt lat="38.6845296" lon="16.1629485"><ele>279.0</ele><time>2026-04-12T08:12:57.522Z</time></trkpt><trkpt lat="38.6843427" lon="16.1631712"><ele>276.5</ele><time>2026-04-12T08:12:58.533Z</time></trkpt><trkpt lat="38.6841665" lon="16.1634007"><ele>274.0</ele><time>2026-04-12T08:12:59.533Z</time></trkpt><trkpt lat="38.6839929" lon="16.1636388"><ele>274.0</ele><time>2026-04-12T08:13:00.531Z</time></trkpt><trkpt lat="38.6838242" lon="16.1638872"><ele>274.0</ele><time>2026-04-12T08:13:01.53Z</time></trkpt><trkpt lat="38.6836596" lon="16.164146"><ele>265.5</ele><time>2026-04-12T08:13:02.527Z</time></trkpt><trkpt lat="38.6834978" lon="16.16442"><ele>257.0</ele><time>2026-04-12T08:13:03.528Z</time></trkpt><trkpt lat="38.6833422" lon="16.1647041"><ele>256.0</ele><time>2026-04-12T08:13:04.53Z</time></trkpt><trkpt lat="38.6831926" lon="16.1650026"><ele>255.0</ele><time>2026-04-12T08:13:05.518Z</time></trkpt><trkpt lat="38.6830503" lon="16.165317"><ele>255.0</ele><time>2026-04-12T08:13:06.53Z</time></trkpt><trkpt lat="38.682915" lon="16.1656454"><ele>255.0</ele><time>2026-04-12T08:13:07.53Z</time></trkpt><trkpt lat="38.6827826" lon="16.1659846"><ele>256.5</ele><time>2026-04-12T08:13:08.527Z</time></trkpt><trkpt lat="38.6826478" lon="16.1663358"><ele>258.0</ele><time>2026-04-12T08:13:09.529Z</time></trkpt><trkpt lat="38.6825149" lon="16.1666862"><ele>258.0</ele><time>2026-04-12T08:13:10.52Z</time></trkpt><trkpt lat="38.6823824" lon="16.1670335"><ele>258.0</ele><time>2026-04-12T08:13:11.527Z</time></trkpt><trkpt lat="38.6822488" lon="16.1673769"><ele>254.0</ele><time>2026-04-12T08:13:12.529Z</time></trkpt><trkpt lat="38.6821161" lon="16.1677175"><ele>250.0</ele><time>2026-04-12T08:13:13.522Z</time></trkpt><trkpt lat="38.6819876" lon="16.1680487"><ele>253.0</ele><time>2026-04-12T08:13:14.523Z</time></trkpt><trkpt lat="38.6818606" lon="16.1683696"><ele>256.0</ele><time>2026-04-12T08:13:15.527Z</time></trkpt><trkpt lat="38.6817317" lon="16.1686844"><ele>256.0</ele><time>2026-04-12T08:13:16.528Z</time></trkpt><trkpt lat="38.6816016" lon="16.1689933"><ele>256.0</ele><time>2026-04-12T08:13:17.522Z</time></trkpt><trkpt lat="38.68147" lon="16.169292"><ele>251.0</ele><time>2026-04-12T08:13:18.53Z</time></trkpt><trkpt lat="38.6813372" lon="16.1695851"><ele>246.0</ele><time>2026-04-12T08:13:19.526Z</time></trkpt><trkpt lat="38.6812005" lon="16.1698721"><ele>239.5</ele><time>2026-04-12T08:13:20.522Z</time></trkpt><trkpt lat="38.681061" lon="16.1701526"><ele>233.0</ele><time>2026-04-12T08:13:21.531Z</time></trkpt><trkpt lat="38.6809199" lon="16.1704302"><ele>230.5</ele><time>2026-04-12T08:13:22.543Z</time></trkpt><trkpt lat="38.6807775" lon="16.1707063"><ele>228.0</ele><time>2026-04-12T08:13:23.527Z</time></trkpt><trkpt lat="38.6806312" lon="16.1709792"><ele>228.0</ele><time>2026-04-12T08:13:24.523Z</time></trkpt><trkpt lat="38.6804778" lon="16.1712516"><ele>228.0</ele><time>2026-04-12T08:13:25.533Z</time></trkpt><trkpt lat="38.6803186" lon="16.1715249"><ele>225.0</ele><time>2026-04-12T08:13:26.537Z</time></trkpt><trkpt lat="38.6801567" lon="16.1718011"><ele>222.0</ele><time>2026-04-12T08:13:27.523Z</time></trkpt><trkpt lat="38.6799912" lon="16.1720786"><ele>222.0</ele><time>2026-04-12T08:13:28.529Z</time></trkpt><trkpt lat="38.6798182" lon="16.1723527"><ele>222.0</ele><time>2026-04-12T08:13:29.538Z</time></trkpt><trkpt lat="38.6796403" lon="16.1726245"><ele>225.0</ele><time>2026-04-12T08:13:30.544Z</time></trkpt><trkpt lat="38.6794581" lon="16.1728952"><ele>228.0</ele><time>2026-04-12T08:13:31.52Z</time></trkpt><trkpt lat="38.6792699" lon="16.1731617"><ele>214.0</ele><time>2026-04-12T08:13:32.521Z</time></trkpt><trkpt lat="38.6790794" lon="16.1734249"><ele>200.0</ele><time>2026-04-12T08:13:33.524Z</time></trkpt><trkpt lat="38.6788837" lon="16.1736885"><ele>200.0</ele><time>2026-04-12T08:13:34.514Z</time></trkpt><trkpt lat="38.6786804" lon="16.1739523"><ele>200.0</ele><time>2026-04-12T08:13:35.527Z</time></trkpt><trkpt lat="38.6784724" lon="16.1742134"><ele>199.0</ele><time>2026-04-12T08:13:36.529Z</time></trkpt><trkpt lat="38.6782623" lon="16.1744732"><ele>198.0</ele><time>2026-04-12T08:13:37.526Z</time></trkpt><trkpt lat="38.6780505" lon="16.1747323"><ele>193.0</ele><time>2026-04-12T08:13:38.523Z</time></trkpt><trkpt lat="38.6778362" lon="16.17499"><ele>188.0</ele><time>2026-04-12T08:13:39.525Z</time></trkpt><trkpt lat="38.6776197" lon="16.1752474"><ele>200.5</ele><time>2026-04-12T08:13:40.528Z</time></trkpt><trkpt lat="38.6774007" lon="16.1755038"><ele>213.0</ele><time>2026-04-12T08:13:41.529Z</time></trkpt><trkpt lat="38.6771778" lon="16.1757571"><ele>213.0</ele><time>2026-04-12T08:13:42.534Z</time></trkpt><trkpt lat="38.6769526" lon="16.1760049"><ele>213.0</ele><time>2026-04-12T08:13:43.535Z</time></trkpt><trkpt lat="38.6767255" lon="16.1762476"><ele>215.0</ele><time>2026-04-12T08:13:44.521Z</time></trkpt><trkpt lat="38.6764959" lon="16.176486"><ele>217.0</ele><time>2026-04-12T08:13:45.528Z</time></trkpt><trkpt lat="38.6762622" lon="16.1767189"><ele>220.0</ele><time>2026-04-12T08:13:46.523Z</time></trkpt><trkpt lat="38.6760258" lon="16.1769461"><ele>223.0</ele><time>2026-04-12T08:13:47.546Z</time></trkpt><trkpt lat="38.675788" lon="16.1771693"><ele>215.0</ele><time>2026-04-12T08:13:48.527Z</time></trkpt><trkpt lat="38.6755495" lon="16.1773908"><ele>207.0</ele><time>2026-04-12T08:13:49.53Z</time></trkpt><trkpt lat="38.6753101" lon="16.1776118"><ele>212.0</ele><time>2026-04-12T08:13:50.52Z</time></trkpt><trkpt lat="38.6750706" lon="16.1778328"><ele>217.0</ele><time>2026-04-12T08:13:51.523Z</time></trkpt><trkpt lat="38.6748309" lon="16.1780542"><ele>217.5</ele><time>2026-04-12T08:13:52.518Z</time></trkpt><trkpt lat="38.6745909" lon="16.1782755"><ele>218.0</ele><time>2026-04-12T08:13:53.525Z</time></trkpt><trkpt lat="38.6743506" lon="16.1784971"><ele>218.0</ele><time>2026-04-12T08:13:54.529Z</time></trkpt><trkpt lat="38.6741112" lon="16.1787195"><ele>218.0</ele><time>2026-04-12T08:13:55.534Z</time></trkpt><trkpt lat="38.6738717" lon="16.1789427"><ele>211.0</ele><time>2026-04-12T08:13:56.516Z</time></trkpt><trkpt lat="38.6736308" lon="16.1791665"><ele>204.0</ele><time>2026-04-12T08:13:57.53Z</time></trkpt><trkpt lat="38.6733889" lon="16.1793895"><ele>204.0</ele><time>2026-04-12T08:13:58.525Z</time></trkpt><trkpt lat="38.6731458" lon="16.1796126"><ele>204.0</ele><time>2026-04-12T08:13:59.521Z</time></trkpt><trkpt lat="38.672902" lon="16.1798371"><ele>197.5</ele><time>2026-04-12T08:14:00.532Z</time></trkpt><trkpt lat="38.672659" lon="16.1800647"><ele>191.0</ele><time>2026-04-12T08:14:01.531Z</time></trkpt><trkpt lat="38.6724167" lon="16.1802959"><ele>191.0</ele><time>2026-04-12T08:14:02.515Z</time></trkpt><trkpt lat="38.6721736" lon="16.1805286"><ele>191.0</ele><time>2026-04-12T08:14:03.532Z</time></trkpt><trkpt lat="38.6719295" lon="16.1807617"><ele>195.5</ele><time>2026-04-12T08:14:04.527Z</time></trkpt><trkpt lat="38.6716811" lon="16.180975"><ele>200.0</ele><time>2026-04-12T08:14:05.523Z</time></trkpt><trkpt lat="38.6714294" lon="16.1811976"><ele>200.0</ele><time>2026-04-12T08:14:06.53Z</time></trkpt><trkpt lat="38.6711797" lon="16.1814189"><ele>200.0</ele><time>2026-04-12T08:14:07.532Z</time></trkpt><trkpt lat="38.6709315" lon="16.1816488"><ele>198.5</ele><time>2026-04-12T08:14:08.531Z</time></trkpt><trkpt lat="38.6706799" lon="16.1818822"><ele>197.0</ele><time>2026-04-12T08:14:09.524Z</time></trkpt><trkpt lat="38.6704258" lon="16.1821161"><ele>196.5</ele><time>2026-04-12T08:14:10.531Z</time></trkpt><trkpt lat="38.6701716" lon="16.1823502"><ele>196.0</ele><time>2026-04-12T08:14:11.533Z</time></trkpt><trkpt lat="38.6699183" lon="16.1825856"><ele>196.0</ele><time>2026-04-12T08:14:12.528Z</time></trkpt><trkpt lat="38.6696629" lon="16.182819"><ele>196.0</ele><time>2026-04-12T08:14:13.53Z</time></trkpt><trkpt lat="38.6694074" lon="16.1830531"><ele>190.0</ele><time>2026-04-12T08:14:14.522Z</time></trkpt><trkpt lat="38.6691485" lon="16.1832858"><ele>184.0</ele><time>2026-04-12T08:14:15.53Z</time></trkpt><trkpt lat="38.6688863" lon="16.1835132"><ele>184.0</ele><time>2026-04-12T08:14:16.527Z</time></trkpt><trkpt lat="38.6686201" lon="16.1837363"><ele>184.0</ele><time>2026-04-12T08:14:17.524Z</time></trkpt><trkpt lat="38.6683516" lon="16.1839529"><ele>181.0</ele><time>2026-04-12T08:14:18.531Z</time></trkpt><trkpt lat="38.6680802" lon="16.1841596"><ele>178.0</ele><time>2026-04-12T08:14:19.525Z</time></trkpt><trkpt lat="38.6678056" lon="16.1843589"><ele>180.5</ele><time>2026-04-12T08:14:20.541Z</time></trkpt><trkpt lat="38.6675275" lon="16.184548"><ele>183.0</ele><time>2026-04-12T08:14:21.527Z</time></trkpt><trkpt lat="38.6672486" lon="16.1847302"><ele>176.0</ele><time>2026-04-12T08:14:22.524Z</time></trkpt><trkpt lat="38.6669665" lon="16.1849032"><ele>169.0</ele><time>2026-04-12T08:14:23.524Z</time></trkpt><trkpt lat="38.6666834" lon="16.1850637"><ele>169.0</ele><time>2026-04-12T08:14:24.534Z</time></trkpt><trkpt lat="38.6664017" lon="16.1852147"><ele>169.0</ele><time>2026-04-12T08:14:25.53Z</time></trkpt><trkpt lat="38.6661216" lon="16.1853589"><ele>167.0</ele><time>2026-04-12T08:14:26.522Z</time></trkpt><trkpt lat="38.6658427" lon="16.185498"><ele>165.0</ele><time>2026-04-12T08:14:27.533Z</time></trkpt><trkpt lat="38.6655652" lon="16.1856309"><ele>163.5</ele><time>2026-04-12T08:14:28.547Z</time></trkpt><trkpt lat="38.6652884" lon="16.1857587"><ele>162.0</ele><time>2026-04-12T08:14:29.539Z</time></trkpt><trkpt lat="38.6650148" lon="16.1858883"><ele>165.5</ele><time>2026-04-12T08:14:30.534Z</time></trkpt><trkpt lat="38.6647404" lon="16.1860177"><ele>169.0</ele><time>2026-04-12T08:14:31.529Z</time></trkpt><trkpt lat="38.6644664" lon="16.1861463"><ele>176.0</ele><time>2026-04-12T08:14:32.534Z</time></trkpt><trkpt lat="38.6641942" lon="16.1862745"><ele>183.0</ele><time>2026-04-12T08:14:33.529Z</time></trkpt><trkpt lat="38.6639226" lon="16.1864015"><ele>180.0</ele><time>2026-04-12T08:14:34.533Z</time></trkpt><trkpt lat="38.6636462" lon="16.1865248"><ele>177.0</ele><time>2026-04-12T08:14:35.519Z</time></trkpt><trkpt lat="38.6619674" lon="16.1873377"><ele>176.0</ele><time>2026-04-12T08:14:41.521Z</time></trkpt><trkpt lat="38.6616973" lon="16.1874429"><ele>175.0</ele><time>2026-04-12T08:14:42.525Z</time></trkpt><trkpt lat="38.661427" lon="16.1875549"><ele>175.0</ele><time>2026-04-12T08:14:43.542Z</time></trkpt><trkpt lat="38.6611716" lon="16.1876839"><ele>175.0</ele><time>2026-04-12T08:14:44.533Z</time></trkpt><trkpt lat="38.6609129" lon="16.1877953"><ele>175.0</ele><time>2026-04-12T08:14:45.52Z</time></trkpt><trkpt lat="38.6606503" lon="16.1879027"><ele>175.0</ele><time>2026-04-12T08:14:46.538Z</time></trkpt><trkpt lat="38.6603965" lon="16.188011"><ele>175.5</ele><time>2026-04-12T08:14:47.525Z</time></trkpt><trkpt lat="38.6601477" lon="16.1881124"><ele>176.0</ele><time>2026-04-12T08:14:48.518Z</time></trkpt><trkpt lat="38.6599096" lon="16.1882081"><ele>169.0</ele><time>2026-04-12T08:14:49.528Z</time></trkpt><trkpt lat="38.659679" lon="16.1882942"><ele>162.0</ele><time>2026-04-12T08:14:50.53Z</time></trkpt><trkpt lat="38.6594575" lon="16.1883747"><ele>163.0</ele><time>2026-04-12T08:14:51.53Z</time></trkpt><trkpt lat="38.6592405" lon="16.1884505"><ele>164.0</ele><time>2026-04-12T08:14:52.544Z</time></trkpt><trkpt lat="38.6590214" lon="16.1885212"><ele>164.0</ele><time>2026-04-12T08:14:53.528Z</time></trkpt><trkpt lat="38.6587981" lon="16.1885895"><ele>164.0</ele><time>2026-04-12T08:14:54.531Z</time></trkpt><trkpt lat="38.6585727" lon="16.188657"><ele>163.5</ele><time>2026-04-12T08:14:55.52Z</time></trkpt><trkpt lat="38.6583511" lon="16.1887173"><ele>163.0</ele><time>2026-04-12T08:14:56.521Z</time></trkpt><trkpt lat="38.6581315" lon="16.1887712"><ele>163.0</ele><time>2026-04-12T08:14:57.521Z</time></trkpt><trkpt lat="38.6579099" lon="16.1888175"><ele>163.0</ele><time>2026-04-12T08:14:58.531Z</time></trkpt><trkpt lat="38.6576876" lon="16.1888601"><ele>163.0</ele><time>2026-04-12T08:14:59.522Z</time></trkpt><trkpt lat="38.6574653" lon="16.1888976"><ele>167.0</ele><time>2026-04-12T08:15:00.524Z</time></trkpt><trkpt lat="38.6572481" lon="16.1889257"><ele>171.0</ele><time>2026-04-12T08:15:01.525Z</time></trkpt><trkpt lat="38.6570307" lon="16.188947"><ele>175.0</ele><time>2026-04-12T08:15:02.52Z</time></trkpt><trkpt lat="38.6568123" lon="16.1889634"><ele>178.0</ele><time>2026-04-12T08:15:03.518Z</time></trkpt><trkpt lat="38.6565956" lon="16.1889758"><ele>181.0</ele><time>2026-04-12T08:15:04.521Z</time></trkpt><trkpt lat="38.656381" lon="16.1889842"><ele>184.0</ele><time>2026-04-12T08:15:05.522Z</time></trkpt><trkpt lat="38.6561687" lon="16.1889898"><ele>194.0</ele><time>2026-04-12T08:15:06.515Z</time></trkpt><trkpt lat="38.6559553" lon="16.1889942"><ele>204.0</ele><time>2026-04-12T08:15:07.546Z</time></trkpt><trkpt lat="38.6510454" lon="16.1877193"><ele>176.0</ele><time>2026-04-12T08:15:29.505Z</time></trkpt><trkpt lat="38.6508305" lon="16.1875751"><ele>148.0</ele><time>2026-04-12T08:15:30.531Z</time></trkpt><trkpt lat="38.6506225" lon="16.1874424"><ele>147.66666666666669</ele><time>2026-04-12T08:15:31.529Z</time></trkpt><trkpt lat="38.6504224" lon="16.1873213"><ele>147.33333333333334</ele><time>2026-04-12T08:15:32.538Z</time></trkpt><trkpt lat="38.6502224" lon="16.1871979"><ele>147.0</ele><time>2026-04-12T08:15:33.53Z</time></trkpt><trkpt lat="38.6500222" lon="16.1870702"><ele>147.0</ele><time>2026-04-12T08:15:34.529Z</time></trkpt><trkpt lat="38.6498244" lon="16.186942"><ele>147.0</ele><time>2026-04-12T08:15:35.522Z</time></trkpt><trkpt lat="38.6496262" lon="16.1868146"><ele>147.0</ele><time>2026-04-12T08:15:36.528Z</time></trkpt><trkpt lat="38.6494303" lon="16.1866843"><ele>147.0</ele><time>2026-04-12T08:15:37.521Z</time></trkpt><trkpt lat="38.6492331" lon="16.1865514"><ele>147.0</ele><time>2026-04-12T08:15:38.518Z</time></trkpt><trkpt lat="38.6490355" lon="16.1864193"><ele>147.0</ele><time>2026-04-12T08:15:39.529Z</time></trkpt><trkpt lat="38.6488373" lon="16.1862852"><ele>147.0</ele><time>2026-04-12T08:15:40.519Z</time></trkpt><trkpt lat="38.648639" lon="16.1861484"><ele>147.0</ele><time>2026-04-12T08:15:41.518Z</time></trkpt><trkpt lat="38.6484378" lon="16.1860101"><ele>145.5</ele><time>2026-04-12T08:15:42.525Z</time></trkpt><trkpt lat="38.6482348" lon="16.1858715"><ele>144.0</ele><time>2026-04-12T08:15:43.532Z</time></trkpt><trkpt lat="38.6480309" lon="16.1857333"><ele>144.0</ele><time>2026-04-12T08:15:44.525Z</time></trkpt><trkpt lat="38.6478291" lon="16.1855946"><ele>144.0</ele><time>2026-04-12T08:15:45.541Z</time></trkpt><trkpt lat="38.6476267" lon="16.1854564"><ele>144.0</ele><time>2026-04-12T08:15:46.525Z</time></trkpt><trkpt lat="38.6474237" lon="16.1853173"><ele>144.0</ele><time>2026-04-12T08:15:47.527Z</time></trkpt><trkpt lat="38.6472239" lon="16.1851791"><ele>144.0</ele><time>2026-04-12T08:15:48.528Z</time></trkpt><trkpt lat="38.6470226" lon="16.1850415"><ele>144.0</ele><time>2026-04-12T08:15:49.531Z</time></trkpt><trkpt lat="38.6468193" lon="16.1849043"><ele>143.0</ele><time>2026-04-12T08:15:50.524Z</time></trkpt><trkpt lat="38.6466169" lon="16.1847669"><ele>142.0</ele><time>2026-04-12T08:15:51.52Z</time></trkpt><trkpt lat="38.6464148" lon="16.1846283"><ele>142.0</ele><time>2026-04-12T08:15:52.523Z</time></trkpt><trkpt lat="38.6462116" lon="16.1844899"><ele>142.0</ele><time>2026-04-12T08:15:53.527Z</time></trkpt><trkpt lat="38.6460067" lon="16.1843514"><ele>141.5</ele><time>2026-04-12T08:15:54.527Z</time></trkpt><trkpt lat="38.6458019" lon="16.1842131"><ele>141.0</ele><time>2026-04-12T08:15:55.527Z</time></trkpt><trkpt lat="38.6456008" lon="16.184078"><ele>141.0</ele><time>2026-04-12T08:15:56.526Z</time></trkpt><trkpt lat="38.6454016" lon="16.1839424"><ele>141.0</ele><time>2026-04-12T08:15:57.519Z</time></trkpt><trkpt lat="38.6452049" lon="16.1838074"><ele>141.0</ele><time>2026-04-12T08:15:58.521Z</time></trkpt><trkpt lat="38.6450136" lon="16.1836774"><ele>141.0</ele><time>2026-04-12T08:15:59.526Z</time></trkpt><trkpt lat="38.6448296" lon="16.1835511"><ele>141.0</ele><time>2026-04-12T08:16:00.533Z</time></trkpt><trkpt lat="38.6446454" lon="16.1834269"><ele>141.0</ele><time>2026-04-12T08:16:01.527Z</time></trkpt><trkpt lat="38.6444647" lon="16.183301"><ele>141.0</ele><time>2026-04-12T08:16:02.536Z</time></trkpt><trkpt lat="38.6442858" lon="16.1831735"><ele>141.0</ele><time>2026-04-12T08:16:03.527Z</time></trkpt><trkpt lat="38.6441087" lon="16.1830456"><ele>141.0</ele><time>2026-04-12T08:16:04.521Z</time></trkpt><trkpt lat="38.643932" lon="16.1829151"><ele>141.0</ele><time>2026-04-12T08:16:05.527Z</time></trkpt><trkpt lat="38.6437576" lon="16.1827831"><ele>141.0</ele><time>2026-04-12T08:16:06.521Z</time></trkpt><trkpt lat="38.6435851" lon="16.182649"><ele>141.0</ele><time>2026-04-12T08:16:07.53Z</time></trkpt><trkpt lat="38.6434153" lon="16.182515"><ele>141.0</ele><time>2026-04-12T08:16:08.528Z</time></trkpt><trkpt lat="38.6432464" lon="16.182383"><ele>141.0</ele><time>2026-04-12T08:16:09.525Z</time></trkpt><trkpt lat="38.6430819" lon="16.1822548"><ele>141.0</ele><time>2026-04-12T08:16:10.519Z</time></trkpt><trkpt lat="38.642925" lon="16.1821344"><ele>140.33333333333334</ele><time>2026-04-12T08:16:11.539Z</time></trkpt><trkpt lat="38.6427764" lon="16.1820193"><ele>139.66666666666669</ele><time>2026-04-12T08:16:12.525Z</time></trkpt><trkpt lat="38.642636" lon="16.1819068"><ele>139.0</ele><time>2026-04-12T08:16:13.527Z</time></trkpt><trkpt lat="38.6425081" lon="16.1817972"><ele>139.0</ele><time>2026-04-12T08:16:14.519Z</time></trkpt><trkpt lat="38.6423935" lon="16.1816941"><ele>139.0</ele><time>2026-04-12T08:16:15.522Z</time></trkpt><trkpt lat="38.6422897" lon="16.181595"><ele>139.0</ele><time>2026-04-12T08:16:16.517Z</time></trkpt><trkpt lat="38.6421932" lon="16.181492"><ele>139.0</ele><time>2026-04-12T08:16:17.532Z</time></trkpt><trkpt lat="38.6421035" lon="16.181371"><ele>138.75</ele><time>2026-04-12T08:16:18.528Z</time></trkpt><trkpt lat="38.6420232" lon="16.1812338"><ele>138.5</ele><time>2026-04-12T08:16:19.531Z</time></trkpt><trkpt lat="38.6419569" lon="16.1810594"><ele>138.25</ele><time>2026-04-12T08:16:20.528Z</time></trkpt><trkpt lat="38.6419183" lon="16.1808679"><ele>138.0</ele><time>2026-04-12T08:16:21.531Z</time></trkpt><trkpt lat="38.6418878" lon="16.1806513"><ele>138.0</ele><time>2026-04-12T08:16:22.537Z</time></trkpt><trkpt lat="38.641865" lon="16.1804463"><ele>138.0</ele><time>2026-04-12T08:16:23.527Z</time></trkpt><trkpt lat="38.6418296" lon="16.1802581"><ele>138.0</ele><time>2026-04-12T08:16:24.53Z</time></trkpt><trkpt lat="38.6417678" lon="16.1800786"><ele>138.0</ele><time>2026-04-12T08:16:25.53Z</time></trkpt><trkpt lat="38.6416772" lon="16.1799125"><ele>138.0</ele><time>2026-04-12T08:16:26.513Z</time></trkpt><trkpt lat="38.6415705" lon="16.1797504"><ele>138.0</ele><time>2026-04-12T08:16:27.527Z</time></trkpt><trkpt lat="38.6414512" lon="16.1796127"><ele>137.75</ele><time>2026-04-12T08:16:28.516Z</time></trkpt><trkpt lat="38.6413353" lon="16.1795003"><ele>137.5</ele><time>2026-04-12T08:16:29.518Z</time></trkpt><trkpt lat="38.6412176" lon="16.1794346"><ele>137.25</ele><time>2026-04-12T08:16:30.517Z</time></trkpt><trkpt lat="38.6411107" lon="16.1793878"><ele>137.0</ele><time>2026-04-12T08:16:31.519Z</time></trkpt><trkpt lat="38.6410326" lon="16.1793928"><ele>137.0</ele><time>2026-04-12T08:16:32.522Z</time></trkpt><trkpt lat="38.6409386" lon="16.1793884"><ele>137.0</ele><time>2026-04-12T08:16:34.526Z</time></trkpt><trkpt lat="38.6408259" lon="16.1793281"><ele>137.0</ele><time>2026-04-12T08:16:36.527Z</time></trkpt><trkpt lat="38.640705" lon="16.1793055"><ele>137.0</ele><time>2026-04-12T08:16:38.523Z</time></trkpt><trkpt lat="38.6405901" lon="16.1792685"><ele>137.0</ele><time>2026-04-12T08:16:40.526Z</time></trkpt><trkpt lat="38.6404791" lon="16.1791788"><ele>137.0</ele><time>2026-04-12T08:16:42.52Z</time></trkpt><trkpt lat="38.6404167" lon="16.1791138"><ele>137.0</ele><time>2026-04-12T08:16:43.534Z</time></trkpt><trkpt lat="38.640345" lon="16.1790385"><ele>137.0</ele><time>2026-04-12T08:16:44.53Z</time></trkpt><trkpt lat="38.6402668" lon="16.1789663"><ele>137.0</ele><time>2026-04-12T08:16:45.524Z</time></trkpt><trkpt lat="38.6401885" lon="16.178891"><ele>136.4</ele><time>2026-04-12T08:16:46.536Z</time></trkpt><trkpt lat="38.640103" lon="16.1788093"><ele>135.79999999999998</ele><time>2026-04-12T08:16:47.527Z</time></trkpt><trkpt lat="38.6400141" lon="16.1787277"><ele>135.2</ele><time>2026-04-12T08:16:48.516Z</time></trkpt><trkpt lat="38.6399233" lon="16.1786419"><ele>134.6</ele><time>2026-04-12T08:16:49.521Z</time></trkpt><trkpt lat="38.6398311" lon="16.1785494"><ele>134.0</ele><time>2026-04-12T08:16:50.519Z</time></trkpt><trkpt lat="38.6397391" lon="16.1784402"><ele>134.0</ele><time>2026-04-12T08:16:51.517Z</time></trkpt><trkpt lat="38.6396495" lon="16.1783095"><ele>134.0</ele><time>2026-04-12T08:16:52.524Z</time></trkpt><trkpt lat="38.6395635" lon="16.1781678"><ele>134.0</ele><time>2026-04-12T08:16:53.537Z</time></trkpt><trkpt lat="38.6394784" lon="16.1780216"><ele>134.0</ele><time>2026-04-12T08:16:54.517Z</time></trkpt><trkpt lat="38.6393935" lon="16.1778747"><ele>134.0</ele><time>2026-04-12T08:16:55.535Z</time></trkpt><trkpt lat="38.6393099" lon="16.1777297"><ele>134.0</ele><time>2026-04-12T08:16:56.53Z</time></trkpt><trkpt lat="38.6392247" lon="16.1775865"><ele>134.0</ele><time>2026-04-12T08:16:57.519Z</time></trkpt><trkpt lat="38.639138" lon="16.177446"><ele>134.0</ele><time>2026-04-12T08:16:58.521Z</time></trkpt><trkpt lat="38.6390475" lon="16.1773083"><ele>134.25</ele><time>2026-04-12T08:16:59.524Z</time></trkpt><trkpt lat="38.6389519" lon="16.1771744"><ele>134.5</ele><time>2026-04-12T08:17:00.518Z</time></trkpt><trkpt lat="38.6388497" lon="16.1770427"><ele>134.75</ele><time>2026-04-12T08:17:01.528Z</time></trkpt><trkpt lat="38.6387472" lon="16.176913"><ele>135.0</ele><time>2026-04-12T08:17:02.525Z</time></trkpt><trkpt lat="38.6386439" lon="16.1767833"><ele>135.0</ele><time>2026-04-12T08:17:03.529Z</time></trkpt><trkpt lat="38.6385384" lon="16.1766522"><ele>135.0</ele><time>2026-04-12T08:17:04.516Z</time></trkpt><trkpt lat="38.6384278" lon="16.1765186"><ele>135.0</ele><time>2026-04-12T08:17:05.522Z</time></trkpt><trkpt lat="38.6383138" lon="16.1763799"><ele>134.0</ele><time>2026-04-12T08:17:06.524Z</time></trkpt><trkpt lat="38.6381976" lon="16.1762349"><ele>133.0</ele><time>2026-04-12T08:17:07.529Z</time></trkpt><trkpt lat="38.6380788" lon="16.1760864"><ele>132.0</ele><time>2026-04-12T08:17:08.525Z</time></trkpt><trkpt lat="38.637956" lon="16.175937"><ele>132.0</ele><time>2026-04-12T08:17:09.521Z</time></trkpt><trkpt lat="38.6378322" lon="16.1757864"><ele>132.0</ele><time>2026-04-12T08:17:10.521Z</time></trkpt><trkpt lat="38.6377147" lon="16.1756422"><ele>132.0</ele><time>2026-04-12T08:17:11.527Z</time></trkpt><trkpt lat="38.6376259" lon="16.1754945"><ele>131.5</ele><time>2026-04-12T08:17:12.527Z</time></trkpt><trkpt lat="38.637557" lon="16.1753418"><ele>131.0</ele><time>2026-04-12T08:17:13.53Z</time></trkpt><trkpt lat="38.6375068" lon="16.1751753"><ele>130.5</ele><time>2026-04-12T08:17:14.525Z</time></trkpt><trkpt lat="38.637463" lon="16.1750008"><ele>130.0</ele><time>2026-04-12T08:17:15.535Z</time></trkpt><trkpt lat="38.6374377" lon="16.1748149"><ele>130.0</ele><time>2026-04-12T08:17:16.527Z</time></trkpt><trkpt lat="38.6374049" lon="16.1746362"><ele>130.0</ele><time>2026-04-12T08:17:17.531Z</time></trkpt><trkpt lat="38.6373657" lon="16.174464"><ele>130.0</ele><time>2026-04-12T08:17:18.525Z</time></trkpt><trkpt lat="38.6373172" lon="16.1743011"><ele>130.0</ele><time>2026-04-12T08:17:19.535Z</time></trkpt><trkpt lat="38.6372591" lon="16.1741568"><ele>130.0</ele><time>2026-04-12T08:17:20.536Z</time></trkpt><trkpt lat="38.637184" lon="16.1740247"><ele>130.0</ele><time>2026-04-12T08:17:21.524Z</time></trkpt><trkpt lat="38.6370958" lon="16.1739022"><ele>130.0</ele><time>2026-04-12T08:17:22.529Z</time></trkpt><trkpt lat="38.6369976" lon="16.173781"><ele>130.0</ele><time>2026-04-12T08:17:23.52Z</time></trkpt><trkpt lat="38.6368946" lon="16.1736576"><ele>130.5</ele><time>2026-04-12T08:17:24.516Z</time></trkpt><trkpt lat="38.636789" lon="16.1735293"><ele>131.0</ele><time>2026-04-12T08:17:25.523Z</time></trkpt><trkpt lat="38.636681" lon="16.1733992"><ele>131.5</ele><time>2026-04-12T08:17:26.52Z</time></trkpt><trkpt lat="38.6365743" lon="16.1732632"><ele>132.0</ele><time>2026-04-12T08:17:27.518Z</time></trkpt><trkpt lat="38.636467" lon="16.1731239"><ele>132.33333333333334</ele><time>2026-04-12T08:17:28.523Z</time></trkpt><trkpt lat="38.6363553" lon="16.1729836"><ele>132.66666666666669</ele><time>2026-04-12T08:17:29.523Z</time></trkpt><trkpt lat="38.6362409" lon="16.1728409"><ele>133.0</ele><time>2026-04-12T08:17:30.52Z</time></trkpt><trkpt lat="38.6361222" lon="16.1726959"><ele>132.33333333333334</ele><time>2026-04-12T08:17:31.515Z</time></trkpt><trkpt lat="38.6360016" lon="16.1725493"><ele>131.66666666666666</ele><time>2026-04-12T08:17:32.526Z</time></trkpt><trkpt lat="38.6358809" lon="16.172398"><ele>131.0</ele><time>2026-04-12T08:17:33.516Z</time></trkpt><trkpt lat="38.6357619" lon="16.1722449"><ele>130.66666666666666</ele><time>2026-04-12T08:17:34.521Z</time></trkpt><trkpt lat="38.6356422" lon="16.1720921"><ele>130.33333333333334</ele><time>2026-04-12T08:17:35.524Z</time></trkpt><trkpt lat="38.6355209" lon="16.1719394"><ele>130.0</ele><time>2026-04-12T08:17:36.516Z</time></trkpt><trkpt lat="38.6353982" lon="16.1717889"><ele>131.0</ele><time>2026-04-12T08:17:37.526Z</time></trkpt><trkpt lat="38.6352674" lon="16.1716536"><ele>132.0</ele><time>2026-04-12T08:17:38.523Z</time></trkpt><trkpt lat="38.6351208" lon="16.1715479"><ele>133.0</ele><time>2026-04-12T08:17:39.518Z</time></trkpt><trkpt lat="38.6349623" lon="16.1714721"><ele>133.0</ele><time>2026-04-12T08:17:40.521Z</time></trkpt><trkpt lat="38.6347943" lon="16.1714235"><ele>133.0</ele><time>2026-04-12T08:17:41.522Z</time></trkpt><trkpt lat="38.6346229" lon="16.171387"><ele>133.0</ele><time>2026-04-12T08:17:42.521Z</time></trkpt><trkpt lat="38.6344571" lon="16.1713359"><ele>132.66666666666669</ele><time>2026-04-12T08:17:43.526Z</time></trkpt><trkpt lat="38.6343017" lon="16.1712895"><ele>132.33333333333334</ele><time>2026-04-12T08:17:44.524Z</time></trkpt><trkpt lat="38.6341802" lon="16.1711612"><ele>132.0</ele><time>2026-04-12T08:17:45.524Z</time></trkpt><trkpt lat="38.6340706" lon="16.1710038"><ele>132.0</ele><time>2026-04-12T08:17:46.525Z</time></trkpt><trkpt lat="38.6339713" lon="16.1708227"><ele>132.0</ele><time>2026-04-12T08:17:47.523Z</time></trkpt><trkpt lat="38.6338697" lon="16.1706546"><ele>132.0</ele><time>2026-04-12T08:17:48.529Z</time></trkpt><trkpt lat="38.6337773" lon="16.1704719"><ele>132.33333333333334</ele><time>2026-04-12T08:17:49.522Z</time></trkpt><trkpt lat="38.6336879" lon="16.1702834"><ele>132.66666666666669</ele><time>2026-04-12T08:17:50.532Z</time></trkpt><trkpt lat="38.6336012" lon="16.1700838"><ele>133.0</ele><time>2026-04-12T08:17:51.528Z</time></trkpt><trkpt lat="38.633515" lon="16.1698811"><ele>131.66666666666669</ele><time>2026-04-12T08:17:52.531Z</time></trkpt><trkpt lat="38.6334218" lon="16.169679"><ele>130.33333333333334</ele><time>2026-04-12T08:17:53.517Z</time></trkpt><trkpt lat="38.6333213" lon="16.1694786"><ele>129.0</ele><time>2026-04-12T08:17:54.527Z</time></trkpt><trkpt lat="38.6332194" lon="16.1692756"><ele>129.0</ele><time>2026-04-12T08:17:55.521Z</time></trkpt><trkpt lat="38.6331208" lon="16.1690787"><ele>129.0</ele><time>2026-04-12T08:17:56.531Z</time></trkpt><trkpt lat="38.6330255" lon="16.1688926"><ele>129.0</ele><time>2026-04-12T08:17:57.527Z</time></trkpt><trkpt lat="38.6329338" lon="16.1687147"><ele>129.0</ele><time>2026-04-12T08:17:58.52Z</time></trkpt><trkpt lat="38.6328544" lon="16.1685593"><ele>129.0</ele><time>2026-04-12T08:17:59.529Z</time></trkpt><trkpt lat="38.6327846" lon="16.1684241"><ele>129.0</ele><time>2026-04-12T08:18:00.522Z</time></trkpt><trkpt lat="38.632725" lon="16.1683105"><ele>129.0</ele><time>2026-04-12T08:18:01.519Z</time></trkpt><trkpt lat="38.6326707" lon="16.1682077"><ele>129.0</ele><time>2026-04-12T08:18:02.527Z</time></trkpt><trkpt lat="38.6326207" lon="16.168109"><ele>129.0</ele><time>2026-04-12T08:18:03.533Z</time></trkpt><trkpt lat="38.6325719" lon="16.1680108"><ele>129.0</ele><time>2026-04-12T08:18:04.524Z</time></trkpt><trkpt lat="38.6325289" lon="16.167911"><ele>129.0</ele><time>2026-04-12T08:18:05.529Z</time></trkpt><trkpt lat="38.6325019" lon="16.1678101"><ele>129.0</ele><time>2026-04-12T08:18:06.524Z</time></trkpt><trkpt lat="38.6324804" lon="16.1677165"><ele>129.0</ele><time>2026-04-12T08:18:07.519Z</time></trkpt><trkpt lat="38.632439" lon="16.1675914"><ele>129.0</ele><time>2026-04-12T08:18:09.532Z</time></trkpt><trkpt lat="38.6323395" lon="16.167569"><ele>129.0</ele><time>2026-04-12T08:18:12.534Z</time></trkpt><trkpt lat="38.6322505" lon="16.1676938"><ele>129.0</ele><time>2026-04-12T08:18:14.523Z</time></trkpt><trkpt lat="38.6321915" lon="16.1677782"><ele>129.0</ele><time>2026-04-12T08:18:15.519Z</time></trkpt><trkpt lat="38.6321187" lon="16.1678774"><ele>129.0</ele><time>2026-04-12T08:18:16.528Z</time></trkpt><trkpt lat="38.6320174" lon="16.1679748"><ele>129.25</ele><time>2026-04-12T08:18:17.525Z</time></trkpt><trkpt lat="38.6319042" lon="16.168081"><ele>129.5</ele><time>2026-04-12T08:18:18.515Z</time></trkpt><trkpt lat="38.6317762" lon="16.1681887"><ele>129.75</ele><time>2026-04-12T08:18:19.53Z</time></trkpt><trkpt lat="38.6316598" lon="16.1683141"><ele>130.0</ele><time>2026-04-12T08:18:20.536Z</time></trkpt><trkpt lat="38.6315389" lon="16.1684218"><ele>130.0</ele><time>2026-04-12T08:18:21.525Z</time></trkpt><trkpt lat="38.6314047" lon="16.1685282"><ele>130.0</ele><time>2026-04-12T08:18:22.521Z</time></trkpt><trkpt lat="38.6312824" lon="16.1686352"><ele>130.0</ele><time>2026-04-12T08:18:23.532Z</time></trkpt><trkpt lat="38.6311573" lon="16.168759"><ele>130.0</ele><time>2026-04-12T08:18:24.524Z</time></trkpt><trkpt lat="38.6310216" lon="16.1688886"><ele>130.0</ele><time>2026-04-12T08:18:25.514Z</time></trkpt><trkpt lat="38.6308944" lon="16.1690102"><ele>130.0</ele><time>2026-04-12T08:18:26.526Z</time></trkpt><trkpt lat="38.6307731" lon="16.1691249"><ele>130.0</ele><time>2026-04-12T08:18:27.523Z</time></trkpt><trkpt lat="38.6306545" lon="16.1692338"><ele>130.0</ele><time>2026-04-12T08:18:28.518Z</time></trkpt><trkpt lat="38.6305355" lon="16.1693443"><ele>130.0</ele><time>2026-04-12T08:18:29.517Z</time></trkpt><trkpt lat="38.6304128" lon="16.169442"><ele>130.0</ele><time>2026-04-12T08:18:30.526Z</time></trkpt><trkpt lat="38.6302874" lon="16.1695264"><ele>130.25</ele><time>2026-04-12T08:18:31.525Z</time></trkpt><trkpt lat="38.6301618" lon="16.1696002"><ele>130.5</ele><time>2026-04-12T08:18:32.532Z</time></trkpt><trkpt lat="38.6300222" lon="16.1696177"><ele>130.75</ele><time>2026-04-12T08:18:33.519Z</time></trkpt><trkpt lat="38.6298693" lon="16.1696323"><ele>131.0</ele><time>2026-04-12T08:18:34.512Z</time></trkpt><trkpt lat="38.6297091" lon="16.1696358"><ele>131.0</ele><time>2026-04-12T08:18:35.52Z</time></trkpt><trkpt lat="38.6295509" lon="16.169637"><ele>131.0</ele><time>2026-04-12T08:18:36.523Z</time></trkpt><trkpt lat="38.6294007" lon="16.1696345"><ele>131.0</ele><time>2026-04-12T08:18:37.513Z</time></trkpt><trkpt lat="38.6292511" lon="16.1696306"><ele>131.66666666666666</ele><time>2026-04-12T08:18:38.524Z</time></trkpt><trkpt lat="38.6291036" lon="16.1696313"><ele>132.33333333333334</ele><time>2026-04-12T08:18:39.521Z</time></trkpt><trkpt lat="38.6289519" lon="16.1696381"><ele>133.0</ele><time>2026-04-12T08:18:40.521Z</time></trkpt><trkpt lat="38.6287971" lon="16.1696586"><ele>133.33333333333334</ele><time>2026-04-12T08:18:41.523Z</time></trkpt><trkpt lat="38.6286405" lon="16.1696945"><ele>133.66666666666666</ele><time>2026-04-12T08:18:42.521Z</time></trkpt><trkpt lat="38.6284794" lon="16.1697457"><ele>134.0</ele><time>2026-04-12T08:18:43.514Z</time></trkpt><trkpt lat="38.6283136" lon="16.1698185"><ele>134.66666666666666</ele><time>2026-04-12T08:18:44.529Z</time></trkpt><trkpt lat="38.628143" lon="16.1699143"><ele>135.33333333333334</ele><time>2026-04-12T08:18:45.517Z</time></trkpt><trkpt lat="38.6279714" lon="16.1700341"><ele>136.0</ele><time>2026-04-12T08:18:46.52Z</time></trkpt><trkpt lat="38.6278089" lon="16.1701788"><ele>134.66666666666669</ele><time>2026-04-12T08:18:47.52Z</time></trkpt><trkpt lat="38.6276635" lon="16.1703506"><ele>133.33333333333334</ele><time>2026-04-12T08:18:48.528Z</time></trkpt><trkpt lat="38.6275443" lon="16.1705473"><ele>132.0</ele><time>2026-04-12T08:18:49.518Z</time></trkpt><trkpt lat="38.6274454" lon="16.1707661"><ele>135.0</ele><time>2026-04-12T08:18:50.529Z</time></trkpt><trkpt lat="38.6273501" lon="16.1709984"><ele>138.0</ele><time>2026-04-12T08:18:51.515Z</time></trkpt><trkpt lat="38.6272538" lon="16.1712297"><ele>141.0</ele><time>2026-04-12T08:18:52.529Z</time></trkpt><trkpt lat="38.6271612" lon="16.1714503"><ele>138.66666666666666</ele><time>2026-04-12T08:18:53.526Z</time></trkpt><trkpt lat="38.6270724" lon="16.1716586"><ele>136.33333333333331</ele><time>2026-04-12T08:18:54.52Z</time></trkpt><trkpt lat="38.6269809" lon="16.171852"><ele>134.0</ele><time>2026-04-12T08:18:55.524Z</time></trkpt><trkpt lat="38.6268771" lon="16.1720305"><ele>134.0</ele><time>2026-04-12T08:18:56.529Z</time></trkpt><trkpt lat="38.6267642" lon="16.1722"><ele>134.0</ele><time>2026-04-12T08:18:57.519Z</time></trkpt><trkpt lat="38.6266441" lon="16.1723656"><ele>134.0</ele><time>2026-04-12T08:18:58.532Z</time></trkpt><trkpt lat="38.6265191" lon="16.1725291"><ele>135.0</ele><time>2026-04-12T08:18:59.525Z</time></trkpt><trkpt lat="38.6263903" lon="16.1726933"><ele>136.0</ele><time>2026-04-12T08:19:00.522Z</time></trkpt><trkpt lat="38.6262597" lon="16.1728608"><ele>137.0</ele><time>2026-04-12T08:19:01.525Z</time></trkpt><trkpt lat="38.6261278" lon="16.1730323"><ele>137.66666666666666</ele><time>2026-04-12T08:19:02.53Z</time></trkpt><trkpt lat="38.6259959" lon="16.1732087"><ele>138.33333333333334</ele><time>2026-04-12T08:19:03.525Z</time></trkpt><trkpt lat="38.6258671" lon="16.1733918"><ele>139.0</ele><time>2026-04-12T08:19:04.517Z</time></trkpt><trkpt lat="38.6257453" lon="16.1735819"><ele>139.0</ele><time>2026-04-12T08:19:05.516Z</time></trkpt><trkpt lat="38.6256393" lon="16.1737791"><ele>139.0</ele><time>2026-04-12T08:19:06.527Z</time></trkpt><trkpt lat="38.6255518" lon="16.1739831"><ele>139.0</ele><time>2026-04-12T08:19:07.525Z</time></trkpt><trkpt lat="38.6254871" lon="16.1741941"><ele>144.0</ele><time>2026-04-12T08:19:08.522Z</time></trkpt><trkpt lat="38.6254468" lon="16.17441"><ele>149.0</ele><time>2026-04-12T08:19:09.521Z</time></trkpt><trkpt lat="38.6254217" lon="16.1746289"><ele>154.0</ele><time>2026-04-12T08:19:10.541Z</time></trkpt><trkpt lat="38.6254048" lon="16.1748529"><ele>157.33333333333334</ele><time>2026-04-12T08:19:11.537Z</time></trkpt><trkpt lat="38.6253915" lon="16.175082"><ele>160.66666666666666</ele><time>2026-04-12T08:19:12.513Z</time></trkpt><trkpt lat="38.6253804" lon="16.1753144"><ele>164.0</ele><time>2026-04-12T08:19:13.524Z</time></trkpt><trkpt lat="38.6253701" lon="16.1755491"><ele>166.33333333333331</ele><time>2026-04-12T08:19:14.518Z</time></trkpt><trkpt lat="38.6253612" lon="16.1757861"><ele>168.66666666666666</ele><time>2026-04-12T08:19:15.52Z</time></trkpt><trkpt lat="38.625353" lon="16.1760214"><ele>171.0</ele><time>2026-04-12T08:19:16.519Z</time></trkpt><trkpt lat="38.6253432" lon="16.1762543"><ele>171.0</ele><time>2026-04-12T08:19:17.527Z</time></trkpt><trkpt lat="38.6253416" lon="16.1764864"><ele>171.0</ele><time>2026-04-12T08:19:18.523Z</time></trkpt><trkpt lat="38.6253462" lon="16.1767177"><ele>171.0</ele><time>2026-04-12T08:19:19.52Z</time></trkpt><trkpt lat="38.6253569" lon="16.1769494"><ele>172.66666666666666</ele><time>2026-04-12T08:19:20.521Z</time></trkpt><trkpt lat="38.6253703" lon="16.1771817"><ele>174.33333333333331</ele><time>2026-04-12T08:19:21.528Z</time></trkpt><trkpt lat="38.6253834" lon="16.1774146"><ele>176.0</ele><time>2026-04-12T08:19:22.516Z</time></trkpt><trkpt lat="38.6253944" lon="16.1776495"><ele>178.0</ele><time>2026-04-12T08:19:23.524Z</time></trkpt><trkpt lat="38.6254058" lon="16.1778861"><ele>180.0</ele><time>2026-04-12T08:19:24.523Z</time></trkpt><trkpt lat="38.6254173" lon="16.178125"><ele>182.0</ele><time>2026-04-12T08:19:25.524Z</time></trkpt><trkpt lat="38.6254283" lon="16.1783664"><ele>182.66666666666666</ele><time>2026-04-12T08:19:26.529Z</time></trkpt><trkpt lat="38.6254374" lon="16.1786088"><ele>183.33333333333334</ele><time>2026-04-12T08:19:27.528Z</time></trkpt><trkpt lat="38.6254439" lon="16.1788529"><ele>184.0</ele><time>2026-04-12T08:19:28.529Z</time></trkpt><trkpt lat="38.6254476" lon="16.1790971"><ele>185.66666666666669</ele><time>2026-04-12T08:19:29.524Z</time></trkpt><trkpt lat="38.6254487" lon="16.179339"><ele>187.33333333333334</ele><time>2026-04-12T08:19:30.528Z</time></trkpt><trkpt lat="38.6254459" lon="16.1795779"><ele>189.0</ele><time>2026-04-12T08:19:31.518Z</time></trkpt><trkpt lat="38.6254391" lon="16.1798153"><ele>192.66666666666669</ele><time>2026-04-12T08:19:32.518Z</time></trkpt><trkpt lat="38.6254388" lon="16.1800454"><ele>196.33333333333334</ele><time>2026-04-12T08:19:33.522Z</time></trkpt><trkpt lat="38.6254534" lon="16.1802718"><ele>200.0</ele><time>2026-04-12T08:19:34.514Z</time></trkpt><trkpt lat="38.6254863" lon="16.1804953"><ele>199.33333333333334</ele><time>2026-04-12T08:19:35.519Z</time></trkpt><trkpt lat="38.6255325" lon="16.1807169"><ele>198.66666666666669</ele><time>2026-04-12T08:19:36.523Z</time></trkpt><trkpt lat="38.6255839" lon="16.1809368"><ele>198.0</ele><time>2026-04-12T08:19:37.518Z</time></trkpt><trkpt lat="38.6256263" lon="16.1811566"><ele>198.0</ele><time>2026-04-12T08:19:38.524Z</time></trkpt><trkpt lat="38.6256507" lon="16.1813756"><ele>198.0</ele><time>2026-04-12T08:19:39.521Z</time></trkpt><trkpt lat="38.6256516" lon="16.1815885"><ele>198.0</ele><time>2026-04-12T08:19:40.522Z</time></trkpt><trkpt lat="38.6256318" lon="16.181794"><ele>197.25</ele><time>2026-04-12T08:19:41.514Z</time></trkpt><trkpt lat="38.6255912" lon="16.1819769"><ele>196.5</ele><time>2026-04-12T08:19:42.526Z</time></trkpt><trkpt lat="38.6255298" lon="16.1821394"><ele>195.75</ele><time>2026-04-12T08:19:43.519Z</time></trkpt><trkpt lat="38.6254459" lon="16.1822872"><ele>195.0</ele><time>2026-04-12T08:19:44.519Z</time></trkpt><trkpt lat="38.6253422" lon="16.1824251"><ele>193.33333333333334</ele><time>2026-04-12T08:19:45.523Z</time></trkpt><trkpt lat="38.6252235" lon="16.1825597"><ele>191.66666666666669</ele><time>2026-04-12T08:19:46.519Z</time></trkpt><trkpt lat="38.6250957" lon="16.1826958"><ele>190.0</ele><time>2026-04-12T08:19:47.519Z</time></trkpt><trkpt lat="38.624963" lon="16.1828366"><ele>190.0</ele><time>2026-04-12T08:19:48.513Z</time></trkpt><trkpt lat="38.6248238" lon="16.1829813"><ele>190.0</ele><time>2026-04-12T08:19:49.527Z</time></trkpt><trkpt lat="38.6246724" lon="16.1831187"><ele>190.0</ele><time>2026-04-12T08:19:50.526Z</time></trkpt><trkpt lat="38.6245041" lon="16.1832407"><ele>197.0</ele><time>2026-04-12T08:19:51.521Z</time></trkpt><trkpt lat="38.6242986" lon="16.1833142"><ele>204.0</ele><time>2026-04-12T08:19:52.514Z</time></trkpt><trkpt lat="38.6240708" lon="16.1833584"><ele>211.0</ele><time>2026-04-12T08:19:53.526Z</time></trkpt><trkpt lat="38.6238342" lon="16.1833864"><ele>210.66666666666666</ele><time>2026-04-12T08:19:54.534Z</time></trkpt><trkpt lat="38.623619" lon="16.1833933"><ele>210.33333333333331</ele><time>2026-04-12T08:19:55.517Z</time></trkpt><trkpt lat="38.6234139" lon="16.1833924"><ele>210.0</ele><time>2026-04-12T08:19:56.523Z</time></trkpt><trkpt lat="38.6232274" lon="16.183382"><ele>210.0</ele><time>2026-04-12T08:19:57.518Z</time></trkpt><trkpt lat="38.6230609" lon="16.1833447"><ele>210.0</ele><time>2026-04-12T08:19:58.52Z</time></trkpt><trkpt lat="38.6229049" lon="16.1832797"><ele>210.0</ele><time>2026-04-12T08:19:59.528Z</time></trkpt><trkpt lat="38.622748" lon="16.1831807"><ele>206.33333333333331</ele><time>2026-04-12T08:20:00.519Z</time></trkpt><trkpt lat="38.6225923" lon="16.1830498"><ele>202.66666666666666</ele><time>2026-04-12T08:20:01.529Z</time></trkpt><trkpt lat="38.6224413" lon="16.1828919"><ele>199.0</ele><time>2026-04-12T08:20:02.522Z</time></trkpt><trkpt lat="38.6222939" lon="16.182722"><ele>199.0</ele><time>2026-04-12T08:20:03.516Z</time></trkpt><trkpt lat="38.6221484" lon="16.1825581"><ele>199.0</ele><time>2026-04-12T08:20:04.533Z</time></trkpt><trkpt lat="38.6220088" lon="16.1824101"><ele>199.0</ele><time>2026-04-12T08:20:05.525Z</time></trkpt><trkpt lat="38.6218788" lon="16.1822878"><ele>203.0</ele><time>2026-04-12T08:20:06.516Z</time></trkpt><trkpt lat="38.621762" lon="16.1822073"><ele>207.0</ele><time>2026-04-12T08:20:07.516Z</time></trkpt><trkpt lat="38.6216503" lon="16.1821688"><ele>211.0</ele><time>2026-04-12T08:20:08.521Z</time></trkpt><trkpt lat="38.6215473" lon="16.1821721"><ele>215.0</ele><time>2026-04-12T08:20:09.535Z</time></trkpt><trkpt lat="38.6214491" lon="16.182189"><ele>215.00000000000003</ele><time>2026-04-12T08:20:10.527Z</time></trkpt><trkpt lat="38.6213619" lon="16.1822468"><ele>215.0</ele><time>2026-04-12T08:20:11.512Z</time></trkpt><trkpt lat="38.6212884" lon="16.1822893"><ele>215.0</ele><time>2026-04-12T08:20:12.523Z</time></trkpt><trkpt lat="38.6212241" lon="16.1823148"><ele>215.0</ele><time>2026-04-12T08:20:13.54Z</time></trkpt><trkpt lat="38.6211605" lon="16.1823438"><ele>215.00000000000003</ele><time>2026-04-12T08:20:14.521Z</time></trkpt><trkpt lat="38.6210716" lon="16.1824044"><ele>215.0</ele><time>2026-04-12T08:20:16.528Z</time></trkpt><trkpt lat="38.6210275" lon="16.1824966"><ele>213.6</ele><time>2026-04-12T08:20:18.525Z</time></trkpt><trkpt lat="38.6210119" lon="16.1826662"><ele>212.2</ele><time>2026-04-12T08:20:20.549Z</time></trkpt><trkpt lat="38.6210135" lon="16.1827791"><ele>210.8</ele><time>2026-04-12T08:20:21.527Z</time></trkpt><trkpt lat="38.6210356" lon="16.1828874"><ele>209.4</ele><time>2026-04-12T08:20:22.538Z</time></trkpt><trkpt lat="38.6210776" lon="16.1829826"><ele>208.0</ele><time>2026-04-12T08:20:23.534Z</time></trkpt><trkpt lat="38.6211347" lon="16.1830674"><ele>210.60000000000002</ele><time>2026-04-12T08:20:24.527Z</time></trkpt><trkpt lat="38.6212038" lon="16.1831448"><ele>213.20000000000002</ele><time>2026-04-12T08:20:25.542Z</time></trkpt><trkpt lat="38.6212798" lon="16.1832118"><ele>215.8</ele><time>2026-04-12T08:20:26.564Z</time></trkpt><trkpt lat="38.621358" lon="16.1832717"><ele>218.4</ele><time>2026-04-12T08:20:27.543Z</time></trkpt><trkpt lat="38.6214377" lon="16.1833289"><ele>221.0</ele><time>2026-04-12T08:20:28.523Z</time></trkpt><trkpt lat="38.6215195" lon="16.1833867"><ele>221.0</ele><time>2026-04-12T08:20:29.543Z</time></trkpt><trkpt lat="38.6216045" lon="16.1834414"><ele>221.00000000000003</ele><time>2026-04-12T08:20:30.518Z</time></trkpt><trkpt lat="38.6216942" lon="16.1834972"><ele>221.00000000000003</ele><time>2026-04-12T08:20:31.518Z</time></trkpt><trkpt lat="38.6217888" lon="16.1835594"><ele>221.0</ele><time>2026-04-12T08:20:32.52Z</time></trkpt><trkpt lat="38.6218879" lon="16.1836258"><ele>221.0</ele><time>2026-04-12T08:20:33.531Z</time></trkpt><trkpt lat="38.6219907" lon="16.1836943"><ele>221.0</ele><time>2026-04-12T08:20:34.519Z</time></trkpt><trkpt lat="38.6220934" lon="16.1837631"><ele>221.00000000000003</ele><time>2026-04-12T08:20:35.521Z</time></trkpt><trkpt lat="38.6221912" lon="16.1838244"><ele>221.00000000000003</ele><time>2026-04-12T08:20:36.529Z</time></trkpt><trkpt lat="38.6222838" lon="16.1838736"><ele>221.0</ele><time>2026-04-12T08:20:37.524Z</time></trkpt><trkpt lat="38.622367" lon="16.1839125"><ele>221.0</ele><time>2026-04-12T08:20:38.515Z</time></trkpt><trkpt lat="38.6224411" lon="16.1839419"><ele>221.00000000000003</ele><time>2026-04-12T08:20:39.525Z</time></trkpt><trkpt lat="38.6225021" lon="16.1839629"><ele>221.0</ele><time>2026-04-12T08:20:40.528Z</time></trkpt><trkpt lat="38.6225923" lon="16.1839748"><ele>221.0</ele><time>2026-04-12T08:20:42.516Z</time></trkpt><trkpt lat="38.6226722" lon="16.183949"><ele>221.0</ele><time>2026-04-12T08:20:44.529Z</time></trkpt><trkpt lat="38.6227538" lon="16.1839409"><ele>221.00000000000003</ele><time>2026-04-12T08:20:46.547Z</time></trkpt><trkpt lat="38.6228664" lon="16.1839922"><ele>221.0</ele><time>2026-04-12T08:20:48.529Z</time></trkpt><trkpt lat="38.6229355" lon="16.1840196"><ele>224.4</ele><time>2026-04-12T08:20:49.522Z</time></trkpt><trkpt lat="38.6230119" lon="16.184047"><ele>227.8</ele><time>2026-04-12T08:20:50.526Z</time></trkpt><trkpt lat="38.6230956" lon="16.184079"><ele>231.20000000000002</ele><time>2026-04-12T08:20:51.523Z</time></trkpt><trkpt lat="38.6231947" lon="16.1841152"><ele>234.60000000000002</ele><time>2026-04-12T08:20:52.525Z</time></trkpt><trkpt lat="38.6233078" lon="16.1841521"><ele>238.0</ele><time>2026-04-12T08:20:53.523Z</time></trkpt><trkpt lat="38.6234302" lon="16.1841874"><ele>238.0</ele><time>2026-04-12T08:20:54.527Z</time></trkpt><trkpt lat="38.6235613" lon="16.1842127"><ele>238.0</ele><time>2026-04-12T08:20:55.523Z</time></trkpt><trkpt lat="38.6237023" lon="16.1842214"><ele>238.0</ele><time>2026-04-12T08:20:56.518Z</time></trkpt><trkpt lat="38.6238544" lon="16.1842169"><ele>238.0</ele><time>2026-04-12T08:20:57.517Z</time></trkpt><trkpt lat="38.6240255" lon="16.1842145"><ele>240.33333333333331</ele><time>2026-04-12T08:20:58.529Z</time></trkpt><trkpt lat="38.6242211" lon="16.1842365"><ele>242.66666666666669</ele><time>2026-04-12T08:20:59.516Z</time></trkpt><trkpt lat="38.6244223" lon="16.184261"><ele>245.0</ele><time>2026-04-12T08:21:00.535Z</time></trkpt><trkpt lat="38.6246255" lon="16.1842925"><ele>246.66666666666669</ele><time>2026-04-12T08:21:01.53Z</time></trkpt><trkpt lat="38.6248146" lon="16.1842858"><ele>248.33333333333331</ele><time>2026-04-12T08:21:02.52Z</time></trkpt><trkpt lat="38.6249916" lon="16.1842717"><ele>250.0</ele><time>2026-04-12T08:21:03.526Z</time></trkpt><trkpt lat="38.6251537" lon="16.1842562"><ele>250.0</ele><time>2026-04-12T08:21:04.518Z</time></trkpt><trkpt lat="38.6253024" lon="16.1842413"><ele>250.0</ele><time>2026-04-12T08:21:05.515Z</time></trkpt><trkpt lat="38.6254374" lon="16.1842193"><ele>250.0</ele><time>2026-04-12T08:21:06.523Z</time></trkpt><trkpt lat="38.625553" lon="16.1842032"><ele>250.0</ele><time>2026-04-12T08:21:07.529Z</time></trkpt><trkpt lat="38.6256559" lon="16.1841919"><ele>249.49999999999997</ele><time>2026-04-12T08:21:08.516Z</time></trkpt><trkpt lat="38.6257347" lon="16.184207"><ele>249.0</ele><time>2026-04-12T08:21:09.524Z</time></trkpt><trkpt lat="38.6257916" lon="16.1842542"><ele>248.5</ele><time>2026-04-12T08:21:10.532Z</time></trkpt><trkpt lat="38.6258276" lon="16.1843347"><ele>248.0</ele><time>2026-04-12T08:21:11.522Z</time></trkpt><trkpt lat="38.6258342" lon="16.1844417"><ele>247.49999999999997</ele><time>2026-04-12T08:21:12.526Z</time></trkpt><trkpt lat="38.6258057" lon="16.1845614"><ele>247.0</ele><time>2026-04-12T08:21:13.52Z</time></trkpt><trkpt lat="38.6257509" lon="16.1846778"><ele>247.0</ele><time>2026-04-12T08:21:14.521Z</time></trkpt><trkpt lat="38.6256865" lon="16.1847973"><ele>247.0</ele><time>2026-04-12T08:21:15.529Z</time></trkpt><trkpt lat="38.6255937" lon="16.1849025"><ele>247.0</ele><time>2026-04-12T08:21:16.531Z</time></trkpt><trkpt lat="38.6254994" lon="16.185019"><ele>247.0</ele><time>2026-04-12T08:21:17.531Z</time></trkpt><trkpt lat="38.6253973" lon="16.185139"><ele>251.5</ele><time>2026-04-12T08:21:18.523Z</time></trkpt><trkpt lat="38.6252942" lon="16.1852731"><ele>256.0</ele><time>2026-04-12T08:21:19.528Z</time></trkpt><trkpt lat="38.625198" lon="16.1854097"><ele>260.5</ele><time>2026-04-12T08:21:20.527Z</time></trkpt><trkpt lat="38.6251033" lon="16.1855635"><ele>265.0</ele><time>2026-04-12T08:21:21.525Z</time></trkpt><trkpt lat="38.6250275" lon="16.1857219"><ele>265.0</ele><time>2026-04-12T08:21:22.523Z</time></trkpt><trkpt lat="38.6249507" lon="16.1858927"><ele>265.0</ele><time>2026-04-12T08:21:23.523Z</time></trkpt><trkpt lat="38.6248789" lon="16.186067"><ele>265.0</ele><time>2026-04-12T08:21:24.53Z</time></trkpt><trkpt lat="38.6248132" lon="16.1862426"><ele>265.0</ele><time>2026-04-12T08:21:25.53Z</time></trkpt><trkpt lat="38.6247593" lon="16.1864233"><ele>265.0</ele><time>2026-04-12T08:21:26.533Z</time></trkpt><trkpt lat="38.6247233" lon="16.1866047"><ele>265.0</ele><time>2026-04-12T08:21:27.534Z</time></trkpt><trkpt lat="38.6247097" lon="16.1867881"><ele>265.0</ele><time>2026-04-12T08:21:28.524Z</time></trkpt><trkpt lat="38.6247232" lon="16.1869632"><ele>264.75</ele><time>2026-04-12T08:21:29.517Z</time></trkpt><trkpt lat="38.6247461" lon="16.1871349"><ele>264.5</ele><time>2026-04-12T08:21:30.526Z</time></trkpt><trkpt lat="38.6247707" lon="16.1873056"><ele>264.25</ele><time>2026-04-12T08:21:31.522Z</time></trkpt><trkpt lat="38.6247712" lon="16.1874903"><ele>264.0</ele><time>2026-04-12T08:21:32.518Z</time></trkpt><trkpt lat="38.6247578" lon="16.1876772"><ele>264.0</ele><time>2026-04-12T08:21:33.53Z</time></trkpt><trkpt lat="38.6247323" lon="16.187868"><ele>264.0</ele><time>2026-04-12T08:21:34.521Z</time></trkpt><trkpt lat="38.624706" lon="16.1880598"><ele>264.0</ele><time>2026-04-12T08:21:35.518Z</time></trkpt><trkpt lat="38.6246699" lon="16.1882673"><ele>265.6666666666667</ele><time>2026-04-12T08:21:36.518Z</time></trkpt><trkpt lat="38.6246403" lon="16.1884592"><ele>267.33333333333337</ele><time>2026-04-12T08:21:37.526Z</time></trkpt><trkpt lat="38.6246094" lon="16.188653"><ele>269.0</ele><time>2026-04-12T08:21:38.521Z</time></trkpt><trkpt lat="38.6245856" lon="16.1888416"><ele>270.25</ele><time>2026-04-12T08:21:39.521Z</time></trkpt><trkpt lat="38.6245792" lon="16.1890274"><ele>271.5</ele><time>2026-04-12T08:21:40.526Z</time></trkpt><trkpt lat="38.6245894" lon="16.1892113"><ele>272.75</ele><time>2026-04-12T08:21:41.536Z</time></trkpt><trkpt lat="38.6246109" lon="16.1893968"><ele>274.0</ele><time>2026-04-12T08:21:42.517Z</time></trkpt><trkpt lat="38.6246482" lon="16.1895839"><ele>274.0</ele><time>2026-04-12T08:21:43.523Z</time></trkpt><trkpt lat="38.6247081" lon="16.1897575"><ele>274.0</ele><time>2026-04-12T08:21:44.523Z</time></trkpt><trkpt lat="38.6247952" lon="16.1899101"><ele>274.0</ele><time>2026-04-12T08:21:45.521Z</time></trkpt><trkpt lat="38.6249025" lon="16.1900453"><ele>274.0</ele><time>2026-04-12T08:21:46.516Z</time></trkpt><trkpt lat="38.6250197" lon="16.190177"><ele>274.0</ele><time>2026-04-12T08:21:47.524Z</time></trkpt><trkpt lat="38.6251408" lon="16.1903118"><ele>274.0</ele><time>2026-04-12T08:21:48.52Z</time></trkpt><trkpt lat="38.6252644" lon="16.1904528"><ele>274.0</ele><time>2026-04-12T08:21:49.516Z</time></trkpt><trkpt lat="38.6253925" lon="16.1905976"><ele>274.3333333333333</ele><time>2026-04-12T08:21:50.527Z</time></trkpt><trkpt lat="38.6255271" lon="16.1907447"><ele>274.6666666666667</ele><time>2026-04-12T08:21:51.526Z</time></trkpt><trkpt lat="38.6256638" lon="16.1908941"><ele>275.0</ele><time>2026-04-12T08:21:52.533Z</time></trkpt><trkpt lat="38.6258" lon="16.1910368"><ele>275.0</ele><time>2026-04-12T08:21:53.527Z</time></trkpt><trkpt lat="38.6259331" lon="16.191172"><ele>275.0</ele><time>2026-04-12T08:21:54.522Z</time></trkpt><trkpt lat="38.626052" lon="16.1912966"><ele>275.0</ele><time>2026-04-12T08:21:55.524Z</time></trkpt><trkpt lat="38.6261495" lon="16.1914116"><ele>273.75</ele><time>2026-04-12T08:21:56.518Z</time></trkpt><trkpt lat="38.6262309" lon="16.1915263"><ele>272.5</ele><time>2026-04-12T08:21:57.525Z</time></trkpt><trkpt lat="38.6262913" lon="16.1916522"><ele>271.25</ele><time>2026-04-12T08:21:58.532Z</time></trkpt><trkpt lat="38.6263337" lon="16.1917951"><ele>270.0</ele><time>2026-04-12T08:21:59.521Z</time></trkpt><trkpt lat="38.6263588" lon="16.1919537"><ele>270.0</ele><time>2026-04-12T08:22:00.524Z</time></trkpt><trkpt lat="38.6263774" lon="16.192125"><ele>270.0</ele><time>2026-04-12T08:22:01.523Z</time></trkpt><trkpt lat="38.6263869" lon="16.1923107"><ele>270.0</ele><time>2026-04-12T08:22:02.536Z</time></trkpt><trkpt lat="38.6263822" lon="16.1925087"><ele>270.0</ele><time>2026-04-12T08:22:03.536Z</time></trkpt><trkpt lat="38.6263604" lon="16.192711"><ele>268.3333333333333</ele><time>2026-04-12T08:22:04.522Z</time></trkpt><trkpt lat="38.6263236" lon="16.1929161"><ele>266.66666666666663</ele><time>2026-04-12T08:22:05.516Z</time></trkpt><trkpt lat="38.6262772" lon="16.193126"><ele>265.0</ele><time>2026-04-12T08:22:06.532Z</time></trkpt><trkpt lat="38.6262261" lon="16.1933409"><ele>263.66666666666663</ele><time>2026-04-12T08:22:07.535Z</time></trkpt><trkpt lat="38.6261723" lon="16.1935523"><ele>262.3333333333333</ele><time>2026-04-12T08:22:08.531Z</time></trkpt><trkpt lat="38.626118" lon="16.1937533"><ele>261.0</ele><time>2026-04-12T08:22:09.523Z</time></trkpt><trkpt lat="38.6260714" lon="16.1939366"><ele>263.0</ele><time>2026-04-12T08:22:10.531Z</time></trkpt><trkpt lat="38.6260399" lon="16.1941135"><ele>265.0</ele><time>2026-04-12T08:22:11.529Z</time></trkpt><trkpt lat="38.626032" lon="16.1942875"><ele>267.0</ele><time>2026-04-12T08:22:12.573Z</time></trkpt><trkpt lat="38.6260529" lon="16.1944568"><ele>269.0</ele><time>2026-04-12T08:22:13.518Z</time></trkpt><trkpt lat="38.626101" lon="16.1946258"><ele>267.6666666666667</ele><time>2026-04-12T08:22:14.52Z</time></trkpt><trkpt lat="38.6261663" lon="16.1947987"><ele>266.3333333333333</ele><time>2026-04-12T08:22:15.538Z</time></trkpt><trkpt lat="38.626242" lon="16.1949813"><ele>265.0</ele><time>2026-04-12T08:22:16.519Z</time></trkpt><trkpt lat="38.6263221" lon="16.1951676"><ele>265.0</ele><time>2026-04-12T08:22:17.514Z</time></trkpt><trkpt lat="38.6264011" lon="16.1953491"><ele>265.0</ele><time>2026-04-12T08:22:18.526Z</time></trkpt><trkpt lat="38.6264744" lon="16.1955195"><ele>265.0</ele><time>2026-04-12T08:22:19.542Z</time></trkpt><trkpt lat="38.6265414" lon="16.1956821"><ele>266.25</ele><time>2026-04-12T08:22:20.533Z</time></trkpt><trkpt lat="38.6266019" lon="16.1958464"><ele>267.5</ele><time>2026-04-12T08:22:21.521Z</time></trkpt><trkpt lat="38.6266544" lon="16.1960195"><ele>268.75</ele><time>2026-04-12T08:22:22.527Z</time></trkpt><trkpt lat="38.6266959" lon="16.1962062"><ele>270.0</ele><time>2026-04-12T08:22:23.537Z</time></trkpt><trkpt lat="38.626725" lon="16.1964047"><ele>271.3333333333333</ele><time>2026-04-12T08:22:24.522Z</time></trkpt><trkpt lat="38.6267388" lon="16.1966143"><ele>272.66666666666663</ele><time>2026-04-12T08:22:25.521Z</time></trkpt><trkpt lat="38.6267398" lon="16.1968305"><ele>274.0</ele><time>2026-04-12T08:22:26.518Z</time></trkpt><trkpt lat="38.6267383" lon="16.1970527"><ele>274.0</ele><time>2026-04-12T08:22:27.517Z</time></trkpt><trkpt lat="38.6267356" lon="16.1972782"><ele>274.0</ele><time>2026-04-12T08:22:28.519Z</time></trkpt><trkpt lat="38.6267327" lon="16.197493"><ele>274.0</ele><time>2026-04-12T08:22:29.531Z</time></trkpt><trkpt lat="38.6267288" lon="16.1976936"><ele>274.4</ele><time>2026-04-12T08:22:30.529Z</time></trkpt><trkpt lat="38.6267301" lon="16.1978681"><ele>274.79999999999995</ele><time>2026-04-12T08:22:31.518Z</time></trkpt><trkpt lat="38.6267383" lon="16.1980109"><ele>275.20000000000005</ele><time>2026-04-12T08:22:32.526Z</time></trkpt><trkpt lat="38.6267523" lon="16.1981365"><ele>275.6</ele><time>2026-04-12T08:22:33.525Z</time></trkpt><trkpt lat="38.6267787" lon="16.19825"><ele>276.0</ele><time>2026-04-12T08:22:34.523Z</time></trkpt><trkpt lat="38.6268239" lon="16.198352"><ele>276.75</ele><time>2026-04-12T08:22:35.519Z</time></trkpt><trkpt lat="38.6268935" lon="16.1984415"><ele>277.5</ele><time>2026-04-12T08:22:36.518Z</time></trkpt><trkpt lat="38.6269898" lon="16.1985274"><ele>278.25</ele><time>2026-04-12T08:22:37.53Z</time></trkpt><trkpt lat="38.627108" lon="16.1986103"><ele>279.0</ele><time>2026-04-12T08:22:38.523Z</time></trkpt><trkpt lat="38.6272428" lon="16.1986936"><ele>280.0</ele><time>2026-04-12T08:22:39.52Z</time></trkpt><trkpt lat="38.6273846" lon="16.1987837"><ele>281.0</ele><time>2026-04-12T08:22:40.526Z</time></trkpt><trkpt lat="38.6275299" lon="16.1988789"><ele>282.0</ele><time>2026-04-12T08:22:41.522Z</time></trkpt><trkpt lat="38.6276814" lon="16.198977"><ele>282.0</ele><time>2026-04-12T08:22:42.515Z</time></trkpt><trkpt lat="38.6278385" lon="16.1990799"><ele>282.0</ele><time>2026-04-12T08:22:43.522Z</time></trkpt><trkpt lat="38.6280016" lon="16.199188"><ele>282.0</ele><time>2026-04-12T08:22:44.519Z</time></trkpt><trkpt lat="38.6281709" lon="16.1992988"><ele>282.0</ele><time>2026-04-12T08:22:45.517Z</time></trkpt><trkpt lat="38.6283447" lon="16.1994163"><ele>282.0</ele><time>2026-04-12T08:22:46.521Z</time></trkpt><trkpt lat="38.6285197" lon="16.1995457"><ele>282.0</ele><time>2026-04-12T08:22:47.528Z</time></trkpt><trkpt lat="38.6286938" lon="16.1996905"><ele>282.0</ele><time>2026-04-12T08:22:48.543Z</time></trkpt><trkpt lat="38.6288651" lon="16.1998425"><ele>282.0</ele><time>2026-04-12T08:22:49.518Z</time></trkpt><trkpt lat="38.6290318" lon="16.1999921"><ele>282.0</ele><time>2026-04-12T08:22:50.521Z</time></trkpt><trkpt lat="38.6291945" lon="16.2001394"><ele>282.0</ele><time>2026-04-12T08:22:51.53Z</time></trkpt><trkpt lat="38.6293528" lon="16.2002861"><ele>282.0</ele><time>2026-04-12T08:22:52.523Z</time></trkpt><trkpt lat="38.6295098" lon="16.2004334"><ele>282.0</ele><time>2026-04-12T08:22:53.528Z</time></trkpt><trkpt lat="38.6296681" lon="16.2005813"><ele>282.6666666666667</ele><time>2026-04-12T08:22:54.523Z</time></trkpt><trkpt lat="38.6298323" lon="16.2007336"><ele>283.33333333333337</ele><time>2026-04-12T08:22:55.52Z</time></trkpt><trkpt lat="38.6299996" lon="16.200889"><ele>284.0</ele><time>2026-04-12T08:22:56.522Z</time></trkpt><trkpt lat="38.630163" lon="16.2010399"><ele>284.0</ele><time>2026-04-12T08:22:57.524Z</time></trkpt><trkpt lat="38.6303183" lon="16.2011822"><ele>284.0</ele><time>2026-04-12T08:22:58.523Z</time></trkpt><trkpt lat="38.6304653" lon="16.2013181"><ele>284.0</ele><time>2026-04-12T08:22:59.52Z</time></trkpt><trkpt lat="38.6306033" lon="16.2014488"><ele>284.6666666666667</ele><time>2026-04-12T08:23:00.527Z</time></trkpt><trkpt lat="38.6307356" lon="16.2015742"><ele>285.3333333333333</ele><time>2026-04-12T08:23:01.522Z</time></trkpt><trkpt lat="38.6308703" lon="16.2016995"><ele>286.0</ele><time>2026-04-12T08:23:02.525Z</time></trkpt><trkpt lat="38.631009" lon="16.2018276"><ele>286.66666666666663</ele><time>2026-04-12T08:23:03.529Z</time></trkpt><trkpt lat="38.6311545" lon="16.2019418"><ele>287.3333333333333</ele><time>2026-04-12T08:23:04.525Z</time></trkpt><trkpt lat="38.6313067" lon="16.2020523"><ele>288.0</ele><time>2026-04-12T08:23:05.525Z</time></trkpt><trkpt lat="38.6314607" lon="16.2021466"><ele>288.0</ele><time>2026-04-12T08:23:06.517Z</time></trkpt><trkpt lat="38.6316324" lon="16.2022247"><ele>288.0</ele><time>2026-04-12T08:23:07.531Z</time></trkpt><trkpt lat="38.6318081" lon="16.2022912"><ele>288.0</ele><time>2026-04-12T08:23:08.526Z</time></trkpt><trkpt lat="38.6319842" lon="16.2023547"><ele>288.0</ele><time>2026-04-12T08:23:09.526Z</time></trkpt><trkpt lat="38.6321616" lon="16.2024149"><ele>288.0</ele><time>2026-04-12T08:23:10.525Z</time></trkpt><trkpt lat="38.6323356" lon="16.2024792"><ele>288.0</ele><time>2026-04-12T08:23:11.542Z</time></trkpt><trkpt lat="38.6325069" lon="16.2025427"><ele>288.0</ele><time>2026-04-12T08:23:12.539Z</time></trkpt><trkpt lat="38.6326706" lon="16.2025987"><ele>288.0</ele><time>2026-04-12T08:23:13.516Z</time></trkpt><trkpt lat="38.6328163" lon="16.2026595"><ele>288.0</ele><time>2026-04-12T08:23:14.532Z</time></trkpt><trkpt lat="38.6329483" lon="16.2027436"><ele>285.0</ele><time>2026-04-12T08:23:15.519Z</time></trkpt><trkpt lat="38.6330631" lon="16.2028532"><ele>282.0</ele><time>2026-04-12T08:23:16.513Z</time></trkpt><trkpt lat="38.6331514" lon="16.2029865"><ele>279.0</ele><time>2026-04-12T08:23:17.522Z</time></trkpt><trkpt lat="38.6332147" lon="16.2031453"><ele>276.0</ele><time>2026-04-12T08:23:18.518Z</time></trkpt><trkpt lat="38.6332576" lon="16.2033237"><ele>275.6666666666667</ele><time>2026-04-12T08:23:19.527Z</time></trkpt><trkpt lat="38.6332963" lon="16.2035089"><ele>275.33333333333337</ele><time>2026-04-12T08:23:20.517Z</time></trkpt><trkpt lat="38.6333129" lon="16.2037316"><ele>275.0</ele><time>2026-04-12T08:23:21.519Z</time></trkpt><trkpt lat="38.6333192" lon="16.2039551"><ele>275.33333333333337</ele><time>2026-04-12T08:23:22.525Z</time></trkpt><trkpt lat="38.633326" lon="16.2041761"><ele>275.6666666666667</ele><time>2026-04-12T08:23:23.523Z</time></trkpt><trkpt lat="38.6333444" lon="16.2043961"><ele>276.0</ele><time>2026-04-12T08:23:24.522Z</time></trkpt><trkpt lat="38.6333968" lon="16.2046083"><ele>276.6666666666667</ele><time>2026-04-12T08:23:25.521Z</time></trkpt><trkpt lat="38.6334654" lon="16.2048299"><ele>277.33333333333337</ele><time>2026-04-12T08:23:26.52Z</time></trkpt><trkpt lat="38.6335559" lon="16.2050426"><ele>278.0</ele><time>2026-04-12T08:23:27.523Z</time></trkpt><trkpt lat="38.633652" lon="16.2052523"><ele>277.6666666666667</ele><time>2026-04-12T08:23:28.528Z</time></trkpt><trkpt lat="38.6337532" lon="16.2054643"><ele>277.3333333333333</ele><time>2026-04-12T08:23:29.533Z</time></trkpt><trkpt lat="38.633848" lon="16.2056793"><ele>277.0</ele><time>2026-04-12T08:23:30.529Z</time></trkpt><trkpt lat="38.6339376" lon="16.2058817"><ele>277.0</ele><time>2026-04-12T08:23:31.518Z</time></trkpt><trkpt lat="38.6340276" lon="16.2060658"><ele>277.0</ele><time>2026-04-12T08:23:32.525Z</time></trkpt><trkpt lat="38.6341194" lon="16.2062314"><ele>277.0</ele><time>2026-04-12T08:23:33.519Z</time></trkpt><trkpt lat="38.6342217" lon="16.2063796"><ele>279.0</ele><time>2026-04-12T08:23:34.514Z</time></trkpt><trkpt lat="38.6343362" lon="16.206515"><ele>281.0</ele><time>2026-04-12T08:23:35.512Z</time></trkpt><trkpt lat="38.6344619" lon="16.2066479"><ele>283.0</ele><time>2026-04-12T08:23:36.526Z</time></trkpt><trkpt lat="38.6345909" lon="16.2067849"><ele>283.0</ele><time>2026-04-12T08:23:37.52Z</time></trkpt><trkpt lat="38.6347202" lon="16.2069211"><ele>283.0</ele><time>2026-04-12T08:23:38.515Z</time></trkpt><trkpt lat="38.6348508" lon="16.2070586"><ele>283.0</ele><time>2026-04-12T08:23:39.525Z</time></trkpt><trkpt lat="38.6349775" lon="16.2071956"><ele>283.0</ele><time>2026-04-12T08:23:40.525Z</time></trkpt><trkpt lat="38.6351002" lon="16.2073262"><ele>283.0</ele><time>2026-04-12T08:23:41.521Z</time></trkpt><trkpt lat="38.635223" lon="16.2074554"><ele>283.0</ele><time>2026-04-12T08:23:42.529Z</time></trkpt><trkpt lat="38.6353481" lon="16.2075872"><ele>280.0</ele><time>2026-04-12T08:23:43.538Z</time></trkpt><trkpt lat="38.6354705" lon="16.2077207"><ele>277.0</ele><time>2026-04-12T08:23:44.524Z</time></trkpt><trkpt lat="38.6355916" lon="16.2078544"><ele>274.0</ele><time>2026-04-12T08:23:45.523Z</time></trkpt><trkpt lat="38.6357158" lon="16.2079876"><ele>274.0</ele><time>2026-04-12T08:23:46.528Z</time></trkpt><trkpt lat="38.6358417" lon="16.2081227"><ele>274.0</ele><time>2026-04-12T08:23:47.524Z</time></trkpt><trkpt lat="38.635968" lon="16.2082593"><ele>274.0</ele><time>2026-04-12T08:23:48.521Z</time></trkpt><trkpt lat="38.6360931" lon="16.2083937"><ele>271.3333333333333</ele><time>2026-04-12T08:23:49.526Z</time></trkpt><trkpt lat="38.6362167" lon="16.2085222"><ele>268.6666666666667</ele><time>2026-04-12T08:23:50.527Z</time></trkpt><trkpt lat="38.6363306" lon="16.2086476"><ele>266.0</ele><time>2026-04-12T08:23:51.537Z</time></trkpt><trkpt lat="38.6364398" lon="16.2087697"><ele>266.0</ele><time>2026-04-12T08:23:52.521Z</time></trkpt><trkpt lat="38.6365362" lon="16.2088889"><ele>266.0</ele><time>2026-04-12T08:23:53.523Z</time></trkpt><trkpt lat="38.6366193" lon="16.2090046"><ele>266.0</ele><time>2026-04-12T08:23:54.53Z</time></trkpt><trkpt lat="38.6366864" lon="16.2091217"><ele>266.0</ele><time>2026-04-12T08:23:55.519Z</time></trkpt><trkpt lat="38.6367261" lon="16.2092434"><ele>267.2</ele><time>2026-04-12T08:23:56.525Z</time></trkpt><trkpt lat="38.6367391" lon="16.209366"><ele>268.40000000000003</ele><time>2026-04-12T08:23:57.534Z</time></trkpt><trkpt lat="38.6367295" lon="16.2094837"><ele>269.6</ele><time>2026-04-12T08:23:58.528Z</time></trkpt><trkpt lat="38.6367027" lon="16.2096041"><ele>270.8</ele><time>2026-04-12T08:23:59.535Z</time></trkpt><trkpt lat="38.6366708" lon="16.209733"><ele>272.0</ele><time>2026-04-12T08:24:00.53Z</time></trkpt><trkpt lat="38.6366319" lon="16.2098739"><ele>272.2</ele><time>2026-04-12T08:24:01.535Z</time></trkpt><trkpt lat="38.6365874" lon="16.2100127"><ele>272.4</ele><time>2026-04-12T08:24:02.531Z</time></trkpt><trkpt lat="38.6365458" lon="16.2101427"><ele>272.6</ele><time>2026-04-12T08:24:03.526Z</time></trkpt><trkpt lat="38.6365049" lon="16.2102681"><ele>272.8</ele><time>2026-04-12T08:24:04.523Z</time></trkpt><trkpt lat="38.6364648" lon="16.2103947"><ele>273.0</ele><time>2026-04-12T08:24:05.53Z</time></trkpt><trkpt lat="38.6364261" lon="16.2105214"><ele>273.0</ele><time>2026-04-12T08:24:06.524Z</time></trkpt><trkpt lat="38.6363877" lon="16.2106504"><ele>273.0</ele><time>2026-04-12T08:24:07.535Z</time></trkpt><trkpt lat="38.6363477" lon="16.2107836"><ele>273.0</ele><time>2026-04-12T08:24:08.543Z</time></trkpt><trkpt lat="38.6362995" lon="16.2109208"><ele>273.0</ele><time>2026-04-12T08:24:09.523Z</time></trkpt><trkpt lat="38.6362399" lon="16.2110519"><ele>272.75</ele><time>2026-04-12T08:24:10.536Z</time></trkpt><trkpt lat="38.6361688" lon="16.2111737"><ele>272.5</ele><time>2026-04-12T08:24:11.527Z</time></trkpt><trkpt lat="38.6360901" lon="16.211284"><ele>272.25</ele><time>2026-04-12T08:24:12.521Z</time></trkpt><trkpt lat="38.6360094" lon="16.2113899"><ele>272.0</ele><time>2026-04-12T08:24:13.538Z</time></trkpt><trkpt lat="38.6359357" lon="16.2115033"><ele>268.0</ele><time>2026-04-12T08:24:14.526Z</time></trkpt><trkpt lat="38.6358766" lon="16.2116336"><ele>264.0</ele><time>2026-04-12T08:24:15.521Z</time></trkpt><trkpt lat="38.6358341" lon="16.2117815"><ele>260.0</ele><time>2026-04-12T08:24:16.52Z</time></trkpt><trkpt lat="38.6358119" lon="16.2119395"><ele>256.0</ele><time>2026-04-12T08:24:17.527Z</time></trkpt><trkpt lat="38.6358064" lon="16.2121001"><ele>256.0</ele><time>2026-04-12T08:24:18.53Z</time></trkpt><trkpt lat="38.6358159" lon="16.2122605"><ele>256.0</ele><time>2026-04-12T08:24:19.524Z</time></trkpt><trkpt lat="38.6358439" lon="16.2124172"><ele>256.0</ele><time>2026-04-12T08:24:20.533Z</time></trkpt><trkpt lat="38.6358963" lon="16.2125649"><ele>256.0</ele><time>2026-04-12T08:24:21.521Z</time></trkpt><trkpt lat="38.6359741" lon="16.212698"><ele>257.5</ele><time>2026-04-12T08:24:22.518Z</time></trkpt><trkpt lat="38.6360693" lon="16.2128112"><ele>259.0</ele><time>2026-04-12T08:24:23.518Z</time></trkpt><trkpt lat="38.6361685" lon="16.2129072"><ele>260.5</ele><time>2026-04-12T08:24:24.525Z</time></trkpt><trkpt lat="38.6362836" lon="16.2129749"><ele>262.0</ele><time>2026-04-12T08:24:25.516Z</time></trkpt><trkpt lat="38.6363904" lon="16.2130433"><ele>262.0</ele><time>2026-04-12T08:24:26.521Z</time></trkpt><trkpt lat="38.6364672" lon="16.2131451"><ele>262.0</ele><time>2026-04-12T08:24:27.525Z</time></trkpt><trkpt lat="38.6365015" lon="16.2132647"><ele>262.0</ele><time>2026-04-12T08:24:28.521Z</time></trkpt><trkpt lat="38.6364956" lon="16.2133862"><ele>262.0</ele><time>2026-04-12T08:24:29.522Z</time></trkpt><trkpt lat="38.636455" lon="16.2134959"><ele>262.0</ele><time>2026-04-12T08:24:30.526Z</time></trkpt><trkpt lat="38.6363856" lon="16.2135792"><ele>258.8</ele><time>2026-04-12T08:24:31.516Z</time></trkpt><trkpt lat="38.636309" lon="16.2136412"><ele>255.6</ele><time>2026-04-12T08:24:32.52Z</time></trkpt><trkpt lat="38.6362052" lon="16.2136228"><ele>252.40000000000003</ele><time>2026-04-12T08:24:33.516Z</time></trkpt><trkpt lat="38.6361044" lon="16.2135763"><ele>249.20000000000002</ele><time>2026-04-12T08:24:34.523Z</time></trkpt><trkpt lat="38.6359974" lon="16.2135131"><ele>246.0</ele><time>2026-04-12T08:24:35.534Z</time></trkpt><trkpt lat="38.6358828" lon="16.2134458"><ele>241.66666666666669</ele><time>2026-04-12T08:24:36.518Z</time></trkpt><trkpt lat="38.6357521" lon="16.2133496"><ele>237.33333333333334</ele><time>2026-04-12T08:24:37.519Z</time></trkpt><trkpt lat="38.6356159" lon="16.2132576"><ele>233.0</ele><time>2026-04-12T08:24:38.537Z</time></trkpt><trkpt lat="38.6354858" lon="16.2131617"><ele>232.25</ele><time>2026-04-12T08:24:39.517Z</time></trkpt><trkpt lat="38.635359" lon="16.213065"><ele>231.5</ele><time>2026-04-12T08:24:40.539Z</time></trkpt><trkpt lat="38.6352431" lon="16.2129547"><ele>230.75</ele><time>2026-04-12T08:24:41.523Z</time></trkpt><trkpt lat="38.6351321" lon="16.21284"><ele>230.0</ele><time>2026-04-12T08:24:42.54Z</time></trkpt><trkpt lat="38.6350283" lon="16.2127241"><ele>230.0</ele><time>2026-04-12T08:24:43.52Z</time></trkpt><trkpt lat="38.6349061" lon="16.2126362"><ele>230.0</ele><time>2026-04-12T08:24:44.519Z</time></trkpt><trkpt lat="38.6347734" lon="16.2125989"><ele>230.0</ele><time>2026-04-12T08:24:45.53Z</time></trkpt><trkpt lat="38.6346382" lon="16.2125991"><ele>230.0</ele><time>2026-04-12T08:24:46.514Z</time></trkpt><trkpt lat="38.6345015" lon="16.212616"><ele>226.75</ele><time>2026-04-12T08:24:47.519Z</time></trkpt><trkpt lat="38.6343604" lon="16.2126337"><ele>223.5</ele><time>2026-04-12T08:24:48.531Z</time></trkpt><trkpt lat="38.634224" lon="16.2126365"><ele>220.25</ele><time>2026-04-12T08:24:49.516Z</time></trkpt><trkpt lat="38.634095" lon="16.2126123"><ele>217.0</ele><time>2026-04-12T08:24:50.522Z</time></trkpt><trkpt lat="38.6269882" lon="16.2346195"><ele>220.75</ele><time>2026-04-12T08:28:16.523Z</time></trkpt><trkpt lat="38.6269152" lon="16.2347849"><ele>224.5</ele><time>2026-04-12T08:28:17.541Z</time></trkpt><trkpt lat="38.6268435" lon="16.2349393"><ele>228.25</ele><time>2026-04-12T08:28:18.529Z</time></trkpt><trkpt lat="38.6267733" lon="16.2350911"><ele>232.0</ele><time>2026-04-12T08:28:19.522Z</time></trkpt><trkpt lat="38.6267028" lon="16.2352353"><ele>233.0</ele><time>2026-04-12T08:28:20.526Z</time></trkpt><trkpt lat="38.626636" lon="16.2353737"><ele>234.0</ele><time>2026-04-12T08:28:21.525Z</time></trkpt><trkpt lat="38.6265758" lon="16.2354979"><ele>235.0</ele><time>2026-04-12T08:28:22.519Z</time></trkpt><trkpt lat="38.6265174" lon="16.2356053"><ele>236.0</ele><time>2026-04-12T08:28:23.533Z</time></trkpt><trkpt lat="38.6264561" lon="16.235693"><ele>237.0</ele><time>2026-04-12T08:28:24.533Z</time></trkpt><trkpt lat="38.6264063" lon="16.2357675"><ele>238.0</ele><time>2026-04-12T08:28:25.528Z</time></trkpt><trkpt lat="38.6263792" lon="16.2358431"><ele>239.0</ele><time>2026-04-12T08:28:26.53Z</time></trkpt><trkpt lat="38.6263705" lon="16.2360536"><ele>240.0</ele><time>2026-04-12T08:28:28.521Z</time></trkpt><trkpt lat="38.6263636" lon="16.2361977"><ele>241.0</ele><time>2026-04-12T08:28:29.529Z</time></trkpt><trkpt lat="38.6263449" lon="16.2363594"><ele>241.0</ele><time>2026-04-12T08:28:30.524Z</time></trkpt><trkpt lat="38.6263169" lon="16.2365242"><ele>241.0</ele><time>2026-04-12T08:28:31.516Z</time></trkpt><trkpt lat="38.6262846" lon="16.2366909"><ele>241.0</ele><time>2026-04-12T08:28:32.524Z</time></trkpt><trkpt lat="38.62625" lon="16.2368567"><ele>241.0</ele><time>2026-04-12T08:28:33.521Z</time></trkpt><trkpt lat="38.6262047" lon="16.2370075"><ele>241.20000000000002</ele><time>2026-04-12T08:28:34.549Z</time></trkpt><trkpt lat="38.626141" lon="16.2371318"><ele>241.40000000000003</ele><time>2026-04-12T08:28:35.528Z</time></trkpt><trkpt lat="38.6260632" lon="16.2372263"><ele>241.6</ele><time>2026-04-12T08:28:36.52Z</time></trkpt><trkpt lat="38.6259755" lon="16.2372998"><ele>241.8</ele><time>2026-04-12T08:28:37.526Z</time></trkpt><trkpt lat="38.6258887" lon="16.2373581"><ele>242.0</ele><time>2026-04-12T08:28:38.53Z</time></trkpt><trkpt lat="38.6257793" lon="16.2373959"><ele>242.0</ele><time>2026-04-12T08:28:39.527Z</time></trkpt><trkpt lat="38.625677" lon="16.2374427"><ele>242.0</ele><time>2026-04-12T08:28:40.525Z</time></trkpt><trkpt lat="38.6255832" lon="16.237506"><ele>242.0</ele><time>2026-04-12T08:28:41.521Z</time></trkpt><trkpt lat="38.6254943" lon="16.2375792"><ele>242.0</ele><time>2026-04-12T08:28:42.527Z</time></trkpt><trkpt lat="38.6254176" lon="16.2376747"><ele>242.0</ele><time>2026-04-12T08:28:43.521Z</time></trkpt><trkpt lat="38.6253564" lon="16.2377867"><ele>242.0</ele><time>2026-04-12T08:28:44.525Z</time></trkpt><trkpt lat="38.6253106" lon="16.2379107"><ele>242.0</ele><time>2026-04-12T08:28:45.531Z</time></trkpt><trkpt lat="38.6252725" lon="16.2380377"><ele>242.0</ele><time>2026-04-12T08:28:46.523Z</time></trkpt><trkpt lat="38.6252517" lon="16.2381724"><ele>242.0</ele><time>2026-04-12T08:28:47.522Z</time></trkpt><trkpt lat="38.6252837" lon="16.2384417"><ele>245.0</ele><time>2026-04-12T08:28:49.525Z</time></trkpt><trkpt lat="38.6253433" lon="16.2385711"><ele>248.0</ele><time>2026-04-12T08:28:50.521Z</time></trkpt><trkpt lat="38.6254182" lon="16.2387021"><ele>251.0</ele><time>2026-04-12T08:28:51.523Z</time></trkpt><trkpt lat="38.6254996" lon="16.2388376"><ele>254.0</ele><time>2026-04-12T08:28:52.525Z</time></trkpt><trkpt lat="38.6255857" lon="16.2389794"><ele>254.5</ele><time>2026-04-12T08:28:53.521Z</time></trkpt><trkpt lat="38.6256735" lon="16.2391249"><ele>255.0</ele><time>2026-04-12T08:28:54.517Z</time></trkpt><trkpt lat="38.6257591" lon="16.2392815"><ele>255.5</ele><time>2026-04-12T08:28:55.529Z</time></trkpt><trkpt lat="38.625826" lon="16.23944"><ele>256.0</ele><time>2026-04-12T08:28:56.515Z</time></trkpt><trkpt lat="38.6258653" lon="16.2396036"><ele>256.0</ele><time>2026-04-12T08:28:57.528Z</time></trkpt><trkpt lat="38.6258738" lon="16.2397683"><ele>256.0</ele><time>2026-04-12T08:28:58.53Z</time></trkpt><trkpt lat="38.6258654" lon="16.2399278"><ele>256.0</ele><time>2026-04-12T08:28:59.52Z</time></trkpt><trkpt lat="38.6258513" lon="16.2400874"><ele>256.0</ele><time>2026-04-12T08:29:00.53Z</time></trkpt><trkpt lat="38.6258344" lon="16.2402498"><ele>255.25</ele><time>2026-04-12T08:29:01.529Z</time></trkpt><trkpt lat="38.6258163" lon="16.2404177"><ele>254.5</ele><time>2026-04-12T08:29:02.523Z</time></trkpt><trkpt lat="38.6257982" lon="16.2405928"><ele>253.75</ele><time>2026-04-12T08:29:03.516Z</time></trkpt><trkpt lat="38.6257867" lon="16.2407794"><ele>253.0</ele><time>2026-04-12T08:29:04.527Z</time></trkpt><trkpt lat="38.625788" lon="16.2409656"><ele>253.0</ele><time>2026-04-12T08:29:05.526Z</time></trkpt><trkpt lat="38.6257991" lon="16.2411392"><ele>253.0</ele><time>2026-04-12T08:29:06.533Z</time></trkpt><trkpt lat="38.6258106" lon="16.2413007"><ele>253.0</ele><time>2026-04-12T08:29:07.526Z</time></trkpt><trkpt lat="38.6258159" lon="16.2414503"><ele>253.0</ele><time>2026-04-12T08:29:08.524Z</time></trkpt><trkpt lat="38.6257798" lon="16.2417211"><ele>253.2</ele><time>2026-04-12T08:29:10.52Z</time></trkpt><trkpt lat="38.6257345" lon="16.2418384"><ele>253.4</ele><time>2026-04-12T08:29:11.514Z</time></trkpt><trkpt lat="38.6256828" lon="16.2419451"><ele>253.59999999999997</ele><time>2026-04-12T08:29:12.517Z</time></trkpt><trkpt lat="38.6256275" lon="16.2420496"><ele>253.79999999999998</ele><time>2026-04-12T08:29:13.519Z</time></trkpt><trkpt lat="38.6255691" lon="16.2421569"><ele>254.0</ele><time>2026-04-12T08:29:14.52Z</time></trkpt><trkpt lat="38.6255095" lon="16.2422682"><ele>254.25</ele><time>2026-04-12T08:29:15.524Z</time></trkpt><trkpt lat="38.6254485" lon="16.2423845"><ele>254.5</ele><time>2026-04-12T08:29:16.517Z</time></trkpt><trkpt lat="38.6253849" lon="16.242505"><ele>254.75</ele><time>2026-04-12T08:29:17.523Z</time></trkpt><trkpt lat="38.6253196" lon="16.2426281"><ele>255.0</ele><time>2026-04-12T08:29:18.53Z</time></trkpt><trkpt lat="38.6252549" lon="16.2427566"><ele>255.0</ele><time>2026-04-12T08:29:19.512Z</time></trkpt><trkpt lat="38.6251909" lon="16.2428849"><ele>255.0</ele><time>2026-04-12T08:29:20.554Z</time></trkpt><trkpt lat="38.6251321" lon="16.2429992"><ele>255.0</ele><time>2026-04-12T08:29:21.527Z</time></trkpt><trkpt lat="38.6250817" lon="16.2431032"><ele>255.0</ele><time>2026-04-12T08:29:22.52Z</time></trkpt><trkpt lat="38.6250335" lon="16.2432004"><ele>255.0</ele><time>2026-04-12T08:29:23.516Z</time></trkpt><trkpt lat="38.624986" lon="16.2432957"><ele>256.4</ele><time>2026-04-12T08:29:24.525Z</time></trkpt><trkpt lat="38.624936" lon="16.2433943"><ele>257.8</ele><time>2026-04-12T08:29:25.524Z</time></trkpt><trkpt lat="38.6248801" lon="16.2434988"><ele>259.2</ele><time>2026-04-12T08:29:26.531Z</time></trkpt><trkpt lat="38.6248163" lon="16.2436106"><ele>260.6</ele><time>2026-04-12T08:29:27.531Z</time></trkpt><trkpt lat="38.6247364" lon="16.2437122"><ele>262.0</ele><time>2026-04-12T08:29:28.533Z</time></trkpt><trkpt lat="38.62464" lon="16.2437908"><ele>262.0</ele><time>2026-04-12T08:29:29.519Z</time></trkpt><trkpt lat="38.6244195" lon="16.2438838"><ele>262.0</ele><time>2026-04-12T08:29:31.52Z</time></trkpt><trkpt lat="38.624299" lon="16.2439254"><ele>262.0</ele><time>2026-04-12T08:29:32.521Z</time></trkpt><trkpt lat="38.6242038" lon="16.2439796"><ele>262.8</ele><time>2026-04-12T08:29:33.537Z</time></trkpt><trkpt lat="38.6241374" lon="16.2440793"><ele>263.6</ele><time>2026-04-12T08:29:34.532Z</time></trkpt><trkpt lat="38.6241118" lon="16.244201"><ele>264.40000000000003</ele><time>2026-04-12T08:29:35.516Z</time></trkpt><trkpt lat="38.6241125" lon="16.2443293"><ele>265.2</ele><time>2026-04-12T08:29:36.528Z</time></trkpt><trkpt lat="38.6241407" lon="16.2444795"><ele>266.0</ele><time>2026-04-12T08:29:37.522Z</time></trkpt><trkpt lat="38.6241743" lon="16.2446436"><ele>266.75</ele><time>2026-04-12T08:29:38.511Z</time></trkpt><trkpt lat="38.6242132" lon="16.2448113"><ele>267.5</ele><time>2026-04-12T08:29:39.52Z</time></trkpt><trkpt lat="38.6242428" lon="16.2449841"><ele>268.25</ele><time>2026-04-12T08:29:40.523Z</time></trkpt><trkpt lat="38.6242737" lon="16.2451452"><ele>269.0</ele><time>2026-04-12T08:29:41.512Z</time></trkpt><trkpt lat="38.6242974" lon="16.2453016"><ele>269.0</ele><time>2026-04-12T08:29:42.524Z</time></trkpt><trkpt lat="38.6242887" lon="16.245462"><ele>269.0</ele><time>2026-04-12T08:29:43.523Z</time></trkpt><trkpt lat="38.6242538" lon="16.24562"><ele>269.0</ele><time>2026-04-12T08:29:44.514Z</time></trkpt><trkpt lat="38.6242106" lon="16.2457813"><ele>269.0</ele><time>2026-04-12T08:29:45.522Z</time></trkpt><trkpt lat="38.6241632" lon="16.2459384"><ele>270.25</ele><time>2026-04-12T08:29:46.526Z</time></trkpt><trkpt lat="38.6241003" lon="16.2460821"><ele>271.5</ele><time>2026-04-12T08:29:47.515Z</time></trkpt><trkpt lat="38.6240235" lon="16.2461965"><ele>272.75</ele><time>2026-04-12T08:29:48.523Z</time></trkpt><trkpt lat="38.6239365" lon="16.2462862"><ele>274.0</ele><time>2026-04-12T08:29:49.534Z</time></trkpt><trkpt lat="38.6238517" lon="16.2463684"><ele>274.25</ele><time>2026-04-12T08:29:50.515Z</time></trkpt><trkpt lat="38.62372" lon="16.2465943"><ele>274.5</ele><time>2026-04-12T08:29:52.526Z</time></trkpt><trkpt lat="38.6236725" lon="16.2467273"><ele>274.75</ele><time>2026-04-12T08:29:53.516Z</time></trkpt><trkpt lat="38.6236277" lon="16.2468562"><ele>275.0</ele><time>2026-04-12T08:29:54.537Z</time></trkpt><trkpt lat="38.6235875" lon="16.2469848"><ele>275.0</ele><time>2026-04-12T08:29:55.52Z</time></trkpt><trkpt lat="38.6235665" lon="16.2471147"><ele>275.0</ele><time>2026-04-12T08:29:56.515Z</time></trkpt><trkpt lat="38.6235711" lon="16.2472401"><ele>275.0</ele><time>2026-04-12T08:29:57.529Z</time></trkpt><trkpt lat="38.6236022" lon="16.2473588"><ele>275.0</ele><time>2026-04-12T08:29:58.53Z</time></trkpt><trkpt lat="38.6236491" lon="16.2474765"><ele>275.0</ele><time>2026-04-12T08:29:59.519Z</time></trkpt><trkpt lat="38.6237057" lon="16.2475871"><ele>278.4</ele><time>2026-04-12T08:30:00.522Z</time></trkpt><trkpt lat="38.6237651" lon="16.2476935"><ele>281.8</ele><time>2026-04-12T08:30:01.52Z</time></trkpt><trkpt lat="38.6238168" lon="16.2478055"><ele>285.2</ele><time>2026-04-12T08:30:02.515Z</time></trkpt><trkpt lat="38.6238399" lon="16.2479263"><ele>288.6</ele><time>2026-04-12T08:30:03.523Z</time></trkpt><trkpt lat="38.6238341" lon="16.248054"><ele>292.0</ele><time>2026-04-12T08:30:04.52Z</time></trkpt><trkpt lat="38.6238042" lon="16.2481756"><ele>294.5</ele><time>2026-04-12T08:30:05.512Z</time></trkpt><trkpt lat="38.6237657" lon="16.2483041"><ele>297.0</ele><time>2026-04-12T08:30:06.525Z</time></trkpt><trkpt lat="38.6236868" lon="16.248425"><ele>299.5</ele><time>2026-04-12T08:30:07.523Z</time></trkpt><trkpt lat="38.6236057" lon="16.2485375"><ele>302.0</ele><time>2026-04-12T08:30:08.522Z</time></trkpt><trkpt lat="38.6235369" lon="16.2486472"><ele>298.5</ele><time>2026-04-12T08:30:09.54Z</time></trkpt><trkpt lat="38.6234699" lon="16.2487583"><ele>295.0</ele><time>2026-04-12T08:30:10.531Z</time></trkpt><trkpt lat="38.6234023" lon="16.2488615"><ele>291.5</ele><time>2026-04-12T08:30:11.517Z</time></trkpt><trkpt lat="38.6232753" lon="16.2490569"><ele>288.0</ele><time>2026-04-12T08:30:13.528Z</time></trkpt><trkpt lat="38.6232168" lon="16.2491562"><ele>288.0</ele><time>2026-04-12T08:30:14.527Z</time></trkpt><trkpt lat="38.6231606" lon="16.2492572"><ele>288.0</ele><time>2026-04-12T08:30:15.531Z</time></trkpt><trkpt lat="38.6231087" lon="16.2493561"><ele>288.0</ele><time>2026-04-12T08:30:16.521Z</time></trkpt><trkpt lat="38.6230655" lon="16.2494454"><ele>288.0</ele><time>2026-04-12T08:30:17.517Z</time></trkpt><trkpt lat="38.6230314" lon="16.2495233"><ele>288.0</ele><time>2026-04-12T08:30:18.522Z</time></trkpt><trkpt lat="38.6229821" lon="16.2496587"><ele>288.0</ele><time>2026-04-12T08:30:20.514Z</time></trkpt><trkpt lat="38.6229453" lon="16.2497734"><ele>288.0</ele><time>2026-04-12T08:30:22.516Z</time></trkpt><trkpt lat="38.6229082" lon="16.2498619"><ele>288.0</ele><time>2026-04-12T08:30:24.535Z</time></trkpt><trkpt lat="38.6228542" lon="16.2499296"><ele>288.0</ele><time>2026-04-12T08:30:26.53Z</time></trkpt><trkpt lat="38.6227626" lon="16.2499759"><ele>288.0</ele><time>2026-04-12T08:30:28.538Z</time></trkpt><trkpt lat="38.6226384" lon="16.249951"><ele>288.0</ele><time>2026-04-12T08:30:30.531Z</time></trkpt><trkpt lat="38.6225706" lon="16.2499143"><ele>288.0</ele><time>2026-04-12T08:30:31.516Z</time></trkpt><trkpt lat="38.6225004" lon="16.2498671"><ele>288.0</ele><time>2026-04-12T08:30:32.514Z</time></trkpt><trkpt lat="38.6223746" lon="16.2497425"><ele>288.0</ele><time>2026-04-12T08:30:34.535Z</time></trkpt><trkpt lat="38.6223246" lon="16.2496872"><ele>288.0</ele><time>2026-04-12T08:30:35.524Z</time></trkpt><trkpt lat="38.6222661" lon="16.2496132"><ele>288.0</ele><time>2026-04-12T08:30:37.528Z</time></trkpt><trkpt lat="38.6222158" lon="16.2495197"><ele>288.0</ele><time>2026-04-12T08:30:59.533Z</time></trkpt><trkpt lat="38.622074" lon="16.2493522"><ele>288.0</ele><time>2026-04-12T08:31:03.516Z</time></trkpt><trkpt lat="38.6220247" lon="16.2492877"><ele>288.0</ele><time>2026-04-12T08:31:04.52Z</time></trkpt><trkpt lat="38.6219743" lon="16.2492222"><ele>288.0</ele><time>2026-04-12T08:31:05.521Z</time></trkpt><trkpt lat="38.6219263" lon="16.2491633"><ele>289.8333333333333</ele><time>2026-04-12T08:31:06.525Z</time></trkpt><trkpt lat="38.6218724" lon="16.2491132"><ele>291.6666666666667</ele><time>2026-04-12T08:31:07.521Z</time></trkpt><trkpt lat="38.6218095" lon="16.2490733"><ele>293.5</ele><time>2026-04-12T08:31:08.523Z</time></trkpt><trkpt lat="38.6217357" lon="16.249045"><ele>295.33333333333337</ele><time>2026-04-12T08:31:09.524Z</time></trkpt><trkpt lat="38.6216604" lon="16.2490272"><ele>297.1666666666667</ele><time>2026-04-12T08:31:10.523Z</time></trkpt><trkpt lat="38.621574" lon="16.2490278"><ele>299.0</ele><time>2026-04-12T08:31:11.519Z</time></trkpt><trkpt lat="38.6214913" lon="16.2490305"><ele>299.0</ele><time>2026-04-12T08:31:12.523Z</time></trkpt><trkpt lat="38.6214235" lon="16.2490266"><ele>299.0</ele><time>2026-04-12T08:31:13.532Z</time></trkpt><trkpt lat="38.6213336" lon="16.2489761"><ele>299.0</ele><time>2026-04-12T08:31:15.517Z</time></trkpt><trkpt lat="38.6213059" lon="16.2488906"><ele>299.0</ele><time>2026-04-12T08:31:17.532Z</time></trkpt><trkpt lat="38.6213093" lon="16.24875"><ele>299.0</ele><time>2026-04-12T08:31:19.524Z</time></trkpt><trkpt lat="38.6213068" lon="16.2486562"><ele>299.0</ele><time>2026-04-12T08:31:20.515Z</time></trkpt><trkpt lat="38.6213032" lon="16.2484447"><ele>298.0</ele><time>2026-04-12T08:31:22.521Z</time></trkpt><trkpt lat="38.6213017" lon="16.2483391"><ele>297.0</ele><time>2026-04-12T08:31:23.527Z</time></trkpt><trkpt lat="38.6213012" lon="16.2482448"><ele>296.0</ele><time>2026-04-12T08:31:24.519Z</time></trkpt><trkpt lat="38.6212988" lon="16.248086"><ele>295.0</ele><time>2026-04-12T08:31:26.525Z</time></trkpt><trkpt lat="38.6212468" lon="16.2479427"><ele>294.0</ele><time>2026-04-12T08:31:28.519Z</time></trkpt><trkpt lat="38.6212054" lon="16.2478791"><ele>294.0</ele><time>2026-04-12T08:31:29.525Z</time></trkpt><trkpt lat="38.6211596" lon="16.2478075"><ele>294.0</ele><time>2026-04-12T08:31:30.53Z</time></trkpt><trkpt lat="38.6211108" lon="16.2477304"><ele>294.0</ele><time>2026-04-12T08:31:31.539Z</time></trkpt><trkpt lat="38.6210595" lon="16.2476469"><ele>294.0</ele><time>2026-04-12T08:31:32.53Z</time></trkpt><trkpt lat="38.6210022" lon="16.2475557"><ele>294.0</ele><time>2026-04-12T08:31:33.52Z</time></trkpt><trkpt lat="38.620941" lon="16.247464"><ele>294.0</ele><time>2026-04-12T08:31:34.519Z</time></trkpt><trkpt lat="38.6208776" lon="16.2473668"><ele>297.0</ele><time>2026-04-12T08:31:35.529Z</time></trkpt><trkpt lat="38.6208146" lon="16.2472704"><ele>300.0</ele><time>2026-04-12T08:31:36.518Z</time></trkpt><trkpt lat="38.6207433" lon="16.2471936"><ele>303.0</ele><time>2026-04-12T08:31:37.519Z</time></trkpt><trkpt lat="38.620656" lon="16.2471439"><ele>306.0</ele><time>2026-04-12T08:31:38.517Z</time></trkpt><trkpt lat="38.6205559" lon="16.2471274"><ele>309.0</ele><time>2026-04-12T08:31:39.533Z</time></trkpt><trkpt lat="38.6204414" lon="16.2471209"><ele>309.0</ele><time>2026-04-12T08:31:40.519Z</time></trkpt><trkpt lat="38.6203165" lon="16.247109"><ele>309.0</ele><time>2026-04-12T08:31:41.523Z</time></trkpt><trkpt lat="38.6200945" lon="16.2470695"><ele>309.0</ele><time>2026-04-12T08:31:43.519Z</time></trkpt><trkpt lat="38.620005" lon="16.2470275"><ele>309.0</ele><time>2026-04-12T08:31:44.531Z</time></trkpt><trkpt lat="38.6199276" lon="16.246962"><ele>310.0</ele><time>2026-04-12T08:31:45.529Z</time></trkpt><trkpt lat="38.6198468" lon="16.2468932"><ele>311.0</ele><time>2026-04-12T08:31:46.523Z</time></trkpt><trkpt lat="38.6197677" lon="16.2467943"><ele>312.0</ele><time>2026-04-12T08:31:47.525Z</time></trkpt><trkpt lat="38.6196937" lon="16.2467013"><ele>313.0</ele><time>2026-04-12T08:31:48.518Z</time></trkpt><trkpt lat="38.6196234" lon="16.2466106"><ele>314.0</ele><time>2026-04-12T08:31:49.53Z</time></trkpt><trkpt lat="38.6195915" lon="16.2465006"><ele>314.0</ele><time>2026-04-12T08:31:50.526Z</time></trkpt><trkpt lat="38.6195619" lon="16.2463905"><ele>314.0</ele><time>2026-04-12T08:31:51.525Z</time></trkpt><trkpt lat="38.6195623" lon="16.2462585"><ele>314.0</ele><time>2026-04-12T08:31:52.525Z</time></trkpt><trkpt lat="38.6195534" lon="16.2461199"><ele>314.0</ele><time>2026-04-12T08:31:53.518Z</time></trkpt><trkpt lat="38.6195344" lon="16.2459698"><ele>314.0</ele><time>2026-04-12T08:31:54.516Z</time></trkpt><trkpt lat="38.6195104" lon="16.245808"><ele>314.0</ele><time>2026-04-12T08:31:55.523Z</time></trkpt><trkpt lat="38.6194844" lon="16.2456355"><ele>314.0</ele><time>2026-04-12T08:31:56.525Z</time></trkpt><trkpt lat="38.6194543" lon="16.2454627"><ele>314.0</ele><time>2026-04-12T08:31:57.529Z</time></trkpt><trkpt lat="38.619427" lon="16.2452992"><ele>314.0</ele><time>2026-04-12T08:31:58.532Z</time></trkpt><trkpt lat="38.6194016" lon="16.2451483"><ele>313.8</ele><time>2026-04-12T08:31:59.517Z</time></trkpt><trkpt lat="38.6193858" lon="16.2450171"><ele>313.59999999999997</ele><time>2026-04-12T08:32:00.528Z</time></trkpt><trkpt lat="38.6193873" lon="16.244897"><ele>313.4</ele><time>2026-04-12T08:32:01.532Z</time></trkpt><trkpt lat="38.6193908" lon="16.2448006"><ele>313.2</ele><time>2026-04-12T08:32:02.514Z</time></trkpt><trkpt lat="38.6193088" lon="16.2446666"><ele>313.0</ele><time>2026-04-12T08:32:06.519Z</time></trkpt><trkpt lat="38.6192788" lon="16.2447663"><ele>316.4</ele><time>2026-04-12T08:32:08.523Z</time></trkpt><trkpt lat="38.619284" lon="16.2448691"><ele>319.8</ele><time>2026-04-12T08:32:09.523Z</time></trkpt><trkpt lat="38.619295" lon="16.2450026"><ele>323.2</ele><time>2026-04-12T08:32:10.528Z</time></trkpt><trkpt lat="38.6193016" lon="16.2451565"><ele>326.6</ele><time>2026-04-12T08:32:11.524Z</time></trkpt><trkpt lat="38.6192982" lon="16.2453231"><ele>330.0</ele><time>2026-04-12T08:32:12.527Z</time></trkpt><trkpt lat="38.6192834" lon="16.2454914"><ele>333.0</ele><time>2026-04-12T08:32:13.511Z</time></trkpt><trkpt lat="38.6192667" lon="16.2456631"><ele>336.0</ele><time>2026-04-12T08:32:14.523Z</time></trkpt><trkpt lat="38.6192626" lon="16.2458304"><ele>339.0</ele><time>2026-04-12T08:32:15.519Z</time></trkpt><trkpt lat="38.6192795" lon="16.2459786"><ele>342.0</ele><time>2026-04-12T08:32:16.527Z</time></trkpt><trkpt lat="38.6192993" lon="16.2461044"><ele>342.0</ele><time>2026-04-12T08:32:17.534Z</time></trkpt><trkpt lat="38.6192975" lon="16.2462116"><ele>342.0</ele><time>2026-04-12T08:32:18.529Z</time></trkpt><trkpt lat="38.6192664" lon="16.2462982"><ele>342.0</ele><time>2026-04-12T08:32:19.519Z</time></trkpt><trkpt lat="38.61921" lon="16.2463627"><ele>342.0</ele><time>2026-04-12T08:32:20.524Z</time></trkpt><trkpt lat="38.6191339" lon="16.2464084"><ele>342.0</ele><time>2026-04-12T08:32:21.535Z</time></trkpt><trkpt lat="38.6190553" lon="16.246455"><ele>342.0</ele><time>2026-04-12T08:32:22.532Z</time></trkpt><trkpt lat="38.6189708" lon="16.2465328"><ele>342.3333333333333</ele><time>2026-04-12T08:32:23.519Z</time></trkpt><trkpt lat="38.6188521" lon="16.2467706"><ele>342.66666666666663</ele><time>2026-04-12T08:32:25.533Z</time></trkpt><trkpt lat="38.6188078" lon="16.2469114"><ele>343.0</ele><time>2026-04-12T08:32:26.519Z</time></trkpt><trkpt lat="38.6187658" lon="16.2470486"><ele>343.0</ele><time>2026-04-12T08:32:27.528Z</time></trkpt><trkpt lat="38.6187262" lon="16.2471698"><ele>343.0</ele><time>2026-04-12T08:32:28.523Z</time></trkpt><trkpt lat="38.6186846" lon="16.247289"><ele>343.0</ele><time>2026-04-12T08:32:29.516Z</time></trkpt><trkpt lat="38.6186478" lon="16.24741"><ele>343.0</ele><time>2026-04-12T08:32:30.524Z</time></trkpt><trkpt lat="38.6186293" lon="16.247519"><ele>343.0</ele><time>2026-04-12T08:32:31.524Z</time></trkpt><trkpt lat="38.6186202" lon="16.2476208"><ele>347.79999999999995</ele><time>2026-04-12T08:32:32.525Z</time></trkpt><trkpt lat="38.6186142" lon="16.247706"><ele>352.6</ele><time>2026-04-12T08:32:33.528Z</time></trkpt><trkpt lat="38.6186007" lon="16.2478331"><ele>357.4</ele><time>2026-04-12T08:32:35.517Z</time></trkpt><trkpt lat="38.6185382" lon="16.2478969"><ele>362.20000000000005</ele><time>2026-04-12T08:32:37.524Z</time></trkpt><trkpt lat="38.6184572" lon="16.2478103"><ele>367.0</ele><time>2026-04-12T08:32:40.524Z</time></trkpt><trkpt lat="38.6184535" lon="16.2476305"><ele>367.0</ele><time>2026-04-12T08:32:42.518Z</time></trkpt><trkpt lat="38.6184647" lon="16.2475005"><ele>367.0</ele><time>2026-04-12T08:32:43.525Z</time></trkpt><trkpt lat="38.6185138" lon="16.2472925"><ele>367.0</ele><time>2026-04-12T08:32:44.526Z</time></trkpt><trkpt lat="38.6186221" lon="16.2469732"><ele>366.0</ele><time>2026-04-12T08:32:46.517Z</time></trkpt><trkpt lat="38.6186217" lon="16.2468595"><ele>365.0</ele><time>2026-04-12T08:32:47.531Z</time></trkpt><trkpt lat="38.6185913" lon="16.2467755"><ele>364.0</ele><time>2026-04-12T08:32:48.519Z</time></trkpt><trkpt lat="38.6185322" lon="16.246732"><ele>363.0</ele><time>2026-04-12T08:32:49.53Z</time></trkpt><trkpt lat="38.6184663" lon="16.246695"><ele>362.0</ele><time>2026-04-12T08:32:50.515Z</time></trkpt><trkpt lat="38.6183755" lon="16.2467252"><ele>361.0</ele><time>2026-04-12T08:32:51.523Z</time></trkpt><trkpt lat="38.6182771" lon="16.2467746"><ele>361.0</ele><time>2026-04-12T08:32:52.536Z</time></trkpt><trkpt lat="38.6181734" lon="16.2468369"><ele>361.0</ele><time>2026-04-12T08:32:53.522Z</time></trkpt><trkpt lat="38.6180706" lon="16.2469007"><ele>361.0</ele><time>2026-04-12T08:32:54.528Z</time></trkpt><trkpt lat="38.6179718" lon="16.2469507"><ele>361.0</ele><time>2026-04-12T08:32:55.524Z</time></trkpt><trkpt lat="38.6178776" lon="16.2469656"><ele>361.0</ele><time>2026-04-12T08:32:56.528Z</time></trkpt><trkpt lat="38.6177812" lon="16.2469588"><ele>364.20000000000005</ele><time>2026-04-12T08:32:57.518Z</time></trkpt><trkpt lat="38.6176828" lon="16.2469357"><ele>367.40000000000003</ele><time>2026-04-12T08:32:58.525Z</time></trkpt><trkpt lat="38.6175879" lon="16.2468961"><ele>370.6</ele><time>2026-04-12T08:32:59.519Z</time></trkpt><trkpt lat="38.6175039" lon="16.2468568"><ele>373.8</ele><time>2026-04-12T08:33:00.522Z</time></trkpt><trkpt lat="38.617445" lon="16.2467745"><ele>377.0</ele><time>2026-04-12T08:33:01.526Z</time></trkpt><trkpt lat="38.617408" lon="16.2466812"><ele>377.0</ele><time>2026-04-12T08:33:02.531Z</time></trkpt><trkpt lat="38.6173875" lon="16.2465723"><ele>377.0</ele><time>2026-04-12T08:33:03.528Z</time></trkpt><trkpt lat="38.6173843" lon="16.2464544"><ele>377.0</ele><time>2026-04-12T08:33:04.519Z</time></trkpt><trkpt lat="38.6173898" lon="16.2463307"><ele>377.0</ele><time>2026-04-12T08:33:05.529Z</time></trkpt><trkpt lat="38.6173804" lon="16.2461129"><ele>377.0</ele><time>2026-04-12T08:33:07.513Z</time></trkpt><trkpt lat="38.6173506" lon="16.2460328"><ele>377.5</ele><time>2026-04-12T08:33:08.535Z</time></trkpt><trkpt lat="38.6173008" lon="16.2459825"><ele>378.0</ele><time>2026-04-12T08:33:09.521Z</time></trkpt><trkpt lat="38.6172381" lon="16.245969"><ele>378.5</ele><time>2026-04-12T08:33:10.533Z</time></trkpt><trkpt lat="38.6171715" lon="16.2459853"><ele>379.0</ele><time>2026-04-12T08:33:11.527Z</time></trkpt><trkpt lat="38.617096" lon="16.2460171"><ele>379.5</ele><time>2026-04-12T08:33:12.515Z</time></trkpt><trkpt lat="38.6170073" lon="16.2460593"><ele>380.0</ele><time>2026-04-12T08:33:13.531Z</time></trkpt><trkpt lat="38.6169078" lon="16.2460938"><ele>380.0</ele><time>2026-04-12T08:33:14.532Z</time></trkpt><trkpt lat="38.6168079" lon="16.2461032"><ele>380.0</ele><time>2026-04-12T08:33:15.527Z</time></trkpt><trkpt lat="38.6167146" lon="16.24609"><ele>380.0</ele><time>2026-04-12T08:33:16.526Z</time></trkpt><trkpt lat="38.616625" lon="16.2460587"><ele>380.0</ele><time>2026-04-12T08:33:17.519Z</time></trkpt><trkpt lat="38.6165392" lon="16.24601"><ele>380.0</ele><time>2026-04-12T08:33:18.52Z</time></trkpt><trkpt lat="38.6164565" lon="16.2459437"><ele>380.0</ele><time>2026-04-12T08:33:19.525Z</time></trkpt><trkpt lat="38.6163784" lon="16.2458748"><ele>380.0</ele><time>2026-04-12T08:33:20.535Z</time></trkpt><trkpt lat="38.6163019" lon="16.2458324"><ele>380.0</ele><time>2026-04-12T08:33:21.53Z</time></trkpt><trkpt lat="38.6162268" lon="16.245826"><ele>380.0</ele><time>2026-04-12T08:33:22.526Z</time></trkpt><trkpt lat="38.6161511" lon="16.2458538"><ele>380.0</ele><time>2026-04-12T08:33:23.526Z</time></trkpt><trkpt lat="38.6160755" lon="16.2459099"><ele>380.0</ele><time>2026-04-12T08:33:24.516Z</time></trkpt><trkpt lat="38.6159982" lon="16.2459853"><ele>381.6</ele><time>2026-04-12T08:33:25.522Z</time></trkpt><trkpt lat="38.6159168" lon="16.2460637"><ele>383.2</ele><time>2026-04-12T08:33:26.52Z</time></trkpt><trkpt lat="38.6157579" lon="16.2461267"><ele>384.79999999999995</ele><time>2026-04-12T08:33:28.518Z</time></trkpt><trkpt lat="38.6156806" lon="16.2461353"><ele>386.4</ele><time>2026-04-12T08:33:29.515Z</time></trkpt><trkpt lat="38.6156004" lon="16.2460925"><ele>388.0</ele><time>2026-04-12T08:33:30.521Z</time></trkpt><trkpt lat="38.615507" lon="16.246034"><ele>388.0</ele><time>2026-04-12T08:33:31.526Z</time></trkpt><trkpt lat="38.6154083" lon="16.2459655"><ele>388.0</ele><time>2026-04-12T08:33:32.523Z</time></trkpt><trkpt lat="38.6153119" lon="16.2458854"><ele>388.0</ele><time>2026-04-12T08:33:33.525Z</time></trkpt><trkpt lat="38.6152113" lon="16.2458001"><ele>388.0</ele><time>2026-04-12T08:33:34.532Z</time></trkpt><trkpt lat="38.6151086" lon="16.2457225"><ele>388.79999999999995</ele><time>2026-04-12T08:33:35.521Z</time></trkpt><trkpt lat="38.6150032" lon="16.2456668"><ele>389.6</ele><time>2026-04-12T08:33:36.526Z</time></trkpt><trkpt lat="38.6148912" lon="16.2456325"><ele>390.4</ele><time>2026-04-12T08:33:37.528Z</time></trkpt><trkpt lat="38.6147823" lon="16.2456023"><ele>391.20000000000005</ele><time>2026-04-12T08:33:38.522Z</time></trkpt><trkpt lat="38.6146942" lon="16.2455504"><ele>392.0</ele><time>2026-04-12T08:33:39.523Z</time></trkpt><trkpt lat="38.6146244" lon="16.2454738"><ele>392.0</ele><time>2026-04-12T08:33:40.524Z</time></trkpt><trkpt lat="38.6145645" lon="16.2453714"><ele>392.0</ele><time>2026-04-12T08:33:41.513Z</time></trkpt><trkpt lat="38.6145092" lon="16.2452492"><ele>392.0</ele><time>2026-04-12T08:33:42.521Z</time></trkpt><trkpt lat="38.6144464" lon="16.2451191"><ele>392.0</ele><time>2026-04-12T08:33:43.528Z</time></trkpt><trkpt lat="38.6143729" lon="16.2449837"><ele>397.5</ele><time>2026-04-12T08:33:44.521Z</time></trkpt><trkpt lat="38.61429" lon="16.2448461"><ele>403.0</ele><time>2026-04-12T08:33:45.52Z</time></trkpt><trkpt lat="38.6142078" lon="16.2447093"><ele>408.5</ele><time>2026-04-12T08:33:46.52Z</time></trkpt><trkpt lat="38.6141376" lon="16.2445714"><ele>414.0</ele><time>2026-04-12T08:33:47.524Z</time></trkpt><trkpt lat="38.6140763" lon="16.2442752"><ele>414.0</ele><time>2026-04-12T08:33:49.526Z</time></trkpt><trkpt lat="38.6140548" lon="16.2441205"><ele>414.0</ele><time>2026-04-12T08:33:50.512Z</time></trkpt><trkpt lat="38.6140338" lon="16.2439533"><ele>414.0</ele><time>2026-04-12T08:33:51.517Z</time></trkpt><trkpt lat="38.61401" lon="16.2437889"><ele>414.0</ele><time>2026-04-12T08:33:52.523Z</time></trkpt><trkpt lat="38.613972" lon="16.243628"><ele>415.2</ele><time>2026-04-12T08:33:53.52Z</time></trkpt><trkpt lat="38.6139326" lon="16.2434874"><ele>416.4</ele><time>2026-04-12T08:33:54.519Z</time></trkpt><trkpt lat="38.613889" lon="16.2433792"><ele>417.6</ele><time>2026-04-12T08:33:55.524Z</time></trkpt><trkpt lat="38.6138252" lon="16.2432873"><ele>418.8</ele><time>2026-04-12T08:33:56.519Z</time></trkpt><trkpt lat="38.6137414" lon="16.2432119"><ele>420.0</ele><time>2026-04-12T08:33:57.517Z</time></trkpt><trkpt lat="38.6136546" lon="16.2431289"><ele>420.0</ele><time>2026-04-12T08:33:58.533Z</time></trkpt><trkpt lat="38.6135626" lon="16.2430311"><ele>420.0</ele><time>2026-04-12T08:33:59.53Z</time></trkpt><trkpt lat="38.6134629" lon="16.2429202"><ele>420.0</ele><time>2026-04-12T08:34:00.526Z</time></trkpt><trkpt lat="38.6133602" lon="16.2428029"><ele>420.0</ele><time>2026-04-12T08:34:01.522Z</time></trkpt><trkpt lat="38.613264" lon="16.2426815"><ele>420.0</ele><time>2026-04-12T08:34:02.523Z</time></trkpt><trkpt lat="38.6131828" lon="16.2425592"><ele>420.0</ele><time>2026-04-12T08:34:03.516Z</time></trkpt><trkpt lat="38.6131187" lon="16.2424279"><ele>420.0</ele><time>2026-04-12T08:34:04.526Z</time></trkpt><trkpt lat="38.6130804" lon="16.2422892"><ele>420.0</ele><time>2026-04-12T08:34:05.531Z</time></trkpt><trkpt lat="38.6130434" lon="16.2421616"><ele>421.0</ele><time>2026-04-12T08:34:06.527Z</time></trkpt><trkpt lat="38.6129925" lon="16.2420707"><ele>422.0</ele><time>2026-04-12T08:34:07.524Z</time></trkpt><trkpt lat="38.6129175" lon="16.2420078"><ele>423.0</ele><time>2026-04-12T08:34:08.524Z</time></trkpt><trkpt lat="38.612721" lon="16.2419756"><ele>424.0</ele><time>2026-04-12T08:34:10.53Z</time></trkpt><trkpt lat="38.612612" lon="16.2419494"><ele>424.0</ele><time>2026-04-12T08:34:11.525Z</time></trkpt><trkpt lat="38.6125173" lon="16.2418829"><ele>424.0</ele><time>2026-04-12T08:34:12.518Z</time></trkpt><trkpt lat="38.6124455" lon="16.241782"><ele>424.0</ele><time>2026-04-12T08:34:13.52Z</time></trkpt><trkpt lat="38.6123949" lon="16.2416561"><ele>424.0</ele><time>2026-04-12T08:34:14.525Z</time></trkpt><trkpt lat="38.6123454" lon="16.2415288"><ele>424.0</ele><time>2026-04-12T08:34:15.514Z</time></trkpt><trkpt lat="38.61232" lon="16.2413917"><ele>421.8571428571429</ele><time>2026-04-12T08:34:16.524Z</time></trkpt><trkpt lat="38.6122971" lon="16.2412789"><ele>419.71428571428567</ele><time>2026-04-12T08:34:17.521Z</time></trkpt><trkpt lat="38.6122693" lon="16.2411977"><ele>417.57142857142856</ele><time>2026-04-12T08:34:18.53Z</time></trkpt><trkpt lat="38.6122231" lon="16.2411425"><ele>415.42857142857144</ele><time>2026-04-12T08:34:19.517Z</time></trkpt><trkpt lat="38.6121635" lon="16.2411124"><ele>413.28571428571433</ele><time>2026-04-12T08:34:20.519Z</time></trkpt><trkpt lat="38.6120915" lon="16.2411092"><ele>411.1428571428571</ele><time>2026-04-12T08:34:21.524Z</time></trkpt><trkpt lat="38.6120118" lon="16.2411239"><ele>409.0</ele><time>2026-04-12T08:34:22.522Z</time></trkpt><trkpt lat="38.6119327" lon="16.241139"><ele>409.00000000000006</ele><time>2026-04-12T08:34:23.517Z</time></trkpt><trkpt lat="38.6118485" lon="16.241145"><ele>409.0</ele><time>2026-04-12T08:34:24.523Z</time></trkpt><trkpt lat="38.6117633" lon="16.2411248"><ele>409.0</ele><time>2026-04-12T08:34:25.519Z</time></trkpt><trkpt lat="38.6116885" lon="16.2410765"><ele>409.0</ele><time>2026-04-12T08:34:26.529Z</time></trkpt><trkpt lat="38.6116188" lon="16.2410079"><ele>409.00000000000006</ele><time>2026-04-12T08:34:27.523Z</time></trkpt><trkpt lat="38.6115451" lon="16.2409292"><ele>409.0</ele><time>2026-04-12T08:34:28.523Z</time></trkpt><trkpt lat="38.6114682" lon="16.2408422"><ele>409.0</ele><time>2026-04-12T08:34:29.523Z</time></trkpt><trkpt lat="38.6113367" lon="16.2406469"><ele>409.0</ele><time>2026-04-12T08:34:31.529Z</time></trkpt><trkpt lat="38.6112883" lon="16.2405405"><ele>409.0</ele><time>2026-04-12T08:34:32.528Z</time></trkpt><trkpt lat="38.6112414" lon="16.240436"><ele>409.0</ele><time>2026-04-12T08:34:33.529Z</time></trkpt><trkpt lat="38.6112184" lon="16.2403189"><ele>406.6666666666667</ele><time>2026-04-12T08:34:34.526Z</time></trkpt><trkpt lat="38.6111951" lon="16.2402055"><ele>404.33333333333337</ele><time>2026-04-12T08:34:35.525Z</time></trkpt><trkpt lat="38.6111543" lon="16.2400996"><ele>402.0</ele><time>2026-04-12T08:34:36.529Z</time></trkpt><trkpt lat="38.6110984" lon="16.2400049"><ele>399.66666666666663</ele><time>2026-04-12T08:34:37.515Z</time></trkpt><trkpt lat="38.6110359" lon="16.2399353"><ele>397.3333333333333</ele><time>2026-04-12T08:34:38.52Z</time></trkpt><trkpt lat="38.6109683" lon="16.2398875"><ele>395.0</ele><time>2026-04-12T08:34:39.513Z</time></trkpt><trkpt lat="38.6108949" lon="16.239863"><ele>395.0</ele><time>2026-04-12T08:34:40.517Z</time></trkpt><trkpt lat="38.6108253" lon="16.239873"><ele>395.0</ele><time>2026-04-12T08:34:41.528Z</time></trkpt><trkpt lat="38.6107569" lon="16.2398867"><ele>395.0</ele><time>2026-04-12T08:34:42.52Z</time></trkpt><trkpt lat="38.6106953" lon="16.2399345"><ele>395.0</ele><time>2026-04-12T08:34:43.52Z</time></trkpt><trkpt lat="38.6106346" lon="16.2399821"><ele>395.0</ele><time>2026-04-12T08:34:44.518Z</time></trkpt><trkpt lat="38.6105665" lon="16.2400248"><ele>395.0</ele><time>2026-04-12T08:34:45.521Z</time></trkpt><trkpt lat="38.6104954" lon="16.2400565"><ele>395.0</ele><time>2026-04-12T08:34:46.524Z</time></trkpt><trkpt lat="38.6104201" lon="16.2400796"><ele>395.0</ele><time>2026-04-12T08:34:47.524Z</time></trkpt><trkpt lat="38.6103584" lon="16.2401066"><ele>395.0</ele><time>2026-04-12T08:34:48.513Z</time></trkpt><trkpt lat="38.610281" lon="16.2402026"><ele>395.0</ele><time>2026-04-12T08:34:50.525Z</time></trkpt><trkpt lat="38.6102626" lon="16.2404774"><ele>395.0</ele><time>2026-04-12T08:34:53.519Z</time></trkpt><trkpt lat="38.6102572" lon="16.2405993"><ele>394.2</ele><time>2026-04-12T08:34:54.524Z</time></trkpt><trkpt lat="38.6102447" lon="16.2407226"><ele>393.4</ele><time>2026-04-12T08:34:55.522Z</time></trkpt><trkpt lat="38.6102312" lon="16.2408378"><ele>392.6</ele><time>2026-04-12T08:34:56.523Z</time></trkpt><trkpt lat="38.6102127" lon="16.240952"><ele>391.8</ele><time>2026-04-12T08:34:57.527Z</time></trkpt><trkpt lat="38.6101792" lon="16.2410631"><ele>391.0</ele><time>2026-04-12T08:34:58.531Z</time></trkpt><trkpt lat="38.6101359" lon="16.2411653"><ele>390.99999999999994</ele><time>2026-04-12T08:34:59.518Z</time></trkpt><trkpt lat="38.6100935" lon="16.241252"><ele>391.0</ele><time>2026-04-12T08:35:00.526Z</time></trkpt><trkpt lat="38.6100529" lon="16.2413294"><ele>391.0</ele><time>2026-04-12T08:35:01.529Z</time></trkpt><trkpt lat="38.6100113" lon="16.2414"><ele>391.0</ele><time>2026-04-12T08:35:02.517Z</time></trkpt><trkpt lat="38.6099646" lon="16.2414608"><ele>391.0</ele><time>2026-04-12T08:35:03.529Z</time></trkpt><trkpt lat="38.6099165" lon="16.241523"><ele>390.99999999999994</ele><time>2026-04-12T08:35:04.515Z</time></trkpt><trkpt lat="38.6098394" lon="16.2415479"><ele>391.0</ele><time>2026-04-12T08:35:05.512Z</time></trkpt><trkpt lat="38.6097491" lon="16.241555"><ele>392.8</ele><time>2026-04-12T08:35:06.521Z</time></trkpt><trkpt lat="38.6096518" lon="16.2415518"><ele>394.6</ele><time>2026-04-12T08:35:07.521Z</time></trkpt><trkpt lat="38.609551" lon="16.2415459"><ele>396.4</ele><time>2026-04-12T08:35:08.524Z</time></trkpt><trkpt lat="38.6094571" lon="16.2415347"><ele>398.2</ele><time>2026-04-12T08:35:09.522Z</time></trkpt><trkpt lat="38.6093735" lon="16.2415239"><ele>400.0</ele><time>2026-04-12T08:35:10.519Z</time></trkpt><trkpt lat="38.6092999" lon="16.2415119"><ele>397.4</ele><time>2026-04-12T08:35:11.523Z</time></trkpt><trkpt lat="38.6091612" lon="16.2413601"><ele>394.8</ele><time>2026-04-12T08:35:14.519Z</time></trkpt><trkpt lat="38.6091497" lon="16.2412767"><ele>392.20000000000005</ele><time>2026-04-12T08:35:15.535Z</time></trkpt><trkpt lat="38.6091287" lon="16.241127"><ele>389.6</ele><time>2026-04-12T08:35:17.518Z</time></trkpt><trkpt lat="38.6090997" lon="16.2410463"><ele>387.0</ele><time>2026-04-12T08:35:18.515Z</time></trkpt><trkpt lat="38.6090563" lon="16.2409654"><ele>387.0</ele><time>2026-04-12T08:35:19.521Z</time></trkpt><trkpt lat="38.6090026" lon="16.2408826"><ele>387.0</ele><time>2026-04-12T08:35:20.523Z</time></trkpt><trkpt lat="38.6089381" lon="16.2407988"><ele>387.0</ele><time>2026-04-12T08:35:21.525Z</time></trkpt><trkpt lat="38.6088727" lon="16.2407245"><ele>387.0</ele><time>2026-04-12T08:35:22.525Z</time></trkpt><trkpt lat="38.6088104" lon="16.2406621"><ele>387.0</ele><time>2026-04-12T08:35:23.521Z</time></trkpt><trkpt lat="38.6087448" lon="16.2406074"><ele>387.0</ele><time>2026-04-12T08:35:24.525Z</time></trkpt><trkpt lat="38.6086804" lon="16.240556"><ele>385.8333333333333</ele><time>2026-04-12T08:35:25.533Z</time></trkpt><trkpt lat="38.608609" lon="16.2405147"><ele>384.6666666666667</ele><time>2026-04-12T08:35:26.522Z</time></trkpt><trkpt lat="38.6085322" lon="16.2404802"><ele>383.5</ele><time>2026-04-12T08:35:27.524Z</time></trkpt><trkpt lat="38.6084553" lon="16.240454"><ele>382.33333333333337</ele><time>2026-04-12T08:35:28.524Z</time></trkpt><trkpt lat="38.6083706" lon="16.2404301"><ele>381.1666666666667</ele><time>2026-04-12T08:35:29.528Z</time></trkpt><trkpt lat="38.6082869" lon="16.2404077"><ele>380.0</ele><time>2026-04-12T08:35:30.524Z</time></trkpt><trkpt lat="38.6082027" lon="16.2403776"><ele>380.0</ele><time>2026-04-12T08:35:31.521Z</time></trkpt><trkpt lat="38.6081189" lon="16.2403463"><ele>380.0</ele><time>2026-04-12T08:35:32.526Z</time></trkpt><trkpt lat="38.6079715" lon="16.2402314"><ele>380.0</ele><time>2026-04-12T08:35:34.523Z</time></trkpt><trkpt lat="38.6079144" lon="16.2401641"><ele>380.0</ele><time>2026-04-12T08:35:35.523Z</time></trkpt><trkpt lat="38.6077903" lon="16.2401033"><ele>379.6666666666667</ele><time>2026-04-12T08:35:37.524Z</time></trkpt><trkpt lat="38.6077167" lon="16.2400961"><ele>379.33333333333337</ele><time>2026-04-12T08:35:38.518Z</time></trkpt><trkpt lat="38.6076313" lon="16.2400967"><ele>379.0</ele><time>2026-04-12T08:35:39.529Z</time></trkpt><trkpt lat="38.6075423" lon="16.2401047"><ele>378.6666666666667</ele><time>2026-04-12T08:35:40.522Z</time></trkpt><trkpt lat="38.6074587" lon="16.2401275"><ele>378.3333333333333</ele><time>2026-04-12T08:35:41.523Z</time></trkpt><trkpt lat="38.6073742" lon="16.2401541"><ele>378.0</ele><time>2026-04-12T08:35:42.527Z</time></trkpt><trkpt lat="38.6072899" lon="16.2401826"><ele>378.0</ele><time>2026-04-12T08:35:43.529Z</time></trkpt><trkpt lat="38.607207" lon="16.2402026"><ele>378.0</ele><time>2026-04-12T08:35:44.523Z</time></trkpt><trkpt lat="38.6071252" lon="16.2402113"><ele>378.0</ele><time>2026-04-12T08:35:45.519Z</time></trkpt><trkpt lat="38.6070425" lon="16.2402054"><ele>378.0</ele><time>2026-04-12T08:35:46.524Z</time></trkpt><trkpt lat="38.6069635" lon="16.2401851"><ele>378.0</ele><time>2026-04-12T08:35:47.532Z</time></trkpt><trkpt lat="38.6068855" lon="16.2401524"><ele>378.0</ele><time>2026-04-12T08:35:48.526Z</time></trkpt><trkpt lat="38.6068117" lon="16.2401109"><ele>376.79999999999995</ele><time>2026-04-12T08:35:49.521Z</time></trkpt><trkpt lat="38.606737" lon="16.2400705"><ele>375.6</ele><time>2026-04-12T08:35:50.533Z</time></trkpt><trkpt lat="38.6066617" lon="16.2400276"><ele>374.4</ele><time>2026-04-12T08:35:51.526Z</time></trkpt><trkpt lat="38.6065765" lon="16.2399919"><ele>373.20000000000005</ele><time>2026-04-12T08:35:52.524Z</time></trkpt><trkpt lat="38.6064883" lon="16.2399721"><ele>372.0</ele><time>2026-04-12T08:35:53.519Z</time></trkpt><trkpt lat="38.6062964" lon="16.2399322"><ele>372.0</ele><time>2026-04-12T08:35:55.525Z</time></trkpt><trkpt lat="38.6062042" lon="16.2399092"><ele>372.0</ele><time>2026-04-12T08:35:56.515Z</time></trkpt><trkpt lat="38.6061092" lon="16.2398844"><ele>372.0</ele><time>2026-04-12T08:35:57.516Z</time></trkpt><trkpt lat="38.6060123" lon="16.2398767"><ele>372.0</ele><time>2026-04-12T08:35:58.529Z</time></trkpt><trkpt lat="38.6059181" lon="16.2398836"><ele>372.0</ele><time>2026-04-12T08:35:59.526Z</time></trkpt><trkpt lat="38.6058284" lon="16.2399047"><ele>370.40000000000003</ele><time>2026-04-12T08:36:00.524Z</time></trkpt><trkpt lat="38.6057464" lon="16.2399364"><ele>368.8</ele><time>2026-04-12T08:36:01.518Z</time></trkpt><trkpt lat="38.6056643" lon="16.2399723"><ele>367.2</ele><time>2026-04-12T08:36:02.53Z</time></trkpt><trkpt lat="38.6055928" lon="16.2400458"><ele>365.6</ele><time>2026-04-12T08:36:03.525Z</time></trkpt><trkpt lat="38.6055331" lon="16.2401379"><ele>364.0</ele><time>2026-04-12T08:36:04.525Z</time></trkpt><trkpt lat="38.6054723" lon="16.2402355"><ele>364.0</ele><time>2026-04-12T08:36:05.518Z</time></trkpt><trkpt lat="38.6054031" lon="16.2403307"><ele>364.0</ele><time>2026-04-12T08:36:06.531Z</time></trkpt><trkpt lat="38.6053255" lon="16.2404077"><ele>364.0</ele><time>2026-04-12T08:36:07.523Z</time></trkpt><trkpt lat="38.605241" lon="16.2404606"><ele>364.0</ele><time>2026-04-12T08:36:08.523Z</time></trkpt><trkpt lat="38.6051501" lon="16.2404876"><ele>364.0</ele><time>2026-04-12T08:36:09.513Z</time></trkpt><trkpt lat="38.6050571" lon="16.2404899"><ele>363.75</ele><time>2026-04-12T08:36:10.517Z</time></trkpt><trkpt lat="38.604967" lon="16.2404777"><ele>363.5</ele><time>2026-04-12T08:36:11.528Z</time></trkpt><trkpt lat="38.6048946" lon="16.2404657"><ele>363.25</ele><time>2026-04-12T08:36:12.532Z</time></trkpt><trkpt lat="38.6047835" lon="16.240469"><ele>363.0</ele><time>2026-04-12T08:36:14.518Z</time></trkpt><trkpt lat="38.6047494" lon="16.2406941"><ele>363.0</ele><time>2026-04-12T08:36:18.532Z</time></trkpt><trkpt lat="38.6047731" lon="16.2407896"><ele>363.0</ele><time>2026-04-12T08:36:19.515Z</time></trkpt><trkpt lat="38.6047903" lon="16.2409043"><ele>363.0</ele><time>2026-04-12T08:36:20.52Z</time></trkpt><trkpt lat="38.6047907" lon="16.241015"><ele>363.0</ele><time>2026-04-12T08:36:21.527Z</time></trkpt><trkpt lat="38.604784" lon="16.2411153"><ele>363.0</ele><time>2026-04-12T08:36:22.519Z</time></trkpt><trkpt lat="38.6047773" lon="16.2412158"><ele>363.0</ele><time>2026-04-12T08:36:23.53Z</time></trkpt><trkpt lat="38.6047422" lon="16.2412981"><ele>362.99999999999994</ele><time>2026-04-12T08:36:24.531Z</time></trkpt><trkpt lat="38.6046933" lon="16.2413654"><ele>363.0</ele><time>2026-04-12T08:36:25.52Z</time></trkpt><trkpt lat="38.6046364" lon="16.2414099"><ele>363.0</ele><time>2026-04-12T08:36:26.515Z</time></trkpt><trkpt lat="38.6045691" lon="16.2414289"><ele>363.0</ele><time>2026-04-12T08:36:27.527Z</time></trkpt><trkpt lat="38.6044995" lon="16.2414262"><ele>363.0</ele><time>2026-04-12T08:36:28.523Z</time></trkpt><trkpt lat="38.6044306" lon="16.2414089"><ele>362.99999999999994</ele><time>2026-04-12T08:36:29.521Z</time></trkpt><trkpt lat="38.6043626" lon="16.2413865"><ele>363.0</ele><time>2026-04-12T08:36:30.524Z</time></trkpt><trkpt lat="38.6042988" lon="16.2413797"><ele>362.79999999999995</ele><time>2026-04-12T08:36:31.52Z</time></trkpt><trkpt lat="38.6042234" lon="16.2413934"><ele>362.6</ele><time>2026-04-12T08:36:32.52Z</time></trkpt><trkpt lat="38.6041467" lon="16.2414329"><ele>362.4</ele><time>2026-04-12T08:36:33.521Z</time></trkpt><trkpt lat="38.6040754" lon="16.2414947"><ele>362.20000000000005</ele><time>2026-04-12T08:36:34.531Z</time></trkpt><trkpt lat="38.6040015" lon="16.2415645"><ele>362.0</ele><time>2026-04-12T08:36:35.522Z</time></trkpt><trkpt lat="38.6038574" lon="16.2417596"><ele>362.0</ele><time>2026-04-12T08:36:37.515Z</time></trkpt><trkpt lat="38.603794" lon="16.2418598"><ele>362.0</ele><time>2026-04-12T08:36:38.53Z</time></trkpt><trkpt lat="38.6037474" lon="16.2419716"><ele>362.0</ele><time>2026-04-12T08:36:39.522Z</time></trkpt><trkpt lat="38.6037182" lon="16.2420954"><ele>362.0</ele><time>2026-04-12T08:36:40.52Z</time></trkpt><trkpt lat="38.6036964" lon="16.2422262"><ele>362.0</ele><time>2026-04-12T08:36:41.523Z</time></trkpt><trkpt lat="38.6036825" lon="16.2423549"><ele>363.40000000000003</ele><time>2026-04-12T08:36:42.525Z</time></trkpt><trkpt lat="38.6036752" lon="16.2424805"><ele>364.8</ele><time>2026-04-12T08:36:43.534Z</time></trkpt><trkpt lat="38.6036662" lon="16.2426017"><ele>366.2</ele><time>2026-04-12T08:36:44.524Z</time></trkpt><trkpt lat="38.6036596" lon="16.242719"><ele>367.6</ele><time>2026-04-12T08:36:45.525Z</time></trkpt><trkpt lat="38.6036659" lon="16.2428354"><ele>369.0</ele><time>2026-04-12T08:36:46.524Z</time></trkpt><trkpt lat="38.6036729" lon="16.2429537"><ele>369.0</ele><time>2026-04-12T08:36:47.512Z</time></trkpt><trkpt lat="38.6037147" lon="16.243072"><ele>369.0</ele><time>2026-04-12T08:36:48.519Z</time></trkpt><trkpt lat="38.6037596" lon="16.2431865"><ele>369.0</ele><time>2026-04-12T08:36:49.52Z</time></trkpt><trkpt lat="38.6037987" lon="16.2432846"><ele>369.0</ele><time>2026-04-12T08:36:50.526Z</time></trkpt><trkpt lat="38.6038266" lon="16.2433703"><ele>369.0</ele><time>2026-04-12T08:36:51.526Z</time></trkpt><trkpt lat="38.6038445" lon="16.2434588"><ele>369.0</ele><time>2026-04-12T08:36:52.527Z</time></trkpt><trkpt lat="38.6038435" lon="16.2436079"><ele>367.75</ele><time>2026-04-12T08:36:54.524Z</time></trkpt><trkpt lat="38.6037701" lon="16.243725"><ele>366.5</ele><time>2026-04-12T08:36:56.527Z</time></trkpt><trkpt lat="38.6035724" lon="16.2436989"><ele>365.25</ele><time>2026-04-12T08:37:00.526Z</time></trkpt><trkpt lat="38.6035109" lon="16.2435595"><ele>364.0</ele><time>2026-04-12T08:37:02.526Z</time></trkpt><trkpt lat="38.6034268" lon="16.2434334"><ele>362.6</ele><time>2026-04-12T08:37:04.525Z</time></trkpt><trkpt lat="38.6033574" lon="16.2433818"><ele>361.2</ele><time>2026-04-12T08:37:05.517Z</time></trkpt><trkpt lat="38.6032759" lon="16.243328"><ele>359.8</ele><time>2026-04-12T08:37:06.523Z</time></trkpt><trkpt lat="38.6031915" lon="16.2432638"><ele>358.40000000000003</ele><time>2026-04-12T08:37:07.52Z</time></trkpt><trkpt lat="38.6031142" lon="16.2431869"><ele>357.0</ele><time>2026-04-12T08:37:08.529Z</time></trkpt><trkpt lat="38.6030419" lon="16.2431118"><ele>356.7142857142857</ele><time>2026-04-12T08:37:09.533Z</time></trkpt><trkpt lat="38.6029983" lon="16.2430143"><ele>356.42857142857144</ele><time>2026-04-12T08:37:10.523Z</time></trkpt><trkpt lat="38.6029542" lon="16.2429261"><ele>356.1428571428571</ele><time>2026-04-12T08:37:11.528Z</time></trkpt><trkpt lat="38.6029073" lon="16.2428601"><ele>355.8571428571429</ele><time>2026-04-12T08:37:12.519Z</time></trkpt><trkpt lat="38.6028518" lon="16.2428183"><ele>355.57142857142856</ele><time>2026-04-12T08:37:13.517Z</time></trkpt><trkpt lat="38.6027861" lon="16.2428036"><ele>355.2857142857143</ele><time>2026-04-12T08:37:14.528Z</time></trkpt><trkpt lat="38.602709" lon="16.2428031"><ele>355.0</ele><time>2026-04-12T08:37:15.522Z</time></trkpt><trkpt lat="38.6026236" lon="16.2427962"><ele>355.0</ele><time>2026-04-12T08:37:16.529Z</time></trkpt><trkpt lat="38.6025485" lon="16.2427743"><ele>355.0</ele><time>2026-04-12T08:37:17.518Z</time></trkpt><trkpt lat="38.6024247" lon="16.2426551"><ele>355.0</ele><time>2026-04-12T08:37:19.522Z</time></trkpt><trkpt lat="38.602367" lon="16.2425596"><ele>355.0</ele><time>2026-04-12T08:37:20.52Z</time></trkpt><trkpt lat="38.6023132" lon="16.2424559"><ele>355.0</ele><time>2026-04-12T08:37:21.528Z</time></trkpt><trkpt lat="38.6022633" lon="16.2423521"><ele>351.3333333333333</ele><time>2026-04-12T08:37:22.526Z</time></trkpt><trkpt lat="38.6022324" lon="16.2422386"><ele>347.66666666666663</ele><time>2026-04-12T08:37:23.517Z</time></trkpt><trkpt lat="38.6022051" lon="16.2421313"><ele>344.0</ele><time>2026-04-12T08:37:24.533Z</time></trkpt><trkpt lat="38.6021878" lon="16.2420251"><ele>340.3333333333333</ele><time>2026-04-12T08:37:25.524Z</time></trkpt><trkpt lat="38.6021735" lon="16.2419341"><ele>336.6666666666667</ele><time>2026-04-12T08:37:26.518Z</time></trkpt><trkpt lat="38.6021474" lon="16.2418601"><ele>333.0</ele><time>2026-04-12T08:37:27.525Z</time></trkpt><trkpt lat="38.6020811" lon="16.2417929"><ele>333.0</ele><time>2026-04-12T08:37:28.528Z</time></trkpt><trkpt lat="38.6020096" lon="16.2417218"><ele>333.0</ele><time>2026-04-12T08:37:29.521Z</time></trkpt><trkpt lat="38.6019312" lon="16.2416337"><ele>333.0</ele><time>2026-04-12T08:37:30.53Z</time></trkpt><trkpt lat="38.6018554" lon="16.2415347"><ele>333.0</ele><time>2026-04-12T08:37:31.52Z</time></trkpt><trkpt lat="38.6017767" lon="16.2414489"><ele>333.0</ele><time>2026-04-12T08:37:32.532Z</time></trkpt><trkpt lat="38.6016932" lon="16.2413825"><ele>332.5</ele><time>2026-04-12T08:37:33.532Z</time></trkpt><trkpt lat="38.6016069" lon="16.2413237"><ele>332.0</ele><time>2026-04-12T08:37:34.516Z</time></trkpt><trkpt lat="38.6015255" lon="16.241267"><ele>331.5</ele><time>2026-04-12T08:37:35.514Z</time></trkpt><trkpt lat="38.6014545" lon="16.2412099"><ele>331.0</ele><time>2026-04-12T08:37:36.521Z</time></trkpt><trkpt lat="38.6013883" lon="16.2411603"><ele>330.5</ele><time>2026-04-12T08:37:37.522Z</time></trkpt><trkpt lat="38.6013229" lon="16.2411196"><ele>330.0</ele><time>2026-04-12T08:37:38.516Z</time></trkpt><trkpt lat="38.6011911" lon="16.2410666"><ele>331.14285714285717</ele><time>2026-04-12T08:37:40.523Z</time></trkpt><trkpt lat="38.6011223" lon="16.2410498"><ele>332.2857142857143</ele><time>2026-04-12T08:37:41.515Z</time></trkpt><trkpt lat="38.6010523" lon="16.2410374"><ele>333.42857142857144</ele><time>2026-04-12T08:37:42.518Z</time></trkpt><trkpt lat="38.6009793" lon="16.2410295"><ele>334.57142857142856</ele><time>2026-04-12T08:37:43.529Z</time></trkpt><trkpt lat="38.6009056" lon="16.2410211"><ele>335.7142857142857</ele><time>2026-04-12T08:37:44.526Z</time></trkpt><trkpt lat="38.6008283" lon="16.2410002"><ele>336.8571428571429</ele><time>2026-04-12T08:37:45.516Z</time></trkpt><trkpt lat="38.6007523" lon="16.2409649"><ele>338.0</ele><time>2026-04-12T08:37:46.526Z</time></trkpt><trkpt lat="38.6006745" lon="16.2409228"><ele>338.0</ele><time>2026-04-12T08:37:47.523Z</time></trkpt><trkpt lat="38.6005963" lon="16.2408919"><ele>338.0</ele><time>2026-04-12T08:37:48.526Z</time></trkpt><trkpt lat="38.6005178" lon="16.2408723"><ele>338.0</ele><time>2026-04-12T08:37:49.523Z</time></trkpt><trkpt lat="38.6004403" lon="16.2408549"><ele>338.0</ele><time>2026-04-12T08:37:50.522Z</time></trkpt><trkpt lat="38.6003666" lon="16.240833"><ele>338.0</ele><time>2026-04-12T08:37:51.518Z</time></trkpt><trkpt lat="38.6002973" lon="16.2408007"><ele>338.0</ele><time>2026-04-12T08:37:52.533Z</time></trkpt><trkpt lat="38.6002352" lon="16.2407546"><ele>335.59999999999997</ele><time>2026-04-12T08:37:53.519Z</time></trkpt><trkpt lat="38.6001917" lon="16.2406896"><ele>333.2</ele><time>2026-04-12T08:37:54.525Z</time></trkpt><trkpt lat="38.6001892" lon="16.2405476"><ele>330.8</ele><time>2026-04-12T08:37:56.52Z</time></trkpt><trkpt lat="38.6002603" lon="16.2404099"><ele>328.4</ele><time>2026-04-12T08:37:58.521Z</time></trkpt><trkpt lat="38.6003161" lon="16.2403466"><ele>326.0</ele><time>2026-04-12T08:37:59.526Z</time></trkpt><trkpt lat="38.6004063" lon="16.240174"><ele>326.0</ele><time>2026-04-12T08:38:01.52Z</time></trkpt><trkpt lat="38.6004491" lon="16.2400768"><ele>326.0</ele><time>2026-04-12T08:38:02.524Z</time></trkpt><trkpt lat="38.6004757" lon="16.2399537"><ele>326.0</ele><time>2026-04-12T08:38:03.526Z</time></trkpt><trkpt lat="38.6004974" lon="16.2398165"><ele>326.0</ele><time>2026-04-12T08:38:04.521Z</time></trkpt><trkpt lat="38.6005114" lon="16.2396743"><ele>326.0</ele><time>2026-04-12T08:38:05.524Z</time></trkpt><trkpt lat="38.6005228" lon="16.2395228"><ele>326.0</ele><time>2026-04-12T08:38:06.527Z</time></trkpt><trkpt lat="38.6005415" lon="16.2393684"><ele>326.0</ele><time>2026-04-12T08:38:07.514Z</time></trkpt><trkpt lat="38.600569" lon="16.2392118"><ele>326.0</ele><time>2026-04-12T08:38:08.531Z</time></trkpt><trkpt lat="38.6005894" lon="16.2390468"><ele>326.0</ele><time>2026-04-12T08:38:09.514Z</time></trkpt><trkpt lat="38.6005963" lon="16.2388738"><ele>326.0</ele><time>2026-04-12T08:38:10.528Z</time></trkpt><trkpt lat="38.6006036" lon="16.2387058"><ele>326.0</ele><time>2026-04-12T08:38:11.519Z</time></trkpt><trkpt lat="38.6005839" lon="16.2385377"><ele>326.0</ele><time>2026-04-12T08:38:12.527Z</time></trkpt><trkpt lat="38.600552" lon="16.2383812"><ele>326.0</ele><time>2026-04-12T08:38:13.522Z</time></trkpt><trkpt lat="38.600518" lon="16.238227"><ele>325.0</ele><time>2026-04-12T08:38:14.524Z</time></trkpt><trkpt lat="38.6004912" lon="16.2380827"><ele>324.0</ele><time>2026-04-12T08:38:15.523Z</time></trkpt><trkpt lat="38.6004784" lon="16.2379452"><ele>323.0</ele><time>2026-04-12T08:38:16.533Z</time></trkpt><trkpt lat="38.6004828" lon="16.2378116"><ele>322.0</ele><time>2026-04-12T08:38:17.524Z</time></trkpt><trkpt lat="38.6005042" lon="16.2376854"><ele>321.0</ele><time>2026-04-12T08:38:18.529Z</time></trkpt><trkpt lat="38.6005361" lon="16.2375643"><ele>321.0</ele><time>2026-04-12T08:38:19.52Z</time></trkpt><trkpt lat="38.6005691" lon="16.2374377"><ele>321.0</ele><time>2026-04-12T08:38:20.52Z</time></trkpt><trkpt lat="38.6006348" lon="16.2371702"><ele>321.0</ele><time>2026-04-12T08:38:22.523Z</time></trkpt><trkpt lat="38.600666" lon="16.237041"><ele>321.0</ele><time>2026-04-12T08:38:23.52Z</time></trkpt><trkpt lat="38.6006868" lon="16.2369155"><ele>320.0</ele><time>2026-04-12T08:38:24.522Z</time></trkpt><trkpt lat="38.6006964" lon="16.2367924"><ele>319.0</ele><time>2026-04-12T08:38:25.517Z</time></trkpt><trkpt lat="38.6006938" lon="16.236666"><ele>318.0</ele><time>2026-04-12T08:38:26.523Z</time></trkpt><trkpt lat="38.600675" lon="16.236544"><ele>317.0</ele><time>2026-04-12T08:38:27.53Z</time></trkpt><trkpt lat="38.6006459" lon="16.2364305"><ele>316.0</ele><time>2026-04-12T08:38:28.522Z</time></trkpt><trkpt lat="38.6006154" lon="16.2363233"><ele>315.5</ele><time>2026-04-12T08:38:29.534Z</time></trkpt><trkpt lat="38.6005734" lon="16.2362278"><ele>315.0</ele><time>2026-04-12T08:38:30.532Z</time></trkpt><trkpt lat="38.6005222" lon="16.2361426"><ele>314.5</ele><time>2026-04-12T08:38:31.516Z</time></trkpt><trkpt lat="38.6004669" lon="16.2360772"><ele>314.0</ele><time>2026-04-12T08:38:32.52Z</time></trkpt><trkpt lat="38.6004087" lon="16.2360291"><ele>313.5</ele><time>2026-04-12T08:38:33.521Z</time></trkpt><trkpt lat="38.6003146" lon="16.2359437"><ele>313.0</ele><time>2026-04-12T08:38:35.517Z</time></trkpt><trkpt lat="38.6003144" lon="16.2358182"><ele>313.0</ele><time>2026-04-12T08:38:37.52Z</time></trkpt><trkpt lat="38.600397" lon="16.235705"><ele>313.0</ele><time>2026-04-12T08:38:39.529Z</time></trkpt><trkpt lat="38.6004518" lon="16.2356476"><ele>313.0</ele><time>2026-04-12T08:38:40.522Z</time></trkpt><trkpt lat="38.6005162" lon="16.2355824"><ele>313.0</ele><time>2026-04-12T08:38:41.528Z</time></trkpt><trkpt lat="38.6006479" lon="16.2354332"><ele>313.8</ele><time>2026-04-12T08:38:43.521Z</time></trkpt><trkpt lat="38.6007124" lon="16.2353443"><ele>314.6</ele><time>2026-04-12T08:38:44.534Z</time></trkpt><trkpt lat="38.6007773" lon="16.2352509"><ele>315.4</ele><time>2026-04-12T08:38:45.528Z</time></trkpt><trkpt lat="38.6008345" lon="16.2351424"><ele>316.2</ele><time>2026-04-12T08:38:46.527Z</time></trkpt><trkpt lat="38.6008753" lon="16.2350389"><ele>317.0</ele><time>2026-04-12T08:38:47.519Z</time></trkpt><trkpt lat="38.6009113" lon="16.2349374"><ele>317.0</ele><time>2026-04-12T08:38:48.526Z</time></trkpt><trkpt lat="38.6009114" lon="16.234826"><ele>317.0</ele><time>2026-04-12T08:38:49.522Z</time></trkpt><trkpt lat="38.6009074" lon="16.2347103"><ele>317.0</ele><time>2026-04-12T08:38:50.528Z</time></trkpt><trkpt lat="38.6009081" lon="16.2345913"><ele>317.0</ele><time>2026-04-12T08:38:51.523Z</time></trkpt><trkpt lat="38.6009172" lon="16.2344771"><ele>317.0</ele><time>2026-04-12T08:38:52.519Z</time></trkpt><trkpt lat="38.6009305" lon="16.2343713"><ele>317.0</ele><time>2026-04-12T08:38:53.526Z</time></trkpt><trkpt lat="38.6009428" lon="16.2342638"><ele>317.5</ele><time>2026-04-12T08:38:54.525Z</time></trkpt><trkpt lat="38.6009528" lon="16.2341606"><ele>318.0</ele><time>2026-04-12T08:38:55.525Z</time></trkpt><trkpt lat="38.6009504" lon="16.2340513"><ele>318.5</ele><time>2026-04-12T08:38:56.521Z</time></trkpt><trkpt lat="38.6009368" lon="16.2339384"><ele>319.0</ele><time>2026-04-12T08:38:57.527Z</time></trkpt><trkpt lat="38.6009094" lon="16.2338228"><ele>319.5</ele><time>2026-04-12T08:38:58.519Z</time></trkpt><trkpt lat="38.600871" lon="16.2337131"><ele>320.0</ele><time>2026-04-12T08:38:59.519Z</time></trkpt><trkpt lat="38.6008312" lon="16.2336081"><ele>317.4</ele><time>2026-04-12T08:39:00.522Z</time></trkpt><trkpt lat="38.6008012" lon="16.2335059"><ele>314.8</ele><time>2026-04-12T08:39:01.519Z</time></trkpt><trkpt lat="38.6007758" lon="16.2334057"><ele>312.2</ele><time>2026-04-12T08:39:02.524Z</time></trkpt><trkpt lat="38.6007206" lon="16.2332083"><ele>309.6</ele><time>2026-04-12T08:39:04.526Z</time></trkpt><trkpt lat="38.6006817" lon="16.2331159"><ele>307.0</ele><time>2026-04-12T08:39:05.527Z</time></trkpt><trkpt lat="38.6006339" lon="16.2330386"><ele>305.8333333333333</ele><time>2026-04-12T08:39:06.526Z</time></trkpt><trkpt lat="38.6005794" lon="16.2329752"><ele>304.66666666666663</ele><time>2026-04-12T08:39:07.529Z</time></trkpt><trkpt lat="38.600514" lon="16.2329192"><ele>303.5</ele><time>2026-04-12T08:39:08.525Z</time></trkpt><trkpt lat="38.6004393" lon="16.2328689"><ele>302.3333333333333</ele><time>2026-04-12T08:39:09.526Z</time></trkpt><trkpt lat="38.6003583" lon="16.2328351"><ele>301.1666666666667</ele><time>2026-04-12T08:39:10.521Z</time></trkpt><trkpt lat="38.6002742" lon="16.2328234"><ele>300.0</ele><time>2026-04-12T08:39:11.536Z</time></trkpt><trkpt lat="38.6001915" lon="16.2328146"><ele>300.0</ele><time>2026-04-12T08:39:12.526Z</time></trkpt><trkpt lat="38.6001167" lon="16.2328374"><ele>300.0</ele><time>2026-04-12T08:39:13.533Z</time></trkpt><trkpt lat="38.6000427" lon="16.2328615"><ele>300.0</ele><time>2026-04-12T08:39:14.528Z</time></trkpt><trkpt lat="38.5999727" lon="16.2328809"><ele>300.0</ele><time>2026-04-12T08:39:15.517Z</time></trkpt><trkpt lat="38.5998612" lon="16.2329117"><ele>300.0</ele><time>2026-04-12T08:39:17.525Z</time></trkpt><trkpt lat="38.5997628" lon="16.232904"><ele>300.0</ele><time>2026-04-12T08:39:19.516Z</time></trkpt><trkpt lat="38.5996949" lon="16.2328272"><ele>300.0</ele><time>2026-04-12T08:39:21.522Z</time></trkpt><trkpt lat="38.599674" lon="16.2326842"><ele>300.0</ele><time>2026-04-12T08:39:23.515Z</time></trkpt><trkpt lat="38.5996778" lon="16.2324146"><ele>300.0</ele><time>2026-04-12T08:39:27.522Z</time></trkpt><trkpt lat="38.5996921" lon="16.2322944"><ele>300.0</ele><time>2026-04-12T08:39:29.523Z</time></trkpt><trkpt lat="38.5997134" lon="16.2321826"><ele>299.5</ele><time>2026-04-12T08:39:31.522Z</time></trkpt><trkpt lat="38.5997321" lon="16.2320726"><ele>299.0</ele><time>2026-04-12T08:39:33.532Z</time></trkpt><trkpt lat="38.5997461" lon="16.2319933"><ele>298.5</ele><time>2026-04-12T08:39:35.526Z</time></trkpt><trkpt lat="38.5997556" lon="16.2319024"><ele>298.0</ele><time>2026-04-12T08:39:38.525Z</time></trkpt><trkpt lat="38.5997622" lon="16.2318214"><ele>297.5</ele><time>2026-04-12T08:39:41.527Z</time></trkpt><trkpt lat="38.5997336" lon="16.2317475"><ele>297.0</ele><time>2026-04-12T08:39:47.527Z</time></trkpt><trkpt lat="38.5995853" lon="16.2316848"><ele>297.0</ele><time>2026-04-12T08:39:51.525Z</time></trkpt><trkpt lat="38.599507" lon="16.2316571"><ele>297.0</ele><time>2026-04-12T08:39:53.532Z</time></trkpt><trkpt lat="38.5994179" lon="16.2316066"><ele>297.0</ele><time>2026-04-12T08:39:55.52Z</time></trkpt><trkpt lat="38.5993211" lon="16.2315571"><ele>297.0</ele><time>2026-04-12T08:39:57.529Z</time></trkpt><trkpt lat="38.5992105" lon="16.2315106"><ele>297.0</ele><time>2026-04-12T08:39:59.527Z</time></trkpt><trkpt lat="38.5991508" lon="16.2314838"><ele>296.6666666666667</ele><time>2026-04-12T08:40:00.528Z</time></trkpt><trkpt lat="38.5990888" lon="16.2314531"><ele>296.3333333333333</ele><time>2026-04-12T08:40:01.513Z</time></trkpt><trkpt lat="38.5990273" lon="16.2314249"><ele>296.0</ele><time>2026-04-12T08:40:02.521Z</time></trkpt><trkpt lat="38.5989673" lon="16.2313971"><ele>295.66666666666663</ele><time>2026-04-12T08:40:03.523Z</time></trkpt><trkpt lat="38.598851" lon="16.231343"><ele>295.3333333333333</ele><time>2026-04-12T08:40:05.519Z</time></trkpt><trkpt lat="38.5987889" lon="16.2313156"><ele>295.0</ele><time>2026-04-12T08:40:06.528Z</time></trkpt><trkpt lat="38.5987268" lon="16.2312921"><ele>294.2</ele><time>2026-04-12T08:40:07.534Z</time></trkpt><trkpt lat="38.5985422" lon="16.2312337"><ele>293.4</ele><time>2026-04-12T08:40:10.522Z</time></trkpt><trkpt lat="38.5984787" lon="16.2312124"><ele>292.6</ele><time>2026-04-12T08:40:11.519Z</time></trkpt><trkpt lat="38.5984164" lon="16.2311856"><ele>291.8</ele><time>2026-04-12T08:40:12.522Z</time></trkpt><trkpt lat="38.5983527" lon="16.2311548"><ele>291.0</ele><time>2026-04-12T08:40:13.521Z</time></trkpt><trkpt lat="38.5982876" lon="16.2311207"><ele>291.0</ele><time>2026-04-12T08:40:14.521Z</time></trkpt><trkpt lat="38.5982234" lon="16.2310834"><ele>291.0</ele><time>2026-04-12T08:40:15.523Z</time></trkpt><trkpt lat="38.5981612" lon="16.2310409"><ele>291.0</ele><time>2026-04-12T08:40:16.525Z</time></trkpt><trkpt lat="38.5981013" lon="16.2309945"><ele>291.0</ele><time>2026-04-12T08:40:17.523Z</time></trkpt><trkpt lat="38.5980433" lon="16.2309516"><ele>291.0</ele><time>2026-04-12T08:40:18.52Z</time></trkpt><trkpt lat="38.5979855" lon="16.2309141"><ele>291.0</ele><time>2026-04-12T08:40:19.513Z</time></trkpt><trkpt lat="38.5979272" lon="16.230883"><ele>291.0</ele><time>2026-04-12T08:40:20.529Z</time></trkpt><trkpt lat="38.5978131" lon="16.2308398"><ele>289.75</ele><time>2026-04-12T08:40:22.528Z</time></trkpt><trkpt lat="38.5977074" lon="16.2307904"><ele>288.5</ele><time>2026-04-12T08:40:24.524Z</time></trkpt><trkpt lat="38.5976053" lon="16.2307436"><ele>287.25</ele><time>2026-04-12T08:40:26.534Z</time></trkpt><trkpt lat="38.5975033" lon="16.2307037"><ele>286.0</ele><time>2026-04-12T08:40:28.521Z</time></trkpt><trkpt lat="38.5973784" lon="16.2306529"><ele>286.0</ele><time>2026-04-12T08:40:30.522Z</time></trkpt><trkpt lat="38.5972784" lon="16.2306102"><ele>286.0</ele><time>2026-04-12T08:40:32.519Z</time></trkpt><trkpt lat="38.5972117" lon="16.2306099"><ele>286.0</ele><time>2026-04-12T08:40:34.525Z</time></trkpt><trkpt lat="38.5971447" lon="16.2306394"><ele>286.0</ele><time>2026-04-12T08:40:36.521Z</time></trkpt><trkpt lat="38.5970616" lon="16.2306737"><ele>286.0</ele><time>2026-04-12T08:40:39.528Z</time></trkpt><trkpt lat="38.596996" lon="16.2307115"><ele>286.0</ele><time>2026-04-12T08:40:43.519Z</time></trkpt><trkpt lat="38.5969334" lon="16.2307423"><ele>286.0</ele><time>2026-04-12T08:40:45.528Z</time></trkpt><trkpt lat="38.5968574" lon="16.2307947"><ele>286.0</ele><time>2026-04-12T08:40:47.527Z</time></trkpt><trkpt lat="38.5968326" lon="16.2308796"><ele>286.0</ele><time>2026-04-12T08:40:49.54Z</time></trkpt><trkpt lat="38.5967183" lon="16.231035"><ele>286.0</ele><time>2026-04-12T08:40:53.522Z</time></trkpt><trkpt lat="38.5966513" lon="16.2310736"><ele>286.0</ele><time>2026-04-12T08:40:54.521Z</time></trkpt><trkpt lat="38.5965716" lon="16.2311141"><ele>286.0</ele><time>2026-04-12T08:40:55.523Z</time></trkpt><trkpt lat="38.5964842" lon="16.2311592"><ele>286.0</ele><time>2026-04-12T08:40:56.532Z</time></trkpt><trkpt lat="38.5963913" lon="16.2312069"><ele>286.0</ele><time>2026-04-12T08:40:57.523Z</time></trkpt><trkpt lat="38.5962942" lon="16.2312584"><ele>286.0</ele><time>2026-04-12T08:40:58.529Z</time></trkpt><trkpt lat="38.596192" lon="16.2313059"><ele>286.0</ele><time>2026-04-12T08:40:59.518Z</time></trkpt><trkpt lat="38.59609" lon="16.2313402"><ele>285.6</ele><time>2026-04-12T08:41:00.526Z</time></trkpt><trkpt lat="38.5959883" lon="16.231362"><ele>285.20000000000005</ele><time>2026-04-12T08:41:01.524Z</time></trkpt><trkpt lat="38.5958836" lon="16.2313747"><ele>284.79999999999995</ele><time>2026-04-12T08:41:02.519Z</time></trkpt><trkpt lat="38.5957779" lon="16.2313824"><ele>284.4</ele><time>2026-04-12T08:41:03.521Z</time></trkpt><trkpt lat="38.5956716" lon="16.2313822"><ele>284.0</ele><time>2026-04-12T08:41:04.52Z</time></trkpt><trkpt lat="38.5955629" lon="16.2313795"><ele>284.0</ele><time>2026-04-12T08:41:05.514Z</time></trkpt><trkpt lat="38.5954527" lon="16.2313769"><ele>284.0</ele><time>2026-04-12T08:41:06.517Z</time></trkpt><trkpt lat="38.5953451" lon="16.2313752"><ele>284.0</ele><time>2026-04-12T08:41:07.514Z</time></trkpt><trkpt lat="38.5952423" lon="16.2313799"><ele>284.0</ele><time>2026-04-12T08:41:08.518Z</time></trkpt><trkpt lat="38.5951414" lon="16.2313913"><ele>284.0</ele><time>2026-04-12T08:41:09.525Z</time></trkpt><trkpt lat="38.5950419" lon="16.2314023"><ele>286.25</ele><time>2026-04-12T08:41:10.521Z</time></trkpt><trkpt lat="38.594846" lon="16.231501"><ele>288.5</ele><time>2026-04-12T08:41:12.519Z</time></trkpt><trkpt lat="38.5947493" lon="16.2315599"><ele>290.75</ele><time>2026-04-12T08:41:13.526Z</time></trkpt><trkpt lat="38.5946566" lon="16.231607"><ele>293.0</ele><time>2026-04-12T08:41:14.519Z</time></trkpt><trkpt lat="38.5945722" lon="16.2316205"><ele>293.2</ele><time>2026-04-12T08:41:15.52Z</time></trkpt><trkpt lat="38.5944942" lon="16.2315905"><ele>293.4</ele><time>2026-04-12T08:41:16.524Z</time></trkpt><trkpt lat="38.5944233" lon="16.2315269"><ele>293.59999999999997</ele><time>2026-04-12T08:41:17.526Z</time></trkpt><trkpt lat="38.5943579" lon="16.2314445"><ele>293.8</ele><time>2026-04-12T08:41:18.529Z</time></trkpt><trkpt lat="38.5943118" lon="16.2313365"><ele>294.0</ele><time>2026-04-12T08:41:19.526Z</time></trkpt><trkpt lat="38.5942813" lon="16.2312119"><ele>294.0</ele><time>2026-04-12T08:41:20.526Z</time></trkpt><trkpt lat="38.5942494" lon="16.231081"><ele>294.0</ele><time>2026-04-12T08:41:21.522Z</time></trkpt><trkpt lat="38.5942174" lon="16.2309506"><ele>294.0</ele><time>2026-04-12T08:41:22.526Z</time></trkpt><trkpt lat="38.5941681" lon="16.2308178"><ele>294.0</ele><time>2026-04-12T08:41:23.526Z</time></trkpt><trkpt lat="38.594141" lon="16.2306719"><ele>294.0</ele><time>2026-04-12T08:41:24.525Z</time></trkpt><trkpt lat="38.5941304" lon="16.2305169"><ele>292.0</ele><time>2026-04-12T08:41:25.515Z</time></trkpt><trkpt lat="38.5941142" lon="16.2303572"><ele>290.0</ele><time>2026-04-12T08:41:26.531Z</time></trkpt><trkpt lat="38.5940914" lon="16.2301935"><ele>288.0</ele><time>2026-04-12T08:41:27.529Z</time></trkpt><trkpt lat="38.5940535" lon="16.2300436"><ele>286.0</ele><time>2026-04-12T08:41:28.519Z</time></trkpt><trkpt lat="38.5940204" lon="16.2299223"><ele>286.0</ele><time>2026-04-12T08:41:29.538Z</time></trkpt><trkpt lat="38.5939694" lon="16.2298424"><ele>286.0</ele><time>2026-04-12T08:41:30.528Z</time></trkpt><trkpt lat="38.59392" lon="16.2297765"><ele>286.0</ele><time>2026-04-12T08:41:31.518Z</time></trkpt><trkpt lat="38.5937606" lon="16.2296227"><ele>286.0</ele><time>2026-04-12T08:41:35.528Z</time></trkpt><trkpt lat="38.5936947" lon="16.2296789"><ele>286.0</ele><time>2026-04-12T08:41:37.518Z</time></trkpt><trkpt lat="38.5937011" lon="16.2297892"><ele>286.0</ele><time>2026-04-12T08:41:39.526Z</time></trkpt><trkpt lat="38.5937968" lon="16.2299058"><ele>286.0</ele><time>2026-04-12T08:41:41.526Z</time></trkpt><trkpt lat="38.5938429" lon="16.2299821"><ele>286.0</ele><time>2026-04-12T08:41:42.521Z</time></trkpt><trkpt lat="38.593878" lon="16.2300746"><ele>286.0</ele><time>2026-04-12T08:41:43.517Z</time></trkpt><trkpt lat="38.5938923" lon="16.2301718"><ele>286.0</ele><time>2026-04-12T08:41:44.532Z</time></trkpt><trkpt lat="38.5938918" lon="16.2302623"><ele>286.0</ele><time>2026-04-12T08:41:45.519Z</time></trkpt><trkpt lat="38.5938709" lon="16.2304166"><ele>286.0</ele><time>2026-04-12T08:41:47.517Z</time></trkpt><trkpt lat="38.5938509" lon="16.2304942"><ele>286.0</ele><time>2026-04-12T08:41:48.527Z</time></trkpt><trkpt lat="38.5938227" lon="16.2305762"><ele>286.0</ele><time>2026-04-12T08:41:49.529Z</time></trkpt><trkpt lat="38.5937825" lon="16.2306585"><ele>286.0</ele><time>2026-04-12T08:41:50.529Z</time></trkpt><trkpt lat="38.5937299" lon="16.2307305"><ele>286.0</ele><time>2026-04-12T08:41:51.514Z</time></trkpt><trkpt lat="38.5936745" lon="16.2308038"><ele>286.0</ele><time>2026-04-12T08:41:52.529Z</time></trkpt><trkpt lat="38.5935329" lon="16.2309343"><ele>292.16666666666663</ele><time>2026-04-12T08:41:54.529Z</time></trkpt><trkpt lat="38.5934784" lon="16.2309992"><ele>298.3333333333333</ele><time>2026-04-12T08:41:55.513Z</time></trkpt><trkpt lat="38.5934564" lon="16.2310747"><ele>304.5</ele><time>2026-04-12T08:41:56.522Z</time></trkpt><trkpt lat="38.5934992" lon="16.231234"><ele>310.6666666666667</ele><time>2026-04-12T08:41:58.523Z</time></trkpt><trkpt lat="38.5935517" lon="16.231315"><ele>316.83333333333337</ele><time>2026-04-12T08:41:59.518Z</time></trkpt><trkpt lat="38.5936061" lon="16.2314095"><ele>323.0</ele><time>2026-04-12T08:42:00.52Z</time></trkpt><trkpt lat="38.5936446" lon="16.2315217"><ele>323.79999999999995</ele><time>2026-04-12T08:42:01.521Z</time></trkpt><trkpt lat="38.5936831" lon="16.2316355"><ele>324.6</ele><time>2026-04-12T08:42:02.525Z</time></trkpt><trkpt lat="38.5937058" lon="16.2317527"><ele>325.4</ele><time>2026-04-12T08:42:03.519Z</time></trkpt><trkpt lat="38.5936702" lon="16.2318958"><ele>326.20000000000005</ele><time>2026-04-12T08:42:04.522Z</time></trkpt><trkpt lat="38.5935885" lon="16.2320121"><ele>327.0</ele><time>2026-04-12T08:42:05.516Z</time></trkpt><trkpt lat="38.5935069" lon="16.2321379"><ele>327.0</ele><time>2026-04-12T08:42:06.53Z</time></trkpt><trkpt lat="38.5934347" lon="16.2322873"><ele>327.0</ele><time>2026-04-12T08:42:07.532Z</time></trkpt><trkpt lat="38.5933727" lon="16.2324528"><ele>327.0</ele><time>2026-04-12T08:42:08.529Z</time></trkpt><trkpt lat="38.5933222" lon="16.2326168"><ele>327.0</ele><time>2026-04-12T08:42:09.52Z</time></trkpt><trkpt lat="38.593283" lon="16.2327641"><ele>326.25</ele><time>2026-04-12T08:42:10.53Z</time></trkpt><trkpt lat="38.5932511" lon="16.2329022"><ele>325.5</ele><time>2026-04-12T08:42:11.524Z</time></trkpt><trkpt lat="38.5932254" lon="16.2330302"><ele>324.75</ele><time>2026-04-12T08:42:12.522Z</time></trkpt><trkpt lat="38.5931325" lon="16.2332244"><ele>324.0</ele><time>2026-04-12T08:42:15.527Z</time></trkpt><trkpt lat="38.5930583" lon="16.2331708"><ele>324.0</ele><time>2026-04-12T08:42:17.518Z</time></trkpt><trkpt lat="38.5930808" lon="16.2330227"><ele>324.0</ele><time>2026-04-12T08:42:19.532Z</time></trkpt><trkpt lat="38.5931109" lon="16.2329107"><ele>324.0</ele><time>2026-04-12T08:42:20.523Z</time></trkpt><trkpt lat="38.5931458" lon="16.2327696"><ele>324.0</ele><time>2026-04-12T08:42:21.521Z</time></trkpt><trkpt lat="38.5931795" lon="16.232606"><ele>324.0</ele><time>2026-04-12T08:42:22.52Z</time></trkpt><trkpt lat="38.5932161" lon="16.2324262"><ele>324.0</ele><time>2026-04-12T08:42:23.514Z</time></trkpt><trkpt lat="38.5932522" lon="16.2322501"><ele>324.0</ele><time>2026-04-12T08:42:24.526Z</time></trkpt><trkpt lat="38.5932997" lon="16.2320914"><ele>324.0</ele><time>2026-04-12T08:42:25.523Z</time></trkpt><trkpt lat="38.5933359" lon="16.2319509"><ele>324.6</ele><time>2026-04-12T08:42:26.525Z</time></trkpt><trkpt lat="38.5933413" lon="16.2318334"><ele>325.2</ele><time>2026-04-12T08:42:27.523Z</time></trkpt><trkpt lat="38.5933413" lon="16.2317248"><ele>325.8</ele><time>2026-04-12T08:42:28.526Z</time></trkpt><trkpt lat="38.5932791" lon="16.2316432"><ele>326.40000000000003</ele><time>2026-04-12T08:42:29.529Z</time></trkpt><trkpt lat="38.5932013" lon="16.2315711"><ele>327.0</ele><time>2026-04-12T08:42:30.524Z</time></trkpt><trkpt lat="38.5931131" lon="16.2315252"><ele>327.0</ele><time>2026-04-12T08:42:31.516Z</time></trkpt><trkpt lat="38.5930161" lon="16.2315104"><ele>327.0</ele><time>2026-04-12T08:42:32.53Z</time></trkpt><trkpt lat="38.5929166" lon="16.2315204"><ele>327.0</ele><time>2026-04-12T08:42:33.519Z</time></trkpt><trkpt lat="38.5927095" lon="16.2315379"><ele>327.0</ele><time>2026-04-12T08:42:35.512Z</time></trkpt><trkpt lat="38.5926326" lon="16.231508"><ele>329.40000000000003</ele><time>2026-04-12T08:42:36.521Z</time></trkpt><trkpt lat="38.5925861" lon="16.2314503"><ele>331.8</ele><time>2026-04-12T08:42:37.517Z</time></trkpt><trkpt lat="38.5925673" lon="16.2313177"><ele>334.2</ele><time>2026-04-12T08:42:39.519Z</time></trkpt><trkpt lat="38.592674" lon="16.231212"><ele>336.6</ele><time>2026-04-12T08:42:41.521Z</time></trkpt><trkpt lat="38.5927438" lon="16.2311369"><ele>339.0</ele><time>2026-04-12T08:42:42.521Z</time></trkpt><trkpt lat="38.5928125" lon="16.2310433"><ele>335.79999999999995</ele><time>2026-04-12T08:42:43.52Z</time></trkpt><trkpt lat="38.5928784" lon="16.2309328"><ele>332.59999999999997</ele><time>2026-04-12T08:42:44.525Z</time></trkpt><trkpt lat="38.5929437" lon="16.230816"><ele>329.4</ele><time>2026-04-12T08:42:45.529Z</time></trkpt><trkpt lat="38.5930068" lon="16.2307018"><ele>326.2</ele><time>2026-04-12T08:42:46.523Z</time></trkpt><trkpt lat="38.5930635" lon="16.2306021"><ele>323.0</ele><time>2026-04-12T08:42:47.517Z</time></trkpt><trkpt lat="38.5930979" lon="16.2305098"><ele>320.75</ele><time>2026-04-12T08:42:48.521Z</time></trkpt><trkpt lat="38.5930657" lon="16.2303731"><ele>318.5</ele><time>2026-04-12T08:42:50.516Z</time></trkpt><trkpt lat="38.5929691" lon="16.2303812"><ele>316.25</ele><time>2026-04-12T08:42:52.525Z</time></trkpt><trkpt lat="38.5928534" lon="16.2304971"><ele>314.0</ele><time>2026-04-12T08:42:54.525Z</time></trkpt><trkpt lat="38.5927233" lon="16.2307374"><ele>319.0</ele><time>2026-04-12T08:42:56.528Z</time></trkpt><trkpt lat="38.592664" lon="16.2308508"><ele>324.0</ele><time>2026-04-12T08:42:57.524Z</time></trkpt><trkpt lat="38.5925984" lon="16.2309474"><ele>329.0</ele><time>2026-04-12T08:42:58.52Z</time></trkpt><trkpt lat="38.5925297" lon="16.2310357"><ele>334.0</ele><time>2026-04-12T08:42:59.525Z</time></trkpt><trkpt lat="38.5924699" lon="16.2311186"><ele>339.0</ele><time>2026-04-12T08:43:00.526Z</time></trkpt><trkpt lat="38.5924104" lon="16.2312021"><ele>339.0</ele><time>2026-04-12T08:43:01.524Z</time></trkpt><trkpt lat="38.5923561" lon="16.2312816"><ele>339.0</ele><time>2026-04-12T08:43:02.528Z</time></trkpt><trkpt lat="38.5923152" lon="16.2313628"><ele>339.0</ele><time>2026-04-12T08:43:03.516Z</time></trkpt><trkpt lat="38.5922974" lon="16.2314478"><ele>339.0</ele><time>2026-04-12T08:43:04.523Z</time></trkpt><trkpt lat="38.5923151" lon="16.231527"><ele>339.0</ele><time>2026-04-12T08:43:05.528Z</time></trkpt><trkpt lat="38.592355" lon="16.2315972"><ele>339.0</ele><time>2026-04-12T08:43:06.52Z</time></trkpt><trkpt lat="38.5924117" lon="16.2316652"><ele>339.0</ele><time>2026-04-12T08:43:07.521Z</time></trkpt><trkpt lat="38.5924679" lon="16.2317332"><ele>336.6</ele><time>2026-04-12T08:43:08.52Z</time></trkpt><trkpt lat="38.5925483" lon="16.2317901"><ele>334.2</ele><time>2026-04-12T08:43:09.515Z</time></trkpt><trkpt lat="38.5926391" lon="16.2318315"><ele>331.8</ele><time>2026-04-12T08:43:10.526Z</time></trkpt><trkpt lat="38.5927215" lon="16.2318548"><ele>329.40000000000003</ele><time>2026-04-12T08:43:11.527Z</time></trkpt><trkpt lat="38.592794" lon="16.2318738"><ele>327.0</ele><time>2026-04-12T08:43:12.523Z</time></trkpt><trkpt lat="38.5928986" lon="16.2319276"><ele>327.0</ele><time>2026-04-12T08:43:14.532Z</time></trkpt><trkpt lat="38.5929546" lon="16.2320186"><ele>327.0</ele><time>2026-04-12T08:43:16.53Z</time></trkpt><trkpt lat="38.5928755" lon="16.2323041"><ele>327.0</ele><time>2026-04-12T08:43:19.524Z</time></trkpt><trkpt lat="38.5928159" lon="16.2324512"><ele>341.0</ele><time>2026-04-12T08:43:20.529Z</time></trkpt><trkpt lat="38.5927455" lon="16.2326249"><ele>355.0</ele><time>2026-04-12T08:43:21.536Z</time></trkpt><trkpt lat="38.5926651" lon="16.2328141"><ele>369.0</ele><time>2026-04-12T08:43:22.531Z</time></trkpt><trkpt lat="38.5925942" lon="16.2329958"><ele>370.75</ele><time>2026-04-12T08:43:23.528Z</time></trkpt><trkpt lat="38.592539" lon="16.2331674"><ele>372.5</ele><time>2026-04-12T08:43:24.529Z</time></trkpt><trkpt lat="38.5925031" lon="16.2333286"><ele>374.25</ele><time>2026-04-12T08:43:25.534Z</time></trkpt><trkpt lat="38.5924889" lon="16.233478"><ele>376.0</ele><time>2026-04-12T08:43:26.529Z</time></trkpt><trkpt lat="38.5924887" lon="16.2336091"><ele>376.0</ele><time>2026-04-12T08:43:27.515Z</time></trkpt><trkpt lat="38.5924879" lon="16.2337339"><ele>376.0</ele><time>2026-04-12T08:43:28.527Z</time></trkpt><trkpt lat="38.5924663" lon="16.2338536"><ele>376.0</ele><time>2026-04-12T08:43:29.524Z</time></trkpt><trkpt lat="38.5924289" lon="16.2339715"><ele>376.0</ele><time>2026-04-12T08:43:30.531Z</time></trkpt><trkpt lat="38.592385" lon="16.2340978"><ele>376.0</ele><time>2026-04-12T08:43:31.527Z</time></trkpt><trkpt lat="38.5923438" lon="16.2342194"><ele>373.8</ele><time>2026-04-12T08:43:32.52Z</time></trkpt><trkpt lat="38.5922833" lon="16.2343492"><ele>371.6</ele><time>2026-04-12T08:43:33.521Z</time></trkpt><trkpt lat="38.5922241" lon="16.2344594"><ele>369.4</ele><time>2026-04-12T08:43:34.53Z</time></trkpt><trkpt lat="38.5921717" lon="16.234563"><ele>367.2</ele><time>2026-04-12T08:43:35.517Z</time></trkpt><trkpt lat="38.5921159" lon="16.2346625"><ele>365.0</ele><time>2026-04-12T08:43:36.52Z</time></trkpt><trkpt lat="38.5920633" lon="16.2347673"><ele>363.25</ele><time>2026-04-12T08:43:37.52Z</time></trkpt><trkpt lat="38.5920191" lon="16.2350049"><ele>361.5</ele><time>2026-04-12T08:43:39.522Z</time></trkpt><trkpt lat="38.5920147" lon="16.2351287"><ele>359.75</ele><time>2026-04-12T08:43:40.52Z</time></trkpt><trkpt lat="38.5920013" lon="16.2352416"><ele>358.0</ele><time>2026-04-12T08:43:41.522Z</time></trkpt><trkpt lat="38.5919824" lon="16.235346"><ele>363.0</ele><time>2026-04-12T08:43:42.527Z</time></trkpt><trkpt lat="38.5919472" lon="16.2354274"><ele>368.0</ele><time>2026-04-12T08:43:43.525Z</time></trkpt><trkpt lat="38.5919022" lon="16.235499"><ele>373.0</ele><time>2026-04-12T08:43:44.527Z</time></trkpt><trkpt lat="38.5918519" lon="16.2355515"><ele>378.0</ele><time>2026-04-12T08:43:45.519Z</time></trkpt><trkpt lat="38.5917853" lon="16.235599"><ele>383.00000000000006</ele><time>2026-04-12T08:43:46.516Z</time></trkpt><trkpt lat="38.5917045" lon="16.2357175"><ele>388.0</ele><time>2026-04-12T08:43:48.52Z</time></trkpt><trkpt lat="38.5917089" lon="16.2357986"><ele>388.0</ele><time>2026-04-12T08:43:49.517Z</time></trkpt><trkpt lat="38.5917004" lon="16.235955"><ele>388.0</ele><time>2026-04-12T08:43:51.519Z</time></trkpt><trkpt lat="38.591649" lon="16.2360839"><ele>388.0</ele><time>2026-04-12T08:43:53.522Z</time></trkpt><trkpt lat="38.5915819" lon="16.2361165"><ele>388.0</ele><time>2026-04-12T08:43:54.523Z</time></trkpt><trkpt lat="38.5915057" lon="16.2361511"><ele>388.0</ele><time>2026-04-12T08:43:55.519Z</time></trkpt><trkpt lat="38.5914297" lon="16.236165"><ele>388.0</ele><time>2026-04-12T08:43:56.529Z</time></trkpt><trkpt lat="38.5913553" lon="16.2361683"><ele>388.0</ele><time>2026-04-12T08:43:57.534Z</time></trkpt><trkpt lat="38.5912277" lon="16.2361919"><ele>388.0</ele><time>2026-04-12T08:43:59.524Z</time></trkpt><trkpt lat="38.5911078" lon="16.2362672"><ele>388.0</ele><time>2026-04-12T08:44:01.524Z</time></trkpt><trkpt lat="38.5910452" lon="16.236401"><ele>389.4</ele><time>2026-04-12T08:44:03.527Z</time></trkpt><trkpt lat="38.5910601" lon="16.2365405"><ele>390.79999999999995</ele><time>2026-04-12T08:44:05.526Z</time></trkpt><trkpt lat="38.59115" lon="16.2365917"><ele>392.2</ele><time>2026-04-12T08:44:07.519Z</time></trkpt><trkpt lat="38.5912282" lon="16.2366076"><ele>393.6</ele><time>2026-04-12T08:44:08.52Z</time></trkpt><trkpt lat="38.5913065" lon="16.2366355"><ele>395.0</ele><time>2026-04-12T08:44:09.522Z</time></trkpt><trkpt lat="38.591405" lon="16.2366732"><ele>395.0</ele><time>2026-04-12T08:44:10.533Z</time></trkpt><trkpt lat="38.5915082" lon="16.236716"><ele>395.0</ele><time>2026-04-12T08:44:11.516Z</time></trkpt><trkpt lat="38.5916148" lon="16.2367601"><ele>395.0</ele><time>2026-04-12T08:44:12.53Z</time></trkpt><trkpt lat="38.5917202" lon="16.2368188"><ele>395.0</ele><time>2026-04-12T08:44:13.529Z</time></trkpt><trkpt lat="38.5918112" lon="16.2368819"><ele>395.0</ele><time>2026-04-12T08:44:14.517Z</time></trkpt><trkpt lat="38.5918761" lon="16.2369665"><ele>395.0</ele><time>2026-04-12T08:44:15.529Z</time></trkpt><trkpt lat="38.5919189" lon="16.2370745"><ele>395.0</ele><time>2026-04-12T08:44:16.532Z</time></trkpt><trkpt lat="38.5919581" lon="16.2372107"><ele>395.0</ele><time>2026-04-12T08:44:17.516Z</time></trkpt><trkpt lat="38.5920033" lon="16.2373841"><ele>395.0</ele><time>2026-04-12T08:44:18.53Z</time></trkpt><trkpt lat="38.5920506" lon="16.2375595"><ele>392.3333333333333</ele><time>2026-04-12T08:44:19.525Z</time></trkpt><trkpt lat="38.5920995" lon="16.2377167"><ele>389.66666666666663</ele><time>2026-04-12T08:44:20.518Z</time></trkpt><trkpt lat="38.592232" lon="16.2379767"><ele>387.0</ele><time>2026-04-12T08:44:22.523Z</time></trkpt><trkpt lat="38.5923044" lon="16.2380815"><ele>392.5</ele><time>2026-04-12T08:44:23.518Z</time></trkpt><trkpt lat="38.5923665" lon="16.2381979"><ele>398.0</ele><time>2026-04-12T08:44:24.521Z</time></trkpt><trkpt lat="38.5924044" lon="16.2383295"><ele>403.5</ele><time>2026-04-12T08:44:25.515Z</time></trkpt><trkpt lat="38.5924199" lon="16.2384792"><ele>409.0</ele><time>2026-04-12T08:44:26.526Z</time></trkpt><trkpt lat="38.5924282" lon="16.2386473"><ele>409.0</ele><time>2026-04-12T08:44:27.528Z</time></trkpt><trkpt lat="38.5924353" lon="16.2388128"><ele>409.0</ele><time>2026-04-12T08:44:28.513Z</time></trkpt><trkpt lat="38.5924448" lon="16.2389697"><ele>409.0</ele><time>2026-04-12T08:44:29.527Z</time></trkpt><trkpt lat="38.5924557" lon="16.2391112"><ele>409.0</ele><time>2026-04-12T08:44:30.524Z</time></trkpt><trkpt lat="38.5924704" lon="16.2392472"><ele>412.4</ele><time>2026-04-12T08:44:31.514Z</time></trkpt><trkpt lat="38.59249" lon="16.2393825"><ele>415.79999999999995</ele><time>2026-04-12T08:44:32.526Z</time></trkpt><trkpt lat="38.5925204" lon="16.2395122"><ele>419.20000000000005</ele><time>2026-04-12T08:44:33.521Z</time></trkpt><trkpt lat="38.5925524" lon="16.2396219"><ele>422.6</ele><time>2026-04-12T08:44:34.521Z</time></trkpt><trkpt lat="38.592588" lon="16.2397191"><ele>426.0</ele><time>2026-04-12T08:44:35.526Z</time></trkpt><trkpt lat="38.5926343" lon="16.2398034"><ele>426.0</ele><time>2026-04-12T08:44:36.519Z</time></trkpt><trkpt lat="38.5927159" lon="16.2399062"><ele>426.0</ele><time>2026-04-12T08:44:38.534Z</time></trkpt><trkpt lat="38.5927256" lon="16.2400071"><ele>426.0</ele><time>2026-04-12T08:44:40.525Z</time></trkpt><trkpt lat="38.5926621" lon="16.2400313"><ele>426.0</ele><time>2026-04-12T08:44:42.518Z</time></trkpt><trkpt lat="38.592553" lon="16.2398637"><ele>426.0</ele><time>2026-04-12T08:44:45.517Z</time></trkpt><trkpt lat="38.5925045" lon="16.2397538"><ele>426.0</ele><time>2026-04-12T08:44:46.525Z</time></trkpt><trkpt lat="38.5924559" lon="16.2396257"><ele>426.0</ele><time>2026-04-12T08:44:47.527Z</time></trkpt><trkpt lat="38.5924089" lon="16.2394939"><ele>426.0</ele><time>2026-04-12T08:44:48.519Z</time></trkpt><trkpt lat="38.5923762" lon="16.2393605"><ele>426.0</ele><time>2026-04-12T08:44:49.526Z</time></trkpt><trkpt lat="38.5923507" lon="16.2392255"><ele>426.0</ele><time>2026-04-12T08:44:50.534Z</time></trkpt><trkpt lat="38.5923306" lon="16.2390863"><ele>422.6</ele><time>2026-04-12T08:44:51.52Z</time></trkpt><trkpt lat="38.5923121" lon="16.2389504"><ele>419.20000000000005</ele><time>2026-04-12T08:44:52.524Z</time></trkpt><trkpt lat="38.592292" lon="16.2388269"><ele>415.79999999999995</ele><time>2026-04-12T08:44:53.529Z</time></trkpt><trkpt lat="38.5922687" lon="16.2387098"><ele>412.4</ele><time>2026-04-12T08:44:54.514Z</time></trkpt><trkpt lat="38.5922492" lon="16.2385945"><ele>409.0</ele><time>2026-04-12T08:44:55.524Z</time></trkpt><trkpt lat="38.5922246" lon="16.2384906"><ele>409.0</ele><time>2026-04-12T08:44:56.529Z</time></trkpt><trkpt lat="38.5921825" lon="16.2383937"><ele>409.0</ele><time>2026-04-12T08:44:57.518Z</time></trkpt><trkpt lat="38.5921159" lon="16.2383073"><ele>409.0</ele><time>2026-04-12T08:44:58.534Z</time></trkpt><trkpt lat="38.59203" lon="16.238223"><ele>409.0</ele><time>2026-04-12T08:44:59.524Z</time></trkpt><trkpt lat="38.5919443" lon="16.2381303"><ele>409.0</ele><time>2026-04-12T08:45:00.521Z</time></trkpt><trkpt lat="38.5918714" lon="16.2380206"><ele>413.75</ele><time>2026-04-12T08:45:01.516Z</time></trkpt><trkpt lat="38.5918081" lon="16.2379033"><ele>418.5</ele><time>2026-04-12T08:45:02.529Z</time></trkpt><trkpt lat="38.5917613" lon="16.2377937"><ele>423.25</ele><time>2026-04-12T08:45:03.521Z</time></trkpt><trkpt lat="38.5916547" lon="16.2376014"><ele>428.0</ele><time>2026-04-12T08:45:05.522Z</time></trkpt><trkpt lat="38.5915903" lon="16.2375117"><ele>427.99999999999994</ele><time>2026-04-12T08:45:06.522Z</time></trkpt><trkpt lat="38.5915197" lon="16.2374417"><ele>428.0</ele><time>2026-04-12T08:45:07.527Z</time></trkpt><trkpt lat="38.5914637" lon="16.23736"><ele>428.0</ele><time>2026-04-12T08:45:08.527Z</time></trkpt><trkpt lat="38.5914076" lon="16.2372833"><ele>428.0</ele><time>2026-04-12T08:45:09.519Z</time></trkpt><trkpt lat="38.5913419" lon="16.2372145"><ele>427.99999999999994</ele><time>2026-04-12T08:45:10.524Z</time></trkpt><trkpt lat="38.5912665" lon="16.2371704"><ele>428.0</ele><time>2026-04-12T08:45:11.517Z</time></trkpt><trkpt lat="38.5911989" lon="16.2371582"><ele>428.0</ele><time>2026-04-12T08:45:12.518Z</time></trkpt><trkpt lat="38.5910973" lon="16.2371996"><ele>427.99999999999994</ele><time>2026-04-12T08:45:14.522Z</time></trkpt><trkpt lat="38.59102" lon="16.2372856"><ele>427.99999999999994</ele><time>2026-04-12T08:45:16.526Z</time></trkpt><trkpt lat="38.5910815" lon="16.237382"><ele>428.0</ele><time>2026-04-12T08:45:18.526Z</time></trkpt><trkpt lat="38.5912053" lon="16.2374067"><ele>428.0</ele><time>2026-04-12T08:45:20.526Z</time></trkpt><trkpt lat="38.5912629" lon="16.2374443"><ele>428.0</ele><time>2026-04-12T08:45:21.523Z</time></trkpt><trkpt lat="38.591324" lon="16.2375139"><ele>428.0</ele><time>2026-04-12T08:45:22.52Z</time></trkpt><trkpt lat="38.5913874" lon="16.2376085"><ele>428.0</ele><time>2026-04-12T08:45:23.513Z</time></trkpt><trkpt lat="38.5914554" lon="16.2377199"><ele>428.0</ele><time>2026-04-12T08:45:24.54Z</time></trkpt><trkpt lat="38.5915571" lon="16.237967"><ele>428.0</ele><time>2026-04-12T08:45:26.529Z</time></trkpt><trkpt lat="38.5915972" lon="16.2380868"><ele>427.99999999999994</ele><time>2026-04-12T08:45:27.519Z</time></trkpt><trkpt lat="38.5916378" lon="16.2382026"><ele>427.99999999999994</ele><time>2026-04-12T08:45:28.527Z</time></trkpt><trkpt lat="38.5916989" lon="16.2383038"><ele>428.0</ele><time>2026-04-12T08:45:29.514Z</time></trkpt><trkpt lat="38.5917687" lon="16.2384029"><ele>428.0</ele><time>2026-04-12T08:45:30.547Z</time></trkpt><trkpt lat="38.591833" lon="16.2385088"><ele>434.4</ele><time>2026-04-12T08:45:31.535Z</time></trkpt><trkpt lat="38.5918796" lon="16.238621"><ele>440.79999999999995</ele><time>2026-04-12T08:45:32.528Z</time></trkpt><trkpt lat="38.5919155" lon="16.2387355"><ele>447.2</ele><time>2026-04-12T08:45:33.529Z</time></trkpt><trkpt lat="38.5919415" lon="16.2388679"><ele>453.6</ele><time>2026-04-12T08:45:34.519Z</time></trkpt><trkpt lat="38.5919675" lon="16.2390168"><ele>460.0</ele><time>2026-04-12T08:45:35.528Z</time></trkpt><trkpt lat="38.5919992" lon="16.2392001"><ele>454.0</ele><time>2026-04-12T08:45:36.533Z</time></trkpt><trkpt lat="38.5920278" lon="16.239411"><ele>448.0</ele><time>2026-04-12T08:45:37.527Z</time></trkpt><trkpt lat="38.5920476" lon="16.2396384"><ele>442.0</ele><time>2026-04-12T08:45:38.522Z</time></trkpt><trkpt lat="38.5920706" lon="16.2398721"><ele>442.0</ele><time>2026-04-12T08:45:39.516Z</time></trkpt><trkpt lat="38.5921089" lon="16.2401044"><ele>442.0</ele><time>2026-04-12T08:45:40.523Z</time></trkpt><trkpt lat="38.5921632" lon="16.2403251"><ele>442.0</ele><time>2026-04-12T08:45:41.523Z</time></trkpt><trkpt lat="38.5922234" lon="16.2405244"><ele>445.75</ele><time>2026-04-12T08:45:42.523Z</time></trkpt><trkpt lat="38.5922979" lon="16.2406913"><ele>449.5</ele><time>2026-04-12T08:45:43.529Z</time></trkpt><trkpt lat="38.5923678" lon="16.2408443"><ele>453.25</ele><time>2026-04-12T08:45:44.546Z</time></trkpt><trkpt lat="38.5924017" lon="16.2409978"><ele>457.0</ele><time>2026-04-12T08:45:45.523Z</time></trkpt><trkpt lat="38.5924198" lon="16.2412715"><ele>457.0</ele><time>2026-04-12T08:45:47.527Z</time></trkpt><trkpt lat="38.5924069" lon="16.2413775"><ele>457.00000000000006</ele><time>2026-04-12T08:45:48.517Z</time></trkpt><trkpt lat="38.5923501" lon="16.241477"><ele>457.00000000000006</ele><time>2026-04-12T08:45:50.528Z</time></trkpt><trkpt lat="38.5922896" lon="16.2413847"><ele>457.0</ele><time>2026-04-12T08:45:52.533Z</time></trkpt><trkpt lat="38.5923097" lon="16.2412191"><ele>457.0</ele><time>2026-04-12T08:45:54.53Z</time></trkpt><trkpt lat="38.5923047" lon="16.2411046"><ele>457.0</ele><time>2026-04-12T08:45:55.523Z</time></trkpt><trkpt lat="38.5922781" lon="16.2409896"><ele>457.0</ele><time>2026-04-12T08:45:56.527Z</time></trkpt><trkpt lat="38.5922295" lon="16.2408787"><ele>457.0</ele><time>2026-04-12T08:45:57.53Z</time></trkpt><trkpt lat="38.5921647" lon="16.2407441"><ele>457.0</ele><time>2026-04-12T08:45:58.521Z</time></trkpt><trkpt lat="38.5920921" lon="16.2405833"><ele>452.0</ele><time>2026-04-12T08:45:59.525Z</time></trkpt><trkpt lat="38.5920142" lon="16.2404049"><ele>447.0</ele><time>2026-04-12T08:46:00.528Z</time></trkpt><trkpt lat="38.5919347" lon="16.2402173"><ele>442.0</ele><time>2026-04-12T08:46:01.519Z</time></trkpt><trkpt lat="38.5918771" lon="16.2400029"><ele>457.0</ele><time>2026-04-12T08:46:02.522Z</time></trkpt><trkpt lat="38.5918151" lon="16.2397867"><ele>472.0</ele><time>2026-04-12T08:46:03.527Z</time></trkpt><trkpt lat="38.5917697" lon="16.2395517"><ele>487.0</ele><time>2026-04-12T08:46:04.518Z</time></trkpt><trkpt lat="38.5917311" lon="16.2393543"><ele>487.0</ele><time>2026-04-12T08:46:05.523Z</time></trkpt><trkpt lat="38.5916826" lon="16.2392023"><ele>487.0</ele><time>2026-04-12T08:46:06.521Z</time></trkpt><trkpt lat="38.5915248" lon="16.2389033"><ele>487.0</ele><time>2026-04-12T08:46:08.52Z</time></trkpt><trkpt lat="38.5914089" lon="16.2387538"><ele>485.25</ele><time>2026-04-12T08:46:09.52Z</time></trkpt><trkpt lat="38.5912876" lon="16.2386073"><ele>483.5</ele><time>2026-04-12T08:46:10.525Z</time></trkpt><trkpt lat="38.5911932" lon="16.2384756"><ele>481.75</ele><time>2026-04-12T08:46:11.519Z</time></trkpt><trkpt lat="38.5911132" lon="16.2383738"><ele>480.0</ele><time>2026-04-12T08:46:12.523Z</time></trkpt><trkpt lat="38.5910396" lon="16.2383078"><ele>480.0</ele><time>2026-04-12T08:46:13.532Z</time></trkpt><trkpt lat="38.5909641" lon="16.2382808"><ele>480.0</ele><time>2026-04-12T08:46:14.531Z</time></trkpt><trkpt lat="38.5909021" lon="16.2382987"><ele>480.0</ele><time>2026-04-12T08:46:15.52Z</time></trkpt><trkpt lat="38.5908813" lon="16.2384115"><ele>480.0</ele><time>2026-04-12T08:46:17.531Z</time></trkpt><trkpt lat="38.5909854" lon="16.2385135"><ele>480.0</ele><time>2026-04-12T08:46:19.524Z</time></trkpt><trkpt lat="38.5910465" lon="16.2385964"><ele>480.0</ele><time>2026-04-12T08:46:20.53Z</time></trkpt><trkpt lat="38.5910998" lon="16.2387131"><ele>480.0</ele><time>2026-04-12T08:46:21.523Z</time></trkpt><trkpt lat="38.5911648" lon="16.2388441"><ele>480.0</ele><time>2026-04-12T08:46:22.518Z</time></trkpt><trkpt lat="38.5912499" lon="16.2389924"><ele>480.0</ele><time>2026-04-12T08:46:23.52Z</time></trkpt><trkpt lat="38.5913356" lon="16.2391319"><ele>481.75</ele><time>2026-04-12T08:46:24.527Z</time></trkpt><trkpt lat="38.5914067" lon="16.2392679"><ele>483.5</ele><time>2026-04-12T08:46:25.526Z</time></trkpt><trkpt lat="38.5914724" lon="16.2394117"><ele>485.25</ele><time>2026-04-12T08:46:26.518Z</time></trkpt><trkpt lat="38.591518" lon="16.2395754"><ele>487.0</ele><time>2026-04-12T08:46:27.524Z</time></trkpt><trkpt lat="38.5915158" lon="16.2399585"><ele>492.0</ele><time>2026-04-12T08:46:29.524Z</time></trkpt><trkpt lat="38.5915251" lon="16.2401763"><ele>497.0</ele><time>2026-04-12T08:46:30.52Z</time></trkpt><trkpt lat="38.5915428" lon="16.2403797"><ele>502.0</ele><time>2026-04-12T08:46:31.522Z</time></trkpt><trkpt lat="38.5915769" lon="16.240567"><ele>503.8</ele><time>2026-04-12T08:46:32.522Z</time></trkpt><trkpt lat="38.5916112" lon="16.2407377"><ele>505.6</ele><time>2026-04-12T08:46:33.516Z</time></trkpt><trkpt lat="38.5916301" lon="16.2408871"><ele>507.40000000000003</ele><time>2026-04-12T08:46:34.518Z</time></trkpt><trkpt lat="38.5916655" lon="16.2410057"><ele>509.20000000000005</ele><time>2026-04-12T08:46:35.525Z</time></trkpt><trkpt lat="38.5916921" lon="16.2410842"><ele>511.0</ele><time>2026-04-12T08:46:36.516Z</time></trkpt><trkpt lat="38.5917085" lon="16.2412107"><ele>511.00000000000006</ele><time>2026-04-12T08:46:38.531Z</time></trkpt><trkpt lat="38.5916541" lon="16.2412652"><ele>511.0</ele><time>2026-04-12T08:46:40.53Z</time></trkpt><trkpt lat="38.5915902" lon="16.2411889"><ele>511.0</ele><time>2026-04-12T08:46:42.526Z</time></trkpt><trkpt lat="38.5915671" lon="16.241109"><ele>511.0</ele><time>2026-04-12T08:46:43.519Z</time></trkpt><trkpt lat="38.591535" lon="16.241018"><ele>511.00000000000006</ele><time>2026-04-12T08:46:44.527Z</time></trkpt><trkpt lat="38.5914916" lon="16.2408811"><ele>511.0</ele><time>2026-04-12T08:46:45.528Z</time></trkpt><trkpt lat="38.591436" lon="16.2407245"><ele>508.0</ele><time>2026-04-12T08:46:46.525Z</time></trkpt><trkpt lat="38.5913673" lon="16.2405421"><ele>505.0</ele><time>2026-04-12T08:46:47.525Z</time></trkpt><trkpt lat="38.5913077" lon="16.2403557"><ele>502.0</ele><time>2026-04-12T08:46:48.524Z</time></trkpt><trkpt lat="38.5912502" lon="16.2400091"><ele>502.0</ele><time>2026-04-12T08:46:50.526Z</time></trkpt><trkpt lat="38.5912441" lon="16.239852"><ele>502.00000000000006</ele><time>2026-04-12T08:46:51.524Z</time></trkpt><trkpt lat="38.5912254" lon="16.2397139"><ele>502.00000000000006</ele><time>2026-04-12T08:46:52.527Z</time></trkpt><trkpt lat="38.5911861" lon="16.2395913"><ele>502.0</ele><time>2026-04-12T08:46:53.527Z</time></trkpt><trkpt lat="38.5911268" lon="16.239483"><ele>502.0</ele><time>2026-04-12T08:46:54.529Z</time></trkpt><trkpt lat="38.5910468" lon="16.2393818"><ele>505.6</ele><time>2026-04-12T08:46:55.519Z</time></trkpt><trkpt lat="38.5909709" lon="16.2392726"><ele>509.20000000000005</ele><time>2026-04-12T08:46:56.531Z</time></trkpt><trkpt lat="38.5908951" lon="16.2391866"><ele>512.8</ele><time>2026-04-12T08:46:57.526Z</time></trkpt><trkpt lat="38.5908223" lon="16.2391246"><ele>516.4</ele><time>2026-04-12T08:46:58.522Z</time></trkpt><trkpt lat="38.5907485" lon="16.2390855"><ele>520.0</ele><time>2026-04-12T08:46:59.517Z</time></trkpt><trkpt lat="38.5906662" lon="16.239061"><ele>520.0</ele><time>2026-04-12T08:47:00.525Z</time></trkpt><trkpt lat="38.5905861" lon="16.2390911"><ele>520.0</ele><time>2026-04-12T08:47:01.522Z</time></trkpt><trkpt lat="38.5905041" lon="16.2391565"><ele>520.0</ele><time>2026-04-12T08:47:02.524Z</time></trkpt><trkpt lat="38.5904202" lon="16.2392338"><ele>520.0</ele><time>2026-04-12T08:47:03.527Z</time></trkpt><trkpt lat="38.5903535" lon="16.2393302"><ele>520.0</ele><time>2026-04-12T08:47:04.523Z</time></trkpt><trkpt lat="38.5902999" lon="16.2394405"><ele>517.0</ele><time>2026-04-12T08:47:05.529Z</time></trkpt><trkpt lat="38.5902452" lon="16.2395571"><ele>514.0</ele><time>2026-04-12T08:47:06.526Z</time></trkpt><trkpt lat="38.5901825" lon="16.2396704"><ele>511.0</ele><time>2026-04-12T08:47:07.531Z</time></trkpt><trkpt lat="38.5901173" lon="16.2397848"><ele>508.0</ele><time>2026-04-12T08:47:08.536Z</time></trkpt><trkpt lat="38.5900359" lon="16.2398742"><ele>505.0</ele><time>2026-04-12T08:47:09.521Z</time></trkpt><trkpt lat="38.5899004" lon="16.2400169"><ele>510.00000000000006</ele><time>2026-04-12T08:47:11.515Z</time></trkpt><trkpt lat="38.5898358" lon="16.2400547"><ele>515.0</ele><time>2026-04-12T08:47:12.53Z</time></trkpt><trkpt lat="38.58974" lon="16.2401179"><ele>520.0</ele><time>2026-04-12T08:47:14.531Z</time></trkpt><trkpt lat="38.5897156" lon="16.2402291"><ele>525.0</ele><time>2026-04-12T08:47:16.521Z</time></trkpt><trkpt lat="38.5898224" lon="16.2402614"><ele>530.0</ele><time>2026-04-12T08:47:18.518Z</time></trkpt><trkpt lat="38.5898919" lon="16.2402468"><ele>535.0</ele><time>2026-04-12T08:47:19.525Z</time></trkpt><trkpt lat="38.5899768" lon="16.2401785"><ele>535.0</ele><time>2026-04-12T08:47:20.525Z</time></trkpt><trkpt lat="38.5900759" lon="16.240095"><ele>535.0</ele><time>2026-04-12T08:47:21.527Z</time></trkpt><trkpt lat="38.5901987" lon="16.2399812"><ele>535.0</ele><time>2026-04-12T08:47:22.521Z</time></trkpt><trkpt lat="38.5903119" lon="16.2398534"><ele>535.0</ele><time>2026-04-12T08:47:23.523Z</time></trkpt><trkpt lat="38.5904104" lon="16.2397303"><ele>532.0</ele><time>2026-04-12T08:47:24.518Z</time></trkpt><trkpt lat="38.5904941" lon="16.2396445"><ele>529.0</ele><time>2026-04-12T08:47:25.521Z</time></trkpt><trkpt lat="38.5905566" lon="16.2395813"><ele>526.0</ele><time>2026-04-12T08:47:26.519Z</time></trkpt><trkpt lat="38.5906448" lon="16.2395837"><ele>523.0</ele><time>2026-04-12T08:47:27.529Z</time></trkpt><trkpt lat="38.5907171" lon="16.2396577"><ele>520.0</ele><time>2026-04-12T08:47:28.527Z</time></trkpt><trkpt lat="38.5907762" lon="16.2397621"><ele>527.3333333333334</ele><time>2026-04-12T08:47:29.523Z</time></trkpt><trkpt lat="38.5907937" lon="16.2398983"><ele>534.6666666666666</ele><time>2026-04-12T08:47:30.527Z</time></trkpt><trkpt lat="38.5907605" lon="16.2402059"><ele>542.0</ele><time>2026-04-12T08:47:32.523Z</time></trkpt><trkpt lat="38.5907571" lon="16.2403614"><ele>542.0</ele><time>2026-04-12T08:47:33.525Z</time></trkpt><trkpt lat="38.5907701" lon="16.2405189"><ele>542.0</ele><time>2026-04-12T08:47:34.532Z</time></trkpt><trkpt lat="38.5907973" lon="16.2406812"><ele>542.0</ele><time>2026-04-12T08:47:35.526Z</time></trkpt><trkpt lat="38.5908269" lon="16.2408434"><ele>542.0</ele><time>2026-04-12T08:47:36.532Z</time></trkpt><trkpt lat="38.5908528" lon="16.2409901"><ele>544.2</ele><time>2026-04-12T08:47:37.517Z</time></trkpt><trkpt lat="38.5908668" lon="16.241118"><ele>546.4000000000001</ele><time>2026-04-12T08:47:38.524Z</time></trkpt><trkpt lat="38.5908564" lon="16.2412345"><ele>548.5999999999999</ele><time>2026-04-12T08:47:39.531Z</time></trkpt><trkpt lat="38.5908315" lon="16.2413557"><ele>550.8</ele><time>2026-04-12T08:47:40.524Z</time></trkpt><trkpt lat="38.5907518" lon="16.2414558"><ele>553.0</ele><time>2026-04-12T08:47:41.526Z</time></trkpt><trkpt lat="38.5906794" lon="16.2415698"><ele>553.4</ele><time>2026-04-12T08:47:42.533Z</time></trkpt><trkpt lat="38.5906258" lon="16.2416957"><ele>553.8</ele><time>2026-04-12T08:47:43.518Z</time></trkpt><trkpt lat="38.5905844" lon="16.2418236"><ele>554.2</ele><time>2026-04-12T08:47:44.53Z</time></trkpt><trkpt lat="38.5905614" lon="16.2419415"><ele>554.6</ele><time>2026-04-12T08:47:45.523Z</time></trkpt><trkpt lat="38.5905395" lon="16.2420479"><ele>555.0</ele><time>2026-04-12T08:47:46.528Z</time></trkpt><trkpt lat="38.5905597" lon="16.2421562"><ele>555.0</ele><time>2026-04-12T08:47:47.533Z</time></trkpt><trkpt lat="38.5905944" lon="16.242265"><ele>555.0</ele><time>2026-04-12T08:47:48.525Z</time></trkpt><trkpt lat="38.5906556" lon="16.2423685"><ele>555.0</ele><time>2026-04-12T08:47:49.529Z</time></trkpt><trkpt lat="38.5907461" lon="16.2424745"><ele>555.0</ele><time>2026-04-12T08:47:50.532Z</time></trkpt><trkpt lat="38.5908471" lon="16.2425825"><ele>555.0</ele><time>2026-04-12T08:47:51.545Z</time></trkpt><trkpt lat="38.5910418" lon="16.2428074"><ele>553.2</ele><time>2026-04-12T08:47:53.52Z</time></trkpt><trkpt lat="38.5911352" lon="16.2429069"><ele>551.4</ele><time>2026-04-12T08:47:54.523Z</time></trkpt><trkpt lat="38.5911975" lon="16.2430118"><ele>549.6</ele><time>2026-04-12T08:47:55.528Z</time></trkpt><trkpt lat="38.5912275" lon="16.2431343"><ele>547.8</ele><time>2026-04-12T08:47:56.524Z</time></trkpt><trkpt lat="38.5912258" lon="16.2432727"><ele>546.0</ele><time>2026-04-12T08:47:57.528Z</time></trkpt><trkpt lat="38.5912265" lon="16.2433926"><ele>546.0</ele><time>2026-04-12T08:47:58.527Z</time></trkpt><trkpt lat="38.5912267" lon="16.2435438"><ele>546.0</ele><time>2026-04-12T08:47:59.519Z</time></trkpt><trkpt lat="38.591231" lon="16.2437142"><ele>546.0</ele><time>2026-04-12T08:48:00.519Z</time></trkpt><trkpt lat="38.5912482" lon="16.2438779"><ele>546.0</ele><time>2026-04-12T08:48:01.517Z</time></trkpt><trkpt lat="38.5912626" lon="16.2440451"><ele>548.25</ele><time>2026-04-12T08:48:02.522Z</time></trkpt><trkpt lat="38.5912822" lon="16.2442215"><ele>550.5</ele><time>2026-04-12T08:48:03.521Z</time></trkpt><trkpt lat="38.5912918" lon="16.2443978"><ele>552.75</ele><time>2026-04-12T08:48:04.53Z</time></trkpt><trkpt lat="38.5912801" lon="16.2445732"><ele>555.0</ele><time>2026-04-12T08:48:05.525Z</time></trkpt><trkpt lat="38.5912669" lon="16.2447554"><ele>558.3333333333334</ele><time>2026-04-12T08:48:06.521Z</time></trkpt><trkpt lat="38.5912402" lon="16.2449496"><ele>561.6666666666667</ele><time>2026-04-12T08:48:07.529Z</time></trkpt><trkpt lat="38.591218" lon="16.2451514"><ele>565.0</ele><time>2026-04-12T08:48:08.53Z</time></trkpt><trkpt lat="38.5912011" lon="16.245371"><ele>565.0</ele><time>2026-04-12T08:48:09.518Z</time></trkpt><trkpt lat="38.5911915" lon="16.245572"><ele>565.0</ele><time>2026-04-12T08:48:10.536Z</time></trkpt><trkpt lat="38.5911845" lon="16.2457565"><ele>565.0</ele><time>2026-04-12T08:48:11.515Z</time></trkpt><trkpt lat="38.5912114" lon="16.2459282"><ele>565.0</ele><time>2026-04-12T08:48:12.524Z</time></trkpt><trkpt lat="38.5912692" lon="16.2462498"><ele>567.25</ele><time>2026-04-12T08:48:14.52Z</time></trkpt><trkpt lat="38.5912832" lon="16.2463958"><ele>569.5</ele><time>2026-04-12T08:48:15.52Z</time></trkpt><trkpt lat="38.5912519" lon="16.2465657"><ele>571.75</ele><time>2026-04-12T08:48:16.526Z</time></trkpt><trkpt lat="38.5912173" lon="16.2467547"><ele>574.0</ele><time>2026-04-12T08:48:17.526Z</time></trkpt><trkpt lat="38.591196" lon="16.2469486"><ele>585.0</ele><time>2026-04-12T08:48:18.524Z</time></trkpt><trkpt lat="38.5911739" lon="16.2471622"><ele>596.0</ele><time>2026-04-12T08:48:19.526Z</time></trkpt><trkpt lat="38.5911362" lon="16.2473807"><ele>607.0</ele><time>2026-04-12T08:48:20.526Z</time></trkpt><trkpt lat="38.5910902" lon="16.2475796"><ele>607.0</ele><time>2026-04-12T08:48:21.52Z</time></trkpt><trkpt lat="38.5910478" lon="16.2477628"><ele>607.0</ele><time>2026-04-12T08:48:22.524Z</time></trkpt><trkpt lat="38.5910377" lon="16.2479051"><ele>607.0</ele><time>2026-04-12T08:48:23.531Z</time></trkpt><trkpt lat="38.5910575" lon="16.2480331"><ele>607.0</ele><time>2026-04-12T08:48:24.521Z</time></trkpt><trkpt lat="38.591106" lon="16.2481529"><ele>603.4</ele><time>2026-04-12T08:48:25.522Z</time></trkpt><trkpt lat="38.5911817" lon="16.2482458"><ele>599.8000000000001</ele><time>2026-04-12T08:48:26.531Z</time></trkpt><trkpt lat="38.5912581" lon="16.2483512"><ele>596.2</ele><time>2026-04-12T08:48:27.525Z</time></trkpt><trkpt lat="38.5913475" lon="16.2484373"><ele>592.6</ele><time>2026-04-12T08:48:28.518Z</time></trkpt><trkpt lat="38.5914234" lon="16.2485393"><ele>589.0</ele><time>2026-04-12T08:48:29.525Z</time></trkpt><trkpt lat="38.5914951" lon="16.2486595"><ele>589.0</ele><time>2026-04-12T08:48:30.532Z</time></trkpt><trkpt lat="38.5915761" lon="16.24875"><ele>589.0</ele><time>2026-04-12T08:48:31.522Z</time></trkpt><trkpt lat="38.5916567" lon="16.2488181"><ele>589.0</ele><time>2026-04-12T08:48:32.524Z</time></trkpt><trkpt lat="38.5917177" lon="16.2488818"><ele>589.0</ele><time>2026-04-12T08:48:33.529Z</time></trkpt><trkpt lat="38.5918064" lon="16.2490335"><ele>589.0</ele><time>2026-04-12T08:48:35.529Z</time></trkpt><trkpt lat="38.5918112" lon="16.2491297"><ele>590.6</ele><time>2026-04-12T08:48:36.566Z</time></trkpt><trkpt lat="38.5918028" lon="16.2492346"><ele>592.2</ele><time>2026-04-12T08:48:37.53Z</time></trkpt><trkpt lat="38.5917502" lon="16.2493467"><ele>593.8000000000001</ele><time>2026-04-12T08:48:38.53Z</time></trkpt><trkpt lat="38.5916832" lon="16.2494628"><ele>595.4</ele><time>2026-04-12T08:48:39.512Z</time></trkpt><trkpt lat="38.5916067" lon="16.249574"><ele>597.0</ele><time>2026-04-12T08:48:40.523Z</time></trkpt><trkpt lat="38.5915232" lon="16.2496699"><ele>597.0</ele><time>2026-04-12T08:48:41.53Z</time></trkpt><trkpt lat="38.5914543" lon="16.249784"><ele>597.0</ele><time>2026-04-12T08:48:42.523Z</time></trkpt><trkpt lat="38.5914099" lon="16.2499189"><ele>597.0</ele><time>2026-04-12T08:48:43.522Z</time></trkpt><trkpt lat="38.5913951" lon="16.2500724"><ele>597.0</ele><time>2026-04-12T08:48:44.521Z</time></trkpt><trkpt lat="38.5913808" lon="16.2502208"><ele>598.25</ele><time>2026-04-12T08:48:45.524Z</time></trkpt><trkpt lat="38.5913958" lon="16.2503754"><ele>599.5</ele><time>2026-04-12T08:48:46.528Z</time></trkpt><trkpt lat="38.5913946" lon="16.250539"><ele>600.75</ele><time>2026-04-12T08:48:47.513Z</time></trkpt><trkpt lat="38.5913614" lon="16.2506928"><ele>602.0</ele><time>2026-04-12T08:48:48.52Z</time></trkpt><trkpt lat="38.5912981" lon="16.2508353"><ele>602.0</ele><time>2026-04-12T08:48:49.517Z</time></trkpt><trkpt lat="38.5912324" lon="16.2509643"><ele>602.0</ele><time>2026-04-12T08:48:50.527Z</time></trkpt><trkpt lat="38.5911622" lon="16.2510966"><ele>602.0</ele><time>2026-04-12T08:48:51.536Z</time></trkpt><trkpt lat="38.5911056" lon="16.2512258"><ele>602.0</ele><time>2026-04-12T08:48:52.526Z</time></trkpt><trkpt lat="38.5910678" lon="16.2513552"><ele>602.6</ele><time>2026-04-12T08:48:53.516Z</time></trkpt><trkpt lat="38.5910378" lon="16.2514681"><ele>603.2</ele><time>2026-04-12T08:48:54.524Z</time></trkpt><trkpt lat="38.591024" lon="16.2516649"><ele>603.8</ele><time>2026-04-12T08:48:56.524Z</time></trkpt><trkpt lat="38.5910536" lon="16.2517455"><ele>604.4</ele><time>2026-04-12T08:48:57.527Z</time></trkpt><trkpt lat="38.5911112" lon="16.2518174"><ele>605.0</ele><time>2026-04-12T08:48:58.526Z</time></trkpt><trkpt lat="38.5911909" lon="16.251876"><ele>605.0</ele><time>2026-04-12T08:48:59.515Z</time></trkpt><trkpt lat="38.5912894" lon="16.2519337"><ele>605.0</ele><time>2026-04-12T08:49:00.523Z</time></trkpt><trkpt lat="38.5913806" lon="16.2519928"><ele>605.0</ele><time>2026-04-12T08:49:01.522Z</time></trkpt><trkpt lat="38.5914765" lon="16.2520411"><ele>605.0</ele><time>2026-04-12T08:49:02.529Z</time></trkpt><trkpt lat="38.5915555" lon="16.2521162"><ele>605.0</ele><time>2026-04-12T08:49:03.524Z</time></trkpt><trkpt lat="38.5916077" lon="16.2522019"><ele>607.8</ele><time>2026-04-12T08:49:04.534Z</time></trkpt><trkpt lat="38.5916471" lon="16.2522968"><ele>610.6</ele><time>2026-04-12T08:49:05.52Z</time></trkpt><trkpt lat="38.5916534" lon="16.2524117"><ele>613.4</ele><time>2026-04-12T08:49:06.522Z</time></trkpt><trkpt lat="38.5916567" lon="16.2525459"><ele>616.2</ele><time>2026-04-12T08:49:07.523Z</time></trkpt><trkpt lat="38.5916421" lon="16.2526898"><ele>619.0</ele><time>2026-04-12T08:49:08.525Z</time></trkpt><trkpt lat="38.5916266" lon="16.2528438"><ele>619.0</ele><time>2026-04-12T08:49:09.523Z</time></trkpt><trkpt lat="38.59162" lon="16.2529979"><ele>619.0</ele><time>2026-04-12T08:49:10.524Z</time></trkpt><trkpt lat="38.5916193" lon="16.253126"><ele>619.0</ele><time>2026-04-12T08:49:11.521Z</time></trkpt><trkpt lat="38.5916298" lon="16.2532322"><ele>619.0</ele><time>2026-04-12T08:49:12.521Z</time></trkpt><trkpt lat="38.5916429" lon="16.2533164"><ele>619.0</ele><time>2026-04-12T08:49:13.519Z</time></trkpt><trkpt lat="38.591695" lon="16.2533718"><ele>619.0</ele><time>2026-04-12T08:49:14.523Z</time></trkpt><trkpt lat="38.5918235" lon="16.2533594"><ele>621.0</ele><time>2026-04-12T08:49:16.519Z</time></trkpt><trkpt lat="38.5919442" lon="16.2532298"><ele>623.0</ele><time>2026-04-12T08:49:18.524Z</time></trkpt><trkpt lat="38.5920319" lon="16.2531452"><ele>625.0</ele><time>2026-04-12T08:49:19.524Z</time></trkpt><trkpt lat="38.5921253" lon="16.2530582"><ele>627.0</ele><time>2026-04-12T08:49:20.521Z</time></trkpt><trkpt lat="38.5922156" lon="16.2529636"><ele>627.0</ele><time>2026-04-12T08:49:21.53Z</time></trkpt><trkpt lat="38.5922785" lon="16.2528576"><ele>627.0</ele><time>2026-04-12T08:49:22.523Z</time></trkpt><trkpt lat="38.5923185" lon="16.2527227"><ele>627.0</ele><time>2026-04-12T08:49:23.524Z</time></trkpt><trkpt lat="38.5923482" lon="16.2525655"><ele>627.0</ele><time>2026-04-12T08:49:24.52Z</time></trkpt><trkpt lat="38.5923701" lon="16.2523972"><ele>624.75</ele><time>2026-04-12T08:49:25.526Z</time></trkpt><trkpt lat="38.5924012" lon="16.2522262"><ele>622.5</ele><time>2026-04-12T08:49:26.52Z</time></trkpt><trkpt lat="38.592452" lon="16.2520718"><ele>620.25</ele><time>2026-04-12T08:49:27.523Z</time></trkpt><trkpt lat="38.5925322" lon="16.2519379"><ele>618.0</ele><time>2026-04-12T08:49:28.525Z</time></trkpt><trkpt lat="38.5926389" lon="16.2518152"><ele>618.0</ele><time>2026-04-12T08:49:29.519Z</time></trkpt><trkpt lat="38.5927529" lon="16.2517116"><ele>618.0</ele><time>2026-04-12T08:49:30.525Z</time></trkpt><trkpt lat="38.5928546" lon="16.2516339"><ele>618.0</ele><time>2026-04-12T08:49:31.529Z</time></trkpt><trkpt lat="38.5929536" lon="16.2515855"><ele>618.0</ele><time>2026-04-12T08:49:32.529Z</time></trkpt><trkpt lat="38.5930486" lon="16.2515731"><ele>620.6</ele><time>2026-04-12T08:49:33.536Z</time></trkpt><trkpt lat="38.59314" lon="16.2516074"><ele>623.1999999999999</ele><time>2026-04-12T08:49:34.527Z</time></trkpt><trkpt lat="38.5932382" lon="16.2516716"><ele>625.8</ele><time>2026-04-12T08:49:35.532Z</time></trkpt><trkpt lat="38.5933416" lon="16.2517527"><ele>628.4</ele><time>2026-04-12T08:49:36.523Z</time></trkpt><trkpt lat="38.5934394" lon="16.25184"><ele>631.0</ele><time>2026-04-12T08:49:37.532Z</time></trkpt><trkpt lat="38.5935953" lon="16.2520361"><ele>631.0</ele><time>2026-04-12T08:49:39.526Z</time></trkpt><trkpt lat="38.5936439" lon="16.2521347"><ele>631.0</ele><time>2026-04-12T08:49:40.527Z</time></trkpt><trkpt lat="38.5936841" lon="16.2522403"><ele>631.0</ele><time>2026-04-12T08:49:41.515Z</time></trkpt><trkpt lat="38.5936771" lon="16.252363"><ele>631.0</ele><time>2026-04-12T08:49:42.532Z</time></trkpt><trkpt lat="38.5936655" lon="16.2524758"><ele>631.0</ele><time>2026-04-12T08:49:43.527Z</time></trkpt><trkpt lat="38.5936251" lon="16.2526072"><ele>632.8</ele><time>2026-04-12T08:49:44.527Z</time></trkpt><trkpt lat="38.5935894" lon="16.2527378"><ele>634.6</ele><time>2026-04-12T08:49:45.521Z</time></trkpt><trkpt lat="38.5935565" lon="16.2528695"><ele>636.4</ele><time>2026-04-12T08:49:46.524Z</time></trkpt><trkpt lat="38.5935286" lon="16.2529959"><ele>638.2</ele><time>2026-04-12T08:49:47.524Z</time></trkpt><trkpt lat="38.5935063" lon="16.2531208"><ele>640.0</ele><time>2026-04-12T08:49:48.524Z</time></trkpt><trkpt lat="38.5934986" lon="16.2532466"><ele>640.5</ele><time>2026-04-12T08:49:49.526Z</time></trkpt><trkpt lat="38.5934986" lon="16.2533763"><ele>641.0</ele><time>2026-04-12T08:49:50.521Z</time></trkpt><trkpt lat="38.5935352" lon="16.2535061"><ele>641.5</ele><time>2026-04-12T08:49:51.519Z</time></trkpt><trkpt lat="38.5935795" lon="16.2536418"><ele>642.0</ele><time>2026-04-12T08:49:52.515Z</time></trkpt><trkpt lat="38.593645" lon="16.2537862"><ele>641.75</ele><time>2026-04-12T08:49:53.52Z</time></trkpt><trkpt lat="38.5937019" lon="16.2539268"><ele>641.5</ele><time>2026-04-12T08:49:54.525Z</time></trkpt><trkpt lat="38.593752" lon="16.2540795"><ele>641.25</ele><time>2026-04-12T08:49:55.525Z</time></trkpt><trkpt lat="38.5937729" lon="16.2542292"><ele>641.0</ele><time>2026-04-12T08:49:56.55Z</time></trkpt><trkpt lat="38.5937675" lon="16.2543965"><ele>641.0</ele><time>2026-04-12T08:49:57.522Z</time></trkpt><trkpt lat="38.5937559" lon="16.2545737"><ele>641.0</ele><time>2026-04-12T08:49:58.526Z</time></trkpt><trkpt lat="38.5937295" lon="16.2549361"><ele>641.0</ele><time>2026-04-12T08:50:00.528Z</time></trkpt><trkpt lat="38.5937237" lon="16.2551008"><ele>642.0</ele><time>2026-04-12T08:50:01.525Z</time></trkpt><trkpt lat="38.5937223" lon="16.2552594"><ele>643.0</ele><time>2026-04-12T08:50:02.53Z</time></trkpt><trkpt lat="38.5937314" lon="16.2554114"><ele>644.0</ele><time>2026-04-12T08:50:03.525Z</time></trkpt><trkpt lat="38.5937685" lon="16.2555521"><ele>645.0</ele><time>2026-04-12T08:50:04.528Z</time></trkpt><trkpt lat="38.5938361" lon="16.2556838"><ele>646.0</ele><time>2026-04-12T08:50:05.527Z</time></trkpt><trkpt lat="38.5939128" lon="16.2558014"><ele>647.0</ele><time>2026-04-12T08:50:06.529Z</time></trkpt><trkpt lat="38.59398" lon="16.255909"><ele>648.0</ele><time>2026-04-12T08:50:07.528Z</time></trkpt><trkpt lat="38.5940398" lon="16.2560111"><ele>649.0</ele><time>2026-04-12T08:50:08.529Z</time></trkpt><trkpt lat="38.5940704" lon="16.2561255"><ele>650.0</ele><time>2026-04-12T08:50:09.516Z</time></trkpt><trkpt lat="38.5940918" lon="16.2562564"><ele>650.0</ele><time>2026-04-12T08:50:10.532Z</time></trkpt><trkpt lat="38.5940911" lon="16.2564"><ele>650.0</ele><time>2026-04-12T08:50:11.52Z</time></trkpt><trkpt lat="38.5940857" lon="16.2565527"><ele>650.0</ele><time>2026-04-12T08:50:12.531Z</time></trkpt><trkpt lat="38.5940662" lon="16.2567034"><ele>650.0</ele><time>2026-04-12T08:50:13.524Z</time></trkpt><trkpt lat="38.5940291" lon="16.2568253"><ele>651.6</ele><time>2026-04-12T08:50:14.518Z</time></trkpt><trkpt lat="38.5939783" lon="16.2569245"><ele>653.2</ele><time>2026-04-12T08:50:15.529Z</time></trkpt><trkpt lat="38.5939056" lon="16.2570164"><ele>654.8</ele><time>2026-04-12T08:50:16.525Z</time></trkpt><trkpt lat="38.5938124" lon="16.2571091"><ele>656.4</ele><time>2026-04-12T08:50:17.52Z</time></trkpt><trkpt lat="38.5937157" lon="16.2571826"><ele>658.0</ele><time>2026-04-12T08:50:18.519Z</time></trkpt><trkpt lat="38.593645" lon="16.2572704"><ele>660.0</ele><time>2026-04-12T08:50:19.515Z</time></trkpt><trkpt lat="38.5935251" lon="16.2574948"><ele>662.0</ele><time>2026-04-12T08:50:21.532Z</time></trkpt><trkpt lat="38.5934863" lon="16.2576445"><ele>664.0</ele><time>2026-04-12T08:50:22.52Z</time></trkpt><trkpt lat="38.5934689" lon="16.2578047"><ele>664.0</ele><time>2026-04-12T08:50:23.518Z</time></trkpt><trkpt lat="38.5934547" lon="16.2579898"><ele>664.0</ele><time>2026-04-12T08:50:24.526Z</time></trkpt><trkpt lat="38.5934405" lon="16.2581993"><ele>664.0</ele><time>2026-04-12T08:50:25.522Z</time></trkpt><trkpt lat="38.5934268" lon="16.2583999"><ele>664.75</ele><time>2026-04-12T08:50:26.527Z</time></trkpt><trkpt lat="38.5934178" lon="16.2585641"><ele>665.5</ele><time>2026-04-12T08:50:27.514Z</time></trkpt><trkpt lat="38.5934108" lon="16.2587115"><ele>666.25</ele><time>2026-04-12T08:50:28.517Z</time></trkpt><trkpt lat="38.5934048" lon="16.2588482"><ele>667.0</ele><time>2026-04-12T08:50:29.526Z</time></trkpt><trkpt lat="38.5933993" lon="16.2589853"><ele>667.4000000000001</ele><time>2026-04-12T08:50:30.537Z</time></trkpt><trkpt lat="38.5933917" lon="16.259121"><ele>667.8000000000001</ele><time>2026-04-12T08:50:31.527Z</time></trkpt><trkpt lat="38.5933823" lon="16.2592537"><ele>668.2</ele><time>2026-04-12T08:50:32.525Z</time></trkpt><trkpt lat="38.5933694" lon="16.2593881"><ele>668.6</ele><time>2026-04-12T08:50:33.532Z</time></trkpt><trkpt lat="38.5933492" lon="16.2595232"><ele>669.0</ele><time>2026-04-12T08:50:34.517Z</time></trkpt><trkpt lat="38.5933112" lon="16.2596662"><ele>670.25</ele><time>2026-04-12T08:50:35.526Z</time></trkpt><trkpt lat="38.5932536" lon="16.2598056"><ele>671.5</ele><time>2026-04-12T08:50:36.528Z</time></trkpt><trkpt lat="38.5931822" lon="16.2599418"><ele>672.75</ele><time>2026-04-12T08:50:37.531Z</time></trkpt><trkpt lat="38.5931016" lon="16.2600772"><ele>674.0</ele><time>2026-04-12T08:50:38.522Z</time></trkpt><trkpt lat="38.5930186" lon="16.2602089"><ele>674.0</ele><time>2026-04-12T08:50:39.525Z</time></trkpt><trkpt lat="38.5929324" lon="16.2603428"><ele>674.0</ele><time>2026-04-12T08:50:40.533Z</time></trkpt><trkpt lat="38.5927628" lon="16.2606135"><ele>674.0</ele><time>2026-04-12T08:50:42.537Z</time></trkpt><trkpt lat="38.592679" lon="16.2607476"><ele>675.5</ele><time>2026-04-12T08:50:43.533Z</time></trkpt><trkpt lat="38.5926043" lon="16.2608866"><ele>677.0</ele><time>2026-04-12T08:50:44.533Z</time></trkpt><trkpt lat="38.5925358" lon="16.2610291"><ele>678.5</ele><time>2026-04-12T08:50:45.522Z</time></trkpt><trkpt lat="38.5924806" lon="16.2611688"><ele>680.0</ele><time>2026-04-12T08:50:46.528Z</time></trkpt><trkpt lat="38.5924333" lon="16.2613134"><ele>681.75</ele><time>2026-04-12T08:50:47.522Z</time></trkpt><trkpt lat="38.592391" lon="16.2614608"><ele>683.5</ele><time>2026-04-12T08:50:48.529Z</time></trkpt><trkpt lat="38.5923474" lon="16.2615985"><ele>685.25</ele><time>2026-04-12T08:50:49.526Z</time></trkpt><trkpt lat="38.5922893" lon="16.2617173"><ele>687.0</ele><time>2026-04-12T08:50:50.528Z</time></trkpt><trkpt lat="38.5922085" lon="16.2618133"><ele>687.0</ele><time>2026-04-12T08:50:51.519Z</time></trkpt><trkpt lat="38.5921128" lon="16.2618847"><ele>687.0</ele><time>2026-04-12T08:50:52.529Z</time></trkpt><trkpt lat="38.5920131" lon="16.2619551"><ele>687.0</ele><time>2026-04-12T08:50:53.529Z</time></trkpt><trkpt lat="38.5919171" lon="16.2620473"><ele>687.0</ele><time>2026-04-12T08:50:54.529Z</time></trkpt><trkpt lat="38.5918313" lon="16.2621623"><ele>688.5</ele><time>2026-04-12T08:50:55.519Z</time></trkpt><trkpt lat="38.5917532" lon="16.262292"><ele>690.0</ele><time>2026-04-12T08:50:56.519Z</time></trkpt><trkpt lat="38.591671" lon="16.2624201"><ele>691.5</ele><time>2026-04-12T08:50:57.528Z</time></trkpt><trkpt lat="38.591585" lon="16.2625315"><ele>693.0</ele><time>2026-04-12T08:50:58.526Z</time></trkpt><trkpt lat="38.5914925" lon="16.2626128"><ele>693.0</ele><time>2026-04-12T08:50:59.523Z</time></trkpt><trkpt lat="38.5913917" lon="16.2626548"><ele>693.0</ele><time>2026-04-12T08:51:00.527Z</time></trkpt><trkpt lat="38.5912838" lon="16.2626617"><ele>693.0</ele><time>2026-04-12T08:51:01.525Z</time></trkpt><trkpt lat="38.5910713" lon="16.2626915"><ele>693.0</ele><time>2026-04-12T08:51:03.524Z</time></trkpt><trkpt lat="38.5909743" lon="16.2627542"><ele>693.25</ele><time>2026-04-12T08:51:04.526Z</time></trkpt><trkpt lat="38.5908926" lon="16.2628484"><ele>693.5</ele><time>2026-04-12T08:51:05.523Z</time></trkpt><trkpt lat="38.5908288" lon="16.262977"><ele>693.75</ele><time>2026-04-12T08:51:06.524Z</time></trkpt><trkpt lat="38.5907753" lon="16.2631331"><ele>694.0</ele><time>2026-04-12T08:51:07.528Z</time></trkpt><trkpt lat="38.5907246" lon="16.2633009"><ele>695.0</ele><time>2026-04-12T08:51:08.522Z</time></trkpt><trkpt lat="38.5906716" lon="16.2634695"><ele>696.0</ele><time>2026-04-12T08:51:09.521Z</time></trkpt><trkpt lat="38.590618" lon="16.2636374"><ele>697.0</ele><time>2026-04-12T08:51:10.525Z</time></trkpt><trkpt lat="38.5905742" lon="16.2638099"><ele>698.0</ele><time>2026-04-12T08:51:11.524Z</time></trkpt><trkpt lat="38.5905513" lon="16.2639919"><ele>700.3333333333333</ele><time>2026-04-12T08:51:12.524Z</time></trkpt><trkpt lat="38.590547" lon="16.2641834"><ele>702.6666666666666</ele><time>2026-04-12T08:51:13.52Z</time></trkpt><trkpt lat="38.5905517" lon="16.2643954"><ele>705.0</ele><time>2026-04-12T08:51:14.521Z</time></trkpt><trkpt lat="38.5905476" lon="16.26462"><ele>706.0</ele><time>2026-04-12T08:51:15.519Z</time></trkpt><trkpt lat="38.5905289" lon="16.264843"><ele>707.0</ele><time>2026-04-12T08:51:16.521Z</time></trkpt><trkpt lat="38.5905072" lon="16.2650599"><ele>708.0</ele><time>2026-04-12T08:51:17.522Z</time></trkpt><trkpt lat="38.5904857" lon="16.2652718"><ele>708.0</ele><time>2026-04-12T08:51:18.526Z</time></trkpt><trkpt lat="38.5904535" lon="16.2654771"><ele>708.0</ele><time>2026-04-12T08:51:19.537Z</time></trkpt><trkpt lat="38.5904075" lon="16.2656605"><ele>708.0</ele><time>2026-04-12T08:51:20.52Z</time></trkpt><trkpt lat="38.5903537" lon="16.2658203"><ele>706.0</ele><time>2026-04-12T08:51:21.528Z</time></trkpt><trkpt lat="38.5902948" lon="16.2659667"><ele>704.0</ele><time>2026-04-12T08:51:22.529Z</time></trkpt><trkpt lat="38.590162" lon="16.2662296"><ele>702.0</ele><time>2026-04-12T08:51:24.524Z</time></trkpt><trkpt lat="38.5901264" lon="16.2663461"><ele>702.5</ele><time>2026-04-12T08:51:25.52Z</time></trkpt><trkpt lat="38.5901244" lon="16.2664543"><ele>703.0</ele><time>2026-04-12T08:51:26.52Z</time></trkpt><trkpt lat="38.5901649" lon="16.2665391"><ele>703.5</ele><time>2026-04-12T08:51:27.525Z</time></trkpt><trkpt lat="38.5902358" lon="16.2665919"><ele>704.0</ele><time>2026-04-12T08:51:28.527Z</time></trkpt><trkpt lat="38.5903171" lon="16.2666296"><ele>704.5</ele><time>2026-04-12T08:51:29.519Z</time></trkpt><trkpt lat="38.5904331" lon="16.2666431"><ele>705.0</ele><time>2026-04-12T08:51:30.523Z</time></trkpt><trkpt lat="38.590566" lon="16.2666737"><ele>709.3333333333334</ele><time>2026-04-12T08:51:31.525Z</time></trkpt><trkpt lat="38.590709" lon="16.2667243"><ele>713.6666666666667</ele><time>2026-04-12T08:51:32.522Z</time></trkpt><trkpt lat="38.5908596" lon="16.2667734"><ele>718.0</ele><time>2026-04-12T08:51:33.529Z</time></trkpt><trkpt lat="38.5910087" lon="16.266822"><ele>718.0</ele><time>2026-04-12T08:51:34.532Z</time></trkpt><trkpt lat="38.5911489" lon="16.2668832"><ele>718.0</ele><time>2026-04-12T08:51:35.536Z</time></trkpt><trkpt lat="38.5912679" lon="16.2669666"><ele>718.0</ele><time>2026-04-12T08:51:36.528Z</time></trkpt><trkpt lat="38.5913643" lon="16.2670765"><ele>718.0</ele><time>2026-04-12T08:51:37.52Z</time></trkpt><trkpt lat="38.5914272" lon="16.2672231"><ele>719.75</ele><time>2026-04-12T08:51:38.533Z</time></trkpt><trkpt lat="38.5914536" lon="16.2673901"><ele>721.5</ele><time>2026-04-12T08:51:39.532Z</time></trkpt><trkpt lat="38.5914402" lon="16.2675597"><ele>723.25</ele><time>2026-04-12T08:51:40.528Z</time></trkpt><trkpt lat="38.5913937" lon="16.2677163"><ele>725.0</ele><time>2026-04-12T08:51:41.525Z</time></trkpt><trkpt lat="38.5913154" lon="16.2678484"><ele>725.0</ele><time>2026-04-12T08:51:42.523Z</time></trkpt><trkpt lat="38.5912154" lon="16.267953"><ele>725.0</ele><time>2026-04-12T08:51:43.518Z</time></trkpt><trkpt lat="38.5909953" lon="16.2681042"><ele>725.0</ele><time>2026-04-12T08:51:45.526Z</time></trkpt><trkpt lat="38.5908914" lon="16.2681852"><ele>724.0</ele><time>2026-04-12T08:51:46.524Z</time></trkpt><trkpt lat="38.5908035" lon="16.2682925"><ele>723.0</ele><time>2026-04-12T08:51:47.52Z</time></trkpt><trkpt lat="38.5907368" lon="16.2684322"><ele>722.0</ele><time>2026-04-12T08:51:48.527Z</time></trkpt><trkpt lat="38.590681" lon="16.26859"><ele>721.0</ele><time>2026-04-12T08:51:49.524Z</time></trkpt><trkpt lat="38.5906273" lon="16.2687593"><ele>721.0</ele><time>2026-04-12T08:51:50.522Z</time></trkpt><trkpt lat="38.5905744" lon="16.2689353"><ele>721.0</ele><time>2026-04-12T08:51:51.519Z</time></trkpt><trkpt lat="38.5905245" lon="16.269116"><ele>721.0</ele><time>2026-04-12T08:51:52.527Z</time></trkpt><trkpt lat="38.5904802" lon="16.2693"><ele>721.0</ele><time>2026-04-12T08:51:53.527Z</time></trkpt><trkpt lat="38.5904481" lon="16.2694887"><ele>721.3333333333334</ele><time>2026-04-12T08:51:54.528Z</time></trkpt><trkpt lat="38.590434" lon="16.2696861"><ele>721.6666666666666</ele><time>2026-04-12T08:51:55.525Z</time></trkpt><trkpt lat="38.5904371" lon="16.2698984"><ele>722.0</ele><time>2026-04-12T08:51:56.531Z</time></trkpt><trkpt lat="38.5904485" lon="16.2701272"><ele>724.0</ele><time>2026-04-12T08:51:57.527Z</time></trkpt><trkpt lat="38.5904621" lon="16.2703667"><ele>726.0</ele><time>2026-04-12T08:51:58.523Z</time></trkpt><trkpt lat="38.5904759" lon="16.2706045"><ele>728.0</ele><time>2026-04-12T08:51:59.521Z</time></trkpt><trkpt lat="38.5904873" lon="16.2708303"><ele>729.3333333333333</ele><time>2026-04-12T08:52:00.525Z</time></trkpt><trkpt lat="38.5904882" lon="16.2710421"><ele>730.6666666666666</ele><time>2026-04-12T08:52:01.523Z</time></trkpt><trkpt lat="38.5904765" lon="16.2712446"><ele>732.0</ele><time>2026-04-12T08:52:02.525Z</time></trkpt><trkpt lat="38.5904578" lon="16.2714444"><ele>733.0</ele><time>2026-04-12T08:52:03.519Z</time></trkpt><trkpt lat="38.590444" lon="16.2716404"><ele>734.0</ele><time>2026-04-12T08:52:04.521Z</time></trkpt><trkpt lat="38.590426" lon="16.2720091"><ele>735.0</ele><time>2026-04-12T08:52:06.524Z</time></trkpt><trkpt lat="38.5904191" lon="16.2721779"><ele>733.75</ele><time>2026-04-12T08:52:07.523Z</time></trkpt><trkpt lat="38.5904097" lon="16.2723449"><ele>732.5</ele><time>2026-04-12T08:52:08.523Z</time></trkpt><trkpt lat="38.5903881" lon="16.2725129"><ele>731.25</ele><time>2026-04-12T08:52:09.522Z</time></trkpt><trkpt lat="38.5903575" lon="16.2726802"><ele>730.0</ele><time>2026-04-12T08:52:10.534Z</time></trkpt><trkpt lat="38.5902807" lon="16.2728426"><ele>734.3333333333334</ele><time>2026-04-12T08:52:11.529Z</time></trkpt><trkpt lat="38.5901843" lon="16.2730119"><ele>738.6666666666666</ele><time>2026-04-12T08:52:12.517Z</time></trkpt><trkpt lat="38.5900776" lon="16.273175"><ele>743.0</ele><time>2026-04-12T08:52:13.532Z</time></trkpt><trkpt lat="38.5899535" lon="16.2733241"><ele>744.0</ele><time>2026-04-12T08:52:14.53Z</time></trkpt><trkpt lat="38.5898171" lon="16.273459"><ele>745.0</ele><time>2026-04-12T08:52:15.531Z</time></trkpt><trkpt lat="38.5896723" lon="16.2735846"><ele>746.0</ele><time>2026-04-12T08:52:16.532Z</time></trkpt><trkpt lat="38.589524" lon="16.273708"><ele>750.0</ele><time>2026-04-12T08:52:17.52Z</time></trkpt><trkpt lat="38.589386" lon="16.2738384"><ele>754.0</ele><time>2026-04-12T08:52:18.526Z</time></trkpt><trkpt lat="38.5892713" lon="16.2739916"><ele>758.0</ele><time>2026-04-12T08:52:19.518Z</time></trkpt><trkpt lat="38.5891753" lon="16.2741487"><ele>760.0</ele><time>2026-04-12T08:52:20.526Z</time></trkpt><trkpt lat="38.5891108" lon="16.2742964"><ele>762.0</ele><time>2026-04-12T08:52:21.527Z</time></trkpt><trkpt lat="38.5890734" lon="16.2744526"><ele>764.0</ele><time>2026-04-12T08:52:22.524Z</time></trkpt><trkpt lat="38.5890371" lon="16.2746198"><ele>766.0</ele><time>2026-04-12T08:52:23.52Z</time></trkpt><trkpt lat="38.5890613" lon="16.2747976"><ele>768.0</ele><time>2026-04-12T08:52:24.53Z</time></trkpt><trkpt lat="38.5890966" lon="16.274989"><ele>770.0</ele><time>2026-04-12T08:52:25.519Z</time></trkpt><trkpt lat="38.5891683" lon="16.2753384"><ele>772.0</ele><time>2026-04-12T08:52:27.524Z</time></trkpt><trkpt lat="38.5891997" lon="16.27549"><ele>772.6666666666666</ele><time>2026-04-12T08:52:28.526Z</time></trkpt><trkpt lat="38.5892267" lon="16.2756113"><ele>773.3333333333333</ele><time>2026-04-12T08:52:29.52Z</time></trkpt><trkpt lat="38.5892772" lon="16.2756994"><ele>774.0</ele><time>2026-04-12T08:52:30.528Z</time></trkpt><trkpt lat="38.5893535" lon="16.275725"><ele>774.6666666666667</ele><time>2026-04-12T08:52:31.529Z</time></trkpt><trkpt lat="38.5894301" lon="16.2757068"><ele>775.3333333333334</ele><time>2026-04-12T08:52:32.526Z</time></trkpt><trkpt lat="38.5895166" lon="16.2756504"><ele>776.0</ele><time>2026-04-12T08:52:33.517Z</time></trkpt><trkpt lat="38.5896123" lon="16.2755735"><ele>776.0</ele><time>2026-04-12T08:52:34.521Z</time></trkpt><trkpt lat="38.5897122" lon="16.2755056"><ele>776.0</ele><time>2026-04-12T08:52:35.523Z</time></trkpt><trkpt lat="38.5898215" lon="16.2754992"><ele>776.0</ele><time>2026-04-12T08:52:36.529Z</time></trkpt><trkpt lat="38.5899352" lon="16.2755421"><ele>776.0</ele><time>2026-04-12T08:52:37.534Z</time></trkpt><trkpt lat="38.5900476" lon="16.2756362"><ele>776.0</ele><time>2026-04-12T08:52:38.529Z</time></trkpt><trkpt lat="38.590155" lon="16.2757634"><ele>776.0</ele><time>2026-04-12T08:52:39.513Z</time></trkpt><trkpt lat="38.5902571" lon="16.2759124"><ele>776.0</ele><time>2026-04-12T08:52:40.526Z</time></trkpt><trkpt lat="38.5903448" lon="16.2760607"><ele>776.0</ele><time>2026-04-12T08:52:41.527Z</time></trkpt><trkpt lat="38.5904133" lon="16.276205"><ele>775.0</ele><time>2026-04-12T08:52:42.52Z</time></trkpt><trkpt lat="38.5904624" lon="16.2763471"><ele>774.0</ele><time>2026-04-12T08:52:43.52Z</time></trkpt><trkpt lat="38.5904748" lon="16.2764933"><ele>773.0</ele><time>2026-04-12T08:52:44.525Z</time></trkpt><trkpt lat="38.5904688" lon="16.2766412"><ele>772.0</ele><time>2026-04-12T08:52:45.521Z</time></trkpt><trkpt lat="38.5904661" lon="16.2767765"><ele>772.0</ele><time>2026-04-12T08:52:46.534Z</time></trkpt><trkpt lat="38.5904436" lon="16.2771274"><ele>772.0</ele><time>2026-04-12T08:52:48.52Z</time></trkpt><trkpt lat="38.5904374" lon="16.2772851"><ele>772.0</ele><time>2026-04-12T08:52:49.524Z</time></trkpt><trkpt lat="38.5904343" lon="16.2774299"><ele>773.9999999999999</ele><time>2026-04-12T08:52:50.528Z</time></trkpt><trkpt lat="38.5904385" lon="16.2775344"><ele>776.0</ele><time>2026-04-12T08:52:51.526Z</time></trkpt><trkpt lat="38.5904903" lon="16.2776045"><ele>778.0</ele><time>2026-04-12T08:52:52.526Z</time></trkpt><trkpt lat="38.5905567" lon="16.2776379"><ele>780.0</ele><time>2026-04-12T08:52:53.518Z</time></trkpt><trkpt lat="38.5906438" lon="16.2776404"><ele>781.9999999999999</ele><time>2026-04-12T08:52:54.526Z</time></trkpt><trkpt lat="38.5907478" lon="16.2776248"><ele>784.0</ele><time>2026-04-12T08:52:55.533Z</time></trkpt><trkpt lat="38.5908561" lon="16.2776053"><ele>784.0</ele><time>2026-04-12T08:52:56.527Z</time></trkpt><trkpt lat="38.5909509" lon="16.2776124"><ele>784.0</ele><time>2026-04-12T08:52:57.524Z</time></trkpt><trkpt lat="38.5910357" lon="16.2776358"><ele>784.0</ele><time>2026-04-12T08:52:58.523Z</time></trkpt><trkpt lat="38.5910951" lon="16.2777242"><ele>784.0</ele><time>2026-04-12T08:52:59.514Z</time></trkpt><trkpt lat="38.5911606" lon="16.2778128"><ele>784.0</ele><time>2026-04-12T08:53:00.522Z</time></trkpt><trkpt lat="38.5911708" lon="16.277969"><ele>784.5</ele><time>2026-04-12T08:53:01.521Z</time></trkpt><trkpt lat="38.5911864" lon="16.2781279"><ele>785.0</ele><time>2026-04-12T08:53:02.53Z</time></trkpt><trkpt lat="38.5912114" lon="16.2782898"><ele>785.5</ele><time>2026-04-12T08:53:03.526Z</time></trkpt><trkpt lat="38.5912238" lon="16.2784655"><ele>786.0</ele><time>2026-04-12T08:53:04.53Z</time></trkpt><trkpt lat="38.5912202" lon="16.2786497"><ele>786.0</ele><time>2026-04-12T08:53:05.518Z</time></trkpt><trkpt lat="38.5912229" lon="16.2788334"><ele>786.0</ele><time>2026-04-12T08:53:06.534Z</time></trkpt><trkpt lat="38.5912341" lon="16.2790122"><ele>786.0</ele><time>2026-04-12T08:53:07.527Z</time></trkpt><trkpt lat="38.5912683" lon="16.2793368"><ele>788.4</ele><time>2026-04-12T08:53:09.522Z</time></trkpt><trkpt lat="38.5913079" lon="16.2794618"><ele>790.8</ele><time>2026-04-12T08:53:10.532Z</time></trkpt><trkpt lat="38.591377" lon="16.2795631"><ele>793.1999999999999</ele><time>2026-04-12T08:53:11.518Z</time></trkpt><trkpt lat="38.591462" lon="16.2796226"><ele>795.5999999999999</ele><time>2026-04-12T08:53:12.523Z</time></trkpt><trkpt lat="38.5915542" lon="16.2796287"><ele>798.0</ele><time>2026-04-12T08:53:13.523Z</time></trkpt><trkpt lat="38.5916569" lon="16.2796001"><ele>798.0</ele><time>2026-04-12T08:53:14.531Z</time></trkpt><trkpt lat="38.5917383" lon="16.2795075"><ele>798.0</ele><time>2026-04-12T08:53:15.52Z</time></trkpt><trkpt lat="38.5918207" lon="16.2793827"><ele>798.0</ele><time>2026-04-12T08:53:16.526Z</time></trkpt><trkpt lat="38.5919016" lon="16.2792258"><ele>798.0</ele><time>2026-04-12T08:53:17.516Z</time></trkpt><trkpt lat="38.5919818" lon="16.2790625"><ele>797.0</ele><time>2026-04-12T08:53:18.526Z</time></trkpt><trkpt lat="38.5920549" lon="16.2789117"><ele>796.0</ele><time>2026-04-12T08:53:19.528Z</time></trkpt><trkpt lat="38.5921245" lon="16.2787839"><ele>795.0</ele><time>2026-04-12T08:53:20.532Z</time></trkpt><trkpt lat="38.592204" lon="16.2786804"><ele>794.0</ele><time>2026-04-12T08:53:21.536Z</time></trkpt><trkpt lat="38.5922924" lon="16.278599"><ele>794.0</ele><time>2026-04-12T08:53:22.527Z</time></trkpt><trkpt lat="38.5923951" lon="16.2785453"><ele>794.0</ele><time>2026-04-12T08:53:23.52Z</time></trkpt><trkpt lat="38.5925043" lon="16.278527"><ele>794.0</ele><time>2026-04-12T08:53:24.53Z</time></trkpt><trkpt lat="38.5926006" lon="16.2785523"><ele>794.0</ele><time>2026-04-12T08:53:25.526Z</time></trkpt><trkpt lat="38.5926737" lon="16.2786245"><ele>794.0</ele><time>2026-04-12T08:53:26.527Z</time></trkpt><trkpt lat="38.5927291" lon="16.2787352"><ele>794.0</ele><time>2026-04-12T08:53:27.523Z</time></trkpt><trkpt lat="38.5927682" lon="16.2788783"><ele>794.0</ele><time>2026-04-12T08:53:28.529Z</time></trkpt><trkpt lat="38.5928022" lon="16.2792173"><ele>794.0</ele><time>2026-04-12T08:53:30.533Z</time></trkpt><trkpt lat="38.5927869" lon="16.2794014"><ele>799.0</ele><time>2026-04-12T08:53:31.522Z</time></trkpt><trkpt lat="38.5927462" lon="16.2795907"><ele>804.0</ele><time>2026-04-12T08:53:32.528Z</time></trkpt><trkpt lat="38.5926894" lon="16.2797848"><ele>809.0</ele><time>2026-04-12T08:53:33.52Z</time></trkpt><trkpt lat="38.5926257" lon="16.2799838"><ele>811.6666666666667</ele><time>2026-04-12T08:53:34.528Z</time></trkpt><trkpt lat="38.5925663" lon="16.2801831"><ele>814.3333333333333</ele><time>2026-04-12T08:53:35.525Z</time></trkpt><trkpt lat="38.5925151" lon="16.2803714"><ele>817.0</ele><time>2026-04-12T08:53:36.53Z</time></trkpt><trkpt lat="38.5924651" lon="16.2805359"><ele>814.75</ele><time>2026-04-12T08:53:37.53Z</time></trkpt><trkpt lat="38.5923813" lon="16.2806667"><ele>812.5</ele><time>2026-04-12T08:53:38.533Z</time></trkpt><trkpt lat="38.592294" lon="16.2807619"><ele>810.25</ele><time>2026-04-12T08:53:39.527Z</time></trkpt><trkpt lat="38.5921922" lon="16.2808159"><ele>808.0</ele><time>2026-04-12T08:53:40.526Z</time></trkpt><trkpt lat="38.5920797" lon="16.2808419"><ele>811.25</ele><time>2026-04-12T08:53:41.526Z</time></trkpt><trkpt lat="38.59196" lon="16.2808645"><ele>814.5</ele><time>2026-04-12T08:53:42.531Z</time></trkpt><trkpt lat="38.5918347" lon="16.2809103"><ele>817.75</ele><time>2026-04-12T08:53:43.526Z</time></trkpt><trkpt lat="38.5917193" lon="16.2809793"><ele>821.0</ele><time>2026-04-12T08:53:44.527Z</time></trkpt><trkpt lat="38.5916102" lon="16.2810717"><ele>821.0</ele><time>2026-04-12T08:53:45.52Z</time></trkpt><trkpt lat="38.5915126" lon="16.2811854"><ele>821.0</ele><time>2026-04-12T08:53:46.527Z</time></trkpt><trkpt lat="38.5914314" lon="16.2813332"><ele>821.0</ele><time>2026-04-12T08:53:47.524Z</time></trkpt><trkpt lat="38.5913689" lon="16.2815043"><ele>821.0</ele><time>2026-04-12T08:53:48.525Z</time></trkpt><trkpt lat="38.5913207" lon="16.2816914"><ele>818.6666666666667</ele><time>2026-04-12T08:53:49.522Z</time></trkpt><trkpt lat="38.5912069" lon="16.2820307"><ele>816.3333333333333</ele><time>2026-04-12T08:53:51.523Z</time></trkpt><trkpt lat="38.5911484" lon="16.2821616"><ele>814.0</ele><time>2026-04-12T08:53:52.524Z</time></trkpt><trkpt lat="38.5910489" lon="16.2822504"><ele>817.75</ele><time>2026-04-12T08:53:53.522Z</time></trkpt><trkpt lat="38.5909361" lon="16.2823275"><ele>821.5</ele><time>2026-04-12T08:53:54.522Z</time></trkpt><trkpt lat="38.5908347" lon="16.2824096"><ele>825.25</ele><time>2026-04-12T08:53:55.514Z</time></trkpt><trkpt lat="38.5907662" lon="16.2825372"><ele>829.0</ele><time>2026-04-12T08:53:56.52Z</time></trkpt><trkpt lat="38.5907284" lon="16.2826862"><ele>829.0</ele><time>2026-04-12T08:53:57.525Z</time></trkpt><trkpt lat="38.5906886" lon="16.2828179"><ele>829.0</ele><time>2026-04-12T08:53:58.525Z</time></trkpt><trkpt lat="38.5906341" lon="16.2829259"><ele>829.0</ele><time>2026-04-12T08:53:59.526Z</time></trkpt><trkpt lat="38.5905565" lon="16.2829678"><ele>829.0</ele><time>2026-04-12T08:54:00.517Z</time></trkpt><trkpt lat="38.5904685" lon="16.2829592"><ele>829.0</ele><time>2026-04-12T08:54:01.523Z</time></trkpt><trkpt lat="38.5903822" lon="16.2829365"><ele>832.5</ele><time>2026-04-12T08:54:02.529Z</time></trkpt><trkpt lat="38.5902824" lon="16.2828881"><ele>836.0</ele><time>2026-04-12T08:54:03.525Z</time></trkpt><trkpt lat="38.5901535" lon="16.2828784"><ele>839.5</ele><time>2026-04-12T08:54:04.526Z</time></trkpt><trkpt lat="38.5900244" lon="16.2828913"><ele>843.0</ele><time>2026-04-12T08:54:05.526Z</time></trkpt><trkpt lat="38.5899037" lon="16.2829064"><ele>843.0</ele><time>2026-04-12T08:54:06.522Z</time></trkpt><trkpt lat="38.5897921" lon="16.2829086"><ele>843.0</ele><time>2026-04-12T08:54:07.533Z</time></trkpt><trkpt lat="38.5897025" lon="16.2829399"><ele>843.0</ele><time>2026-04-12T08:54:08.538Z</time></trkpt><trkpt lat="38.5896373" lon="16.2830351"><ele>843.0</ele><time>2026-04-12T08:54:09.529Z</time></trkpt><trkpt lat="38.5895995" lon="16.2831644"><ele>843.0</ele><time>2026-04-12T08:54:10.526Z</time></trkpt><trkpt lat="38.5895294" lon="16.2834018"><ele>844.0</ele><time>2026-04-12T08:54:12.523Z</time></trkpt><trkpt lat="38.5894424" lon="16.2834506"><ele>845.0</ele><time>2026-04-12T08:54:13.53Z</time></trkpt><trkpt lat="38.5893367" lon="16.2835018"><ele>846.0</ele><time>2026-04-12T08:54:14.523Z</time></trkpt><trkpt lat="38.5892462" lon="16.2835507"><ele>847.0</ele><time>2026-04-12T08:54:15.54Z</time></trkpt><trkpt lat="38.5891881" lon="16.2836478"><ele>848.0</ele><time>2026-04-12T08:54:16.525Z</time></trkpt><trkpt lat="38.589177" lon="16.2837787"><ele>848.0000000000001</ele><time>2026-04-12T08:54:17.516Z</time></trkpt><trkpt lat="38.5891596" lon="16.2838819"><ele>848.0</ele><time>2026-04-12T08:54:18.533Z</time></trkpt><trkpt lat="38.5891017" lon="16.2839679"><ele>848.0</ele><time>2026-04-12T08:54:19.528Z</time></trkpt><trkpt lat="38.5890357" lon="16.2840151"><ele>848.0</ele><time>2026-04-12T08:54:20.532Z</time></trkpt><trkpt lat="38.5889397" lon="16.2840395"><ele>848.0000000000001</ele><time>2026-04-12T08:54:21.525Z</time></trkpt><trkpt lat="38.5888632" lon="16.2840661"><ele>848.0</ele><time>2026-04-12T08:54:22.531Z</time></trkpt><trkpt lat="38.58879" lon="16.2840806"><ele>847.0000000000001</ele><time>2026-04-12T08:54:23.52Z</time></trkpt><trkpt lat="38.5887105" lon="16.2841115"><ele>846.0</ele><time>2026-04-12T08:54:24.517Z</time></trkpt><trkpt lat="38.5886739" lon="16.2841915"><ele>845.0</ele><time>2026-04-12T08:54:25.525Z</time></trkpt><trkpt lat="38.5887115" lon="16.2843011"><ele>844.0</ele><time>2026-04-12T08:54:26.531Z</time></trkpt><trkpt lat="38.5887807" lon="16.2843782"><ele>843.0000000000001</ele><time>2026-04-12T08:54:27.532Z</time></trkpt><trkpt lat="38.5888745" lon="16.2844374"><ele>842.0</ele><time>2026-04-12T08:54:28.532Z</time></trkpt><trkpt lat="38.5889835" lon="16.2845034"><ele>842.0</ele><time>2026-04-12T08:54:29.529Z</time></trkpt><trkpt lat="38.589102" lon="16.284526"><ele>842.0</ele><time>2026-04-12T08:54:30.525Z</time></trkpt><trkpt lat="38.5892412" lon="16.2845245"><ele>842.0</ele><time>2026-04-12T08:54:31.526Z</time></trkpt><trkpt lat="38.5894634" lon="16.2844438"><ele>839.3333333333334</ele><time>2026-04-12T08:54:33.522Z</time></trkpt><trkpt lat="38.5895533" lon="16.2844375"><ele>836.6666666666667</ele><time>2026-04-12T08:54:34.519Z</time></trkpt><trkpt lat="38.5896203" lon="16.2844772"><ele>834.0</ele><time>2026-04-12T08:54:35.527Z</time></trkpt><trkpt lat="38.5896724" lon="16.2845292"><ele>831.3333333333333</ele><time>2026-04-12T08:54:36.53Z</time></trkpt><trkpt lat="38.5896816" lon="16.2846247"><ele>828.6666666666666</ele><time>2026-04-12T08:54:37.521Z</time></trkpt><trkpt lat="38.5896681" lon="16.2847343"><ele>826.0</ele><time>2026-04-12T08:54:38.527Z</time></trkpt><trkpt lat="38.5896367" lon="16.2848507"><ele>826.0</ele><time>2026-04-12T08:54:39.529Z</time></trkpt><trkpt lat="38.5895943" lon="16.2849777"><ele>826.0</ele><time>2026-04-12T08:54:40.528Z</time></trkpt><trkpt lat="38.5895371" lon="16.2851261"><ele>826.0</ele><time>2026-04-12T08:54:41.53Z</time></trkpt><trkpt lat="38.5894606" lon="16.285295"><ele>826.0</ele><time>2026-04-12T08:54:42.521Z</time></trkpt><trkpt lat="38.5893633" lon="16.28547"><ele>833.6666666666666</ele><time>2026-04-12T08:54:43.533Z</time></trkpt><trkpt lat="38.5892571" lon="16.2856308"><ele>841.3333333333333</ele><time>2026-04-12T08:54:44.547Z</time></trkpt><trkpt lat="38.5891702" lon="16.2857926"><ele>849.0</ele><time>2026-04-12T08:54:45.519Z</time></trkpt><trkpt lat="38.5891205" lon="16.2859642"><ele>849.0</ele><time>2026-04-12T08:54:46.521Z</time></trkpt><trkpt lat="38.589104" lon="16.2861292"><ele>849.0</ele><time>2026-04-12T08:54:47.523Z</time></trkpt><trkpt lat="38.5890944" lon="16.2862774"><ele>849.0</ele><time>2026-04-12T08:54:48.519Z</time></trkpt><trkpt lat="38.589069" lon="16.2863769"><ele>849.0</ele><time>2026-04-12T08:54:49.534Z</time></trkpt><trkpt lat="38.5890395" lon="16.2864848"><ele>849.0</ele><time>2026-04-12T08:54:50.531Z</time></trkpt><trkpt lat="38.5889668" lon="16.2865447"><ele>845.5</ele><time>2026-04-12T08:54:51.536Z</time></trkpt><trkpt lat="38.5888511" lon="16.2866103"><ele>842.0</ele><time>2026-04-12T08:54:52.524Z</time></trkpt><trkpt lat="38.5886872" lon="16.2867589"><ele>838.5</ele><time>2026-04-12T08:54:54.524Z</time></trkpt><trkpt lat="38.5886281" lon="16.2868415"><ele>835.0</ele><time>2026-04-12T08:54:55.523Z</time></trkpt><trkpt lat="38.588575" lon="16.2869133"><ele>839.1666666666666</ele><time>2026-04-12T08:54:56.526Z</time></trkpt><trkpt lat="38.5885052" lon="16.2870138"><ele>843.3333333333333</ele><time>2026-04-12T08:54:58.521Z</time></trkpt><trkpt lat="38.5884631" lon="16.2871001"><ele>847.5</ele><time>2026-04-12T08:55:00.516Z</time></trkpt><trkpt lat="38.5884397" lon="16.2871875"><ele>851.6666666666667</ele><time>2026-04-12T08:55:02.528Z</time></trkpt><trkpt lat="38.5884638" lon="16.2873106"><ele>855.8333333333334</ele><time>2026-04-12T08:55:04.524Z</time></trkpt><trkpt lat="38.5884936" lon="16.2873822"><ele>860.0</ele><time>2026-04-12T08:55:05.522Z</time></trkpt><trkpt lat="38.5885295" lon="16.2874538"><ele>860.0</ele><time>2026-04-12T08:55:06.533Z</time></trkpt><trkpt lat="38.5885674" lon="16.2875352"><ele>860.0</ele><time>2026-04-12T08:55:07.523Z</time></trkpt><trkpt lat="38.5886046" lon="16.28763"><ele>860.0</ele><time>2026-04-12T08:55:08.521Z</time></trkpt><trkpt lat="38.5886438" lon="16.287743"><ele>860.0</ele><time>2026-04-12T08:55:09.524Z</time></trkpt><trkpt lat="38.5886777" lon="16.2878684"><ele>860.0</ele><time>2026-04-12T08:55:10.524Z</time></trkpt><trkpt lat="38.5886886" lon="16.2880047"><ele>862.0</ele><time>2026-04-12T08:55:11.525Z</time></trkpt><trkpt lat="38.5886922" lon="16.2881285"><ele>864.0</ele><time>2026-04-12T08:55:12.528Z</time></trkpt><trkpt lat="38.5886459" lon="16.2882712"><ele>866.0</ele><time>2026-04-12T08:55:13.519Z</time></trkpt><trkpt lat="38.5885262" lon="16.2885747"><ele>866.0</ele><time>2026-04-12T08:55:15.525Z</time></trkpt><trkpt lat="38.5884941" lon="16.2887235"><ele>865.9999999999999</ele><time>2026-04-12T08:55:16.526Z</time></trkpt><trkpt lat="38.5885002" lon="16.2888617"><ele>865.9999999999999</ele><time>2026-04-12T08:55:17.525Z</time></trkpt><trkpt lat="38.5885312" lon="16.2889973"><ele>866.0</ele><time>2026-04-12T08:55:18.523Z</time></trkpt><trkpt lat="38.5885642" lon="16.2891299"><ele>866.0</ele><time>2026-04-12T08:55:19.521Z</time></trkpt><trkpt lat="38.5885897" lon="16.2892636"><ele>866.0</ele><time>2026-04-12T08:55:20.526Z</time></trkpt><trkpt lat="38.5885972" lon="16.2894009"><ele>865.9999999999999</ele><time>2026-04-12T08:55:21.523Z</time></trkpt><trkpt lat="38.5885637" lon="16.2895258"><ele>865.9999999999999</ele><time>2026-04-12T08:55:22.531Z</time></trkpt><trkpt lat="38.5884976" lon="16.2896222"><ele>866.0</ele><time>2026-04-12T08:55:23.528Z</time></trkpt><trkpt lat="38.5884292" lon="16.2897118"><ele>866.0</ele><time>2026-04-12T08:55:24.52Z</time></trkpt><trkpt lat="38.5883258" lon="16.2897667"><ele>862.5</ele><time>2026-04-12T08:55:25.521Z</time></trkpt><trkpt lat="38.5882178" lon="16.2898137"><ele>859.0</ele><time>2026-04-12T08:55:26.528Z</time></trkpt><trkpt lat="38.588107" lon="16.2898714"><ele>855.5</ele><time>2026-04-12T08:55:27.524Z</time></trkpt><trkpt lat="38.5879868" lon="16.2899375"><ele>852.0</ele><time>2026-04-12T08:55:28.522Z</time></trkpt><trkpt lat="38.5878697" lon="16.2899868"><ele>856.2</ele><time>2026-04-12T08:55:29.526Z</time></trkpt><trkpt lat="38.5877571" lon="16.2900039"><ele>860.4000000000001</ele><time>2026-04-12T08:55:30.527Z</time></trkpt><trkpt lat="38.5876553" lon="16.2900147"><ele>864.5999999999999</ele><time>2026-04-12T08:55:31.514Z</time></trkpt><trkpt lat="38.5875706" lon="16.2900323"><ele>868.8</ele><time>2026-04-12T08:55:32.524Z</time></trkpt><trkpt lat="38.587498" lon="16.2900683"><ele>873.0</ele><time>2026-04-12T08:55:33.525Z</time></trkpt><trkpt lat="38.5874328" lon="16.2901163"><ele>873.0</ele><time>2026-04-12T08:55:34.526Z</time></trkpt><trkpt lat="38.5874073" lon="16.2903467"><ele>873.0</ele><time>2026-04-12T08:55:36.523Z</time></trkpt><trkpt lat="38.5874129" lon="16.290496"><ele>873.0</ele><time>2026-04-12T08:55:37.532Z</time></trkpt><trkpt lat="38.5874322" lon="16.2906708"><ele>873.0</ele><time>2026-04-12T08:55:38.532Z</time></trkpt><trkpt lat="38.5874491" lon="16.2908452"><ele>871.4</ele><time>2026-04-12T08:55:39.534Z</time></trkpt><trkpt lat="38.5874542" lon="16.2909994"><ele>869.8</ele><time>2026-04-12T08:55:40.52Z</time></trkpt><trkpt lat="38.5874386" lon="16.2911367"><ele>868.2</ele><time>2026-04-12T08:55:41.525Z</time></trkpt><trkpt lat="38.5873989" lon="16.2912619"><ele>866.6</ele><time>2026-04-12T08:55:42.544Z</time></trkpt><trkpt lat="38.5873367" lon="16.2913813"><ele>865.0</ele><time>2026-04-12T08:55:43.525Z</time></trkpt><trkpt lat="38.5872569" lon="16.2914865"><ele>864.75</ele><time>2026-04-12T08:55:44.522Z</time></trkpt><trkpt lat="38.5871617" lon="16.2915778"><ele>864.5</ele><time>2026-04-12T08:55:45.526Z</time></trkpt><trkpt lat="38.5870679" lon="16.2916677"><ele>864.25</ele><time>2026-04-12T08:55:46.528Z</time></trkpt><trkpt lat="38.5869801" lon="16.2917673"><ele>864.0</ele><time>2026-04-12T08:55:47.532Z</time></trkpt><trkpt lat="38.586893" lon="16.2918631"><ele>867.8000000000001</ele><time>2026-04-12T08:55:48.524Z</time></trkpt><trkpt lat="38.5867917" lon="16.2919306"><ele>871.6000000000001</ele><time>2026-04-12T08:55:49.519Z</time></trkpt><trkpt lat="38.5866956" lon="16.2919742"><ele>875.4</ele><time>2026-04-12T08:55:50.528Z</time></trkpt><trkpt lat="38.5865876" lon="16.2919451"><ele>879.2</ele><time>2026-04-12T08:55:51.529Z</time></trkpt><trkpt lat="38.5864747" lon="16.291938"><ele>883.0</ele><time>2026-04-12T08:55:52.526Z</time></trkpt><trkpt lat="38.5863766" lon="16.2919818"><ele>883.0</ele><time>2026-04-12T08:55:53.524Z</time></trkpt><trkpt lat="38.5862963" lon="16.2920581"><ele>883.0</ele><time>2026-04-12T08:55:54.522Z</time></trkpt><trkpt lat="38.5862153" lon="16.2921203"><ele>883.0</ele><time>2026-04-12T08:55:55.555Z</time></trkpt><trkpt lat="38.5860235" lon="16.292165"><ele>883.0</ele><time>2026-04-12T08:55:57.519Z</time></trkpt><trkpt lat="38.5859323" lon="16.2921153"><ele>886.75</ele><time>2026-04-12T08:55:58.527Z</time></trkpt><trkpt lat="38.5858344" lon="16.2920342"><ele>890.5</ele><time>2026-04-12T08:55:59.52Z</time></trkpt><trkpt lat="38.5857327" lon="16.2919642"><ele>894.25</ele><time>2026-04-12T08:56:00.525Z</time></trkpt><trkpt lat="38.5856201" lon="16.2919025"><ele>898.0</ele><time>2026-04-12T08:56:01.525Z</time></trkpt><trkpt lat="38.5855054" lon="16.2918608"><ele>898.0</ele><time>2026-04-12T08:56:02.519Z</time></trkpt><trkpt lat="38.5853901" lon="16.2918255"><ele>898.0</ele><time>2026-04-12T08:56:03.522Z</time></trkpt><trkpt lat="38.5852803" lon="16.291794"><ele>898.0</ele><time>2026-04-12T08:56:04.525Z</time></trkpt><trkpt lat="38.5851767" lon="16.2917597"><ele>898.0</ele><time>2026-04-12T08:56:05.524Z</time></trkpt><trkpt lat="38.585081" lon="16.2917342"><ele>898.0</ele><time>2026-04-12T08:56:06.516Z</time></trkpt><trkpt lat="38.5849988" lon="16.291719"><ele>899.6666666666666</ele><time>2026-04-12T08:56:07.519Z</time></trkpt><trkpt lat="38.5849289" lon="16.2917372"><ele>901.3333333333333</ele><time>2026-04-12T08:56:08.526Z</time></trkpt><trkpt lat="38.5848647" lon="16.2918585"><ele>903.0</ele><time>2026-04-12T08:56:10.52Z</time></trkpt><trkpt lat="38.5848848" lon="16.2919378"><ele>904.6666666666667</ele><time>2026-04-12T08:56:11.528Z</time></trkpt><trkpt lat="38.5849275" lon="16.2920153"><ele>906.3333333333334</ele><time>2026-04-12T08:56:12.522Z</time></trkpt><trkpt lat="38.584974" lon="16.2921059"><ele>908.0</ele><time>2026-04-12T08:56:13.525Z</time></trkpt><trkpt lat="38.5850379" lon="16.2922082"><ele>909.0</ele><time>2026-04-12T08:56:14.525Z</time></trkpt><trkpt lat="38.5851062" lon="16.2923247"><ele>910.0</ele><time>2026-04-12T08:56:15.526Z</time></trkpt><trkpt lat="38.5851676" lon="16.2924625"><ele>911.0</ele><time>2026-04-12T08:56:16.524Z</time></trkpt><trkpt lat="38.5852381" lon="16.2927823"><ele>911.0</ele><time>2026-04-12T08:56:18.517Z</time></trkpt><trkpt lat="38.5852598" lon="16.2929514"><ele>911.0</ele><time>2026-04-12T08:56:19.528Z</time></trkpt><trkpt lat="38.5852983" lon="16.2931203"><ele>911.0</ele><time>2026-04-12T08:56:20.529Z</time></trkpt><trkpt lat="38.5853586" lon="16.2932853"><ele>911.0</ele><time>2026-04-12T08:56:21.523Z</time></trkpt><trkpt lat="38.5854304" lon="16.2934423"><ele>910.0</ele><time>2026-04-12T08:56:22.525Z</time></trkpt><trkpt lat="38.5855034" lon="16.2935965"><ele>909.0</ele><time>2026-04-12T08:56:23.524Z</time></trkpt><trkpt lat="38.5856003" lon="16.293723"><ele>908.0</ele><time>2026-04-12T08:56:24.525Z</time></trkpt><trkpt lat="38.5857002" lon="16.2938318"><ele>907.0</ele><time>2026-04-12T08:56:25.524Z</time></trkpt><trkpt lat="38.5858088" lon="16.2939318"><ele>907.0</ele><time>2026-04-12T08:56:26.524Z</time></trkpt><trkpt lat="38.5859118" lon="16.2940172"><ele>907.0</ele><time>2026-04-12T08:56:27.525Z</time></trkpt><trkpt lat="38.5860105" lon="16.294096"><ele>907.0</ele><time>2026-04-12T08:56:28.539Z</time></trkpt><trkpt lat="38.5860982" lon="16.2941852"><ele>907.0</ele><time>2026-04-12T08:56:29.538Z</time></trkpt><trkpt lat="38.5861531" lon="16.2942808"><ele>907.0</ele><time>2026-04-12T08:56:30.528Z</time></trkpt><trkpt lat="38.5861741" lon="16.2943773"><ele>906.9999999999999</ele><time>2026-04-12T08:56:31.524Z</time></trkpt><trkpt lat="38.586167" lon="16.2944731"><ele>907.0</ele><time>2026-04-12T08:56:32.527Z</time></trkpt><trkpt lat="38.5861353" lon="16.294562"><ele>907.0</ele><time>2026-04-12T08:56:33.52Z</time></trkpt><trkpt lat="38.5860852" lon="16.2946359"><ele>907.0</ele><time>2026-04-12T08:56:34.523Z</time></trkpt><trkpt lat="38.586006" lon="16.2946881"><ele>906.9999999999999</ele><time>2026-04-12T08:56:35.527Z</time></trkpt><trkpt lat="38.5859246" lon="16.2947231"><ele>907.0</ele><time>2026-04-12T08:56:36.519Z</time></trkpt><trkpt lat="38.5858358" lon="16.294753"><ele>905.0</ele><time>2026-04-12T08:56:37.534Z</time></trkpt><trkpt lat="38.5856533" lon="16.2947883"><ele>903.0</ele><time>2026-04-12T08:56:39.519Z</time></trkpt><trkpt lat="38.5855641" lon="16.2948026"><ele>901.0</ele><time>2026-04-12T08:56:40.521Z</time></trkpt><trkpt lat="38.5854735" lon="16.2948183"><ele>899.0</ele><time>2026-04-12T08:56:41.525Z</time></trkpt><trkpt lat="38.5853834" lon="16.294829"><ele>902.6666666666667</ele><time>2026-04-12T08:56:42.524Z</time></trkpt><trkpt lat="38.585296" lon="16.294841"><ele>906.3333333333334</ele><time>2026-04-12T08:56:43.528Z</time></trkpt><trkpt lat="38.5852165" lon="16.2948649"><ele>910.0</ele><time>2026-04-12T08:56:44.526Z</time></trkpt><trkpt lat="38.5851451" lon="16.2948996"><ele>913.6666666666667</ele><time>2026-04-12T08:56:45.525Z</time></trkpt><trkpt lat="38.5850872" lon="16.294933"><ele>917.3333333333334</ele><time>2026-04-12T08:56:46.528Z</time></trkpt><trkpt lat="38.584986" lon="16.2950082"><ele>921.0</ele><time>2026-04-12T08:56:48.527Z</time></trkpt><trkpt lat="38.5849334" lon="16.2950579"><ele>921.0</ele><time>2026-04-12T08:56:49.515Z</time></trkpt><trkpt lat="38.5848783" lon="16.295117"><ele>921.0</ele><time>2026-04-12T08:56:50.527Z</time></trkpt><trkpt lat="38.5848242" lon="16.2951817"><ele>921.0</ele><time>2026-04-12T08:56:51.537Z</time></trkpt><trkpt lat="38.5847735" lon="16.2952453"><ele>921.0</ele><time>2026-04-12T08:56:52.531Z</time></trkpt><trkpt lat="38.5847254" lon="16.2953074"><ele>921.0</ele><time>2026-04-12T08:56:53.535Z</time></trkpt><trkpt lat="38.5846794" lon="16.2953626"><ele>921.0</ele><time>2026-04-12T08:56:54.527Z</time></trkpt><trkpt lat="38.5846009" lon="16.2954508"><ele>921.0</ele><time>2026-04-12T08:56:56.533Z</time></trkpt><trkpt lat="38.5845226" lon="16.2955477"><ele>921.0</ele><time>2026-04-12T08:56:58.526Z</time></trkpt><trkpt lat="38.5844323" lon="16.295756"><ele>921.0</ele><time>2026-04-12T08:57:01.52Z</time></trkpt><trkpt lat="38.5844227" lon="16.2959036"><ele>921.0</ele><time>2026-04-12T08:57:03.536Z</time></trkpt><trkpt lat="38.5844663" lon="16.2960165"><ele>919.0</ele><time>2026-04-12T08:57:05.526Z</time></trkpt><trkpt lat="38.5845493" lon="16.2960867"><ele>917.0</ele><time>2026-04-12T08:57:07.526Z</time></trkpt><trkpt lat="38.5846538" lon="16.2961567"><ele>915.0</ele><time>2026-04-12T08:57:09.521Z</time></trkpt><trkpt lat="38.5847116" lon="16.296194"><ele>913.0</ele><time>2026-04-12T08:57:10.531Z</time></trkpt><trkpt lat="38.5847758" lon="16.2962346"><ele>911.0</ele><time>2026-04-12T08:57:11.534Z</time></trkpt><trkpt lat="38.584845" lon="16.2962794"><ele>909.0</ele><time>2026-04-12T08:57:12.522Z</time></trkpt><trkpt lat="38.5849088" lon="16.2963221"><ele>909.0</ele><time>2026-04-12T08:57:13.527Z</time></trkpt><trkpt lat="38.584947" lon="16.2964088"><ele>909.0</ele><time>2026-04-12T08:57:14.523Z</time></trkpt><trkpt lat="38.5849515" lon="16.2965021"><ele>909.0</ele><time>2026-04-12T08:57:15.518Z</time></trkpt><trkpt lat="38.5849534" lon="16.2965971"><ele>909.0</ele><time>2026-04-12T08:57:16.527Z</time></trkpt><trkpt lat="38.5848993" lon="16.2966656"><ele>909.0</ele><time>2026-04-12T08:57:17.542Z</time></trkpt><trkpt lat="38.5848382" lon="16.2967383"><ele>909.0</ele><time>2026-04-12T08:57:18.525Z</time></trkpt><trkpt lat="38.58478" lon="16.2968085"><ele>909.2</ele><time>2026-04-12T08:57:19.533Z</time></trkpt><trkpt lat="38.5847288" lon="16.2970604"><ele>909.4000000000001</ele><time>2026-04-12T08:57:22.525Z</time></trkpt><trkpt lat="38.584744" lon="16.297162"><ele>909.6</ele><time>2026-04-12T08:57:23.526Z</time></trkpt><trkpt lat="38.5847719" lon="16.2972629"><ele>909.8</ele><time>2026-04-12T08:57:24.522Z</time></trkpt><trkpt lat="38.5848072" lon="16.297349"><ele>910.0</ele><time>2026-04-12T08:57:25.529Z</time></trkpt><trkpt lat="38.5848559" lon="16.2974238"><ele>908.7142857142858</ele><time>2026-04-12T08:57:26.52Z</time></trkpt><trkpt lat="38.5849215" lon="16.2974681"><ele>907.4285714285714</ele><time>2026-04-12T08:57:27.52Z</time></trkpt><trkpt lat="38.5849932" lon="16.2974903"><ele>906.1428571428571</ele><time>2026-04-12T08:57:28.52Z</time></trkpt><trkpt lat="38.5850603" lon="16.2975075"><ele>904.8571428571429</ele><time>2026-04-12T08:57:29.527Z</time></trkpt><trkpt lat="38.585127" lon="16.2975242"><ele>903.5714285714287</ele><time>2026-04-12T08:57:30.528Z</time></trkpt><trkpt lat="38.5851937" lon="16.2975695"><ele>902.2857142857143</ele><time>2026-04-12T08:57:31.525Z</time></trkpt><trkpt lat="38.5852475" lon="16.2976432"><ele>901.0</ele><time>2026-04-12T08:57:32.532Z</time></trkpt><trkpt lat="38.5852833" lon="16.2977452"><ele>901.0</ele><time>2026-04-12T08:57:33.524Z</time></trkpt><trkpt lat="38.5853171" lon="16.2978529"><ele>900.9999999999999</ele><time>2026-04-12T08:57:34.524Z</time></trkpt><trkpt lat="38.5853123" lon="16.2979743"><ele>900.9999999999999</ele><time>2026-04-12T08:57:35.516Z</time></trkpt><trkpt lat="38.5852893" lon="16.2980787"><ele>901.0</ele><time>2026-04-12T08:57:36.522Z</time></trkpt><trkpt lat="38.5852638" lon="16.2981893"><ele>901.0</ele><time>2026-04-12T08:57:37.524Z</time></trkpt><trkpt lat="38.585228" lon="16.2983116"><ele>900.9999999999999</ele><time>2026-04-12T08:57:38.519Z</time></trkpt><trkpt lat="38.5851815" lon="16.2984294"><ele>901.0</ele><time>2026-04-12T08:57:39.522Z</time></trkpt><trkpt lat="38.5851403" lon="16.2985242"><ele>901.0</ele><time>2026-04-12T08:57:40.531Z</time></trkpt><trkpt lat="38.5851591" lon="16.2985301"><ele>901.0</ele><time>2026-04-12T08:57:51.54Z</time></trkpt><trkpt lat="38.5851993" lon="16.2984116"><ele>900.9999999999999</ele><time>2026-04-12T08:57:52.528Z</time></trkpt><trkpt lat="38.5852485" lon="16.2982605"><ele>901.0</ele><time>2026-04-12T08:57:53.533Z</time></trkpt><trkpt lat="38.5853005" lon="16.2980698"><ele>901.0</ele><time>2026-04-12T08:57:54.522Z</time></trkpt><trkpt lat="38.5853202" lon="16.2978878"><ele>901.0</ele><time>2026-04-12T08:57:55.524Z</time></trkpt><trkpt lat="38.5852993" lon="16.2977223"><ele>901.0</ele><time>2026-04-12T08:57:56.529Z</time></trkpt><trkpt lat="38.5852396" lon="16.2975932"><ele>901.0</ele><time>2026-04-12T08:57:57.523Z</time></trkpt><trkpt lat="38.5851455" lon="16.2975134"><ele>901.0</ele><time>2026-04-12T08:57:58.522Z</time></trkpt><trkpt lat="38.5850477" lon="16.297439"><ele>901.0</ele><time>2026-04-12T08:57:59.525Z</time></trkpt><trkpt lat="38.5849318" lon="16.2974163"><ele>901.0</ele><time>2026-04-12T08:58:00.515Z</time></trkpt><trkpt lat="38.5848287" lon="16.2973892"><ele>901.0</ele><time>2026-04-12T08:58:01.529Z</time></trkpt><trkpt lat="38.5847276" lon="16.2971382"><ele>903.25</ele><time>2026-04-12T08:58:03.525Z</time></trkpt><trkpt lat="38.5847056" lon="16.2969742"><ele>905.5</ele><time>2026-04-12T08:58:04.526Z</time></trkpt><trkpt lat="38.584734" lon="16.29683"><ele>907.75</ele><time>2026-04-12T08:58:05.518Z</time></trkpt><trkpt lat="38.5848096" lon="16.2967202"><ele>910.0</ele><time>2026-04-12T08:58:06.529Z</time></trkpt><trkpt lat="38.5848962" lon="16.2966261"><ele>910.0</ele><time>2026-04-12T08:58:07.523Z</time></trkpt><trkpt lat="38.5849698" lon="16.296537"><ele>910.0</ele><time>2026-04-12T08:58:08.525Z</time></trkpt><trkpt lat="38.5849781" lon="16.2964251"><ele>910.0</ele><time>2026-04-12T08:58:09.522Z</time></trkpt><trkpt lat="38.5849351" lon="16.2963195"><ele>910.0</ele><time>2026-04-12T08:58:10.525Z</time></trkpt><trkpt lat="38.5848437" lon="16.2962128"><ele>910.0</ele><time>2026-04-12T08:58:11.525Z</time></trkpt><trkpt lat="38.5847036" lon="16.2961338"><ele>909.8</ele><time>2026-04-12T08:58:12.52Z</time></trkpt><trkpt lat="38.5845718" lon="16.2960478"><ele>909.6</ele><time>2026-04-12T08:58:13.525Z</time></trkpt><trkpt lat="38.5844904" lon="16.2959754"><ele>909.4000000000001</ele><time>2026-04-12T08:58:14.526Z</time></trkpt><trkpt lat="38.5844605" lon="16.2958824"><ele>909.2</ele><time>2026-04-12T08:58:15.522Z</time></trkpt><trkpt lat="38.5844678" lon="16.2957576"><ele>909.0</ele><time>2026-04-12T08:58:16.532Z</time></trkpt><trkpt lat="38.5845149" lon="16.295622"><ele>913.0</ele><time>2026-04-12T08:58:17.52Z</time></trkpt><trkpt lat="38.5845986" lon="16.2954845"><ele>917.0</ele><time>2026-04-12T08:58:18.525Z</time></trkpt><trkpt lat="38.5847155" lon="16.2953501"><ele>921.0</ele><time>2026-04-12T08:58:19.529Z</time></trkpt><trkpt lat="38.5848441" lon="16.2951978"><ele>921.0</ele><time>2026-04-12T08:58:20.526Z</time></trkpt><trkpt lat="38.5849893" lon="16.2950474"><ele>921.0</ele><time>2026-04-12T08:58:21.535Z</time></trkpt><trkpt lat="38.5851568" lon="16.2949158"><ele>921.0</ele><time>2026-04-12T08:58:22.527Z</time></trkpt><trkpt lat="38.58554" lon="16.2948176"><ele>916.3333333333333</ele><time>2026-04-12T08:58:24.532Z</time></trkpt><trkpt lat="38.5857527" lon="16.2948175"><ele>911.6666666666666</ele><time>2026-04-12T08:58:25.525Z</time></trkpt><trkpt lat="38.5859164" lon="16.294764"><ele>907.0</ele><time>2026-04-12T08:58:26.52Z</time></trkpt><trkpt lat="38.5860403" lon="16.2947139"><ele>907.0</ele><time>2026-04-12T08:58:27.526Z</time></trkpt><trkpt lat="38.5861455" lon="16.2946521"><ele>907.0</ele><time>2026-04-12T08:58:28.521Z</time></trkpt><trkpt lat="38.5861969" lon="16.2945636"><ele>907.0</ele><time>2026-04-12T08:58:29.528Z</time></trkpt><trkpt lat="38.5862193" lon="16.2944315"><ele>907.0</ele><time>2026-04-12T08:58:30.533Z</time></trkpt><trkpt lat="38.586204" lon="16.2942967"><ele>907.0</ele><time>2026-04-12T08:58:31.523Z</time></trkpt><trkpt lat="38.5861349" lon="16.2941669"><ele>907.0</ele><time>2026-04-12T08:58:32.522Z</time></trkpt><trkpt lat="38.5860357" lon="16.2940503"><ele>907.0</ele><time>2026-04-12T08:58:33.532Z</time></trkpt><trkpt lat="38.5858842" lon="16.2939409"><ele>907.0</ele><time>2026-04-12T08:58:34.522Z</time></trkpt><trkpt lat="38.5857284" lon="16.2938128"><ele>901.6666666666666</ele><time>2026-04-12T08:58:35.521Z</time></trkpt><trkpt lat="38.5856024" lon="16.2936738"><ele>896.3333333333333</ele><time>2026-04-12T08:58:36.521Z</time></trkpt><trkpt lat="38.5854844" lon="16.2935091"><ele>891.0</ele><time>2026-04-12T08:58:37.528Z</time></trkpt><trkpt lat="38.5853888" lon="16.2933149"><ele>897.6666666666667</ele><time>2026-04-12T08:58:38.523Z</time></trkpt><trkpt lat="38.5853225" lon="16.2930884"><ele>904.3333333333334</ele><time>2026-04-12T08:58:39.528Z</time></trkpt><trkpt lat="38.5852815" lon="16.292845"><ele>911.0</ele><time>2026-04-12T08:58:40.521Z</time></trkpt><trkpt lat="38.5852492" lon="16.2926096"><ele>911.0</ele><time>2026-04-12T08:58:41.516Z</time></trkpt><trkpt lat="38.5852226" lon="16.2924047"><ele>911.0</ele><time>2026-04-12T08:58:42.527Z</time></trkpt><trkpt lat="38.5851584" lon="16.2922267"><ele>911.0</ele><time>2026-04-12T08:58:43.521Z</time></trkpt><trkpt lat="38.5849488" lon="16.2920061"><ele>910.5000000000001</ele><time>2026-04-12T08:58:45.52Z</time></trkpt><trkpt lat="38.5849187" lon="16.2918875"><ele>910.0</ele><time>2026-04-12T08:58:46.528Z</time></trkpt><trkpt lat="38.5849099" lon="16.2917962"><ele>909.5</ele><time>2026-04-12T08:58:47.525Z</time></trkpt><trkpt lat="38.5849645" lon="16.2917393"><ele>909.0</ele><time>2026-04-12T08:58:48.528Z</time></trkpt><trkpt lat="38.5850479" lon="16.2917214"><ele>908.5000000000001</ele><time>2026-04-12T08:58:49.527Z</time></trkpt><trkpt lat="38.5851683" lon="16.2917452"><ele>908.0</ele><time>2026-04-12T08:58:50.532Z</time></trkpt><trkpt lat="38.5853214" lon="16.291796"><ele>904.6666666666667</ele><time>2026-04-12T08:58:51.527Z</time></trkpt><trkpt lat="38.5855068" lon="16.2918567"><ele>901.3333333333333</ele><time>2026-04-12T08:58:52.519Z</time></trkpt><trkpt lat="38.5856835" lon="16.2919359"><ele>898.0</ele><time>2026-04-12T08:58:53.518Z</time></trkpt><trkpt lat="38.585833" lon="16.2920345"><ele>898.0</ele><time>2026-04-12T08:58:54.518Z</time></trkpt><trkpt lat="38.585958" lon="16.2921281"><ele>898.0</ele><time>2026-04-12T08:58:55.529Z</time></trkpt><trkpt lat="38.5860729" lon="16.2921788"><ele>898.0</ele><time>2026-04-12T08:58:56.52Z</time></trkpt><trkpt lat="38.5861745" lon="16.2922127"><ele>898.0</ele><time>2026-04-12T08:58:57.523Z</time></trkpt><trkpt lat="38.5862802" lon="16.2921355"><ele>894.25</ele><time>2026-04-12T08:58:58.529Z</time></trkpt><trkpt lat="38.5863735" lon="16.2920367"><ele>890.5</ele><time>2026-04-12T08:58:59.526Z</time></trkpt><trkpt lat="38.5864642" lon="16.2919419"><ele>886.75</ele><time>2026-04-12T08:59:00.522Z</time></trkpt><trkpt lat="38.5865798" lon="16.2919416"><ele>883.0</ele><time>2026-04-12T08:59:01.526Z</time></trkpt><trkpt lat="38.5866801" lon="16.2919613"><ele>883.0</ele><time>2026-04-12T08:59:02.526Z</time></trkpt><trkpt lat="38.5868101" lon="16.2919664"><ele>883.0</ele><time>2026-04-12T08:59:03.52Z</time></trkpt><trkpt lat="38.5869153" lon="16.2918798"><ele>883.0</ele><time>2026-04-12T08:59:04.52Z</time></trkpt><trkpt lat="38.5871095" lon="16.2916321"><ele>879.4</ele><time>2026-04-12T08:59:06.535Z</time></trkpt><trkpt lat="38.5872228" lon="16.2915382"><ele>875.8</ele><time>2026-04-12T08:59:07.526Z</time></trkpt><trkpt lat="38.5873204" lon="16.2914422"><ele>872.2</ele><time>2026-04-12T08:59:08.519Z</time></trkpt><trkpt lat="38.5873867" lon="16.291353"><ele>868.6</ele><time>2026-04-12T08:59:09.532Z</time></trkpt><trkpt lat="38.5874244" lon="16.29127"><ele>865.0</ele><time>2026-04-12T08:59:10.529Z</time></trkpt><trkpt lat="38.5874453" lon="16.2911838"><ele>864.9999999999999</ele><time>2026-04-12T08:59:11.525Z</time></trkpt><trkpt lat="38.5874597" lon="16.2911023"><ele>865.0</ele><time>2026-04-12T08:59:12.521Z</time></trkpt><trkpt lat="38.5874701" lon="16.2909597"><ele>865.0</ele><time>2026-04-12T08:59:14.529Z</time></trkpt><trkpt lat="38.5874748" lon="16.2908777"><ele>865.0</ele><time>2026-04-12T08:59:16.534Z</time></trkpt><trkpt lat="38.5874483" lon="16.2909815"><ele>864.9999999999999</ele><time>2026-04-12T08:59:22.522Z</time></trkpt><trkpt lat="38.587439" lon="16.2911091"><ele>865.0</ele><time>2026-04-12T08:59:23.522Z</time></trkpt><trkpt lat="38.5873994" lon="16.2912582"><ele>865.0</ele><time>2026-04-12T08:59:24.522Z</time></trkpt><trkpt lat="38.5873169" lon="16.2914013"><ele>865.0</ele><time>2026-04-12T08:59:25.525Z</time></trkpt><trkpt lat="38.5870572" lon="16.2916914"><ele>869.5</ele><time>2026-04-12T08:59:27.523Z</time></trkpt><trkpt lat="38.5869358" lon="16.2918231"><ele>874.0</ele><time>2026-04-12T08:59:28.525Z</time></trkpt><trkpt lat="38.5868281" lon="16.2919386"><ele>878.5</ele><time>2026-04-12T08:59:29.522Z</time></trkpt><trkpt lat="38.5866982" lon="16.2919946"><ele>883.0</ele><time>2026-04-12T08:59:30.519Z</time></trkpt><trkpt lat="38.5865605" lon="16.2919779"><ele>883.0</ele><time>2026-04-12T08:59:31.523Z</time></trkpt><trkpt lat="38.5864172" lon="16.2919533"><ele>883.0</ele><time>2026-04-12T08:59:32.529Z</time></trkpt><trkpt lat="38.5863019" lon="16.29204"><ele>883.0</ele><time>2026-04-12T08:59:33.521Z</time></trkpt><trkpt lat="38.5861936" lon="16.2921406"><ele>883.0</ele><time>2026-04-12T08:59:34.531Z</time></trkpt><trkpt lat="38.5860884" lon="16.2922001"><ele>888.0</ele><time>2026-04-12T08:59:35.524Z</time></trkpt><trkpt lat="38.5859401" lon="16.2921421"><ele>893.0</ele><time>2026-04-12T08:59:36.524Z</time></trkpt><trkpt lat="38.5858083" lon="16.2920322"><ele>898.0</ele><time>2026-04-12T08:59:37.516Z</time></trkpt><trkpt lat="38.585663" lon="16.2919377"><ele>898.0</ele><time>2026-04-12T08:59:38.528Z</time></trkpt><trkpt lat="38.585465" lon="16.2918576"><ele>898.0</ele><time>2026-04-12T08:59:39.526Z</time></trkpt><trkpt lat="38.5852897" lon="16.2918021"><ele>898.0</ele><time>2026-04-12T08:59:40.526Z</time></trkpt><trkpt lat="38.5851466" lon="16.2917571"><ele>899.6666666666666</ele><time>2026-04-12T08:59:41.532Z</time></trkpt><trkpt lat="38.5850341" lon="16.2917395"><ele>901.3333333333333</ele><time>2026-04-12T08:59:42.523Z</time></trkpt><trkpt lat="38.584952" lon="16.291742"><ele>903.0</ele><time>2026-04-12T08:59:43.523Z</time></trkpt><trkpt lat="38.584908" lon="16.2917996"><ele>904.6666666666667</ele><time>2026-04-12T08:59:44.522Z</time></trkpt><trkpt lat="38.5848729" lon="16.2918694"><ele>906.3333333333334</ele><time>2026-04-12T08:59:45.525Z</time></trkpt><trkpt lat="38.5849104" lon="16.2919751"><ele>908.0</ele><time>2026-04-12T08:59:46.522Z</time></trkpt><trkpt lat="38.5850723" lon="16.2922424"><ele>909.0</ele><time>2026-04-12T08:59:48.522Z</time></trkpt><trkpt lat="38.5851772" lon="16.2924226"><ele>910.0</ele><time>2026-04-12T08:59:49.522Z</time></trkpt><trkpt lat="38.5852584" lon="16.2926345"><ele>911.0</ele><time>2026-04-12T08:59:50.532Z</time></trkpt><trkpt lat="38.5852846" lon="16.2928696"><ele>916.0</ele><time>2026-04-12T08:59:51.531Z</time></trkpt><trkpt lat="38.5853103" lon="16.2931061"><ele>921.0</ele><time>2026-04-12T08:59:52.528Z</time></trkpt><trkpt lat="38.5853682" lon="16.2933157"><ele>926.0</ele><time>2026-04-12T08:59:53.523Z</time></trkpt><trkpt lat="38.5854617" lon="16.2935105"><ele>919.6666666666667</ele><time>2026-04-12T08:59:54.524Z</time></trkpt><trkpt lat="38.5855759" lon="16.2936916"><ele>913.3333333333333</ele><time>2026-04-12T08:59:55.525Z</time></trkpt><trkpt lat="38.5857088" lon="16.2938438"><ele>907.0</ele><time>2026-04-12T08:59:56.511Z</time></trkpt><trkpt lat="38.5858578" lon="16.2939664"><ele>907.0</ele><time>2026-04-12T08:59:57.538Z</time></trkpt><trkpt lat="38.5859841" lon="16.2940769"><ele>907.0</ele><time>2026-04-12T08:59:58.522Z</time></trkpt><trkpt lat="38.5860801" lon="16.2941959"><ele>907.0</ele><time>2026-04-12T08:59:59.518Z</time></trkpt><trkpt lat="38.5861695" lon="16.2942885"><ele>907.0</ele><time>2026-04-12T09:00:00.522Z</time></trkpt><trkpt lat="38.5861759" lon="16.2944124"><ele>907.0</ele><time>2026-04-12T09:00:01.526Z</time></trkpt><trkpt lat="38.5861477" lon="16.2945196"><ele>907.0</ele><time>2026-04-12T09:00:02.523Z</time></trkpt><trkpt lat="38.5860782" lon="16.2946367"><ele>907.0</ele><time>2026-04-12T09:00:03.528Z</time></trkpt><trkpt lat="38.5859499" lon="16.2947205"><ele>907.0</ele><time>2026-04-12T09:00:04.532Z</time></trkpt><trkpt lat="38.5858059" lon="16.2947777"><ele>904.3333333333333</ele><time>2026-04-12T09:00:05.527Z</time></trkpt><trkpt lat="38.5856345" lon="16.2947966"><ele>901.6666666666667</ele><time>2026-04-12T09:00:06.524Z</time></trkpt><trkpt lat="38.5854342" lon="16.2948377"><ele>899.0</ele><time>2026-04-12T09:00:07.52Z</time></trkpt><trkpt lat="38.5850632" lon="16.2949528"><ele>906.3333333333334</ele><time>2026-04-12T09:00:09.521Z</time></trkpt><trkpt lat="38.5849163" lon="16.2950751"><ele>913.6666666666667</ele><time>2026-04-12T09:00:10.519Z</time></trkpt><trkpt lat="38.5847779" lon="16.2951992"><ele>921.0</ele><time>2026-04-12T09:00:11.522Z</time></trkpt><trkpt lat="38.5846527" lon="16.2953325"><ele>921.0</ele><time>2026-04-12T09:00:12.52Z</time></trkpt><trkpt lat="38.5845543" lon="16.2954899"><ele>921.0</ele><time>2026-04-12T09:00:13.53Z</time></trkpt><trkpt lat="38.5844637" lon="16.2956113"><ele>921.0</ele><time>2026-04-12T09:00:14.525Z</time></trkpt><trkpt lat="38.5844192" lon="16.2957559"><ele>921.0</ele><time>2026-04-12T09:00:15.518Z</time></trkpt><trkpt lat="38.5844159" lon="16.2958718"><ele>923.1999999999999</ele><time>2026-04-12T09:00:16.524Z</time></trkpt><trkpt lat="38.5844504" lon="16.2959711"><ele>925.3999999999999</ele><time>2026-04-12T09:00:17.523Z</time></trkpt><trkpt lat="38.5845324" lon="16.296059"><ele>927.6</ele><time>2026-04-12T09:00:18.519Z</time></trkpt><trkpt lat="38.584631" lon="16.2961291"><ele>929.8</ele><time>2026-04-12T09:00:19.52Z</time></trkpt><trkpt lat="38.5847317" lon="16.2962062"><ele>932.0</ele><time>2026-04-12T09:00:20.522Z</time></trkpt><trkpt lat="38.5848379" lon="16.2962846"><ele>927.6</ele><time>2026-04-12T09:00:21.52Z</time></trkpt><trkpt lat="38.5849146" lon="16.2963712"><ele>923.2</ele><time>2026-04-12T09:00:22.518Z</time></trkpt><trkpt lat="38.5849631" lon="16.2964599"><ele>918.8</ele><time>2026-04-12T09:00:23.534Z</time></trkpt><trkpt lat="38.5849352" lon="16.2965779"><ele>914.4</ele><time>2026-04-12T09:00:24.529Z</time></trkpt><trkpt lat="38.5848908" lon="16.2966792"><ele>910.0</ele><time>2026-04-12T09:00:25.529Z</time></trkpt><trkpt lat="38.5848194" lon="16.2967285"><ele>910.0</ele><time>2026-04-12T09:00:26.527Z</time></trkpt><trkpt lat="38.5847661" lon="16.2968195"><ele>910.0</ele><time>2026-04-12T09:00:27.521Z</time></trkpt><trkpt lat="38.584741" lon="16.2969039"><ele>910.0</ele><time>2026-04-12T09:00:28.521Z</time></trkpt><trkpt lat="38.5847551" lon="16.2971716"><ele>910.0</ele><time>2026-04-12T09:00:30.523Z</time></trkpt><trkpt lat="38.5847815" lon="16.2972829"><ele>908.2</ele><time>2026-04-12T09:00:31.52Z</time></trkpt><trkpt lat="38.5848347" lon="16.2973784"><ele>906.4</ele><time>2026-04-12T09:00:32.526Z</time></trkpt><trkpt lat="38.5848988" lon="16.29744"><ele>904.5999999999999</ele><time>2026-04-12T09:00:33.526Z</time></trkpt><trkpt lat="38.5849826" lon="16.2974839"><ele>902.8</ele><time>2026-04-12T09:00:34.52Z</time></trkpt><trkpt lat="38.5850743" lon="16.297512"><ele>901.0</ele><time>2026-04-12T09:00:35.514Z</time></trkpt><trkpt lat="38.5851698" lon="16.2975614"><ele>901.0</ele><time>2026-04-12T09:00:36.529Z</time></trkpt><trkpt lat="38.5852392" lon="16.297643"><ele>900.9999999999999</ele><time>2026-04-12T09:00:37.527Z</time></trkpt><trkpt lat="38.585281" lon="16.2977576"><ele>900.9999999999999</ele><time>2026-04-12T09:00:38.533Z</time></trkpt><trkpt lat="38.5853106" lon="16.2978776"><ele>901.0</ele><time>2026-04-12T09:00:39.524Z</time></trkpt><trkpt lat="38.5852938" lon="16.2980324"><ele>901.0</ele><time>2026-04-12T09:00:40.523Z</time></trkpt><trkpt lat="38.585264" lon="16.2981862"><ele>898.75</ele><time>2026-04-12T09:00:41.516Z</time></trkpt><trkpt lat="38.5852218" lon="16.2983383"><ele>896.5</ele><time>2026-04-12T09:00:42.528Z</time></trkpt><trkpt lat="38.5851679" lon="16.2984872"><ele>894.25</ele><time>2026-04-12T09:00:43.523Z</time></trkpt><trkpt lat="38.5850929" lon="16.2986251"><ele>892.0</ele><time>2026-04-12T09:00:44.531Z</time></trkpt><trkpt lat="38.5850181" lon="16.2987542"><ele>892.0</ele><time>2026-04-12T09:00:45.517Z</time></trkpt><trkpt lat="38.5849305" lon="16.2988694"><ele>892.0</ele><time>2026-04-12T09:00:46.524Z</time></trkpt><trkpt lat="38.5848774" lon="16.299029"><ele>892.0</ele><time>2026-04-12T09:00:47.52Z</time></trkpt><trkpt lat="38.5848339" lon="16.2991965"><ele>892.0</ele><time>2026-04-12T09:00:48.52Z</time></trkpt><trkpt lat="38.584806" lon="16.2993577"><ele>889.3333333333333</ele><time>2026-04-12T09:00:49.523Z</time></trkpt><trkpt lat="38.5848312" lon="16.2996573"><ele>886.6666666666667</ele><time>2026-04-12T09:00:51.526Z</time></trkpt><trkpt lat="38.5848809" lon="16.2997952"><ele>884.0</ele><time>2026-04-12T09:00:52.523Z</time></trkpt><trkpt lat="38.5849407" lon="16.2999342"><ele>882.5</ele><time>2026-04-12T09:00:53.529Z</time></trkpt><trkpt lat="38.5850118" lon="16.3000671"><ele>881.0</ele><time>2026-04-12T09:00:54.523Z</time></trkpt><trkpt lat="38.5850785" lon="16.3001923"><ele>879.5</ele><time>2026-04-12T09:00:55.523Z</time></trkpt><trkpt lat="38.5851337" lon="16.3003147"><ele>878.0</ele><time>2026-04-12T09:00:56.52Z</time></trkpt><trkpt lat="38.5851768" lon="16.3004355"><ele>878.0</ele><time>2026-04-12T09:00:57.518Z</time></trkpt><trkpt lat="38.5852075" lon="16.3005588"><ele>878.0</ele><time>2026-04-12T09:00:58.519Z</time></trkpt><trkpt lat="38.5852315" lon="16.3006837"><ele>878.0</ele><time>2026-04-12T09:00:59.527Z</time></trkpt><trkpt lat="38.5852457" lon="16.3008126"><ele>878.0</ele><time>2026-04-12T09:01:00.522Z</time></trkpt><trkpt lat="38.5852492" lon="16.3009213"><ele>878.0</ele><time>2026-04-12T09:01:01.519Z</time></trkpt><trkpt lat="38.5852442" lon="16.3010095"><ele>877.6666666666667</ele><time>2026-04-12T09:01:02.521Z</time></trkpt><trkpt lat="38.5852312" lon="16.3010996"><ele>877.3333333333334</ele><time>2026-04-12T09:01:03.527Z</time></trkpt><trkpt lat="38.5852114" lon="16.3011876"><ele>877.0</ele><time>2026-04-12T09:01:04.517Z</time></trkpt><trkpt lat="38.5851878" lon="16.3012797"><ele>876.6666666666667</ele><time>2026-04-12T09:01:05.527Z</time></trkpt><trkpt lat="38.5851608" lon="16.3013726"><ele>876.3333333333334</ele><time>2026-04-12T09:01:06.528Z</time></trkpt><trkpt lat="38.5851362" lon="16.3014653"><ele>876.0</ele><time>2026-04-12T09:01:07.528Z</time></trkpt><trkpt lat="38.5851118" lon="16.3015587"><ele>875.0</ele><time>2026-04-12T09:01:08.525Z</time></trkpt><trkpt lat="38.5850883" lon="16.301652"><ele>874.0</ele><time>2026-04-12T09:01:09.533Z</time></trkpt><trkpt lat="38.5850663" lon="16.3017429"><ele>873.0</ele><time>2026-04-12T09:01:10.524Z</time></trkpt><trkpt lat="38.5850314" lon="16.3019212"><ele>872.0</ele><time>2026-04-12T09:01:12.524Z</time></trkpt><trkpt lat="38.5850173" lon="16.3020095"><ele>871.0</ele><time>2026-04-12T09:01:13.536Z</time></trkpt><trkpt lat="38.5850013" lon="16.3020949"><ele>870.0</ele><time>2026-04-12T09:01:14.525Z</time></trkpt><trkpt lat="38.5849834" lon="16.3021763"><ele>869.6</ele><time>2026-04-12T09:01:15.533Z</time></trkpt><trkpt lat="38.5849492" lon="16.3023145"><ele>869.2</ele><time>2026-04-12T09:01:17.519Z</time></trkpt><trkpt lat="38.5849336" lon="16.3024117"><ele>868.8</ele><time>2026-04-12T09:01:19.529Z</time></trkpt><trkpt lat="38.5849168" lon="16.3025015"><ele>868.4</ele><time>2026-04-12T09:01:21.529Z</time></trkpt><trkpt lat="38.5848926" lon="16.3026297"><ele>868.0</ele><time>2026-04-12T09:01:23.531Z</time></trkpt><trkpt lat="38.5848539" lon="16.3027684"><ele>868.0</ele><time>2026-04-12T09:01:25.525Z</time></trkpt><trkpt lat="38.5848259" lon="16.3028858"><ele>868.0</ele><time>2026-04-12T09:01:27.535Z</time></trkpt><trkpt lat="38.5847921" lon="16.3030006"><ele>868.0</ele><time>2026-04-12T09:02:28.524Z</time></trkpt><trkpt lat="38.5847407" lon="16.3032204"><ele>868.0</ele><time>2026-04-12T09:02:31.523Z</time></trkpt><trkpt lat="38.5847215" lon="16.3033091"><ele>868.0</ele><time>2026-04-12T09:02:32.521Z</time></trkpt><trkpt lat="38.5847018" lon="16.30339"><ele>866.9999999999999</ele><time>2026-04-12T09:02:33.524Z</time></trkpt><trkpt lat="38.5846824" lon="16.3034691"><ele>866.0</ele><time>2026-04-12T09:02:34.523Z</time></trkpt><trkpt lat="38.5846603" lon="16.3035578"><ele>865.0</ele><time>2026-04-12T09:02:35.532Z</time></trkpt><trkpt lat="38.584636" lon="16.3036548"><ele>864.0</ele><time>2026-04-12T09:02:36.527Z</time></trkpt><trkpt lat="38.5846107" lon="16.303761"><ele>862.9999999999999</ele><time>2026-04-12T09:02:37.532Z</time></trkpt><trkpt lat="38.5845829" lon="16.3038747"><ele>862.0</ele><time>2026-04-12T09:02:38.523Z</time></trkpt><trkpt lat="38.584555" lon="16.3039921"><ele>862.0</ele><time>2026-04-12T09:02:39.53Z</time></trkpt><trkpt lat="38.5845265" lon="16.3041177"><ele>862.0</ele><time>2026-04-12T09:02:40.527Z</time></trkpt><trkpt lat="38.5844965" lon="16.3042484"><ele>862.0</ele><time>2026-04-12T09:02:41.524Z</time></trkpt><trkpt lat="38.5844628" lon="16.3043869"><ele>862.0</ele><time>2026-04-12T09:02:42.523Z</time></trkpt><trkpt lat="38.5844281" lon="16.3045276"><ele>862.0</ele><time>2026-04-12T09:02:43.524Z</time></trkpt><trkpt lat="38.584395" lon="16.3046686"><ele>861.25</ele><time>2026-04-12T09:02:44.524Z</time></trkpt><trkpt lat="38.5843608" lon="16.304811"><ele>860.5</ele><time>2026-04-12T09:02:45.532Z</time></trkpt><trkpt lat="38.584327" lon="16.3049504"><ele>859.75</ele><time>2026-04-12T09:02:46.527Z</time></trkpt><trkpt lat="38.5842905" lon="16.3050905"><ele>859.0</ele><time>2026-04-12T09:02:47.539Z</time></trkpt><trkpt lat="38.5842516" lon="16.3052364"><ele>859.0</ele><time>2026-04-12T09:02:48.531Z</time></trkpt><trkpt lat="38.5842108" lon="16.305392"><ele>859.0</ele><time>2026-04-12T09:02:49.533Z</time></trkpt><trkpt lat="38.5841205" lon="16.3057258"><ele>859.0</ele><time>2026-04-12T09:02:51.524Z</time></trkpt><trkpt lat="38.5840753" lon="16.3058963"><ele>861.6666666666666</ele><time>2026-04-12T09:02:52.535Z</time></trkpt><trkpt lat="38.5840298" lon="16.3060802"><ele>864.3333333333333</ele><time>2026-04-12T09:02:53.525Z</time></trkpt><trkpt lat="38.5839839" lon="16.3062734"><ele>867.0</ele><time>2026-04-12T09:02:54.521Z</time></trkpt><trkpt lat="38.5839377" lon="16.3064697"><ele>867.0</ele><time>2026-04-12T09:02:55.525Z</time></trkpt><trkpt lat="38.583893" lon="16.3066539"><ele>867.0</ele><time>2026-04-12T09:02:56.529Z</time></trkpt><trkpt lat="38.5838489" lon="16.3068306"><ele>867.0</ele><time>2026-04-12T09:02:57.527Z</time></trkpt><trkpt lat="38.5838032" lon="16.3070108"><ele>867.0</ele><time>2026-04-12T09:02:58.524Z</time></trkpt><trkpt lat="38.583758" lon="16.307199"><ele>865.0</ele><time>2026-04-12T09:02:59.528Z</time></trkpt><trkpt lat="38.5837115" lon="16.3073934"><ele>863.0</ele><time>2026-04-12T09:03:00.527Z</time></trkpt><trkpt lat="38.5836644" lon="16.3075878"><ele>861.0</ele><time>2026-04-12T09:03:01.524Z</time></trkpt><trkpt lat="38.5836197" lon="16.3077819"><ele>857.3333333333333</ele><time>2026-04-12T09:03:02.52Z</time></trkpt><trkpt lat="38.583574" lon="16.3079772"><ele>853.6666666666666</ele><time>2026-04-12T09:03:03.526Z</time></trkpt><trkpt lat="38.5835266" lon="16.3081725"><ele>850.0</ele><time>2026-04-12T09:03:04.526Z</time></trkpt><trkpt lat="38.58348" lon="16.3083663"><ele>849.6666666666666</ele><time>2026-04-12T09:03:05.527Z</time></trkpt><trkpt lat="38.5834356" lon="16.3085553"><ele>849.3333333333333</ele><time>2026-04-12T09:03:06.527Z</time></trkpt><trkpt lat="38.5833921" lon="16.3087397"><ele>849.0</ele><time>2026-04-12T09:03:07.528Z</time></trkpt><trkpt lat="38.5833466" lon="16.3089409"><ele>854.3333333333333</ele><time>2026-04-12T09:03:08.528Z</time></trkpt><trkpt lat="38.5832961" lon="16.3091726"><ele>859.6666666666666</ele><time>2026-04-12T09:03:09.518Z</time></trkpt><trkpt lat="38.5832393" lon="16.3094175"><ele>865.0</ele><time>2026-04-12T09:03:10.533Z</time></trkpt><trkpt lat="38.5831189" lon="16.3098797"><ele>868.3333333333333</ele><time>2026-04-12T09:03:12.526Z</time></trkpt><trkpt lat="38.5830668" lon="16.3100895"><ele>871.6666666666667</ele><time>2026-04-12T09:03:13.523Z</time></trkpt><trkpt lat="38.5830177" lon="16.3102954"><ele>875.0</ele><time>2026-04-12T09:03:14.519Z</time></trkpt><trkpt lat="38.5829645" lon="16.3105052"><ele>875.0</ele><time>2026-04-12T09:03:15.52Z</time></trkpt><trkpt lat="38.5829128" lon="16.3107099"><ele>875.0</ele><time>2026-04-12T09:03:16.521Z</time></trkpt><trkpt lat="38.5828591" lon="16.310908"><ele>875.0</ele><time>2026-04-12T09:03:17.524Z</time></trkpt><trkpt lat="38.5828056" lon="16.3110987"><ele>875.0</ele><time>2026-04-12T09:03:18.536Z</time></trkpt><trkpt lat="38.5827625" lon="16.3112964"><ele>875.0</ele><time>2026-04-12T09:03:19.53Z</time></trkpt><trkpt lat="38.5827206" lon="16.3114965"><ele>875.0</ele><time>2026-04-12T09:03:20.517Z</time></trkpt><trkpt lat="38.5826858" lon="16.3117064"><ele>875.0</ele><time>2026-04-12T09:03:21.526Z</time></trkpt><trkpt lat="38.5826558" lon="16.3119104"><ele>875.0</ele><time>2026-04-12T09:03:22.525Z</time></trkpt><trkpt lat="38.5826272" lon="16.3121106"><ele>875.0</ele><time>2026-04-12T09:03:23.522Z</time></trkpt><trkpt lat="38.5825971" lon="16.3123205"><ele>873.6666666666667</ele><time>2026-04-12T09:03:24.525Z</time></trkpt><trkpt lat="38.5825814" lon="16.3125269"><ele>872.3333333333333</ele><time>2026-04-12T09:03:25.528Z</time></trkpt><trkpt lat="38.5825657" lon="16.3127383"><ele>871.0</ele><time>2026-04-12T09:03:26.517Z</time></trkpt><trkpt lat="38.582556" lon="16.3129545"><ele>869.6666666666666</ele><time>2026-04-12T09:03:27.523Z</time></trkpt><trkpt lat="38.5825497" lon="16.3131729"><ele>868.3333333333333</ele><time>2026-04-12T09:03:28.52Z</time></trkpt><trkpt lat="38.5825485" lon="16.3133901"><ele>867.0</ele><time>2026-04-12T09:03:29.523Z</time></trkpt><trkpt lat="38.5825508" lon="16.3135944"><ele>867.0</ele><time>2026-04-12T09:03:30.523Z</time></trkpt><trkpt lat="38.5825577" lon="16.3137963"><ele>867.0</ele><time>2026-04-12T09:03:31.524Z</time></trkpt><trkpt lat="38.5825818" lon="16.3142105"><ele>865.6666666666667</ele><time>2026-04-12T09:03:33.516Z</time></trkpt><trkpt lat="38.5826011" lon="16.3144236"><ele>864.3333333333334</ele><time>2026-04-12T09:03:34.521Z</time></trkpt><trkpt lat="38.5826255" lon="16.3146385"><ele>863.0</ele><time>2026-04-12T09:03:35.538Z</time></trkpt><trkpt lat="38.5826539" lon="16.3148557"><ele>862.6666666666667</ele><time>2026-04-12T09:03:36.524Z</time></trkpt><trkpt lat="38.5826879" lon="16.3150799"><ele>862.3333333333333</ele><time>2026-04-12T09:03:37.524Z</time></trkpt><trkpt lat="38.5827295" lon="16.3153096"><ele>862.0</ele><time>2026-04-12T09:03:38.522Z</time></trkpt><trkpt lat="38.5827794" lon="16.3155385"><ele>864.3333333333333</ele><time>2026-04-12T09:03:39.522Z</time></trkpt><trkpt lat="38.5828334" lon="16.3157625"><ele>866.6666666666667</ele><time>2026-04-12T09:03:40.519Z</time></trkpt><trkpt lat="38.5828944" lon="16.3159893"><ele>869.0</ele><time>2026-04-12T09:03:41.525Z</time></trkpt><trkpt lat="38.5829628" lon="16.3162271"><ele>873.3333333333334</ele><time>2026-04-12T09:03:42.522Z</time></trkpt><trkpt lat="38.583045" lon="16.3164825"><ele>877.6666666666667</ele><time>2026-04-12T09:03:43.526Z</time></trkpt><trkpt lat="38.5831308" lon="16.3167471"><ele>882.0</ele><time>2026-04-12T09:03:44.515Z</time></trkpt><trkpt lat="38.583222" lon="16.3170193"><ele>884.0</ele><time>2026-04-12T09:03:45.516Z</time></trkpt><trkpt lat="38.5842083" lon="16.3186288"><ele>878.5</ele><time>2026-04-12T09:03:53.537Z</time></trkpt><trkpt lat="38.5844127" lon="16.3190484"><ele>873.0</ele><time>2026-04-12T09:03:55.525Z</time></trkpt><trkpt lat="38.5845404" lon="16.3193455"><ele>873.0</ele><time>2026-04-12T09:03:56.512Z</time></trkpt><trkpt lat="38.5846656" lon="16.3195468"><ele>873.0</ele><time>2026-04-12T09:03:57.536Z</time></trkpt><trkpt lat="38.5847921" lon="16.3197567"><ele>873.0</ele><time>2026-04-12T09:03:58.534Z</time></trkpt><trkpt lat="38.58492" lon="16.3199595"><ele>870.0</ele><time>2026-04-12T09:03:59.531Z</time></trkpt><trkpt lat="38.5850489" lon="16.3201575"><ele>867.0</ele><time>2026-04-12T09:04:00.521Z</time></trkpt><trkpt lat="38.5851812" lon="16.3203546"><ele>864.0</ele><time>2026-04-12T09:04:01.513Z</time></trkpt><trkpt lat="38.5853136" lon="16.320554"><ele>870.0</ele><time>2026-04-12T09:04:02.524Z</time></trkpt><trkpt lat="38.5854471" lon="16.3207575"><ele>876.0</ele><time>2026-04-12T09:04:03.548Z</time></trkpt><trkpt lat="38.5855819" lon="16.3209512"><ele>882.0</ele><time>2026-04-12T09:04:04.509Z</time></trkpt><trkpt lat="38.585712" lon="16.3211451"><ele>882.0</ele><time>2026-04-12T09:04:05.508Z</time></trkpt><trkpt lat="38.5858428" lon="16.321348"><ele>882.0</ele><time>2026-04-12T09:04:06.518Z</time></trkpt><trkpt lat="38.5859754" lon="16.3215722"><ele>882.0</ele><time>2026-04-12T09:04:07.518Z</time></trkpt><trkpt lat="38.5860988" lon="16.3218036"><ele>875.3333333333333</ele><time>2026-04-12T09:04:08.524Z</time></trkpt><trkpt lat="38.5862119" lon="16.322038"><ele>868.6666666666666</ele><time>2026-04-12T09:04:09.533Z</time></trkpt><trkpt lat="38.5863183" lon="16.3222777"><ele>862.0</ele><time>2026-04-12T09:04:10.525Z</time></trkpt><trkpt lat="38.5864153" lon="16.3225391"><ele>861.3333333333333</ele><time>2026-04-12T09:04:11.532Z</time></trkpt><trkpt lat="38.5865062" lon="16.322793"><ele>860.6666666666667</ele><time>2026-04-12T09:04:12.517Z</time></trkpt><trkpt lat="38.586591" lon="16.323043"><ele>860.0</ele><time>2026-04-12T09:04:13.52Z</time></trkpt><trkpt lat="38.5866661" lon="16.3232873"><ele>860.0</ele><time>2026-04-12T09:04:14.544Z</time></trkpt><trkpt lat="38.5868008" lon="16.3237703"><ele>860.0</ele><time>2026-04-12T09:04:16.523Z</time></trkpt><trkpt lat="38.5868684" lon="16.3240172"><ele>860.0</ele><time>2026-04-12T09:04:17.522Z</time></trkpt><trkpt lat="38.5869331" lon="16.324268"><ele>860.0</ele><time>2026-04-12T09:04:18.517Z</time></trkpt><trkpt lat="38.5869963" lon="16.3245258"><ele>860.0</ele><time>2026-04-12T09:04:19.532Z</time></trkpt><trkpt lat="38.5870619" lon="16.3247907"><ele>854.6666666666667</ele><time>2026-04-12T09:04:20.519Z</time></trkpt><trkpt lat="38.5871294" lon="16.3250604"><ele>849.3333333333333</ele><time>2026-04-12T09:04:21.528Z</time></trkpt><trkpt lat="38.5871925" lon="16.3253173"><ele>844.0</ele><time>2026-04-12T09:04:22.524Z</time></trkpt><trkpt lat="38.587256" lon="16.3255701"><ele>844.0</ele><time>2026-04-12T09:04:23.516Z</time></trkpt><trkpt lat="38.5873213" lon="16.3258156"><ele>844.0</ele><time>2026-04-12T09:04:24.523Z</time></trkpt><trkpt lat="38.5873893" lon="16.3260598"><ele>844.0</ele><time>2026-04-12T09:04:25.529Z</time></trkpt><trkpt lat="38.5874698" lon="16.326297"><ele>843.6666666666666</ele><time>2026-04-12T09:04:26.515Z</time></trkpt><trkpt lat="38.5875553" lon="16.3265392"><ele>843.3333333333333</ele><time>2026-04-12T09:04:27.517Z</time></trkpt><trkpt lat="38.5876469" lon="16.3267849"><ele>843.0</ele><time>2026-04-12T09:04:28.521Z</time></trkpt><trkpt lat="38.5877623" lon="16.327036"><ele>834.5</ele><time>2026-04-12T09:04:29.519Z</time></trkpt><trkpt lat="38.5878699" lon="16.3272978"><ele>826.0</ele><time>2026-04-12T09:04:30.528Z</time></trkpt><trkpt lat="38.587991" lon="16.3275521"><ele>826.0</ele><time>2026-04-12T09:04:31.524Z</time></trkpt><trkpt lat="38.5881147" lon="16.3277973"><ele>826.0</ele><time>2026-04-12T09:04:32.516Z</time></trkpt><trkpt lat="38.5882361" lon="16.3280415"><ele>823.6666666666666</ele><time>2026-04-12T09:04:33.526Z</time></trkpt><trkpt lat="38.5883772" lon="16.328258"><ele>821.3333333333333</ele><time>2026-04-12T09:04:34.527Z</time></trkpt><trkpt lat="38.58852" lon="16.3284734"><ele>819.0</ele><time>2026-04-12T09:04:35.524Z</time></trkpt><trkpt lat="38.5888153" lon="16.3288727"><ele>818.0</ele><time>2026-04-12T09:04:37.522Z</time></trkpt><trkpt lat="38.5889608" lon="16.3290583"><ele>817.0</ele><time>2026-04-12T09:04:38.52Z</time></trkpt><trkpt lat="38.5891017" lon="16.329229"><ele>816.0</ele><time>2026-04-12T09:04:39.518Z</time></trkpt><trkpt lat="38.589239" lon="16.3293924"><ele>816.0</ele><time>2026-04-12T09:04:40.516Z</time></trkpt><trkpt lat="38.5893678" lon="16.3295398"><ele>816.0</ele><time>2026-04-12T09:04:41.526Z</time></trkpt><trkpt lat="38.5894897" lon="16.3296654"><ele>816.0</ele><time>2026-04-12T09:04:42.517Z</time></trkpt><trkpt lat="38.5896147" lon="16.32979"><ele>815.3333333333333</ele><time>2026-04-12T09:04:43.532Z</time></trkpt><trkpt lat="38.5897401" lon="16.3299038"><ele>814.6666666666666</ele><time>2026-04-12T09:04:44.524Z</time></trkpt><trkpt lat="38.5898637" lon="16.3300136"><ele>814.0</ele><time>2026-04-12T09:04:45.526Z</time></trkpt><trkpt lat="38.5899809" lon="16.3301311"><ele>814.0</ele><time>2026-04-12T09:04:46.524Z</time></trkpt><trkpt lat="38.5900946" lon="16.3302468"><ele>814.0</ele><time>2026-04-12T09:04:47.53Z</time></trkpt><trkpt lat="38.5902073" lon="16.3303593"><ele>814.0</ele><time>2026-04-12T09:04:48.524Z</time></trkpt><trkpt lat="38.5903117" lon="16.330473"><ele>814.0</ele><time>2026-04-12T09:04:49.524Z</time></trkpt><trkpt lat="38.5904299" lon="16.3305629"><ele>812.25</ele><time>2026-04-12T09:04:50.524Z</time></trkpt><trkpt lat="38.5905531" lon="16.3306446"><ele>810.5</ele><time>2026-04-12T09:04:51.525Z</time></trkpt><trkpt lat="38.590683" lon="16.3307215"><ele>808.75</ele><time>2026-04-12T09:04:52.518Z</time></trkpt><trkpt lat="38.5908192" lon="16.330805"><ele>807.0</ele><time>2026-04-12T09:04:53.524Z</time></trkpt><trkpt lat="38.5909674" lon="16.3308751"><ele>807.0</ele><time>2026-04-12T09:04:54.522Z</time></trkpt><trkpt lat="38.5911318" lon="16.3309357"><ele>807.0</ele><time>2026-04-12T09:04:55.52Z</time></trkpt><trkpt lat="38.5913119" lon="16.3310051"><ele>807.0</ele><time>2026-04-12T09:04:56.523Z</time></trkpt><trkpt lat="38.5916496" lon="16.3311378"><ele>805.5</ele><time>2026-04-12T09:04:58.521Z</time></trkpt><trkpt lat="38.5918009" lon="16.3311989"><ele>804.0</ele><time>2026-04-12T09:04:59.524Z</time></trkpt><trkpt lat="38.5919217" lon="16.3312488"><ele>802.5</ele><time>2026-04-12T09:05:00.52Z</time></trkpt><trkpt lat="38.5920193" lon="16.33129"><ele>801.0</ele><time>2026-04-12T09:05:01.519Z</time></trkpt><trkpt lat="38.5921058" lon="16.3313265"><ele>800.8333333333334</ele><time>2026-04-12T09:05:02.521Z</time></trkpt><trkpt lat="38.5921675" lon="16.3313767"><ele>800.6666666666667</ele><time>2026-04-12T09:05:03.529Z</time></trkpt><trkpt lat="38.5922309" lon="16.3314395"><ele>800.5</ele><time>2026-04-12T09:05:04.515Z</time></trkpt><trkpt lat="38.592288" lon="16.3315153"><ele>800.3333333333334</ele><time>2026-04-12T09:05:05.52Z</time></trkpt><trkpt lat="38.5923368" lon="16.3315953"><ele>800.1666666666667</ele><time>2026-04-12T09:05:06.527Z</time></trkpt><trkpt lat="38.5923714" lon="16.3316942"><ele>800.0</ele><time>2026-04-12T09:05:07.519Z</time></trkpt><trkpt lat="38.5923834" lon="16.3317963"><ele>799.6</ele><time>2026-04-12T09:05:08.524Z</time></trkpt><trkpt lat="38.5923794" lon="16.3318923"><ele>799.2</ele><time>2026-04-12T09:05:09.523Z</time></trkpt><trkpt lat="38.5923499" lon="16.3319942"><ele>798.8</ele><time>2026-04-12T09:05:10.522Z</time></trkpt><trkpt lat="38.592301" lon="16.3321069"><ele>798.4</ele><time>2026-04-12T09:05:11.525Z</time></trkpt><trkpt lat="38.5922437" lon="16.3322231"><ele>798.0</ele><time>2026-04-12T09:05:12.524Z</time></trkpt><trkpt lat="38.5921757" lon="16.3323452"><ele>796.25</ele><time>2026-04-12T09:05:13.516Z</time></trkpt><trkpt lat="38.5920968" lon="16.3324762"><ele>794.5</ele><time>2026-04-12T09:05:14.521Z</time></trkpt><trkpt lat="38.5920139" lon="16.3326155"><ele>792.75</ele><time>2026-04-12T09:05:15.519Z</time></trkpt><trkpt lat="38.5919275" lon="16.332758"><ele>791.0</ele><time>2026-04-12T09:05:16.522Z</time></trkpt><trkpt lat="38.5918378" lon="16.3329065"><ele>798.5</ele><time>2026-04-12T09:05:17.521Z</time></trkpt><trkpt lat="38.5916458" lon="16.3332142"><ele>806.0</ele><time>2026-04-12T09:05:19.519Z</time></trkpt><trkpt lat="38.5915422" lon="16.3333653"><ele>806.0</ele><time>2026-04-12T09:05:20.523Z</time></trkpt><trkpt lat="38.5914267" lon="16.3335031"><ele>806.0</ele><time>2026-04-12T09:05:21.528Z</time></trkpt><trkpt lat="38.5913004" lon="16.3336252"><ele>806.0</ele><time>2026-04-12T09:05:22.529Z</time></trkpt><trkpt lat="38.5911622" lon="16.3337347"><ele>807.0</ele><time>2026-04-12T09:05:23.527Z</time></trkpt><trkpt lat="38.5910152" lon="16.3338264"><ele>808.0</ele><time>2026-04-12T09:05:24.519Z</time></trkpt><trkpt lat="38.5908675" lon="16.3339101"><ele>809.0</ele><time>2026-04-12T09:05:25.521Z</time></trkpt><trkpt lat="38.5907168" lon="16.3339965"><ele>809.0</ele><time>2026-04-12T09:05:26.519Z</time></trkpt><trkpt lat="38.5905689" lon="16.3340868"><ele>809.0</ele><time>2026-04-12T09:05:27.531Z</time></trkpt><trkpt lat="38.590428" lon="16.3341883"><ele>809.0</ele><time>2026-04-12T09:05:28.526Z</time></trkpt><trkpt lat="38.5903006" lon="16.3343053"><ele>811.3333333333334</ele><time>2026-04-12T09:05:29.518Z</time></trkpt><trkpt lat="38.5901883" lon="16.3344322"><ele>813.6666666666667</ele><time>2026-04-12T09:05:30.519Z</time></trkpt><trkpt lat="38.5900831" lon="16.3345716"><ele>816.0</ele><time>2026-04-12T09:05:31.517Z</time></trkpt><trkpt lat="38.589989" lon="16.3347233"><ele>816.0</ele><time>2026-04-12T09:05:32.524Z</time></trkpt><trkpt lat="38.5899095" lon="16.3348817"><ele>816.0</ele><time>2026-04-12T09:05:33.519Z</time></trkpt><trkpt lat="38.5898411" lon="16.3350476"><ele>816.0</ele><time>2026-04-12T09:05:34.524Z</time></trkpt><trkpt lat="38.5897775" lon="16.3352165"><ele>816.0</ele><time>2026-04-12T09:05:35.523Z</time></trkpt><trkpt lat="38.5897174" lon="16.3353897"><ele>815.6666666666667</ele><time>2026-04-12T09:05:36.515Z</time></trkpt><trkpt lat="38.5896622" lon="16.3355568"><ele>815.3333333333334</ele><time>2026-04-12T09:05:37.519Z</time></trkpt><trkpt lat="38.5896106" lon="16.3357139"><ele>815.0</ele><time>2026-04-12T09:05:38.518Z</time></trkpt><trkpt lat="38.5895207" lon="16.3360018"><ele>814.8333333333334</ele><time>2026-04-12T09:05:40.518Z</time></trkpt><trkpt lat="38.5894784" lon="16.3361283"><ele>814.6666666666667</ele><time>2026-04-12T09:05:41.523Z</time></trkpt><trkpt lat="38.5894389" lon="16.3362306"><ele>814.5</ele><time>2026-04-12T09:05:42.52Z</time></trkpt><trkpt lat="38.5894017" lon="16.3363151"><ele>814.3333333333333</ele><time>2026-04-12T09:05:43.528Z</time></trkpt><trkpt lat="38.5893439" lon="16.3364109"><ele>814.1666666666666</ele><time>2026-04-12T09:05:45.515Z</time></trkpt><trkpt lat="38.5892752" lon="16.3364676"><ele>814.0</ele><time>2026-04-12T09:05:47.533Z</time></trkpt><trkpt lat="38.5891494" lon="16.3364957"><ele>814.0</ele><time>2026-04-12T09:05:49.519Z</time></trkpt><trkpt lat="38.5890693" lon="16.3364874"><ele>814.0</ele><time>2026-04-12T09:05:50.525Z</time></trkpt><trkpt lat="38.5889773" lon="16.3364719"><ele>814.0</ele><time>2026-04-12T09:05:51.528Z</time></trkpt><trkpt lat="38.5888806" lon="16.3364504"><ele>814.0</ele><time>2026-04-12T09:05:52.53Z</time></trkpt><trkpt lat="38.5887912" lon="16.3364229"><ele>814.0</ele><time>2026-04-12T09:05:53.522Z</time></trkpt><trkpt lat="38.5886993" lon="16.3363797"><ele>814.5</ele><time>2026-04-12T09:05:54.52Z</time></trkpt><trkpt lat="38.5886014" lon="16.33632"><ele>815.0</ele><time>2026-04-12T09:05:55.515Z</time></trkpt><trkpt lat="38.5884893" lon="16.3362552"><ele>815.5</ele><time>2026-04-12T09:05:56.517Z</time></trkpt><trkpt lat="38.5883724" lon="16.3361874"><ele>816.0</ele><time>2026-04-12T09:05:57.525Z</time></trkpt><trkpt lat="38.5882613" lon="16.3361245"><ele>816.0</ele><time>2026-04-12T09:05:58.519Z</time></trkpt><trkpt lat="38.5881579" lon="16.3360643"><ele>816.0</ele><time>2026-04-12T09:05:59.521Z</time></trkpt><trkpt lat="38.587966" lon="16.3359723"><ele>816.0</ele><time>2026-04-12T09:06:01.532Z</time></trkpt><trkpt lat="38.5878743" lon="16.3359576"><ele>816.0</ele><time>2026-04-12T09:06:02.522Z</time></trkpt><trkpt lat="38.587784" lon="16.3359728"><ele>816.0</ele><time>2026-04-12T09:06:03.525Z</time></trkpt><trkpt lat="38.5876986" lon="16.3360241"><ele>816.0</ele><time>2026-04-12T09:06:04.523Z</time></trkpt><trkpt lat="38.5876222" lon="16.33611"><ele>816.0</ele><time>2026-04-12T09:06:05.527Z</time></trkpt><trkpt lat="38.5875534" lon="16.3362154"><ele>816.0</ele><time>2026-04-12T09:06:06.519Z</time></trkpt><trkpt lat="38.5874842" lon="16.3363156"><ele>816.0</ele><time>2026-04-12T09:06:07.529Z</time></trkpt><trkpt lat="38.5874083" lon="16.3364008"><ele>814.4</ele><time>2026-04-12T09:06:08.523Z</time></trkpt><trkpt lat="38.5873208" lon="16.3364659"><ele>812.8</ele><time>2026-04-12T09:06:09.52Z</time></trkpt><trkpt lat="38.5872198" lon="16.3365194"><ele>811.1999999999999</ele><time>2026-04-12T09:06:10.524Z</time></trkpt><trkpt lat="38.587105" lon="16.3365573"><ele>809.5999999999999</ele><time>2026-04-12T09:06:11.526Z</time></trkpt><trkpt lat="38.5869868" lon="16.3365801"><ele>808.0</ele><time>2026-04-12T09:06:12.519Z</time></trkpt><trkpt lat="38.5868715" lon="16.3365865"><ele>807.5</ele><time>2026-04-12T09:06:13.525Z</time></trkpt><trkpt lat="38.5867567" lon="16.336576"><ele>807.0</ele><time>2026-04-12T09:06:14.515Z</time></trkpt><trkpt lat="38.5866414" lon="16.3365434"><ele>806.5</ele><time>2026-04-12T09:06:15.517Z</time></trkpt><trkpt lat="38.5865335" lon="16.3364971"><ele>806.0</ele><time>2026-04-12T09:06:16.533Z</time></trkpt><trkpt lat="38.5864388" lon="16.3364436"><ele>806.25</ele><time>2026-04-12T09:06:17.532Z</time></trkpt><trkpt lat="38.5863573" lon="16.3363716"><ele>806.5</ele><time>2026-04-12T09:06:18.526Z</time></trkpt><trkpt lat="38.5862897" lon="16.3362754"><ele>806.75</ele><time>2026-04-12T09:06:19.526Z</time></trkpt><trkpt lat="38.5862379" lon="16.3361586"><ele>807.0</ele><time>2026-04-12T09:06:20.524Z</time></trkpt><trkpt lat="38.5861369" lon="16.3359061"><ele>806.2</ele><time>2026-04-12T09:06:22.526Z</time></trkpt><trkpt lat="38.5860693" lon="16.335797"><ele>805.4000000000001</ele><time>2026-04-12T09:06:23.521Z</time></trkpt><trkpt lat="38.5859891" lon="16.3357095"><ele>804.5999999999999</ele><time>2026-04-12T09:06:24.524Z</time></trkpt><trkpt lat="38.5858927" lon="16.335644"><ele>803.8</ele><time>2026-04-12T09:06:25.537Z</time></trkpt><trkpt lat="38.5857856" lon="16.3356085"><ele>803.0</ele><time>2026-04-12T09:06:26.522Z</time></trkpt><trkpt lat="38.5856815" lon="16.3355984"><ele>803.0000000000001</ele><time>2026-04-12T09:06:27.521Z</time></trkpt><trkpt lat="38.5855913" lon="16.3356161"><ele>803.0</ele><time>2026-04-12T09:06:28.532Z</time></trkpt><trkpt lat="38.5855246" lon="16.3356641"><ele>803.0</ele><time>2026-04-12T09:06:29.538Z</time></trkpt><trkpt lat="38.5854714" lon="16.3357421"><ele>803.0</ele><time>2026-04-12T09:06:30.528Z</time></trkpt><trkpt lat="38.5854515" lon="16.335858"><ele>803.0000000000001</ele><time>2026-04-12T09:06:31.535Z</time></trkpt><trkpt lat="38.5854438" lon="16.3359925"><ele>803.0</ele><time>2026-04-12T09:06:32.529Z</time></trkpt><trkpt lat="38.5854353" lon="16.3361348"><ele>803.0</ele><time>2026-04-12T09:06:33.518Z</time></trkpt><trkpt lat="38.5854257" lon="16.3362674"><ele>803.0</ele><time>2026-04-12T09:06:34.522Z</time></trkpt><trkpt lat="38.5854073" lon="16.3363959"><ele>803.0</ele><time>2026-04-12T09:06:35.525Z</time></trkpt><trkpt lat="38.5853488" lon="16.336529"><ele>803.0</ele><time>2026-04-12T09:06:36.522Z</time></trkpt><trkpt lat="38.5852801" lon="16.336641"><ele>803.0</ele><time>2026-04-12T09:06:37.517Z</time></trkpt><trkpt lat="38.585166" lon="16.336718"><ele>803.5</ele><time>2026-04-12T09:06:38.521Z</time></trkpt><trkpt lat="38.5850697" lon="16.3367525"><ele>804.0</ele><time>2026-04-12T09:06:39.529Z</time></trkpt><trkpt lat="38.5849669" lon="16.3367624"><ele>804.5</ele><time>2026-04-12T09:06:40.525Z</time></trkpt><trkpt lat="38.5848742" lon="16.3367186"><ele>805.0</ele><time>2026-04-12T09:06:41.523Z</time></trkpt><trkpt lat="38.5847406" lon="16.3365021"><ele>807.0</ele><time>2026-04-12T09:06:43.523Z</time></trkpt><trkpt lat="38.5846888" lon="16.336339"><ele>809.0</ele><time>2026-04-12T09:06:44.52Z</time></trkpt><trkpt lat="38.5846292" lon="16.3361467"><ele>811.0</ele><time>2026-04-12T09:06:45.528Z</time></trkpt><trkpt lat="38.5845688" lon="16.3359414"><ele>810.25</ele><time>2026-04-12T09:06:46.522Z</time></trkpt><trkpt lat="38.5845108" lon="16.3357595"><ele>809.5</ele><time>2026-04-12T09:06:47.52Z</time></trkpt><trkpt lat="38.5844445" lon="16.3356014"><ele>808.75</ele><time>2026-04-12T09:06:48.525Z</time></trkpt><trkpt lat="38.5843554" lon="16.3354615"><ele>808.0</ele><time>2026-04-12T09:06:49.534Z</time></trkpt><trkpt lat="38.5842399" lon="16.3353238"><ele>808.0</ele><time>2026-04-12T09:06:50.526Z</time></trkpt><trkpt lat="38.5841059" lon="16.3351832"><ele>808.0</ele><time>2026-04-12T09:06:51.534Z</time></trkpt><trkpt lat="38.5839574" lon="16.335037"><ele>808.0</ele><time>2026-04-12T09:06:52.528Z</time></trkpt><trkpt lat="38.5838015" lon="16.3348859"><ele>807.6666666666666</ele><time>2026-04-12T09:06:53.522Z</time></trkpt><trkpt lat="38.5836403" lon="16.3347333"><ele>807.3333333333333</ele><time>2026-04-12T09:06:54.528Z</time></trkpt><trkpt lat="38.5834826" lon="16.3345871"><ele>807.0</ele><time>2026-04-12T09:06:55.52Z</time></trkpt><trkpt lat="38.5833302" lon="16.3344478"><ele>807.0</ele><time>2026-04-12T09:06:56.522Z</time></trkpt><trkpt lat="38.5831836" lon="16.3343123"><ele>807.0</ele><time>2026-04-12T09:06:57.53Z</time></trkpt><trkpt lat="38.5830403" lon="16.3341817"><ele>807.0</ele><time>2026-04-12T09:06:58.525Z</time></trkpt><trkpt lat="38.5829015" lon="16.3340543"><ele>806.3333333333333</ele><time>2026-04-12T09:06:59.525Z</time></trkpt><trkpt lat="38.5827666" lon="16.3339328"><ele>805.6666666666666</ele><time>2026-04-12T09:07:00.526Z</time></trkpt><trkpt lat="38.5826365" lon="16.3338156"><ele>805.0</ele><time>2026-04-12T09:07:01.517Z</time></trkpt><trkpt lat="38.582512" lon="16.3337007"><ele>804.3333333333333</ele><time>2026-04-12T09:07:02.522Z</time></trkpt><trkpt lat="38.5822759" lon="16.3334835"><ele>803.6666666666667</ele><time>2026-04-12T09:07:04.519Z</time></trkpt><trkpt lat="38.5821704" lon="16.3333875"><ele>803.0</ele><time>2026-04-12T09:07:05.522Z</time></trkpt><trkpt lat="38.5820841" lon="16.3333068"><ele>801.8333333333334</ele><time>2026-04-12T09:07:06.519Z</time></trkpt><trkpt lat="38.5820089" lon="16.3332381"><ele>800.6666666666667</ele><time>2026-04-12T09:07:07.516Z</time></trkpt><trkpt lat="38.5819403" lon="16.3331737"><ele>799.5</ele><time>2026-04-12T09:07:08.522Z</time></trkpt><trkpt lat="38.5818762" lon="16.3331189"><ele>798.3333333333333</ele><time>2026-04-12T09:07:09.525Z</time></trkpt><trkpt lat="38.5818157" lon="16.3330724"><ele>797.1666666666666</ele><time>2026-04-12T09:07:10.522Z</time></trkpt><trkpt lat="38.5817595" lon="16.3330337"><ele>796.0</ele><time>2026-04-12T09:07:11.527Z</time></trkpt><trkpt lat="38.581661" lon="16.332969"><ele>796.0</ele><time>2026-04-12T09:07:13.523Z</time></trkpt><trkpt lat="38.5815755" lon="16.3329199"><ele>796.0</ele><time>2026-04-12T09:07:15.529Z</time></trkpt><trkpt lat="38.5815034" lon="16.3328797"><ele>796.0</ele><time>2026-04-12T09:07:17.528Z</time></trkpt><trkpt lat="38.5814116" lon="16.3328385"><ele>796.0</ele><time>2026-04-12T09:07:19.516Z</time></trkpt><trkpt lat="38.5813017" lon="16.3328035"><ele>796.0</ele><time>2026-04-12T09:07:21.516Z</time></trkpt><trkpt lat="38.5811861" lon="16.3327716"><ele>796.0</ele><time>2026-04-12T09:07:23.527Z</time></trkpt><trkpt lat="38.5809718" lon="16.3327117"><ele>796.0</ele><time>2026-04-12T09:07:27.529Z</time></trkpt><trkpt lat="38.5808809" lon="16.3326943"><ele>796.0</ele><time>2026-04-12T09:07:29.53Z</time></trkpt><trkpt lat="38.5808089" lon="16.3326582"><ele>796.0</ele><time>2026-04-12T09:07:31.53Z</time></trkpt><trkpt lat="38.5807773" lon="16.332582"><ele>796.0</ele><time>2026-04-12T09:07:33.525Z</time></trkpt><trkpt lat="38.5807834" lon="16.3324776"><ele>796.0</ele><time>2026-04-12T09:07:35.529Z</time></trkpt><trkpt lat="38.5807945" lon="16.3323379"><ele>796.0</ele><time>2026-04-12T09:07:37.517Z</time></trkpt><trkpt lat="38.5808022" lon="16.3321935"><ele>796.0</ele><time>2026-04-12T09:07:39.521Z</time></trkpt><trkpt lat="38.5808129" lon="16.3320782"><ele>796.0</ele><time>2026-04-12T09:07:41.518Z</time></trkpt><trkpt lat="38.5808198" lon="16.3319842"><ele>796.1999999999999</ele><time>2026-04-12T09:07:43.526Z</time></trkpt><trkpt lat="38.5808264" lon="16.3318962"><ele>796.4</ele><time>2026-04-12T09:07:45.522Z</time></trkpt><trkpt lat="38.5808476" lon="16.3316658"><ele>796.6</ele><time>2026-04-12T09:07:49.516Z</time></trkpt><trkpt lat="38.5808591" lon="16.3315544"><ele>796.8</ele><time>2026-04-12T09:07:51.525Z</time></trkpt><trkpt lat="38.5808684" lon="16.3314675"><ele>797.0</ele><time>2026-04-12T09:07:53.529Z</time></trkpt><trkpt lat="38.5808673" lon="16.331372"><ele>798.0</ele><time>2026-04-12T09:07:55.526Z</time></trkpt><trkpt lat="38.580872" lon="16.3312441"><ele>799.0</ele><time>2026-04-12T09:07:57.524Z</time></trkpt><trkpt lat="38.5808423" lon="16.3310832"><ele>800.0</ele><time>2026-04-12T09:07:59.531Z</time></trkpt><trkpt lat="38.5808264" lon="16.3309957"><ele>801.0</ele><time>2026-04-12T09:08:00.523Z</time></trkpt><trkpt lat="38.5808052" lon="16.3308969"><ele>802.0</ele><time>2026-04-12T09:08:01.523Z</time></trkpt><trkpt lat="38.5807825" lon="16.3307937"><ele>802.0</ele><time>2026-04-12T09:08:02.523Z</time></trkpt><trkpt lat="38.5807604" lon="16.3306997"><ele>802.0</ele><time>2026-04-12T09:08:03.521Z</time></trkpt><trkpt lat="38.5807455" lon="16.330615"><ele>802.0</ele><time>2026-04-12T09:08:04.525Z</time></trkpt><trkpt lat="38.5807154" lon="16.3304615"><ele>802.0</ele><time>2026-04-12T09:08:06.529Z</time></trkpt><trkpt lat="38.5806728" lon="16.3302624"><ele>802.0</ele><time>2026-04-12T09:08:08.521Z</time></trkpt><trkpt lat="38.5806423" lon="16.3301097"><ele>803.2</ele><time>2026-04-12T09:08:10.527Z</time></trkpt><trkpt lat="38.5806211" lon="16.330018"><ele>804.4000000000001</ele><time>2026-04-12T09:08:11.528Z</time></trkpt><trkpt lat="38.5805934" lon="16.3299109"><ele>805.5999999999999</ele><time>2026-04-12T09:08:12.527Z</time></trkpt><trkpt lat="38.5805633" lon="16.3297896"><ele>806.8</ele><time>2026-04-12T09:08:13.521Z</time></trkpt><trkpt lat="38.5805283" lon="16.3296677"><ele>808.0</ele><time>2026-04-12T09:08:14.525Z</time></trkpt><trkpt lat="38.5804864" lon="16.3295451"><ele>809.0</ele><time>2026-04-12T09:08:15.523Z</time></trkpt><trkpt lat="38.5804415" lon="16.3294242"><ele>810.0</ele><time>2026-04-12T09:08:16.524Z</time></trkpt><trkpt lat="38.580393" lon="16.3293179"><ele>811.0</ele><time>2026-04-12T09:08:17.527Z</time></trkpt><trkpt lat="38.58034" lon="16.3292283"><ele>812.0</ele><time>2026-04-12T09:08:18.522Z</time></trkpt><trkpt lat="38.5802796" lon="16.3291436"><ele>813.0</ele><time>2026-04-12T09:08:19.521Z</time></trkpt><trkpt lat="38.5802249" lon="16.3290563"><ele>813.0</ele><time>2026-04-12T09:08:20.519Z</time></trkpt><trkpt lat="38.5801684" lon="16.3289741"><ele>813.0</ele><time>2026-04-12T09:08:21.527Z</time></trkpt><trkpt lat="38.5801158" lon="16.3288897"><ele>813.0</ele><time>2026-04-12T09:08:22.527Z</time></trkpt><trkpt lat="38.580059" lon="16.3288088"><ele>813.0</ele><time>2026-04-12T09:08:23.527Z</time></trkpt><trkpt lat="38.5800121" lon="16.3287358"><ele>813.0</ele><time>2026-04-12T09:08:24.534Z</time></trkpt><trkpt lat="38.5799422" lon="16.328639"><ele>813.0</ele><time>2026-04-12T09:08:26.524Z</time></trkpt><trkpt lat="38.5798656" lon="16.3285488"><ele>813.8</ele><time>2026-04-12T09:08:28.534Z</time></trkpt><trkpt lat="38.5797644" lon="16.3283801"><ele>814.5999999999999</ele><time>2026-04-12T09:08:32.525Z</time></trkpt><trkpt lat="38.5797219" lon="16.3283099"><ele>815.4000000000001</ele><time>2026-04-12T09:08:34.526Z</time></trkpt><trkpt lat="38.5796718" lon="16.3282313"><ele>816.2</ele><time>2026-04-12T09:08:36.525Z</time></trkpt><trkpt lat="38.5796057" lon="16.3281495"><ele>817.0</ele><time>2026-04-12T09:08:38.521Z</time></trkpt><trkpt lat="38.5795539" lon="16.3280965"><ele>816.8333333333333</ele><time>2026-04-12T09:08:40.525Z</time></trkpt><trkpt lat="38.5794723" lon="16.3280377"><ele>816.6666666666666</ele><time>2026-04-12T09:08:42.528Z</time></trkpt><trkpt lat="38.5794029" lon="16.3280109"><ele>816.5</ele><time>2026-04-12T09:08:43.543Z</time></trkpt><trkpt lat="38.5793289" lon="16.3279874"><ele>816.3333333333333</ele><time>2026-04-12T09:08:44.526Z</time></trkpt><trkpt lat="38.5792372" lon="16.3279827"><ele>816.1666666666666</ele><time>2026-04-12T09:08:45.528Z</time></trkpt><trkpt lat="38.5791489" lon="16.3279899"><ele>816.0</ele><time>2026-04-12T09:08:46.523Z</time></trkpt><trkpt lat="38.5790681" lon="16.3280053"><ele>816.0</ele><time>2026-04-12T09:08:47.527Z</time></trkpt><trkpt lat="38.578995" lon="16.3280139"><ele>816.0</ele><time>2026-04-12T09:08:48.52Z</time></trkpt><trkpt lat="38.5789291" lon="16.3280152"><ele>816.0</ele><time>2026-04-12T09:08:49.527Z</time></trkpt><trkpt lat="38.5787149" lon="16.3280256"><ele>816.0</ele><time>2026-04-12T09:08:53.517Z</time></trkpt><trkpt lat="38.5786563" lon="16.3280596"><ele>816.0</ele><time>2026-04-12T09:08:54.52Z</time></trkpt><trkpt lat="38.578585" lon="16.3281064"><ele>814.5</ele><time>2026-04-12T09:08:55.528Z</time></trkpt><trkpt lat="38.5785089" lon="16.3281469"><ele>813.0</ele><time>2026-04-12T09:08:56.526Z</time></trkpt><trkpt lat="38.5784365" lon="16.3281794"><ele>811.5</ele><time>2026-04-12T09:08:57.522Z</time></trkpt><trkpt lat="38.578366" lon="16.3282148"><ele>810.0</ele><time>2026-04-12T09:08:58.524Z</time></trkpt><trkpt lat="38.5782924" lon="16.3282556"><ele>808.5</ele><time>2026-04-12T09:08:59.521Z</time></trkpt><trkpt lat="38.5782206" lon="16.3282936"><ele>807.0</ele><time>2026-04-12T09:09:00.531Z</time></trkpt><trkpt lat="38.5781462" lon="16.3283256"><ele>807.0</ele><time>2026-04-12T09:09:01.529Z</time></trkpt><trkpt lat="38.5780687" lon="16.3283625"><ele>807.0</ele><time>2026-04-12T09:09:02.528Z</time></trkpt><trkpt lat="38.5780099" lon="16.3284091"><ele>807.0</ele><time>2026-04-12T09:09:03.521Z</time></trkpt><trkpt lat="38.5779422" lon="16.3284563"><ele>807.0</ele><time>2026-04-12T09:09:04.528Z</time></trkpt><trkpt lat="38.5778679" lon="16.3284947"><ele>807.0</ele><time>2026-04-12T09:09:05.519Z</time></trkpt><trkpt lat="38.577795" lon="16.3285328"><ele>807.0</ele><time>2026-04-12T09:09:06.519Z</time></trkpt><trkpt lat="38.5777295" lon="16.3285643"><ele>805.75</ele><time>2026-04-12T09:09:07.528Z</time></trkpt><trkpt lat="38.5776316" lon="16.3286142"><ele>804.5</ele><time>2026-04-12T09:09:09.523Z</time></trkpt><trkpt lat="38.57754" lon="16.328659"><ele>803.25</ele><time>2026-04-12T09:09:11.53Z</time></trkpt><trkpt lat="38.5773585" lon="16.3287456"><ele>802.0</ele><time>2026-04-12T09:09:15.521Z</time></trkpt><trkpt lat="38.5772796" lon="16.3287825"><ele>802.0</ele><time>2026-04-12T09:09:17.528Z</time></trkpt><trkpt lat="38.5772068" lon="16.3288065"><ele>802.0</ele><time>2026-04-12T09:09:20.528Z</time></trkpt><trkpt lat="38.5771327" lon="16.3288326"><ele>802.0</ele><time>2026-04-12T09:09:27.531Z</time></trkpt><trkpt lat="38.5770629" lon="16.3288942"><ele>802.0</ele><time>2026-04-12T09:09:37.533Z</time></trkpt><trkpt lat="38.5770529" lon="16.3291612"><ele>802.0</ele><time>2026-04-12T09:09:41.531Z</time></trkpt><trkpt lat="38.5770554" lon="16.3292436"><ele>801.9999999999999</ele><time>2026-04-12T09:09:42.525Z</time></trkpt><trkpt lat="38.5770559" lon="16.3293268"><ele>802.0</ele><time>2026-04-12T09:09:43.526Z</time></trkpt><trkpt lat="38.5770565" lon="16.3294219"><ele>802.0</ele><time>2026-04-12T09:09:44.522Z</time></trkpt><trkpt lat="38.5770551" lon="16.3295205"><ele>802.0</ele><time>2026-04-12T09:09:45.526Z</time></trkpt><trkpt lat="38.5770581" lon="16.3296087"><ele>801.9999999999999</ele><time>2026-04-12T09:09:46.525Z</time></trkpt><trkpt lat="38.5770647" lon="16.3297647"><ele>802.0</ele><time>2026-04-12T09:09:48.53Z</time></trkpt><trkpt lat="38.5770668" lon="16.3299031"><ele>801.8</ele><time>2026-04-12T09:09:50.523Z</time></trkpt><trkpt lat="38.5770743" lon="16.3300107"><ele>801.6</ele><time>2026-04-12T09:09:52.522Z</time></trkpt><trkpt lat="38.5770723" lon="16.330126"><ele>801.4</ele><time>2026-04-12T09:09:55.523Z</time></trkpt><trkpt lat="38.5770477" lon="16.3302015"><ele>801.1999999999999</ele><time>2026-04-12T09:09:57.524Z</time></trkpt><trkpt lat="38.576999" lon="16.3302542"><ele>801.0</ele><time>2026-04-12T09:09:59.534Z</time></trkpt><trkpt lat="38.5768521" lon="16.3303537"><ele>800.8</ele><time>2026-04-12T09:10:04.523Z</time></trkpt><trkpt lat="38.5768366" lon="16.3304765"><ele>800.5999999999999</ele><time>2026-04-12T09:10:06.526Z</time></trkpt><trkpt lat="38.576808" lon="16.3306302"><ele>800.4</ele><time>2026-04-12T09:10:08.524Z</time></trkpt><trkpt lat="38.5767778" lon="16.3307199"><ele>800.2</ele><time>2026-04-12T09:10:09.523Z</time></trkpt><trkpt lat="38.5767352" lon="16.3308197"><ele>800.0</ele><time>2026-04-12T09:10:10.523Z</time></trkpt><trkpt lat="38.576692" lon="16.3309186"><ele>800.0000000000001</ele><time>2026-04-12T09:10:11.53Z</time></trkpt><trkpt lat="38.5766369" lon="16.3310113"><ele>800.0</ele><time>2026-04-12T09:10:12.531Z</time></trkpt><trkpt lat="38.576583" lon="16.3311026"><ele>800.0</ele><time>2026-04-12T09:10:13.548Z</time></trkpt><trkpt lat="38.5765384" lon="16.3311923"><ele>800.0</ele><time>2026-04-12T09:10:14.538Z</time></trkpt><trkpt lat="38.5764919" lon="16.3312905"><ele>800.0000000000001</ele><time>2026-04-12T09:10:15.532Z</time></trkpt><trkpt lat="38.5764496" lon="16.3313718"><ele>800.0</ele><time>2026-04-12T09:10:16.523Z</time></trkpt><trkpt lat="38.5763667" lon="16.3314748"><ele>800.0</ele><time>2026-04-12T09:10:18.528Z</time></trkpt><trkpt lat="38.5762759" lon="16.3314687"><ele>800.0</ele><time>2026-04-12T09:10:20.527Z</time></trkpt><trkpt lat="38.5761409" lon="16.3313955"><ele>800.0</ele><time>2026-04-12T09:10:24.522Z</time></trkpt><trkpt lat="38.5761075" lon="16.331308"><ele>800.0</ele><time>2026-04-12T09:10:27.524Z</time></trkpt><trkpt lat="38.5760491" lon="16.3312427"><ele>800.0</ele><time>2026-04-12T09:10:33.536Z</time></trkpt><trkpt lat="38.5759802" lon="16.3312437"><ele>800.0000000000001</ele><time>2026-04-12T09:13:01.536Z</time></trkpt><trkpt lat="38.5760474" lon="16.3314041"><ele>800.0</ele><time>2026-04-12T09:15:27.572Z</time></trkpt><trkpt lat="38.576111" lon="16.3314298"><ele>800.0</ele><time>2026-04-12T09:15:28.534Z</time></trkpt><trkpt lat="38.5761749" lon="16.3314621"><ele>800.0</ele><time>2026-04-12T09:15:29.54Z</time></trkpt><trkpt lat="38.5762396" lon="16.3314882"><ele>800.0000000000001</ele><time>2026-04-12T09:15:30.53Z</time></trkpt><trkpt lat="38.576304" lon="16.3314991"><ele>800.0</ele><time>2026-04-12T09:15:31.522Z</time></trkpt><trkpt lat="38.576411" lon="16.3314555"><ele>800.0000000000001</ele><time>2026-04-12T09:15:33.536Z</time></trkpt><trkpt lat="38.576498" lon="16.3313529"><ele>800.0</ele><time>2026-04-12T09:15:35.523Z</time></trkpt><trkpt lat="38.5765345" lon="16.3312816"><ele>800.0</ele><time>2026-04-12T09:15:36.527Z</time></trkpt><trkpt lat="38.5765721" lon="16.3312102"><ele>800.0</ele><time>2026-04-12T09:15:37.538Z</time></trkpt><trkpt lat="38.5766098" lon="16.3311348"><ele>800.0000000000001</ele><time>2026-04-12T09:15:38.53Z</time></trkpt><trkpt lat="38.5766492" lon="16.3310556"><ele>800.0</ele><time>2026-04-12T09:15:39.525Z</time></trkpt><trkpt lat="38.5766889" lon="16.3309754"><ele>800.0</ele><time>2026-04-12T09:15:40.526Z</time></trkpt><trkpt lat="38.576731" lon="16.3308873"><ele>800.0</ele><time>2026-04-12T09:15:41.526Z</time></trkpt><trkpt lat="38.576772" lon="16.3307962"><ele>800.0</ele><time>2026-04-12T09:15:42.524Z</time></trkpt><trkpt lat="38.5768025" lon="16.3307146"><ele>800.0</ele><time>2026-04-12T09:15:43.531Z</time></trkpt><trkpt lat="38.5768459" lon="16.3305176"><ele>800.0</ele><time>2026-04-12T09:15:48.534Z</time></trkpt><trkpt lat="38.5768549" lon="16.3304065"><ele>799.8333333333334</ele><time>2026-04-12T09:15:51.528Z</time></trkpt><trkpt lat="38.5768771" lon="16.3303166"><ele>799.6666666666667</ele><time>2026-04-12T09:15:54.523Z</time></trkpt><trkpt lat="38.5769533" lon="16.3303077"><ele>799.5</ele><time>2026-04-12T09:15:57.525Z</time></trkpt><trkpt lat="38.5770146" lon="16.3303347"><ele>799.3333333333333</ele><time>2026-04-12T09:15:59.53Z</time></trkpt><trkpt lat="38.5770918" lon="16.3303487"><ele>799.1666666666666</ele><time>2026-04-12T09:16:01.521Z</time></trkpt><trkpt lat="38.5771486" lon="16.3302854"><ele>799.0</ele><time>2026-04-12T09:16:04.522Z</time></trkpt><trkpt lat="38.5769932" lon="16.330256"><ele>798.9999999999999</ele><time>2026-04-12T09:16:10.52Z</time></trkpt><trkpt lat="38.5769271" lon="16.3302463"><ele>799.0</ele><time>2026-04-12T09:16:12.527Z</time></trkpt><trkpt lat="38.5768724" lon="16.3302048"><ele>799.0</ele><time>2026-04-12T09:16:14.526Z</time></trkpt><trkpt lat="38.5768046" lon="16.3301546"><ele>799.0</ele><time>2026-04-12T09:16:17.53Z</time></trkpt><trkpt lat="38.5767482" lon="16.3300759"><ele>798.9999999999999</ele><time>2026-04-12T09:16:23.539Z</time></trkpt><trkpt lat="38.5766749" lon="16.3299748"><ele>799.0</ele><time>2026-04-12T09:44:17.504Z</time></trkpt><trkpt lat="38.5764002" lon="16.3298195"><ele>799.0</ele><time>2026-04-12T09:45:25.527Z</time></trkpt><trkpt lat="38.5763244" lon="16.3297632"><ele>799.0</ele><time>2026-04-12T09:45:27.53Z</time></trkpt><trkpt lat="38.5762466" lon="16.3297036"><ele>799.0</ele><time>2026-04-12T09:45:29.523Z</time></trkpt><trkpt lat="38.5761692" lon="16.3296365"><ele>799.0</ele><time>2026-04-12T09:45:31.536Z</time></trkpt><trkpt lat="38.5760948" lon="16.3295601"><ele>799.0</ele><time>2026-04-12T09:45:33.536Z</time></trkpt><trkpt lat="38.5760223" lon="16.329479"><ele>799.8000000000001</ele><time>2026-04-12T09:45:35.533Z</time></trkpt><trkpt lat="38.5759447" lon="16.3293889"><ele>800.6</ele><time>2026-04-12T09:45:37.54Z</time></trkpt><trkpt lat="38.5758559" lon="16.329301"><ele>801.4</ele><time>2026-04-12T09:45:39.531Z</time></trkpt><trkpt lat="38.5757696" lon="16.3292232"><ele>802.2</ele><time>2026-04-12T09:45:41.523Z</time></trkpt><trkpt lat="38.5756795" lon="16.3291504"><ele>803.0</ele><time>2026-04-12T09:45:43.53Z</time></trkpt><trkpt lat="38.5755232" lon="16.3290183"><ele>803.0000000000001</ele><time>2026-04-12T09:45:46.527Z</time></trkpt><trkpt lat="38.5754667" lon="16.3289724"><ele>803.0</ele><time>2026-04-12T09:45:47.529Z</time></trkpt><trkpt lat="38.5754106" lon="16.3289261"><ele>803.0</ele><time>2026-04-12T09:45:48.524Z</time></trkpt><trkpt lat="38.5753561" lon="16.328879"><ele>803.0</ele><time>2026-04-12T09:45:49.528Z</time></trkpt><trkpt lat="38.5753038" lon="16.328833"><ele>803.0000000000001</ele><time>2026-04-12T09:45:50.528Z</time></trkpt><trkpt lat="38.5751973" lon="16.3287446"><ele>803.0</ele><time>2026-04-12T09:45:52.523Z</time></trkpt><trkpt lat="38.5751408" lon="16.3286983"><ele>803.4285714285713</ele><time>2026-04-12T09:45:53.536Z</time></trkpt><trkpt lat="38.5750856" lon="16.3286498"><ele>803.8571428571429</ele><time>2026-04-12T09:45:54.523Z</time></trkpt><trkpt lat="38.5750288" lon="16.3285999"><ele>804.2857142857142</ele><time>2026-04-12T09:45:55.526Z</time></trkpt><trkpt lat="38.5749725" lon="16.3285503"><ele>804.7142857142857</ele><time>2026-04-12T09:45:56.534Z</time></trkpt><trkpt lat="38.5749181" lon="16.3285012"><ele>805.1428571428571</ele><time>2026-04-12T09:45:57.525Z</time></trkpt><trkpt lat="38.5748627" lon="16.3284529"><ele>805.5714285714286</ele><time>2026-04-12T09:45:58.533Z</time></trkpt><trkpt lat="38.5748087" lon="16.3284044"><ele>806.0</ele><time>2026-04-12T09:45:59.534Z</time></trkpt><trkpt lat="38.5747545" lon="16.3283551"><ele>806.0000000000001</ele><time>2026-04-12T09:46:00.529Z</time></trkpt><trkpt lat="38.5747" lon="16.3283035"><ele>806.0</ele><time>2026-04-12T09:46:01.527Z</time></trkpt><trkpt lat="38.5746457" lon="16.3282509"><ele>806.0</ele><time>2026-04-12T09:46:02.521Z</time></trkpt><trkpt lat="38.5745919" lon="16.3281991"><ele>806.0</ele><time>2026-04-12T09:46:03.521Z</time></trkpt><trkpt lat="38.5745394" lon="16.3281465"><ele>806.0000000000001</ele><time>2026-04-12T09:46:04.521Z</time></trkpt><trkpt lat="38.5744359" lon="16.3280468"><ele>806.0</ele><time>2026-04-12T09:46:06.537Z</time></trkpt><trkpt lat="38.5743838" lon="16.3279943"><ele>806.1428571428572</ele><time>2026-04-12T09:46:07.522Z</time></trkpt><trkpt lat="38.5743324" lon="16.3279441"><ele>806.2857142857142</ele><time>2026-04-12T09:46:08.526Z</time></trkpt><trkpt lat="38.5742787" lon="16.3278918"><ele>806.4285714285714</ele><time>2026-04-12T09:46:09.533Z</time></trkpt><trkpt lat="38.5742251" lon="16.3278406"><ele>806.5714285714287</ele><time>2026-04-12T09:46:10.525Z</time></trkpt><trkpt lat="38.5741722" lon="16.327786"><ele>806.7142857142858</ele><time>2026-04-12T09:46:11.533Z</time></trkpt><trkpt lat="38.5741178" lon="16.3277313"><ele>806.8571428571429</ele><time>2026-04-12T09:46:12.528Z</time></trkpt><trkpt lat="38.5740576" lon="16.3276753"><ele>807.0</ele><time>2026-04-12T09:46:13.527Z</time></trkpt><trkpt lat="38.5740001" lon="16.3276212"><ele>807.0</ele><time>2026-04-12T09:46:14.525Z</time></trkpt><trkpt lat="38.5739412" lon="16.3275645"><ele>807.0</ele><time>2026-04-12T09:46:15.53Z</time></trkpt><trkpt lat="38.5738804" lon="16.3275023"><ele>807.0</ele><time>2026-04-12T09:46:16.534Z</time></trkpt><trkpt lat="38.5738174" lon="16.327438"><ele>807.0</ele><time>2026-04-12T09:46:17.528Z</time></trkpt><trkpt lat="38.5737525" lon="16.3273728"><ele>807.0</ele><time>2026-04-12T09:46:18.533Z</time></trkpt><trkpt lat="38.5736846" lon="16.3273075"><ele>807.0</ele><time>2026-04-12T09:46:19.544Z</time></trkpt><trkpt lat="38.5736172" lon="16.327241"><ele>807.1666666666666</ele><time>2026-04-12T09:46:20.536Z</time></trkpt><trkpt lat="38.5735501" lon="16.3271724"><ele>807.3333333333333</ele><time>2026-04-12T09:46:21.525Z</time></trkpt><trkpt lat="38.5734827" lon="16.3271055"><ele>807.5</ele><time>2026-04-12T09:46:22.528Z</time></trkpt><trkpt lat="38.573413" lon="16.3270386"><ele>807.6666666666666</ele><time>2026-04-12T09:46:23.53Z</time></trkpt><trkpt lat="38.5733449" lon="16.3269719"><ele>807.8333333333333</ele><time>2026-04-12T09:46:24.526Z</time></trkpt><trkpt lat="38.5732795" lon="16.3269062"><ele>808.0</ele><time>2026-04-12T09:46:25.536Z</time></trkpt><trkpt lat="38.5731459" lon="16.3267785"><ele>807.9999999999999</ele><time>2026-04-12T09:46:27.523Z</time></trkpt><trkpt lat="38.5730816" lon="16.3267127"><ele>808.0</ele><time>2026-04-12T09:46:28.529Z</time></trkpt><trkpt lat="38.5730172" lon="16.3266468"><ele>808.0</ele><time>2026-04-12T09:46:29.537Z</time></trkpt><trkpt lat="38.5729548" lon="16.3265828"><ele>808.0</ele><time>2026-04-12T09:46:30.534Z</time></trkpt><trkpt lat="38.5728927" lon="16.3265219"><ele>807.9999999999999</ele><time>2026-04-12T09:46:31.539Z</time></trkpt><trkpt lat="38.572832" lon="16.3264657"><ele>808.0</ele><time>2026-04-12T09:46:32.531Z</time></trkpt><trkpt lat="38.572775" lon="16.3264118"><ele>808.2857142857142</ele><time>2026-04-12T09:46:33.536Z</time></trkpt><trkpt lat="38.5727198" lon="16.3263587"><ele>808.5714285714286</ele><time>2026-04-12T09:46:34.543Z</time></trkpt><trkpt lat="38.5726677" lon="16.3263058"><ele>808.8571428571429</ele><time>2026-04-12T09:46:35.528Z</time></trkpt><trkpt lat="38.572617" lon="16.3262548"><ele>809.1428571428571</ele><time>2026-04-12T09:46:36.542Z</time></trkpt><trkpt lat="38.5725642" lon="16.326204"><ele>809.4285714285714</ele><time>2026-04-12T09:46:37.546Z</time></trkpt><trkpt lat="38.5725104" lon="16.3261538"><ele>809.7142857142857</ele><time>2026-04-12T09:46:38.529Z</time></trkpt><trkpt lat="38.5724578" lon="16.3261006"><ele>810.0</ele><time>2026-04-12T09:46:39.549Z</time></trkpt><trkpt lat="38.5724066" lon="16.3260473"><ele>810.0</ele><time>2026-04-12T09:46:40.533Z</time></trkpt><trkpt lat="38.5723566" lon="16.3259949"><ele>810.0</ele><time>2026-04-12T09:46:41.525Z</time></trkpt><trkpt lat="38.5723051" lon="16.3259446"><ele>810.0</ele><time>2026-04-12T09:46:42.538Z</time></trkpt><trkpt lat="38.5722538" lon="16.3258943"><ele>810.0</ele><time>2026-04-12T09:46:43.533Z</time></trkpt><trkpt lat="38.572203" lon="16.3258434"><ele>810.0</ele><time>2026-04-12T09:46:44.526Z</time></trkpt><trkpt lat="38.5721075" lon="16.3257472"><ele>810.0</ele><time>2026-04-12T09:46:46.532Z</time></trkpt><trkpt lat="38.571913" lon="16.3255574"><ele>810.0</ele><time>2026-04-12T09:46:50.528Z</time></trkpt><trkpt lat="38.5718212" lon="16.3254658"><ele>810.0</ele><time>2026-04-12T09:46:52.535Z</time></trkpt><trkpt lat="38.5717218" lon="16.325378"><ele>810.0</ele><time>2026-04-12T09:46:54.541Z</time></trkpt><trkpt lat="38.5716237" lon="16.3252875"><ele>810.0</ele><time>2026-04-12T09:46:56.525Z</time></trkpt><trkpt lat="38.571541" lon="16.3252147"><ele>810.0</ele><time>2026-04-12T09:46:58.526Z</time></trkpt><trkpt lat="38.5714501" lon="16.3251833"><ele>810.0</ele><time>2026-04-12T09:47:00.53Z</time></trkpt><trkpt lat="38.5713552" lon="16.3252095"><ele>810.0</ele><time>2026-04-12T09:47:02.539Z</time></trkpt><trkpt lat="38.5712657" lon="16.3252801"><ele>810.0</ele><time>2026-04-12T09:47:04.538Z</time></trkpt><trkpt lat="38.571142" lon="16.3253134"><ele>810.0</ele><time>2026-04-12T09:47:06.528Z</time></trkpt><trkpt lat="38.5710647" lon="16.3253227"><ele>811.0</ele><time>2026-04-12T09:47:07.53Z</time></trkpt><trkpt lat="38.5708808" lon="16.3253362"><ele>812.0</ele><time>2026-04-12T09:47:09.529Z</time></trkpt><trkpt lat="38.5707748" lon="16.3253424"><ele>813.0</ele><time>2026-04-12T09:47:10.536Z</time></trkpt><trkpt lat="38.570655" lon="16.3253541"><ele>814.0</ele><time>2026-04-12T09:47:11.533Z</time></trkpt><trkpt lat="38.5705371" lon="16.3253656"><ele>814.0</ele><time>2026-04-12T09:47:12.528Z</time></trkpt><trkpt lat="38.5704192" lon="16.3253777"><ele>814.0</ele><time>2026-04-12T09:47:13.533Z</time></trkpt><trkpt lat="38.5703054" lon="16.3253871"><ele>814.0</ele><time>2026-04-12T09:47:14.534Z</time></trkpt><trkpt lat="38.5701898" lon="16.3253964"><ele>814.0</ele><time>2026-04-12T09:47:15.527Z</time></trkpt><trkpt lat="38.570071" lon="16.3254075"><ele>813.0</ele><time>2026-04-12T09:47:16.534Z</time></trkpt><trkpt lat="38.5699435" lon="16.3254186"><ele>812.0</ele><time>2026-04-12T09:47:17.528Z</time></trkpt><trkpt lat="38.56982" lon="16.3254286"><ele>811.0</ele><time>2026-04-12T09:47:18.534Z</time></trkpt><trkpt lat="38.5696993" lon="16.3254396"><ele>810.0</ele><time>2026-04-12T09:47:19.522Z</time></trkpt><trkpt lat="38.569578" lon="16.3254498"><ele>809.75</ele><time>2026-04-12T09:47:20.535Z</time></trkpt><trkpt lat="38.5694545" lon="16.3254605"><ele>809.5</ele><time>2026-04-12T09:47:21.527Z</time></trkpt><trkpt lat="38.5693401" lon="16.3254704"><ele>809.25</ele><time>2026-04-12T09:47:22.529Z</time></trkpt><trkpt lat="38.5692169" lon="16.3254805"><ele>809.0</ele><time>2026-04-12T09:47:23.536Z</time></trkpt><trkpt lat="38.5690944" lon="16.325488"><ele>809.0</ele><time>2026-04-12T09:47:24.538Z</time></trkpt><trkpt lat="38.5689734" lon="16.3254986"><ele>809.0</ele><time>2026-04-12T09:47:25.52Z</time></trkpt><trkpt lat="38.5688564" lon="16.3255094"><ele>809.0</ele><time>2026-04-12T09:47:26.542Z</time></trkpt><trkpt lat="38.5687383" lon="16.3255184"><ele>809.0</ele><time>2026-04-12T09:47:27.528Z</time></trkpt><trkpt lat="38.5686192" lon="16.3255259"><ele>810.0</ele><time>2026-04-12T09:47:28.525Z</time></trkpt><trkpt lat="38.5683773" lon="16.3255429"><ele>811.0</ele><time>2026-04-12T09:47:30.536Z</time></trkpt><trkpt lat="38.5682551" lon="16.325551"><ele>812.0</ele><time>2026-04-12T09:47:31.518Z</time></trkpt><trkpt lat="38.5681305" lon="16.325561"><ele>813.0</ele><time>2026-04-12T09:47:32.543Z</time></trkpt><trkpt lat="38.5680074" lon="16.3255725"><ele>814.0</ele><time>2026-04-12T09:47:33.54Z</time></trkpt><trkpt lat="38.5678836" lon="16.3255818"><ele>815.0</ele><time>2026-04-12T09:47:34.527Z</time></trkpt><trkpt lat="38.5677594" lon="16.3255927"><ele>816.0</ele><time>2026-04-12T09:47:35.529Z</time></trkpt><trkpt lat="38.5676344" lon="16.325606"><ele>816.75</ele><time>2026-04-12T09:47:36.531Z</time></trkpt><trkpt lat="38.5675096" lon="16.3256197"><ele>817.5</ele><time>2026-04-12T09:47:37.529Z</time></trkpt><trkpt lat="38.5673854" lon="16.3256322"><ele>818.25</ele><time>2026-04-12T09:47:38.537Z</time></trkpt><trkpt lat="38.5672601" lon="16.3256449"><ele>819.0</ele><time>2026-04-12T09:47:39.531Z</time></trkpt><trkpt lat="38.5671332" lon="16.3256563"><ele>819.75</ele><time>2026-04-12T09:47:40.521Z</time></trkpt><trkpt lat="38.5670025" lon="16.3256655"><ele>820.5</ele><time>2026-04-12T09:47:41.534Z</time></trkpt><trkpt lat="38.5668678" lon="16.3256736"><ele>821.25</ele><time>2026-04-12T09:47:42.534Z</time></trkpt><trkpt lat="38.5667321" lon="16.325684"><ele>822.0</ele><time>2026-04-12T09:47:43.529Z</time></trkpt><trkpt lat="38.5665945" lon="16.3256965"><ele>822.0</ele><time>2026-04-12T09:47:44.536Z</time></trkpt><trkpt lat="38.5664545" lon="16.3257084"><ele>822.0</ele><time>2026-04-12T09:47:45.536Z</time></trkpt><trkpt lat="38.5663126" lon="16.3257199"><ele>822.0</ele><time>2026-04-12T09:47:46.525Z</time></trkpt><trkpt lat="38.5661716" lon="16.3257303"><ele>822.0</ele><time>2026-04-12T09:47:47.529Z</time></trkpt><trkpt lat="38.5660329" lon="16.3257415"><ele>822.6666666666667</ele><time>2026-04-12T09:47:48.532Z</time></trkpt><trkpt lat="38.5658992" lon="16.3257528"><ele>823.3333333333334</ele><time>2026-04-12T09:47:49.526Z</time></trkpt><trkpt lat="38.5656403" lon="16.3257714"><ele>824.0</ele><time>2026-04-12T09:47:51.543Z</time></trkpt><trkpt lat="38.5655175" lon="16.3257815"><ele>824.0</ele><time>2026-04-12T09:47:52.526Z</time></trkpt><trkpt lat="38.5654066" lon="16.3257904"><ele>824.0</ele><time>2026-04-12T09:47:53.543Z</time></trkpt><trkpt lat="38.5653059" lon="16.3257984"><ele>824.0</ele><time>2026-04-12T09:47:54.536Z</time></trkpt><trkpt lat="38.5652097" lon="16.3258055"><ele>824.0</ele><time>2026-04-12T09:47:55.53Z</time></trkpt><trkpt lat="38.5651235" lon="16.3258105"><ele>824.0</ele><time>2026-04-12T09:47:56.54Z</time></trkpt><trkpt lat="38.5650344" lon="16.3258175"><ele>824.0</ele><time>2026-04-12T09:47:57.534Z</time></trkpt><trkpt lat="38.5649385" lon="16.3258253"><ele>824.0</ele><time>2026-04-12T09:47:58.526Z</time></trkpt><trkpt lat="38.5648343" lon="16.3258318"><ele>824.0</ele><time>2026-04-12T09:47:59.542Z</time></trkpt><trkpt lat="38.56473" lon="16.325838"><ele>824.0</ele><time>2026-04-12T09:48:00.533Z</time></trkpt><trkpt lat="38.5646189" lon="16.3258465"><ele>824.0</ele><time>2026-04-12T09:48:01.525Z</time></trkpt><trkpt lat="38.564508" lon="16.3258556"><ele>824.6</ele><time>2026-04-12T09:48:02.532Z</time></trkpt><trkpt lat="38.5644022" lon="16.3258643"><ele>825.2</ele><time>2026-04-12T09:48:03.531Z</time></trkpt><trkpt lat="38.5643012" lon="16.3258729"><ele>825.8000000000001</ele><time>2026-04-12T09:48:04.543Z</time></trkpt><trkpt lat="38.5642021" lon="16.3258821"><ele>826.4000000000001</ele><time>2026-04-12T09:48:05.544Z</time></trkpt><trkpt lat="38.5640986" lon="16.32589"><ele>827.0</ele><time>2026-04-12T09:48:06.544Z</time></trkpt><trkpt lat="38.5639873" lon="16.3258984"><ele>827.0</ele><time>2026-04-12T09:48:07.539Z</time></trkpt><trkpt lat="38.5638675" lon="16.325907"><ele>827.0</ele><time>2026-04-12T09:48:08.546Z</time></trkpt><trkpt lat="38.5637413" lon="16.325916"><ele>827.0</ele><time>2026-04-12T09:48:09.544Z</time></trkpt><trkpt lat="38.563609" lon="16.3259276"><ele>827.0</ele><time>2026-04-12T09:48:10.549Z</time></trkpt><trkpt lat="38.5633258" lon="16.3259554"><ele>827.6666666666667</ele><time>2026-04-12T09:48:12.545Z</time></trkpt><trkpt lat="38.563173" lon="16.3259704"><ele>828.3333333333333</ele><time>2026-04-12T09:48:13.539Z</time></trkpt><trkpt lat="38.5630066" lon="16.3259836"><ele>829.0</ele><time>2026-04-12T09:48:14.53Z</time></trkpt><trkpt lat="38.5628391" lon="16.3259938"><ele>830.0</ele><time>2026-04-12T09:48:15.537Z</time></trkpt><trkpt lat="38.5626714" lon="16.3260025"><ele>831.0</ele><time>2026-04-12T09:48:16.54Z</time></trkpt><trkpt lat="38.5625049" lon="16.3260138"><ele>832.0</ele><time>2026-04-12T09:48:17.534Z</time></trkpt><trkpt lat="38.5623406" lon="16.3260293"><ele>832.0</ele><time>2026-04-12T09:48:18.531Z</time></trkpt><trkpt lat="38.5621776" lon="16.3260476"><ele>832.0</ele><time>2026-04-12T09:48:19.535Z</time></trkpt><trkpt lat="38.5620136" lon="16.3260639"><ele>832.0</ele><time>2026-04-12T09:48:20.559Z</time></trkpt><trkpt lat="38.5618478" lon="16.3260769"><ele>834.0</ele><time>2026-04-12T09:48:21.537Z</time></trkpt><trkpt lat="38.5616792" lon="16.32609"><ele>836.0</ele><time>2026-04-12T09:48:22.523Z</time></trkpt><trkpt lat="38.5615044" lon="16.3261015"><ele>838.0</ele><time>2026-04-12T09:48:23.536Z</time></trkpt><trkpt lat="38.5613262" lon="16.326114"><ele>839.6666666666666</ele><time>2026-04-12T09:48:24.523Z</time></trkpt><trkpt lat="38.5611378" lon="16.3261285"><ele>841.3333333333333</ele><time>2026-04-12T09:48:25.528Z</time></trkpt><trkpt lat="38.5609378" lon="16.326145"><ele>843.0</ele><time>2026-04-12T09:48:26.53Z</time></trkpt><trkpt lat="38.560734" lon="16.3261686"><ele>843.0</ele><time>2026-04-12T09:48:27.532Z</time></trkpt><trkpt lat="38.5605221" lon="16.3261848"><ele>843.0</ele><time>2026-04-12T09:48:28.523Z</time></trkpt><trkpt lat="38.5603142" lon="16.3262012"><ele>843.0</ele><time>2026-04-12T09:48:29.539Z</time></trkpt><trkpt lat="38.5601116" lon="16.3262143"><ele>844.0</ele><time>2026-04-12T09:48:30.53Z</time></trkpt><trkpt lat="38.5599158" lon="16.3262295"><ele>845.0</ele><time>2026-04-12T09:48:31.535Z</time></trkpt><trkpt lat="38.5595408" lon="16.3262604"><ele>846.6666666666667</ele><time>2026-04-12T09:48:33.534Z</time></trkpt><trkpt lat="38.5593556" lon="16.3262737"><ele>848.3333333333333</ele><time>2026-04-12T09:48:34.521Z</time></trkpt><trkpt lat="38.5591734" lon="16.3262886"><ele>850.0</ele><time>2026-04-12T09:48:35.53Z</time></trkpt><trkpt lat="38.5589897" lon="16.3263009"><ele>850.0</ele><time>2026-04-12T09:48:36.525Z</time></trkpt><trkpt lat="38.5588047" lon="16.3263212"><ele>850.0</ele><time>2026-04-12T09:48:37.527Z</time></trkpt><trkpt lat="38.5586202" lon="16.3263391"><ele>850.0</ele><time>2026-04-12T09:48:38.525Z</time></trkpt><trkpt lat="38.558436" lon="16.3263531"><ele>851.6666666666666</ele><time>2026-04-12T09:48:39.532Z</time></trkpt><trkpt lat="38.5582529" lon="16.3263653"><ele>853.3333333333333</ele><time>2026-04-12T09:48:40.524Z</time></trkpt><trkpt lat="38.5580704" lon="16.32638"><ele>855.0</ele><time>2026-04-12T09:48:41.531Z</time></trkpt><trkpt lat="38.5578852" lon="16.3263863"><ele>855.0</ele><time>2026-04-12T09:48:42.522Z</time></trkpt><trkpt lat="38.5576985" lon="16.3264042"><ele>855.0</ele><time>2026-04-12T09:48:43.531Z</time></trkpt><trkpt lat="38.5575128" lon="16.3264233"><ele>855.0</ele><time>2026-04-12T09:48:44.531Z</time></trkpt><trkpt lat="38.5573316" lon="16.3264407"><ele>855.0</ele><time>2026-04-12T09:48:45.539Z</time></trkpt><trkpt lat="38.5571568" lon="16.326458"><ele>855.0</ele><time>2026-04-12T09:48:46.525Z</time></trkpt><trkpt lat="38.5569927" lon="16.3264723"><ele>855.0</ele><time>2026-04-12T09:48:47.53Z</time></trkpt><trkpt lat="38.5568353" lon="16.3264862"><ele>856.0</ele><time>2026-04-12T09:48:48.524Z</time></trkpt><trkpt lat="38.5566809" lon="16.3264936"><ele>857.0</ele><time>2026-04-12T09:48:49.539Z</time></trkpt><trkpt lat="38.5565261" lon="16.3265034"><ele>858.0</ele><time>2026-04-12T09:48:50.521Z</time></trkpt><trkpt lat="38.5563689" lon="16.3265128"><ele>858.0</ele><time>2026-04-12T09:48:51.53Z</time></trkpt><trkpt lat="38.5562083" lon="16.3265248"><ele>858.0</ele><time>2026-04-12T09:48:52.523Z</time></trkpt><trkpt lat="38.5558933" lon="16.3265516"><ele>859.5</ele><time>2026-04-12T09:48:54.52Z</time></trkpt><trkpt lat="38.5557388" lon="16.3265654"><ele>861.0</ele><time>2026-04-12T09:48:55.532Z</time></trkpt><trkpt lat="38.5555873" lon="16.3265693"><ele>862.5</ele><time>2026-04-12T09:48:56.529Z</time></trkpt><trkpt lat="38.5554464" lon="16.3265423"><ele>864.0</ele><time>2026-04-12T09:48:57.535Z</time></trkpt><trkpt lat="38.5553287" lon="16.3264743"><ele>865.75</ele><time>2026-04-12T09:48:58.523Z</time></trkpt><trkpt lat="38.5552347" lon="16.326363"><ele>867.5</ele><time>2026-04-12T09:48:59.529Z</time></trkpt><trkpt lat="38.5551545" lon="16.3262078"><ele>869.25</ele><time>2026-04-12T09:49:00.534Z</time></trkpt><trkpt lat="38.5550689" lon="16.3260191"><ele>871.0</ele><time>2026-04-12T09:49:01.531Z</time></trkpt><trkpt lat="38.5549807" lon="16.3258153"><ele>871.0</ele><time>2026-04-12T09:49:02.531Z</time></trkpt><trkpt lat="38.5548691" lon="16.3255942"><ele>871.0</ele><time>2026-04-12T09:49:03.549Z</time></trkpt><trkpt lat="38.5547556" lon="16.3253438"><ele>871.0</ele><time>2026-04-12T09:49:04.525Z</time></trkpt><trkpt lat="38.5546368" lon="16.3250853"><ele>873.0</ele><time>2026-04-12T09:49:05.53Z</time></trkpt><trkpt lat="38.5545165" lon="16.3248209"><ele>875.0</ele><time>2026-04-12T09:49:06.535Z</time></trkpt><trkpt lat="38.5544006" lon="16.3245595"><ele>876.3333333333334</ele><time>2026-04-12T09:49:07.54Z</time></trkpt><trkpt lat="38.554291" lon="16.3243163"><ele>877.6666666666667</ele><time>2026-04-12T09:49:08.522Z</time></trkpt><trkpt lat="38.554189" lon="16.3240894"><ele>879.0</ele><time>2026-04-12T09:49:09.547Z</time></trkpt><trkpt lat="38.5540924" lon="16.3238793"><ele>881.3333333333333</ele><time>2026-04-12T09:49:10.529Z</time></trkpt><trkpt lat="38.5540025" lon="16.323683"><ele>883.6666666666666</ele><time>2026-04-12T09:49:11.527Z</time></trkpt><trkpt lat="38.5539142" lon="16.3234989"><ele>886.0</ele><time>2026-04-12T09:49:12.53Z</time></trkpt><trkpt lat="38.5538199" lon="16.3233283"><ele>886.0</ele><time>2026-04-12T09:49:13.529Z</time></trkpt><trkpt lat="38.5535725" lon="16.3230682"><ele>886.0</ele><time>2026-04-12T09:49:15.527Z</time></trkpt><trkpt lat="38.5534363" lon="16.3229644"><ele>887.75</ele><time>2026-04-12T09:49:16.531Z</time></trkpt><trkpt lat="38.5532942" lon="16.3228847"><ele>889.5</ele><time>2026-04-12T09:49:17.536Z</time></trkpt><trkpt lat="38.5531504" lon="16.3228389"><ele>891.25</ele><time>2026-04-12T09:49:18.528Z</time></trkpt><trkpt lat="38.553011" lon="16.3228387"><ele>893.0</ele><time>2026-04-12T09:49:19.528Z</time></trkpt><trkpt lat="38.5528756" lon="16.3228796"><ele>894.75</ele><time>2026-04-12T09:49:20.524Z</time></trkpt><trkpt lat="38.5527424" lon="16.3229339"><ele>896.5</ele><time>2026-04-12T09:49:21.527Z</time></trkpt><trkpt lat="38.5526139" lon="16.3229713"><ele>898.25</ele><time>2026-04-12T09:49:22.531Z</time></trkpt><trkpt lat="38.552493" lon="16.3229846"><ele>900.0</ele><time>2026-04-12T09:49:23.525Z</time></trkpt><trkpt lat="38.552391" lon="16.3229448"><ele>900.0</ele><time>2026-04-12T09:49:24.536Z</time></trkpt><trkpt lat="38.552314" lon="16.3228653"><ele>900.0</ele><time>2026-04-12T09:49:25.532Z</time></trkpt><trkpt lat="38.5522347" lon="16.3227854"><ele>900.0</ele><time>2026-04-12T09:49:26.531Z</time></trkpt><trkpt lat="38.5521803" lon="16.3226422"><ele>900.0</ele><time>2026-04-12T09:49:27.54Z</time></trkpt><trkpt lat="38.5521346" lon="16.3224873"><ele>900.0</ele><time>2026-04-12T09:49:28.545Z</time></trkpt><trkpt lat="38.5520813" lon="16.3223769"><ele>900.0</ele><time>2026-04-12T09:49:29.526Z</time></trkpt><trkpt lat="38.5520076" lon="16.3222831"><ele>900.0</ele><time>2026-04-12T09:49:30.524Z</time></trkpt><trkpt lat="38.5519377" lon="16.3221917"><ele>900.0</ele><time>2026-04-12T09:49:31.526Z</time></trkpt><trkpt lat="38.5518508" lon="16.3221572"><ele>900.0</ele><time>2026-04-12T09:49:32.527Z</time></trkpt><trkpt lat="38.5517419" lon="16.3221505"><ele>901.25</ele><time>2026-04-12T09:49:33.525Z</time></trkpt><trkpt lat="38.5516394" lon="16.322184"><ele>902.5</ele><time>2026-04-12T09:49:34.533Z</time></trkpt><trkpt lat="38.5514272" lon="16.3222346"><ele>903.75</ele><time>2026-04-12T09:49:36.522Z</time></trkpt><trkpt lat="38.5513222" lon="16.3222333"><ele>905.0</ele><time>2026-04-12T09:49:37.526Z</time></trkpt><trkpt lat="38.5512201" lon="16.322221"><ele>906.2</ele><time>2026-04-12T09:49:38.533Z</time></trkpt><trkpt lat="38.5511232" lon="16.3221761"><ele>907.4</ele><time>2026-04-12T09:49:39.526Z</time></trkpt><trkpt lat="38.5510446" lon="16.3221383"><ele>908.5999999999999</ele><time>2026-04-12T09:49:40.524Z</time></trkpt><trkpt lat="38.5509554" lon="16.3220809"><ele>909.8</ele><time>2026-04-12T09:49:41.527Z</time></trkpt><trkpt lat="38.5508558" lon="16.3220186"><ele>911.0</ele><time>2026-04-12T09:49:42.52Z</time></trkpt><trkpt lat="38.5507593" lon="16.3219334"><ele>911.0</ele><time>2026-04-12T09:49:43.54Z</time></trkpt><trkpt lat="38.550659" lon="16.3218286"><ele>911.0</ele><time>2026-04-12T09:49:44.527Z</time></trkpt><trkpt lat="38.5505411" lon="16.3216997"><ele>911.0</ele><time>2026-04-12T09:49:45.528Z</time></trkpt><trkpt lat="38.5504183" lon="16.3215594"><ele>911.0</ele><time>2026-04-12T09:49:46.528Z</time></trkpt><trkpt lat="38.5502756" lon="16.3214479"><ele>914.3333333333334</ele><time>2026-04-12T09:49:47.528Z</time></trkpt><trkpt lat="38.5501375" lon="16.3213437"><ele>917.6666666666667</ele><time>2026-04-12T09:49:48.528Z</time></trkpt><trkpt lat="38.5500137" lon="16.3212268"><ele>921.0</ele><time>2026-04-12T09:49:49.536Z</time></trkpt><trkpt lat="38.5498866" lon="16.3211066"><ele>921.0</ele><time>2026-04-12T09:49:50.532Z</time></trkpt><trkpt lat="38.5497834" lon="16.3209501"><ele>921.0</ele><time>2026-04-12T09:49:51.524Z</time></trkpt><trkpt lat="38.5497047" lon="16.3207785"><ele>921.0</ele><time>2026-04-12T09:49:52.529Z</time></trkpt><trkpt lat="38.5496391" lon="16.3205809"><ele>925.0</ele><time>2026-04-12T09:49:53.535Z</time></trkpt><trkpt lat="38.5496111" lon="16.3204048"><ele>929.0</ele><time>2026-04-12T09:49:54.521Z</time></trkpt><trkpt lat="38.5495905" lon="16.3202334"><ele>933.0</ele><time>2026-04-12T09:49:55.531Z</time></trkpt><trkpt lat="38.5497184" lon="16.3199536"><ele>933.0</ele><time>2026-04-12T09:49:57.531Z</time></trkpt><trkpt lat="38.5498337" lon="16.3198845"><ele>933.0</ele><time>2026-04-12T09:49:58.515Z</time></trkpt><trkpt lat="38.5499695" lon="16.3197944"><ele>933.0</ele><time>2026-04-12T09:49:59.541Z</time></trkpt><trkpt lat="38.5501427" lon="16.3197317"><ele>933.0</ele><time>2026-04-12T09:50:00.528Z</time></trkpt><trkpt lat="38.5502642" lon="16.3196802"><ele>933.0</ele><time>2026-04-12T09:50:01.524Z</time></trkpt><trkpt lat="38.55034" lon="16.3195807"><ele>933.0</ele><time>2026-04-12T09:50:02.54Z</time></trkpt><trkpt lat="38.5503787" lon="16.3194775"><ele>933.0</ele><time>2026-04-12T09:50:03.534Z</time></trkpt><trkpt lat="38.5503709" lon="16.3193801"><ele>933.0</ele><time>2026-04-12T09:50:04.529Z</time></trkpt><trkpt lat="38.5503152" lon="16.3192548"><ele>934.75</ele><time>2026-04-12T09:50:05.541Z</time></trkpt><trkpt lat="38.5502479" lon="16.3191324"><ele>936.5</ele><time>2026-04-12T09:50:06.53Z</time></trkpt><trkpt lat="38.5501523" lon="16.3190236"><ele>938.25</ele><time>2026-04-12T09:50:07.529Z</time></trkpt><trkpt lat="38.5500364" lon="16.3188938"><ele>940.0</ele><time>2026-04-12T09:50:08.531Z</time></trkpt><trkpt lat="38.5499217" lon="16.3187638"><ele>940.0</ele><time>2026-04-12T09:50:09.547Z</time></trkpt><trkpt lat="38.5498363" lon="16.3186391"><ele>940.0</ele><time>2026-04-12T09:50:10.521Z</time></trkpt><trkpt lat="38.5497611" lon="16.3185344"><ele>940.0</ele><time>2026-04-12T09:50:11.536Z</time></trkpt><trkpt lat="38.549642" lon="16.3184736"><ele>940.0</ele><time>2026-04-12T09:50:12.53Z</time></trkpt><trkpt lat="38.549514" lon="16.3184552"><ele>942.0</ele><time>2026-04-12T09:50:13.535Z</time></trkpt><trkpt lat="38.5493742" lon="16.3184581"><ele>944.0</ele><time>2026-04-12T09:50:14.536Z</time></trkpt><trkpt lat="38.5492294" lon="16.3184783"><ele>946.0</ele><time>2026-04-12T09:50:15.53Z</time></trkpt><trkpt lat="38.5490717" lon="16.3184922"><ele>948.0</ele><time>2026-04-12T09:50:16.536Z</time></trkpt><trkpt lat="38.548727" lon="16.318556"><ele>950.0</ele><time>2026-04-12T09:50:18.516Z</time></trkpt><trkpt lat="38.5485279" lon="16.3185952"><ele>952.0</ele><time>2026-04-12T09:50:19.535Z</time></trkpt><trkpt lat="38.5483492" lon="16.3186248"><ele>954.0</ele><time>2026-04-12T09:50:20.535Z</time></trkpt><trkpt lat="38.5481547" lon="16.3186613"><ele>954.0</ele><time>2026-04-12T09:50:21.527Z</time></trkpt><trkpt lat="38.5479741" lon="16.3186867"><ele>954.0</ele><time>2026-04-12T09:50:22.52Z</time></trkpt><trkpt lat="38.5478044" lon="16.3186975"><ele>954.0</ele><time>2026-04-12T09:50:23.534Z</time></trkpt><trkpt lat="38.5476753" lon="16.3186998"><ele>955.0</ele><time>2026-04-12T09:50:24.534Z</time></trkpt><trkpt lat="38.54755" lon="16.3187252"><ele>956.0000000000001</ele><time>2026-04-12T09:50:25.524Z</time></trkpt><trkpt lat="38.5474463" lon="16.3187596"><ele>957.0000000000001</ele><time>2026-04-12T09:50:26.527Z</time></trkpt><trkpt lat="38.5473551" lon="16.3187867"><ele>958.0</ele><time>2026-04-12T09:50:27.533Z</time></trkpt><trkpt lat="38.5472566" lon="16.3188406"><ele>959.0</ele><time>2026-04-12T09:50:28.525Z</time></trkpt><trkpt lat="38.547149" lon="16.3188948"><ele>961.75</ele><time>2026-04-12T09:50:29.533Z</time></trkpt><trkpt lat="38.5470395" lon="16.3189444"><ele>964.5</ele><time>2026-04-12T09:50:30.53Z</time></trkpt><trkpt lat="38.5468978" lon="16.3189686"><ele>967.25</ele><time>2026-04-12T09:50:31.521Z</time></trkpt><trkpt lat="38.5467856" lon="16.3190221"><ele>970.0</ele><time>2026-04-12T09:50:32.526Z</time></trkpt><trkpt lat="38.5467081" lon="16.3190757"><ele>970.0</ele><time>2026-04-12T09:50:33.537Z</time></trkpt><trkpt lat="38.5466352" lon="16.31921"><ele>970.0</ele><time>2026-04-12T09:50:35.532Z</time></trkpt><trkpt lat="38.5466327" lon="16.3193416"><ele>970.0</ele><time>2026-04-12T09:50:37.538Z</time></trkpt><trkpt lat="38.5467779" lon="16.3194671"><ele>970.0</ele><time>2026-04-12T09:50:39.545Z</time></trkpt><trkpt lat="38.546895" lon="16.3195804"><ele>970.0</ele><time>2026-04-12T09:50:40.524Z</time></trkpt><trkpt lat="38.5470419" lon="16.3196742"><ele>970.0</ele><time>2026-04-12T09:50:41.525Z</time></trkpt><trkpt lat="38.547166" lon="16.3197791"><ele>970.0</ele><time>2026-04-12T09:50:42.521Z</time></trkpt><trkpt lat="38.5472037" lon="16.3198644"><ele>970.0</ele><time>2026-04-12T09:50:43.529Z</time></trkpt><trkpt lat="38.5472264" lon="16.3199426"><ele>966.0</ele><time>2026-04-12T09:50:44.522Z</time></trkpt><trkpt lat="38.5472984" lon="16.3201192"><ele>962.0</ele><time>2026-04-12T09:50:45.525Z</time></trkpt><trkpt lat="38.5472063" lon="16.3203258"><ele>958.0</ele><time>2026-04-12T09:50:46.52Z</time></trkpt><trkpt lat="38.5471569" lon="16.3205379"><ele>958.75</ele><time>2026-04-12T09:50:47.527Z</time></trkpt><trkpt lat="38.5471048" lon="16.3207114"><ele>959.5</ele><time>2026-04-12T09:50:48.532Z</time></trkpt><trkpt lat="38.5470453" lon="16.3208703"><ele>960.25</ele><time>2026-04-12T09:50:49.545Z</time></trkpt><trkpt lat="38.5469842" lon="16.3209849"><ele>961.0</ele><time>2026-04-12T09:50:50.53Z</time></trkpt><trkpt lat="38.5469455" lon="16.3210798"><ele>961.75</ele><time>2026-04-12T09:50:51.538Z</time></trkpt><trkpt lat="38.5468714" lon="16.3211081"><ele>962.5</ele><time>2026-04-12T09:50:52.523Z</time></trkpt><trkpt lat="38.5467614" lon="16.3210973"><ele>963.25</ele><time>2026-04-12T09:50:53.527Z</time></trkpt><trkpt lat="38.5466269" lon="16.3210444"><ele>964.0</ele><time>2026-04-12T09:50:54.516Z</time></trkpt><trkpt lat="38.5464876" lon="16.3209793"><ele>964.0</ele><time>2026-04-12T09:50:55.527Z</time></trkpt><trkpt lat="38.5463372" lon="16.3209203"><ele>964.0</ele><time>2026-04-12T09:50:56.529Z</time></trkpt><trkpt lat="38.5462436" lon="16.3208462"><ele>964.0</ele><time>2026-04-12T09:50:57.526Z</time></trkpt><trkpt lat="38.5461345" lon="16.3207559"><ele>964.0</ele><time>2026-04-12T09:50:58.534Z</time></trkpt><trkpt lat="38.5460133" lon="16.3204675"><ele>969.25</ele><time>2026-04-12T09:51:00.532Z</time></trkpt><trkpt lat="38.5459882" lon="16.320294"><ele>974.5</ele><time>2026-04-12T09:51:01.525Z</time></trkpt><trkpt lat="38.5459565" lon="16.3201283"><ele>979.75</ele><time>2026-04-12T09:51:02.527Z</time></trkpt><trkpt lat="38.54596" lon="16.3199977"><ele>985.0</ele><time>2026-04-12T09:51:03.532Z</time></trkpt><trkpt lat="38.5459404" lon="16.319828"><ele>983.75</ele><time>2026-04-12T09:51:04.526Z</time></trkpt><trkpt lat="38.5459105" lon="16.3196406"><ele>982.5</ele><time>2026-04-12T09:51:05.524Z</time></trkpt><trkpt lat="38.5458414" lon="16.3195257"><ele>981.25</ele><time>2026-04-12T09:51:06.524Z</time></trkpt><trkpt lat="38.5457106" lon="16.3193927"><ele>980.0</ele><time>2026-04-12T09:51:07.535Z</time></trkpt><trkpt lat="38.5455523" lon="16.3192407"><ele>980.0</ele><time>2026-04-12T09:51:08.525Z</time></trkpt><trkpt lat="38.5454229" lon="16.3191447"><ele>980.0</ele><time>2026-04-12T09:51:09.54Z</time></trkpt><trkpt lat="38.5452877" lon="16.3190779"><ele>980.0</ele><time>2026-04-12T09:51:10.534Z</time></trkpt><trkpt lat="38.5451534" lon="16.3190325"><ele>980.0</ele><time>2026-04-12T09:51:11.535Z</time></trkpt><trkpt lat="38.5450283" lon="16.3190255"><ele>982.0</ele><time>2026-04-12T09:51:12.524Z</time></trkpt><trkpt lat="38.5448941" lon="16.3190286"><ele>984.0</ele><time>2026-04-12T09:51:13.53Z</time></trkpt><trkpt lat="38.5447465" lon="16.319025"><ele>986.0</ele><time>2026-04-12T09:51:14.524Z</time></trkpt><trkpt lat="38.5445966" lon="16.3190087"><ele>988.0</ele><time>2026-04-12T09:51:15.538Z</time></trkpt><trkpt lat="38.5444563" lon="16.3189856"><ele>990.5</ele><time>2026-04-12T09:51:16.528Z</time></trkpt><trkpt lat="38.544314" lon="16.3189435"><ele>993.0</ele><time>2026-04-12T09:51:17.534Z</time></trkpt><trkpt lat="38.5442055" lon="16.3188782"><ele>995.5</ele><time>2026-04-12T09:51:18.53Z</time></trkpt><trkpt lat="38.5440912" lon="16.3188037"><ele>998.0</ele><time>2026-04-12T09:51:19.527Z</time></trkpt><trkpt lat="38.5438575" lon="16.3186366"><ele>998.0</ele><time>2026-04-12T09:51:21.535Z</time></trkpt><trkpt lat="38.5437608" lon="16.3185082"><ele>998.0</ele><time>2026-04-12T09:51:22.529Z</time></trkpt><trkpt lat="38.5436363" lon="16.3183884"><ele>998.0</ele><time>2026-04-12T09:51:23.54Z</time></trkpt><trkpt lat="38.5435401" lon="16.318295"><ele>998.0</ele><time>2026-04-12T09:51:24.526Z</time></trkpt><trkpt lat="38.5434743" lon="16.3181973"><ele>999.3333333333334</ele><time>2026-04-12T09:51:25.529Z</time></trkpt><trkpt lat="38.5434125" lon="16.3181205"><ele>1000.6666666666667</ele><time>2026-04-12T09:51:26.527Z</time></trkpt><trkpt lat="38.5434639" lon="16.3180136"><ele>1002.0</ele><time>2026-04-12T09:51:27.539Z</time></trkpt><trkpt lat="38.5435337" lon="16.31793"><ele>1003.3333333333333</ele><time>2026-04-12T09:51:29.532Z</time></trkpt><trkpt lat="38.5436069" lon="16.3179342"><ele>1004.6666666666666</ele><time>2026-04-12T09:51:30.526Z</time></trkpt><trkpt lat="38.543691" lon="16.3179608"><ele>1006.0</ele><time>2026-04-12T09:51:31.534Z</time></trkpt><trkpt lat="38.5438" lon="16.3179924"><ele>1006.0</ele><time>2026-04-12T09:51:32.523Z</time></trkpt><trkpt lat="38.5439143" lon="16.318037"><ele>1006.0</ele><time>2026-04-12T09:51:33.534Z</time></trkpt><trkpt lat="38.5440472" lon="16.3180734"><ele>1006.0</ele><time>2026-04-12T09:51:34.522Z</time></trkpt><trkpt lat="38.5441964" lon="16.3180908"><ele>1006.0</ele><time>2026-04-12T09:51:35.53Z</time></trkpt><trkpt lat="38.5443104" lon="16.3181124"><ele>1006.0</ele><time>2026-04-12T09:51:36.528Z</time></trkpt><trkpt lat="38.5444105" lon="16.318103"><ele>1005.9999999999999</ele><time>2026-04-12T09:51:37.536Z</time></trkpt><trkpt lat="38.5445055" lon="16.3180261"><ele>1005.9999999999999</ele><time>2026-04-12T09:51:38.537Z</time></trkpt><trkpt lat="38.5445457" lon="16.3179173"><ele>1006.0</ele><time>2026-04-12T09:51:39.534Z</time></trkpt><trkpt lat="38.5445567" lon="16.3177988"><ele>1006.0</ele><time>2026-04-12T09:51:40.524Z</time></trkpt><trkpt lat="38.5445503" lon="16.3175067"><ele>1006.0</ele><time>2026-04-12T09:51:42.528Z</time></trkpt><trkpt lat="38.5445043" lon="16.3173581"><ele>1006.0</ele><time>2026-04-12T09:51:43.541Z</time></trkpt><trkpt lat="38.5443956" lon="16.3171995"><ele>1006.0</ele><time>2026-04-12T09:51:44.525Z</time></trkpt><trkpt lat="38.5442733" lon="16.3170588"><ele>1006.3333333333333</ele><time>2026-04-12T09:51:45.53Z</time></trkpt><trkpt lat="38.5441242" lon="16.3169404"><ele>1006.6666666666667</ele><time>2026-04-12T09:51:46.525Z</time></trkpt><trkpt lat="38.5439885" lon="16.3168221"><ele>1007.0</ele><time>2026-04-12T09:51:47.529Z</time></trkpt><trkpt lat="38.5438502" lon="16.3167638"><ele>1009.0</ele><time>2026-04-12T09:51:48.534Z</time></trkpt><trkpt lat="38.5436897" lon="16.31672"><ele>1011.0</ele><time>2026-04-12T09:51:49.543Z</time></trkpt><trkpt lat="38.5435633" lon="16.3166465"><ele>1013.0</ele><time>2026-04-12T09:51:50.535Z</time></trkpt><trkpt lat="38.5434606" lon="16.3165573"><ele>1015.0</ele><time>2026-04-12T09:51:51.532Z</time></trkpt><trkpt lat="38.5433683" lon="16.3164417"><ele>1014.0</ele><time>2026-04-12T09:51:52.528Z</time></trkpt><trkpt lat="38.5433094" lon="16.3162979"><ele>1013.0</ele><time>2026-04-12T09:51:53.52Z</time></trkpt><trkpt lat="38.5432478" lon="16.3160872"><ele>1012.0</ele><time>2026-04-12T09:51:54.528Z</time></trkpt><trkpt lat="38.5431713" lon="16.3159021"><ele>1012.0</ele><time>2026-04-12T09:51:55.529Z</time></trkpt><trkpt lat="38.5430967" lon="16.3157412"><ele>1012.0</ele><time>2026-04-12T09:51:56.524Z</time></trkpt><trkpt lat="38.5430081" lon="16.3156014"><ele>1012.0</ele><time>2026-04-12T09:51:57.531Z</time></trkpt><trkpt lat="38.5428881" lon="16.3154984"><ele>1012.0</ele><time>2026-04-12T09:51:58.535Z</time></trkpt><trkpt lat="38.542741" lon="16.3154582"><ele>1011.0</ele><time>2026-04-12T09:51:59.529Z</time></trkpt><trkpt lat="38.5425885" lon="16.315442"><ele>1010.0</ele><time>2026-04-12T09:52:00.534Z</time></trkpt><trkpt lat="38.5424668" lon="16.3154438"><ele>1009.0</ele><time>2026-04-12T09:52:01.535Z</time></trkpt><trkpt lat="38.5421597" lon="16.3155168"><ele>1012.5</ele><time>2026-04-12T09:52:03.534Z</time></trkpt><trkpt lat="38.5420225" lon="16.3155707"><ele>1016.0</ele><time>2026-04-12T09:52:04.536Z</time></trkpt><trkpt lat="38.5418694" lon="16.315602"><ele>1019.5</ele><time>2026-04-12T09:52:05.518Z</time></trkpt><trkpt lat="38.5417224" lon="16.315638"><ele>1023.0</ele><time>2026-04-12T09:52:06.523Z</time></trkpt><trkpt lat="38.5415821" lon="16.315667"><ele>1023.0</ele><time>2026-04-12T09:52:07.54Z</time></trkpt><trkpt lat="38.5414108" lon="16.3156866"><ele>1023.0</ele><time>2026-04-12T09:52:08.53Z</time></trkpt><trkpt lat="38.5412748" lon="16.3157046"><ele>1023.0</ele><time>2026-04-12T09:52:09.519Z</time></trkpt><trkpt lat="38.5411463" lon="16.3157408"><ele>1023.0</ele><time>2026-04-12T09:52:10.53Z</time></trkpt><trkpt lat="38.5410188" lon="16.3157965"><ele>1023.75</ele><time>2026-04-12T09:52:11.527Z</time></trkpt><trkpt lat="38.5408872" lon="16.3158558"><ele>1024.5</ele><time>2026-04-12T09:52:12.528Z</time></trkpt><trkpt lat="38.5407425" lon="16.3159146"><ele>1025.25</ele><time>2026-04-12T09:52:13.531Z</time></trkpt><trkpt lat="38.5406099" lon="16.3159572"><ele>1026.0</ele><time>2026-04-12T09:52:14.53Z</time></trkpt><trkpt lat="38.5404926" lon="16.3159685"><ele>1027.25</ele><time>2026-04-12T09:52:15.522Z</time></trkpt><trkpt lat="38.5403579" lon="16.3159438"><ele>1028.5</ele><time>2026-04-12T09:52:16.529Z</time></trkpt><trkpt lat="38.540271" lon="16.315841"><ele>1029.75</ele><time>2026-04-12T09:52:17.534Z</time></trkpt><trkpt lat="38.5401884" lon="16.3157275"><ele>1031.0</ele><time>2026-04-12T09:52:18.529Z</time></trkpt><trkpt lat="38.5400864" lon="16.3156443"><ele>1031.0</ele><time>2026-04-12T09:52:19.534Z</time></trkpt><trkpt lat="38.5399604" lon="16.3156059"><ele>1031.0</ele><time>2026-04-12T09:52:20.528Z</time></trkpt><trkpt lat="38.5398357" lon="16.3156356"><ele>1031.0</ele><time>2026-04-12T09:52:21.519Z</time></trkpt><trkpt lat="38.5397217" lon="16.3157097"><ele>1031.0</ele><time>2026-04-12T09:52:22.535Z</time></trkpt><trkpt lat="38.5394036" lon="16.3158247"><ele>1030.3333333333335</ele><time>2026-04-12T09:52:24.528Z</time></trkpt><trkpt lat="38.5391968" lon="16.3159202"><ele>1029.6666666666667</ele><time>2026-04-12T09:52:25.518Z</time></trkpt><trkpt lat="38.5389916" lon="16.3159579"><ele>1029.0</ele><time>2026-04-12T09:52:26.526Z</time></trkpt><trkpt lat="38.5387964" lon="16.3160439"><ele>1028.6666666666667</ele><time>2026-04-12T09:52:27.545Z</time></trkpt><trkpt lat="38.538625" lon="16.3161169"><ele>1028.3333333333335</ele><time>2026-04-12T09:52:28.548Z</time></trkpt><trkpt lat="38.5384644" lon="16.3161785"><ele>1028.0</ele><time>2026-04-12T09:52:29.521Z</time></trkpt><trkpt lat="38.5383006" lon="16.316251"><ele>1028.0</ele><time>2026-04-12T09:52:30.537Z</time></trkpt><trkpt lat="38.5381464" lon="16.3163005"><ele>1028.0</ele><time>2026-04-12T09:52:31.54Z</time></trkpt><trkpt lat="38.5380203" lon="16.3163447"><ele>1028.0</ele><time>2026-04-12T09:52:32.534Z</time></trkpt><trkpt lat="38.537919" lon="16.3163893"><ele>1028.0</ele><time>2026-04-12T09:52:33.551Z</time></trkpt><trkpt lat="38.5378261" lon="16.3164201"><ele>1025.6</ele><time>2026-04-12T09:52:34.551Z</time></trkpt><trkpt lat="38.5377334" lon="16.316454"><ele>1023.1999999999999</ele><time>2026-04-12T09:52:35.537Z</time></trkpt><trkpt lat="38.5376553" lon="16.316513"><ele>1020.8</ele><time>2026-04-12T09:52:36.545Z</time></trkpt><trkpt lat="38.5375854" lon="16.3165914"><ele>1018.4</ele><time>2026-04-12T09:52:37.535Z</time></trkpt><trkpt lat="38.5375169" lon="16.3166805"><ele>1016.0</ele><time>2026-04-12T09:52:38.532Z</time></trkpt><trkpt lat="38.5374567" lon="16.3167683"><ele>1016.0</ele><time>2026-04-12T09:52:39.534Z</time></trkpt><trkpt lat="38.5374028" lon="16.3168545"><ele>1015.9999999999999</ele><time>2026-04-12T09:52:40.535Z</time></trkpt><trkpt lat="38.5373532" lon="16.3169323"><ele>1015.9999999999999</ele><time>2026-04-12T09:52:41.521Z</time></trkpt><trkpt lat="38.537308" lon="16.3169952"><ele>1016.0</ele><time>2026-04-12T09:52:42.545Z</time></trkpt><trkpt lat="38.5372598" lon="16.3170512"><ele>1016.0</ele><time>2026-04-12T09:52:43.537Z</time></trkpt><trkpt lat="38.5370884" lon="16.3172401"><ele>1015.1999999999999</ele><time>2026-04-12T09:52:47.522Z</time></trkpt><trkpt lat="38.536997" lon="16.3173119"><ele>1014.3999999999999</ele><time>2026-04-12T09:52:49.54Z</time></trkpt><trkpt lat="38.5369008" lon="16.3173729"><ele>1013.6</ele><time>2026-04-12T09:52:51.535Z</time></trkpt><trkpt lat="38.5368058" lon="16.3174426"><ele>1012.8</ele><time>2026-04-12T09:52:53.52Z</time></trkpt><trkpt lat="38.5367124" lon="16.3175166"><ele>1012.0</ele><time>2026-04-12T09:52:55.537Z</time></trkpt><trkpt lat="38.5366364" lon="16.317593"><ele>1012.0</ele><time>2026-04-12T09:52:57.524Z</time></trkpt><trkpt lat="38.5365941" lon="16.3176534"><ele>1012.0</ele><time>2026-04-12T09:52:58.531Z</time></trkpt><trkpt lat="38.5365433" lon="16.3178001"><ele>1012.0</ele><time>2026-04-12T09:53:00.528Z</time></trkpt><trkpt lat="38.536528" lon="16.3179516"><ele>1012.0</ele><time>2026-04-12T09:53:02.525Z</time></trkpt><trkpt lat="38.5364983" lon="16.3181054"><ele>1012.0</ele><time>2026-04-12T09:53:04.538Z</time></trkpt><trkpt lat="38.5364182" lon="16.3182382"><ele>1011.6</ele><time>2026-04-12T09:53:06.544Z</time></trkpt><trkpt lat="38.5363213" lon="16.3183123"><ele>1011.2</ele><time>2026-04-12T09:53:08.529Z</time></trkpt><trkpt lat="38.5362541" lon="16.3183353"><ele>1010.8</ele><time>2026-04-12T09:53:09.542Z</time></trkpt><trkpt lat="38.5361895" lon="16.3183218"><ele>1010.4</ele><time>2026-04-12T09:53:10.53Z</time></trkpt><trkpt lat="38.5360811" lon="16.3182875"><ele>1010.0</ele><time>2026-04-12T09:53:12.533Z</time></trkpt><trkpt lat="38.5359709" lon="16.3182661"><ele>1010.0</ele><time>2026-04-12T09:53:14.524Z</time></trkpt><trkpt lat="38.5358684" lon="16.3182328"><ele>1010.0</ele><time>2026-04-12T09:53:16.532Z</time></trkpt><trkpt lat="38.5357684" lon="16.3182138"><ele>1010.0</ele><time>2026-04-12T09:53:18.531Z</time></trkpt><trkpt lat="38.5356699" lon="16.3182256"><ele>1010.0</ele><time>2026-04-12T09:53:20.53Z</time></trkpt><trkpt lat="38.5355639" lon="16.3182652"><ele>1010.0</ele><time>2026-04-12T09:53:22.535Z</time></trkpt><trkpt lat="38.5355064" lon="16.3183026"><ele>1010.0</ele><time>2026-04-12T09:53:23.534Z</time></trkpt><trkpt lat="38.535441" lon="16.3183465"><ele>1010.0</ele><time>2026-04-12T09:53:24.546Z</time></trkpt><trkpt lat="38.5353711" lon="16.3183954"><ele>1010.0</ele><time>2026-04-12T09:53:25.527Z</time></trkpt><trkpt lat="38.5352172" lon="16.3184995"><ele>1010.0</ele><time>2026-04-12T09:53:27.541Z</time></trkpt><trkpt lat="38.5351245" lon="16.3185685"><ele>1010.0</ele><time>2026-04-12T09:53:28.536Z</time></trkpt><trkpt lat="38.5350274" lon="16.3186467"><ele>1009.0</ele><time>2026-04-12T09:53:29.527Z</time></trkpt><trkpt lat="38.534916" lon="16.3187343"><ele>1008.0</ele><time>2026-04-12T09:53:30.532Z</time></trkpt><trkpt lat="38.5347956" lon="16.3188287"><ele>1007.0</ele><time>2026-04-12T09:53:31.534Z</time></trkpt><trkpt lat="38.5346768" lon="16.3189278"><ele>1006.0</ele><time>2026-04-12T09:53:32.523Z</time></trkpt><trkpt lat="38.5345596" lon="16.3190366"><ele>1004.6666666666666</ele><time>2026-04-12T09:53:33.531Z</time></trkpt><trkpt lat="38.5344418" lon="16.3191644"><ele>1003.3333333333333</ele><time>2026-04-12T09:53:34.539Z</time></trkpt><trkpt lat="38.5343298" lon="16.3193113"><ele>1002.0</ele><time>2026-04-12T09:53:35.524Z</time></trkpt><trkpt lat="38.5342096" lon="16.3194814"><ele>1002.0</ele><time>2026-04-12T09:53:36.534Z</time></trkpt><trkpt lat="38.5340774" lon="16.319666"><ele>1002.0</ele><time>2026-04-12T09:53:37.543Z</time></trkpt><trkpt lat="38.5339426" lon="16.3198603"><ele>1002.0</ele><time>2026-04-12T09:53:38.523Z</time></trkpt><trkpt lat="38.5338122" lon="16.3200467"><ele>1002.0</ele><time>2026-04-12T09:53:39.531Z</time></trkpt><trkpt lat="38.5336891" lon="16.3202254"><ele>1002.0</ele><time>2026-04-12T09:53:40.53Z</time></trkpt><trkpt lat="38.533569" lon="16.3203931"><ele>1002.0</ele><time>2026-04-12T09:53:41.526Z</time></trkpt><trkpt lat="38.5334513" lon="16.3205503"><ele>1002.0</ele><time>2026-04-12T09:53:42.532Z</time></trkpt><trkpt lat="38.533339" lon="16.3207017"><ele>1002.0</ele><time>2026-04-12T09:53:43.523Z</time></trkpt><trkpt lat="38.5332335" lon="16.3208433"><ele>1002.0</ele><time>2026-04-12T09:53:44.528Z</time></trkpt><trkpt lat="38.5331396" lon="16.320968"><ele>1002.0</ele><time>2026-04-12T09:53:45.522Z</time></trkpt><trkpt lat="38.533066" lon="16.3210687"><ele>1002.0</ele><time>2026-04-12T09:53:46.527Z</time></trkpt><trkpt lat="38.532943" lon="16.3212217"><ele>1002.0</ele><time>2026-04-12T09:53:48.53Z</time></trkpt><trkpt lat="38.5328872" lon="16.3212767"><ele>1002.0</ele><time>2026-04-12T09:53:49.53Z</time></trkpt><trkpt lat="38.5328295" lon="16.3213222"><ele>1002.0</ele><time>2026-04-12T09:53:50.528Z</time></trkpt><trkpt lat="38.5327648" lon="16.321363"><ele>1002.6</ele><time>2026-04-12T09:53:51.536Z</time></trkpt><trkpt lat="38.5326915" lon="16.3214006"><ele>1003.2</ele><time>2026-04-12T09:53:52.538Z</time></trkpt><trkpt lat="38.5326099" lon="16.321435"><ele>1003.8</ele><time>2026-04-12T09:53:53.529Z</time></trkpt><trkpt lat="38.53252" lon="16.3214594"><ele>1004.4</ele><time>2026-04-12T09:53:54.531Z</time></trkpt><trkpt lat="38.532423" lon="16.3214673"><ele>1005.0</ele><time>2026-04-12T09:53:55.538Z</time></trkpt><trkpt lat="38.5323201" lon="16.3214624"><ele>1005.0</ele><time>2026-04-12T09:53:56.531Z</time></trkpt><trkpt lat="38.5322076" lon="16.3214503"><ele>1005.0</ele><time>2026-04-12T09:53:57.528Z</time></trkpt><trkpt lat="38.5320881" lon="16.3214331"><ele>1005.0</ele><time>2026-04-12T09:53:58.529Z</time></trkpt><trkpt lat="38.5319785" lon="16.3214212"><ele>1005.0</ele><time>2026-04-12T09:53:59.532Z</time></trkpt><trkpt lat="38.5318673" lon="16.3214139"><ele>1005.0</ele><time>2026-04-12T09:54:00.527Z</time></trkpt><trkpt lat="38.5317284" lon="16.3214035"><ele>1005.0</ele><time>2026-04-12T09:54:01.525Z</time></trkpt><trkpt lat="38.5315515" lon="16.3213766"><ele>1005.0</ele><time>2026-04-12T09:54:02.523Z</time></trkpt><trkpt lat="38.531352" lon="16.3213344"><ele>1003.0</ele><time>2026-04-12T09:54:03.533Z</time></trkpt><trkpt lat="38.5311393" lon="16.3212839"><ele>1001.0</ele><time>2026-04-12T09:54:04.528Z</time></trkpt><trkpt lat="38.5309255" lon="16.321237"><ele>999.0</ele><time>2026-04-12T09:54:05.526Z</time></trkpt><trkpt lat="38.5307254" lon="16.3211958"><ele>999.0</ele><time>2026-04-12T09:54:06.539Z</time></trkpt><trkpt lat="38.530535" lon="16.3211559"><ele>999.0</ele><time>2026-04-12T09:54:07.532Z</time></trkpt><trkpt lat="38.5301956" lon="16.3210874"><ele>999.0</ele><time>2026-04-12T09:54:09.532Z</time></trkpt><trkpt lat="38.5300355" lon="16.3210549"><ele>999.0</ele><time>2026-04-12T09:54:10.534Z</time></trkpt><trkpt lat="38.5298789" lon="16.3210282"><ele>999.0</ele><time>2026-04-12T09:54:11.537Z</time></trkpt><trkpt lat="38.5297262" lon="16.3209991"><ele>999.0</ele><time>2026-04-12T09:54:12.528Z</time></trkpt><trkpt lat="38.5295759" lon="16.3209722"><ele>999.0</ele><time>2026-04-12T09:54:13.526Z</time></trkpt><trkpt lat="38.5294237" lon="16.3209481"><ele>999.0</ele><time>2026-04-12T09:54:14.53Z</time></trkpt><trkpt lat="38.5292665" lon="16.3209196"><ele>999.0</ele><time>2026-04-12T09:54:15.534Z</time></trkpt><trkpt lat="38.5291039" lon="16.3208879"><ele>999.0</ele><time>2026-04-12T09:54:16.53Z</time></trkpt><trkpt lat="38.5289367" lon="16.3208534"><ele>999.0</ele><time>2026-04-12T09:54:17.531Z</time></trkpt><trkpt lat="38.5287645" lon="16.3208173"><ele>997.0</ele><time>2026-04-12T09:54:18.534Z</time></trkpt><trkpt lat="38.5285859" lon="16.3207813"><ele>995.0</ele><time>2026-04-12T09:54:19.55Z</time></trkpt><trkpt lat="38.5284159" lon="16.3207452"><ele>993.0</ele><time>2026-04-12T09:54:20.539Z</time></trkpt><trkpt lat="38.5282451" lon="16.3207107"><ele>993.0</ele><time>2026-04-12T09:54:21.537Z</time></trkpt><trkpt lat="38.5280803" lon="16.320673"><ele>993.0</ele><time>2026-04-12T09:54:22.535Z</time></trkpt><trkpt lat="38.5279144" lon="16.3206459"><ele>993.0</ele><time>2026-04-12T09:54:23.531Z</time></trkpt><trkpt lat="38.5277486" lon="16.3206194"><ele>992.3333333333333</ele><time>2026-04-12T09:54:24.528Z</time></trkpt><trkpt lat="38.527583" lon="16.3205959"><ele>991.6666666666666</ele><time>2026-04-12T09:54:25.528Z</time></trkpt><trkpt lat="38.5274131" lon="16.3205705"><ele>991.0</ele><time>2026-04-12T09:54:26.53Z</time></trkpt><trkpt lat="38.5272457" lon="16.320535"><ele>991.0</ele><time>2026-04-12T09:54:27.525Z</time></trkpt><trkpt lat="38.5270799" lon="16.3205015"><ele>991.0</ele><time>2026-04-12T09:54:28.531Z</time></trkpt><trkpt lat="38.5267375" lon="16.3204378"><ele>990.3333333333333</ele><time>2026-04-12T09:54:30.533Z</time></trkpt><trkpt lat="38.5265619" lon="16.3204046"><ele>989.6666666666667</ele><time>2026-04-12T09:54:31.528Z</time></trkpt><trkpt lat="38.5263831" lon="16.3203713"><ele>989.0</ele><time>2026-04-12T09:54:32.525Z</time></trkpt><trkpt lat="38.5262017" lon="16.3203378"><ele>988.6666666666667</ele><time>2026-04-12T09:54:33.535Z</time></trkpt><trkpt lat="38.5260164" lon="16.3203046"><ele>988.3333333333333</ele><time>2026-04-12T09:54:34.526Z</time></trkpt><trkpt lat="38.5258305" lon="16.3202688"><ele>988.0</ele><time>2026-04-12T09:54:35.528Z</time></trkpt><trkpt lat="38.5256404" lon="16.3202344"><ele>988.0</ele><time>2026-04-12T09:54:36.521Z</time></trkpt><trkpt lat="38.5254461" lon="16.3202021"><ele>988.0</ele><time>2026-04-12T09:54:37.525Z</time></trkpt><trkpt lat="38.5252529" lon="16.3201729"><ele>988.0</ele><time>2026-04-12T09:54:38.525Z</time></trkpt><trkpt lat="38.5250626" lon="16.3201396"><ele>989.6666666666666</ele><time>2026-04-12T09:54:39.527Z</time></trkpt><trkpt lat="38.5248774" lon="16.3201086"><ele>991.3333333333333</ele><time>2026-04-12T09:54:40.529Z</time></trkpt><trkpt lat="38.5246924" lon="16.3200693"><ele>993.0</ele><time>2026-04-12T09:54:41.526Z</time></trkpt><trkpt lat="38.5245129" lon="16.3200393"><ele>993.3333333333333</ele><time>2026-04-12T09:54:42.521Z</time></trkpt><trkpt lat="38.5243407" lon="16.3200184"><ele>993.6666666666666</ele><time>2026-04-12T09:54:43.526Z</time></trkpt><trkpt lat="38.5241641" lon="16.3200174"><ele>994.0</ele><time>2026-04-12T09:54:44.528Z</time></trkpt><trkpt lat="38.5239885" lon="16.320042"><ele>994.0</ele><time>2026-04-12T09:54:45.525Z</time></trkpt><trkpt lat="38.5238282" lon="16.3200783"><ele>994.0</ele><time>2026-04-12T09:54:46.525Z</time></trkpt><trkpt lat="38.5236734" lon="16.3201255"><ele>994.0</ele><time>2026-04-12T09:54:47.529Z</time></trkpt><trkpt lat="38.5235224" lon="16.32015"><ele>995.3333333333333</ele><time>2026-04-12T09:54:48.533Z</time></trkpt><trkpt lat="38.5233728" lon="16.3201293"><ele>996.6666666666667</ele><time>2026-04-12T09:54:49.536Z</time></trkpt><trkpt lat="38.523118" lon="16.3200084"><ele>998.0</ele><time>2026-04-12T09:54:51.53Z</time></trkpt><trkpt lat="38.5230207" lon="16.3198896"><ele>998.0</ele><time>2026-04-12T09:54:52.526Z</time></trkpt><trkpt lat="38.5229292" lon="16.3197864"><ele>998.0</ele><time>2026-04-12T09:54:53.535Z</time></trkpt><trkpt lat="38.5228316" lon="16.3196956"><ele>998.0</ele><time>2026-04-12T09:54:54.529Z</time></trkpt><trkpt lat="38.5227337" lon="16.3196225"><ele>998.0</ele><time>2026-04-12T09:54:55.52Z</time></trkpt><trkpt lat="38.5226278" lon="16.3195512"><ele>1000.0</ele><time>2026-04-12T09:54:56.527Z</time></trkpt><trkpt lat="38.5224877" lon="16.3195282"><ele>1002.0</ele><time>2026-04-12T09:54:57.53Z</time></trkpt><trkpt lat="38.5223336" lon="16.3195058"><ele>1004.0</ele><time>2026-04-12T09:54:58.523Z</time></trkpt><trkpt lat="38.5221632" lon="16.3194645"><ele>1004.6666666666667</ele><time>2026-04-12T09:54:59.519Z</time></trkpt><trkpt lat="38.5220051" lon="16.3194169"><ele>1005.3333333333333</ele><time>2026-04-12T09:55:00.53Z</time></trkpt><trkpt lat="38.5218506" lon="16.3193563"><ele>1006.0</ele><time>2026-04-12T09:55:01.528Z</time></trkpt><trkpt lat="38.5217062" lon="16.3193139"><ele>1006.0</ele><time>2026-04-12T09:55:02.523Z</time></trkpt><trkpt lat="38.5215505" lon="16.3192698"><ele>1006.0</ele><time>2026-04-12T09:55:03.523Z</time></trkpt><trkpt lat="38.521386" lon="16.3192711"><ele>1006.0</ele><time>2026-04-12T09:55:04.53Z</time></trkpt><trkpt lat="38.5212008" lon="16.3191798"><ele>1006.6666666666666</ele><time>2026-04-12T09:55:05.52Z</time></trkpt><trkpt lat="38.5210669" lon="16.3191071"><ele>1007.3333333333333</ele><time>2026-04-12T09:55:06.523Z</time></trkpt><trkpt lat="38.5209248" lon="16.3190276"><ele>1008.0</ele><time>2026-04-12T09:55:07.529Z</time></trkpt><trkpt lat="38.5207919" lon="16.3189324"><ele>1002.3333333333333</ele><time>2026-04-12T09:55:08.521Z</time></trkpt><trkpt lat="38.5206965" lon="16.3188123"><ele>996.6666666666666</ele><time>2026-04-12T09:55:09.534Z</time></trkpt><trkpt lat="38.5205841" lon="16.3187097"><ele>991.0</ele><time>2026-04-12T09:55:10.528Z</time></trkpt><trkpt lat="38.5203504" lon="16.3185836"><ele>990.5</ele><time>2026-04-12T09:55:12.532Z</time></trkpt><trkpt lat="38.5202154" lon="16.3185332"><ele>990.0</ele><time>2026-04-12T09:55:13.523Z</time></trkpt><trkpt lat="38.5200692" lon="16.3185012"><ele>989.5</ele><time>2026-04-12T09:55:14.537Z</time></trkpt><trkpt lat="38.5199324" lon="16.3184949"><ele>989.0</ele><time>2026-04-12T09:55:15.522Z</time></trkpt><trkpt lat="38.5197991" lon="16.3185163"><ele>989.0</ele><time>2026-04-12T09:55:16.534Z</time></trkpt><trkpt lat="38.5196848" lon="16.318545"><ele>989.0</ele><time>2026-04-12T09:55:17.529Z</time></trkpt><trkpt lat="38.5195711" lon="16.3186073"><ele>989.0</ele><time>2026-04-12T09:55:18.523Z</time></trkpt><trkpt lat="38.5194445" lon="16.3186646"><ele>989.0</ele><time>2026-04-12T09:55:19.535Z</time></trkpt><trkpt lat="38.519321" lon="16.3187238"><ele>990.0</ele><time>2026-04-12T09:55:20.543Z</time></trkpt><trkpt lat="38.5192037" lon="16.3187982"><ele>991.0</ele><time>2026-04-12T09:55:21.522Z</time></trkpt><trkpt lat="38.5191225" lon="16.3189037"><ele>992.0</ele><time>2026-04-12T09:55:22.53Z</time></trkpt><trkpt lat="38.5190373" lon="16.3190137"><ele>993.0</ele><time>2026-04-12T09:55:23.533Z</time></trkpt><trkpt lat="38.5189474" lon="16.3191508"><ele>993.0</ele><time>2026-04-12T09:55:24.531Z</time></trkpt><trkpt lat="38.5188557" lon="16.3193067"><ele>993.0</ele><time>2026-04-12T09:55:25.52Z</time></trkpt><trkpt lat="38.5187595" lon="16.3194409"><ele>993.0</ele><time>2026-04-12T09:55:26.525Z</time></trkpt><trkpt lat="38.5186756" lon="16.3196133"><ele>985.0</ele><time>2026-04-12T09:55:27.528Z</time></trkpt><trkpt lat="38.5186452" lon="16.3198232"><ele>977.0</ele><time>2026-04-12T09:55:28.527Z</time></trkpt><trkpt lat="38.5186551" lon="16.3200127"><ele>969.0</ele><time>2026-04-12T09:55:29.521Z</time></trkpt><trkpt lat="38.5186839" lon="16.3202255"><ele>969.0</ele><time>2026-04-12T09:55:30.533Z</time></trkpt><trkpt lat="38.5187295" lon="16.3204466"><ele>969.0</ele><time>2026-04-12T09:55:31.523Z</time></trkpt><trkpt lat="38.5188245" lon="16.3208171"><ele>972.5</ele><time>2026-04-12T09:55:33.528Z</time></trkpt><trkpt lat="38.5188541" lon="16.3209675"><ele>976.0</ele><time>2026-04-12T09:55:34.536Z</time></trkpt><trkpt lat="38.5188787" lon="16.3211189"><ele>979.5</ele><time>2026-04-12T09:55:35.532Z</time></trkpt><trkpt lat="38.5188615" lon="16.3212689"><ele>983.0</ele><time>2026-04-12T09:55:36.533Z</time></trkpt><trkpt lat="38.5187862" lon="16.3213877"><ele>980.4</ele><time>2026-04-12T09:55:37.533Z</time></trkpt><trkpt lat="38.518688" lon="16.3214233"><ele>977.8</ele><time>2026-04-12T09:55:38.527Z</time></trkpt><trkpt lat="38.518591" lon="16.3214565"><ele>975.2</ele><time>2026-04-12T09:55:39.525Z</time></trkpt><trkpt lat="38.5185201" lon="16.3214223"><ele>972.6</ele><time>2026-04-12T09:55:40.53Z</time></trkpt><trkpt lat="38.5184536" lon="16.3213445"><ele>970.0</ele><time>2026-04-12T09:55:41.535Z</time></trkpt><trkpt lat="38.5183961" lon="16.3212511"><ele>968.4</ele><time>2026-04-12T09:55:42.53Z</time></trkpt><trkpt lat="38.5183328" lon="16.3211596"><ele>966.8</ele><time>2026-04-12T09:55:43.537Z</time></trkpt><trkpt lat="38.5182515" lon="16.3210677"><ele>965.2</ele><time>2026-04-12T09:55:44.523Z</time></trkpt><trkpt lat="38.5181594" lon="16.3209821"><ele>963.6</ele><time>2026-04-12T09:55:45.521Z</time></trkpt><trkpt lat="38.5180445" lon="16.3209216"><ele>962.0</ele><time>2026-04-12T09:55:46.537Z</time></trkpt><trkpt lat="38.5179299" lon="16.3208542"><ele>959.5</ele><time>2026-04-12T09:55:47.528Z</time></trkpt><trkpt lat="38.517813" lon="16.3207939"><ele>957.0</ele><time>2026-04-12T09:55:48.527Z</time></trkpt><trkpt lat="38.5176956" lon="16.3207597"><ele>954.5</ele><time>2026-04-12T09:55:49.528Z</time></trkpt><trkpt lat="38.5175762" lon="16.3207511"><ele>952.0</ele><time>2026-04-12T09:55:50.535Z</time></trkpt><trkpt lat="38.5174548" lon="16.3207625"><ele>952.0</ele><time>2026-04-12T09:55:51.524Z</time></trkpt><trkpt lat="38.5173294" lon="16.3207849"><ele>952.0</ele><time>2026-04-12T09:55:52.528Z</time></trkpt><trkpt lat="38.517055" lon="16.3208096"><ele>952.0</ele><time>2026-04-12T09:55:54.528Z</time></trkpt><trkpt lat="38.5169201" lon="16.3208135"><ele>950.75</ele><time>2026-04-12T09:55:55.541Z</time></trkpt><trkpt lat="38.5167873" lon="16.3208107"><ele>949.5</ele><time>2026-04-12T09:55:56.535Z</time></trkpt><trkpt lat="38.5166583" lon="16.3207998"><ele>948.25</ele><time>2026-04-12T09:55:57.524Z</time></trkpt><trkpt lat="38.5165329" lon="16.3207809"><ele>947.0</ele><time>2026-04-12T09:55:58.533Z</time></trkpt><trkpt lat="38.5164106" lon="16.3207563"><ele>947.0</ele><time>2026-04-12T09:55:59.521Z</time></trkpt><trkpt lat="38.5162937" lon="16.3207319"><ele>947.0</ele><time>2026-04-12T09:56:00.525Z</time></trkpt><trkpt lat="38.516177" lon="16.3207064"><ele>947.0</ele><time>2026-04-12T09:56:01.528Z</time></trkpt><trkpt lat="38.516063" lon="16.3206827"><ele>947.0</ele><time>2026-04-12T09:56:02.531Z</time></trkpt><trkpt lat="38.5159523" lon="16.3206599"><ele>945.6</ele><time>2026-04-12T09:56:03.53Z</time></trkpt><trkpt lat="38.5158541" lon="16.3206143"><ele>944.2</ele><time>2026-04-12T09:56:04.531Z</time></trkpt><trkpt lat="38.5157573" lon="16.3205704"><ele>942.8</ele><time>2026-04-12T09:56:05.533Z</time></trkpt><trkpt lat="38.5156587" lon="16.3205203"><ele>941.4</ele><time>2026-04-12T09:56:06.529Z</time></trkpt><trkpt lat="38.515561" lon="16.3204642"><ele>940.0</ele><time>2026-04-12T09:56:07.524Z</time></trkpt><trkpt lat="38.515473" lon="16.3204165"><ele>938.4</ele><time>2026-04-12T09:56:08.532Z</time></trkpt><trkpt lat="38.5153889" lon="16.3203721"><ele>936.8</ele><time>2026-04-12T09:56:09.532Z</time></trkpt><trkpt lat="38.5152929" lon="16.3203328"><ele>935.2</ele><time>2026-04-12T09:56:10.525Z</time></trkpt><trkpt lat="38.5152047" lon="16.320282"><ele>933.6</ele><time>2026-04-12T09:56:11.53Z</time></trkpt><trkpt lat="38.5151151" lon="16.3202282"><ele>932.0</ele><time>2026-04-12T09:56:12.535Z</time></trkpt><trkpt lat="38.5150279" lon="16.3201732"><ele>932.0</ele><time>2026-04-12T09:56:13.533Z</time></trkpt><trkpt lat="38.5148486" lon="16.320053"><ele>932.0</ele><time>2026-04-12T09:56:15.526Z</time></trkpt><trkpt lat="38.514764" lon="16.319989"><ele>932.0</ele><time>2026-04-12T09:56:16.531Z</time></trkpt><trkpt lat="38.5146771" lon="16.3199265"><ele>932.0</ele><time>2026-04-12T09:56:17.523Z</time></trkpt><trkpt lat="38.5145901" lon="16.3198668"><ele>930.8</ele><time>2026-04-12T09:56:18.536Z</time></trkpt><trkpt lat="38.5145052" lon="16.3198113"><ele>929.6</ele><time>2026-04-12T09:56:19.544Z</time></trkpt><trkpt lat="38.5144223" lon="16.3197545"><ele>928.3999999999999</ele><time>2026-04-12T09:56:20.539Z</time></trkpt><trkpt lat="38.5143367" lon="16.3197029"><ele>927.1999999999999</ele><time>2026-04-12T09:56:21.532Z</time></trkpt><trkpt lat="38.5142516" lon="16.319651"><ele>926.0</ele><time>2026-04-12T09:56:22.533Z</time></trkpt><trkpt lat="38.5141625" lon="16.3196006"><ele>926.0</ele><time>2026-04-12T09:56:23.524Z</time></trkpt><trkpt lat="38.5140797" lon="16.3195476"><ele>925.9999999999999</ele><time>2026-04-12T09:56:24.536Z</time></trkpt><trkpt lat="38.5139959" lon="16.3194882"><ele>925.9999999999999</ele><time>2026-04-12T09:56:25.533Z</time></trkpt><trkpt lat="38.5139104" lon="16.3194252"><ele>926.0</ele><time>2026-04-12T09:56:26.529Z</time></trkpt><trkpt lat="38.513825" lon="16.319367"><ele>926.0</ele><time>2026-04-12T09:56:27.537Z</time></trkpt><trkpt lat="38.5137514" lon="16.319308"><ele>924.5999999999999</ele><time>2026-04-12T09:56:28.54Z</time></trkpt><trkpt lat="38.5136915" lon="16.3192488"><ele>923.1999999999999</ele><time>2026-04-12T09:56:29.523Z</time></trkpt><trkpt lat="38.5136437" lon="16.3191829"><ele>921.8000000000001</ele><time>2026-04-12T09:56:30.532Z</time></trkpt><trkpt lat="38.5136203" lon="16.319106"><ele>920.4000000000001</ele><time>2026-04-12T09:56:31.534Z</time></trkpt><trkpt lat="38.5136264" lon="16.3189557"><ele>919.0</ele><time>2026-04-12T09:56:33.531Z</time></trkpt><trkpt lat="38.5136931" lon="16.3188202"><ele>919.0</ele><time>2026-04-12T09:56:35.528Z</time></trkpt><trkpt lat="38.5137799" lon="16.3186859"><ele>919.0000000000001</ele><time>2026-04-12T09:56:37.535Z</time></trkpt><trkpt lat="38.5138435" lon="16.3186006"><ele>919.0000000000001</ele><time>2026-04-12T09:56:38.533Z</time></trkpt><trkpt lat="38.5139123" lon="16.3185333"><ele>919.0</ele><time>2026-04-12T09:56:39.526Z</time></trkpt><trkpt lat="38.513985" lon="16.3184652"><ele>919.0</ele><time>2026-04-12T09:56:40.53Z</time></trkpt><trkpt lat="38.5140719" lon="16.3184111"><ele>919.0</ele><time>2026-04-12T09:56:41.533Z</time></trkpt><trkpt lat="38.5141665" lon="16.3183643"><ele>919.0000000000001</ele><time>2026-04-12T09:56:42.544Z</time></trkpt><trkpt lat="38.5142682" lon="16.3183201"><ele>919.0000000000001</ele><time>2026-04-12T09:56:43.544Z</time></trkpt><trkpt lat="38.5143766" lon="16.3182796"><ele>919.0</ele><time>2026-04-12T09:56:44.533Z</time></trkpt><trkpt lat="38.5144867" lon="16.3182428"><ele>919.0</ele><time>2026-04-12T09:56:45.54Z</time></trkpt><trkpt lat="38.5145996" lon="16.3182136"><ele>919.0</ele><time>2026-04-12T09:56:46.531Z</time></trkpt><trkpt lat="38.5147167" lon="16.3181972"><ele>919.0</ele><time>2026-04-12T09:56:47.533Z</time></trkpt><trkpt lat="38.5148339" lon="16.3181962"><ele>919.0</ele><time>2026-04-12T09:56:48.536Z</time></trkpt><trkpt lat="38.51495" lon="16.3182097"><ele>919.0</ele><time>2026-04-12T09:56:49.532Z</time></trkpt><trkpt lat="38.5150622" lon="16.3182436"><ele>919.0</ele><time>2026-04-12T09:56:50.527Z</time></trkpt><trkpt lat="38.515164" lon="16.3182995"><ele>919.0000000000001</ele><time>2026-04-12T09:56:51.529Z</time></trkpt><trkpt lat="38.515257" lon="16.3183762"><ele>919.0000000000001</ele><time>2026-04-12T09:56:52.529Z</time></trkpt><trkpt lat="38.515348" lon="16.3184531"><ele>919.0</ele><time>2026-04-12T09:56:53.541Z</time></trkpt><trkpt lat="38.515444" lon="16.3185052"><ele>919.0</ele><time>2026-04-12T09:56:54.524Z</time></trkpt><trkpt lat="38.5155457" lon="16.3185145"><ele>918.0</ele><time>2026-04-12T09:56:55.536Z</time></trkpt><trkpt lat="38.5156453" lon="16.3184809"><ele>917.0</ele><time>2026-04-12T09:56:56.53Z</time></trkpt><trkpt lat="38.5157855" lon="16.318302"><ele>916.0</ele><time>2026-04-12T09:56:58.536Z</time></trkpt><trkpt lat="38.5157992" lon="16.3181756"><ele>915.0</ele><time>2026-04-12T09:56:59.539Z</time></trkpt><trkpt lat="38.5157953" lon="16.3180399"><ele>914.8</ele><time>2026-04-12T09:57:00.527Z</time></trkpt><trkpt lat="38.5157578" lon="16.3179205"><ele>914.6</ele><time>2026-04-12T09:57:01.544Z</time></trkpt><trkpt lat="38.515707" lon="16.3177997"><ele>914.4000000000001</ele><time>2026-04-12T09:57:02.532Z</time></trkpt><trkpt lat="38.515646" lon="16.3176858"><ele>914.2</ele><time>2026-04-12T09:57:03.531Z</time></trkpt><trkpt lat="38.5155716" lon="16.317567"><ele>914.0</ele><time>2026-04-12T09:57:04.542Z</time></trkpt><trkpt lat="38.5154894" lon="16.3174521"><ele>913.25</ele><time>2026-04-12T09:57:05.543Z</time></trkpt><trkpt lat="38.5154005" lon="16.3173433"><ele>912.5</ele><time>2026-04-12T09:57:06.533Z</time></trkpt><trkpt lat="38.5153039" lon="16.3172324"><ele>911.75</ele><time>2026-04-12T09:57:07.534Z</time></trkpt><trkpt lat="38.5152" lon="16.3171208"><ele>911.0</ele><time>2026-04-12T09:57:08.533Z</time></trkpt><trkpt lat="38.5150926" lon="16.3170083"><ele>910.75</ele><time>2026-04-12T09:57:09.535Z</time></trkpt><trkpt lat="38.5149858" lon="16.3168964"><ele>910.5</ele><time>2026-04-12T09:57:10.523Z</time></trkpt><trkpt lat="38.5148847" lon="16.3167911"><ele>910.25</ele><time>2026-04-12T09:57:11.542Z</time></trkpt><trkpt lat="38.5147821" lon="16.3166856"><ele>910.0</ele><time>2026-04-12T09:57:12.531Z</time></trkpt><trkpt lat="38.5146799" lon="16.31658"><ele>910.0</ele><time>2026-04-12T09:57:13.533Z</time></trkpt><trkpt lat="38.5145895" lon="16.3164808"><ele>910.0</ele><time>2026-04-12T09:57:14.532Z</time></trkpt><trkpt lat="38.5145167" lon="16.3163852"><ele>910.0</ele><time>2026-04-12T09:57:15.542Z</time></trkpt><trkpt lat="38.5144676" lon="16.3162773"><ele>910.0</ele><time>2026-04-12T09:57:16.541Z</time></trkpt><trkpt lat="38.5144516" lon="16.316164"><ele>910.0</ele><time>2026-04-12T09:57:17.529Z</time></trkpt><trkpt lat="38.5144942" lon="16.315941"><ele>909.8</ele><time>2026-04-12T09:57:19.538Z</time></trkpt><trkpt lat="38.5145344" lon="16.3158257"><ele>909.6</ele><time>2026-04-12T09:57:20.529Z</time></trkpt><trkpt lat="38.5145738" lon="16.3157072"><ele>909.4000000000001</ele><time>2026-04-12T09:57:21.526Z</time></trkpt><trkpt lat="38.5146221" lon="16.3155854"><ele>909.2</ele><time>2026-04-12T09:57:22.531Z</time></trkpt><trkpt lat="38.5146671" lon="16.3154706"><ele>909.0</ele><time>2026-04-12T09:57:23.533Z</time></trkpt><trkpt lat="38.5147113" lon="16.315359"><ele>908.1666666666666</ele><time>2026-04-12T09:57:24.531Z</time></trkpt><trkpt lat="38.5147531" lon="16.3152491"><ele>907.3333333333333</ele><time>2026-04-12T09:57:25.524Z</time></trkpt><trkpt lat="38.5147822" lon="16.3151557"><ele>906.5</ele><time>2026-04-12T09:57:26.529Z</time></trkpt><trkpt lat="38.5147927" lon="16.3150622"><ele>905.6666666666666</ele><time>2026-04-12T09:57:27.535Z</time></trkpt><trkpt lat="38.5147819" lon="16.3149715"><ele>904.8333333333333</ele><time>2026-04-12T09:57:28.524Z</time></trkpt><trkpt lat="38.5147446" lon="16.3148931"><ele>904.0</ele><time>2026-04-12T09:57:29.527Z</time></trkpt><trkpt lat="38.51469" lon="16.3148254"><ele>903.9999999999999</ele><time>2026-04-12T09:57:30.52Z</time></trkpt><trkpt lat="38.5146296" lon="16.3147606"><ele>904.0</ele><time>2026-04-12T09:57:31.533Z</time></trkpt><trkpt lat="38.5145729" lon="16.3146956"><ele>904.0</ele><time>2026-04-12T09:57:32.532Z</time></trkpt><trkpt lat="38.514519" lon="16.3146367"><ele>904.0</ele><time>2026-04-12T09:57:33.537Z</time></trkpt><trkpt lat="38.5144469" lon="16.3145536"><ele>903.9999999999999</ele><time>2026-04-12T09:57:35.535Z</time></trkpt><trkpt lat="38.5144316" lon="16.3144417"><ele>904.0</ele><time>2026-04-12T09:57:37.537Z</time></trkpt><trkpt lat="38.5144692" lon="16.3143"><ele>904.2</ele><time>2026-04-12T09:57:39.534Z</time></trkpt><trkpt lat="38.5145481" lon="16.3140945"><ele>904.4000000000001</ele><time>2026-04-12T09:57:41.543Z</time></trkpt><trkpt lat="38.5145876" lon="16.3139843"><ele>904.6</ele><time>2026-04-12T09:57:42.532Z</time></trkpt><trkpt lat="38.5146121" lon="16.3138788"><ele>904.8</ele><time>2026-04-12T09:57:43.53Z</time></trkpt><trkpt lat="38.5146162" lon="16.3137744"><ele>905.0</ele><time>2026-04-12T09:57:44.533Z</time></trkpt><trkpt lat="38.5145965" lon="16.3136722"><ele>907.6</ele><time>2026-04-12T09:57:45.53Z</time></trkpt><trkpt lat="38.5145729" lon="16.313566"><ele>910.2</ele><time>2026-04-12T09:57:46.518Z</time></trkpt><trkpt lat="38.5145616" lon="16.3134633"><ele>912.8</ele><time>2026-04-12T09:57:47.535Z</time></trkpt><trkpt lat="38.5145504" lon="16.3133686"><ele>915.4</ele><time>2026-04-12T09:57:48.533Z</time></trkpt><trkpt lat="38.5146244" lon="16.3132458"><ele>918.0</ele><time>2026-04-12T09:57:50.525Z</time></trkpt><trkpt lat="38.5147033" lon="16.3132028"><ele>918.0</ele><time>2026-04-12T09:57:51.535Z</time></trkpt><trkpt lat="38.5147893" lon="16.3131695"><ele>918.0</ele><time>2026-04-12T09:57:52.531Z</time></trkpt><trkpt lat="38.5148748" lon="16.3131345"><ele>918.0</ele><time>2026-04-12T09:57:53.528Z</time></trkpt><trkpt lat="38.5149656" lon="16.3130902"><ele>918.0</ele><time>2026-04-12T09:57:54.531Z</time></trkpt><trkpt lat="38.5150552" lon="16.3130385"><ele>918.0</ele><time>2026-04-12T09:57:55.531Z</time></trkpt><trkpt lat="38.5151455" lon="16.3129856"><ele>918.4</ele><time>2026-04-12T09:57:56.538Z</time></trkpt><trkpt lat="38.5152368" lon="16.312932"><ele>918.8</ele><time>2026-04-12T09:57:57.531Z</time></trkpt><trkpt lat="38.515323" lon="16.3128472"><ele>919.2</ele><time>2026-04-12T09:57:58.517Z</time></trkpt><trkpt lat="38.5153874" lon="16.3127522"><ele>919.6</ele><time>2026-04-12T09:57:59.534Z</time></trkpt><trkpt lat="38.5154252" lon="16.3126425"><ele>920.0</ele><time>2026-04-12T09:58:00.531Z</time></trkpt><trkpt lat="38.5154754" lon="16.3123779"><ele>920.0</ele><time>2026-04-12T09:58:02.528Z</time></trkpt><trkpt lat="38.5154911" lon="16.31225"><ele>920.0</ele><time>2026-04-12T09:58:03.535Z</time></trkpt><trkpt lat="38.5155069" lon="16.3121224"><ele>920.0</ele><time>2026-04-12T09:58:04.529Z</time></trkpt><trkpt lat="38.5155213" lon="16.3120085"><ele>920.0</ele><time>2026-04-12T09:58:05.537Z</time></trkpt><trkpt lat="38.5155308" lon="16.3118938"><ele>920.0</ele><time>2026-04-12T09:58:06.53Z</time></trkpt><trkpt lat="38.5155245" lon="16.3117827"><ele>921.0</ele><time>2026-04-12T09:58:07.531Z</time></trkpt><trkpt lat="38.5154887" lon="16.3116852"><ele>922.0</ele><time>2026-04-12T09:58:08.523Z</time></trkpt><trkpt lat="38.515454" lon="16.3115878"><ele>923.0</ele><time>2026-04-12T09:58:09.552Z</time></trkpt><trkpt lat="38.5154046" lon="16.3114664"><ele>924.0</ele><time>2026-04-12T09:58:10.528Z</time></trkpt><trkpt lat="38.515343" lon="16.3113331"><ele>925.0</ele><time>2026-04-12T09:58:11.524Z</time></trkpt><trkpt lat="38.515266" lon="16.3111776"><ele>926.75</ele><time>2026-04-12T09:58:12.526Z</time></trkpt><trkpt lat="38.5151875" lon="16.3110253"><ele>928.5</ele><time>2026-04-12T09:58:13.536Z</time></trkpt><trkpt lat="38.5151034" lon="16.3108585"><ele>930.25</ele><time>2026-04-12T09:58:14.518Z</time></trkpt><trkpt lat="38.5150223" lon="16.3106981"><ele>932.0</ele><time>2026-04-12T09:58:15.533Z</time></trkpt><trkpt lat="38.514925" lon="16.3105295"><ele>932.0</ele><time>2026-04-12T09:58:16.525Z</time></trkpt><trkpt lat="38.5148293" lon="16.3103594"><ele>932.0</ele><time>2026-04-12T09:58:17.528Z</time></trkpt><trkpt lat="38.5147415" lon="16.3102056"><ele>932.0</ele><time>2026-04-12T09:58:18.532Z</time></trkpt><trkpt lat="38.5146561" lon="16.3100476"><ele>932.0</ele><time>2026-04-12T09:58:19.535Z</time></trkpt><trkpt lat="38.5145814" lon="16.3098994"><ele>932.0</ele><time>2026-04-12T09:58:20.525Z</time></trkpt><trkpt lat="38.5145156" lon="16.3097555"><ele>932.0</ele><time>2026-04-12T09:58:21.525Z</time></trkpt><trkpt lat="38.5144209" lon="16.3094013"><ele>933.5</ele><time>2026-04-12T09:58:23.525Z</time></trkpt><trkpt lat="38.514401" lon="16.3092282"><ele>935.0</ele><time>2026-04-12T09:58:24.521Z</time></trkpt><trkpt lat="38.5143975" lon="16.3090451"><ele>936.5</ele><time>2026-04-12T09:58:25.519Z</time></trkpt><trkpt lat="38.5143887" lon="16.3088637"><ele>938.0</ele><time>2026-04-12T09:58:26.525Z</time></trkpt><trkpt lat="38.5143736" lon="16.3087039"><ele>938.4</ele><time>2026-04-12T09:58:27.538Z</time></trkpt><trkpt lat="38.5143748" lon="16.3085693"><ele>938.8</ele><time>2026-04-12T09:58:28.527Z</time></trkpt><trkpt lat="38.5143873" lon="16.3084544"><ele>939.2</ele><time>2026-04-12T09:58:29.52Z</time></trkpt><trkpt lat="38.5144263" lon="16.308368"><ele>939.6</ele><time>2026-04-12T09:58:30.526Z</time></trkpt><trkpt lat="38.5144947" lon="16.3082876"><ele>940.0</ele><time>2026-04-12T09:58:31.526Z</time></trkpt><trkpt lat="38.5145684" lon="16.308207"><ele>940.0</ele><time>2026-04-12T09:58:32.518Z</time></trkpt><trkpt lat="38.5146524" lon="16.3081284"><ele>940.0</ele><time>2026-04-12T09:58:33.529Z</time></trkpt><trkpt lat="38.5147344" lon="16.3080379"><ele>940.0</ele><time>2026-04-12T09:58:34.525Z</time></trkpt><trkpt lat="38.5148114" lon="16.3079131"><ele>940.0</ele><time>2026-04-12T09:58:35.523Z</time></trkpt><trkpt lat="38.5148923" lon="16.3077853"><ele>940.0</ele><time>2026-04-12T09:58:36.523Z</time></trkpt><trkpt lat="38.5149713" lon="16.3076262"><ele>940.0</ele><time>2026-04-12T09:58:37.524Z</time></trkpt><trkpt lat="38.5150394" lon="16.3074724"><ele>940.0</ele><time>2026-04-12T09:58:38.528Z</time></trkpt><trkpt lat="38.5151172" lon="16.3073046"><ele>940.0</ele><time>2026-04-12T09:58:39.531Z</time></trkpt><trkpt lat="38.5152057" lon="16.3071032"><ele>941.3333333333333</ele><time>2026-04-12T09:58:40.528Z</time></trkpt><trkpt lat="38.5152923" lon="16.3069094"><ele>942.6666666666667</ele><time>2026-04-12T09:58:41.523Z</time></trkpt><trkpt lat="38.5153764" lon="16.3067185"><ele>944.0</ele><time>2026-04-12T09:58:42.526Z</time></trkpt><trkpt lat="38.5155384" lon="16.3063178"><ele>946.3333333333334</ele><time>2026-04-12T09:58:44.523Z</time></trkpt><trkpt lat="38.515627" lon="16.3061025"><ele>948.6666666666667</ele><time>2026-04-12T09:58:45.526Z</time></trkpt><trkpt lat="38.5157322" lon="16.3058982"><ele>951.0</ele><time>2026-04-12T09:58:46.535Z</time></trkpt><trkpt lat="38.5158345" lon="16.3056898"><ele>952.0</ele><time>2026-04-12T09:58:47.522Z</time></trkpt><trkpt lat="38.5159344" lon="16.3054972"><ele>953.0</ele><time>2026-04-12T09:58:48.531Z</time></trkpt><trkpt lat="38.5160352" lon="16.30531"><ele>954.0</ele><time>2026-04-12T09:58:49.532Z</time></trkpt><trkpt lat="38.5161356" lon="16.3051055"><ele>954.0</ele><time>2026-04-12T09:58:50.524Z</time></trkpt><trkpt lat="38.5162302" lon="16.3048962"><ele>954.0</ele><time>2026-04-12T09:58:51.529Z</time></trkpt><trkpt lat="38.5163529" lon="16.3046902"><ele>954.0</ele><time>2026-04-12T09:58:52.534Z</time></trkpt><trkpt lat="38.5164452" lon="16.3044893"><ele>957.0</ele><time>2026-04-12T09:58:53.525Z</time></trkpt><trkpt lat="38.5165322" lon="16.3042925"><ele>960.0</ele><time>2026-04-12T09:58:54.535Z</time></trkpt><trkpt lat="38.5166267" lon="16.3040829"><ele>963.0</ele><time>2026-04-12T09:58:55.526Z</time></trkpt><trkpt lat="38.5166955" lon="16.3038878"><ele>964.0</ele><time>2026-04-12T09:58:56.521Z</time></trkpt><trkpt lat="38.5167408" lon="16.3037112"><ele>965.0</ele><time>2026-04-12T09:58:57.527Z</time></trkpt><trkpt lat="38.5167631" lon="16.3035186"><ele>966.0</ele><time>2026-04-12T09:58:58.528Z</time></trkpt><trkpt lat="38.5167664" lon="16.3033252"><ele>967.0</ele><time>2026-04-12T09:58:59.523Z</time></trkpt><trkpt lat="38.516779" lon="16.3031435"><ele>967.75</ele><time>2026-04-12T09:59:00.529Z</time></trkpt><trkpt lat="38.5168028" lon="16.3029652"><ele>968.5</ele><time>2026-04-12T09:59:01.528Z</time></trkpt><trkpt lat="38.5168211" lon="16.3027961"><ele>969.25</ele><time>2026-04-12T09:59:02.525Z</time></trkpt><trkpt lat="38.5168578" lon="16.3026046"><ele>970.0</ele><time>2026-04-12T09:59:03.538Z</time></trkpt><trkpt lat="38.5169529" lon="16.30223"><ele>970.3333333333333</ele><time>2026-04-12T09:59:05.524Z</time></trkpt><trkpt lat="38.5170184" lon="16.3020458"><ele>970.6666666666667</ele><time>2026-04-12T09:59:06.532Z</time></trkpt><trkpt lat="38.5170803" lon="16.3018878"><ele>971.0</ele><time>2026-04-12T09:59:07.54Z</time></trkpt><trkpt lat="38.5171323" lon="16.3016939"><ele>971.0</ele><time>2026-04-12T09:59:08.532Z</time></trkpt><trkpt lat="38.5171538" lon="16.3015112"><ele>971.0</ele><time>2026-04-12T09:59:09.522Z</time></trkpt><trkpt lat="38.5171532" lon="16.3013134"><ele>971.0</ele><time>2026-04-12T09:59:10.533Z</time></trkpt><trkpt lat="38.5171211" lon="16.3011379"><ele>971.0</ele><time>2026-04-12T09:59:11.53Z</time></trkpt><trkpt lat="38.5170686" lon="16.300972"><ele>971.3333333333334</ele><time>2026-04-12T09:59:12.524Z</time></trkpt><trkpt lat="38.5169816" lon="16.300796"><ele>971.6666666666667</ele><time>2026-04-12T09:59:13.534Z</time></trkpt><trkpt lat="38.5168954" lon="16.3006128"><ele>972.0</ele><time>2026-04-12T09:59:14.529Z</time></trkpt><trkpt lat="38.5168239" lon="16.3004026"><ele>973.3333333333333</ele><time>2026-04-12T09:59:15.523Z</time></trkpt><trkpt lat="38.51674" lon="16.300206"><ele>974.6666666666666</ele><time>2026-04-12T09:59:16.528Z</time></trkpt><trkpt lat="38.5166159" lon="16.2999371"><ele>976.0</ele><time>2026-04-12T09:59:17.525Z</time></trkpt><trkpt lat="38.5165496" lon="16.2997529"><ele>978.0</ele><time>2026-04-12T09:59:18.526Z</time></trkpt><trkpt lat="38.5164982" lon="16.2995852"><ele>980.0</ele><time>2026-04-12T09:59:19.524Z</time></trkpt><trkpt lat="38.5164638" lon="16.2994352"><ele>982.0</ele><time>2026-04-12T09:59:20.529Z</time></trkpt><trkpt lat="38.5164525" lon="16.2992622"><ele>984.0</ele><time>2026-04-12T09:59:21.524Z</time></trkpt><trkpt lat="38.516452" lon="16.2991122"><ele>984.0</ele><time>2026-04-12T09:59:22.53Z</time></trkpt><trkpt lat="38.5165037" lon="16.2989577"><ele>984.0</ele><time>2026-04-12T09:59:23.54Z</time></trkpt><trkpt lat="38.5165406" lon="16.2987622"><ele>984.0</ele><time>2026-04-12T09:59:24.526Z</time></trkpt><trkpt lat="38.516576" lon="16.2983853"><ele>985.25</ele><time>2026-04-12T09:59:26.534Z</time></trkpt><trkpt lat="38.5165696" lon="16.2982091"><ele>986.5</ele><time>2026-04-12T09:59:27.536Z</time></trkpt><trkpt lat="38.5165238" lon="16.2980348"><ele>987.75</ele><time>2026-04-12T09:59:28.534Z</time></trkpt><trkpt lat="38.5164795" lon="16.29784"><ele>989.0</ele><time>2026-04-12T09:59:29.532Z</time></trkpt><trkpt lat="38.5164144" lon="16.2976125"><ele>990.25</ele><time>2026-04-12T09:59:30.534Z</time></trkpt><trkpt lat="38.5163654" lon="16.2974237"><ele>991.5</ele><time>2026-04-12T09:59:31.532Z</time></trkpt><trkpt lat="38.5163077" lon="16.2972852"><ele>992.75</ele><time>2026-04-12T09:59:32.523Z</time></trkpt><trkpt lat="38.5162089" lon="16.2971171"><ele>994.0</ele><time>2026-04-12T09:59:33.527Z</time></trkpt><trkpt lat="38.5161073" lon="16.2969611"><ele>998.6666666666666</ele><time>2026-04-12T09:59:34.542Z</time></trkpt><trkpt lat="38.5160014" lon="16.296801"><ele>1003.3333333333333</ele><time>2026-04-12T09:59:35.524Z</time></trkpt><trkpt lat="38.5158849" lon="16.2966473"><ele>1008.0</ele><time>2026-04-12T09:59:36.534Z</time></trkpt><trkpt lat="38.5157876" lon="16.2964772"><ele>1009.3333333333333</ele><time>2026-04-12T09:59:37.535Z</time></trkpt><trkpt lat="38.5156863" lon="16.2963075"><ele>1010.6666666666666</ele><time>2026-04-12T09:59:38.524Z</time></trkpt><trkpt lat="38.5155631" lon="16.2961108"><ele>1012.0</ele><time>2026-04-12T09:59:39.527Z</time></trkpt><trkpt lat="38.5154893" lon="16.2959228"><ele>1012.0</ele><time>2026-04-12T09:59:40.522Z</time></trkpt><trkpt lat="38.5154167" lon="16.2957101"><ele>1012.0</ele><time>2026-04-12T09:59:41.522Z</time></trkpt><trkpt lat="38.5153472" lon="16.295495"><ele>1012.0</ele><time>2026-04-12T09:59:42.522Z</time></trkpt><trkpt lat="38.5152922" lon="16.2952875"><ele>1017.3333333333333</ele><time>2026-04-12T09:59:43.52Z</time></trkpt><trkpt lat="38.51522" lon="16.2951354"><ele>1022.6666666666667</ele><time>2026-04-12T09:59:44.525Z</time></trkpt><trkpt lat="38.5151558" lon="16.2949889"><ele>1028.0</ele><time>2026-04-12T09:59:45.521Z</time></trkpt><trkpt lat="38.5149618" lon="16.29473"><ele>1029.25</ele><time>2026-04-12T09:59:47.535Z</time></trkpt><trkpt lat="38.5148433" lon="16.2946508"><ele>1030.5</ele><time>2026-04-12T09:59:48.525Z</time></trkpt><trkpt lat="38.5147324" lon="16.2945695"><ele>1031.75</ele><time>2026-04-12T09:59:49.52Z</time></trkpt><trkpt lat="38.5146484" lon="16.2944699"><ele>1033.0</ele><time>2026-04-12T09:59:50.528Z</time></trkpt><trkpt lat="38.5146031" lon="16.294357"><ele>1033.0</ele><time>2026-04-12T09:59:51.533Z</time></trkpt><trkpt lat="38.5145897" lon="16.2942033"><ele>1033.0</ele><time>2026-04-12T09:59:52.53Z</time></trkpt><trkpt lat="38.5146317" lon="16.2940803"><ele>1033.0</ele><time>2026-04-12T09:59:53.526Z</time></trkpt><trkpt lat="38.5146378" lon="16.2939248"><ele>1033.0</ele><time>2026-04-12T09:59:54.537Z</time></trkpt><trkpt lat="38.5145972" lon="16.2937671"><ele>1037.4</ele><time>2026-04-12T09:59:55.528Z</time></trkpt><trkpt lat="38.5145465" lon="16.2936665"><ele>1041.8</ele><time>2026-04-12T09:59:56.525Z</time></trkpt><trkpt lat="38.5144393" lon="16.2935832"><ele>1046.2</ele><time>2026-04-12T09:59:57.53Z</time></trkpt><trkpt lat="38.5143407" lon="16.2935523"><ele>1050.6</ele><time>2026-04-12T09:59:58.524Z</time></trkpt><trkpt lat="38.5142255" lon="16.293619"><ele>1055.0</ele><time>2026-04-12T09:59:59.523Z</time></trkpt><trkpt lat="38.5141344" lon="16.2937033"><ele>1055.0</ele><time>2026-04-12T10:00:00.529Z</time></trkpt><trkpt lat="38.5140237" lon="16.2938246"><ele>1055.0</ele><time>2026-04-12T10:00:01.523Z</time></trkpt><trkpt lat="38.5138851" lon="16.293836"><ele>1055.0</ele><time>2026-04-12T10:00:02.516Z</time></trkpt><trkpt lat="38.5136928" lon="16.2938783"><ele>1054.6666666666667</ele><time>2026-04-12T10:00:03.522Z</time></trkpt><trkpt lat="38.5135" lon="16.2939044"><ele>1054.3333333333333</ele><time>2026-04-12T10:00:04.529Z</time></trkpt><trkpt lat="38.5133456" lon="16.2939712"><ele>1054.0</ele><time>2026-04-12T10:00:05.524Z</time></trkpt><trkpt lat="38.5131925" lon="16.2939968"><ele>1052.0</ele><time>2026-04-12T10:00:06.525Z</time></trkpt><trkpt lat="38.5128944" lon="16.2939356"><ele>1050.0</ele><time>2026-04-12T10:00:08.524Z</time></trkpt><trkpt lat="38.5128052" lon="16.2939441"><ele>1048.0</ele><time>2026-04-12T10:00:09.533Z</time></trkpt><trkpt lat="38.5127414" lon="16.2939245"><ele>1049.4</ele><time>2026-04-12T10:00:10.53Z</time></trkpt><trkpt lat="38.512691" lon="16.2938226"><ele>1050.8</ele><time>2026-04-12T10:00:11.523Z</time></trkpt><trkpt lat="38.5126485" lon="16.2936889"><ele>1052.2</ele><time>2026-04-12T10:00:13.537Z</time></trkpt><trkpt lat="38.5126368" lon="16.293585"><ele>1053.6</ele><time>2026-04-12T10:00:14.519Z</time></trkpt><trkpt lat="38.5126173" lon="16.293422"><ele>1055.0</ele><time>2026-04-12T10:00:15.533Z</time></trkpt><trkpt lat="38.5126127" lon="16.2932824"><ele>1057.3333333333335</ele><time>2026-04-12T10:00:16.52Z</time></trkpt><trkpt lat="38.5125866" lon="16.2930537"><ele>1059.6666666666667</ele><time>2026-04-12T10:00:17.519Z</time></trkpt><trkpt lat="38.5125696" lon="16.2928821"><ele>1062.0</ele><time>2026-04-12T10:00:18.525Z</time></trkpt><trkpt lat="38.5125845" lon="16.2923943"><ele>1062.0</ele><time>2026-04-12T10:00:19.535Z</time></trkpt><trkpt lat="38.5125771" lon="16.2920333"><ele>1062.0</ele><time>2026-04-12T10:00:20.524Z</time></trkpt><trkpt lat="38.5125407" lon="16.2917397"><ele>1062.0</ele><time>2026-04-12T10:00:21.526Z</time></trkpt><trkpt lat="38.5125222" lon="16.2914663"><ele>1062.0</ele><time>2026-04-12T10:00:22.535Z</time></trkpt><trkpt lat="38.5125" lon="16.2911937"><ele>1062.0</ele><time>2026-04-12T10:00:23.537Z</time></trkpt><trkpt lat="38.5124201" lon="16.2909465"><ele>1062.6666666666667</ele><time>2026-04-12T10:00:24.526Z</time></trkpt><trkpt lat="38.5123327" lon="16.2907049"><ele>1063.3333333333335</ele><time>2026-04-12T10:00:25.532Z</time></trkpt><trkpt lat="38.5122465" lon="16.2904779"><ele>1064.0</ele><time>2026-04-12T10:00:26.536Z</time></trkpt><trkpt lat="38.5121779" lon="16.290272"><ele>1063.0</ele><time>2026-04-12T10:00:27.528Z</time></trkpt><trkpt lat="38.5119928" lon="16.2898597"><ele>1062.0</ele><time>2026-04-12T10:00:29.531Z</time></trkpt><trkpt lat="38.5118974" lon="16.2896512"><ele>1064.0</ele><time>2026-04-12T10:00:30.533Z</time></trkpt><trkpt lat="38.5117906" lon="16.2894403"><ele>1066.0</ele><time>2026-04-12T10:00:31.535Z</time></trkpt><trkpt lat="38.5116913" lon="16.2892414"><ele>1068.0</ele><time>2026-04-12T10:00:32.534Z</time></trkpt><trkpt lat="38.5115959" lon="16.2890501"><ele>1068.0</ele><time>2026-04-12T10:00:33.529Z</time></trkpt><trkpt lat="38.5115009" lon="16.2888658"><ele>1068.0</ele><time>2026-04-12T10:00:34.531Z</time></trkpt><trkpt lat="38.5114135" lon="16.2886891"><ele>1068.0</ele><time>2026-04-12T10:00:35.527Z</time></trkpt><trkpt lat="38.5113336" lon="16.2885268"><ele>1068.0</ele><time>2026-04-12T10:00:36.529Z</time></trkpt><trkpt lat="38.511254" lon="16.2883799"><ele>1068.0</ele><time>2026-04-12T10:00:37.523Z</time></trkpt><trkpt lat="38.511174" lon="16.2882417"><ele>1068.0</ele><time>2026-04-12T10:00:38.531Z</time></trkpt><trkpt lat="38.5110953" lon="16.2881155"><ele>1068.0</ele><time>2026-04-12T10:00:39.525Z</time></trkpt><trkpt lat="38.5110151" lon="16.2880054"><ele>1073.75</ele><time>2026-04-12T10:00:40.534Z</time></trkpt><trkpt lat="38.5109192" lon="16.2879065"><ele>1079.5</ele><time>2026-04-12T10:00:41.528Z</time></trkpt><trkpt lat="38.5108169" lon="16.287825"><ele>1085.25</ele><time>2026-04-12T10:00:42.533Z</time></trkpt><trkpt lat="38.5106949" lon="16.2877508"><ele>1091.0</ele><time>2026-04-12T10:00:43.528Z</time></trkpt><trkpt lat="38.5105864" lon="16.2877079"><ele>1091.0</ele><time>2026-04-12T10:00:44.541Z</time></trkpt><trkpt lat="38.5104807" lon="16.2876634"><ele>1091.0</ele><time>2026-04-12T10:00:45.532Z</time></trkpt><trkpt lat="38.5103998" lon="16.2875917"><ele>1091.0</ele><time>2026-04-12T10:00:46.538Z</time></trkpt><trkpt lat="38.5103592" lon="16.2874643"><ele>1091.0</ele><time>2026-04-12T10:00:47.528Z</time></trkpt><trkpt lat="38.510338" lon="16.2873219"><ele>1091.0</ele><time>2026-04-12T10:00:48.533Z</time></trkpt><trkpt lat="38.5103641" lon="16.2869894"><ele>1091.0</ele><time>2026-04-12T10:00:50.533Z</time></trkpt><trkpt lat="38.5103833" lon="16.2867993"><ele>1091.0</ele><time>2026-04-12T10:00:51.53Z</time></trkpt><trkpt lat="38.5104131" lon="16.2866048"><ele>1091.0</ele><time>2026-04-12T10:00:52.533Z</time></trkpt><trkpt lat="38.5104367" lon="16.2864057"><ele>1088.3333333333335</ele><time>2026-04-12T10:00:53.532Z</time></trkpt><trkpt lat="38.5104626" lon="16.2862144"><ele>1085.6666666666667</ele><time>2026-04-12T10:00:54.538Z</time></trkpt><trkpt lat="38.5104802" lon="16.2860204"><ele>1083.0</ele><time>2026-04-12T10:00:55.525Z</time></trkpt><trkpt lat="38.5104924" lon="16.2858304"><ele>1083.0</ele><time>2026-04-12T10:00:56.534Z</time></trkpt><trkpt lat="38.5104859" lon="16.285634"><ele>1083.0</ele><time>2026-04-12T10:00:57.536Z</time></trkpt><trkpt lat="38.5104684" lon="16.2854273"><ele>1083.0</ele><time>2026-04-12T10:00:58.527Z</time></trkpt><trkpt lat="38.5104647" lon="16.2852319"><ele>1082.0</ele><time>2026-04-12T10:00:59.535Z</time></trkpt><trkpt lat="38.5104425" lon="16.2850389"><ele>1081.0</ele><time>2026-04-12T10:01:00.531Z</time></trkpt><trkpt lat="38.5104244" lon="16.2848441"><ele>1080.0</ele><time>2026-04-12T10:01:01.526Z</time></trkpt><trkpt lat="38.5104123" lon="16.2846523"><ele>1081.3333333333333</ele><time>2026-04-12T10:01:02.526Z</time></trkpt><trkpt lat="38.5103916" lon="16.2844541"><ele>1082.6666666666665</ele><time>2026-04-12T10:01:03.528Z</time></trkpt><trkpt lat="38.5103801" lon="16.2842642"><ele>1084.0</ele><time>2026-04-12T10:01:04.527Z</time></trkpt><trkpt lat="38.5103585" lon="16.284074"><ele>1085.0</ele><time>2026-04-12T10:01:05.536Z</time></trkpt><trkpt lat="38.5103327" lon="16.2838933"><ele>1086.0</ele><time>2026-04-12T10:01:06.526Z</time></trkpt><trkpt lat="38.5102932" lon="16.2837008"><ele>1087.0</ele><time>2026-04-12T10:01:07.534Z</time></trkpt><trkpt lat="38.5102456" lon="16.2835233"><ele>1088.0</ele><time>2026-04-12T10:01:08.528Z</time></trkpt><trkpt lat="38.5101903" lon="16.2833436"><ele>1086.5</ele><time>2026-04-12T10:01:09.535Z</time></trkpt><trkpt lat="38.5100908" lon="16.2829755"><ele>1085.0</ele><time>2026-04-12T10:01:11.532Z</time></trkpt><trkpt lat="38.5100436" lon="16.2827864"><ele>1085.0</ele><time>2026-04-12T10:01:12.529Z</time></trkpt><trkpt lat="38.5099941" lon="16.2826026"><ele>1085.0</ele><time>2026-04-12T10:01:13.525Z</time></trkpt><trkpt lat="38.5099437" lon="16.2824297"><ele>1085.0</ele><time>2026-04-12T10:01:14.534Z</time></trkpt><trkpt lat="38.5098972" lon="16.2822752"><ele>1085.0</ele><time>2026-04-12T10:01:15.52Z</time></trkpt><trkpt lat="38.5098551" lon="16.2821308"><ele>1085.2</ele><time>2026-04-12T10:01:16.531Z</time></trkpt><trkpt lat="38.5098125" lon="16.281993"><ele>1085.4</ele><time>2026-04-12T10:01:17.53Z</time></trkpt><trkpt lat="38.5097773" lon="16.281865"><ele>1085.6</ele><time>2026-04-12T10:01:18.524Z</time></trkpt><trkpt lat="38.5097433" lon="16.2817407"><ele>1085.8</ele><time>2026-04-12T10:01:19.523Z</time></trkpt><trkpt lat="38.5097143" lon="16.2816188"><ele>1086.0</ele><time>2026-04-12T10:01:20.53Z</time></trkpt><trkpt lat="38.5096935" lon="16.2815114"><ele>1086.6</ele><time>2026-04-12T10:01:21.522Z</time></trkpt><trkpt lat="38.5096701" lon="16.2814013"><ele>1087.1999999999998</ele><time>2026-04-12T10:01:22.528Z</time></trkpt><trkpt lat="38.5096545" lon="16.2813022"><ele>1087.8000000000002</ele><time>2026-04-12T10:01:23.531Z</time></trkpt><trkpt lat="38.5096184" lon="16.281163"><ele>1088.4</ele><time>2026-04-12T10:01:25.532Z</time></trkpt><trkpt lat="38.5095741" lon="16.2810265"><ele>1089.0</ele><time>2026-04-12T10:01:27.523Z</time></trkpt><trkpt lat="38.5095475" lon="16.2809507"><ele>1088.8333333333333</ele><time>2026-04-12T10:01:28.542Z</time></trkpt><trkpt lat="38.5095205" lon="16.2808776"><ele>1088.6666666666667</ele><time>2026-04-12T10:01:29.531Z</time></trkpt><trkpt lat="38.5094916" lon="16.2808013"><ele>1088.5</ele><time>2026-04-12T10:01:30.532Z</time></trkpt><trkpt lat="38.5094278" lon="16.2806539"><ele>1088.3333333333335</ele><time>2026-04-12T10:01:32.525Z</time></trkpt><trkpt lat="38.5093969" lon="16.2805784"><ele>1088.1666666666667</ele><time>2026-04-12T10:01:33.523Z</time></trkpt><trkpt lat="38.5093677" lon="16.2805021"><ele>1088.0</ele><time>2026-04-12T10:01:34.541Z</time></trkpt><trkpt lat="38.5093367" lon="16.2804221"><ele>1088.0</ele><time>2026-04-12T10:01:35.53Z</time></trkpt><trkpt lat="38.509301" lon="16.2803337"><ele>1088.0</ele><time>2026-04-12T10:01:36.53Z</time></trkpt><trkpt lat="38.5092593" lon="16.2802425"><ele>1088.0</ele><time>2026-04-12T10:01:37.537Z</time></trkpt><trkpt lat="38.5092123" lon="16.2801493"><ele>1088.0</ele><time>2026-04-12T10:01:38.54Z</time></trkpt><trkpt lat="38.5091648" lon="16.2800521"><ele>1088.0</ele><time>2026-04-12T10:01:39.522Z</time></trkpt><trkpt lat="38.509123" lon="16.2799614"><ele>1088.0</ele><time>2026-04-12T10:01:40.533Z</time></trkpt><trkpt lat="38.5090878" lon="16.2798794"><ele>1088.0</ele><time>2026-04-12T10:01:41.533Z</time></trkpt><trkpt lat="38.5090616" lon="16.2798038"><ele>1088.0</ele><time>2026-04-12T10:01:42.529Z</time></trkpt><trkpt lat="38.5090136" lon="16.2796886"><ele>1088.0</ele><time>2026-04-12T10:01:44.543Z</time></trkpt><trkpt lat="38.5089727" lon="16.2795964"><ele>1088.0</ele><time>2026-04-12T10:01:46.569Z</time></trkpt><trkpt lat="38.5089269" lon="16.2794651"><ele>1088.0</ele><time>2026-04-12T10:01:48.523Z</time></trkpt><trkpt lat="38.5089014" lon="16.2793752"><ele>1088.0</ele><time>2026-04-12T10:01:49.545Z</time></trkpt><trkpt lat="38.5088726" lon="16.2792721"><ele>1088.75</ele><time>2026-04-12T10:01:50.532Z</time></trkpt><trkpt lat="38.5088399" lon="16.2791613"><ele>1089.5</ele><time>2026-04-12T10:01:51.524Z</time></trkpt><trkpt lat="38.5087881" lon="16.2789242"><ele>1090.25</ele><time>2026-04-12T10:01:53.524Z</time></trkpt><trkpt lat="38.5087742" lon="16.2787935"><ele>1091.0</ele><time>2026-04-12T10:01:54.527Z</time></trkpt><trkpt lat="38.5087638" lon="16.2786667"><ele>1092.75</ele><time>2026-04-12T10:01:55.53Z</time></trkpt><trkpt lat="38.5087588" lon="16.2785255"><ele>1094.5</ele><time>2026-04-12T10:01:56.532Z</time></trkpt><trkpt lat="38.5087639" lon="16.2783728"><ele>1096.25</ele><time>2026-04-12T10:01:57.525Z</time></trkpt><trkpt lat="38.5087695" lon="16.2781972"><ele>1098.0</ele><time>2026-04-12T10:01:58.536Z</time></trkpt><trkpt lat="38.5087692" lon="16.2780377"><ele>1099.5</ele><time>2026-04-12T10:01:59.525Z</time></trkpt><trkpt lat="38.5087769" lon="16.2778865"><ele>1101.0</ele><time>2026-04-12T10:02:00.529Z</time></trkpt><trkpt lat="38.5087828" lon="16.2777241"><ele>1102.5</ele><time>2026-04-12T10:02:01.521Z</time></trkpt><trkpt lat="38.5087923" lon="16.2775702"><ele>1104.0</ele><time>2026-04-12T10:02:02.528Z</time></trkpt><trkpt lat="38.5088122" lon="16.2774241"><ele>1105.0</ele><time>2026-04-12T10:02:03.531Z</time></trkpt><trkpt lat="38.5088375" lon="16.2772541"><ele>1106.0</ele><time>2026-04-12T10:02:04.526Z</time></trkpt><trkpt lat="38.5088529" lon="16.2770791"><ele>1107.0</ele><time>2026-04-12T10:02:05.531Z</time></trkpt><trkpt lat="38.5088777" lon="16.2769003"><ele>1108.0</ele><time>2026-04-12T10:02:06.533Z</time></trkpt><trkpt lat="38.5089104" lon="16.2767151"><ele>1108.0</ele><time>2026-04-12T10:02:07.533Z</time></trkpt><trkpt lat="38.508956" lon="16.2765196"><ele>1108.0</ele><time>2026-04-12T10:02:08.531Z</time></trkpt><trkpt lat="38.5090016" lon="16.2763093"><ele>1108.0</ele><time>2026-04-12T10:02:09.527Z</time></trkpt><trkpt lat="38.5090424" lon="16.2761109"><ele>1109.0</ele><time>2026-04-12T10:02:10.516Z</time></trkpt><trkpt lat="38.5090938" lon="16.275925"><ele>1110.0</ele><time>2026-04-12T10:02:11.526Z</time></trkpt><trkpt lat="38.5091349" lon="16.2757565"><ele>1111.0</ele><time>2026-04-12T10:02:12.528Z</time></trkpt><trkpt lat="38.5091892" lon="16.2754819"><ele>1111.3999999999999</ele><time>2026-04-12T10:02:14.524Z</time></trkpt><trkpt lat="38.5091733" lon="16.2753387"><ele>1111.8</ele><time>2026-04-12T10:02:15.54Z</time></trkpt><trkpt lat="38.5091219" lon="16.2752279"><ele>1112.1999999999998</ele><time>2026-04-12T10:02:16.536Z</time></trkpt><trkpt lat="38.5090629" lon="16.2751469"><ele>1112.6</ele><time>2026-04-12T10:02:17.532Z</time></trkpt><trkpt lat="38.5089947" lon="16.2750636"><ele>1113.0</ele><time>2026-04-12T10:02:18.541Z</time></trkpt><trkpt lat="38.5088603" lon="16.275018"><ele>1115.5</ele><time>2026-04-12T10:02:19.543Z</time></trkpt><trkpt lat="38.508724" lon="16.2749845"><ele>1118.0</ele><time>2026-04-12T10:02:20.532Z</time></trkpt><trkpt lat="38.5085885" lon="16.2749123"><ele>1120.5</ele><time>2026-04-12T10:02:21.544Z</time></trkpt><trkpt lat="38.5084478" lon="16.2748415"><ele>1123.0</ele><time>2026-04-12T10:02:22.535Z</time></trkpt><trkpt lat="38.5082965" lon="16.2747591"><ele>1123.0</ele><time>2026-04-12T10:02:23.54Z</time></trkpt><trkpt lat="38.5081433" lon="16.2746804"><ele>1123.0</ele><time>2026-04-12T10:02:24.538Z</time></trkpt><trkpt lat="38.5079805" lon="16.2745788"><ele>1123.0</ele><time>2026-04-12T10:02:25.54Z</time></trkpt><trkpt lat="38.5078265" lon="16.2744556"><ele>1125.3333333333333</ele><time>2026-04-12T10:02:26.528Z</time></trkpt><trkpt lat="38.5076878" lon="16.2743382"><ele>1127.6666666666667</ele><time>2026-04-12T10:02:27.533Z</time></trkpt><trkpt lat="38.5075782" lon="16.2741977"><ele>1130.0</ele><time>2026-04-12T10:02:28.533Z</time></trkpt><trkpt lat="38.5074971" lon="16.2740302"><ele>1130.6666666666667</ele><time>2026-04-12T10:02:29.528Z</time></trkpt><trkpt lat="38.5074188" lon="16.2738669"><ele>1131.3333333333333</ele><time>2026-04-12T10:02:30.529Z</time></trkpt><trkpt lat="38.5073281" lon="16.2736934"><ele>1132.0</ele><time>2026-04-12T10:02:31.53Z</time></trkpt><trkpt lat="38.5072274" lon="16.2735579"><ele>1132.0</ele><time>2026-04-12T10:02:32.534Z</time></trkpt><trkpt lat="38.5070921" lon="16.2734825"><ele>1132.0</ele><time>2026-04-12T10:02:33.526Z</time></trkpt><trkpt lat="38.5068403" lon="16.2734277"><ele>1132.0</ele><time>2026-04-12T10:02:35.531Z</time></trkpt><trkpt lat="38.5067037" lon="16.273422"><ele>1131.5</ele><time>2026-04-12T10:02:36.536Z</time></trkpt><trkpt lat="38.5065637" lon="16.2734075"><ele>1131.0</ele><time>2026-04-12T10:02:37.53Z</time></trkpt><trkpt lat="38.5064211" lon="16.273388"><ele>1130.5</ele><time>2026-04-12T10:02:38.53Z</time></trkpt><trkpt lat="38.5062913" lon="16.2733347"><ele>1130.0</ele><time>2026-04-12T10:02:39.55Z</time></trkpt><trkpt lat="38.5061865" lon="16.2732575"><ele>1130.0</ele><time>2026-04-12T10:02:40.524Z</time></trkpt><trkpt lat="38.5060933" lon="16.2731944"><ele>1130.0</ele><time>2026-04-12T10:02:41.522Z</time></trkpt><trkpt lat="38.5060495" lon="16.2731338"><ele>1130.0</ele><time>2026-04-12T10:02:42.526Z</time></trkpt><trkpt lat="38.5059989" lon="16.2730366"><ele>1130.0</ele><time>2026-04-12T10:02:44.524Z</time></trkpt><trkpt lat="38.5059076" lon="16.2729988"><ele>1130.0</ele><time>2026-04-12T10:02:46.529Z</time></trkpt><trkpt lat="38.5058442" lon="16.2730019"><ele>1130.0</ele><time>2026-04-12T10:02:47.535Z</time></trkpt><trkpt lat="38.505765" lon="16.273033"><ele>1130.0</ele><time>2026-04-12T10:02:49.55Z</time></trkpt><trkpt lat="38.505702" lon="16.2730801"><ele>1130.0</ele><time>2026-04-12T10:02:51.542Z</time></trkpt><trkpt lat="38.5056383" lon="16.273135"><ele>1130.0</ele><time>2026-04-12T10:02:53.533Z</time></trkpt><trkpt lat="38.5055762" lon="16.2732158"><ele>1130.0</ele><time>2026-04-12T10:02:55.547Z</time></trkpt><trkpt lat="38.5053948" lon="16.2733778"><ele>1128.1666666666667</ele><time>2026-04-12T10:02:59.529Z</time></trkpt><trkpt lat="38.5052772" lon="16.2734213"><ele>1126.3333333333335</ele><time>2026-04-12T10:03:01.541Z</time></trkpt><trkpt lat="38.5052106" lon="16.2734363"><ele>1124.5</ele><time>2026-04-12T10:03:02.525Z</time></trkpt><trkpt lat="38.5051436" lon="16.2734452"><ele>1122.6666666666667</ele><time>2026-04-12T10:03:03.537Z</time></trkpt><trkpt lat="38.505074" lon="16.2734602"><ele>1120.8333333333333</ele><time>2026-04-12T10:03:04.535Z</time></trkpt><trkpt lat="38.5049652" lon="16.2734781"><ele>1119.0</ele><time>2026-04-12T10:03:06.538Z</time></trkpt><trkpt lat="38.504846" lon="16.2734991"><ele>1119.0</ele><time>2026-04-12T10:03:08.523Z</time></trkpt><trkpt lat="38.5047675" lon="16.273521"><ele>1119.0</ele><time>2026-04-12T10:03:09.535Z</time></trkpt><trkpt lat="38.5046583" lon="16.2735637"><ele>1119.0</ele><time>2026-04-12T10:03:10.53Z</time></trkpt><trkpt lat="38.5045605" lon="16.2735978"><ele>1119.0</ele><time>2026-04-12T10:03:11.535Z</time></trkpt><trkpt lat="38.5044739" lon="16.2736429"><ele>1119.0</ele><time>2026-04-12T10:03:12.53Z</time></trkpt><trkpt lat="38.5043969" lon="16.273672"><ele>1116.75</ele><time>2026-04-12T10:03:13.544Z</time></trkpt><trkpt lat="38.5043052" lon="16.273707"><ele>1114.5</ele><time>2026-04-12T10:03:14.54Z</time></trkpt><trkpt lat="38.5042306" lon="16.2737594"><ele>1112.25</ele><time>2026-04-12T10:03:15.543Z</time></trkpt><trkpt lat="38.5041593" lon="16.2738135"><ele>1110.0</ele><time>2026-04-12T10:03:16.533Z</time></trkpt><trkpt lat="38.5040374" lon="16.2740326"><ele>1110.0</ele><time>2026-04-12T10:03:19.534Z</time></trkpt><trkpt lat="38.5039922" lon="16.2741343"><ele>1110.0</ele><time>2026-04-12T10:03:20.537Z</time></trkpt><trkpt lat="38.5039502" lon="16.2742432"><ele>1110.0</ele><time>2026-04-12T10:03:21.534Z</time></trkpt><trkpt lat="38.503908" lon="16.2743458"><ele>1110.0</ele><time>2026-04-12T10:03:22.534Z</time></trkpt><trkpt lat="38.5038664" lon="16.2744695"><ele>1110.0</ele><time>2026-04-12T10:03:23.542Z</time></trkpt><trkpt lat="38.5038154" lon="16.2745679"><ele>1110.0</ele><time>2026-04-12T10:03:24.527Z</time></trkpt><trkpt lat="38.5037858" lon="16.2746834"><ele>1110.0</ele><time>2026-04-12T10:03:25.544Z</time></trkpt><trkpt lat="38.5037582" lon="16.2748069"><ele>1110.0</ele><time>2026-04-12T10:03:26.534Z</time></trkpt><trkpt lat="38.5036978" lon="16.2749045"><ele>1110.0</ele><time>2026-04-12T10:03:27.538Z</time></trkpt><trkpt lat="38.5036248" lon="16.2749898"><ele>1110.0</ele><time>2026-04-12T10:03:28.533Z</time></trkpt><trkpt lat="38.503565" lon="16.2750651"><ele>1105.5</ele><time>2026-04-12T10:03:29.535Z</time></trkpt><trkpt lat="38.5034753" lon="16.2751148"><ele>1101.0</ele><time>2026-04-12T10:03:30.536Z</time></trkpt><trkpt lat="38.503368" lon="16.2751442"><ele>1096.5</ele><time>2026-04-12T10:03:31.541Z</time></trkpt><trkpt lat="38.5032467" lon="16.2751443"><ele>1092.0</ele><time>2026-04-12T10:03:32.533Z</time></trkpt><trkpt lat="38.503106" lon="16.2751641"><ele>1092.0</ele><time>2026-04-12T10:03:33.528Z</time></trkpt><trkpt lat="38.502966" lon="16.2751593"><ele>1092.0</ele><time>2026-04-12T10:03:34.532Z</time></trkpt><trkpt lat="38.502833" lon="16.2751732"><ele>1092.0</ele><time>2026-04-12T10:03:35.534Z</time></trkpt><trkpt lat="38.5027006" lon="16.2751795"><ele>1092.0</ele><time>2026-04-12T10:03:36.524Z</time></trkpt><trkpt lat="38.5025666" lon="16.2751883"><ele>1089.3333333333333</ele><time>2026-04-12T10:03:37.535Z</time></trkpt><trkpt lat="38.5023014" lon="16.2751961"><ele>1086.6666666666665</ele><time>2026-04-12T10:03:39.527Z</time></trkpt><trkpt lat="38.5021726" lon="16.2751963"><ele>1084.0</ele><time>2026-04-12T10:03:40.529Z</time></trkpt><trkpt lat="38.5020437" lon="16.2751942"><ele>1083.0</ele><time>2026-04-12T10:03:41.526Z</time></trkpt><trkpt lat="38.5019175" lon="16.2751882"><ele>1082.0</ele><time>2026-04-12T10:03:42.527Z</time></trkpt><trkpt lat="38.5017932" lon="16.275184"><ele>1081.0</ele><time>2026-04-12T10:03:43.522Z</time></trkpt><trkpt lat="38.5016737" lon="16.2751782"><ele>1080.0</ele><time>2026-04-12T10:03:44.53Z</time></trkpt><trkpt lat="38.5015564" lon="16.2751758"><ele>1080.0</ele><time>2026-04-12T10:03:45.531Z</time></trkpt><trkpt lat="38.5014425" lon="16.2751729"><ele>1080.0</ele><time>2026-04-12T10:03:46.527Z</time></trkpt><trkpt lat="38.5013317" lon="16.2751737"><ele>1080.0</ele><time>2026-04-12T10:03:47.536Z</time></trkpt><trkpt lat="38.5012224" lon="16.2751754"><ele>1080.0</ele><time>2026-04-12T10:03:48.529Z</time></trkpt><trkpt lat="38.5011061" lon="16.2751759"><ele>1081.0</ele><time>2026-04-12T10:03:49.529Z</time></trkpt><trkpt lat="38.5009809" lon="16.2751766"><ele>1082.0</ele><time>2026-04-12T10:03:50.527Z</time></trkpt><trkpt lat="38.5008492" lon="16.2751835"><ele>1083.0</ele><time>2026-04-12T10:03:51.537Z</time></trkpt><trkpt lat="38.500716" lon="16.2752013"><ele>1084.0</ele><time>2026-04-12T10:03:52.518Z</time></trkpt><trkpt lat="38.5005838" lon="16.2752176"><ele>1084.0</ele><time>2026-04-12T10:03:53.533Z</time></trkpt><trkpt lat="38.5004483" lon="16.2752577"><ele>1084.0</ele><time>2026-04-12T10:03:54.526Z</time></trkpt><trkpt lat="38.5003069" lon="16.275297"><ele>1084.0</ele><time>2026-04-12T10:03:55.523Z</time></trkpt><trkpt lat="38.500173" lon="16.2753357"><ele>1084.0</ele><time>2026-04-12T10:03:56.536Z</time></trkpt><trkpt lat="38.5000254" lon="16.2753685"><ele>1079.0</ele><time>2026-04-12T10:03:57.537Z</time></trkpt><trkpt lat="38.4998771" lon="16.2753978"><ele>1074.0</ele><time>2026-04-12T10:03:58.518Z</time></trkpt><trkpt lat="38.4995804" lon="16.2754512"><ele>1071.25</ele><time>2026-04-12T10:04:00.53Z</time></trkpt><trkpt lat="38.4994379" lon="16.2754868"><ele>1068.5</ele><time>2026-04-12T10:04:01.524Z</time></trkpt><trkpt lat="38.4993149" lon="16.2755301"><ele>1065.75</ele><time>2026-04-12T10:04:02.532Z</time></trkpt><trkpt lat="38.499196" lon="16.2755943"><ele>1063.0</ele><time>2026-04-12T10:04:03.533Z</time></trkpt><trkpt lat="38.4990894" lon="16.2756717"><ele>1062.25</ele><time>2026-04-12T10:04:04.525Z</time></trkpt><trkpt lat="38.4989873" lon="16.2757517"><ele>1061.5</ele><time>2026-04-12T10:04:05.535Z</time></trkpt><trkpt lat="38.4988867" lon="16.2758366"><ele>1060.75</ele><time>2026-04-12T10:04:06.538Z</time></trkpt><trkpt lat="38.4987887" lon="16.2759137"><ele>1060.0</ele><time>2026-04-12T10:04:07.527Z</time></trkpt><trkpt lat="38.4986873" lon="16.2759787"><ele>1059.5</ele><time>2026-04-12T10:04:08.533Z</time></trkpt><trkpt lat="38.4985826" lon="16.2760309"><ele>1059.0</ele><time>2026-04-12T10:04:09.535Z</time></trkpt><trkpt lat="38.4984706" lon="16.2760655"><ele>1058.5</ele><time>2026-04-12T10:04:10.524Z</time></trkpt><trkpt lat="38.4983563" lon="16.2760981"><ele>1058.0</ele><time>2026-04-12T10:04:11.538Z</time></trkpt><trkpt lat="38.4982406" lon="16.2761353"><ele>1058.0</ele><time>2026-04-12T10:04:12.531Z</time></trkpt><trkpt lat="38.498127" lon="16.2761745"><ele>1058.0</ele><time>2026-04-12T10:04:13.53Z</time></trkpt><trkpt lat="38.4980126" lon="16.2762202"><ele>1058.0</ele><time>2026-04-12T10:04:14.529Z</time></trkpt><trkpt lat="38.4979061" lon="16.2762821"><ele>1058.0</ele><time>2026-04-12T10:04:15.536Z</time></trkpt><trkpt lat="38.4978033" lon="16.2763507"><ele>1055.75</ele><time>2026-04-12T10:04:16.529Z</time></trkpt><trkpt lat="38.4977093" lon="16.2764238"><ele>1053.5</ele><time>2026-04-12T10:04:17.536Z</time></trkpt><trkpt lat="38.4976251" lon="16.2765019"><ele>1051.25</ele><time>2026-04-12T10:04:18.532Z</time></trkpt><trkpt lat="38.4975771" lon="16.2766012"><ele>1049.0</ele><time>2026-04-12T10:04:19.546Z</time></trkpt><trkpt lat="38.497553" lon="16.2768178"><ele>1049.0</ele><time>2026-04-12T10:04:21.534Z</time></trkpt><trkpt lat="38.4975672" lon="16.2769293"><ele>1049.0</ele><time>2026-04-12T10:04:22.564Z</time></trkpt><trkpt lat="38.4975995" lon="16.2770541"><ele>1049.0</ele><time>2026-04-12T10:04:23.544Z</time></trkpt><trkpt lat="38.4976406" lon="16.2771866"><ele>1049.0</ele><time>2026-04-12T10:04:24.527Z</time></trkpt><trkpt lat="38.4976805" lon="16.2773266"><ele>1049.0</ele><time>2026-04-12T10:04:25.532Z</time></trkpt><trkpt lat="38.4977171" lon="16.2774629"><ele>1048.0</ele><time>2026-04-12T10:04:26.536Z</time></trkpt><trkpt lat="38.4977419" lon="16.2775874"><ele>1047.0</ele><time>2026-04-12T10:04:27.544Z</time></trkpt><trkpt lat="38.4977594" lon="16.2777097"><ele>1046.0</ele><time>2026-04-12T10:04:28.535Z</time></trkpt><trkpt lat="38.4977742" lon="16.2778288"><ele>1045.0</ele><time>2026-04-12T10:04:29.537Z</time></trkpt><trkpt lat="38.4977917" lon="16.277941"><ele>1044.0</ele><time>2026-04-12T10:04:30.528Z</time></trkpt><trkpt lat="38.4978062" lon="16.2780515"><ele>1042.8333333333333</ele><time>2026-04-12T10:04:31.526Z</time></trkpt><trkpt lat="38.4978177" lon="16.278155"><ele>1041.6666666666667</ele><time>2026-04-12T10:04:32.535Z</time></trkpt><trkpt lat="38.4978185" lon="16.2782565"><ele>1040.5</ele><time>2026-04-12T10:04:33.539Z</time></trkpt><trkpt lat="38.4977985" lon="16.2783511"><ele>1039.3333333333335</ele><time>2026-04-12T10:04:34.536Z</time></trkpt><trkpt lat="38.4977578" lon="16.2784325"><ele>1038.1666666666667</ele><time>2026-04-12T10:04:35.552Z</time></trkpt><trkpt lat="38.4977015" lon="16.2784902"><ele>1037.0</ele><time>2026-04-12T10:04:36.536Z</time></trkpt><trkpt lat="38.4976348" lon="16.2785179"><ele>1037.0</ele><time>2026-04-12T10:04:37.533Z</time></trkpt><trkpt lat="38.4975293" lon="16.2784903"><ele>1037.0</ele><time>2026-04-12T10:04:39.534Z</time></trkpt><trkpt lat="38.4974947" lon="16.2784223"><ele>1037.0</ele><time>2026-04-12T10:04:40.536Z</time></trkpt><trkpt lat="38.4974111" lon="16.2782487"><ele>1037.0</ele><time>2026-04-12T10:04:42.529Z</time></trkpt><trkpt lat="38.4973492" lon="16.2781801"><ele>1037.0</ele><time>2026-04-12T10:04:43.537Z</time></trkpt><trkpt lat="38.4972743" lon="16.2781503"><ele>1037.0</ele><time>2026-04-12T10:04:44.531Z</time></trkpt><trkpt lat="38.4971978" lon="16.2781625"><ele>1037.0</ele><time>2026-04-12T10:04:45.537Z</time></trkpt><trkpt lat="38.4971239" lon="16.2782074"><ele>1037.0</ele><time>2026-04-12T10:04:46.529Z</time></trkpt><trkpt lat="38.4970487" lon="16.2782651"><ele>1037.0</ele><time>2026-04-12T10:04:47.543Z</time></trkpt><trkpt lat="38.4969751" lon="16.2783222"><ele>1037.0</ele><time>2026-04-12T10:04:48.544Z</time></trkpt><trkpt lat="38.4968874" lon="16.278361"><ele>1037.0</ele><time>2026-04-12T10:04:49.532Z</time></trkpt><trkpt lat="38.4967946" lon="16.2783678"><ele>1034.8</ele><time>2026-04-12T10:04:50.528Z</time></trkpt><trkpt lat="38.4966924" lon="16.2783711"><ele>1032.6</ele><time>2026-04-12T10:04:51.528Z</time></trkpt><trkpt lat="38.496598" lon="16.2783584"><ele>1030.3999999999999</ele><time>2026-04-12T10:04:52.533Z</time></trkpt><trkpt lat="38.4964987" lon="16.2783565"><ele>1028.2</ele><time>2026-04-12T10:04:53.539Z</time></trkpt><trkpt lat="38.496414" lon="16.2783837"><ele>1026.0</ele><time>2026-04-12T10:04:54.519Z</time></trkpt><trkpt lat="38.4963533" lon="16.2784469"><ele>1026.0</ele><time>2026-04-12T10:04:55.528Z</time></trkpt><trkpt lat="38.4963137" lon="16.2785378"><ele>1026.0</ele><time>2026-04-12T10:04:56.53Z</time></trkpt><trkpt lat="38.4962888" lon="16.2786475"><ele>1026.0</ele><time>2026-04-12T10:04:57.534Z</time></trkpt><trkpt lat="38.4962722" lon="16.2787717"><ele>1026.0</ele><time>2026-04-12T10:04:58.525Z</time></trkpt><trkpt lat="38.4962662" lon="16.2789016"><ele>1026.0</ele><time>2026-04-12T10:04:59.544Z</time></trkpt><trkpt lat="38.4962609" lon="16.2790383"><ele>1023.0</ele><time>2026-04-12T10:05:00.536Z</time></trkpt><trkpt lat="38.4962531" lon="16.2791746"><ele>1020.0</ele><time>2026-04-12T10:05:01.53Z</time></trkpt><trkpt lat="38.496237" lon="16.2794266"><ele>1017.0</ele><time>2026-04-12T10:05:03.542Z</time></trkpt><trkpt lat="38.4962373" lon="16.2795501"><ele>1014.0</ele><time>2026-04-12T10:05:04.525Z</time></trkpt><trkpt lat="38.4962338" lon="16.2796735"><ele>1014.3333333333334</ele><time>2026-04-12T10:05:05.539Z</time></trkpt><trkpt lat="38.4962274" lon="16.2797979"><ele>1014.6666666666667</ele><time>2026-04-12T10:05:06.532Z</time></trkpt><trkpt lat="38.4962212" lon="16.2799119"><ele>1015.0</ele><time>2026-04-12T10:05:07.532Z</time></trkpt><trkpt lat="38.4961867" lon="16.2800085"><ele>1015.3333333333334</ele><time>2026-04-12T10:05:08.531Z</time></trkpt><trkpt lat="38.4961354" lon="16.2800896"><ele>1015.6666666666667</ele><time>2026-04-12T10:05:09.536Z</time></trkpt><trkpt lat="38.496069" lon="16.2801622"><ele>1016.0</ele><time>2026-04-12T10:05:10.525Z</time></trkpt><trkpt lat="38.4959936" lon="16.2802301"><ele>1016.0</ele><time>2026-04-12T10:05:11.528Z</time></trkpt><trkpt lat="38.4959215" lon="16.2803009"><ele>1015.9999999999999</ele><time>2026-04-12T10:05:12.539Z</time></trkpt><trkpt lat="38.4958319" lon="16.2803249"><ele>1015.9999999999999</ele><time>2026-04-12T10:05:13.532Z</time></trkpt><trkpt lat="38.4957388" lon="16.2803305"><ele>1016.0</ele><time>2026-04-12T10:05:14.53Z</time></trkpt><trkpt lat="38.4956474" lon="16.280319"><ele>1016.0</ele><time>2026-04-12T10:05:15.526Z</time></trkpt><trkpt lat="38.4955552" lon="16.2802924"><ele>1016.0</ele><time>2026-04-12T10:05:16.525Z</time></trkpt><trkpt lat="38.4954584" lon="16.2802606"><ele>1015.9999999999999</ele><time>2026-04-12T10:05:17.536Z</time></trkpt><trkpt lat="38.4953595" lon="16.2802258"><ele>1015.9999999999999</ele><time>2026-04-12T10:05:18.522Z</time></trkpt><trkpt lat="38.4952604" lon="16.2801885"><ele>1016.0</ele><time>2026-04-12T10:05:19.531Z</time></trkpt><trkpt lat="38.4951695" lon="16.2801562"><ele>1016.0</ele><time>2026-04-12T10:05:20.542Z</time></trkpt><trkpt lat="38.4950877" lon="16.2801284"><ele>1013.25</ele><time>2026-04-12T10:05:21.528Z</time></trkpt><trkpt lat="38.4950115" lon="16.2801259"><ele>1010.5</ele><time>2026-04-12T10:05:22.523Z</time></trkpt><trkpt lat="38.4948176" lon="16.2802528"><ele>1007.75</ele><time>2026-04-12T10:05:24.529Z</time></trkpt><trkpt lat="38.4947222" lon="16.280324"><ele>1005.0</ele><time>2026-04-12T10:05:25.529Z</time></trkpt><trkpt lat="38.4946209" lon="16.2804013"><ele>1002.25</ele><time>2026-04-12T10:05:26.528Z</time></trkpt><trkpt lat="38.494521" lon="16.2804794"><ele>999.5</ele><time>2026-04-12T10:05:27.528Z</time></trkpt><trkpt lat="38.4944213" lon="16.2805615"><ele>996.75</ele><time>2026-04-12T10:05:28.534Z</time></trkpt><trkpt lat="38.4943578" lon="16.2806786"><ele>994.0</ele><time>2026-04-12T10:05:29.537Z</time></trkpt><trkpt lat="38.4942918" lon="16.2808012"><ele>994.0</ele><time>2026-04-12T10:05:30.527Z</time></trkpt><trkpt lat="38.4942494" lon="16.2809355"><ele>994.0000000000001</ele><time>2026-04-12T10:05:31.521Z</time></trkpt><trkpt lat="38.4942108" lon="16.281072"><ele>994.0000000000001</ele><time>2026-04-12T10:05:32.533Z</time></trkpt><trkpt lat="38.4941751" lon="16.2812014"><ele>994.0</ele><time>2026-04-12T10:05:33.531Z</time></trkpt><trkpt lat="38.4941415" lon="16.2813299"><ele>994.0</ele><time>2026-04-12T10:05:34.529Z</time></trkpt><trkpt lat="38.4941088" lon="16.2814533"><ele>992.6</ele><time>2026-04-12T10:05:35.525Z</time></trkpt><trkpt lat="38.494052" lon="16.2815611"><ele>991.2</ele><time>2026-04-12T10:05:36.529Z</time></trkpt><trkpt lat="38.4939707" lon="16.2816528"><ele>989.8000000000001</ele><time>2026-04-12T10:05:37.529Z</time></trkpt><trkpt lat="38.4938791" lon="16.2817473"><ele>988.4000000000001</ele><time>2026-04-12T10:05:38.526Z</time></trkpt><trkpt lat="38.4937833" lon="16.2818323"><ele>987.0</ele><time>2026-04-12T10:05:39.523Z</time></trkpt><trkpt lat="38.4936934" lon="16.2818937"><ele>986.8</ele><time>2026-04-12T10:05:40.521Z</time></trkpt><trkpt lat="38.4936089" lon="16.2819268"><ele>986.6</ele><time>2026-04-12T10:05:41.524Z</time></trkpt><trkpt lat="38.4935237" lon="16.2819469"><ele>986.3999999999999</ele><time>2026-04-12T10:05:42.52Z</time></trkpt><trkpt lat="38.4934376" lon="16.2819633"><ele>986.1999999999999</ele><time>2026-04-12T10:05:43.529Z</time></trkpt><trkpt lat="38.4932833" lon="16.2820546"><ele>986.0</ele><time>2026-04-12T10:05:45.523Z</time></trkpt><trkpt lat="38.4932087" lon="16.2821101"><ele>986.0000000000001</ele><time>2026-04-12T10:05:46.524Z</time></trkpt><trkpt lat="38.4931269" lon="16.282152"><ele>986.0</ele><time>2026-04-12T10:05:47.526Z</time></trkpt><trkpt lat="38.4930421" lon="16.2821673"><ele>986.0</ele><time>2026-04-12T10:05:48.531Z</time></trkpt><trkpt lat="38.4929715" lon="16.2821771"><ele>986.0</ele><time>2026-04-12T10:05:49.526Z</time></trkpt><trkpt lat="38.4928965" lon="16.2821537"><ele>986.0000000000001</ele><time>2026-04-12T10:05:51.524Z</time></trkpt><trkpt lat="38.4929087" lon="16.2822406"><ele>986.0</ele><time>2026-04-12T10:05:57.533Z</time></trkpt><trkpt lat="38.4930325" lon="16.2822998"><ele>984.1999999999999</ele><time>2026-04-12T10:05:59.534Z</time></trkpt><trkpt lat="38.4931183" lon="16.2823296"><ele>982.3999999999999</ele><time>2026-04-12T10:06:00.531Z</time></trkpt><trkpt lat="38.493219" lon="16.2823449"><ele>980.6</ele><time>2026-04-12T10:06:01.531Z</time></trkpt><trkpt lat="38.493332" lon="16.2823463"><ele>978.8</ele><time>2026-04-12T10:06:02.531Z</time></trkpt><trkpt lat="38.4934392" lon="16.2823426"><ele>977.0</ele><time>2026-04-12T10:06:03.528Z</time></trkpt><trkpt lat="38.4935467" lon="16.2823411"><ele>977.3333333333334</ele><time>2026-04-12T10:06:04.52Z</time></trkpt><trkpt lat="38.4937739" lon="16.2823302"><ele>977.6666666666667</ele><time>2026-04-12T10:06:06.53Z</time></trkpt><trkpt lat="38.4938887" lon="16.2823236"><ele>978.0</ele><time>2026-04-12T10:06:07.526Z</time></trkpt><trkpt lat="38.494004" lon="16.2823181"><ele>978.0</ele><time>2026-04-12T10:06:08.528Z</time></trkpt><trkpt lat="38.4941152" lon="16.2823149"><ele>978.0</ele><time>2026-04-12T10:06:09.53Z</time></trkpt><trkpt lat="38.4942187" lon="16.2823126"><ele>978.0</ele><time>2026-04-12T10:06:10.526Z</time></trkpt><trkpt lat="38.4943145" lon="16.2823158"><ele>978.0</ele><time>2026-04-12T10:06:11.529Z</time></trkpt><trkpt lat="38.4944032" lon="16.2823321"><ele>978.0</ele><time>2026-04-12T10:06:12.52Z</time></trkpt><trkpt lat="38.4944825" lon="16.2823653"><ele>978.0</ele><time>2026-04-12T10:06:13.527Z</time></trkpt><trkpt lat="38.4945483" lon="16.2824078"><ele>978.0</ele><time>2026-04-12T10:06:14.528Z</time></trkpt><trkpt lat="38.4946028" lon="16.2824545"><ele>978.0</ele><time>2026-04-12T10:06:15.525Z</time></trkpt><trkpt lat="38.4946733" lon="16.2825304"><ele>978.0</ele><time>2026-04-12T10:06:17.534Z</time></trkpt><trkpt lat="38.4947329" lon="16.2826098"><ele>978.0</ele><time>2026-04-12T10:06:20.53Z</time></trkpt><trkpt lat="38.4947766" lon="16.2826679"><ele>978.0</ele><time>2026-04-12T10:10:51.555Z</time></trkpt><trkpt lat="38.4948937" lon="16.282832"><ele>978.3333333333334</ele><time>2026-04-12T10:10:54.532Z</time></trkpt><trkpt lat="38.4949414" lon="16.2829053"><ele>978.6666666666667</ele><time>2026-04-12T10:10:55.523Z</time></trkpt><trkpt lat="38.4949862" lon="16.282975"><ele>979.0</ele><time>2026-04-12T10:10:56.531Z</time></trkpt><trkpt lat="38.4950297" lon="16.2830436"><ele>979.3333333333334</ele><time>2026-04-12T10:10:57.535Z</time></trkpt><trkpt lat="38.4950772" lon="16.2831311"><ele>979.6666666666667</ele><time>2026-04-12T10:10:58.517Z</time></trkpt><trkpt lat="38.4951033" lon="16.2832268"><ele>980.0</ele><time>2026-04-12T10:10:59.536Z</time></trkpt><trkpt lat="38.4951325" lon="16.283324"><ele>980.1666666666667</ele><time>2026-04-12T10:11:00.528Z</time></trkpt><trkpt lat="38.4951135" lon="16.2834176"><ele>980.3333333333334</ele><time>2026-04-12T10:11:01.525Z</time></trkpt><trkpt lat="38.4950919" lon="16.2835081"><ele>980.5</ele><time>2026-04-12T10:11:02.529Z</time></trkpt><trkpt lat="38.4950514" lon="16.2836084"><ele>980.6666666666667</ele><time>2026-04-12T10:11:03.539Z</time></trkpt><trkpt lat="38.4950042" lon="16.2837073"><ele>980.8333333333334</ele><time>2026-04-12T10:11:04.529Z</time></trkpt><trkpt lat="38.4949559" lon="16.2838158"><ele>981.0</ele><time>2026-04-12T10:11:05.532Z</time></trkpt><trkpt lat="38.494906" lon="16.2839328"><ele>982.5</ele><time>2026-04-12T10:11:06.528Z</time></trkpt><trkpt lat="38.4948523" lon="16.2840573"><ele>984.0</ele><time>2026-04-12T10:11:07.546Z</time></trkpt><trkpt lat="38.4947889" lon="16.284199"><ele>985.5</ele><time>2026-04-12T10:11:08.529Z</time></trkpt><trkpt lat="38.4947236" lon="16.284336"><ele>987.0</ele><time>2026-04-12T10:11:09.527Z</time></trkpt><trkpt lat="38.494668" lon="16.2844666"><ele>987.0</ele><time>2026-04-12T10:11:10.529Z</time></trkpt><trkpt lat="38.4946208" lon="16.2846075"><ele>987.0</ele><time>2026-04-12T10:11:11.53Z</time></trkpt><trkpt lat="38.4945918" lon="16.2847694"><ele>987.0</ele><time>2026-04-12T10:11:12.525Z</time></trkpt><trkpt lat="38.4945624" lon="16.2851233"><ele>986.5</ele><time>2026-04-12T10:11:14.528Z</time></trkpt><trkpt lat="38.4945669" lon="16.285289"><ele>986.0</ele><time>2026-04-12T10:11:15.533Z</time></trkpt><trkpt lat="38.4945693" lon="16.2854461"><ele>985.5</ele><time>2026-04-12T10:11:16.53Z</time></trkpt><trkpt lat="38.494616" lon="16.2855798"><ele>985.0</ele><time>2026-04-12T10:11:17.529Z</time></trkpt><trkpt lat="38.4946611" lon="16.2856812"><ele>985.0</ele><time>2026-04-12T10:11:18.53Z</time></trkpt><trkpt lat="38.4946951" lon="16.2857628"><ele>985.0</ele><time>2026-04-12T10:11:19.554Z</time></trkpt><trkpt lat="38.4947164" lon="16.2859043"><ele>985.0</ele><time>2026-04-12T10:11:21.519Z</time></trkpt><trkpt lat="38.4946685" lon="16.2860492"><ele>985.0</ele><time>2026-04-12T10:11:23.537Z</time></trkpt><trkpt lat="38.494634" lon="16.286133"><ele>985.0</ele><time>2026-04-12T10:11:24.519Z</time></trkpt><trkpt lat="38.4945772" lon="16.2862181"><ele>984.9999999999999</ele><time>2026-04-12T10:11:25.524Z</time></trkpt><trkpt lat="38.4945183" lon="16.286302"><ele>985.0</ele><time>2026-04-12T10:11:26.534Z</time></trkpt><trkpt lat="38.4944638" lon="16.2863767"><ele>985.0</ele><time>2026-04-12T10:11:27.531Z</time></trkpt><trkpt lat="38.4944146" lon="16.2864526"><ele>985.0</ele><time>2026-04-12T10:11:28.537Z</time></trkpt><trkpt lat="38.4943654" lon="16.28653"><ele>984.9999999999999</ele><time>2026-04-12T10:11:29.535Z</time></trkpt><trkpt lat="38.4943142" lon="16.2866104"><ele>985.0</ele><time>2026-04-12T10:11:30.527Z</time></trkpt><trkpt lat="38.4942629" lon="16.2867086"><ele>985.5</ele><time>2026-04-12T10:11:31.526Z</time></trkpt><trkpt lat="38.4942159" lon="16.2868212"><ele>986.0</ele><time>2026-04-12T10:11:32.527Z</time></trkpt><trkpt lat="38.4941726" lon="16.286953"><ele>986.5</ele><time>2026-04-12T10:11:33.535Z</time></trkpt><trkpt lat="38.4941189" lon="16.2871912"><ele>987.0</ele><time>2026-04-12T10:11:35.518Z</time></trkpt><trkpt lat="38.4941007" lon="16.2872739"><ele>987.0</ele><time>2026-04-12T10:11:36.524Z</time></trkpt><trkpt lat="38.4940687" lon="16.2874034"><ele>987.0</ele><time>2026-04-12T10:11:38.527Z</time></trkpt><trkpt lat="38.4940444" lon="16.2875093"><ele>987.0</ele><time>2026-04-12T10:11:40.524Z</time></trkpt><trkpt lat="38.4940247" lon="16.2876056"><ele>987.0</ele><time>2026-04-12T10:11:43.534Z</time></trkpt><trkpt lat="38.4940223" lon="16.2877529"><ele>987.0</ele><time>2026-04-12T10:11:47.54Z</time></trkpt><trkpt lat="38.4940286" lon="16.2878389"><ele>987.0</ele><time>2026-04-12T10:11:48.533Z</time></trkpt><trkpt lat="38.4940448" lon="16.2879459"><ele>987.0</ele><time>2026-04-12T10:11:49.531Z</time></trkpt><trkpt lat="38.4940674" lon="16.2880746"><ele>987.0</ele><time>2026-04-12T10:11:50.528Z</time></trkpt><trkpt lat="38.494077" lon="16.2882207"><ele>987.0</ele><time>2026-04-12T10:11:51.527Z</time></trkpt><trkpt lat="38.4940803" lon="16.2883604"><ele>987.0</ele><time>2026-04-12T10:11:52.529Z</time></trkpt><trkpt lat="38.4940735" lon="16.2885056"><ele>985.0</ele><time>2026-04-12T10:11:53.521Z</time></trkpt><trkpt lat="38.4940576" lon="16.288646"><ele>983.0</ele><time>2026-04-12T10:11:54.523Z</time></trkpt><trkpt lat="38.4940231" lon="16.2888631"><ele>981.0</ele><time>2026-04-12T10:11:56.526Z</time></trkpt><trkpt lat="38.4939891" lon="16.2889399"><ele>979.0</ele><time>2026-04-12T10:11:57.53Z</time></trkpt><trkpt lat="38.4938915" lon="16.2889956"><ele>978.0</ele><time>2026-04-12T10:11:59.539Z</time></trkpt><trkpt lat="38.4937903" lon="16.2889451"><ele>977.0000000000001</ele><time>2026-04-12T10:12:01.538Z</time></trkpt><trkpt lat="38.4937334" lon="16.2888727"><ele>976.0000000000001</ele><time>2026-04-12T10:12:02.532Z</time></trkpt><trkpt lat="38.4936629" lon="16.2887756"><ele>975.0</ele><time>2026-04-12T10:12:03.524Z</time></trkpt><trkpt lat="38.4935682" lon="16.2886524"><ele>974.0</ele><time>2026-04-12T10:12:04.532Z</time></trkpt><trkpt lat="38.4934564" lon="16.2885161"><ele>976.5</ele><time>2026-04-12T10:12:05.526Z</time></trkpt><trkpt lat="38.4933456" lon="16.2883947"><ele>979.0</ele><time>2026-04-12T10:12:06.53Z</time></trkpt><trkpt lat="38.4932274" lon="16.2883017"><ele>981.5</ele><time>2026-04-12T10:12:07.535Z</time></trkpt><trkpt lat="38.4931007" lon="16.2882277"><ele>984.0</ele><time>2026-04-12T10:12:08.536Z</time></trkpt><trkpt lat="38.4929692" lon="16.2881622"><ele>984.3333333333333</ele><time>2026-04-12T10:12:09.535Z</time></trkpt><trkpt lat="38.4928367" lon="16.288092"><ele>984.6666666666666</ele><time>2026-04-12T10:12:10.531Z</time></trkpt><trkpt lat="38.4926913" lon="16.2880237"><ele>985.0</ele><time>2026-04-12T10:12:11.531Z</time></trkpt><trkpt lat="38.4925481" lon="16.2879564"><ele>985.0</ele><time>2026-04-12T10:12:12.525Z</time></trkpt><trkpt lat="38.4924123" lon="16.2878992"><ele>985.0</ele><time>2026-04-12T10:12:13.528Z</time></trkpt><trkpt lat="38.492284" lon="16.2878533"><ele>985.0</ele><time>2026-04-12T10:12:14.554Z</time></trkpt><trkpt lat="38.4921523" lon="16.2878245"><ele>985.0</ele><time>2026-04-12T10:12:15.525Z</time></trkpt><trkpt lat="38.4918689" lon="16.2877969"><ele>984.75</ele><time>2026-04-12T10:12:17.528Z</time></trkpt><trkpt lat="38.4917276" lon="16.2877833"><ele>984.5</ele><time>2026-04-12T10:12:18.538Z</time></trkpt><trkpt lat="38.4915885" lon="16.2877635"><ele>984.25</ele><time>2026-04-12T10:12:19.54Z</time></trkpt><trkpt lat="38.4914502" lon="16.2877356"><ele>984.0</ele><time>2026-04-12T10:12:20.524Z</time></trkpt><trkpt lat="38.4913126" lon="16.2877009"><ele>983.5</ele><time>2026-04-12T10:12:21.525Z</time></trkpt><trkpt lat="38.4911729" lon="16.2876604"><ele>983.0</ele><time>2026-04-12T10:12:22.527Z</time></trkpt><trkpt lat="38.4910302" lon="16.2876232"><ele>982.5</ele><time>2026-04-12T10:12:23.534Z</time></trkpt><trkpt lat="38.4908875" lon="16.2875882"><ele>982.0</ele><time>2026-04-12T10:12:24.53Z</time></trkpt><trkpt lat="38.4907446" lon="16.2875619"><ele>982.0</ele><time>2026-04-12T10:12:25.541Z</time></trkpt><trkpt lat="38.4906045" lon="16.2875456"><ele>982.0</ele><time>2026-04-12T10:12:26.526Z</time></trkpt><trkpt lat="38.490467" lon="16.2875383"><ele>982.0</ele><time>2026-04-12T10:12:27.533Z</time></trkpt><trkpt lat="38.490331" lon="16.2875383"><ele>982.0</ele><time>2026-04-12T10:12:28.533Z</time></trkpt><trkpt lat="38.4901989" lon="16.2875385"><ele>981.0</ele><time>2026-04-12T10:12:29.533Z</time></trkpt><trkpt lat="38.4900698" lon="16.2875275"><ele>980.0</ele><time>2026-04-12T10:12:30.527Z</time></trkpt><trkpt lat="38.4899455" lon="16.2874951"><ele>979.0</ele><time>2026-04-12T10:12:31.543Z</time></trkpt><trkpt lat="38.4898301" lon="16.2874381"><ele>978.0</ele><time>2026-04-12T10:12:32.536Z</time></trkpt><trkpt lat="38.4897254" lon="16.2873567"><ele>978.0</ele><time>2026-04-12T10:12:33.537Z</time></trkpt><trkpt lat="38.4896231" lon="16.2872607"><ele>978.0</ele><time>2026-04-12T10:12:34.532Z</time></trkpt><trkpt lat="38.4895171" lon="16.2871576"><ele>978.0</ele><time>2026-04-12T10:12:35.53Z</time></trkpt><trkpt lat="38.4894054" lon="16.2870539"><ele>978.0</ele><time>2026-04-12T10:12:36.543Z</time></trkpt><trkpt lat="38.4891608" lon="16.286886"><ele>976.0</ele><time>2026-04-12T10:12:38.524Z</time></trkpt><trkpt lat="38.4890299" lon="16.2868219"><ele>974.0</ele><time>2026-04-12T10:12:39.523Z</time></trkpt><trkpt lat="38.4888991" lon="16.2867693"><ele>972.0</ele><time>2026-04-12T10:12:40.527Z</time></trkpt><trkpt lat="38.4887674" lon="16.2867246"><ele>970.0</ele><time>2026-04-12T10:12:41.523Z</time></trkpt><trkpt lat="38.4886351" lon="16.2866833"><ele>967.5</ele><time>2026-04-12T10:12:42.54Z</time></trkpt><trkpt lat="38.4885042" lon="16.286641"><ele>965.0</ele><time>2026-04-12T10:12:43.523Z</time></trkpt><trkpt lat="38.4883754" lon="16.2866004"><ele>962.5</ele><time>2026-04-12T10:12:44.539Z</time></trkpt><trkpt lat="38.4882479" lon="16.2865616"><ele>960.0</ele><time>2026-04-12T10:12:45.539Z</time></trkpt><trkpt lat="38.488134" lon="16.2865344"><ele>960.0</ele><time>2026-04-12T10:12:46.526Z</time></trkpt><trkpt lat="38.4880381" lon="16.2865282"><ele>960.0</ele><time>2026-04-12T10:12:47.529Z</time></trkpt><trkpt lat="38.4879542" lon="16.2865336"><ele>960.0</ele><time>2026-04-12T10:12:48.53Z</time></trkpt><trkpt lat="38.4878825" lon="16.286532"><ele>960.0</ele><time>2026-04-12T10:12:49.533Z</time></trkpt><trkpt lat="38.4878187" lon="16.2865287"><ele>960.0</ele><time>2026-04-12T10:12:50.528Z</time></trkpt><trkpt lat="38.4877397" lon="16.2864296"><ele>960.0</ele><time>2026-04-12T10:12:52.53Z</time></trkpt><trkpt lat="38.4877139" lon="16.2863429"><ele>960.2</ele><time>2026-04-12T10:12:53.536Z</time></trkpt><trkpt lat="38.4876757" lon="16.2862461"><ele>960.4</ele><time>2026-04-12T10:12:54.532Z</time></trkpt><trkpt lat="38.487624" lon="16.2861539"><ele>960.5999999999999</ele><time>2026-04-12T10:12:55.531Z</time></trkpt><trkpt lat="38.4875593" lon="16.2860695"><ele>960.8</ele><time>2026-04-12T10:12:56.54Z</time></trkpt><trkpt lat="38.4874802" lon="16.2859844"><ele>961.0</ele><time>2026-04-12T10:12:57.537Z</time></trkpt><trkpt lat="38.4872824" lon="16.2858304"><ele>961.0</ele><time>2026-04-12T10:12:59.534Z</time></trkpt><trkpt lat="38.4871508" lon="16.2857601"><ele>961.0</ele><time>2026-04-12T10:13:00.535Z</time></trkpt><trkpt lat="38.4869985" lon="16.2856943"><ele>961.0</ele><time>2026-04-12T10:13:01.53Z</time></trkpt><trkpt lat="38.4868544" lon="16.2856374"><ele>962.25</ele><time>2026-04-12T10:13:02.539Z</time></trkpt><trkpt lat="38.4867182" lon="16.2855852"><ele>963.5</ele><time>2026-04-12T10:13:03.532Z</time></trkpt><trkpt lat="38.4865789" lon="16.2855278"><ele>964.75</ele><time>2026-04-12T10:13:04.524Z</time></trkpt><trkpt lat="38.4864369" lon="16.285466"><ele>966.0</ele><time>2026-04-12T10:13:05.528Z</time></trkpt><trkpt lat="38.4863067" lon="16.2854069"><ele>965.5</ele><time>2026-04-12T10:13:06.539Z</time></trkpt><trkpt lat="38.4861834" lon="16.2853618"><ele>965.0</ele><time>2026-04-12T10:13:07.524Z</time></trkpt><trkpt lat="38.4860664" lon="16.2853215"><ele>964.5</ele><time>2026-04-12T10:13:08.537Z</time></trkpt><trkpt lat="38.4859607" lon="16.285306"><ele>964.0</ele><time>2026-04-12T10:13:09.528Z</time></trkpt><trkpt lat="38.4858576" lon="16.2852985"><ele>964.0</ele><time>2026-04-12T10:13:10.524Z</time></trkpt><trkpt lat="38.4857543" lon="16.2853065"><ele>964.0000000000001</ele><time>2026-04-12T10:13:11.539Z</time></trkpt><trkpt lat="38.4856477" lon="16.2853331"><ele>964.0000000000001</ele><time>2026-04-12T10:13:12.522Z</time></trkpt><trkpt lat="38.4855389" lon="16.2853722"><ele>964.0</ele><time>2026-04-12T10:13:13.525Z</time></trkpt><trkpt lat="38.485427" lon="16.2854044"><ele>964.0</ele><time>2026-04-12T10:13:14.536Z</time></trkpt><trkpt lat="38.4853157" lon="16.2854124"><ele>964.25</ele><time>2026-04-12T10:13:15.529Z</time></trkpt><trkpt lat="38.4852052" lon="16.2853945"><ele>964.5</ele><time>2026-04-12T10:13:16.538Z</time></trkpt><trkpt lat="38.4850986" lon="16.2853512"><ele>964.75</ele><time>2026-04-12T10:13:17.527Z</time></trkpt><trkpt lat="38.484994" lon="16.2853072"><ele>965.0</ele><time>2026-04-12T10:13:18.524Z</time></trkpt><trkpt lat="38.4847619" lon="16.285153"><ele>965.0</ele><time>2026-04-12T10:13:20.54Z</time></trkpt><trkpt lat="38.4846412" lon="16.2850621"><ele>965.0</ele><time>2026-04-12T10:13:21.528Z</time></trkpt><trkpt lat="38.4845199" lon="16.2849736"><ele>965.0</ele><time>2026-04-12T10:13:22.523Z</time></trkpt><trkpt lat="38.4843996" lon="16.2848964"><ele>965.0</ele><time>2026-04-12T10:13:23.53Z</time></trkpt><trkpt lat="38.484284" lon="16.2848221"><ele>964.5</ele><time>2026-04-12T10:13:24.522Z</time></trkpt><trkpt lat="38.4841623" lon="16.2847516"><ele>964.0</ele><time>2026-04-12T10:13:25.534Z</time></trkpt><trkpt lat="38.4840456" lon="16.2846774"><ele>963.5</ele><time>2026-04-12T10:13:26.524Z</time></trkpt><trkpt lat="38.4839214" lon="16.2846173"><ele>963.0</ele><time>2026-04-12T10:13:27.534Z</time></trkpt><trkpt lat="38.4837783" lon="16.2845615"><ele>962.0</ele><time>2026-04-12T10:13:28.52Z</time></trkpt><trkpt lat="38.4836447" lon="16.2845221"><ele>961.0</ele><time>2026-04-12T10:13:29.536Z</time></trkpt><trkpt lat="38.4835273" lon="16.2845142"><ele>960.0</ele><time>2026-04-12T10:13:30.536Z</time></trkpt><trkpt lat="38.4834163" lon="16.2845059"><ele>959.0</ele><time>2026-04-12T10:13:31.519Z</time></trkpt><trkpt lat="38.4833105" lon="16.2844916"><ele>959.0</ele><time>2026-04-12T10:13:32.531Z</time></trkpt><trkpt lat="38.4832171" lon="16.2844813"><ele>959.0000000000001</ele><time>2026-04-12T10:13:33.544Z</time></trkpt><trkpt lat="38.4831527" lon="16.2844052"><ele>959.0000000000001</ele><time>2026-04-12T10:13:34.524Z</time></trkpt><trkpt lat="38.4831023" lon="16.284309"><ele>959.0</ele><time>2026-04-12T10:13:35.536Z</time></trkpt><trkpt lat="38.4830496" lon="16.2842045"><ele>959.0</ele><time>2026-04-12T10:13:36.529Z</time></trkpt><trkpt lat="38.4830144" lon="16.2840808"><ele>959.0</ele><time>2026-04-12T10:13:37.522Z</time></trkpt><trkpt lat="38.482961" lon="16.2839462"><ele>959.0</ele><time>2026-04-12T10:13:38.539Z</time></trkpt><trkpt lat="38.4828994" lon="16.2837954"><ele>959.0</ele><time>2026-04-12T10:13:39.543Z</time></trkpt><trkpt lat="38.4827469" lon="16.2834784"><ele>958.25</ele><time>2026-04-12T10:13:41.533Z</time></trkpt><trkpt lat="38.4826714" lon="16.2833112"><ele>957.5</ele><time>2026-04-12T10:13:42.525Z</time></trkpt><trkpt lat="38.4825899" lon="16.2831602"><ele>956.75</ele><time>2026-04-12T10:13:43.521Z</time></trkpt><trkpt lat="38.4825104" lon="16.2830161"><ele>956.0</ele><time>2026-04-12T10:13:44.537Z</time></trkpt><trkpt lat="38.4824344" lon="16.2828639"><ele>957.5</ele><time>2026-04-12T10:13:45.524Z</time></trkpt><trkpt lat="38.4823955" lon="16.2826897"><ele>959.0</ele><time>2026-04-12T10:13:46.526Z</time></trkpt><trkpt lat="38.4823644" lon="16.2825347"><ele>960.5</ele><time>2026-04-12T10:13:47.526Z</time></trkpt><trkpt lat="38.482338" lon="16.2824038"><ele>962.0</ele><time>2026-04-12T10:13:48.53Z</time></trkpt><trkpt lat="38.4823016" lon="16.2823"><ele>965.0</ele><time>2026-04-12T10:13:49.522Z</time></trkpt><trkpt lat="38.4822388" lon="16.2822079"><ele>968.0</ele><time>2026-04-12T10:13:50.528Z</time></trkpt><trkpt lat="38.48216" lon="16.2821444"><ele>971.0</ele><time>2026-04-12T10:13:51.524Z</time></trkpt><trkpt lat="38.4820539" lon="16.2820759"><ele>974.0</ele><time>2026-04-12T10:13:52.524Z</time></trkpt><trkpt lat="38.4819251" lon="16.2820049"><ele>977.0</ele><time>2026-04-12T10:13:53.534Z</time></trkpt><trkpt lat="38.4817759" lon="16.2819547"><ele>977.0</ele><time>2026-04-12T10:13:54.526Z</time></trkpt><trkpt lat="38.4816117" lon="16.2819303"><ele>977.0</ele><time>2026-04-12T10:13:55.524Z</time></trkpt><trkpt lat="38.4814468" lon="16.2819036"><ele>977.0</ele><time>2026-04-12T10:13:56.526Z</time></trkpt><trkpt lat="38.4812935" lon="16.2818953"><ele>976.6666666666667</ele><time>2026-04-12T10:13:57.531Z</time></trkpt><trkpt lat="38.4811373" lon="16.2818859"><ele>976.3333333333333</ele><time>2026-04-12T10:13:58.533Z</time></trkpt><trkpt lat="38.4809828" lon="16.2818954"><ele>976.0</ele><time>2026-04-12T10:13:59.536Z</time></trkpt><trkpt lat="38.4808281" lon="16.2819053"><ele>976.0</ele><time>2026-04-12T10:14:00.529Z</time></trkpt><trkpt lat="38.4805347" lon="16.2820584"><ele>976.0</ele><time>2026-04-12T10:14:02.533Z</time></trkpt><trkpt lat="38.480389" lon="16.2821407"><ele>976.0</ele><time>2026-04-12T10:14:03.522Z</time></trkpt><trkpt lat="38.4802454" lon="16.2822194"><ele>976.0</ele><time>2026-04-12T10:14:04.518Z</time></trkpt><trkpt lat="38.4801112" lon="16.2822964"><ele>976.0</ele><time>2026-04-12T10:14:05.533Z</time></trkpt><trkpt lat="38.4799946" lon="16.2823967"><ele>976.0</ele><time>2026-04-12T10:14:06.527Z</time></trkpt><trkpt lat="38.479893" lon="16.2825201"><ele>976.0</ele><time>2026-04-12T10:14:07.522Z</time></trkpt><trkpt lat="38.4798098" lon="16.282639"><ele>976.0</ele><time>2026-04-12T10:14:08.535Z</time></trkpt><trkpt lat="38.4797341" lon="16.2827589"><ele>976.0</ele><time>2026-04-12T10:14:09.52Z</time></trkpt><trkpt lat="38.4796458" lon="16.2828426"><ele>976.0</ele><time>2026-04-12T10:14:10.532Z</time></trkpt><trkpt lat="38.4795518" lon="16.2829275"><ele>977.5</ele><time>2026-04-12T10:14:11.526Z</time></trkpt><trkpt lat="38.4794555" lon="16.2829951"><ele>979.0</ele><time>2026-04-12T10:14:12.527Z</time></trkpt><trkpt lat="38.4793187" lon="16.2830411"><ele>980.5</ele><time>2026-04-12T10:14:13.543Z</time></trkpt><trkpt lat="38.4791829" lon="16.2830672"><ele>982.0</ele><time>2026-04-12T10:14:14.522Z</time></trkpt><trkpt lat="38.4790565" lon="16.2830758"><ele>982.0</ele><time>2026-04-12T10:14:15.535Z</time></trkpt><trkpt lat="38.478938" lon="16.2830788"><ele>982.0</ele><time>2026-04-12T10:14:16.529Z</time></trkpt><trkpt lat="38.4788457" lon="16.2830331"><ele>982.0</ele><time>2026-04-12T10:14:17.525Z</time></trkpt><trkpt lat="38.4787696" lon="16.2829708"><ele>982.0</ele><time>2026-04-12T10:14:18.532Z</time></trkpt><trkpt lat="38.4787129" lon="16.2828689"><ele>982.0</ele><time>2026-04-12T10:14:19.537Z</time></trkpt><trkpt lat="38.4786406" lon="16.2827384"><ele>981.5</ele><time>2026-04-12T10:14:20.536Z</time></trkpt><trkpt lat="38.4785712" lon="16.28258"><ele>981.0</ele><time>2026-04-12T10:14:21.525Z</time></trkpt><trkpt lat="38.4784077" lon="16.2822194"><ele>981.0</ele><time>2026-04-12T10:14:23.529Z</time></trkpt><trkpt lat="38.4782995" lon="16.2820057"><ele>981.0</ele><time>2026-04-12T10:14:24.537Z</time></trkpt><trkpt lat="38.4781978" lon="16.2817821"><ele>981.0</ele><time>2026-04-12T10:14:25.53Z</time></trkpt><trkpt lat="38.4781028" lon="16.2815832"><ele>981.5</ele><time>2026-04-12T10:14:26.522Z</time></trkpt><trkpt lat="38.4780365" lon="16.2814029"><ele>982.0</ele><time>2026-04-12T10:14:27.532Z</time></trkpt><trkpt lat="38.4779882" lon="16.2812346"><ele>982.5</ele><time>2026-04-12T10:14:28.524Z</time></trkpt><trkpt lat="38.4779459" lon="16.2810834"><ele>983.0</ele><time>2026-04-12T10:14:29.52Z</time></trkpt><trkpt lat="38.4779209" lon="16.2809254"><ele>982.0</ele><time>2026-04-12T10:14:30.526Z</time></trkpt><trkpt lat="38.4779134" lon="16.2807668"><ele>981.0</ele><time>2026-04-12T10:14:31.53Z</time></trkpt><trkpt lat="38.4779194" lon="16.2806039"><ele>980.0</ele><time>2026-04-12T10:14:32.528Z</time></trkpt><trkpt lat="38.4779185" lon="16.2804455"><ele>979.0</ele><time>2026-04-12T10:14:33.531Z</time></trkpt><trkpt lat="38.4778652" lon="16.28032"><ele>979.0</ele><time>2026-04-12T10:14:34.532Z</time></trkpt><trkpt lat="38.4777843" lon="16.2802074"><ele>979.0</ele><time>2026-04-12T10:14:35.539Z</time></trkpt><trkpt lat="38.4776786" lon="16.2801197"><ele>979.0</ele><time>2026-04-12T10:14:36.527Z</time></trkpt><trkpt lat="38.4775695" lon="16.280037"><ele>979.0</ele><time>2026-04-12T10:14:37.531Z</time></trkpt><trkpt lat="38.4774546" lon="16.2800018"><ele>979.0</ele><time>2026-04-12T10:14:38.523Z</time></trkpt><trkpt lat="38.4773469" lon="16.2799972"><ele>979.0</ele><time>2026-04-12T10:14:39.531Z</time></trkpt><trkpt lat="38.4772583" lon="16.2800519"><ele>979.0</ele><time>2026-04-12T10:14:40.529Z</time></trkpt><trkpt lat="38.4771737" lon="16.2801759"><ele>979.0</ele><time>2026-04-12T10:14:41.542Z</time></trkpt><trkpt lat="38.4770856" lon="16.28032"><ele>984.6666666666666</ele><time>2026-04-12T10:14:42.527Z</time></trkpt><trkpt lat="38.4769358" lon="16.2806453"><ele>990.3333333333333</ele><time>2026-04-12T10:14:44.524Z</time></trkpt><trkpt lat="38.4768826" lon="16.2808257"><ele>996.0</ele><time>2026-04-12T10:14:45.526Z</time></trkpt><trkpt lat="38.4767954" lon="16.2809909"><ele>996.0</ele><time>2026-04-12T10:14:46.533Z</time></trkpt><trkpt lat="38.4767036" lon="16.28113"><ele>996.0</ele><time>2026-04-12T10:14:47.528Z</time></trkpt><trkpt lat="38.4766004" lon="16.2812388"><ele>996.0</ele><time>2026-04-12T10:14:48.525Z</time></trkpt><trkpt lat="38.4764986" lon="16.2813468"><ele>996.0</ele><time>2026-04-12T10:14:49.523Z</time></trkpt><trkpt lat="38.4764085" lon="16.2814629"><ele>993.5</ele><time>2026-04-12T10:14:50.525Z</time></trkpt><trkpt lat="38.4763259" lon="16.2816204"><ele>991.0</ele><time>2026-04-12T10:14:51.529Z</time></trkpt><trkpt lat="38.4762634" lon="16.2817567"><ele>988.5</ele><time>2026-04-12T10:14:52.52Z</time></trkpt><trkpt lat="38.4762397" lon="16.2819366"><ele>986.0</ele><time>2026-04-12T10:14:53.517Z</time></trkpt><trkpt lat="38.4762575" lon="16.2821338"><ele>984.75</ele><time>2026-04-12T10:14:54.533Z</time></trkpt><trkpt lat="38.4762848" lon="16.282314"><ele>983.5</ele><time>2026-04-12T10:14:55.526Z</time></trkpt><trkpt lat="38.4763001" lon="16.2824765"><ele>982.25</ele><time>2026-04-12T10:14:56.521Z</time></trkpt><trkpt lat="38.4763033" lon="16.2826441"><ele>981.0</ele><time>2026-04-12T10:14:57.53Z</time></trkpt><trkpt lat="38.4762798" lon="16.2828161"><ele>985.0</ele><time>2026-04-12T10:14:58.523Z</time></trkpt><trkpt lat="38.4762615" lon="16.2829951"><ele>989.0</ele><time>2026-04-12T10:14:59.519Z</time></trkpt><trkpt lat="38.4761954" lon="16.2831559"><ele>993.0</ele><time>2026-04-12T10:15:00.536Z</time></trkpt><trkpt lat="38.4760863" lon="16.283301"><ele>997.0</ele><time>2026-04-12T10:15:01.535Z</time></trkpt><trkpt lat="38.4759637" lon="16.2834319"><ele>997.0</ele><time>2026-04-12T10:15:02.527Z</time></trkpt><trkpt lat="38.475856" lon="16.2835725"><ele>997.0</ele><time>2026-04-12T10:15:03.534Z</time></trkpt><trkpt lat="38.4756082" lon="16.2837597"><ele>997.0</ele><time>2026-04-12T10:15:05.518Z</time></trkpt><trkpt lat="38.475457" lon="16.2838153"><ele>997.3333333333333</ele><time>2026-04-12T10:15:06.526Z</time></trkpt><trkpt lat="38.4753031" lon="16.283861"><ele>997.6666666666667</ele><time>2026-04-12T10:15:07.527Z</time></trkpt><trkpt lat="38.4751561" lon="16.2839014"><ele>998.0</ele><time>2026-04-12T10:15:08.521Z</time></trkpt><trkpt lat="38.4750129" lon="16.2839355"><ele>998.0</ele><time>2026-04-12T10:15:09.521Z</time></trkpt><trkpt lat="38.4748632" lon="16.2839472"><ele>998.0</ele><time>2026-04-12T10:15:10.518Z</time></trkpt><trkpt lat="38.4747217" lon="16.2839134"><ele>998.0</ele><time>2026-04-12T10:15:11.527Z</time></trkpt><trkpt lat="38.4745985" lon="16.283841"><ele>998.0</ele><time>2026-04-12T10:15:12.528Z</time></trkpt><trkpt lat="38.4745034" lon="16.2837323"><ele>998.75</ele><time>2026-04-12T10:15:13.539Z</time></trkpt><trkpt lat="38.4743876" lon="16.283615"><ele>999.5</ele><time>2026-04-12T10:15:14.529Z</time></trkpt><trkpt lat="38.4743141" lon="16.2834814"><ele>1000.25</ele><time>2026-04-12T10:15:15.519Z</time></trkpt><trkpt lat="38.4742457" lon="16.283325"><ele>1001.0</ele><time>2026-04-12T10:15:16.523Z</time></trkpt><trkpt lat="38.4742115" lon="16.2831438"><ele>1002.3333333333334</ele><time>2026-04-12T10:15:17.53Z</time></trkpt><trkpt lat="38.4741575" lon="16.2829379"><ele>1003.6666666666667</ele><time>2026-04-12T10:15:18.523Z</time></trkpt><trkpt lat="38.474121" lon="16.2827264"><ele>1005.0</ele><time>2026-04-12T10:15:19.537Z</time></trkpt><trkpt lat="38.4740894" lon="16.2825268"><ele>1005.0</ele><time>2026-04-12T10:15:20.537Z</time></trkpt><trkpt lat="38.474057" lon="16.2823546"><ele>1005.0</ele><time>2026-04-12T10:15:21.527Z</time></trkpt><trkpt lat="38.4739964" lon="16.2821737"><ele>1005.0</ele><time>2026-04-12T10:15:22.531Z</time></trkpt><trkpt lat="38.4739362" lon="16.2820156"><ele>1005.0</ele><time>2026-04-12T10:15:23.53Z</time></trkpt><trkpt lat="38.4738443" lon="16.2818548"><ele>1005.0</ele><time>2026-04-12T10:15:24.517Z</time></trkpt><trkpt lat="38.4736234" lon="16.2816242"><ele>1005.0</ele><time>2026-04-12T10:15:26.53Z</time></trkpt><trkpt lat="38.4735058" lon="16.2815182"><ele>1005.0</ele><time>2026-04-12T10:15:27.543Z</time></trkpt><trkpt lat="38.4733885" lon="16.2814053"><ele>1005.0</ele><time>2026-04-12T10:15:28.521Z</time></trkpt><trkpt lat="38.4732705" lon="16.2812898"><ele>1005.0</ele><time>2026-04-12T10:15:29.524Z</time></trkpt><trkpt lat="38.4731658" lon="16.2811742"><ele>1005.0</ele><time>2026-04-12T10:15:30.525Z</time></trkpt><trkpt lat="38.4730674" lon="16.2810724"><ele>1005.0</ele><time>2026-04-12T10:15:31.523Z</time></trkpt><trkpt lat="38.4729801" lon="16.2809946"><ele>1006.1666666666666</ele><time>2026-04-12T10:15:32.538Z</time></trkpt><trkpt lat="38.4728811" lon="16.2809443"><ele>1007.3333333333333</ele><time>2026-04-12T10:15:33.522Z</time></trkpt><trkpt lat="38.47279" lon="16.2809247"><ele>1008.5</ele><time>2026-04-12T10:15:34.523Z</time></trkpt><trkpt lat="38.4727074" lon="16.2809436"><ele>1009.6666666666666</ele><time>2026-04-12T10:15:35.525Z</time></trkpt><trkpt lat="38.4726448" lon="16.2809763"><ele>1010.8333333333333</ele><time>2026-04-12T10:15:36.537Z</time></trkpt><trkpt lat="38.4726018" lon="16.2810508"><ele>1012.0</ele><time>2026-04-12T10:15:37.528Z</time></trkpt><trkpt lat="38.4725812" lon="16.281167"><ele>1012.0</ele><time>2026-04-12T10:15:38.521Z</time></trkpt><trkpt lat="38.4725632" lon="16.281308"><ele>1012.0</ele><time>2026-04-12T10:15:39.536Z</time></trkpt><trkpt lat="38.4725462" lon="16.2814793"><ele>1012.0</ele><time>2026-04-12T10:15:40.53Z</time></trkpt><trkpt lat="38.4725364" lon="16.2816613"><ele>1012.0</ele><time>2026-04-12T10:15:41.523Z</time></trkpt><trkpt lat="38.4725105" lon="16.2818733"><ele>1012.3333333333333</ele><time>2026-04-12T10:15:42.52Z</time></trkpt><trkpt lat="38.4724852" lon="16.2821108"><ele>1012.6666666666667</ele><time>2026-04-12T10:15:43.521Z</time></trkpt><trkpt lat="38.4724857" lon="16.282327"><ele>1013.0</ele><time>2026-04-12T10:15:44.524Z</time></trkpt><trkpt lat="38.472493" lon="16.2825268"><ele>1011.3333333333334</ele><time>2026-04-12T10:15:45.524Z</time></trkpt><trkpt lat="38.4724762" lon="16.2828614"><ele>1009.6666666666667</ele><time>2026-04-12T10:15:47.519Z</time></trkpt><trkpt lat="38.4724258" lon="16.2830368"><ele>1008.0</ele><time>2026-04-12T10:15:48.529Z</time></trkpt><trkpt lat="38.4723949" lon="16.2831714"><ele>1007.0</ele><time>2026-04-12T10:15:49.534Z</time></trkpt><trkpt lat="38.4723737" lon="16.2832932"><ele>1006.0</ele><time>2026-04-12T10:15:50.524Z</time></trkpt><trkpt lat="38.4723325" lon="16.283426"><ele>1005.0</ele><time>2026-04-12T10:15:51.525Z</time></trkpt><trkpt lat="38.472274" lon="16.2835455"><ele>1004.0</ele><time>2026-04-12T10:15:52.527Z</time></trkpt><trkpt lat="38.4721765" lon="16.283637"><ele>1003.0</ele><time>2026-04-12T10:15:53.517Z</time></trkpt><trkpt lat="38.472056" lon="16.2837209"><ele>1008.75</ele><time>2026-04-12T10:15:54.525Z</time></trkpt><trkpt lat="38.471921" lon="16.2837585"><ele>1014.5</ele><time>2026-04-12T10:15:55.532Z</time></trkpt><trkpt lat="38.4718204" lon="16.2837664"><ele>1020.25</ele><time>2026-04-12T10:15:56.525Z</time></trkpt><trkpt lat="38.4717129" lon="16.2837201"><ele>1026.0</ele><time>2026-04-12T10:15:57.525Z</time></trkpt><trkpt lat="38.4715997" lon="16.2836638"><ele>1026.0</ele><time>2026-04-12T10:15:58.529Z</time></trkpt><trkpt lat="38.4714738" lon="16.283605"><ele>1026.0</ele><time>2026-04-12T10:15:59.539Z</time></trkpt><trkpt lat="38.4713655" lon="16.2835736"><ele>1026.0</ele><time>2026-04-12T10:16:00.539Z</time></trkpt><trkpt lat="38.4712485" lon="16.2835776"><ele>1026.0</ele><time>2026-04-12T10:16:01.523Z</time></trkpt><trkpt lat="38.4711537" lon="16.2836232"><ele>1026.5</ele><time>2026-04-12T10:16:02.525Z</time></trkpt><trkpt lat="38.4710768" lon="16.2837071"><ele>1027.0</ele><time>2026-04-12T10:16:03.532Z</time></trkpt><trkpt lat="38.4709932" lon="16.2838346"><ele>1027.5</ele><time>2026-04-12T10:16:04.529Z</time></trkpt><trkpt lat="38.470927" lon="16.284004"><ele>1028.0</ele><time>2026-04-12T10:16:05.531Z</time></trkpt><trkpt lat="38.4708669" lon="16.2841694"><ele>1028.0</ele><time>2026-04-12T10:16:06.536Z</time></trkpt><trkpt lat="38.4707087" lon="16.2844553"><ele>1028.0</ele><time>2026-04-12T10:16:08.523Z</time></trkpt><trkpt lat="38.4706224" lon="16.2845777"><ele>1028.0</ele><time>2026-04-12T10:16:09.532Z</time></trkpt><trkpt lat="38.4705454" lon="16.2846503"><ele>1028.0</ele><time>2026-04-12T10:16:10.53Z</time></trkpt><trkpt lat="38.4704719" lon="16.2846775"><ele>1028.0</ele><time>2026-04-12T10:16:11.53Z</time></trkpt><trkpt lat="38.4704072" lon="16.2847338"><ele>1028.0</ele><time>2026-04-12T10:16:12.528Z</time></trkpt><trkpt lat="38.4703315" lon="16.284758"><ele>1028.0</ele><time>2026-04-12T10:16:13.531Z</time></trkpt><trkpt lat="38.4702594" lon="16.2847755"><ele>1028.0</ele><time>2026-04-12T10:16:14.535Z</time></trkpt><trkpt lat="38.4701842" lon="16.2847037"><ele>1028.0</ele><time>2026-04-12T10:16:15.539Z</time></trkpt><trkpt lat="38.4701056" lon="16.2846197"><ele>1026.6</ele><time>2026-04-12T10:16:16.531Z</time></trkpt><trkpt lat="38.4700298" lon="16.2844949"><ele>1025.1999999999998</ele><time>2026-04-12T10:16:17.533Z</time></trkpt><trkpt lat="38.470029" lon="16.2843636"><ele>1023.8</ele><time>2026-04-12T10:16:18.532Z</time></trkpt><trkpt lat="38.4700494" lon="16.2842322"><ele>1022.4</ele><time>2026-04-12T10:16:19.528Z</time></trkpt><trkpt lat="38.470068" lon="16.2840912"><ele>1021.0</ele><time>2026-04-12T10:16:20.534Z</time></trkpt><trkpt lat="38.4700851" lon="16.2839345"><ele>1024.3999999999999</ele><time>2026-04-12T10:16:21.523Z</time></trkpt><trkpt lat="38.4700878" lon="16.2837799"><ele>1027.8</ele><time>2026-04-12T10:16:22.518Z</time></trkpt><trkpt lat="38.4700664" lon="16.2836492"><ele>1031.1999999999998</ele><time>2026-04-12T10:16:23.528Z</time></trkpt><trkpt lat="38.4700475" lon="16.2835417"><ele>1034.6</ele><time>2026-04-12T10:16:24.536Z</time></trkpt><trkpt lat="38.4699765" lon="16.2834769"><ele>1038.0</ele><time>2026-04-12T10:16:25.52Z</time></trkpt><trkpt lat="38.4698939" lon="16.2834523"><ele>1038.0</ele><time>2026-04-12T10:16:26.535Z</time></trkpt><trkpt lat="38.469807" lon="16.2834663"><ele>1038.0</ele><time>2026-04-12T10:16:27.544Z</time></trkpt><trkpt lat="38.4696681" lon="16.2835471"><ele>1038.0</ele><time>2026-04-12T10:16:29.532Z</time></trkpt><trkpt lat="38.4695971" lon="16.2835811"><ele>1038.0</ele><time>2026-04-12T10:16:30.531Z</time></trkpt><trkpt lat="38.4695123" lon="16.2836408"><ele>1038.0</ele><time>2026-04-12T10:16:31.526Z</time></trkpt><trkpt lat="38.4694209" lon="16.2837185"><ele>1037.3333333333333</ele><time>2026-04-12T10:16:32.533Z</time></trkpt><trkpt lat="38.4693328" lon="16.2837785"><ele>1036.6666666666667</ele><time>2026-04-12T10:16:33.534Z</time></trkpt><trkpt lat="38.4692586" lon="16.2838002"><ele>1036.0</ele><time>2026-04-12T10:16:34.524Z</time></trkpt><trkpt lat="38.4691771" lon="16.2837753"><ele>1035.3333333333335</ele><time>2026-04-12T10:16:35.529Z</time></trkpt><trkpt lat="38.4690976" lon="16.2837212"><ele>1034.6666666666667</ele><time>2026-04-12T10:16:36.535Z</time></trkpt><trkpt lat="38.4690414" lon="16.2836371"><ele>1034.0</ele><time>2026-04-12T10:16:37.526Z</time></trkpt><trkpt lat="38.4689924" lon="16.2835421"><ele>1034.0</ele><time>2026-04-12T10:16:38.532Z</time></trkpt><trkpt lat="38.4689396" lon="16.28341"><ele>1034.0</ele><time>2026-04-12T10:16:39.53Z</time></trkpt><trkpt lat="38.4688963" lon="16.2832591"><ele>1034.0</ele><time>2026-04-12T10:16:40.527Z</time></trkpt><trkpt lat="38.4688564" lon="16.2830801"><ele>1034.0</ele><time>2026-04-12T10:16:41.529Z</time></trkpt><trkpt lat="38.4688307" lon="16.2829148"><ele>1035.0</ele><time>2026-04-12T10:16:42.52Z</time></trkpt><trkpt lat="38.4688168" lon="16.2827178"><ele>1036.0</ele><time>2026-04-12T10:16:43.519Z</time></trkpt><trkpt lat="38.4688049" lon="16.2825208"><ele>1037.0</ele><time>2026-04-12T10:16:44.538Z</time></trkpt><trkpt lat="38.4687761" lon="16.282339"><ele>1036.5</ele><time>2026-04-12T10:16:45.53Z</time></trkpt><trkpt lat="38.4687675" lon="16.2821544"><ele>1036.0</ele><time>2026-04-12T10:16:46.523Z</time></trkpt><trkpt lat="38.4687525" lon="16.2819753"><ele>1035.5</ele><time>2026-04-12T10:16:47.543Z</time></trkpt><trkpt lat="38.4687443" lon="16.2817969"><ele>1035.0</ele><time>2026-04-12T10:16:48.531Z</time></trkpt><trkpt lat="38.468789" lon="16.2814666"><ele>1034.25</ele><time>2026-04-12T10:16:50.542Z</time></trkpt><trkpt lat="38.4688122" lon="16.2813098"><ele>1033.5</ele><time>2026-04-12T10:16:51.536Z</time></trkpt><trkpt lat="38.4688275" lon="16.2811431"><ele>1032.75</ele><time>2026-04-12T10:16:52.521Z</time></trkpt><trkpt lat="38.4688157" lon="16.2809869"><ele>1032.0</ele><time>2026-04-12T10:16:53.533Z</time></trkpt><trkpt lat="38.4687821" lon="16.2808411"><ele>1028.75</ele><time>2026-04-12T10:16:54.528Z</time></trkpt><trkpt lat="38.4687293" lon="16.2807071"><ele>1025.5</ele><time>2026-04-12T10:16:55.524Z</time></trkpt><trkpt lat="38.468657" lon="16.2805916"><ele>1022.25</ele><time>2026-04-12T10:16:56.531Z</time></trkpt><trkpt lat="38.4685726" lon="16.2804923"><ele>1019.0</ele><time>2026-04-12T10:16:57.537Z</time></trkpt><trkpt lat="38.468493" lon="16.2803948"><ele>1019.0</ele><time>2026-04-12T10:16:58.539Z</time></trkpt><trkpt lat="38.4684107" lon="16.2803015"><ele>1019.0</ele><time>2026-04-12T10:16:59.541Z</time></trkpt><trkpt lat="38.4683604" lon="16.2801618"><ele>1019.0</ele><time>2026-04-12T10:17:00.525Z</time></trkpt><trkpt lat="38.4683209" lon="16.2799993"><ele>1019.0</ele><time>2026-04-12T10:17:01.54Z</time></trkpt><trkpt lat="38.468312" lon="16.2798374"><ele>1019.75</ele><time>2026-04-12T10:17:02.525Z</time></trkpt><trkpt lat="38.468301" lon="16.2796777"><ele>1020.5</ele><time>2026-04-12T10:17:03.529Z</time></trkpt><trkpt lat="38.4682761" lon="16.2795425"><ele>1021.25</ele><time>2026-04-12T10:17:04.527Z</time></trkpt><trkpt lat="38.468228" lon="16.2793956"><ele>1022.0</ele><time>2026-04-12T10:17:05.535Z</time></trkpt><trkpt lat="38.4681715" lon="16.2792856"><ele>1022.0</ele><time>2026-04-12T10:17:06.533Z</time></trkpt><trkpt lat="38.4680843" lon="16.2792118"><ele>1022.0</ele><time>2026-04-12T10:17:07.536Z</time></trkpt><trkpt lat="38.4679872" lon="16.2791424"><ele>1022.0</ele><time>2026-04-12T10:17:08.529Z</time></trkpt><trkpt lat="38.467884" lon="16.2790754"><ele>1022.0</ele><time>2026-04-12T10:17:09.561Z</time></trkpt><trkpt lat="38.4676656" lon="16.2789433"><ele>1022.25</ele><time>2026-04-12T10:17:11.533Z</time></trkpt><trkpt lat="38.4675455" lon="16.278869"><ele>1022.5</ele><time>2026-04-12T10:17:12.537Z</time></trkpt><trkpt lat="38.4674325" lon="16.2787605"><ele>1022.75</ele><time>2026-04-12T10:17:13.533Z</time></trkpt><trkpt lat="38.4673275" lon="16.2786337"><ele>1023.0</ele><time>2026-04-12T10:17:14.526Z</time></trkpt><trkpt lat="38.4672284" lon="16.2784997"><ele>1023.0</ele><time>2026-04-12T10:17:15.54Z</time></trkpt><trkpt lat="38.4671299" lon="16.2783593"><ele>1023.0</ele><time>2026-04-12T10:17:16.532Z</time></trkpt><trkpt lat="38.4670301" lon="16.2782118"><ele>1023.0</ele><time>2026-04-12T10:17:17.531Z</time></trkpt><trkpt lat="38.4669254" lon="16.278064"><ele>1022.0</ele><time>2026-04-12T10:17:18.528Z</time></trkpt><trkpt lat="38.4668271" lon="16.2779231"><ele>1021.0</ele><time>2026-04-12T10:17:19.537Z</time></trkpt><trkpt lat="38.4667374" lon="16.2777942"><ele>1020.0</ele><time>2026-04-12T10:17:20.536Z</time></trkpt><trkpt lat="38.4666476" lon="16.2776608"><ele>1019.0</ele><time>2026-04-12T10:17:21.54Z</time></trkpt><trkpt lat="38.4665736" lon="16.2775302"><ele>1019.0</ele><time>2026-04-12T10:17:22.533Z</time></trkpt><trkpt lat="38.4665056" lon="16.2773955"><ele>1019.0</ele><time>2026-04-12T10:17:23.537Z</time></trkpt><trkpt lat="38.4664738" lon="16.277241"><ele>1019.0</ele><time>2026-04-12T10:17:24.524Z</time></trkpt><trkpt lat="38.4664717" lon="16.2770515"><ele>1019.0</ele><time>2026-04-12T10:17:25.529Z</time></trkpt><trkpt lat="38.4664811" lon="16.2768429"><ele>1019.3333333333334</ele><time>2026-04-12T10:17:26.524Z</time></trkpt><trkpt lat="38.4664875" lon="16.2766544"><ele>1019.6666666666667</ele><time>2026-04-12T10:17:27.525Z</time></trkpt><trkpt lat="38.4664858" lon="16.2764571"><ele>1020.0</ele><time>2026-04-12T10:17:28.522Z</time></trkpt><trkpt lat="38.4664745" lon="16.2762595"><ele>1019.3333333333333</ele><time>2026-04-12T10:17:29.527Z</time></trkpt><trkpt lat="38.4664749" lon="16.2760848"><ele>1018.6666666666666</ele><time>2026-04-12T10:17:30.523Z</time></trkpt><trkpt lat="38.4665007" lon="16.2757703"><ele>1018.0</ele><time>2026-04-12T10:17:32.53Z</time></trkpt><trkpt lat="38.4665019" lon="16.2756063"><ele>1016.5</ele><time>2026-04-12T10:17:33.529Z</time></trkpt><trkpt lat="38.4664904" lon="16.2754487"><ele>1015.0</ele><time>2026-04-12T10:17:34.519Z</time></trkpt><trkpt lat="38.4665014" lon="16.2752896"><ele>1013.5</ele><time>2026-04-12T10:17:35.53Z</time></trkpt><trkpt lat="38.4665428" lon="16.2751399"><ele>1012.0</ele><time>2026-04-12T10:17:36.533Z</time></trkpt><trkpt lat="38.4666162" lon="16.2749992"><ele>1012.0</ele><time>2026-04-12T10:17:37.523Z</time></trkpt><trkpt lat="38.4666897" lon="16.2748452"><ele>1012.0</ele><time>2026-04-12T10:17:38.528Z</time></trkpt><trkpt lat="38.4667569" lon="16.2747148"><ele>1012.0</ele><time>2026-04-12T10:17:39.532Z</time></trkpt><trkpt lat="38.4668102" lon="16.2745852"><ele>1012.0</ele><time>2026-04-12T10:17:40.52Z</time></trkpt><trkpt lat="38.4668898" lon="16.2744789"><ele>1010.8</ele><time>2026-04-12T10:17:41.528Z</time></trkpt><trkpt lat="38.4669487" lon="16.2743505"><ele>1009.6</ele><time>2026-04-12T10:17:42.536Z</time></trkpt><trkpt lat="38.4669691" lon="16.2742293"><ele>1008.3999999999999</ele><time>2026-04-12T10:17:43.524Z</time></trkpt><trkpt lat="38.466958" lon="16.2741366"><ele>1007.1999999999999</ele><time>2026-04-12T10:17:44.531Z</time></trkpt><trkpt lat="38.4669096" lon="16.2740618"><ele>1006.0</ele><time>2026-04-12T10:17:45.544Z</time></trkpt><trkpt lat="38.4668389" lon="16.2739821"><ele>1007.5</ele><time>2026-04-12T10:17:46.536Z</time></trkpt><trkpt lat="38.4667597" lon="16.2739139"><ele>1009.0</ele><time>2026-04-12T10:17:47.528Z</time></trkpt><trkpt lat="38.4666467" lon="16.2738102"><ele>1010.5</ele><time>2026-04-12T10:17:48.536Z</time></trkpt><trkpt lat="38.4665293" lon="16.2737179"><ele>1012.0</ele><time>2026-04-12T10:17:49.53Z</time></trkpt><trkpt lat="38.4663757" lon="16.2736612"><ele>1012.0</ele><time>2026-04-12T10:17:50.532Z</time></trkpt><trkpt lat="38.4662205" lon="16.273661"><ele>1012.0</ele><time>2026-04-12T10:17:51.528Z</time></trkpt><trkpt lat="38.4659284" lon="16.2736721"><ele>1012.0</ele><time>2026-04-12T10:17:53.528Z</time></trkpt><trkpt lat="38.4657982" lon="16.2736789"><ele>1012.0</ele><time>2026-04-12T10:17:54.526Z</time></trkpt><trkpt lat="38.465642" lon="16.2736589"><ele>1012.0</ele><time>2026-04-12T10:17:55.53Z</time></trkpt><trkpt lat="38.4655296" lon="16.2736596"><ele>1012.0</ele><time>2026-04-12T10:17:56.535Z</time></trkpt><trkpt lat="38.4654243" lon="16.2736349"><ele>1012.0</ele><time>2026-04-12T10:17:57.524Z</time></trkpt><trkpt lat="38.4653248" lon="16.2735822"><ele>1013.2</ele><time>2026-04-12T10:17:58.528Z</time></trkpt><trkpt lat="38.4652404" lon="16.2735127"><ele>1014.4000000000001</ele><time>2026-04-12T10:17:59.533Z</time></trkpt><trkpt lat="38.4651456" lon="16.2734695"><ele>1015.5999999999999</ele><time>2026-04-12T10:18:00.528Z</time></trkpt><trkpt lat="38.4650437" lon="16.2734178"><ele>1016.8</ele><time>2026-04-12T10:18:01.535Z</time></trkpt><trkpt lat="38.4649312" lon="16.2733989"><ele>1018.0</ele><time>2026-04-12T10:18:02.541Z</time></trkpt><trkpt lat="38.4648362" lon="16.2734269"><ele>1018.0</ele><time>2026-04-12T10:18:03.542Z</time></trkpt><trkpt lat="38.4647629" lon="16.2734919"><ele>1018.0</ele><time>2026-04-12T10:18:04.527Z</time></trkpt><trkpt lat="38.464703" lon="16.273575"><ele>1018.0</ele><time>2026-04-12T10:18:05.542Z</time></trkpt><trkpt lat="38.4646975" lon="16.2737217"><ele>1018.0</ele><time>2026-04-12T10:18:06.529Z</time></trkpt><trkpt lat="38.4647183" lon="16.2738519"><ele>1018.0</ele><time>2026-04-12T10:18:07.522Z</time></trkpt><trkpt lat="38.4647879" lon="16.273961"><ele>1018.25</ele><time>2026-04-12T10:18:08.532Z</time></trkpt><trkpt lat="38.4648463" lon="16.2741129"><ele>1018.5</ele><time>2026-04-12T10:18:09.534Z</time></trkpt><trkpt lat="38.4649184" lon="16.2742654"><ele>1018.75</ele><time>2026-04-12T10:18:10.522Z</time></trkpt><trkpt lat="38.4649914" lon="16.2744674"><ele>1019.0</ele><time>2026-04-12T10:18:11.546Z</time></trkpt><trkpt lat="38.4650419" lon="16.2746531"><ele>1020.0</ele><time>2026-04-12T10:18:12.528Z</time></trkpt><trkpt lat="38.4650726" lon="16.2749785"><ele>1021.0</ele><time>2026-04-12T10:18:14.528Z</time></trkpt><trkpt lat="38.4650578" lon="16.2751077"><ele>1022.0</ele><time>2026-04-12T10:18:15.538Z</time></trkpt><trkpt lat="38.4650085" lon="16.2752847"><ele>1022.0</ele><time>2026-04-12T10:18:16.544Z</time></trkpt><trkpt lat="38.4649449" lon="16.2754673"><ele>1022.0</ele><time>2026-04-12T10:18:17.532Z</time></trkpt><trkpt lat="38.4648539" lon="16.275627"><ele>1022.0</ele><time>2026-04-12T10:18:18.536Z</time></trkpt><trkpt lat="38.4647649" lon="16.2757391"><ele>1022.0</ele><time>2026-04-12T10:18:19.536Z</time></trkpt><trkpt lat="38.4646764" lon="16.2758288"><ele>1022.4000000000001</ele><time>2026-04-12T10:18:20.521Z</time></trkpt><trkpt lat="38.4645753" lon="16.2758812"><ele>1022.8000000000001</ele><time>2026-04-12T10:18:21.53Z</time></trkpt><trkpt lat="38.464469" lon="16.2759546"><ele>1023.2</ele><time>2026-04-12T10:18:22.543Z</time></trkpt><trkpt lat="38.4643645" lon="16.2759607"><ele>1023.6</ele><time>2026-04-12T10:18:23.536Z</time></trkpt><trkpt lat="38.4642516" lon="16.2759599"><ele>1024.0</ele><time>2026-04-12T10:18:24.538Z</time></trkpt><trkpt lat="38.4641498" lon="16.275952"><ele>1024.0</ele><time>2026-04-12T10:18:25.532Z</time></trkpt><trkpt lat="38.4640535" lon="16.2759314"><ele>1024.0</ele><time>2026-04-12T10:18:26.528Z</time></trkpt><trkpt lat="38.4639674" lon="16.2759036"><ele>1024.0</ele><time>2026-04-12T10:18:27.536Z</time></trkpt><trkpt lat="38.4638813" lon="16.2758639"><ele>1024.0</ele><time>2026-04-12T10:18:28.543Z</time></trkpt><trkpt lat="38.4637938" lon="16.2758245"><ele>1024.0</ele><time>2026-04-12T10:18:29.543Z</time></trkpt><trkpt lat="38.4636875" lon="16.2757352"><ele>1024.6666666666665</ele><time>2026-04-12T10:18:30.531Z</time></trkpt><trkpt lat="38.4635475" lon="16.2756336"><ele>1025.3333333333333</ele><time>2026-04-12T10:18:31.538Z</time></trkpt><trkpt lat="38.4634226" lon="16.2755135"><ele>1026.0</ele><time>2026-04-12T10:18:32.531Z</time></trkpt><trkpt lat="38.463276" lon="16.2754147"><ele>1029.5</ele><time>2026-04-12T10:18:33.536Z</time></trkpt><trkpt lat="38.462913" lon="16.2752671"><ele>1033.0</ele><time>2026-04-12T10:18:35.534Z</time></trkpt><trkpt lat="38.4627167" lon="16.2752074"><ele>1033.0</ele><time>2026-04-12T10:18:36.539Z</time></trkpt><trkpt lat="38.4625235" lon="16.2751289"><ele>1033.0</ele><time>2026-04-12T10:18:37.535Z</time></trkpt><trkpt lat="38.4623595" lon="16.2750478"><ele>1033.0</ele><time>2026-04-12T10:18:38.545Z</time></trkpt><trkpt lat="38.4622062" lon="16.2749429"><ele>1033.3333333333333</ele><time>2026-04-12T10:18:39.536Z</time></trkpt><trkpt lat="38.4620678" lon="16.2748438"><ele>1033.6666666666667</ele><time>2026-04-12T10:18:40.54Z</time></trkpt><trkpt lat="38.4619266" lon="16.2747388"><ele>1034.0</ele><time>2026-04-12T10:18:41.538Z</time></trkpt><trkpt lat="38.4617699" lon="16.2746448"><ele>1035.6666666666667</ele><time>2026-04-12T10:18:42.526Z</time></trkpt><trkpt lat="38.4616334" lon="16.274558"><ele>1037.3333333333333</ele><time>2026-04-12T10:18:43.533Z</time></trkpt><trkpt lat="38.4614865" lon="16.2744969"><ele>1039.0</ele><time>2026-04-12T10:18:44.529Z</time></trkpt><trkpt lat="38.4613491" lon="16.2744383"><ele>1037.3333333333333</ele><time>2026-04-12T10:18:45.529Z</time></trkpt><trkpt lat="38.461201" lon="16.2743906"><ele>1035.6666666666667</ele><time>2026-04-12T10:18:46.531Z</time></trkpt><trkpt lat="38.461056" lon="16.274356"><ele>1034.0</ele><time>2026-04-12T10:18:47.535Z</time></trkpt><trkpt lat="38.4608992" lon="16.2743221"><ele>1034.0</ele><time>2026-04-12T10:18:48.537Z</time></trkpt><trkpt lat="38.4607412" lon="16.2742887"><ele>1034.0</ele><time>2026-04-12T10:18:49.539Z</time></trkpt><trkpt lat="38.4605966" lon="16.2742765"><ele>1034.0</ele><time>2026-04-12T10:18:50.53Z</time></trkpt><trkpt lat="38.4604776" lon="16.2742322"><ele>1034.0</ele><time>2026-04-12T10:18:51.53Z</time></trkpt><trkpt lat="38.4603745" lon="16.2742013"><ele>1032.0</ele><time>2026-04-12T10:18:52.535Z</time></trkpt><trkpt lat="38.4602888" lon="16.2741252"><ele>1030.0</ele><time>2026-04-12T10:18:53.536Z</time></trkpt><trkpt lat="38.4602354" lon="16.2740259"><ele>1028.0</ele><time>2026-04-12T10:18:54.534Z</time></trkpt><trkpt lat="38.4601927" lon="16.2737866"><ele>1026.0</ele><time>2026-04-12T10:18:56.537Z</time></trkpt><trkpt lat="38.4602425" lon="16.2736483"><ele>1025.25</ele><time>2026-04-12T10:18:57.535Z</time></trkpt><trkpt lat="38.4602895" lon="16.2735383"><ele>1024.5</ele><time>2026-04-12T10:18:58.538Z</time></trkpt><trkpt lat="38.4603747" lon="16.2734081"><ele>1023.75</ele><time>2026-04-12T10:18:59.529Z</time></trkpt><trkpt lat="38.4604486" lon="16.2732762"><ele>1023.0</ele><time>2026-04-12T10:19:00.537Z</time></trkpt><trkpt lat="38.4605021" lon="16.2731686"><ele>1024.4</ele><time>2026-04-12T10:19:01.531Z</time></trkpt><trkpt lat="38.4605757" lon="16.2730371"><ele>1025.8</ele><time>2026-04-12T10:19:02.531Z</time></trkpt><trkpt lat="38.4606313" lon="16.2729288"><ele>1027.2</ele><time>2026-04-12T10:19:03.544Z</time></trkpt><trkpt lat="38.4606689" lon="16.2728071"><ele>1028.6</ele><time>2026-04-12T10:19:04.519Z</time></trkpt><trkpt lat="38.4606759" lon="16.2727017"><ele>1030.0</ele><time>2026-04-12T10:19:05.535Z</time></trkpt><trkpt lat="38.4606541" lon="16.2725838"><ele>1030.0</ele><time>2026-04-12T10:19:06.525Z</time></trkpt><trkpt lat="38.4606191" lon="16.2724745"><ele>1030.0</ele><time>2026-04-12T10:19:07.526Z</time></trkpt><trkpt lat="38.4605519" lon="16.2723548"><ele>1030.0</ele><time>2026-04-12T10:19:08.527Z</time></trkpt><trkpt lat="38.4604819" lon="16.2722208"><ele>1030.0</ele><time>2026-04-12T10:19:09.53Z</time></trkpt><trkpt lat="38.4603987" lon="16.2720771"><ele>1031.0</ele><time>2026-04-12T10:19:10.529Z</time></trkpt><trkpt lat="38.4603063" lon="16.2719667"><ele>1032.0</ele><time>2026-04-12T10:19:11.517Z</time></trkpt><trkpt lat="38.4601993" lon="16.2718555"><ele>1033.0</ele><time>2026-04-12T10:19:12.527Z</time></trkpt><trkpt lat="38.46008" lon="16.271772"><ele>1034.0</ele><time>2026-04-12T10:19:13.529Z</time></trkpt><trkpt lat="38.4599613" lon="16.2716717"><ele>1034.0</ele><time>2026-04-12T10:19:14.528Z</time></trkpt><trkpt lat="38.4598466" lon="16.2715831"><ele>1034.0</ele><time>2026-04-12T10:19:15.532Z</time></trkpt><trkpt lat="38.4596884" lon="16.2714848"><ele>1034.0</ele><time>2026-04-12T10:19:17.524Z</time></trkpt><trkpt lat="38.4596332" lon="16.2714117"><ele>1034.0</ele><time>2026-04-12T10:19:18.534Z</time></trkpt><trkpt lat="38.4595558" lon="16.2713483"><ele>1035.0</ele><time>2026-04-12T10:19:19.528Z</time></trkpt><trkpt lat="38.4594728" lon="16.2712615"><ele>1036.0</ele><time>2026-04-12T10:19:20.524Z</time></trkpt><trkpt lat="38.4593658" lon="16.2711724"><ele>1037.0</ele><time>2026-04-12T10:19:21.53Z</time></trkpt><trkpt lat="38.459266" lon="16.2710891"><ele>1038.0</ele><time>2026-04-12T10:19:22.534Z</time></trkpt><trkpt lat="38.459129" lon="16.2709955"><ele>1038.0</ele><time>2026-04-12T10:19:23.52Z</time></trkpt><trkpt lat="38.4589634" lon="16.2709101"><ele>1038.0</ele><time>2026-04-12T10:19:24.535Z</time></trkpt><trkpt lat="38.4587857" lon="16.2708327"><ele>1038.0</ele><time>2026-04-12T10:19:25.525Z</time></trkpt><trkpt lat="38.4585955" lon="16.2707531"><ele>1036.3333333333333</ele><time>2026-04-12T10:19:26.528Z</time></trkpt><trkpt lat="38.458397" lon="16.2706655"><ele>1034.6666666666665</ele><time>2026-04-12T10:19:27.533Z</time></trkpt><trkpt lat="38.4582185" lon="16.2705689"><ele>1033.0</ele><time>2026-04-12T10:19:28.527Z</time></trkpt><trkpt lat="38.4580504" lon="16.2704968"><ele>1037.0</ele><time>2026-04-12T10:19:29.523Z</time></trkpt><trkpt lat="38.4579027" lon="16.2704241"><ele>1041.0</ele><time>2026-04-12T10:19:30.529Z</time></trkpt><trkpt lat="38.457763" lon="16.2703525"><ele>1045.0</ele><time>2026-04-12T10:19:31.527Z</time></trkpt><trkpt lat="38.4576032" lon="16.2702578"><ele>1045.0</ele><time>2026-04-12T10:19:32.527Z</time></trkpt><trkpt lat="38.4574441" lon="16.2701961"><ele>1045.0</ele><time>2026-04-12T10:19:33.525Z</time></trkpt><trkpt lat="38.457296" lon="16.2701281"><ele>1045.0</ele><time>2026-04-12T10:19:34.527Z</time></trkpt><trkpt lat="38.4571615" lon="16.2700539"><ele>1044.0</ele><time>2026-04-12T10:19:35.532Z</time></trkpt><trkpt lat="38.4570149" lon="16.269946"><ele>1043.0</ele><time>2026-04-12T10:19:36.522Z</time></trkpt><trkpt lat="38.4567049" lon="16.2696877"><ele>1044.3333333333335</ele><time>2026-04-12T10:19:38.523Z</time></trkpt><trkpt lat="38.4565557" lon="16.2695598"><ele>1045.6666666666667</ele><time>2026-04-12T10:19:39.522Z</time></trkpt><trkpt lat="38.4564304" lon="16.2694408"><ele>1047.0</ele><time>2026-04-12T10:19:40.534Z</time></trkpt><trkpt lat="38.4563112" lon="16.2693411"><ele>1046.25</ele><time>2026-04-12T10:19:41.529Z</time></trkpt><trkpt lat="38.4562045" lon="16.2692709"><ele>1045.5</ele><time>2026-04-12T10:19:42.529Z</time></trkpt><trkpt lat="38.4561028" lon="16.2692205"><ele>1044.75</ele><time>2026-04-12T10:19:43.537Z</time></trkpt><trkpt lat="38.4559841" lon="16.2691716"><ele>1044.0</ele><time>2026-04-12T10:19:44.539Z</time></trkpt><trkpt lat="38.4558598" lon="16.2691553"><ele>1044.0</ele><time>2026-04-12T10:19:45.537Z</time></trkpt><trkpt lat="38.4557404" lon="16.2691443"><ele>1044.0</ele><time>2026-04-12T10:19:46.533Z</time></trkpt><trkpt lat="38.4556247" lon="16.2691646"><ele>1044.0</ele><time>2026-04-12T10:19:47.542Z</time></trkpt><trkpt lat="38.4555103" lon="16.2692081"><ele>1044.0</ele><time>2026-04-12T10:19:48.533Z</time></trkpt><trkpt lat="38.4553949" lon="16.2692759"><ele>1045.0</ele><time>2026-04-12T10:19:49.524Z</time></trkpt><trkpt lat="38.4552673" lon="16.26934"><ele>1046.0</ele><time>2026-04-12T10:19:50.536Z</time></trkpt><trkpt lat="38.4551421" lon="16.2694191"><ele>1047.0</ele><time>2026-04-12T10:19:51.546Z</time></trkpt><trkpt lat="38.4550036" lon="16.2694999"><ele>1048.0</ele><time>2026-04-12T10:19:52.52Z</time></trkpt><trkpt lat="38.4548646" lon="16.2695524"><ele>1048.0</ele><time>2026-04-12T10:19:53.547Z</time></trkpt><trkpt lat="38.4547351" lon="16.2695831"><ele>1048.0</ele><time>2026-04-12T10:19:54.53Z</time></trkpt><trkpt lat="38.4546082" lon="16.2695914"><ele>1048.0</ele><time>2026-04-12T10:19:55.525Z</time></trkpt><trkpt lat="38.4544614" lon="16.2695893"><ele>1048.0</ele><time>2026-04-12T10:19:56.529Z</time></trkpt><trkpt lat="38.4543191" lon="16.269595"><ele>1047.0</ele><time>2026-04-12T10:19:57.538Z</time></trkpt><trkpt lat="38.4540288" lon="16.2695948"><ele>1046.0</ele><time>2026-04-12T10:19:59.52Z</time></trkpt><trkpt lat="38.4538937" lon="16.2695932"><ele>1045.0</ele><time>2026-04-12T10:20:00.54Z</time></trkpt><trkpt lat="38.453762" lon="16.269589"><ele>1044.75</ele><time>2026-04-12T10:20:01.527Z</time></trkpt><trkpt lat="38.4536249" lon="16.2695678"><ele>1044.5</ele><time>2026-04-12T10:20:02.525Z</time></trkpt><trkpt lat="38.453488" lon="16.2695296"><ele>1044.25</ele><time>2026-04-12T10:20:03.537Z</time></trkpt><trkpt lat="38.4533481" lon="16.2694647"><ele>1044.0</ele><time>2026-04-12T10:20:04.528Z</time></trkpt><trkpt lat="38.4532056" lon="16.2693773"><ele>1044.0</ele><time>2026-04-12T10:20:05.523Z</time></trkpt><trkpt lat="38.453059" lon="16.2692894"><ele>1044.0</ele><time>2026-04-12T10:20:06.525Z</time></trkpt><trkpt lat="38.452917" lon="16.2691929"><ele>1044.0</ele><time>2026-04-12T10:20:07.528Z</time></trkpt><trkpt lat="38.4527711" lon="16.2691003"><ele>1045.3333333333333</ele><time>2026-04-12T10:20:08.526Z</time></trkpt><trkpt lat="38.4526298" lon="16.2690072"><ele>1046.6666666666665</ele><time>2026-04-12T10:20:09.532Z</time></trkpt><trkpt lat="38.452494" lon="16.2689135"><ele>1048.0</ele><time>2026-04-12T10:20:10.524Z</time></trkpt><trkpt lat="38.452369" lon="16.2688334"><ele>1048.0</ele><time>2026-04-12T10:20:11.524Z</time></trkpt><trkpt lat="38.4522614" lon="16.2687684"><ele>1048.0</ele><time>2026-04-12T10:20:12.523Z</time></trkpt><trkpt lat="38.4521683" lon="16.2687229"><ele>1048.0</ele><time>2026-04-12T10:20:13.528Z</time></trkpt><trkpt lat="38.4520834" lon="16.2686585"><ele>1048.0</ele><time>2026-04-12T10:20:14.526Z</time></trkpt><trkpt lat="38.4519729" lon="16.2685865"><ele>1048.0</ele><time>2026-04-12T10:20:15.539Z</time></trkpt><trkpt lat="38.4518565" lon="16.2685082"><ele>1049.0</ele><time>2026-04-12T10:20:16.522Z</time></trkpt><trkpt lat="38.4517478" lon="16.2684331"><ele>1050.0</ele><time>2026-04-12T10:20:17.538Z</time></trkpt><trkpt lat="38.4516916" lon="16.2683256"><ele>1051.0</ele><time>2026-04-12T10:20:18.536Z</time></trkpt><trkpt lat="38.4516383" lon="16.2680857"><ele>1052.0</ele><time>2026-04-12T10:20:20.528Z</time></trkpt><trkpt lat="38.4516327" lon="16.2679738"><ele>1052.0</ele><time>2026-04-12T10:20:21.531Z</time></trkpt><trkpt lat="38.451616" lon="16.2678599"><ele>1052.0</ele><time>2026-04-12T10:20:22.52Z</time></trkpt><trkpt lat="38.4516202" lon="16.2677324"><ele>1052.0</ele><time>2026-04-12T10:20:23.533Z</time></trkpt><trkpt lat="38.4515902" lon="16.2676219"><ele>1052.0</ele><time>2026-04-12T10:20:24.523Z</time></trkpt><trkpt lat="38.4515302" lon="16.2675056"><ele>1052.0</ele><time>2026-04-12T10:20:25.525Z</time></trkpt><trkpt lat="38.4514588" lon="16.2674209"><ele>1052.0</ele><time>2026-04-12T10:20:26.523Z</time></trkpt><trkpt lat="38.4513782" lon="16.2673448"><ele>1052.0</ele><time>2026-04-12T10:20:27.531Z</time></trkpt><trkpt lat="38.4513009" lon="16.2672978"><ele>1052.0</ele><time>2026-04-12T10:20:28.527Z</time></trkpt><trkpt lat="38.4511947" lon="16.2672518"><ele>1052.0</ele><time>2026-04-12T10:20:29.531Z</time></trkpt><trkpt lat="38.451108" lon="16.2671943"><ele>1052.0</ele><time>2026-04-12T10:20:30.533Z</time></trkpt><trkpt lat="38.451032" lon="16.2671647"><ele>1052.6</ele><time>2026-04-12T10:20:31.529Z</time></trkpt><trkpt lat="38.4509217" lon="16.267129"><ele>1053.2</ele><time>2026-04-12T10:20:32.522Z</time></trkpt><trkpt lat="38.4508171" lon="16.2670994"><ele>1053.8</ele><time>2026-04-12T10:20:33.534Z</time></trkpt><trkpt lat="38.4507122" lon="16.2670848"><ele>1054.4</ele><time>2026-04-12T10:20:34.524Z</time></trkpt><trkpt lat="38.4506122" lon="16.2671577"><ele>1055.0</ele><time>2026-04-12T10:20:35.528Z</time></trkpt><trkpt lat="38.4505053" lon="16.2672207"><ele>1054.8</ele><time>2026-04-12T10:20:36.529Z</time></trkpt><trkpt lat="38.4504697" lon="16.2673067"><ele>1054.6</ele><time>2026-04-12T10:20:37.523Z</time></trkpt><trkpt lat="38.450439" lon="16.2673964"><ele>1054.4</ele><time>2026-04-12T10:20:38.524Z</time></trkpt><trkpt lat="38.450438" lon="16.267498"><ele>1054.2</ele><time>2026-04-12T10:20:39.536Z</time></trkpt><trkpt lat="38.4505064" lon="16.2677574"><ele>1054.0</ele><time>2026-04-12T10:20:41.529Z</time></trkpt><trkpt lat="38.4505265" lon="16.267887"><ele>1054.0</ele><time>2026-04-12T10:20:42.531Z</time></trkpt><trkpt lat="38.4505225" lon="16.2680281"><ele>1054.0</ele><time>2026-04-12T10:20:43.54Z</time></trkpt><trkpt lat="38.4505209" lon="16.2682137"><ele>1054.0</ele><time>2026-04-12T10:20:44.529Z</time></trkpt><trkpt lat="38.450486" lon="16.2683918"><ele>1054.0</ele><time>2026-04-12T10:20:45.525Z</time></trkpt><trkpt lat="38.4504474" lon="16.268562"><ele>1054.5</ele><time>2026-04-12T10:20:46.525Z</time></trkpt><trkpt lat="38.4504135" lon="16.2687138"><ele>1055.0</ele><time>2026-04-12T10:20:47.539Z</time></trkpt><trkpt lat="38.450345" lon="16.2688732"><ele>1055.5</ele><time>2026-04-12T10:20:48.521Z</time></trkpt><trkpt lat="38.4502772" lon="16.2689998"><ele>1056.0</ele><time>2026-04-12T10:20:49.536Z</time></trkpt><trkpt lat="38.4501781" lon="16.2690709"><ele>1056.0</ele><time>2026-04-12T10:20:50.532Z</time></trkpt><trkpt lat="38.4501055" lon="16.2691164"><ele>1056.0</ele><time>2026-04-12T10:20:51.527Z</time></trkpt><trkpt lat="38.4500032" lon="16.2691157"><ele>1056.0</ele><time>2026-04-12T10:20:52.525Z</time></trkpt><trkpt lat="38.4498858" lon="16.2690699"><ele>1056.0</ele><time>2026-04-12T10:20:53.531Z</time></trkpt><trkpt lat="38.4497646" lon="16.2690217"><ele>1056.0</ele><time>2026-04-12T10:20:54.532Z</time></trkpt><trkpt lat="38.4496147" lon="16.2689618"><ele>1059.0</ele><time>2026-04-12T10:20:55.526Z</time></trkpt><trkpt lat="38.4494565" lon="16.2688895"><ele>1062.0</ele><time>2026-04-12T10:20:56.517Z</time></trkpt><trkpt lat="38.4493197" lon="16.2688508"><ele>1065.0</ele><time>2026-04-12T10:20:57.535Z</time></trkpt><trkpt lat="38.4491956" lon="16.2687995"><ele>1068.0</ele><time>2026-04-12T10:20:58.525Z</time></trkpt><trkpt lat="38.4490793" lon="16.2687588"><ele>1068.0</ele><time>2026-04-12T10:20:59.524Z</time></trkpt><trkpt lat="38.4489793" lon="16.2687527"><ele>1068.0</ele><time>2026-04-12T10:21:00.531Z</time></trkpt><trkpt lat="38.4488209" lon="16.2687707"><ele>1068.0</ele><time>2026-04-12T10:21:02.531Z</time></trkpt><trkpt lat="38.4487743" lon="16.2688283"><ele>1068.0</ele><time>2026-04-12T10:21:03.531Z</time></trkpt><trkpt lat="38.4487406" lon="16.2689331"><ele>1068.0</ele><time>2026-04-12T10:21:04.527Z</time></trkpt><trkpt lat="38.4487108" lon="16.2690316"><ele>1069.75</ele><time>2026-04-12T10:21:05.523Z</time></trkpt><trkpt lat="38.4486616" lon="16.2691949"><ele>1071.5</ele><time>2026-04-12T10:21:06.53Z</time></trkpt><trkpt lat="38.4486344" lon="16.269388"><ele>1073.25</ele><time>2026-04-12T10:21:07.534Z</time></trkpt><trkpt lat="38.4486306" lon="16.2695723"><ele>1075.0</ele><time>2026-04-12T10:21:08.52Z</time></trkpt><trkpt lat="38.4486336" lon="16.2697244"><ele>1073.0</ele><time>2026-04-12T10:21:09.552Z</time></trkpt><trkpt lat="38.4486151" lon="16.2698755"><ele>1071.0</ele><time>2026-04-12T10:21:10.532Z</time></trkpt><trkpt lat="38.4485841" lon="16.2699683"><ele>1069.0</ele><time>2026-04-12T10:21:11.524Z</time></trkpt><trkpt lat="38.4485311" lon="16.2700646"><ele>1067.0</ele><time>2026-04-12T10:21:12.528Z</time></trkpt><trkpt lat="38.4484662" lon="16.2701139"><ele>1065.0</ele><time>2026-04-12T10:21:13.553Z</time></trkpt><trkpt lat="38.4483763" lon="16.2701348"><ele>1065.0</ele><time>2026-04-12T10:21:14.528Z</time></trkpt><trkpt lat="38.4482871" lon="16.2700839"><ele>1065.0</ele><time>2026-04-12T10:21:15.529Z</time></trkpt><trkpt lat="38.4482061" lon="16.2700354"><ele>1065.0</ele><time>2026-04-12T10:21:16.539Z</time></trkpt><trkpt lat="38.4481648" lon="16.2699245"><ele>1065.0</ele><time>2026-04-12T10:21:17.537Z</time></trkpt><trkpt lat="38.4481223" lon="16.2698212"><ele>1065.0</ele><time>2026-04-12T10:21:18.531Z</time></trkpt><trkpt lat="38.4480691" lon="16.2697"><ele>1068.3333333333333</ele><time>2026-04-12T10:21:19.529Z</time></trkpt><trkpt lat="38.4480232" lon="16.2695516"><ele>1071.6666666666665</ele><time>2026-04-12T10:21:20.526Z</time></trkpt><trkpt lat="38.4479885" lon="16.2694242"><ele>1075.0</ele><time>2026-04-12T10:21:21.533Z</time></trkpt><trkpt lat="38.4479311" lon="16.2691182"><ele>1077.0</ele><time>2026-04-12T10:21:23.532Z</time></trkpt><trkpt lat="38.447917" lon="16.2689315"><ele>1079.0</ele><time>2026-04-12T10:21:24.52Z</time></trkpt><trkpt lat="38.4479154" lon="16.2687442"><ele>1081.0</ele><time>2026-04-12T10:21:25.533Z</time></trkpt><trkpt lat="38.4479259" lon="16.2685487"><ele>1083.0</ele><time>2026-04-12T10:21:26.525Z</time></trkpt><trkpt lat="38.4479945" lon="16.2684057"><ele>1083.0</ele><time>2026-04-12T10:21:27.523Z</time></trkpt><trkpt lat="38.4479835" lon="16.2682853"><ele>1083.0</ele><time>2026-04-12T10:21:28.529Z</time></trkpt><trkpt lat="38.4479528" lon="16.268196"><ele>1083.0</ele><time>2026-04-12T10:21:29.533Z</time></trkpt><trkpt lat="38.4478871" lon="16.2681472"><ele>1083.0</ele><time>2026-04-12T10:21:30.527Z</time></trkpt><trkpt lat="38.4478064" lon="16.2680994"><ele>1083.0</ele><time>2026-04-12T10:21:31.526Z</time></trkpt><trkpt lat="38.4477259" lon="16.2681269"><ele>1083.0</ele><time>2026-04-12T10:21:32.554Z</time></trkpt><trkpt lat="38.4476383" lon="16.2682586"><ele>1084.6</ele><time>2026-04-12T10:21:34.521Z</time></trkpt><trkpt lat="38.4476205" lon="16.2683707"><ele>1086.1999999999998</ele><time>2026-04-12T10:21:35.525Z</time></trkpt><trkpt lat="38.447583" lon="16.2684963"><ele>1087.8</ele><time>2026-04-12T10:21:36.522Z</time></trkpt><trkpt lat="38.4475448" lon="16.2686118"><ele>1089.3999999999999</ele><time>2026-04-12T10:21:37.526Z</time></trkpt><trkpt lat="38.4474781" lon="16.2687031"><ele>1091.0</ele><time>2026-04-12T10:21:38.523Z</time></trkpt><trkpt lat="38.4474065" lon="16.2687649"><ele>1091.0</ele><time>2026-04-12T10:21:39.537Z</time></trkpt><trkpt lat="38.4473436" lon="16.2688169"><ele>1091.0</ele><time>2026-04-12T10:21:40.529Z</time></trkpt><trkpt lat="38.4472843" lon="16.2688963"><ele>1091.0</ele><time>2026-04-12T10:21:41.534Z</time></trkpt><trkpt lat="38.4471458" lon="16.2688373"><ele>1091.0</ele><time>2026-04-12T10:21:43.536Z</time></trkpt><trkpt lat="38.4469334" lon="16.2686976"><ele>1092.3999999999999</ele><time>2026-04-12T10:21:45.529Z</time></trkpt><trkpt lat="38.4468139" lon="16.2686494"><ele>1093.8</ele><time>2026-04-12T10:21:46.532Z</time></trkpt><trkpt lat="38.4466932" lon="16.2686451"><ele>1095.1999999999998</ele><time>2026-04-12T10:21:47.535Z</time></trkpt><trkpt lat="38.4465845" lon="16.2686458"><ele>1096.6</ele><time>2026-04-12T10:21:48.525Z</time></trkpt><trkpt lat="38.4465112" lon="16.268688"><ele>1098.0</ele><time>2026-04-12T10:21:49.532Z</time></trkpt><trkpt lat="38.4464582" lon="16.2687506"><ele>1098.0</ele><time>2026-04-12T10:21:50.533Z</time></trkpt><trkpt lat="38.4464191" lon="16.2688486"><ele>1098.0</ele><time>2026-04-12T10:21:51.527Z</time></trkpt><trkpt lat="38.4463732" lon="16.2689673"><ele>1098.0</ele><time>2026-04-12T10:21:52.527Z</time></trkpt><trkpt lat="38.446361" lon="16.269122"><ele>1098.0</ele><time>2026-04-12T10:21:53.534Z</time></trkpt><trkpt lat="38.4463637" lon="16.2692857"><ele>1098.0</ele><time>2026-04-12T10:21:54.523Z</time></trkpt><trkpt lat="38.4463881" lon="16.2694385"><ele>1096.4</ele><time>2026-04-12T10:21:55.528Z</time></trkpt><trkpt lat="38.4464089" lon="16.2695844"><ele>1094.8</ele><time>2026-04-12T10:21:56.528Z</time></trkpt><trkpt lat="38.4464565" lon="16.2696996"><ele>1093.2</ele><time>2026-04-12T10:21:57.525Z</time></trkpt><trkpt lat="38.4464978" lon="16.2698165"><ele>1091.6</ele><time>2026-04-12T10:21:58.535Z</time></trkpt><trkpt lat="38.4465409" lon="16.2699549"><ele>1090.0</ele><time>2026-04-12T10:21:59.53Z</time></trkpt><trkpt lat="38.4465253" lon="16.2700534"><ele>1089.4</ele><time>2026-04-12T10:22:00.529Z</time></trkpt><trkpt lat="38.4464894" lon="16.2701416"><ele>1088.8</ele><time>2026-04-12T10:22:01.529Z</time></trkpt><trkpt lat="38.4464156" lon="16.2702278"><ele>1088.2</ele><time>2026-04-12T10:22:02.537Z</time></trkpt><trkpt lat="38.4463073" lon="16.2703002"><ele>1087.6</ele><time>2026-04-12T10:22:03.524Z</time></trkpt><trkpt lat="38.4462066" lon="16.270352"><ele>1087.0</ele><time>2026-04-12T10:22:04.537Z</time></trkpt><trkpt lat="38.4460154" lon="16.2705107"><ele>1089.4</ele><time>2026-04-12T10:22:06.523Z</time></trkpt><trkpt lat="38.4459226" lon="16.270644"><ele>1091.8000000000002</ele><time>2026-04-12T10:22:07.528Z</time></trkpt><trkpt lat="38.4458408" lon="16.2707586"><ele>1094.2</ele><time>2026-04-12T10:22:08.528Z</time></trkpt><trkpt lat="38.445781" lon="16.2708369"><ele>1096.6000000000001</ele><time>2026-04-12T10:22:09.53Z</time></trkpt><trkpt lat="38.4457169" lon="16.2708916"><ele>1099.0</ele><time>2026-04-12T10:22:10.528Z</time></trkpt><trkpt lat="38.4456473" lon="16.2709242"><ele>1099.0</ele><time>2026-04-12T10:22:11.529Z</time></trkpt><trkpt lat="38.4455743" lon="16.2709268"><ele>1099.0</ele><time>2026-04-12T10:22:12.536Z</time></trkpt><trkpt lat="38.4454318" lon="16.2708827"><ele>1099.0</ele><time>2026-04-12T10:22:14.536Z</time></trkpt><trkpt lat="38.4453419" lon="16.2708362"><ele>1099.0</ele><time>2026-04-12T10:22:15.538Z</time></trkpt><trkpt lat="38.4452768" lon="16.2707616"><ele>1099.0</ele><time>2026-04-12T10:22:16.522Z</time></trkpt><trkpt lat="38.4451955" lon="16.2706923"><ele>1099.5</ele><time>2026-04-12T10:22:17.524Z</time></trkpt><trkpt lat="38.445114" lon="16.2706374"><ele>1100.0</ele><time>2026-04-12T10:22:18.529Z</time></trkpt><trkpt lat="38.4450679" lon="16.2705682"><ele>1100.5</ele><time>2026-04-12T10:22:19.541Z</time></trkpt><trkpt lat="38.4450213" lon="16.2705027"><ele>1101.0</ele><time>2026-04-12T10:22:20.527Z</time></trkpt><trkpt lat="38.4449547" lon="16.2704242"><ele>1101.5</ele><time>2026-04-12T10:22:21.526Z</time></trkpt><trkpt lat="38.4448955" lon="16.2703573"><ele>1102.0</ele><time>2026-04-12T10:22:22.534Z</time></trkpt><trkpt lat="38.4447911" lon="16.2702827"><ele>1103.75</ele><time>2026-04-12T10:22:23.531Z</time></trkpt><trkpt lat="38.4446694" lon="16.2702132"><ele>1105.5</ele><time>2026-04-12T10:22:24.521Z</time></trkpt><trkpt lat="38.4445697" lon="16.270196"><ele>1107.25</ele><time>2026-04-12T10:22:25.535Z</time></trkpt><trkpt lat="38.44439" lon="16.2701855"><ele>1109.0</ele><time>2026-04-12T10:22:27.531Z</time></trkpt><trkpt lat="38.4443116" lon="16.2702521"><ele>1109.5</ele><time>2026-04-12T10:22:28.549Z</time></trkpt><trkpt lat="38.4442636" lon="16.2703512"><ele>1110.0</ele><time>2026-04-12T10:22:29.53Z</time></trkpt><trkpt lat="38.4442143" lon="16.2704626"><ele>1110.5</ele><time>2026-04-12T10:22:30.529Z</time></trkpt><trkpt lat="38.4441889" lon="16.2706219"><ele>1111.0</ele><time>2026-04-12T10:22:31.528Z</time></trkpt><trkpt lat="38.4441729" lon="16.2707986"><ele>1111.0</ele><time>2026-04-12T10:22:32.532Z</time></trkpt><trkpt lat="38.4441581" lon="16.2710084"><ele>1111.0</ele><time>2026-04-12T10:22:33.521Z</time></trkpt><trkpt lat="38.4441564" lon="16.2712086"><ele>1111.0</ele><time>2026-04-12T10:22:34.529Z</time></trkpt><trkpt lat="38.4441332" lon="16.2713897"><ele>1110.25</ele><time>2026-04-12T10:22:35.535Z</time></trkpt><trkpt lat="38.4440944" lon="16.271585"><ele>1109.5</ele><time>2026-04-12T10:22:36.535Z</time></trkpt><trkpt lat="38.4440524" lon="16.2717797"><ele>1108.75</ele><time>2026-04-12T10:22:37.538Z</time></trkpt><trkpt lat="38.4440453" lon="16.2719192"><ele>1108.0</ele><time>2026-04-12T10:22:38.543Z</time></trkpt><trkpt lat="38.4440133" lon="16.2720268"><ele>1108.0</ele><time>2026-04-12T10:22:39.544Z</time></trkpt><trkpt lat="38.4439535" lon="16.2721343"><ele>1108.0</ele><time>2026-04-12T10:22:40.531Z</time></trkpt><trkpt lat="38.4438712" lon="16.2722182"><ele>1108.0</ele><time>2026-04-12T10:22:41.523Z</time></trkpt><trkpt lat="38.4438129" lon="16.2722648"><ele>1108.0</ele><time>2026-04-12T10:22:42.541Z</time></trkpt><trkpt lat="38.4437548" lon="16.2722977"><ele>1108.0</ele><time>2026-04-12T10:22:43.542Z</time></trkpt><trkpt lat="38.4436629" lon="16.2723301"><ele>1108.0</ele><time>2026-04-12T10:22:45.551Z</time></trkpt><trkpt lat="38.4435808" lon="16.2722985"><ele>1108.4</ele><time>2026-04-12T10:22:47.548Z</time></trkpt><trkpt lat="38.443568" lon="16.2721236"><ele>1108.8</ele><time>2026-04-12T10:22:50.551Z</time></trkpt><trkpt lat="38.4435916" lon="16.2720064"><ele>1109.2</ele><time>2026-04-12T10:22:51.553Z</time></trkpt><trkpt lat="38.4436237" lon="16.2718766"><ele>1109.6</ele><time>2026-04-12T10:22:52.524Z</time></trkpt><trkpt lat="38.443659" lon="16.2717513"><ele>1110.0</ele><time>2026-04-12T10:22:53.539Z</time></trkpt><trkpt lat="38.4436956" lon="16.2716188"><ele>1110.0</ele><time>2026-04-12T10:22:54.537Z</time></trkpt><trkpt lat="38.4437274" lon="16.27149"><ele>1110.0</ele><time>2026-04-12T10:22:55.533Z</time></trkpt><trkpt lat="38.4437505" lon="16.2713589"><ele>1110.0</ele><time>2026-04-12T10:22:56.53Z</time></trkpt><trkpt lat="38.4437836" lon="16.271213"><ele>1110.0</ele><time>2026-04-12T10:22:57.53Z</time></trkpt><trkpt lat="38.4438059" lon="16.2710214"><ele>1110.25</ele><time>2026-04-12T10:22:58.534Z</time></trkpt><trkpt lat="38.4438305" lon="16.2708486"><ele>1110.5</ele><time>2026-04-12T10:22:59.52Z</time></trkpt><trkpt lat="38.4438639" lon="16.2706895"><ele>1110.75</ele><time>2026-04-12T10:23:00.534Z</time></trkpt><trkpt lat="38.4439062" lon="16.2705434"><ele>1111.0</ele><time>2026-04-12T10:23:01.534Z</time></trkpt><trkpt lat="38.4439577" lon="16.2704014"><ele>1112.75</ele><time>2026-04-12T10:23:02.52Z</time></trkpt><trkpt lat="38.4440155" lon="16.2702665"><ele>1114.5</ele><time>2026-04-12T10:23:03.532Z</time></trkpt><trkpt lat="38.444062" lon="16.2701183"><ele>1116.25</ele><time>2026-04-12T10:23:04.543Z</time></trkpt><trkpt lat="38.4441008" lon="16.2699419"><ele>1118.0</ele><time>2026-04-12T10:23:05.521Z</time></trkpt><trkpt lat="38.4441349" lon="16.269756"><ele>1123.0</ele><time>2026-04-12T10:23:06.528Z</time></trkpt><trkpt lat="38.4441678" lon="16.2695922"><ele>1128.0</ele><time>2026-04-12T10:23:07.534Z</time></trkpt><trkpt lat="38.4442102" lon="16.2694509"><ele>1133.0</ele><time>2026-04-12T10:23:08.537Z</time></trkpt><trkpt lat="38.4443382" lon="16.2691755"><ele>1133.0</ele><time>2026-04-12T10:23:10.528Z</time></trkpt><trkpt lat="38.4444222" lon="16.2690462"><ele>1133.0</ele><time>2026-04-12T10:23:11.528Z</time></trkpt><trkpt lat="38.4444979" lon="16.2688992"><ele>1133.0</ele><time>2026-04-12T10:23:12.525Z</time></trkpt><trkpt lat="38.4445527" lon="16.2687356"><ele>1133.0</ele><time>2026-04-12T10:23:13.529Z</time></trkpt><trkpt lat="38.4445878" lon="16.2685567"><ele>1131.75</ele><time>2026-04-12T10:23:14.542Z</time></trkpt><trkpt lat="38.4446019" lon="16.2683647"><ele>1130.5</ele><time>2026-04-12T10:23:15.536Z</time></trkpt><trkpt lat="38.4446028" lon="16.2681746"><ele>1129.25</ele><time>2026-04-12T10:23:16.524Z</time></trkpt><trkpt lat="38.4446012" lon="16.2679941"><ele>1128.0</ele><time>2026-04-12T10:23:17.529Z</time></trkpt><trkpt lat="38.4446062" lon="16.2678246"><ele>1126.75</ele><time>2026-04-12T10:23:18.533Z</time></trkpt><trkpt lat="38.4446277" lon="16.2676723"><ele>1125.5</ele><time>2026-04-12T10:23:19.522Z</time></trkpt><trkpt lat="38.444653" lon="16.2675166"><ele>1124.25</ele><time>2026-04-12T10:23:20.531Z</time></trkpt><trkpt lat="38.4447032" lon="16.2673893"><ele>1123.0</ele><time>2026-04-12T10:23:21.535Z</time></trkpt><trkpt lat="38.4448033" lon="16.2672839"><ele>1124.5</ele><time>2026-04-12T10:23:22.528Z</time></trkpt><trkpt lat="38.4449102" lon="16.2671842"><ele>1126.0</ele><time>2026-04-12T10:23:23.525Z</time></trkpt><trkpt lat="38.4450268" lon="16.2670941"><ele>1127.5</ele><time>2026-04-12T10:23:24.525Z</time></trkpt><trkpt lat="38.445145" lon="16.2670172"><ele>1129.0</ele><time>2026-04-12T10:23:25.53Z</time></trkpt><trkpt lat="38.4452633" lon="16.2669512"><ele>1129.0</ele><time>2026-04-12T10:23:26.526Z</time></trkpt><trkpt lat="38.4453546" lon="16.2668914"><ele>1129.0</ele><time>2026-04-12T10:23:27.541Z</time></trkpt><trkpt lat="38.445439" lon="16.2668304"><ele>1129.0</ele><time>2026-04-12T10:23:28.526Z</time></trkpt><trkpt lat="38.4455045" lon="16.2667353"><ele>1129.0</ele><time>2026-04-12T10:23:29.525Z</time></trkpt><trkpt lat="38.4455759" lon="16.2664886"><ele>1128.0</ele><time>2026-04-12T10:23:31.532Z</time></trkpt><trkpt lat="38.4455874" lon="16.2663339"><ele>1127.0</ele><time>2026-04-12T10:23:32.527Z</time></trkpt><trkpt lat="38.4455847" lon="16.2661533"><ele>1126.0</ele><time>2026-04-12T10:23:33.537Z</time></trkpt><trkpt lat="38.4455782" lon="16.2659524"><ele>1125.0</ele><time>2026-04-12T10:23:34.53Z</time></trkpt><trkpt lat="38.4455681" lon="16.2657488"><ele>1122.6666666666667</ele><time>2026-04-12T10:23:35.529Z</time></trkpt><trkpt lat="38.4455606" lon="16.2655462"><ele>1120.3333333333335</ele><time>2026-04-12T10:23:36.529Z</time></trkpt><trkpt lat="38.4455473" lon="16.2653508"><ele>1118.0</ele><time>2026-04-12T10:23:37.55Z</time></trkpt><trkpt lat="38.4455181" lon="16.265163"><ele>1118.0</ele><time>2026-04-12T10:23:38.529Z</time></trkpt><trkpt lat="38.4454681" lon="16.2649766"><ele>1118.0</ele><time>2026-04-12T10:23:39.54Z</time></trkpt><trkpt lat="38.4453962" lon="16.2647847"><ele>1118.0</ele><time>2026-04-12T10:23:40.528Z</time></trkpt><trkpt lat="38.4453113" lon="16.2645764"><ele>1117.3333333333335</ele><time>2026-04-12T10:23:41.54Z</time></trkpt><trkpt lat="38.4452147" lon="16.2643547"><ele>1116.6666666666667</ele><time>2026-04-12T10:23:42.527Z</time></trkpt><trkpt lat="38.4451152" lon="16.2641331"><ele>1116.0</ele><time>2026-04-12T10:23:43.531Z</time></trkpt><trkpt lat="38.4450155" lon="16.2639198"><ele>1115.6666666666667</ele><time>2026-04-12T10:23:44.529Z</time></trkpt><trkpt lat="38.4449189" lon="16.2637096"><ele>1115.3333333333335</ele><time>2026-04-12T10:23:45.527Z</time></trkpt><trkpt lat="38.444827" lon="16.2635012"><ele>1115.0</ele><time>2026-04-12T10:23:46.525Z</time></trkpt><trkpt lat="38.4447532" lon="16.2632908"><ele>1115.0</ele><time>2026-04-12T10:23:47.536Z</time></trkpt><trkpt lat="38.4446994" lon="16.2630827"><ele>1115.0</ele><time>2026-04-12T10:23:48.524Z</time></trkpt><trkpt lat="38.4446618" lon="16.262878"><ele>1115.0</ele><time>2026-04-12T10:23:49.532Z</time></trkpt><trkpt lat="38.4446438" lon="16.2626704"><ele>1115.5</ele><time>2026-04-12T10:23:50.527Z</time></trkpt><trkpt lat="38.4446602" lon="16.2622234"><ele>1116.0</ele><time>2026-04-12T10:23:52.53Z</time></trkpt><trkpt lat="38.4446919" lon="16.2619858"><ele>1116.0</ele><time>2026-04-12T10:23:53.53Z</time></trkpt><trkpt lat="38.444737" lon="16.2617329"><ele>1116.0</ele><time>2026-04-12T10:23:54.526Z</time></trkpt><trkpt lat="38.4447976" lon="16.2614686"><ele>1116.0</ele><time>2026-04-12T10:23:55.524Z</time></trkpt><trkpt lat="38.4448598" lon="16.2612121"><ele>1117.6666666666667</ele><time>2026-04-12T10:23:56.528Z</time></trkpt><trkpt lat="38.4449223" lon="16.2609742"><ele>1119.3333333333335</ele><time>2026-04-12T10:23:57.533Z</time></trkpt><trkpt lat="38.4449785" lon="16.2607648"><ele>1121.0</ele><time>2026-04-12T10:23:58.533Z</time></trkpt><trkpt lat="38.4450292" lon="16.2605788"><ele>1121.25</ele><time>2026-04-12T10:23:59.527Z</time></trkpt><trkpt lat="38.4450654" lon="16.2604093"><ele>1121.5</ele><time>2026-04-12T10:24:00.527Z</time></trkpt><trkpt lat="38.4450931" lon="16.2602547"><ele>1121.75</ele><time>2026-04-12T10:24:01.526Z</time></trkpt><trkpt lat="38.445085" lon="16.2601222"><ele>1122.0</ele><time>2026-04-12T10:24:02.53Z</time></trkpt><trkpt lat="38.4450591" lon="16.2600022"><ele>1122.0</ele><time>2026-04-12T10:24:03.533Z</time></trkpt><trkpt lat="38.4450112" lon="16.2599047"><ele>1122.0</ele><time>2026-04-12T10:24:04.524Z</time></trkpt><trkpt lat="38.4449501" lon="16.2598371"><ele>1122.0</ele><time>2026-04-12T10:24:05.54Z</time></trkpt><trkpt lat="38.444866" lon="16.2597956"><ele>1122.0</ele><time>2026-04-12T10:24:06.532Z</time></trkpt><trkpt lat="38.444767" lon="16.2597684"><ele>1122.0</ele><time>2026-04-12T10:24:07.524Z</time></trkpt><trkpt lat="38.4446622" lon="16.2597442"><ele>1121.75</ele><time>2026-04-12T10:24:08.53Z</time></trkpt><trkpt lat="38.4445585" lon="16.2597034"><ele>1121.5</ele><time>2026-04-12T10:24:09.54Z</time></trkpt><trkpt lat="38.4444832" lon="16.2596559"><ele>1121.25</ele><time>2026-04-12T10:24:10.528Z</time></trkpt><trkpt lat="38.4444276" lon="16.259557"><ele>1121.0</ele><time>2026-04-12T10:24:11.523Z</time></trkpt><trkpt lat="38.4443696" lon="16.2592741"><ele>1121.0</ele><time>2026-04-12T10:24:13.526Z</time></trkpt><trkpt lat="38.4443563" lon="16.2591112"><ele>1121.0</ele><time>2026-04-12T10:24:14.523Z</time></trkpt><trkpt lat="38.4443585" lon="16.2589591"><ele>1121.0</ele><time>2026-04-12T10:24:15.537Z</time></trkpt><trkpt lat="38.4443905" lon="16.2588308"><ele>1121.0</ele><time>2026-04-12T10:24:16.526Z</time></trkpt><trkpt lat="38.4444381" lon="16.2587191"><ele>1118.5</ele><time>2026-04-12T10:24:17.521Z</time></trkpt><trkpt lat="38.4444969" lon="16.2586"><ele>1116.0</ele><time>2026-04-12T10:24:18.533Z</time></trkpt><trkpt lat="38.4446009" lon="16.2585044"><ele>1113.5</ele><time>2026-04-12T10:24:19.531Z</time></trkpt><trkpt lat="38.4447349" lon="16.2584162"><ele>1111.0</ele><time>2026-04-12T10:24:20.525Z</time></trkpt><trkpt lat="38.4448689" lon="16.2583289"><ele>1110.0</ele><time>2026-04-12T10:24:21.533Z</time></trkpt><trkpt lat="38.4450103" lon="16.2582582"><ele>1109.0</ele><time>2026-04-12T10:24:22.527Z</time></trkpt><trkpt lat="38.4451444" lon="16.2581966"><ele>1108.0</ele><time>2026-04-12T10:24:23.522Z</time></trkpt><trkpt lat="38.4452626" lon="16.2581744"><ele>1107.0</ele><time>2026-04-12T10:24:24.528Z</time></trkpt><trkpt lat="38.4453879" lon="16.2581998"><ele>1105.2</ele><time>2026-04-12T10:24:25.537Z</time></trkpt><trkpt lat="38.4454989" lon="16.2582267"><ele>1103.4</ele><time>2026-04-12T10:24:26.527Z</time></trkpt><trkpt lat="38.4456087" lon="16.2582533"><ele>1101.6</ele><time>2026-04-12T10:24:27.537Z</time></trkpt><trkpt lat="38.4456998" lon="16.2582464"><ele>1099.8</ele><time>2026-04-12T10:24:28.537Z</time></trkpt><trkpt lat="38.445779" lon="16.2581982"><ele>1098.0</ele><time>2026-04-12T10:24:29.527Z</time></trkpt><trkpt lat="38.4458409" lon="16.2581228"><ele>1096.0</ele><time>2026-04-12T10:24:30.535Z</time></trkpt><trkpt lat="38.4458677" lon="16.2580329"><ele>1094.0</ele><time>2026-04-12T10:24:31.536Z</time></trkpt><trkpt lat="38.4458667" lon="16.2579329"><ele>1092.0</ele><time>2026-04-12T10:24:32.525Z</time></trkpt><trkpt lat="38.4458078" lon="16.2577454"><ele>1090.0</ele><time>2026-04-12T10:24:34.523Z</time></trkpt><trkpt lat="38.4457438" lon="16.2576508"><ele>1088.0</ele><time>2026-04-12T10:24:35.524Z</time></trkpt><trkpt lat="38.4456451" lon="16.2575645"><ele>1088.0</ele><time>2026-04-12T10:24:36.533Z</time></trkpt><trkpt lat="38.4455345" lon="16.2574938"><ele>1088.0</ele><time>2026-04-12T10:24:37.535Z</time></trkpt><trkpt lat="38.4453976" lon="16.2574467"><ele>1088.0</ele><time>2026-04-12T10:24:38.539Z</time></trkpt><trkpt lat="38.4452624" lon="16.2573864"><ele>1088.0</ele><time>2026-04-12T10:24:39.525Z</time></trkpt><trkpt lat="38.4451326" lon="16.2573017"><ele>1086.3333333333335</ele><time>2026-04-12T10:24:40.532Z</time></trkpt><trkpt lat="38.444995" lon="16.2571959"><ele>1084.6666666666667</ele><time>2026-04-12T10:24:41.53Z</time></trkpt><trkpt lat="38.4448534" lon="16.2570946"><ele>1083.0</ele><time>2026-04-12T10:24:42.523Z</time></trkpt><trkpt lat="38.4447247" lon="16.256983"><ele>1081.5</ele><time>2026-04-12T10:24:43.537Z</time></trkpt><trkpt lat="38.4446103" lon="16.2568842"><ele>1080.0</ele><time>2026-04-12T10:24:44.543Z</time></trkpt><trkpt lat="38.444508" lon="16.2567916"><ele>1078.5</ele><time>2026-04-12T10:24:45.532Z</time></trkpt><trkpt lat="38.4444237" lon="16.2566886"><ele>1077.0</ele><time>2026-04-12T10:24:46.527Z</time></trkpt><trkpt lat="38.444368" lon="16.2565786"><ele>1077.0</ele><time>2026-04-12T10:24:47.534Z</time></trkpt><trkpt lat="38.4443401" lon="16.2564548"><ele>1077.0</ele><time>2026-04-12T10:24:48.53Z</time></trkpt><trkpt lat="38.4443437" lon="16.2563319"><ele>1077.0</ele><time>2026-04-12T10:24:49.529Z</time></trkpt><trkpt lat="38.4443745" lon="16.2562009"><ele>1077.0</ele><time>2026-04-12T10:24:50.532Z</time></trkpt><trkpt lat="38.4444131" lon="16.2560526"><ele>1077.0</ele><time>2026-04-12T10:24:51.54Z</time></trkpt><trkpt lat="38.444442" lon="16.2558814"><ele>1072.5</ele><time>2026-04-12T10:24:52.527Z</time></trkpt><trkpt lat="38.4444615" lon="16.2556826"><ele>1068.0</ele><time>2026-04-12T10:24:53.531Z</time></trkpt><trkpt lat="38.4444685" lon="16.2552518"><ele>1068.0</ele><time>2026-04-12T10:24:55.531Z</time></trkpt><trkpt lat="38.4444674" lon="16.2550256"><ele>1068.0</ele><time>2026-04-12T10:24:56.534Z</time></trkpt><trkpt lat="38.4444649" lon="16.2548015"><ele>1068.0</ele><time>2026-04-12T10:24:57.521Z</time></trkpt><trkpt lat="38.4444531" lon="16.2545831"><ele>1066.5</ele><time>2026-04-12T10:24:58.53Z</time></trkpt><trkpt lat="38.4444588" lon="16.254384"><ele>1065.0</ele><time>2026-04-12T10:24:59.524Z</time></trkpt><trkpt lat="38.4444646" lon="16.2542092"><ele>1063.5</ele><time>2026-04-12T10:25:00.53Z</time></trkpt><trkpt lat="38.4444674" lon="16.2540527"><ele>1062.0</ele><time>2026-04-12T10:25:01.527Z</time></trkpt><trkpt lat="38.4444424" lon="16.2539133"><ele>1060.4</ele><time>2026-04-12T10:25:02.533Z</time></trkpt><trkpt lat="38.4443994" lon="16.2537943"><ele>1058.8000000000002</ele><time>2026-04-12T10:25:03.533Z</time></trkpt><trkpt lat="38.4443355" lon="16.2536995"><ele>1057.2</ele><time>2026-04-12T10:25:04.522Z</time></trkpt><trkpt lat="38.4442588" lon="16.2536269"><ele>1055.6000000000001</ele><time>2026-04-12T10:25:05.531Z</time></trkpt><trkpt lat="38.4441614" lon="16.2535727"><ele>1054.0</ele><time>2026-04-12T10:25:06.527Z</time></trkpt><trkpt lat="38.4440433" lon="16.2535244"><ele>1054.0</ele><time>2026-04-12T10:25:07.527Z</time></trkpt><trkpt lat="38.4439094" lon="16.2534704"><ele>1054.0</ele><time>2026-04-12T10:25:08.536Z</time></trkpt><trkpt lat="38.4437681" lon="16.253413"><ele>1054.0</ele><time>2026-04-12T10:25:09.542Z</time></trkpt><trkpt lat="38.4436339" lon="16.2533592"><ele>1054.0</ele><time>2026-04-12T10:25:10.53Z</time></trkpt><trkpt lat="38.4435142" lon="16.2533019"><ele>1052.5</ele><time>2026-04-12T10:25:11.528Z</time></trkpt><trkpt lat="38.4434022" lon="16.2532299"><ele>1051.0</ele><time>2026-04-12T10:25:12.526Z</time></trkpt><trkpt lat="38.4433006" lon="16.2531371"><ele>1049.5</ele><time>2026-04-12T10:25:13.533Z</time></trkpt><trkpt lat="38.4432006" lon="16.2530367"><ele>1048.0</ele><time>2026-04-12T10:25:14.525Z</time></trkpt><trkpt lat="38.4429833" lon="16.2528793"><ele>1046.0</ele><time>2026-04-12T10:25:16.529Z</time></trkpt><trkpt lat="38.4428607" lon="16.2528321"><ele>1044.0</ele><time>2026-04-12T10:25:17.532Z</time></trkpt><trkpt lat="38.4427411" lon="16.2527964"><ele>1042.0</ele><time>2026-04-12T10:25:18.528Z</time></trkpt><trkpt lat="38.4426239" lon="16.2527746"><ele>1040.0</ele><time>2026-04-12T10:25:19.529Z</time></trkpt><trkpt lat="38.4425141" lon="16.2527765"><ele>1040.0</ele><time>2026-04-12T10:25:20.527Z</time></trkpt><trkpt lat="38.4424056" lon="16.2528057"><ele>1040.0</ele><time>2026-04-12T10:25:21.527Z</time></trkpt><trkpt lat="38.4422981" lon="16.2528473"><ele>1040.0</ele><time>2026-04-12T10:25:22.533Z</time></trkpt><trkpt lat="38.4421923" lon="16.252883"><ele>1040.0</ele><time>2026-04-12T10:25:23.537Z</time></trkpt><trkpt lat="38.4420826" lon="16.2529018"><ele>1040.0</ele><time>2026-04-12T10:25:24.522Z</time></trkpt><trkpt lat="38.441973" lon="16.2528937"><ele>1037.8</ele><time>2026-04-12T10:25:25.533Z</time></trkpt><trkpt lat="38.4418695" lon="16.2528522"><ele>1035.6</ele><time>2026-04-12T10:25:26.534Z</time></trkpt><trkpt lat="38.4417751" lon="16.2527823"><ele>1033.4</ele><time>2026-04-12T10:25:27.528Z</time></trkpt><trkpt lat="38.4416885" lon="16.2526948"><ele>1031.2</ele><time>2026-04-12T10:25:28.531Z</time></trkpt><trkpt lat="38.4416141" lon="16.2525968"><ele>1029.0</ele><time>2026-04-12T10:25:29.534Z</time></trkpt><trkpt lat="38.4415657" lon="16.2524928"><ele>1029.0</ele><time>2026-04-12T10:25:30.525Z</time></trkpt><trkpt lat="38.441535" lon="16.252383"><ele>1029.0</ele><time>2026-04-12T10:25:31.532Z</time></trkpt><trkpt lat="38.4415265" lon="16.2522651"><ele>1029.0</ele><time>2026-04-12T10:25:32.526Z</time></trkpt><trkpt lat="38.4415451" lon="16.2521446"><ele>1029.0</ele><time>2026-04-12T10:25:33.525Z</time></trkpt><trkpt lat="38.4415775" lon="16.2520259"><ele>1029.0</ele><time>2026-04-12T10:25:34.537Z</time></trkpt><trkpt lat="38.4416355" lon="16.2518785"><ele>1025.5</ele><time>2026-04-12T10:25:35.529Z</time></trkpt><trkpt lat="38.4417471" lon="16.2515208"><ele>1022.0</ele><time>2026-04-12T10:25:37.532Z</time></trkpt><trkpt lat="38.441811" lon="16.2513178"><ele>1018.3333333333334</ele><time>2026-04-12T10:25:38.536Z</time></trkpt><trkpt lat="38.4418697" lon="16.2511076"><ele>1014.6666666666667</ele><time>2026-04-12T10:25:39.527Z</time></trkpt><trkpt lat="38.4419141" lon="16.2508897"><ele>1011.0</ele><time>2026-04-12T10:25:40.529Z</time></trkpt><trkpt lat="38.4419482" lon="16.2506744"><ele>1010.75</ele><time>2026-04-12T10:25:41.535Z</time></trkpt><trkpt lat="38.4419709" lon="16.250468"><ele>1010.5</ele><time>2026-04-12T10:25:42.54Z</time></trkpt><trkpt lat="38.4419898" lon="16.2502803"><ele>1010.25</ele><time>2026-04-12T10:25:43.53Z</time></trkpt><trkpt lat="38.4420058" lon="16.2501112"><ele>1010.0</ele><time>2026-04-12T10:25:44.54Z</time></trkpt><trkpt lat="38.4420131" lon="16.2499557"><ele>1010.0</ele><time>2026-04-12T10:25:45.53Z</time></trkpt><trkpt lat="38.4420036" lon="16.2498105"><ele>1010.0</ele><time>2026-04-12T10:25:46.525Z</time></trkpt><trkpt lat="38.4419765" lon="16.2496553"><ele>1010.0</ele><time>2026-04-12T10:25:47.538Z</time></trkpt><trkpt lat="38.441936" lon="16.2494765"><ele>1010.0</ele><time>2026-04-12T10:25:48.533Z</time></trkpt><trkpt lat="38.44188" lon="16.2492792"><ele>1012.0</ele><time>2026-04-12T10:25:49.523Z</time></trkpt><trkpt lat="38.4418147" lon="16.249078"><ele>1014.0</ele><time>2026-04-12T10:25:50.536Z</time></trkpt><trkpt lat="38.4417411" lon="16.2488827"><ele>1016.0</ele><time>2026-04-12T10:25:51.534Z</time></trkpt><trkpt lat="38.441654" lon="16.2486956"><ele>1016.3333333333334</ele><time>2026-04-12T10:25:52.525Z</time></trkpt><trkpt lat="38.4415483" lon="16.2485114"><ele>1016.6666666666667</ele><time>2026-04-12T10:25:53.54Z</time></trkpt><trkpt lat="38.4414205" lon="16.2483222"><ele>1017.0</ele><time>2026-04-12T10:25:54.531Z</time></trkpt><trkpt lat="38.4412894" lon="16.2481398"><ele>1025.0</ele><time>2026-04-12T10:25:55.525Z</time></trkpt><trkpt lat="38.4411663" lon="16.2479731"><ele>1033.0</ele><time>2026-04-12T10:25:56.536Z</time></trkpt><trkpt lat="38.4410085" lon="16.247685"><ele>1033.0</ele><time>2026-04-12T10:25:58.523Z</time></trkpt><trkpt lat="38.4409823" lon="16.247569"><ele>1033.0</ele><time>2026-04-12T10:25:59.524Z</time></trkpt><trkpt lat="38.4409788" lon="16.2474704"><ele>1033.0</ele><time>2026-04-12T10:26:00.525Z</time></trkpt><trkpt lat="38.4409962" lon="16.2473618"><ele>1033.0</ele><time>2026-04-12T10:26:01.521Z</time></trkpt><trkpt lat="38.4410156" lon="16.2472505"><ele>1033.0</ele><time>2026-04-12T10:26:02.532Z</time></trkpt><trkpt lat="38.4410193" lon="16.2471191"><ele>1036.1666666666665</ele><time>2026-04-12T10:26:03.542Z</time></trkpt><trkpt lat="38.4410049" lon="16.246977"><ele>1039.3333333333333</ele><time>2026-04-12T10:26:04.524Z</time></trkpt><trkpt lat="38.4409825" lon="16.2468415"><ele>1042.5</ele><time>2026-04-12T10:26:05.528Z</time></trkpt><trkpt lat="38.4409548" lon="16.2467421"><ele>1045.6666666666667</ele><time>2026-04-12T10:26:06.526Z</time></trkpt><trkpt lat="38.4409205" lon="16.2466682"><ele>1048.8333333333335</ele><time>2026-04-12T10:26:07.522Z</time></trkpt><trkpt lat="38.4408754" lon="16.2466103"><ele>1052.0</ele><time>2026-04-12T10:26:08.525Z</time></trkpt><trkpt lat="38.4407745" lon="16.2465526"><ele>1052.0</ele><time>2026-04-12T10:26:10.536Z</time></trkpt><trkpt lat="38.4406701" lon="16.246585"><ele>1052.0</ele><time>2026-04-12T10:26:12.531Z</time></trkpt><trkpt lat="38.4405719" lon="16.2467017"><ele>1052.0</ele><time>2026-04-12T10:26:14.525Z</time></trkpt><trkpt lat="38.4405187" lon="16.2467737"><ele>1052.0</ele><time>2026-04-12T10:26:15.539Z</time></trkpt><trkpt lat="38.4404628" lon="16.2468309"><ele>1052.0</ele><time>2026-04-12T10:26:16.535Z</time></trkpt><trkpt lat="38.4404021" lon="16.2468685"><ele>1052.75</ele><time>2026-04-12T10:26:17.525Z</time></trkpt><trkpt lat="38.4402607" lon="16.2469176"><ele>1053.5</ele><time>2026-04-12T10:26:19.543Z</time></trkpt><trkpt lat="38.4401714" lon="16.2468956"><ele>1054.25</ele><time>2026-04-12T10:26:20.523Z</time></trkpt><trkpt lat="38.4400675" lon="16.2468731"><ele>1055.0</ele><time>2026-04-12T10:26:21.542Z</time></trkpt><trkpt lat="38.4399656" lon="16.2468308"><ele>1055.0</ele><time>2026-04-12T10:26:22.533Z</time></trkpt><trkpt lat="38.439892" lon="16.2467558"><ele>1055.0</ele><time>2026-04-12T10:26:23.525Z</time></trkpt><trkpt lat="38.4398302" lon="16.2466844"><ele>1055.0</ele><time>2026-04-12T10:26:24.528Z</time></trkpt><trkpt lat="38.439821" lon="16.2465715"><ele>1055.0</ele><time>2026-04-12T10:26:25.531Z</time></trkpt><trkpt lat="38.4398345" lon="16.246394"><ele>1055.0</ele><time>2026-04-12T10:26:26.535Z</time></trkpt><trkpt lat="38.4398578" lon="16.2461751"><ele>1058.3333333333335</ele><time>2026-04-12T10:26:27.527Z</time></trkpt><trkpt lat="38.4398608" lon="16.2459425"><ele>1061.6666666666667</ele><time>2026-04-12T10:26:28.529Z</time></trkpt><trkpt lat="38.4398715" lon="16.2456935"><ele>1065.0</ele><time>2026-04-12T10:26:29.533Z</time></trkpt><trkpt lat="38.4398798" lon="16.2454594"><ele>1066.75</ele><time>2026-04-12T10:26:30.533Z</time></trkpt><trkpt lat="38.4399144" lon="16.2452701"><ele>1068.5</ele><time>2026-04-12T10:26:31.528Z</time></trkpt><trkpt lat="38.4399652" lon="16.2451005"><ele>1070.25</ele><time>2026-04-12T10:26:32.523Z</time></trkpt><trkpt lat="38.4399923" lon="16.2449508"><ele>1072.0</ele><time>2026-04-12T10:26:33.537Z</time></trkpt><trkpt lat="38.43999" lon="16.2448271"><ele>1075.0</ele><time>2026-04-12T10:26:34.532Z</time></trkpt><trkpt lat="38.4399744" lon="16.2447243"><ele>1078.0</ele><time>2026-04-12T10:26:35.527Z</time></trkpt><trkpt lat="38.4399173" lon="16.2446431"><ele>1081.0</ele><time>2026-04-12T10:26:36.528Z</time></trkpt><trkpt lat="38.4398598" lon="16.2445541"><ele>1084.0</ele><time>2026-04-12T10:26:37.532Z</time></trkpt><trkpt lat="38.4397923" lon="16.2444598"><ele>1087.0</ele><time>2026-04-12T10:26:38.532Z</time></trkpt><trkpt lat="38.439679" lon="16.2442207"><ele>1087.0</ele><time>2026-04-12T10:26:40.53Z</time></trkpt><trkpt lat="38.4396339" lon="16.2441237"><ele>1087.0</ele><time>2026-04-12T10:26:41.536Z</time></trkpt><trkpt lat="38.4395855" lon="16.2440541"><ele>1087.0</ele><time>2026-04-12T10:26:42.539Z</time></trkpt><trkpt lat="38.4394837" lon="16.2439951"><ele>1087.0</ele><time>2026-04-12T10:26:44.539Z</time></trkpt><trkpt lat="38.4393796" lon="16.2440139"><ele>1087.0</ele><time>2026-04-12T10:26:46.526Z</time></trkpt><trkpt lat="38.4392975" lon="16.244111"><ele>1089.8</ele><time>2026-04-12T10:26:48.529Z</time></trkpt><trkpt lat="38.4392517" lon="16.244191"><ele>1092.6</ele><time>2026-04-12T10:26:49.527Z</time></trkpt><trkpt lat="38.4392007" lon="16.244292"><ele>1095.3999999999999</ele><time>2026-04-12T10:26:50.525Z</time></trkpt><trkpt lat="38.439142" lon="16.2444044"><ele>1098.2</ele><time>2026-04-12T10:26:51.529Z</time></trkpt><trkpt lat="38.4390783" lon="16.2445057"><ele>1101.0</ele><time>2026-04-12T10:26:52.529Z</time></trkpt><trkpt lat="38.4390092" lon="16.2445837"><ele>1101.0</ele><time>2026-04-12T10:26:53.525Z</time></trkpt><trkpt lat="38.4389365" lon="16.2446266"><ele>1101.0</ele><time>2026-04-12T10:26:54.53Z</time></trkpt><trkpt lat="38.4388596" lon="16.2446316"><ele>1101.0</ele><time>2026-04-12T10:26:55.539Z</time></trkpt><trkpt lat="38.4387831" lon="16.2446"><ele>1101.0</ele><time>2026-04-12T10:26:56.52Z</time></trkpt><trkpt lat="38.4387084" lon="16.2445455"><ele>1101.0</ele><time>2026-04-12T10:26:57.532Z</time></trkpt><trkpt lat="38.4386344" lon="16.2445025"><ele>1101.0</ele><time>2026-04-12T10:26:58.534Z</time></trkpt><trkpt lat="38.438556" lon="16.24447"><ele>1101.6</ele><time>2026-04-12T10:26:59.527Z</time></trkpt><trkpt lat="38.4383781" lon="16.2444989"><ele>1102.1999999999998</ele><time>2026-04-12T10:27:01.53Z</time></trkpt><trkpt lat="38.438296" lon="16.2445049"><ele>1102.8000000000002</ele><time>2026-04-12T10:27:02.53Z</time></trkpt><trkpt lat="38.4382335" lon="16.2445151"><ele>1103.4</ele><time>2026-04-12T10:27:03.52Z</time></trkpt><trkpt lat="38.4381145" lon="16.244487"><ele>1104.0</ele><time>2026-04-12T10:27:05.528Z</time></trkpt><trkpt lat="38.4380629" lon="16.2443815"><ele>1104.0</ele><time>2026-04-12T10:27:07.538Z</time></trkpt><trkpt lat="38.4380728" lon="16.2442594"><ele>1104.0</ele><time>2026-04-12T10:27:09.526Z</time></trkpt><trkpt lat="38.4381295" lon="16.2442062"><ele>1104.0</ele><time>2026-04-12T10:27:10.531Z</time></trkpt><trkpt lat="38.4381983" lon="16.2441449"><ele>1104.0</ele><time>2026-04-12T10:27:11.529Z</time></trkpt><trkpt lat="38.4382702" lon="16.2440702"><ele>1104.0</ele><time>2026-04-12T10:27:12.524Z</time></trkpt><trkpt lat="38.4383206" lon="16.2439878"><ele>1104.0</ele><time>2026-04-12T10:27:13.529Z</time></trkpt><trkpt lat="38.4383604" lon="16.2439145"><ele>1104.6666666666667</ele><time>2026-04-12T10:27:14.54Z</time></trkpt><trkpt lat="38.4383864" lon="16.2438354"><ele>1105.3333333333333</ele><time>2026-04-12T10:27:15.525Z</time></trkpt><trkpt lat="38.4384115" lon="16.2437543"><ele>1106.0</ele><time>2026-04-12T10:27:16.531Z</time></trkpt><trkpt lat="38.4384512" lon="16.2436804"><ele>1106.6666666666665</ele><time>2026-04-12T10:27:17.538Z</time></trkpt><trkpt lat="38.4384905" lon="16.2436004"><ele>1107.3333333333333</ele><time>2026-04-12T10:27:18.522Z</time></trkpt><trkpt lat="38.4385179" lon="16.2434884"><ele>1108.0</ele><time>2026-04-12T10:27:19.532Z</time></trkpt><trkpt lat="38.4385603" lon="16.2433601"><ele>1106.6666666666665</ele><time>2026-04-12T10:27:20.548Z</time></trkpt><trkpt lat="38.4386896" lon="16.2430925"><ele>1105.3333333333333</ele><time>2026-04-12T10:27:22.542Z</time></trkpt><trkpt lat="38.438769" lon="16.2429605"><ele>1104.0</ele><time>2026-04-12T10:27:23.546Z</time></trkpt><trkpt lat="38.4388333" lon="16.2428349"><ele>1104.8</ele><time>2026-04-12T10:27:24.525Z</time></trkpt><trkpt lat="38.4388871" lon="16.2427107"><ele>1105.6000000000001</ele><time>2026-04-12T10:27:25.533Z</time></trkpt><trkpt lat="38.4389201" lon="16.2425786"><ele>1106.4</ele><time>2026-04-12T10:27:26.531Z</time></trkpt><trkpt lat="38.4389316" lon="16.2424483"><ele>1107.2</ele><time>2026-04-12T10:27:27.525Z</time></trkpt><trkpt lat="38.4389195" lon="16.2423114"><ele>1108.0</ele><time>2026-04-12T10:27:28.527Z</time></trkpt><trkpt lat="38.4388928" lon="16.2421625"><ele>1108.0</ele><time>2026-04-12T10:27:29.548Z</time></trkpt><trkpt lat="38.4388474" lon="16.2419963"><ele>1108.0</ele><time>2026-04-12T10:27:30.531Z</time></trkpt><trkpt lat="38.4387923" lon="16.2418151"><ele>1108.0</ele><time>2026-04-12T10:27:31.538Z</time></trkpt><trkpt lat="38.4387321" lon="16.2416324"><ele>1108.0</ele><time>2026-04-12T10:27:32.538Z</time></trkpt><trkpt lat="38.4386743" lon="16.2414619"><ele>1109.0</ele><time>2026-04-12T10:27:33.536Z</time></trkpt><trkpt lat="38.4386263" lon="16.2413138"><ele>1110.0</ele><time>2026-04-12T10:27:34.53Z</time></trkpt><trkpt lat="38.4385757" lon="16.2411807"><ele>1111.0</ele><time>2026-04-12T10:27:35.541Z</time></trkpt><trkpt lat="38.4385189" lon="16.2410591"><ele>1112.0</ele><time>2026-04-12T10:27:36.536Z</time></trkpt><trkpt lat="38.4384591" lon="16.2409408"><ele>1112.0</ele><time>2026-04-12T10:27:37.531Z</time></trkpt><trkpt lat="38.4383975" lon="16.2408195"><ele>1112.0</ele><time>2026-04-12T10:27:38.533Z</time></trkpt><trkpt lat="38.4383397" lon="16.2406955"><ele>1112.0</ele><time>2026-04-12T10:27:39.54Z</time></trkpt><trkpt lat="38.4382971" lon="16.2405748"><ele>1112.0</ele><time>2026-04-12T10:27:40.532Z</time></trkpt><trkpt lat="38.4382717" lon="16.2404518"><ele>1112.0</ele><time>2026-04-12T10:27:41.542Z</time></trkpt><trkpt lat="38.4382583" lon="16.2401844"><ele>1112.0</ele><time>2026-04-12T10:27:43.542Z</time></trkpt><trkpt lat="38.4382638" lon="16.2400278"><ele>1112.0</ele><time>2026-04-12T10:27:44.538Z</time></trkpt><trkpt lat="38.4382695" lon="16.2398531"><ele>1112.0</ele><time>2026-04-12T10:27:45.544Z</time></trkpt><trkpt lat="38.4382769" lon="16.2396704"><ele>1112.0</ele><time>2026-04-12T10:27:46.535Z</time></trkpt><trkpt lat="38.4382842" lon="16.2394956"><ele>1112.0</ele><time>2026-04-12T10:27:47.536Z</time></trkpt><trkpt lat="38.4382929" lon="16.2393326"><ele>1112.0</ele><time>2026-04-12T10:27:48.532Z</time></trkpt><trkpt lat="38.4383042" lon="16.2391813"><ele>1112.0</ele><time>2026-04-12T10:27:49.541Z</time></trkpt><trkpt lat="38.4383243" lon="16.2390414"><ele>1112.0</ele><time>2026-04-12T10:27:50.537Z</time></trkpt><trkpt lat="38.4383558" lon="16.238905"><ele>1111.0</ele><time>2026-04-12T10:27:51.532Z</time></trkpt><trkpt lat="38.4384041" lon="16.2387628"><ele>1110.0</ele><time>2026-04-12T10:27:52.536Z</time></trkpt><trkpt lat="38.4384641" lon="16.2386127"><ele>1109.0</ele><time>2026-04-12T10:27:53.524Z</time></trkpt><trkpt lat="38.4385235" lon="16.238461"><ele>1108.0</ele><time>2026-04-12T10:27:54.543Z</time></trkpt><trkpt lat="38.4385954" lon="16.2383037"><ele>1108.0</ele><time>2026-04-12T10:27:55.544Z</time></trkpt><trkpt lat="38.4386663" lon="16.2381568"><ele>1108.0</ele><time>2026-04-12T10:27:56.524Z</time></trkpt><trkpt lat="38.4387385" lon="16.2380173"><ele>1108.0</ele><time>2026-04-12T10:27:57.532Z</time></trkpt><trkpt lat="38.4388028" lon="16.2378849"><ele>1108.0</ele><time>2026-04-12T10:27:58.534Z</time></trkpt><trkpt lat="38.4388647" lon="16.2377545"><ele>1107.5</ele><time>2026-04-12T10:27:59.523Z</time></trkpt><trkpt lat="38.4389147" lon="16.2376199"><ele>1107.0</ele><time>2026-04-12T10:28:00.534Z</time></trkpt><trkpt lat="38.4389541" lon="16.2374916"><ele>1106.5</ele><time>2026-04-12T10:28:01.529Z</time></trkpt><trkpt lat="38.4389839" lon="16.2373817"><ele>1106.0</ele><time>2026-04-12T10:28:02.53Z</time></trkpt><trkpt lat="38.4390274" lon="16.2371929"><ele>1106.0</ele><time>2026-04-12T10:28:04.534Z</time></trkpt><trkpt lat="38.4390435" lon="16.2371046"><ele>1106.0</ele><time>2026-04-12T10:28:05.54Z</time></trkpt><trkpt lat="38.4390585" lon="16.2370183"><ele>1106.0</ele><time>2026-04-12T10:28:06.531Z</time></trkpt><trkpt lat="38.4390723" lon="16.2369287"><ele>1106.0</ele><time>2026-04-12T10:28:07.522Z</time></trkpt><trkpt lat="38.439087" lon="16.2368332"><ele>1106.0</ele><time>2026-04-12T10:28:08.529Z</time></trkpt><trkpt lat="38.4391002" lon="16.2367305"><ele>1106.0</ele><time>2026-04-12T10:28:09.529Z</time></trkpt><trkpt lat="38.4391153" lon="16.2366215"><ele>1106.0</ele><time>2026-04-12T10:28:10.525Z</time></trkpt><trkpt lat="38.439132" lon="16.2365072"><ele>1106.0</ele><time>2026-04-12T10:28:11.535Z</time></trkpt><trkpt lat="38.439152" lon="16.236384"><ele>1106.0</ele><time>2026-04-12T10:28:12.547Z</time></trkpt><trkpt lat="38.4391716" lon="16.2362498"><ele>1106.0</ele><time>2026-04-12T10:28:13.533Z</time></trkpt><trkpt lat="38.4391914" lon="16.236106"><ele>1106.0</ele><time>2026-04-12T10:28:14.532Z</time></trkpt><trkpt lat="38.4392105" lon="16.2359617"><ele>1106.0</ele><time>2026-04-12T10:28:15.534Z</time></trkpt><trkpt lat="38.439232" lon="16.2358188"><ele>1106.0</ele><time>2026-04-12T10:28:16.53Z</time></trkpt><trkpt lat="38.4392549" lon="16.2356721"><ele>1106.0</ele><time>2026-04-12T10:28:17.523Z</time></trkpt><trkpt lat="38.4392789" lon="16.2355275"><ele>1106.0</ele><time>2026-04-12T10:28:18.526Z</time></trkpt><trkpt lat="38.4393026" lon="16.2353823"><ele>1106.8</ele><time>2026-04-12T10:28:19.54Z</time></trkpt><trkpt lat="38.4393254" lon="16.235238"><ele>1107.6</ele><time>2026-04-12T10:28:20.525Z</time></trkpt><trkpt lat="38.4393432" lon="16.2350952"><ele>1108.4</ele><time>2026-04-12T10:28:21.527Z</time></trkpt><trkpt lat="38.4393519" lon="16.2349552"><ele>1109.2</ele><time>2026-04-12T10:28:22.53Z</time></trkpt><trkpt lat="38.4393444" lon="16.2348186"><ele>1110.0</ele><time>2026-04-12T10:28:23.527Z</time></trkpt><trkpt lat="38.4392928" lon="16.2345553"><ele>1110.6</ele><time>2026-04-12T10:28:25.538Z</time></trkpt><trkpt lat="38.4392588" lon="16.2344349"><ele>1111.2</ele><time>2026-04-12T10:28:26.521Z</time></trkpt><trkpt lat="38.4392257" lon="16.2343313"><ele>1111.8</ele><time>2026-04-12T10:28:27.535Z</time></trkpt><trkpt lat="38.4391934" lon="16.2342396"><ele>1112.4</ele><time>2026-04-12T10:28:28.531Z</time></trkpt><trkpt lat="38.4391636" lon="16.2341588"><ele>1113.0</ele><time>2026-04-12T10:28:29.525Z</time></trkpt><trkpt lat="38.4391091" lon="16.2340303"><ele>1113.0</ele><time>2026-04-12T10:28:31.539Z</time></trkpt><trkpt lat="38.4390501" lon="16.2339496"><ele>1113.0</ele><time>2026-04-12T10:28:33.536Z</time></trkpt><trkpt lat="38.4389924" lon="16.2338848"><ele>1113.0</ele><time>2026-04-12T10:28:35.535Z</time></trkpt><trkpt lat="38.4389136" lon="16.2338263"><ele>1113.0</ele><time>2026-04-12T10:28:37.532Z</time></trkpt><trkpt lat="38.4388073" lon="16.2337888"><ele>1113.0</ele><time>2026-04-12T10:28:39.546Z</time></trkpt><trkpt lat="38.4386829" lon="16.2337635"><ele>1113.0</ele><time>2026-04-12T10:28:41.534Z</time></trkpt><trkpt lat="38.4386174" lon="16.2337461"><ele>1113.0</ele><time>2026-04-12T10:28:42.535Z</time></trkpt><trkpt lat="38.4385458" lon="16.2337206"><ele>1113.0</ele><time>2026-04-12T10:28:43.539Z</time></trkpt><trkpt lat="38.4384714" lon="16.2336857"><ele>1113.0</ele><time>2026-04-12T10:28:44.538Z</time></trkpt><trkpt lat="38.4383205" lon="16.2335955"><ele>1113.0</ele><time>2026-04-12T10:28:46.536Z</time></trkpt><trkpt lat="38.438243" lon="16.2335487"><ele>1113.0</ele><time>2026-04-12T10:28:47.533Z</time></trkpt><trkpt lat="38.4381637" lon="16.2335035"><ele>1113.0</ele><time>2026-04-12T10:28:48.533Z</time></trkpt><trkpt lat="38.4380829" lon="16.2334585"><ele>1113.0</ele><time>2026-04-12T10:28:49.528Z</time></trkpt><trkpt lat="38.4380008" lon="16.2334155"><ele>1113.0</ele><time>2026-04-12T10:28:50.534Z</time></trkpt><trkpt lat="38.4379209" lon="16.233378"><ele>1113.0</ele><time>2026-04-12T10:28:51.535Z</time></trkpt><trkpt lat="38.4378348" lon="16.2333334"><ele>1113.0</ele><time>2026-04-12T10:28:52.536Z</time></trkpt><trkpt lat="38.4377449" lon="16.233287"><ele>1116.25</ele><time>2026-04-12T10:28:53.527Z</time></trkpt><trkpt lat="38.4376427" lon="16.2332378"><ele>1119.5</ele><time>2026-04-12T10:28:54.531Z</time></trkpt><trkpt lat="38.4375403" lon="16.2331853"><ele>1122.75</ele><time>2026-04-12T10:28:55.534Z</time></trkpt><trkpt lat="38.4374309" lon="16.2331273"><ele>1126.0</ele><time>2026-04-12T10:28:56.527Z</time></trkpt><trkpt lat="38.4373151" lon="16.2330652"><ele>1126.5</ele><time>2026-04-12T10:28:57.531Z</time></trkpt><trkpt lat="38.4371998" lon="16.2329996"><ele>1127.0</ele><time>2026-04-12T10:28:58.535Z</time></trkpt><trkpt lat="38.4370816" lon="16.2329346"><ele>1127.5</ele><time>2026-04-12T10:28:59.525Z</time></trkpt><trkpt lat="38.4369731" lon="16.2328726"><ele>1128.0</ele><time>2026-04-12T10:29:00.523Z</time></trkpt><trkpt lat="38.4368711" lon="16.2328069"><ele>1128.6</ele><time>2026-04-12T10:29:01.531Z</time></trkpt><trkpt lat="38.436765" lon="16.2327431"><ele>1129.1999999999998</ele><time>2026-04-12T10:29:02.535Z</time></trkpt><trkpt lat="38.4366797" lon="16.2326915"><ele>1129.8</ele><time>2026-04-12T10:29:03.529Z</time></trkpt><trkpt lat="38.4366234" lon="16.2326108"><ele>1130.3999999999999</ele><time>2026-04-12T10:29:04.534Z</time></trkpt><trkpt lat="38.4365818" lon="16.2325161"><ele>1131.0</ele><time>2026-04-12T10:29:05.531Z</time></trkpt><trkpt lat="38.4365038" lon="16.2322889"><ele>1131.0</ele><time>2026-04-12T10:29:07.525Z</time></trkpt><trkpt lat="38.4364725" lon="16.2321694"><ele>1131.0</ele><time>2026-04-12T10:29:08.532Z</time></trkpt><trkpt lat="38.4364459" lon="16.2320486"><ele>1131.0</ele><time>2026-04-12T10:29:09.524Z</time></trkpt><trkpt lat="38.4364119" lon="16.2319237"><ele>1131.0</ele><time>2026-04-12T10:29:10.531Z</time></trkpt><trkpt lat="38.4363724" lon="16.2317956"><ele>1131.0</ele><time>2026-04-12T10:29:11.53Z</time></trkpt><trkpt lat="38.4363393" lon="16.2316645"><ele>1131.0</ele><time>2026-04-12T10:29:12.523Z</time></trkpt><trkpt lat="38.4363127" lon="16.2315235"><ele>1131.0</ele><time>2026-04-12T10:29:13.527Z</time></trkpt><trkpt lat="38.4362739" lon="16.2313955"><ele>1131.0</ele><time>2026-04-12T10:29:14.538Z</time></trkpt><trkpt lat="38.4362397" lon="16.2312706"><ele>1131.0</ele><time>2026-04-12T10:29:15.529Z</time></trkpt><trkpt lat="38.4362134" lon="16.2311486"><ele>1131.0</ele><time>2026-04-12T10:29:16.526Z</time></trkpt><trkpt lat="38.4361737" lon="16.2310358"><ele>1131.8</ele><time>2026-04-12T10:29:17.533Z</time></trkpt><trkpt lat="38.4361331" lon="16.2309309"><ele>1132.6</ele><time>2026-04-12T10:29:18.526Z</time></trkpt><trkpt lat="38.4361029" lon="16.230822"><ele>1133.4</ele><time>2026-04-12T10:29:19.534Z</time></trkpt><trkpt lat="38.4360643" lon="16.2307063"><ele>1134.2</ele><time>2026-04-12T10:29:20.531Z</time></trkpt><trkpt lat="38.4360364" lon="16.2305818"><ele>1135.0</ele><time>2026-04-12T10:29:21.52Z</time></trkpt><trkpt lat="38.4360112" lon="16.2304631"><ele>1135.0</ele><time>2026-04-12T10:29:22.537Z</time></trkpt><trkpt lat="38.4359888" lon="16.2303423"><ele>1135.0</ele><time>2026-04-12T10:29:23.528Z</time></trkpt><trkpt lat="38.4359925" lon="16.2302093"><ele>1135.0</ele><time>2026-04-12T10:29:24.525Z</time></trkpt><trkpt lat="38.4360083" lon="16.2300787"><ele>1135.0</ele><time>2026-04-12T10:29:25.54Z</time></trkpt><trkpt lat="38.4360352" lon="16.2299383"><ele>1135.0</ele><time>2026-04-12T10:29:26.526Z</time></trkpt><trkpt lat="38.4361468" lon="16.229679"><ele>1133.75</ele><time>2026-04-12T10:29:28.527Z</time></trkpt><trkpt lat="38.4362305" lon="16.2295508"><ele>1132.5</ele><time>2026-04-12T10:29:29.529Z</time></trkpt><trkpt lat="38.4363174" lon="16.2294063"><ele>1131.25</ele><time>2026-04-12T10:29:30.523Z</time></trkpt><trkpt lat="38.4363955" lon="16.2292492"><ele>1130.0</ele><time>2026-04-12T10:29:31.537Z</time></trkpt><trkpt lat="38.4364478" lon="16.2290784"><ele>1129.25</ele><time>2026-04-12T10:29:32.531Z</time></trkpt><trkpt lat="38.4364775" lon="16.2289019"><ele>1128.5</ele><time>2026-04-12T10:29:33.528Z</time></trkpt><trkpt lat="38.4364814" lon="16.2287199"><ele>1127.75</ele><time>2026-04-12T10:29:34.532Z</time></trkpt><trkpt lat="38.4364535" lon="16.2285344"><ele>1127.0</ele><time>2026-04-12T10:29:35.533Z</time></trkpt><trkpt lat="38.4363971" lon="16.2283459"><ele>1127.0</ele><time>2026-04-12T10:29:36.523Z</time></trkpt><trkpt lat="38.4363108" lon="16.2281476"><ele>1127.0</ele><time>2026-04-12T10:29:37.525Z</time></trkpt><trkpt lat="38.4362217" lon="16.2279452"><ele>1127.0</ele><time>2026-04-12T10:29:38.531Z</time></trkpt><trkpt lat="38.436115" lon="16.2277296"><ele>1126.3333333333335</ele><time>2026-04-12T10:29:39.523Z</time></trkpt><trkpt lat="38.4360053" lon="16.2275142"><ele>1125.6666666666667</ele><time>2026-04-12T10:29:40.535Z</time></trkpt><trkpt lat="38.4358953" lon="16.2272962"><ele>1125.0</ele><time>2026-04-12T10:29:41.53Z</time></trkpt><trkpt lat="38.4357814" lon="16.2270744"><ele>1125.0</ele><time>2026-04-12T10:29:42.521Z</time></trkpt><trkpt lat="38.4356667" lon="16.2268531"><ele>1125.0</ele><time>2026-04-12T10:29:43.528Z</time></trkpt><trkpt lat="38.4355582" lon="16.2266409"><ele>1125.0</ele><time>2026-04-12T10:29:44.526Z</time></trkpt><trkpt lat="38.435456" lon="16.2264344"><ele>1125.3333333333333</ele><time>2026-04-12T10:29:45.527Z</time></trkpt><trkpt lat="38.4353614" lon="16.2262343"><ele>1125.6666666666665</ele><time>2026-04-12T10:29:46.534Z</time></trkpt><trkpt lat="38.4352858" lon="16.2260352"><ele>1126.0</ele><time>2026-04-12T10:29:47.538Z</time></trkpt><trkpt lat="38.4352141" lon="16.2256433"><ele>1123.6666666666665</ele><time>2026-04-12T10:29:49.533Z</time></trkpt><trkpt lat="38.435223" lon="16.2254431"><ele>1121.3333333333333</ele><time>2026-04-12T10:29:50.532Z</time></trkpt><trkpt lat="38.4352547" lon="16.2252344"><ele>1119.0</ele><time>2026-04-12T10:29:51.521Z</time></trkpt><trkpt lat="38.4352932" lon="16.2250325"><ele>1119.0</ele><time>2026-04-12T10:29:52.52Z</time></trkpt><trkpt lat="38.4353314" lon="16.2248304"><ele>1119.0</ele><time>2026-04-12T10:29:53.526Z</time></trkpt><trkpt lat="38.4353662" lon="16.224629"><ele>1119.0</ele><time>2026-04-12T10:29:54.528Z</time></trkpt><trkpt lat="38.4353866" lon="16.2244487"><ele>1116.75</ele><time>2026-04-12T10:29:55.527Z</time></trkpt><trkpt lat="38.435386" lon="16.2242825"><ele>1114.5</ele><time>2026-04-12T10:29:56.524Z</time></trkpt><trkpt lat="38.4353541" lon="16.2241227"><ele>1112.25</ele><time>2026-04-12T10:29:57.525Z</time></trkpt><trkpt lat="38.4352895" lon="16.2239665"><ele>1110.0</ele><time>2026-04-12T10:29:58.528Z</time></trkpt><trkpt lat="38.435193" lon="16.2238228"><ele>1109.3333333333333</ele><time>2026-04-12T10:29:59.549Z</time></trkpt><trkpt lat="38.435071" lon="16.223695"><ele>1108.6666666666665</ele><time>2026-04-12T10:30:00.527Z</time></trkpt><trkpt lat="38.4349262" lon="16.2235808"><ele>1108.0</ele><time>2026-04-12T10:30:01.534Z</time></trkpt><trkpt lat="38.4347724" lon="16.2234733"><ele>1107.3333333333333</ele><time>2026-04-12T10:30:02.537Z</time></trkpt><trkpt lat="38.4346162" lon="16.2233598"><ele>1106.6666666666667</ele><time>2026-04-12T10:30:03.523Z</time></trkpt><trkpt lat="38.4344631" lon="16.2232478"><ele>1106.0</ele><time>2026-04-12T10:30:04.527Z</time></trkpt><trkpt lat="38.4343179" lon="16.22314"><ele>1108.25</ele><time>2026-04-12T10:30:05.534Z</time></trkpt><trkpt lat="38.4341798" lon="16.2230415"><ele>1110.5</ele><time>2026-04-12T10:30:06.531Z</time></trkpt><trkpt lat="38.4340538" lon="16.2229344"><ele>1112.75</ele><time>2026-04-12T10:30:07.523Z</time></trkpt><trkpt lat="38.4339505" lon="16.2228186"><ele>1115.0</ele><time>2026-04-12T10:30:08.523Z</time></trkpt><trkpt lat="38.4338459" lon="16.2225923"><ele>1115.0</ele><time>2026-04-12T10:30:10.53Z</time></trkpt><trkpt lat="38.4338328" lon="16.2224626"><ele>1115.0</ele><time>2026-04-12T10:30:11.535Z</time></trkpt><trkpt lat="38.4338444" lon="16.2223243"><ele>1115.0</ele><time>2026-04-12T10:30:12.532Z</time></trkpt><trkpt lat="38.4338874" lon="16.2221805"><ele>1115.0</ele><time>2026-04-12T10:30:13.532Z</time></trkpt><trkpt lat="38.4339514" lon="16.2220481"><ele>1114.75</ele><time>2026-04-12T10:30:14.526Z</time></trkpt><trkpt lat="38.4340329" lon="16.2219187"><ele>1114.5</ele><time>2026-04-12T10:30:15.537Z</time></trkpt><trkpt lat="38.4341137" lon="16.2217836"><ele>1114.25</ele><time>2026-04-12T10:30:16.526Z</time></trkpt><trkpt lat="38.4341943" lon="16.221638"><ele>1114.0</ele><time>2026-04-12T10:30:17.53Z</time></trkpt><trkpt lat="38.4342712" lon="16.2214869"><ele>1114.5</ele><time>2026-04-12T10:30:18.531Z</time></trkpt><trkpt lat="38.4343336" lon="16.2213408"><ele>1115.0</ele><time>2026-04-12T10:30:19.554Z</time></trkpt><trkpt lat="38.4343924" lon="16.2212022"><ele>1115.5</ele><time>2026-04-12T10:30:20.524Z</time></trkpt><trkpt lat="38.4344532" lon="16.2210749"><ele>1116.0</ele><time>2026-04-12T10:30:21.533Z</time></trkpt><trkpt lat="38.434524" lon="16.220967"><ele>1116.0</ele><time>2026-04-12T10:30:22.527Z</time></trkpt><trkpt lat="38.4346095" lon="16.2208732"><ele>1116.0</ele><time>2026-04-12T10:30:23.534Z</time></trkpt><trkpt lat="38.4347095" lon="16.2208"><ele>1116.0</ele><time>2026-04-12T10:30:24.535Z</time></trkpt><trkpt lat="38.4348238" lon="16.2207484"><ele>1116.0</ele><time>2026-04-12T10:30:25.53Z</time></trkpt><trkpt lat="38.4349376" lon="16.2207041"><ele>1115.0</ele><time>2026-04-12T10:30:26.53Z</time></trkpt><trkpt lat="38.4350713" lon="16.220711"><ele>1114.0</ele><time>2026-04-12T10:30:27.524Z</time></trkpt><trkpt lat="38.4352099" lon="16.2207349"><ele>1113.0</ele><time>2026-04-12T10:30:28.528Z</time></trkpt><trkpt lat="38.4353448" lon="16.220771"><ele>1112.0</ele><time>2026-04-12T10:30:29.541Z</time></trkpt><trkpt lat="38.4356078" lon="16.22087"><ele>1109.0</ele><time>2026-04-12T10:30:31.53Z</time></trkpt><trkpt lat="38.435734" lon="16.2209168"><ele>1106.0</ele><time>2026-04-12T10:30:32.53Z</time></trkpt><trkpt lat="38.4358516" lon="16.2209311"><ele>1103.0</ele><time>2026-04-12T10:30:33.547Z</time></trkpt><trkpt lat="38.4359701" lon="16.2209302"><ele>1100.0</ele><time>2026-04-12T10:30:34.544Z</time></trkpt><trkpt lat="38.4360752" lon="16.220884"><ele>1100.0</ele><time>2026-04-12T10:30:35.537Z</time></trkpt><trkpt lat="38.4361666" lon="16.2208104"><ele>1100.0</ele><time>2026-04-12T10:30:36.526Z</time></trkpt><trkpt lat="38.4362412" lon="16.2207131"><ele>1100.0</ele><time>2026-04-12T10:30:37.53Z</time></trkpt><trkpt lat="38.4362977" lon="16.2206055"><ele>1100.0</ele><time>2026-04-12T10:30:38.536Z</time></trkpt><trkpt lat="38.4363274" lon="16.2204811"><ele>1100.0</ele><time>2026-04-12T10:30:39.54Z</time></trkpt><trkpt lat="38.436339" lon="16.2203542"><ele>1101.0</ele><time>2026-04-12T10:30:40.539Z</time></trkpt><trkpt lat="38.4363303" lon="16.2202213"><ele>1102.0</ele><time>2026-04-12T10:30:41.532Z</time></trkpt><trkpt lat="38.4363088" lon="16.2200791"><ele>1103.0</ele><time>2026-04-12T10:30:42.539Z</time></trkpt><trkpt lat="38.4362787" lon="16.219927"><ele>1104.0</ele><time>2026-04-12T10:30:43.539Z</time></trkpt><trkpt lat="38.4362434" lon="16.2197703"><ele>1101.25</ele><time>2026-04-12T10:30:44.543Z</time></trkpt><trkpt lat="38.4362087" lon="16.2196115"><ele>1098.5</ele><time>2026-04-12T10:30:45.527Z</time></trkpt><trkpt lat="38.4361756" lon="16.2194519"><ele>1095.75</ele><time>2026-04-12T10:30:46.53Z</time></trkpt><trkpt lat="38.4361452" lon="16.2192913"><ele>1093.0</ele><time>2026-04-12T10:30:47.532Z</time></trkpt><trkpt lat="38.4361113" lon="16.2191311"><ele>1089.6666666666665</ele><time>2026-04-12T10:30:48.533Z</time></trkpt><trkpt lat="38.4360652" lon="16.2189724"><ele>1086.3333333333333</ele><time>2026-04-12T10:30:49.53Z</time></trkpt><trkpt lat="38.4360242" lon="16.2188256"><ele>1083.0</ele><time>2026-04-12T10:30:50.527Z</time></trkpt><trkpt lat="38.435971" lon="16.2184921"><ele>1083.0</ele><time>2026-04-12T10:30:52.531Z</time></trkpt><trkpt lat="38.4359804" lon="16.2183061"><ele>1083.0</ele><time>2026-04-12T10:30:53.533Z</time></trkpt><trkpt lat="38.4360176" lon="16.2181294"><ele>1083.0</ele><time>2026-04-12T10:30:54.534Z</time></trkpt><trkpt lat="38.4360824" lon="16.2179753"><ele>1083.0</ele><time>2026-04-12T10:30:55.527Z</time></trkpt><trkpt lat="38.436157" lon="16.2178323"><ele>1082.25</ele><time>2026-04-12T10:30:56.529Z</time></trkpt><trkpt lat="38.4362454" lon="16.2176986"><ele>1081.5</ele><time>2026-04-12T10:30:57.541Z</time></trkpt><trkpt lat="38.4363326" lon="16.2175651"><ele>1080.75</ele><time>2026-04-12T10:30:58.535Z</time></trkpt><trkpt lat="38.4364174" lon="16.2174328"><ele>1080.0</ele><time>2026-04-12T10:30:59.525Z</time></trkpt><trkpt lat="38.4365004" lon="16.2172969"><ele>1079.5</ele><time>2026-04-12T10:31:00.53Z</time></trkpt><trkpt lat="38.4365881" lon="16.2171606"><ele>1079.0</ele><time>2026-04-12T10:31:01.526Z</time></trkpt><trkpt lat="38.4366753" lon="16.2170203"><ele>1078.5</ele><time>2026-04-12T10:31:02.527Z</time></trkpt><trkpt lat="38.4367638" lon="16.2168779"><ele>1078.0</ele><time>2026-04-12T10:31:03.536Z</time></trkpt><trkpt lat="38.4368454" lon="16.216733"><ele>1078.0</ele><time>2026-04-12T10:31:04.524Z</time></trkpt><trkpt lat="38.43691" lon="16.2165825"><ele>1078.0</ele><time>2026-04-12T10:31:05.536Z</time></trkpt><trkpt lat="38.4369517" lon="16.2164249"><ele>1078.0</ele><time>2026-04-12T10:31:06.53Z</time></trkpt><trkpt lat="38.4369857" lon="16.2162735"><ele>1078.0</ele><time>2026-04-12T10:31:07.525Z</time></trkpt><trkpt lat="38.4369682" lon="16.2161087"><ele>1076.5</ele><time>2026-04-12T10:31:08.529Z</time></trkpt><trkpt lat="38.4369279" lon="16.2159599"><ele>1075.0</ele><time>2026-04-12T10:31:09.537Z</time></trkpt><trkpt lat="38.4368641" lon="16.2158274"><ele>1073.5</ele><time>2026-04-12T10:31:10.523Z</time></trkpt><trkpt lat="38.4367814" lon="16.215706"><ele>1072.0</ele><time>2026-04-12T10:31:11.527Z</time></trkpt><trkpt lat="38.4366034" lon="16.2155095"><ele>1069.0</ele><time>2026-04-12T10:31:13.52Z</time></trkpt><trkpt lat="38.4364931" lon="16.2154505"><ele>1066.0</ele><time>2026-04-12T10:31:14.528Z</time></trkpt><trkpt lat="38.4363813" lon="16.2154295"><ele>1063.0</ele><time>2026-04-12T10:31:15.535Z</time></trkpt><trkpt lat="38.4362644" lon="16.2154366"><ele>1060.0</ele><time>2026-04-12T10:31:16.53Z</time></trkpt><trkpt lat="38.4361377" lon="16.215463"><ele>1060.0</ele><time>2026-04-12T10:31:17.521Z</time></trkpt><trkpt lat="38.4360129" lon="16.2154912"><ele>1060.0</ele><time>2026-04-12T10:31:18.525Z</time></trkpt><trkpt lat="38.4358879" lon="16.2155252"><ele>1060.0</ele><time>2026-04-12T10:31:19.533Z</time></trkpt><trkpt lat="38.4357586" lon="16.2155598"><ele>1060.0</ele><time>2026-04-12T10:31:20.532Z</time></trkpt><trkpt lat="38.4356281" lon="16.2155975"><ele>1060.0</ele><time>2026-04-12T10:31:21.523Z</time></trkpt><trkpt lat="38.4354997" lon="16.2156263"><ele>1060.0</ele><time>2026-04-12T10:31:22.538Z</time></trkpt><trkpt lat="38.4353643" lon="16.2156335"><ele>1060.0</ele><time>2026-04-12T10:31:23.54Z</time></trkpt><trkpt lat="38.4352272" lon="16.2156456"><ele>1060.0</ele><time>2026-04-12T10:31:24.527Z</time></trkpt><trkpt lat="38.4350977" lon="16.2156273"><ele>1060.6666666666665</ele><time>2026-04-12T10:31:25.521Z</time></trkpt><trkpt lat="38.4349487" lon="16.2156162"><ele>1061.3333333333333</ele><time>2026-04-12T10:31:26.545Z</time></trkpt><trkpt lat="38.4347977" lon="16.2155826"><ele>1062.0</ele><time>2026-04-12T10:31:27.532Z</time></trkpt><trkpt lat="38.4346505" lon="16.215542"><ele>1059.6666666666667</ele><time>2026-04-12T10:31:28.524Z</time></trkpt><trkpt lat="38.4345092" lon="16.2154812"><ele>1057.3333333333335</ele><time>2026-04-12T10:31:29.538Z</time></trkpt><trkpt lat="38.4343691" lon="16.215394"><ele>1055.0</ele><time>2026-04-12T10:31:30.529Z</time></trkpt><trkpt lat="38.4342365" lon="16.2153087"><ele>1055.0</ele><time>2026-04-12T10:31:31.524Z</time></trkpt><trkpt lat="38.434124" lon="16.2152116"><ele>1055.0</ele><time>2026-04-12T10:31:32.53Z</time></trkpt><trkpt lat="38.4339117" lon="16.2149732"><ele>1055.0</ele><time>2026-04-12T10:31:34.526Z</time></trkpt><trkpt lat="38.4338311" lon="16.2148197"><ele>1053.5</ele><time>2026-04-12T10:31:35.52Z</time></trkpt><trkpt lat="38.4337464" lon="16.21468"><ele>1052.0</ele><time>2026-04-12T10:31:36.525Z</time></trkpt><trkpt lat="38.4336495" lon="16.214547"><ele>1050.5</ele><time>2026-04-12T10:31:37.539Z</time></trkpt><trkpt lat="38.4335563" lon="16.2144143"><ele>1049.0</ele><time>2026-04-12T10:31:38.536Z</time></trkpt><trkpt lat="38.433457" lon="16.2142826"><ele>1049.0</ele><time>2026-04-12T10:31:39.535Z</time></trkpt><trkpt lat="38.4333571" lon="16.2141516"><ele>1049.0</ele><time>2026-04-12T10:31:40.531Z</time></trkpt><trkpt lat="38.4332597" lon="16.214024"><ele>1049.0</ele><time>2026-04-12T10:31:41.534Z</time></trkpt><trkpt lat="38.4331697" lon="16.2138952"><ele>1049.0</ele><time>2026-04-12T10:31:42.53Z</time></trkpt><trkpt lat="38.4330916" lon="16.2137577"><ele>1050.0</ele><time>2026-04-12T10:31:43.526Z</time></trkpt><trkpt lat="38.4330344" lon="16.2136095"><ele>1051.0</ele><time>2026-04-12T10:31:44.525Z</time></trkpt><trkpt lat="38.4329968" lon="16.2134745"><ele>1052.0</ele><time>2026-04-12T10:31:45.538Z</time></trkpt><trkpt lat="38.4329889" lon="16.213345"><ele>1053.0</ele><time>2026-04-12T10:31:46.527Z</time></trkpt><trkpt lat="38.4330057" lon="16.2132135"><ele>1054.0</ele><time>2026-04-12T10:31:47.531Z</time></trkpt><trkpt lat="38.4330435" lon="16.2130797"><ele>1051.5</ele><time>2026-04-12T10:31:48.529Z</time></trkpt><trkpt lat="38.4330973" lon="16.2129416"><ele>1049.0</ele><time>2026-04-12T10:31:49.534Z</time></trkpt><trkpt lat="38.4331443" lon="16.2127976"><ele>1046.5</ele><time>2026-04-12T10:31:50.538Z</time></trkpt><trkpt lat="38.4331946" lon="16.2126366"><ele>1044.0</ele><time>2026-04-12T10:31:51.535Z</time></trkpt><trkpt lat="38.433238" lon="16.2124623"><ele>1043.6666666666667</ele><time>2026-04-12T10:31:52.534Z</time></trkpt><trkpt lat="38.4332618" lon="16.2122815"><ele>1043.3333333333335</ele><time>2026-04-12T10:31:53.523Z</time></trkpt><trkpt lat="38.4332667" lon="16.2119198"><ele>1043.0</ele><time>2026-04-12T10:31:55.531Z</time></trkpt><trkpt lat="38.433237" lon="16.2117442"><ele>1043.0</ele><time>2026-04-12T10:31:56.525Z</time></trkpt><trkpt lat="38.4332013" lon="16.2115667"><ele>1043.0</ele><time>2026-04-12T10:31:57.524Z</time></trkpt><trkpt lat="38.4331304" lon="16.2113964"><ele>1043.0</ele><time>2026-04-12T10:31:58.54Z</time></trkpt><trkpt lat="38.4330435" lon="16.2112463"><ele>1043.0</ele><time>2026-04-12T10:31:59.542Z</time></trkpt><trkpt lat="38.4329433" lon="16.2111219"><ele>1045.75</ele><time>2026-04-12T10:32:00.527Z</time></trkpt><trkpt lat="38.432835" lon="16.2110057"><ele>1048.5</ele><time>2026-04-12T10:32:01.526Z</time></trkpt><trkpt lat="38.4327257" lon="16.2108966"><ele>1051.25</ele><time>2026-04-12T10:32:02.533Z</time></trkpt><trkpt lat="38.4326147" lon="16.2107898"><ele>1054.0</ele><time>2026-04-12T10:32:03.527Z</time></trkpt><trkpt lat="38.4325023" lon="16.2106833"><ele>1054.25</ele><time>2026-04-12T10:32:04.531Z</time></trkpt><trkpt lat="38.4324011" lon="16.2105739"><ele>1054.5</ele><time>2026-04-12T10:32:05.524Z</time></trkpt><trkpt lat="38.4323039" lon="16.210459"><ele>1054.75</ele><time>2026-04-12T10:32:06.523Z</time></trkpt><trkpt lat="38.4322141" lon="16.2103331"><ele>1055.0</ele><time>2026-04-12T10:32:07.539Z</time></trkpt><trkpt lat="38.4321291" lon="16.2102084"><ele>1052.5</ele><time>2026-04-12T10:32:08.535Z</time></trkpt><trkpt lat="38.4320597" lon="16.2100592"><ele>1050.0</ele><time>2026-04-12T10:32:09.53Z</time></trkpt><trkpt lat="38.4320017" lon="16.2099103"><ele>1047.5</ele><time>2026-04-12T10:32:10.565Z</time></trkpt><trkpt lat="38.4319485" lon="16.2097587"><ele>1045.0</ele><time>2026-04-12T10:32:11.531Z</time></trkpt><trkpt lat="38.4319019" lon="16.2095999"><ele>1043.0</ele><time>2026-04-12T10:32:12.521Z</time></trkpt><trkpt lat="38.4318673" lon="16.2094343"><ele>1041.0</ele><time>2026-04-12T10:32:13.536Z</time></trkpt><trkpt lat="38.431831" lon="16.2092731"><ele>1039.0</ele><time>2026-04-12T10:32:14.53Z</time></trkpt><trkpt lat="38.4317499" lon="16.2089684"><ele>1038.0</ele><time>2026-04-12T10:32:16.527Z</time></trkpt><trkpt lat="38.431715" lon="16.2088198"><ele>1037.0</ele><time>2026-04-12T10:32:17.531Z</time></trkpt><trkpt lat="38.4316802" lon="16.2086404"><ele>1036.0</ele><time>2026-04-12T10:32:18.52Z</time></trkpt><trkpt lat="38.4316633" lon="16.2084254"><ele>1035.0</ele><time>2026-04-12T10:32:19.526Z</time></trkpt><trkpt lat="38.431617" lon="16.2082051"><ele>1035.3333333333333</ele><time>2026-04-12T10:32:20.532Z</time></trkpt><trkpt lat="38.4315518" lon="16.2080039"><ele>1035.6666666666665</ele><time>2026-04-12T10:32:21.525Z</time></trkpt><trkpt lat="38.4314964" lon="16.207825"><ele>1036.0</ele><time>2026-04-12T10:32:22.529Z</time></trkpt><trkpt lat="38.4314439" lon="16.2076365"><ele>1036.0</ele><time>2026-04-12T10:32:23.531Z</time></trkpt><trkpt lat="38.4313848" lon="16.2074514"><ele>1036.0</ele><time>2026-04-12T10:32:24.531Z</time></trkpt><trkpt lat="38.4313399" lon="16.2072669"><ele>1036.0</ele><time>2026-04-12T10:32:25.531Z</time></trkpt><trkpt lat="38.4312858" lon="16.2070893"><ele>1036.5</ele><time>2026-04-12T10:32:26.537Z</time></trkpt><trkpt lat="38.4312162" lon="16.2069302"><ele>1037.0</ele><time>2026-04-12T10:32:27.538Z</time></trkpt><trkpt lat="38.4311325" lon="16.206781"><ele>1037.5</ele><time>2026-04-12T10:32:28.523Z</time></trkpt><trkpt lat="38.431041" lon="16.2066321"><ele>1038.0</ele><time>2026-04-12T10:32:29.531Z</time></trkpt><trkpt lat="38.4309313" lon="16.2064966"><ele>1039.0</ele><time>2026-04-12T10:32:30.53Z</time></trkpt><trkpt lat="38.4308102" lon="16.2063711"><ele>1040.0</ele><time>2026-04-12T10:32:31.532Z</time></trkpt><trkpt lat="38.4306932" lon="16.2062499"><ele>1041.0</ele><time>2026-04-12T10:32:32.528Z</time></trkpt><trkpt lat="38.4305596" lon="16.2061463"><ele>1039.0</ele><time>2026-04-12T10:32:33.528Z</time></trkpt><trkpt lat="38.4304289" lon="16.2060469"><ele>1037.0</ele><time>2026-04-12T10:32:34.521Z</time></trkpt><trkpt lat="38.4303086" lon="16.2059602"><ele>1035.0</ele><time>2026-04-12T10:32:35.524Z</time></trkpt><trkpt lat="38.4300549" lon="16.2057655"><ele>1036.3333333333333</ele><time>2026-04-12T10:32:37.529Z</time></trkpt><trkpt lat="38.4299199" lon="16.2056563"><ele>1037.6666666666665</ele><time>2026-04-12T10:32:38.535Z</time></trkpt><trkpt lat="38.4298341" lon="16.205489"><ele>1039.0</ele><time>2026-04-12T10:32:39.532Z</time></trkpt><trkpt lat="38.4297634" lon="16.2053227"><ele>1039.0</ele><time>2026-04-12T10:32:40.522Z</time></trkpt><trkpt lat="38.4296649" lon="16.2051729"><ele>1039.0</ele><time>2026-04-12T10:32:41.525Z</time></trkpt><trkpt lat="38.42958" lon="16.2050265"><ele>1039.0</ele><time>2026-04-12T10:32:42.526Z</time></trkpt><trkpt lat="38.4295144" lon="16.204845"><ele>1036.3333333333333</ele><time>2026-04-12T10:32:43.529Z</time></trkpt><trkpt lat="38.4294433" lon="16.2046585"><ele>1033.6666666666667</ele><time>2026-04-12T10:32:44.524Z</time></trkpt><trkpt lat="38.4293741" lon="16.20447"><ele>1031.0</ele><time>2026-04-12T10:32:45.528Z</time></trkpt><trkpt lat="38.4293022" lon="16.2042898"><ele>1031.0</ele><time>2026-04-12T10:32:46.528Z</time></trkpt><trkpt lat="38.4292252" lon="16.2041196"><ele>1031.0</ele><time>2026-04-12T10:32:47.526Z</time></trkpt><trkpt lat="38.4291446" lon="16.20396"><ele>1031.0</ele><time>2026-04-12T10:32:48.525Z</time></trkpt><trkpt lat="38.4290788" lon="16.2038019"><ele>1031.0</ele><time>2026-04-12T10:32:49.522Z</time></trkpt><trkpt lat="38.4289859" lon="16.2036484"><ele>1031.3333333333335</ele><time>2026-04-12T10:32:50.534Z</time></trkpt><trkpt lat="38.4289022" lon="16.2034722"><ele>1031.6666666666667</ele><time>2026-04-12T10:32:51.536Z</time></trkpt><trkpt lat="38.428833" lon="16.2033029"><ele>1032.0</ele><time>2026-04-12T10:32:52.524Z</time></trkpt><trkpt lat="38.4287605" lon="16.2031382"><ele>1032.0</ele><time>2026-04-12T10:32:53.529Z</time></trkpt><trkpt lat="38.4286865" lon="16.2029714"><ele>1032.0</ele><time>2026-04-12T10:32:54.523Z</time></trkpt><trkpt lat="38.4285976" lon="16.2028205"><ele>1032.0</ele><time>2026-04-12T10:32:55.528Z</time></trkpt><trkpt lat="38.4285253" lon="16.2026561"><ele>1032.0</ele><time>2026-04-12T10:32:56.524Z</time></trkpt><trkpt lat="38.4284241" lon="16.2023182"><ele>1032.25</ele><time>2026-04-12T10:32:58.524Z</time></trkpt><trkpt lat="38.4283947" lon="16.2021568"><ele>1032.5</ele><time>2026-04-12T10:32:59.524Z</time></trkpt><trkpt lat="38.4283948" lon="16.2019941"><ele>1032.75</ele><time>2026-04-12T10:33:00.531Z</time></trkpt><trkpt lat="38.4283926" lon="16.2018171"><ele>1033.0</ele><time>2026-04-12T10:33:01.529Z</time></trkpt><trkpt lat="38.4284173" lon="16.2016272"><ele>1032.3333333333333</ele><time>2026-04-12T10:33:02.543Z</time></trkpt><trkpt lat="38.4284707" lon="16.20143"><ele>1031.6666666666667</ele><time>2026-04-12T10:33:03.53Z</time></trkpt><trkpt lat="38.4285229" lon="16.2012276"><ele>1031.0</ele><time>2026-04-12T10:33:04.525Z</time></trkpt><trkpt lat="38.4285675" lon="16.2010323"><ele>1031.0</ele><time>2026-04-12T10:33:05.531Z</time></trkpt><trkpt lat="38.4286135" lon="16.2008381"><ele>1031.0</ele><time>2026-04-12T10:33:06.529Z</time></trkpt><trkpt lat="38.4286505" lon="16.2006486"><ele>1031.0</ele><time>2026-04-12T10:33:07.527Z</time></trkpt><trkpt lat="38.428667" lon="16.2004441"><ele>1028.3333333333335</ele><time>2026-04-12T10:33:08.528Z</time></trkpt><trkpt lat="38.4286532" lon="16.200254"><ele>1025.6666666666667</ele><time>2026-04-12T10:33:09.528Z</time></trkpt><trkpt lat="38.428645" lon="16.2000224"><ele>1023.0</ele><time>2026-04-12T10:33:10.544Z</time></trkpt><trkpt lat="38.4285874" lon="16.1998357"><ele>1019.6666666666667</ele><time>2026-04-12T10:33:11.527Z</time></trkpt><trkpt lat="38.4284865" lon="16.1996451"><ele>1016.3333333333334</ele><time>2026-04-12T10:33:12.527Z</time></trkpt><trkpt lat="38.4283512" lon="16.1994516"><ele>1013.0</ele><time>2026-04-12T10:33:13.527Z</time></trkpt><trkpt lat="38.4282062" lon="16.199254"><ele>1013.0</ele><time>2026-04-12T10:33:14.524Z</time></trkpt><trkpt lat="38.428056" lon="16.1990478"><ele>1013.0</ele><time>2026-04-12T10:33:15.531Z</time></trkpt><trkpt lat="38.4279084" lon="16.1988476"><ele>1013.0</ele><time>2026-04-12T10:33:16.531Z</time></trkpt><trkpt lat="38.4277737" lon="16.1986613"><ele>1012.5</ele><time>2026-04-12T10:33:17.525Z</time></trkpt><trkpt lat="38.4275248" lon="16.1983113"><ele>1012.0</ele><time>2026-04-12T10:33:19.528Z</time></trkpt><trkpt lat="38.4274051" lon="16.1981444"><ele>1013.3333333333333</ele><time>2026-04-12T10:33:20.523Z</time></trkpt><trkpt lat="38.4272855" lon="16.1979814"><ele>1014.6666666666667</ele><time>2026-04-12T10:33:21.543Z</time></trkpt><trkpt lat="38.4271781" lon="16.1978288"><ele>1016.0</ele><time>2026-04-12T10:33:22.533Z</time></trkpt><trkpt lat="38.4270844" lon="16.1976767"><ele>1016.0</ele><time>2026-04-12T10:33:23.522Z</time></trkpt><trkpt lat="38.4270049" lon="16.1975242"><ele>1016.0</ele><time>2026-04-12T10:33:24.535Z</time></trkpt><trkpt lat="38.4269386" lon="16.1973688"><ele>1016.0</ele><time>2026-04-12T10:33:25.525Z</time></trkpt><trkpt lat="38.4268749" lon="16.1972229"><ele>1016.0</ele><time>2026-04-12T10:33:26.521Z</time></trkpt><trkpt lat="38.4268183" lon="16.1970675"><ele>1016.0</ele><time>2026-04-12T10:33:27.53Z</time></trkpt><trkpt lat="38.4267807" lon="16.1968984"><ele>1016.0</ele><time>2026-04-12T10:33:28.528Z</time></trkpt><trkpt lat="38.426757" lon="16.1967189"><ele>1016.0</ele><time>2026-04-12T10:33:29.52Z</time></trkpt><trkpt lat="38.4267556" lon="16.1965327"><ele>1016.0</ele><time>2026-04-12T10:33:30.531Z</time></trkpt><trkpt lat="38.4267415" lon="16.1963354"><ele>1016.0</ele><time>2026-04-12T10:33:31.528Z</time></trkpt><trkpt lat="38.4267423" lon="16.1960859"><ele>1016.0</ele><time>2026-04-12T10:33:32.523Z</time></trkpt><trkpt lat="38.42672" lon="16.1958736"><ele>1016.0</ele><time>2026-04-12T10:33:33.524Z</time></trkpt><trkpt lat="38.4267022" lon="16.1957204"><ele>1014.5</ele><time>2026-04-12T10:33:34.527Z</time></trkpt><trkpt lat="38.4266657" lon="16.1955771"><ele>1013.0</ele><time>2026-04-12T10:33:35.525Z</time></trkpt><trkpt lat="38.4266179" lon="16.1954328"><ele>1011.5</ele><time>2026-04-12T10:33:36.521Z</time></trkpt><trkpt lat="38.426547" lon="16.1952813"><ele>1010.0</ele><time>2026-04-12T10:33:37.531Z</time></trkpt><trkpt lat="38.4264989" lon="16.195129"><ele>1010.0</ele><time>2026-04-12T10:33:38.524Z</time></trkpt><trkpt lat="38.4263525" lon="16.1947825"><ele>1010.0</ele><time>2026-04-12T10:33:40.532Z</time></trkpt><trkpt lat="38.4262734" lon="16.1946018"><ele>1010.0</ele><time>2026-04-12T10:33:41.524Z</time></trkpt><trkpt lat="38.4261858" lon="16.1944276"><ele>1010.0</ele><time>2026-04-12T10:33:42.529Z</time></trkpt><trkpt lat="38.4261106" lon="16.1942579"><ele>1010.0</ele><time>2026-04-12T10:33:43.532Z</time></trkpt><trkpt lat="38.4260509" lon="16.1940861"><ele>1009.75</ele><time>2026-04-12T10:33:44.53Z</time></trkpt><trkpt lat="38.4260059" lon="16.1939249"><ele>1009.5</ele><time>2026-04-12T10:33:45.527Z</time></trkpt><trkpt lat="38.4259615" lon="16.1937674"><ele>1009.25</ele><time>2026-04-12T10:33:46.528Z</time></trkpt><trkpt lat="38.4259451" lon="16.1936267"><ele>1009.0</ele><time>2026-04-12T10:33:47.521Z</time></trkpt><trkpt lat="38.4259507" lon="16.1934922"><ele>1009.0</ele><time>2026-04-12T10:33:48.527Z</time></trkpt><trkpt lat="38.4260178" lon="16.1933488"><ele>1009.0</ele><time>2026-04-12T10:33:49.528Z</time></trkpt><trkpt lat="38.4261044" lon="16.1932234"><ele>1009.0</ele><time>2026-04-12T10:33:50.537Z</time></trkpt><trkpt lat="38.4261974" lon="16.1930849"><ele>1009.0</ele><time>2026-04-12T10:33:51.524Z</time></trkpt><trkpt lat="38.4263199" lon="16.1929373"><ele>1008.3333333333333</ele><time>2026-04-12T10:33:52.535Z</time></trkpt><trkpt lat="38.4264331" lon="16.1928024"><ele>1007.6666666666667</ele><time>2026-04-12T10:33:53.531Z</time></trkpt><trkpt lat="38.4265262" lon="16.1926508"><ele>1007.0</ele><time>2026-04-12T10:33:54.52Z</time></trkpt><trkpt lat="38.4266092" lon="16.1924868"><ele>1009.6666666666667</ele><time>2026-04-12T10:33:55.541Z</time></trkpt><trkpt lat="38.4266867" lon="16.1923148"><ele>1012.3333333333333</ele><time>2026-04-12T10:33:56.547Z</time></trkpt><trkpt lat="38.4267602" lon="16.1921461"><ele>1015.0</ele><time>2026-04-12T10:33:57.535Z</time></trkpt><trkpt lat="38.4268307" lon="16.1919857"><ele>1015.0</ele><time>2026-04-12T10:33:58.547Z</time></trkpt><trkpt lat="38.4268925" lon="16.1918266"><ele>1015.0</ele><time>2026-04-12T10:33:59.538Z</time></trkpt><trkpt lat="38.4269888" lon="16.191498"><ele>1015.0</ele><time>2026-04-12T10:34:01.534Z</time></trkpt><trkpt lat="38.4270319" lon="16.1913282"><ele>1016.0</ele><time>2026-04-12T10:34:02.537Z</time></trkpt><trkpt lat="38.4270802" lon="16.1911518"><ele>1017.0</ele><time>2026-04-12T10:34:03.523Z</time></trkpt><trkpt lat="38.4271494" lon="16.190984"><ele>1018.0</ele><time>2026-04-12T10:34:04.526Z</time></trkpt><trkpt lat="38.4272297" lon="16.1908108"><ele>1013.3333333333333</ele><time>2026-04-12T10:34:05.535Z</time></trkpt><trkpt lat="38.4272959" lon="16.1906179"><ele>1008.6666666666667</ele><time>2026-04-12T10:34:06.519Z</time></trkpt><trkpt lat="38.4273573" lon="16.1904442"><ele>1004.0</ele><time>2026-04-12T10:34:07.525Z</time></trkpt><trkpt lat="38.4274181" lon="16.1902768"><ele>1004.0</ele><time>2026-04-12T10:34:08.524Z</time></trkpt><trkpt lat="38.4274525" lon="16.1901005"><ele>1004.0</ele><time>2026-04-12T10:34:09.527Z</time></trkpt><trkpt lat="38.4274773" lon="16.1899291"><ele>1004.0</ele><time>2026-04-12T10:34:10.526Z</time></trkpt><trkpt lat="38.4274782" lon="16.1897586"><ele>1004.0</ele><time>2026-04-12T10:34:11.525Z</time></trkpt><trkpt lat="38.4274556" lon="16.1895745"><ele>1002.3333333333334</ele><time>2026-04-12T10:34:12.525Z</time></trkpt><trkpt lat="38.427415" lon="16.18938"><ele>1000.6666666666667</ele><time>2026-04-12T10:34:13.534Z</time></trkpt><trkpt lat="38.4273716" lon="16.1891911"><ele>999.0</ele><time>2026-04-12T10:34:14.525Z</time></trkpt><trkpt lat="38.4272899" lon="16.188999"><ele>998.6666666666667</ele><time>2026-04-12T10:34:15.528Z</time></trkpt><trkpt lat="38.4272111" lon="16.1888126"><ele>998.3333333333334</ele><time>2026-04-12T10:34:16.527Z</time></trkpt><trkpt lat="38.4270954" lon="16.1886443"><ele>998.0</ele><time>2026-04-12T10:34:17.536Z</time></trkpt><trkpt lat="38.4269766" lon="16.1884711"><ele>998.3333333333334</ele><time>2026-04-12T10:34:18.532Z</time></trkpt><trkpt lat="38.4268516" lon="16.1883013"><ele>998.6666666666667</ele><time>2026-04-12T10:34:19.538Z</time></trkpt><trkpt lat="38.4267232" lon="16.1881417"><ele>999.0</ele><time>2026-04-12T10:34:20.533Z</time></trkpt><trkpt lat="38.4264355" lon="16.1878287"><ele>996.3333333333333</ele><time>2026-04-12T10:34:22.53Z</time></trkpt><trkpt lat="38.4262824" lon="16.187665"><ele>993.6666666666666</ele><time>2026-04-12T10:34:23.527Z</time></trkpt><trkpt lat="38.4261412" lon="16.1875123"><ele>991.0</ele><time>2026-04-12T10:34:24.533Z</time></trkpt><trkpt lat="38.4260069" lon="16.1873812"><ele>994.5</ele><time>2026-04-12T10:34:25.529Z</time></trkpt><trkpt lat="38.4258892" lon="16.1872585"><ele>998.0</ele><time>2026-04-12T10:34:26.523Z</time></trkpt><trkpt lat="38.4257918" lon="16.1871338"><ele>1001.5</ele><time>2026-04-12T10:34:27.521Z</time></trkpt><trkpt lat="38.4257165" lon="16.1870107"><ele>1005.0</ele><time>2026-04-12T10:34:28.524Z</time></trkpt><trkpt lat="38.4256616" lon="16.1868833"><ele>1005.0</ele><time>2026-04-12T10:34:29.529Z</time></trkpt><trkpt lat="38.4256114" lon="16.1867558"><ele>1005.0</ele><time>2026-04-12T10:34:30.524Z</time></trkpt><trkpt lat="38.4255903" lon="16.1866255"><ele>1005.0</ele><time>2026-04-12T10:34:31.544Z</time></trkpt><trkpt lat="38.4256022" lon="16.1864938"><ele>1005.0</ele><time>2026-04-12T10:34:32.527Z</time></trkpt><trkpt lat="38.4256653" lon="16.1863624"><ele>1005.0</ele><time>2026-04-12T10:34:33.529Z</time></trkpt><trkpt lat="38.4257415" lon="16.1862205"><ele>1004.75</ele><time>2026-04-12T10:34:34.538Z</time></trkpt><trkpt lat="38.4258274" lon="16.1860882"><ele>1004.5</ele><time>2026-04-12T10:34:35.531Z</time></trkpt><trkpt lat="38.4258928" lon="16.1859489"><ele>1004.25</ele><time>2026-04-12T10:34:36.529Z</time></trkpt><trkpt lat="38.4259557" lon="16.1858185"><ele>1004.0</ele><time>2026-04-12T10:34:37.531Z</time></trkpt><trkpt lat="38.4260028" lon="16.1856578"><ele>1004.0</ele><time>2026-04-12T10:34:38.523Z</time></trkpt><trkpt lat="38.4260397" lon="16.1854654"><ele>1004.0</ele><time>2026-04-12T10:34:39.521Z</time></trkpt><trkpt lat="38.4260577" lon="16.185257"><ele>1004.0</ele><time>2026-04-12T10:34:40.534Z</time></trkpt><trkpt lat="38.4260555" lon="16.1850621"><ele>1006.0</ele><time>2026-04-12T10:34:41.533Z</time></trkpt><trkpt lat="38.426067" lon="16.1846402"><ele>1008.0</ele><time>2026-04-12T10:34:43.523Z</time></trkpt><trkpt lat="38.4260562" lon="16.1844227"><ele>1008.0</ele><time>2026-04-12T10:34:44.524Z</time></trkpt><trkpt lat="38.4260536" lon="16.1842147"><ele>1008.0</ele><time>2026-04-12T10:34:45.53Z</time></trkpt><trkpt lat="38.4260494" lon="16.1840094"><ele>1008.0</ele><time>2026-04-12T10:34:46.532Z</time></trkpt><trkpt lat="38.42604" lon="16.1838057"><ele>1007.3333333333333</ele><time>2026-04-12T10:34:47.532Z</time></trkpt><trkpt lat="38.4260343" lon="16.1836097"><ele>1006.6666666666666</ele><time>2026-04-12T10:34:48.532Z</time></trkpt><trkpt lat="38.4260048" lon="16.1834136"><ele>1006.0</ele><time>2026-04-12T10:34:49.529Z</time></trkpt><trkpt lat="38.425976" lon="16.1832324"><ele>1006.0</ele><time>2026-04-12T10:34:50.53Z</time></trkpt><trkpt lat="38.4259326" lon="16.183063"><ele>1006.0</ele><time>2026-04-12T10:34:51.529Z</time></trkpt><trkpt lat="38.4258819" lon="16.1829052"><ele>1006.0</ele><time>2026-04-12T10:34:52.527Z</time></trkpt><trkpt lat="38.4258134" lon="16.1827788"><ele>1006.0</ele><time>2026-04-12T10:34:53.526Z</time></trkpt><trkpt lat="38.4257185" lon="16.1826638"><ele>1006.0</ele><time>2026-04-12T10:34:54.537Z</time></trkpt><trkpt lat="38.4256031" lon="16.1825605"><ele>1006.0</ele><time>2026-04-12T10:34:55.521Z</time></trkpt><trkpt lat="38.425472" lon="16.1824827"><ele>1006.0</ele><time>2026-04-12T10:34:56.527Z</time></trkpt><trkpt lat="38.425332" lon="16.182425"><ele>1006.0</ele><time>2026-04-12T10:34:57.529Z</time></trkpt><trkpt lat="38.425185" lon="16.1823909"><ele>1004.6666666666666</ele><time>2026-04-12T10:34:58.522Z</time></trkpt><trkpt lat="38.4250267" lon="16.1823577"><ele>1003.3333333333333</ele><time>2026-04-12T10:34:59.531Z</time></trkpt><trkpt lat="38.4248417" lon="16.1823515"><ele>1002.0</ele><time>2026-04-12T10:35:00.526Z</time></trkpt><trkpt lat="38.4246452" lon="16.1823326"><ele>997.0</ele><time>2026-04-12T10:35:01.524Z</time></trkpt><trkpt lat="38.4244483" lon="16.1823244"><ele>992.0</ele><time>2026-04-12T10:35:02.529Z</time></trkpt><trkpt lat="38.4240644" lon="16.182313"><ele>992.0</ele><time>2026-04-12T10:35:04.53Z</time></trkpt><trkpt lat="38.4238759" lon="16.182313"><ele>992.0</ele><time>2026-04-12T10:35:05.53Z</time></trkpt><trkpt lat="38.4237032" lon="16.1823084"><ele>992.0</ele><time>2026-04-12T10:35:06.534Z</time></trkpt><trkpt lat="38.423529" lon="16.1822843"><ele>993.3333333333334</ele><time>2026-04-12T10:35:07.536Z</time></trkpt><trkpt lat="38.4233617" lon="16.1822385"><ele>994.6666666666667</ele><time>2026-04-12T10:35:08.533Z</time></trkpt><trkpt lat="38.4232116" lon="16.182178"><ele>996.0</ele><time>2026-04-12T10:35:09.53Z</time></trkpt><trkpt lat="38.4230728" lon="16.1820976"><ele>997.25</ele><time>2026-04-12T10:35:10.531Z</time></trkpt><trkpt lat="38.4229555" lon="16.1819805"><ele>998.5</ele><time>2026-04-12T10:35:11.529Z</time></trkpt><trkpt lat="38.4228559" lon="16.1818491"><ele>999.75</ele><time>2026-04-12T10:35:12.54Z</time></trkpt><trkpt lat="38.4227676" lon="16.181711"><ele>1001.0</ele><time>2026-04-12T10:35:13.53Z</time></trkpt><trkpt lat="38.4226827" lon="16.1815637"><ele>1001.25</ele><time>2026-04-12T10:35:14.53Z</time></trkpt><trkpt lat="38.4225764" lon="16.1814405"><ele>1001.5</ele><time>2026-04-12T10:35:15.529Z</time></trkpt><trkpt lat="38.4224791" lon="16.1813289"><ele>1001.75</ele><time>2026-04-12T10:35:16.528Z</time></trkpt><trkpt lat="38.4223164" lon="16.1812668"><ele>1002.0</ele><time>2026-04-12T10:35:17.522Z</time></trkpt><trkpt lat="38.4221576" lon="16.1812066"><ele>1002.0</ele><time>2026-04-12T10:35:18.528Z</time></trkpt><trkpt lat="38.4219943" lon="16.1811425"><ele>1002.0</ele><time>2026-04-12T10:35:19.529Z</time></trkpt><trkpt lat="38.4218223" lon="16.1810801"><ele>1002.0</ele><time>2026-04-12T10:35:20.524Z</time></trkpt><trkpt lat="38.4216475" lon="16.1810121"><ele>1002.0</ele><time>2026-04-12T10:35:21.532Z</time></trkpt><trkpt lat="38.4214719" lon="16.1809514"><ele>1002.0</ele><time>2026-04-12T10:35:22.525Z</time></trkpt><trkpt lat="38.4212945" lon="16.1808922"><ele>1002.0</ele><time>2026-04-12T10:35:23.529Z</time></trkpt><trkpt lat="38.420966" lon="16.1808025"><ele>1000.6666666666667</ele><time>2026-04-12T10:35:25.535Z</time></trkpt><trkpt lat="38.4208149" lon="16.180755"><ele>999.3333333333334</ele><time>2026-04-12T10:35:26.526Z</time></trkpt><trkpt lat="38.4206646" lon="16.1807057"><ele>998.0</ele><time>2026-04-12T10:35:27.526Z</time></trkpt><trkpt lat="38.4205149" lon="16.1806441"><ele>996.25</ele><time>2026-04-12T10:35:28.535Z</time></trkpt><trkpt lat="38.4203715" lon="16.1805757"><ele>994.5</ele><time>2026-04-12T10:35:29.528Z</time></trkpt><trkpt lat="38.4202415" lon="16.1804953"><ele>992.75</ele><time>2026-04-12T10:35:30.528Z</time></trkpt><trkpt lat="38.4201263" lon="16.1804189"><ele>991.0</ele><time>2026-04-12T10:35:31.533Z</time></trkpt><trkpt lat="38.4200347" lon="16.1803111"><ele>991.0</ele><time>2026-04-12T10:35:32.526Z</time></trkpt><trkpt lat="38.4199575" lon="16.1801929"><ele>991.0</ele><time>2026-04-12T10:35:33.541Z</time></trkpt><trkpt lat="38.4198943" lon="16.1800442"><ele>991.0</ele><time>2026-04-12T10:35:34.544Z</time></trkpt><trkpt lat="38.4198512" lon="16.1798769"><ele>991.0</ele><time>2026-04-12T10:35:35.535Z</time></trkpt><trkpt lat="38.4198316" lon="16.1797002"><ele>989.5</ele><time>2026-04-12T10:35:36.53Z</time></trkpt><trkpt lat="38.419841" lon="16.1795186"><ele>988.0</ele><time>2026-04-12T10:35:37.521Z</time></trkpt><trkpt lat="38.4198838" lon="16.1793398"><ele>986.5</ele><time>2026-04-12T10:35:38.527Z</time></trkpt><trkpt lat="38.4199506" lon="16.1791782"><ele>985.0</ele><time>2026-04-12T10:35:39.531Z</time></trkpt><trkpt lat="38.4200234" lon="16.1790175"><ele>985.25</ele><time>2026-04-12T10:35:40.534Z</time></trkpt><trkpt lat="38.4201106" lon="16.1788669"><ele>985.5</ele><time>2026-04-12T10:35:41.535Z</time></trkpt><trkpt lat="38.4202015" lon="16.1787149"><ele>985.75</ele><time>2026-04-12T10:35:42.534Z</time></trkpt><trkpt lat="38.4202911" lon="16.178567"><ele>986.0</ele><time>2026-04-12T10:35:43.531Z</time></trkpt><trkpt lat="38.4203758" lon="16.1784152"><ele>983.0</ele><time>2026-04-12T10:35:44.542Z</time></trkpt><trkpt lat="38.4205303" lon="16.178133"><ele>980.0</ele><time>2026-04-12T10:35:46.525Z</time></trkpt><trkpt lat="38.4205963" lon="16.1779958"><ele>977.0</ele><time>2026-04-12T10:35:47.533Z</time></trkpt><trkpt lat="38.4206511" lon="16.177862"><ele>977.0</ele><time>2026-04-12T10:35:48.536Z</time></trkpt><trkpt lat="38.4206914" lon="16.1777161"><ele>977.0</ele><time>2026-04-12T10:35:49.534Z</time></trkpt><trkpt lat="38.4207239" lon="16.177575"><ele>977.0</ele><time>2026-04-12T10:35:50.532Z</time></trkpt><trkpt lat="38.420733" lon="16.1774297"><ele>977.0</ele><time>2026-04-12T10:35:51.534Z</time></trkpt><trkpt lat="38.420713" lon="16.1772761"><ele>976.0</ele><time>2026-04-12T10:35:52.525Z</time></trkpt><trkpt lat="38.4206694" lon="16.1771407"><ele>975.0</ele><time>2026-04-12T10:35:53.521Z</time></trkpt><trkpt lat="38.4206084" lon="16.1769986"><ele>974.0</ele><time>2026-04-12T10:35:54.537Z</time></trkpt><trkpt lat="38.4205357" lon="16.1768649"><ele>973.0</ele><time>2026-04-12T10:35:55.535Z</time></trkpt><trkpt lat="38.4204509" lon="16.1767632"><ele>973.0</ele><time>2026-04-12T10:35:56.52Z</time></trkpt><trkpt lat="38.4203356" lon="16.176658"><ele>973.0</ele><time>2026-04-12T10:35:57.53Z</time></trkpt><trkpt lat="38.4202171" lon="16.1765255"><ele>973.0</ele><time>2026-04-12T10:35:58.53Z</time></trkpt><trkpt lat="38.4201056" lon="16.1764163"><ele>973.0</ele><time>2026-04-12T10:35:59.519Z</time></trkpt><trkpt lat="38.4199998" lon="16.1763144"><ele>971.0</ele><time>2026-04-12T10:36:00.533Z</time></trkpt><trkpt lat="38.4198853" lon="16.1762029"><ele>969.0</ele><time>2026-04-12T10:36:01.528Z</time></trkpt><trkpt lat="38.4197624" lon="16.1760776"><ele>967.0</ele><time>2026-04-12T10:36:02.52Z</time></trkpt><trkpt lat="38.4196528" lon="16.1759651"><ele>965.0</ele><time>2026-04-12T10:36:03.528Z</time></trkpt><trkpt lat="38.4195247" lon="16.1758473"><ele>965.0</ele><time>2026-04-12T10:36:04.531Z</time></trkpt><trkpt lat="38.4194257" lon="16.1757344"><ele>965.0</ele><time>2026-04-12T10:36:05.52Z</time></trkpt><trkpt lat="38.4192585" lon="16.1756092"><ele>965.0</ele><time>2026-04-12T10:36:07.534Z</time></trkpt><trkpt lat="38.4191607" lon="16.175554"><ele>965.0</ele><time>2026-04-12T10:36:08.539Z</time></trkpt><trkpt lat="38.419049" lon="16.1755115"><ele>963.8</ele><time>2026-04-12T10:36:09.524Z</time></trkpt><trkpt lat="38.4189455" lon="16.1754713"><ele>962.6</ele><time>2026-04-12T10:36:10.523Z</time></trkpt><trkpt lat="38.4188507" lon="16.1754566"><ele>961.4000000000001</ele><time>2026-04-12T10:36:11.537Z</time></trkpt><trkpt lat="38.4187494" lon="16.1754598"><ele>960.2</ele><time>2026-04-12T10:36:12.517Z</time></trkpt><trkpt lat="38.4186534" lon="16.1754922"><ele>959.0</ele><time>2026-04-12T10:36:13.529Z</time></trkpt><trkpt lat="38.4185548" lon="16.1755198"><ele>956.5</ele><time>2026-04-12T10:36:14.527Z</time></trkpt><trkpt lat="38.4184417" lon="16.1756237"><ele>954.0</ele><time>2026-04-12T10:36:15.521Z</time></trkpt><trkpt lat="38.4183705" lon="16.1757243"><ele>951.5</ele><time>2026-04-12T10:36:16.536Z</time></trkpt><trkpt lat="38.4183162" lon="16.1758342"><ele>949.0</ele><time>2026-04-12T10:36:17.532Z</time></trkpt><trkpt lat="38.4182637" lon="16.1759758"><ele>949.0</ele><time>2026-04-12T10:36:18.531Z</time></trkpt><trkpt lat="38.4182095" lon="16.1761034"><ele>949.0</ele><time>2026-04-12T10:36:19.547Z</time></trkpt><trkpt lat="38.4181451" lon="16.1762502"><ele>949.0</ele><time>2026-04-12T10:36:20.524Z</time></trkpt><trkpt lat="38.4181034" lon="16.1764037"><ele>949.0</ele><time>2026-04-12T10:36:21.522Z</time></trkpt><trkpt lat="38.4180573" lon="16.1765467"><ele>951.25</ele><time>2026-04-12T10:36:22.524Z</time></trkpt><trkpt lat="38.4180188" lon="16.1766827"><ele>953.5</ele><time>2026-04-12T10:36:23.526Z</time></trkpt><trkpt lat="38.4179524" lon="16.1768081"><ele>955.75</ele><time>2026-04-12T10:36:24.52Z</time></trkpt><trkpt lat="38.4178731" lon="16.176944"><ele>958.0</ele><time>2026-04-12T10:36:25.527Z</time></trkpt><trkpt lat="38.4177771" lon="16.1770784"><ele>950.5</ele><time>2026-04-12T10:36:26.531Z</time></trkpt><trkpt lat="38.4175556" lon="16.177348"><ele>943.0</ele><time>2026-04-12T10:36:28.532Z</time></trkpt><trkpt lat="38.4174495" lon="16.1774746"><ele>943.0</ele><time>2026-04-12T10:36:29.528Z</time></trkpt><trkpt lat="38.4173424" lon="16.1775762"><ele>943.0</ele><time>2026-04-12T10:36:30.522Z</time></trkpt><trkpt lat="38.417255" lon="16.1776858"><ele>943.0</ele><time>2026-04-12T10:36:31.522Z</time></trkpt><trkpt lat="38.4171613" lon="16.1777962"><ele>943.0</ele><time>2026-04-12T10:36:32.528Z</time></trkpt><trkpt lat="38.4170609" lon="16.1778929"><ele>936.5</ele><time>2026-04-12T10:36:33.526Z</time></trkpt><trkpt lat="38.4169499" lon="16.1779681"><ele>930.0</ele><time>2026-04-12T10:36:34.537Z</time></trkpt><trkpt lat="38.416817" lon="16.1779998"><ele>923.5</ele><time>2026-04-12T10:36:35.526Z</time></trkpt><trkpt lat="38.416727" lon="16.1780248"><ele>917.0</ele><time>2026-04-12T10:36:36.525Z</time></trkpt><trkpt lat="38.4166311" lon="16.1779795"><ele>917.0</ele><time>2026-04-12T10:36:37.529Z</time></trkpt><trkpt lat="38.4165332" lon="16.1778922"><ele>917.0</ele><time>2026-04-12T10:36:38.525Z</time></trkpt><trkpt lat="38.4164388" lon="16.1778001"><ele>917.0</ele><time>2026-04-12T10:36:39.524Z</time></trkpt><trkpt lat="38.416348" lon="16.1776714"><ele>917.0</ele><time>2026-04-12T10:36:40.543Z</time></trkpt><trkpt lat="38.4162582" lon="16.177544"><ele>915.4000000000001</ele><time>2026-04-12T10:36:41.536Z</time></trkpt><trkpt lat="38.4161699" lon="16.1774126"><ele>913.8000000000001</ele><time>2026-04-12T10:36:42.554Z</time></trkpt><trkpt lat="38.4160893" lon="16.1772945"><ele>912.2</ele><time>2026-04-12T10:36:43.533Z</time></trkpt><trkpt lat="38.4160198" lon="16.1771893"><ele>910.6</ele><time>2026-04-12T10:36:44.537Z</time></trkpt><trkpt lat="38.4159709" lon="16.1771083"><ele>909.0</ele><time>2026-04-12T10:36:45.534Z</time></trkpt><trkpt lat="38.4159296" lon="16.1770303"><ele>909.0</ele><time>2026-04-12T10:36:46.543Z</time></trkpt><trkpt lat="38.4158968" lon="16.1769597"><ele>909.0</ele><time>2026-04-12T10:36:47.525Z</time></trkpt><trkpt lat="38.4157749" lon="16.1767571"><ele>909.0</ele><time>2026-04-12T10:36:51.527Z</time></trkpt><trkpt lat="38.4156728" lon="16.1766851"><ele>909.0</ele><time>2026-04-12T10:36:53.525Z</time></trkpt><trkpt lat="38.415597" lon="16.1766693"><ele>909.0</ele><time>2026-04-12T10:36:54.533Z</time></trkpt><trkpt lat="38.4155105" lon="16.1766778"><ele>909.0</ele><time>2026-04-12T10:36:55.531Z</time></trkpt><trkpt lat="38.4154209" lon="16.1766992"><ele>909.0</ele><time>2026-04-12T10:36:56.522Z</time></trkpt><trkpt lat="38.4153377" lon="16.1767343"><ele>909.0</ele><time>2026-04-12T10:36:57.537Z</time></trkpt><trkpt lat="38.4152547" lon="16.1767652"><ele>909.0</ele><time>2026-04-12T10:36:58.527Z</time></trkpt><trkpt lat="38.4151652" lon="16.1767936"><ele>909.0</ele><time>2026-04-12T10:36:59.527Z</time></trkpt><trkpt lat="38.4150628" lon="16.1768092"><ele>909.0</ele><time>2026-04-12T10:37:00.53Z</time></trkpt><trkpt lat="38.4149499" lon="16.1767994"><ele>909.0</ele><time>2026-04-12T10:37:01.537Z</time></trkpt><trkpt lat="38.4148153" lon="16.1767813"><ele>909.0</ele><time>2026-04-12T10:37:02.541Z</time></trkpt><trkpt lat="38.4146759" lon="16.1767583"><ele>909.0</ele><time>2026-04-12T10:37:03.529Z</time></trkpt><trkpt lat="38.4145334" lon="16.1767269"><ele>909.25</ele><time>2026-04-12T10:37:04.526Z</time></trkpt><trkpt lat="38.414396" lon="16.1766881"><ele>909.5</ele><time>2026-04-12T10:37:05.533Z</time></trkpt><trkpt lat="38.4142631" lon="16.1766482"><ele>909.75</ele><time>2026-04-12T10:37:06.527Z</time></trkpt><trkpt lat="38.4141371" lon="16.1766102"><ele>910.0</ele><time>2026-04-12T10:37:07.535Z</time></trkpt><trkpt lat="38.4140216" lon="16.1765781"><ele>906.25</ele><time>2026-04-12T10:37:08.538Z</time></trkpt><trkpt lat="38.4138103" lon="16.1765128"><ele>902.5</ele><time>2026-04-12T10:37:10.535Z</time></trkpt><trkpt lat="38.4137072" lon="16.176479"><ele>898.75</ele><time>2026-04-12T10:37:11.535Z</time></trkpt><trkpt lat="38.4135988" lon="16.1764481"><ele>895.0</ele><time>2026-04-12T10:37:12.536Z</time></trkpt><trkpt lat="38.4134943" lon="16.1764223"><ele>894.9999999999999</ele><time>2026-04-12T10:37:13.523Z</time></trkpt><trkpt lat="38.4134056" lon="16.1763944"><ele>895.0</ele><time>2026-04-12T10:37:14.527Z</time></trkpt><trkpt lat="38.4133197" lon="16.1763713"><ele>895.0</ele><time>2026-04-12T10:37:15.531Z</time></trkpt><trkpt lat="38.4132377" lon="16.1763476"><ele>895.0</ele><time>2026-04-12T10:37:16.524Z</time></trkpt><trkpt lat="38.4131575" lon="16.1763355"><ele>894.9999999999999</ele><time>2026-04-12T10:37:17.537Z</time></trkpt><trkpt lat="38.4130792" lon="16.1763374"><ele>895.0</ele><time>2026-04-12T10:37:18.532Z</time></trkpt><trkpt lat="38.4130046" lon="16.1763669"><ele>894.4</ele><time>2026-04-12T10:37:19.526Z</time></trkpt><trkpt lat="38.4129332" lon="16.1764267"><ele>893.8</ele><time>2026-04-12T10:37:20.536Z</time></trkpt><trkpt lat="38.4128689" lon="16.1765182"><ele>893.2</ele><time>2026-04-12T10:37:21.531Z</time></trkpt><trkpt lat="38.412822" lon="16.1766306"><ele>892.6</ele><time>2026-04-12T10:37:22.52Z</time></trkpt><trkpt lat="38.4127816" lon="16.1767577"><ele>892.0</ele><time>2026-04-12T10:37:23.531Z</time></trkpt><trkpt lat="38.4127352" lon="16.1768775"><ele>893.4000000000001</ele><time>2026-04-12T10:37:24.532Z</time></trkpt><trkpt lat="38.4126719" lon="16.1769755"><ele>894.8000000000001</ele><time>2026-04-12T10:37:25.523Z</time></trkpt><trkpt lat="38.4125901" lon="16.1770525"><ele>896.2</ele><time>2026-04-12T10:37:26.532Z</time></trkpt><trkpt lat="38.4124987" lon="16.1771179"><ele>897.6</ele><time>2026-04-12T10:37:27.53Z</time></trkpt><trkpt lat="38.412402" lon="16.1771548"><ele>899.0</ele><time>2026-04-12T10:37:28.524Z</time></trkpt><trkpt lat="38.412297" lon="16.1771698"><ele>894.6666666666667</ele><time>2026-04-12T10:37:29.536Z</time></trkpt><trkpt lat="38.4120669" lon="16.1771615"><ele>890.3333333333333</ele><time>2026-04-12T10:37:31.522Z</time></trkpt><trkpt lat="38.4119481" lon="16.1771506"><ele>886.0</ele><time>2026-04-12T10:37:32.532Z</time></trkpt><trkpt lat="38.4118339" lon="16.1771497"><ele>886.0</ele><time>2026-04-12T10:37:33.528Z</time></trkpt><trkpt lat="38.4117263" lon="16.1771605"><ele>885.9999999999999</ele><time>2026-04-12T10:37:34.529Z</time></trkpt><trkpt lat="38.411634" lon="16.1771876"><ele>885.9999999999999</ele><time>2026-04-12T10:37:35.528Z</time></trkpt><trkpt lat="38.4115547" lon="16.1772331"><ele>886.0</ele><time>2026-04-12T10:37:36.526Z</time></trkpt><trkpt lat="38.4114813" lon="16.1772984"><ele>886.0</ele><time>2026-04-12T10:37:37.532Z</time></trkpt><trkpt lat="38.4114017" lon="16.1773835"><ele>886.0</ele><time>2026-04-12T10:37:38.527Z</time></trkpt><trkpt lat="38.4113142" lon="16.1774813"><ele>886.0</ele><time>2026-04-12T10:37:39.524Z</time></trkpt><trkpt lat="38.4112154" lon="16.1775814"><ele>886.0</ele><time>2026-04-12T10:37:40.536Z</time></trkpt><trkpt lat="38.4111094" lon="16.177683"><ele>886.0</ele><time>2026-04-12T10:37:41.54Z</time></trkpt><trkpt lat="38.4109997" lon="16.1777859"><ele>886.0</ele><time>2026-04-12T10:37:42.522Z</time></trkpt><trkpt lat="38.4108887" lon="16.1778944"><ele>886.0</ele><time>2026-04-12T10:37:43.528Z</time></trkpt><trkpt lat="38.410772" lon="16.1780033"><ele>886.0</ele><time>2026-04-12T10:37:44.532Z</time></trkpt><trkpt lat="38.4106284" lon="16.1781577"><ele>886.0</ele><time>2026-04-12T10:37:45.525Z</time></trkpt><trkpt lat="38.4104861" lon="16.1783125"><ele>886.0</ele><time>2026-04-12T10:37:46.536Z</time></trkpt><trkpt lat="38.4103346" lon="16.1784195"><ele>886.0</ele><time>2026-04-12T10:37:47.542Z</time></trkpt><trkpt lat="38.4101809" lon="16.1784859"><ele>886.0</ele><time>2026-04-12T10:37:48.535Z</time></trkpt><trkpt lat="38.4100167" lon="16.1785199"><ele>886.0</ele><time>2026-04-12T10:37:49.542Z</time></trkpt><trkpt lat="38.4098283" lon="16.1785411"><ele>886.0</ele><time>2026-04-12T10:37:50.533Z</time></trkpt><trkpt lat="38.409461" lon="16.178544"><ele>886.3333333333333</ele><time>2026-04-12T10:37:52.532Z</time></trkpt><trkpt lat="38.4092906" lon="16.1785423"><ele>886.6666666666667</ele><time>2026-04-12T10:37:53.539Z</time></trkpt><trkpt lat="38.4091272" lon="16.178542"><ele>887.0</ele><time>2026-04-12T10:37:54.546Z</time></trkpt><trkpt lat="38.408966" lon="16.1785432"><ele>885.6666666666667</ele><time>2026-04-12T10:37:55.527Z</time></trkpt><trkpt lat="38.408805" lon="16.178544"><ele>884.3333333333333</ele><time>2026-04-12T10:37:56.528Z</time></trkpt><trkpt lat="38.4086472" lon="16.1785452"><ele>883.0</ele><time>2026-04-12T10:37:57.529Z</time></trkpt><trkpt lat="38.4084975" lon="16.178553"><ele>883.0</ele><time>2026-04-12T10:37:58.531Z</time></trkpt><trkpt lat="38.4083557" lon="16.1785743"><ele>883.0</ele><time>2026-04-12T10:37:59.531Z</time></trkpt><trkpt lat="38.4082165" lon="16.178614"><ele>883.0</ele><time>2026-04-12T10:38:00.529Z</time></trkpt><trkpt lat="38.4080848" lon="16.1786726"><ele>883.0</ele><time>2026-04-12T10:38:01.53Z</time></trkpt><trkpt lat="38.4079636" lon="16.1787542"><ele>883.0</ele><time>2026-04-12T10:38:02.528Z</time></trkpt><trkpt lat="38.4078397" lon="16.1788507"><ele>883.0</ele><time>2026-04-12T10:38:03.532Z</time></trkpt><trkpt lat="38.4077149" lon="16.1789597"><ele>883.0</ele><time>2026-04-12T10:38:04.526Z</time></trkpt><trkpt lat="38.4075923" lon="16.1790744"><ele>883.0</ele><time>2026-04-12T10:38:05.526Z</time></trkpt><trkpt lat="38.4074678" lon="16.1791845"><ele>883.0</ele><time>2026-04-12T10:38:06.536Z</time></trkpt><trkpt lat="38.4073467" lon="16.1792817"><ele>883.0</ele><time>2026-04-12T10:38:07.537Z</time></trkpt><trkpt lat="38.4072281" lon="16.1793716"><ele>883.0</ele><time>2026-04-12T10:38:08.532Z</time></trkpt><trkpt lat="38.4071097" lon="16.1794652"><ele>883.0</ele><time>2026-04-12T10:38:09.535Z</time></trkpt><trkpt lat="38.4070008" lon="16.1795699"><ele>883.0</ele><time>2026-04-12T10:38:10.543Z</time></trkpt><trkpt lat="38.4068974" lon="16.1796715"><ele>883.0</ele><time>2026-04-12T10:38:11.537Z</time></trkpt><trkpt lat="38.4066805" lon="16.1798663"><ele>883.0</ele><time>2026-04-12T10:38:13.537Z</time></trkpt><trkpt lat="38.4065709" lon="16.1799654"><ele>883.5</ele><time>2026-04-12T10:38:14.535Z</time></trkpt><trkpt lat="38.4064611" lon="16.1800597"><ele>884.0</ele><time>2026-04-12T10:38:15.537Z</time></trkpt><trkpt lat="38.4063491" lon="16.1801446"><ele>884.5</ele><time>2026-04-12T10:38:16.529Z</time></trkpt><trkpt lat="38.4062423" lon="16.18024"><ele>885.0</ele><time>2026-04-12T10:38:17.537Z</time></trkpt><trkpt lat="38.4061331" lon="16.1803384"><ele>886.25</ele><time>2026-04-12T10:38:18.539Z</time></trkpt><trkpt lat="38.4060209" lon="16.1804257"><ele>887.5</ele><time>2026-04-12T10:38:19.526Z</time></trkpt><trkpt lat="38.4059065" lon="16.1805107"><ele>888.75</ele><time>2026-04-12T10:38:20.533Z</time></trkpt><trkpt lat="38.4057925" lon="16.1805868"><ele>890.0</ele><time>2026-04-12T10:38:21.545Z</time></trkpt><trkpt lat="38.4056803" lon="16.1806486"><ele>889.8</ele><time>2026-04-12T10:38:22.527Z</time></trkpt><trkpt lat="38.405574" lon="16.1806994"><ele>889.6</ele><time>2026-04-12T10:38:23.534Z</time></trkpt><trkpt lat="38.4054703" lon="16.1807264"><ele>889.4000000000001</ele><time>2026-04-12T10:38:24.532Z</time></trkpt><trkpt lat="38.4053624" lon="16.180772"><ele>889.2</ele><time>2026-04-12T10:38:25.531Z</time></trkpt><trkpt lat="38.4052603" lon="16.1808094"><ele>889.0</ele><time>2026-04-12T10:38:26.528Z</time></trkpt><trkpt lat="38.4051636" lon="16.180822"><ele>890.6</ele><time>2026-04-12T10:38:27.525Z</time></trkpt><trkpt lat="38.4050648" lon="16.1808216"><ele>892.2</ele><time>2026-04-12T10:38:28.532Z</time></trkpt><trkpt lat="38.4049602" lon="16.1808505"><ele>893.8000000000001</ele><time>2026-04-12T10:38:29.533Z</time></trkpt><trkpt lat="38.4048611" lon="16.1808638"><ele>895.4000000000001</ele><time>2026-04-12T10:38:30.528Z</time></trkpt><trkpt lat="38.404763" lon="16.1808678"><ele>897.0</ele><time>2026-04-12T10:38:31.526Z</time></trkpt><trkpt lat="38.4046691" lon="16.1808979"><ele>893.3333333333333</ele><time>2026-04-12T10:38:32.531Z</time></trkpt><trkpt lat="38.4044622" lon="16.1810136"><ele>889.6666666666666</ele><time>2026-04-12T10:38:34.528Z</time></trkpt><trkpt lat="38.404339" lon="16.1811046"><ele>886.0</ele><time>2026-04-12T10:38:35.52Z</time></trkpt><trkpt lat="38.4041949" lon="16.1811952"><ele>886.0</ele><time>2026-04-12T10:38:36.53Z</time></trkpt><trkpt lat="38.404044" lon="16.1812647"><ele>886.0</ele><time>2026-04-12T10:38:37.533Z</time></trkpt><trkpt lat="38.4038631" lon="16.1813702"><ele>886.0</ele><time>2026-04-12T10:38:38.539Z</time></trkpt><trkpt lat="38.403697" lon="16.1814961"><ele>883.75</ele><time>2026-04-12T10:38:39.521Z</time></trkpt><trkpt lat="38.4035557" lon="16.1816089"><ele>881.5</ele><time>2026-04-12T10:38:40.523Z</time></trkpt><trkpt lat="38.4034314" lon="16.1817023"><ele>879.25</ele><time>2026-04-12T10:38:41.53Z</time></trkpt><trkpt lat="38.4033195" lon="16.1817848"><ele>877.0</ele><time>2026-04-12T10:38:42.542Z</time></trkpt><trkpt lat="38.4032391" lon="16.1818534"><ele>877.0</ele><time>2026-04-12T10:38:43.525Z</time></trkpt><trkpt lat="38.4031649" lon="16.1819013"><ele>877.0</ele><time>2026-04-12T10:38:44.529Z</time></trkpt><trkpt lat="38.4030842" lon="16.1819629"><ele>877.0</ele><time>2026-04-12T10:38:45.53Z</time></trkpt><trkpt lat="38.40299" lon="16.1820254"><ele>877.0</ele><time>2026-04-12T10:38:46.525Z</time></trkpt><trkpt lat="38.4028703" lon="16.1820937"><ele>877.0</ele><time>2026-04-12T10:38:47.527Z</time></trkpt><trkpt lat="38.4027463" lon="16.1821439"><ele>875.4000000000001</ele><time>2026-04-12T10:38:48.525Z</time></trkpt><trkpt lat="38.4026251" lon="16.1821714"><ele>873.8000000000001</ele><time>2026-04-12T10:38:49.524Z</time></trkpt><trkpt lat="38.4025065" lon="16.1821823"><ele>872.2</ele><time>2026-04-12T10:38:50.538Z</time></trkpt><trkpt lat="38.4023987" lon="16.1821875"><ele>870.6</ele><time>2026-04-12T10:38:51.536Z</time></trkpt><trkpt lat="38.4023054" lon="16.182182"><ele>869.0</ele><time>2026-04-12T10:38:52.532Z</time></trkpt><trkpt lat="38.4022219" lon="16.1821755"><ele>867.0</ele><time>2026-04-12T10:38:53.543Z</time></trkpt><trkpt lat="38.402038" lon="16.1821653"><ele>865.0</ele><time>2026-04-12T10:38:55.528Z</time></trkpt><trkpt lat="38.4019385" lon="16.1821528"><ele>863.0</ele><time>2026-04-12T10:38:56.531Z</time></trkpt><trkpt lat="38.401835" lon="16.1821334"><ele>861.0</ele><time>2026-04-12T10:38:57.526Z</time></trkpt><trkpt lat="38.4017274" lon="16.1821162"><ele>861.0</ele><time>2026-04-12T10:38:58.537Z</time></trkpt><trkpt lat="38.4016171" lon="16.1821009"><ele>860.9999999999999</ele><time>2026-04-12T10:38:59.535Z</time></trkpt><trkpt lat="38.4015115" lon="16.1820878"><ele>860.9999999999999</ele><time>2026-04-12T10:39:00.529Z</time></trkpt><trkpt lat="38.4014054" lon="16.1821118"><ele>861.0</ele><time>2026-04-12T10:39:01.525Z</time></trkpt><trkpt lat="38.4012935" lon="16.1821496"><ele>861.0</ele><time>2026-04-12T10:39:02.538Z</time></trkpt><trkpt lat="38.4011828" lon="16.1822423"><ele>859.5</ele><time>2026-04-12T10:39:03.536Z</time></trkpt><trkpt lat="38.4010667" lon="16.1823585"><ele>858.0</ele><time>2026-04-12T10:39:04.525Z</time></trkpt><trkpt lat="38.4009475" lon="16.1824753"><ele>856.5</ele><time>2026-04-12T10:39:05.533Z</time></trkpt><trkpt lat="38.4008347" lon="16.1826007"><ele>855.0</ele><time>2026-04-12T10:39:06.538Z</time></trkpt><trkpt lat="38.4007474" lon="16.1827051"><ele>855.0</ele><time>2026-04-12T10:39:07.527Z</time></trkpt><trkpt lat="38.4006752" lon="16.1828228"><ele>855.0</ele><time>2026-04-12T10:39:08.532Z</time></trkpt><trkpt lat="38.4006133" lon="16.1829634"><ele>855.0</ele><time>2026-04-12T10:39:09.535Z</time></trkpt><trkpt lat="38.4005538" lon="16.1831137"><ele>855.0</ele><time>2026-04-12T10:39:10.523Z</time></trkpt><trkpt lat="38.4004899" lon="16.1832565"><ele>852.5</ele><time>2026-04-12T10:39:11.541Z</time></trkpt><trkpt lat="38.4004255" lon="16.1833978"><ele>850.0</ele><time>2026-04-12T10:39:12.536Z</time></trkpt><trkpt lat="38.4003569" lon="16.1835346"><ele>847.5</ele><time>2026-04-12T10:39:13.529Z</time></trkpt><trkpt lat="38.4002773" lon="16.1836791"><ele>845.0</ele><time>2026-04-12T10:39:14.53Z</time></trkpt><trkpt lat="38.4000676" lon="16.1839869"><ele>841.6666666666667</ele><time>2026-04-12T10:39:16.527Z</time></trkpt><trkpt lat="38.3999261" lon="16.1841487"><ele>838.3333333333333</ele><time>2026-04-12T10:39:17.531Z</time></trkpt><trkpt lat="38.3997859" lon="16.184307"><ele>835.0</ele><time>2026-04-12T10:39:18.532Z</time></trkpt><trkpt lat="38.3996599" lon="16.1844483"><ele>834.25</ele><time>2026-04-12T10:39:19.525Z</time></trkpt><trkpt lat="38.3995688" lon="16.1845941"><ele>833.5</ele><time>2026-04-12T10:39:20.536Z</time></trkpt><trkpt lat="38.3994909" lon="16.1847495"><ele>832.75</ele><time>2026-04-12T10:39:21.53Z</time></trkpt><trkpt lat="38.3994211" lon="16.1849039"><ele>832.0</ele><time>2026-04-12T10:39:22.523Z</time></trkpt><trkpt lat="38.3993628" lon="16.1850532"><ele>832.0</ele><time>2026-04-12T10:39:23.535Z</time></trkpt><trkpt lat="38.3993059" lon="16.1851803"><ele>832.0</ele><time>2026-04-12T10:39:24.525Z</time></trkpt><trkpt lat="38.3992381" lon="16.1852942"><ele>832.0</ele><time>2026-04-12T10:39:25.528Z</time></trkpt><trkpt lat="38.399166" lon="16.1853887"><ele>832.0</ele><time>2026-04-12T10:39:26.532Z</time></trkpt><trkpt lat="38.399084" lon="16.185466"><ele>832.0</ele><time>2026-04-12T10:39:27.536Z</time></trkpt><trkpt lat="38.3989851" lon="16.1855327"><ele>832.0</ele><time>2026-04-12T10:39:28.53Z</time></trkpt><trkpt lat="38.3988741" lon="16.1855784"><ele>832.0</ele><time>2026-04-12T10:39:29.531Z</time></trkpt><trkpt lat="38.3987503" lon="16.1856063"><ele>832.0</ele><time>2026-04-12T10:39:30.528Z</time></trkpt><trkpt lat="38.3986203" lon="16.1856271"><ele>832.0</ele><time>2026-04-12T10:39:31.541Z</time></trkpt><trkpt lat="38.3984898" lon="16.1856452"><ele>830.75</ele><time>2026-04-12T10:39:32.533Z</time></trkpt><trkpt lat="38.3983584" lon="16.1856661"><ele>829.5</ele><time>2026-04-12T10:39:33.537Z</time></trkpt><trkpt lat="38.3982251" lon="16.185695"><ele>828.25</ele><time>2026-04-12T10:39:34.534Z</time></trkpt><trkpt lat="38.3980926" lon="16.185733"><ele>827.0</ele><time>2026-04-12T10:39:35.531Z</time></trkpt><trkpt lat="38.3978186" lon="16.1857645"><ele>825.75</ele><time>2026-04-12T10:39:37.521Z</time></trkpt><trkpt lat="38.3976788" lon="16.1857797"><ele>824.5</ele><time>2026-04-12T10:39:38.535Z</time></trkpt><trkpt lat="38.3975447" lon="16.1858081"><ele>823.25</ele><time>2026-04-12T10:39:39.53Z</time></trkpt><trkpt lat="38.397423" lon="16.1858597"><ele>822.0</ele><time>2026-04-12T10:39:40.534Z</time></trkpt><trkpt lat="38.3973137" lon="16.1859337"><ele>822.0</ele><time>2026-04-12T10:39:41.526Z</time></trkpt><trkpt lat="38.3972168" lon="16.1860338"><ele>822.0</ele><time>2026-04-12T10:39:42.532Z</time></trkpt><trkpt lat="38.3971227" lon="16.1861595"><ele>822.0</ele><time>2026-04-12T10:39:43.525Z</time></trkpt><trkpt lat="38.3970229" lon="16.186308"><ele>822.0</ele><time>2026-04-12T10:39:44.535Z</time></trkpt><trkpt lat="38.3969159" lon="16.18646"><ele>822.5</ele><time>2026-04-12T10:39:45.527Z</time></trkpt><trkpt lat="38.3968084" lon="16.1866016"><ele>823.0</ele><time>2026-04-12T10:39:46.559Z</time></trkpt><trkpt lat="38.3967002" lon="16.1867344"><ele>823.5</ele><time>2026-04-12T10:39:47.538Z</time></trkpt><trkpt lat="38.3965972" lon="16.1868495"><ele>824.0</ele><time>2026-04-12T10:39:48.54Z</time></trkpt><trkpt lat="38.3965103" lon="16.1869373"><ele>824.0</ele><time>2026-04-12T10:39:49.534Z</time></trkpt><trkpt lat="38.3964343" lon="16.1870057"><ele>824.0</ele><time>2026-04-12T10:39:50.533Z</time></trkpt><trkpt lat="38.3963563" lon="16.1870667"><ele>824.0</ele><time>2026-04-12T10:39:51.521Z</time></trkpt><trkpt lat="38.3962695" lon="16.1871343"><ele>824.0</ele><time>2026-04-12T10:39:52.533Z</time></trkpt><trkpt lat="38.3961687" lon="16.1872122"><ele>824.0</ele><time>2026-04-12T10:39:53.545Z</time></trkpt><trkpt lat="38.3960508" lon="16.1872933"><ele>822.6666666666667</ele><time>2026-04-12T10:39:54.524Z</time></trkpt><trkpt lat="38.3959147" lon="16.1873744"><ele>821.3333333333333</ele><time>2026-04-12T10:39:55.527Z</time></trkpt><trkpt lat="38.3957684" lon="16.1874642"><ele>820.0</ele><time>2026-04-12T10:39:56.528Z</time></trkpt><trkpt lat="38.3954052" lon="16.1876332"><ele>820.0</ele><time>2026-04-12T10:39:58.539Z</time></trkpt><trkpt lat="38.3952153" lon="16.1877213"><ele>820.0</ele><time>2026-04-12T10:39:59.532Z</time></trkpt><trkpt lat="38.3950364" lon="16.1878041"><ele>820.0</ele><time>2026-04-12T10:40:00.539Z</time></trkpt><trkpt lat="38.3948646" lon="16.1878782"><ele>820.0</ele><time>2026-04-12T10:40:01.537Z</time></trkpt><trkpt lat="38.3947071" lon="16.187939"><ele>820.0</ele><time>2026-04-12T10:40:02.537Z</time></trkpt><trkpt lat="38.394562" lon="16.1879818"><ele>820.0</ele><time>2026-04-12T10:40:03.539Z</time></trkpt><trkpt lat="38.3944305" lon="16.188018"><ele>820.0</ele><time>2026-04-12T10:40:04.528Z</time></trkpt><trkpt lat="38.3943048" lon="16.18805"><ele>819.5</ele><time>2026-04-12T10:40:05.526Z</time></trkpt><trkpt lat="38.3941785" lon="16.1880857"><ele>819.0</ele><time>2026-04-12T10:40:06.531Z</time></trkpt><trkpt lat="38.394047" lon="16.1881235"><ele>818.5</ele><time>2026-04-12T10:40:07.542Z</time></trkpt><trkpt lat="38.3939177" lon="16.188156"><ele>818.0</ele><time>2026-04-12T10:40:08.53Z</time></trkpt><trkpt lat="38.3938025" lon="16.1881812"><ele>817.2</ele><time>2026-04-12T10:40:09.541Z</time></trkpt><trkpt lat="38.393704" lon="16.1882"><ele>816.4</ele><time>2026-04-12T10:40:10.547Z</time></trkpt><trkpt lat="38.3936205" lon="16.1882156"><ele>815.6</ele><time>2026-04-12T10:40:11.539Z</time></trkpt><trkpt lat="38.3935516" lon="16.1882304"><ele>814.8000000000001</ele><time>2026-04-12T10:40:12.529Z</time></trkpt><trkpt lat="38.3934436" lon="16.1882527"><ele>814.0</ele><time>2026-04-12T10:40:14.545Z</time></trkpt><trkpt lat="38.3933596" lon="16.1882092"><ele>813.4000000000001</ele><time>2026-04-12T10:40:16.527Z</time></trkpt><trkpt lat="38.3932791" lon="16.1881305"><ele>812.8</ele><time>2026-04-12T10:40:18.533Z</time></trkpt><trkpt lat="38.3931914" lon="16.1879038"><ele>812.2</ele><time>2026-04-12T10:40:21.536Z</time></trkpt><trkpt lat="38.3931718" lon="16.1878139"><ele>811.5999999999999</ele><time>2026-04-12T10:40:22.528Z</time></trkpt><trkpt lat="38.3931529" lon="16.1877286"><ele>811.0</ele><time>2026-04-12T10:40:23.532Z</time></trkpt><trkpt lat="38.3931352" lon="16.1876472"><ele>811.0</ele><time>2026-04-12T10:40:24.528Z</time></trkpt><trkpt lat="38.3931042" lon="16.1874988"><ele>811.0</ele><time>2026-04-12T10:40:26.535Z</time></trkpt><trkpt lat="38.3930766" lon="16.1873635"><ele>811.0</ele><time>2026-04-12T10:40:28.527Z</time></trkpt><trkpt lat="38.3930641" lon="16.1872204"><ele>811.0</ele><time>2026-04-12T10:40:30.538Z</time></trkpt><trkpt lat="38.393076" lon="16.1870451"><ele>810.6666666666666</ele><time>2026-04-12T10:40:32.532Z</time></trkpt><trkpt lat="38.3930904" lon="16.186936"><ele>810.3333333333333</ele><time>2026-04-12T10:40:33.535Z</time></trkpt><trkpt lat="38.3931067" lon="16.186826"><ele>810.0</ele><time>2026-04-12T10:40:34.533Z</time></trkpt><trkpt lat="38.3931324" lon="16.1867172"><ele>809.6666666666667</ele><time>2026-04-12T10:40:35.525Z</time></trkpt><trkpt lat="38.393165" lon="16.1866116"><ele>809.3333333333334</ele><time>2026-04-12T10:40:36.53Z</time></trkpt><trkpt lat="38.3932009" lon="16.186505"><ele>809.0</ele><time>2026-04-12T10:40:37.538Z</time></trkpt><trkpt lat="38.3932441" lon="16.1863958"><ele>809.0</ele><time>2026-04-12T10:40:38.523Z</time></trkpt><trkpt lat="38.3932933" lon="16.186291"><ele>809.0</ele><time>2026-04-12T10:40:39.53Z</time></trkpt><trkpt lat="38.3934039" lon="16.186084"><ele>809.0</ele><time>2026-04-12T10:40:41.528Z</time></trkpt><trkpt lat="38.3934665" lon="16.1859875"><ele>809.0</ele><time>2026-04-12T10:40:42.534Z</time></trkpt><trkpt lat="38.3935313" lon="16.1858967"><ele>809.0</ele><time>2026-04-12T10:40:43.534Z</time></trkpt><trkpt lat="38.3936004" lon="16.1858117"><ele>809.0</ele><time>2026-04-12T10:40:44.52Z</time></trkpt><trkpt lat="38.3936725" lon="16.1857323"><ele>809.0</ele><time>2026-04-12T10:40:45.537Z</time></trkpt><trkpt lat="38.3937525" lon="16.1856561"><ele>809.0</ele><time>2026-04-12T10:40:46.529Z</time></trkpt><trkpt lat="38.3938443" lon="16.1855805"><ele>809.0</ele><time>2026-04-12T10:40:47.527Z</time></trkpt><trkpt lat="38.3939482" lon="16.1855074"><ele>807.75</ele><time>2026-04-12T10:40:48.532Z</time></trkpt><trkpt lat="38.3940622" lon="16.185434"><ele>806.5</ele><time>2026-04-12T10:40:49.539Z</time></trkpt><trkpt lat="38.3941909" lon="16.1853622"><ele>805.25</ele><time>2026-04-12T10:40:50.525Z</time></trkpt><trkpt lat="38.3943329" lon="16.1852946"><ele>804.0</ele><time>2026-04-12T10:40:51.532Z</time></trkpt><trkpt lat="38.394485" lon="16.185225"><ele>804.0</ele><time>2026-04-12T10:40:52.532Z</time></trkpt><trkpt lat="38.3946386" lon="16.1851495"><ele>804.0</ele><time>2026-04-12T10:40:53.522Z</time></trkpt><trkpt lat="38.3947861" lon="16.1850642"><ele>804.0</ele><time>2026-04-12T10:40:54.535Z</time></trkpt><trkpt lat="38.3949257" lon="16.1849675"><ele>802.6666666666667</ele><time>2026-04-12T10:40:55.53Z</time></trkpt><trkpt lat="38.3950618" lon="16.1848664"><ele>801.3333333333334</ele><time>2026-04-12T10:40:56.522Z</time></trkpt><trkpt lat="38.395181" lon="16.1847404"><ele>800.0</ele><time>2026-04-12T10:40:57.533Z</time></trkpt><trkpt lat="38.3953069" lon="16.184592"><ele>799.6666666666667</ele><time>2026-04-12T10:40:58.532Z</time></trkpt><trkpt lat="38.3954184" lon="16.1844331"><ele>799.3333333333333</ele><time>2026-04-12T10:40:59.532Z</time></trkpt><trkpt lat="38.395518" lon="16.1842568"><ele>799.0</ele><time>2026-04-12T10:41:00.528Z</time></trkpt><trkpt lat="38.3956774" lon="16.1838699"><ele>796.6666666666666</ele><time>2026-04-12T10:41:02.52Z</time></trkpt><trkpt lat="38.3957373" lon="16.183654"><ele>794.3333333333333</ele><time>2026-04-12T10:41:03.534Z</time></trkpt><trkpt lat="38.3957803" lon="16.18343"><ele>792.0</ele><time>2026-04-12T10:41:04.523Z</time></trkpt><trkpt lat="38.3958072" lon="16.1831988"><ele>791.3333333333333</ele><time>2026-04-12T10:41:05.524Z</time></trkpt><trkpt lat="38.3958149" lon="16.182962"><ele>790.6666666666666</ele><time>2026-04-12T10:41:06.522Z</time></trkpt><trkpt lat="38.3958023" lon="16.1827198"><ele>790.0</ele><time>2026-04-12T10:41:07.528Z</time></trkpt><trkpt lat="38.3957772" lon="16.1824722"><ele>789.6666666666666</ele><time>2026-04-12T10:41:08.525Z</time></trkpt><trkpt lat="38.3957185" lon="16.1822262"><ele>789.3333333333333</ele><time>2026-04-12T10:41:09.532Z</time></trkpt><trkpt lat="38.3956371" lon="16.1819893"><ele>789.0</ele><time>2026-04-12T10:41:10.528Z</time></trkpt><trkpt lat="38.3955363" lon="16.1817631"><ele>787.0</ele><time>2026-04-12T10:41:11.535Z</time></trkpt><trkpt lat="38.3954204" lon="16.1815533"><ele>785.0</ele><time>2026-04-12T10:41:12.53Z</time></trkpt><trkpt lat="38.3952875" lon="16.1813685"><ele>783.0</ele><time>2026-04-12T10:41:13.527Z</time></trkpt><trkpt lat="38.3951419" lon="16.1812104"><ele>780.6666666666667</ele><time>2026-04-12T10:41:14.534Z</time></trkpt><trkpt lat="38.3949789" lon="16.1810635"><ele>778.3333333333334</ele><time>2026-04-12T10:41:15.534Z</time></trkpt><trkpt lat="38.3948134" lon="16.1809192"><ele>776.0</ele><time>2026-04-12T10:41:16.531Z</time></trkpt><trkpt lat="38.3946432" lon="16.1807728"><ele>771.0</ele><time>2026-04-12T10:41:17.531Z</time></trkpt><trkpt lat="38.3944841" lon="16.1806175"><ele>766.0</ele><time>2026-04-12T10:41:18.525Z</time></trkpt><trkpt lat="38.3943544" lon="16.1804484"><ele>761.0</ele><time>2026-04-12T10:41:19.526Z</time></trkpt><trkpt lat="38.3942351" lon="16.1802839"><ele>761.0</ele><time>2026-04-12T10:41:20.524Z</time></trkpt><trkpt lat="38.3941016" lon="16.180129"><ele>761.0</ele><time>2026-04-12T10:41:21.535Z</time></trkpt><trkpt lat="38.3938275" lon="16.1798785"><ele>760.75</ele><time>2026-04-12T10:41:23.532Z</time></trkpt><trkpt lat="38.3937209" lon="16.1797702"><ele>760.5</ele><time>2026-04-12T10:41:24.525Z</time></trkpt><trkpt lat="38.3936285" lon="16.1796652"><ele>760.25</ele><time>2026-04-12T10:41:25.527Z</time></trkpt><trkpt lat="38.3935536" lon="16.1795609"><ele>760.0</ele><time>2026-04-12T10:41:26.524Z</time></trkpt><trkpt lat="38.3935008" lon="16.1794435"><ele>760.0</ele><time>2026-04-12T10:41:27.531Z</time></trkpt><trkpt lat="38.3934584" lon="16.1792947"><ele>760.0</ele><time>2026-04-12T10:41:28.529Z</time></trkpt><trkpt lat="38.3934189" lon="16.1791048"><ele>760.0</ele><time>2026-04-12T10:41:29.532Z</time></trkpt><trkpt lat="38.3933688" lon="16.1788952"><ele>760.0</ele><time>2026-04-12T10:41:30.528Z</time></trkpt><trkpt lat="38.3933137" lon="16.1786852"><ele>760.0</ele><time>2026-04-12T10:41:31.529Z</time></trkpt><trkpt lat="38.3932562" lon="16.1784883"><ele>760.0</ele><time>2026-04-12T10:41:32.527Z</time></trkpt><trkpt lat="38.3931873" lon="16.178311"><ele>759.75</ele><time>2026-04-12T10:41:33.535Z</time></trkpt><trkpt lat="38.3931015" lon="16.1781587"><ele>759.5</ele><time>2026-04-12T10:41:34.527Z</time></trkpt><trkpt lat="38.392993" lon="16.1780384"><ele>759.25</ele><time>2026-04-12T10:41:35.535Z</time></trkpt><trkpt lat="38.3928713" lon="16.1779455"><ele>759.0</ele><time>2026-04-12T10:41:36.537Z</time></trkpt><trkpt lat="38.3927505" lon="16.1778532"><ele>752.75</ele><time>2026-04-12T10:41:37.534Z</time></trkpt><trkpt lat="38.3926397" lon="16.1777614"><ele>746.5</ele><time>2026-04-12T10:41:38.538Z</time></trkpt><trkpt lat="38.3925704" lon="16.1776276"><ele>740.25</ele><time>2026-04-12T10:41:39.533Z</time></trkpt><trkpt lat="38.3925266" lon="16.177478"><ele>734.0</ele><time>2026-04-12T10:41:40.53Z</time></trkpt><trkpt lat="38.3925" lon="16.1773228"><ele>730.6666666666666</ele><time>2026-04-12T10:41:41.525Z</time></trkpt><trkpt lat="38.392478" lon="16.1771635"><ele>727.3333333333334</ele><time>2026-04-12T10:41:42.524Z</time></trkpt><trkpt lat="38.3923869" lon="16.1768445"><ele>724.0</ele><time>2026-04-12T10:41:44.524Z</time></trkpt><trkpt lat="38.3923042" lon="16.1767073"><ele>724.0</ele><time>2026-04-12T10:41:45.53Z</time></trkpt><trkpt lat="38.3921995" lon="16.1766013"><ele>724.0</ele><time>2026-04-12T10:41:46.523Z</time></trkpt><trkpt lat="38.392082" lon="16.1765408"><ele>724.0</ele><time>2026-04-12T10:41:47.533Z</time></trkpt><trkpt lat="38.3919589" lon="16.1764968"><ele>724.0</ele><time>2026-04-12T10:41:48.534Z</time></trkpt><trkpt lat="38.3918377" lon="16.1764523"><ele>718.5</ele><time>2026-04-12T10:41:49.521Z</time></trkpt><trkpt lat="38.3917215" lon="16.1764017"><ele>713.0</ele><time>2026-04-12T10:41:50.528Z</time></trkpt><trkpt lat="38.3916307" lon="16.1763146"><ele>707.5</ele><time>2026-04-12T10:41:51.526Z</time></trkpt><trkpt lat="38.3915558" lon="16.1762092"><ele>702.0</ele><time>2026-04-12T10:41:52.522Z</time></trkpt><trkpt lat="38.3915027" lon="16.1760758"><ele>702.0</ele><time>2026-04-12T10:41:53.53Z</time></trkpt><trkpt lat="38.3914866" lon="16.1759348"><ele>702.0</ele><time>2026-04-12T10:41:54.536Z</time></trkpt><trkpt lat="38.3914944" lon="16.1757822"><ele>702.0</ele><time>2026-04-12T10:41:55.525Z</time></trkpt><trkpt lat="38.3915226" lon="16.1756229"><ele>702.0</ele><time>2026-04-12T10:41:56.525Z</time></trkpt><trkpt lat="38.3915694" lon="16.1754614"><ele>701.6666666666666</ele><time>2026-04-12T10:41:57.531Z</time></trkpt><trkpt lat="38.3916438" lon="16.1752911"><ele>701.3333333333333</ele><time>2026-04-12T10:41:58.525Z</time></trkpt><trkpt lat="38.3917387" lon="16.1751099"><ele>701.0</ele><time>2026-04-12T10:41:59.543Z</time></trkpt><trkpt lat="38.3918464" lon="16.174918"><ele>698.6666666666666</ele><time>2026-04-12T10:42:00.545Z</time></trkpt><trkpt lat="38.3919592" lon="16.1747222"><ele>696.3333333333334</ele><time>2026-04-12T10:42:01.532Z</time></trkpt><trkpt lat="38.3920731" lon="16.1745222"><ele>694.0</ele><time>2026-04-12T10:42:02.534Z</time></trkpt><trkpt lat="38.392188" lon="16.1743181"><ele>695.0</ele><time>2026-04-12T10:42:03.538Z</time></trkpt><trkpt lat="38.3924307" lon="16.1738909"><ele>696.0</ele><time>2026-04-12T10:42:05.524Z</time></trkpt><trkpt lat="38.3925572" lon="16.1736678"><ele>696.0</ele><time>2026-04-12T10:42:06.53Z</time></trkpt><trkpt lat="38.3926859" lon="16.1734428"><ele>696.0</ele><time>2026-04-12T10:42:07.529Z</time></trkpt><trkpt lat="38.3928145" lon="16.173214"><ele>696.0</ele><time>2026-04-12T10:42:08.52Z</time></trkpt><trkpt lat="38.3929415" lon="16.1729883"><ele>693.6666666666666</ele><time>2026-04-12T10:42:09.531Z</time></trkpt><trkpt lat="38.3930692" lon="16.1727686"><ele>691.3333333333333</ele><time>2026-04-12T10:42:10.531Z</time></trkpt><trkpt lat="38.3931977" lon="16.1725579"><ele>689.0</ele><time>2026-04-12T10:42:11.524Z</time></trkpt><trkpt lat="38.3933225" lon="16.1723701"><ele>691.6666666666666</ele><time>2026-04-12T10:42:12.533Z</time></trkpt><trkpt lat="38.3934468" lon="16.1721993"><ele>694.3333333333334</ele><time>2026-04-12T10:42:13.53Z</time></trkpt><trkpt lat="38.3935789" lon="16.1720419"><ele>697.0</ele><time>2026-04-12T10:42:14.522Z</time></trkpt><trkpt lat="38.3937191" lon="16.1718978"><ele>692.6666666666667</ele><time>2026-04-12T10:42:15.527Z</time></trkpt><trkpt lat="38.3938654" lon="16.1717672"><ele>688.3333333333334</ele><time>2026-04-12T10:42:16.529Z</time></trkpt><trkpt lat="38.3940184" lon="16.1716481"><ele>684.0</ele><time>2026-04-12T10:42:17.525Z</time></trkpt><trkpt lat="38.3941798" lon="16.1715405"><ele>686.0</ele><time>2026-04-12T10:42:18.531Z</time></trkpt><trkpt lat="38.3943506" lon="16.1714465"><ele>688.0</ele><time>2026-04-12T10:42:19.529Z</time></trkpt><trkpt lat="38.3945287" lon="16.1713666"><ele>690.0</ele><time>2026-04-12T10:42:20.529Z</time></trkpt><trkpt lat="38.3947112" lon="16.1712963"><ele>680.3333333333334</ele><time>2026-04-12T10:42:21.529Z</time></trkpt><trkpt lat="38.3948983" lon="16.1712344"><ele>670.6666666666667</ele><time>2026-04-12T10:42:22.528Z</time></trkpt><trkpt lat="38.3950896" lon="16.1711755"><ele>661.0</ele><time>2026-04-12T10:42:23.529Z</time></trkpt><trkpt lat="38.3952866" lon="16.1711182"><ele>652.0</ele><time>2026-04-12T10:42:24.533Z</time></trkpt><trkpt lat="38.3957041" lon="16.171002"><ele>643.0</ele><time>2026-04-12T10:42:26.531Z</time></trkpt><trkpt lat="38.3959206" lon="16.170939"><ele>643.0</ele><time>2026-04-12T10:42:27.533Z</time></trkpt><trkpt lat="38.3961398" lon="16.1708766"><ele>643.0</ele><time>2026-04-12T10:42:28.533Z</time></trkpt><trkpt lat="38.3963607" lon="16.1708115"><ele>643.0</ele><time>2026-04-12T10:42:29.538Z</time></trkpt><trkpt lat="38.3965749" lon="16.1707309"><ele>643.0</ele><time>2026-04-12T10:42:30.533Z</time></trkpt><trkpt lat="38.3967792" lon="16.1706222"><ele>643.0</ele><time>2026-04-12T10:42:31.523Z</time></trkpt><trkpt lat="38.3969704" lon="16.1704772"><ele>640.5</ele><time>2026-04-12T10:42:32.528Z</time></trkpt><trkpt lat="38.3971554" lon="16.1702973"><ele>638.0</ele><time>2026-04-12T10:42:33.53Z</time></trkpt><trkpt lat="38.3973439" lon="16.1700883"><ele>636.0</ele><time>2026-04-12T10:42:34.525Z</time></trkpt><trkpt lat="38.3975359" lon="16.1698653"><ele>634.0</ele><time>2026-04-12T10:42:35.53Z</time></trkpt><trkpt lat="38.3977281" lon="16.1696395"><ele>633.5</ele><time>2026-04-12T10:42:36.53Z</time></trkpt><trkpt lat="38.3979131" lon="16.1694151"><ele>633.0</ele><time>2026-04-12T10:42:37.529Z</time></trkpt><trkpt lat="38.3980868" lon="16.1691884"><ele>626.0</ele><time>2026-04-12T10:42:38.535Z</time></trkpt><trkpt lat="38.3982358" lon="16.1689755"><ele>619.0</ele><time>2026-04-12T10:42:39.539Z</time></trkpt><trkpt lat="38.39836" lon="16.1687842"><ele>612.0</ele><time>2026-04-12T10:42:40.527Z</time></trkpt><trkpt lat="38.3984728" lon="16.1686041"><ele>612.0</ele><time>2026-04-12T10:42:41.531Z</time></trkpt><trkpt lat="38.3985814" lon="16.1684273"><ele>612.0</ele><time>2026-04-12T10:42:42.535Z</time></trkpt><trkpt lat="38.398693" lon="16.1682542"><ele>612.0</ele><time>2026-04-12T10:42:43.527Z</time></trkpt><trkpt lat="38.3988179" lon="16.1680822"><ele>610.0</ele><time>2026-04-12T10:42:44.529Z</time></trkpt><trkpt lat="38.3989679" lon="16.1679118"><ele>608.0</ele><time>2026-04-12T10:42:45.53Z</time></trkpt><trkpt lat="38.3993245" lon="16.1676116"><ele>608.0</ele><time>2026-04-12T10:42:47.523Z</time></trkpt><trkpt lat="38.3995059" lon="16.1674954"><ele>608.0</ele><time>2026-04-12T10:42:48.525Z</time></trkpt><trkpt lat="38.3996904" lon="16.1673922"><ele>608.0</ele><time>2026-04-12T10:42:49.531Z</time></trkpt><trkpt lat="38.3998743" lon="16.1672896"><ele>600.6666666666666</ele><time>2026-04-12T10:42:50.527Z</time></trkpt><trkpt lat="38.4000548" lon="16.1671814"><ele>593.3333333333334</ele><time>2026-04-12T10:42:51.536Z</time></trkpt><trkpt lat="38.4002363" lon="16.1670788"><ele>586.0</ele><time>2026-04-12T10:42:52.526Z</time></trkpt><trkpt lat="38.4004172" lon="16.1669469"><ele>583.3333333333334</ele><time>2026-04-12T10:42:53.525Z</time></trkpt><trkpt lat="38.4005855" lon="16.1667864"><ele>580.6666666666666</ele><time>2026-04-12T10:42:54.528Z</time></trkpt><trkpt lat="38.4007512" lon="16.1666167"><ele>578.0</ele><time>2026-04-12T10:42:55.534Z</time></trkpt><trkpt lat="38.4008971" lon="16.1664369"><ele>578.0</ele><time>2026-04-12T10:42:56.526Z</time></trkpt><trkpt lat="38.4010273" lon="16.1662694"><ele>578.0</ele><time>2026-04-12T10:42:57.526Z</time></trkpt><trkpt lat="38.4011414" lon="16.1661159"><ele>578.0</ele><time>2026-04-12T10:42:58.534Z</time></trkpt><trkpt lat="38.4012552" lon="16.1659563"><ele>578.0</ele><time>2026-04-12T10:42:59.531Z</time></trkpt><trkpt lat="38.4013605" lon="16.1657855"><ele>578.0</ele><time>2026-04-12T10:43:00.524Z</time></trkpt><trkpt lat="38.4014581" lon="16.1656007"><ele>578.0</ele><time>2026-04-12T10:43:01.534Z</time></trkpt><trkpt lat="38.4015425" lon="16.1653957"><ele>578.0</ele><time>2026-04-12T10:43:02.523Z</time></trkpt><trkpt lat="38.4016278" lon="16.1652047"><ele>578.0</ele><time>2026-04-12T10:43:03.525Z</time></trkpt><trkpt lat="38.4016784" lon="16.1649873"><ele>578.0</ele><time>2026-04-12T10:43:04.523Z</time></trkpt><trkpt lat="38.4017335" lon="16.1647859"><ele>573.5</ele><time>2026-04-12T10:43:05.53Z</time></trkpt><trkpt lat="38.4017677" lon="16.1645762"><ele>569.0</ele><time>2026-04-12T10:43:06.527Z</time></trkpt><trkpt lat="38.4018526" lon="16.1641867"><ele>563.5</ele><time>2026-04-12T10:43:08.536Z</time></trkpt><trkpt lat="38.4018982" lon="16.1639918"><ele>558.0</ele><time>2026-04-12T10:43:09.533Z</time></trkpt><trkpt lat="38.4021664" lon="16.1630674"><ele>555.3333333333334</ele><time>2026-04-12T10:43:14.519Z</time></trkpt><trkpt lat="38.4022527" lon="16.1628949"><ele>552.6666666666667</ele><time>2026-04-12T10:43:15.537Z</time></trkpt><trkpt lat="38.4023521" lon="16.1627511"><ele>550.0</ele><time>2026-04-12T10:43:16.537Z</time></trkpt><trkpt lat="38.4024941" lon="16.1626219"><ele>550.0</ele><time>2026-04-12T10:43:17.525Z</time></trkpt><trkpt lat="38.4026238" lon="16.1625153"><ele>550.0</ele><time>2026-04-12T10:43:18.533Z</time></trkpt><trkpt lat="38.4027317" lon="16.1624194"><ele>550.0</ele><time>2026-04-12T10:43:19.527Z</time></trkpt><trkpt lat="38.4028325" lon="16.1623211"><ele>550.0</ele><time>2026-04-12T10:43:20.534Z</time></trkpt><trkpt lat="38.4029301" lon="16.1622302"><ele>547.8</ele><time>2026-04-12T10:43:21.527Z</time></trkpt><trkpt lat="38.4030279" lon="16.1621447"><ele>545.6</ele><time>2026-04-12T10:43:22.533Z</time></trkpt><trkpt lat="38.4031192" lon="16.1620602"><ele>543.4</ele><time>2026-04-12T10:43:23.54Z</time></trkpt><trkpt lat="38.4031939" lon="16.1619753"><ele>541.2</ele><time>2026-04-12T10:43:24.538Z</time></trkpt><trkpt lat="38.4032555" lon="16.161882"><ele>539.0</ele><time>2026-04-12T10:43:25.533Z</time></trkpt><trkpt lat="38.4033059" lon="16.1617765"><ele>539.0</ele><time>2026-04-12T10:43:26.526Z</time></trkpt><trkpt lat="38.4033495" lon="16.1616572"><ele>539.0</ele><time>2026-04-12T10:43:27.535Z</time></trkpt><trkpt lat="38.4033965" lon="16.1614262"><ele>539.0</ele><time>2026-04-12T10:43:29.543Z</time></trkpt><trkpt lat="38.4033981" lon="16.1613145"><ele>539.0</ele><time>2026-04-12T10:43:30.539Z</time></trkpt><trkpt lat="38.4033905" lon="16.1612057"><ele>538.5</ele><time>2026-04-12T10:43:31.531Z</time></trkpt><trkpt lat="38.403375" lon="16.161099"><ele>538.0</ele><time>2026-04-12T10:43:32.543Z</time></trkpt><trkpt lat="38.4033498" lon="16.1610027"><ele>537.5</ele><time>2026-04-12T10:43:33.529Z</time></trkpt><trkpt lat="38.4033165" lon="16.1609132"><ele>537.0</ele><time>2026-04-12T10:43:34.528Z</time></trkpt><trkpt lat="38.4032788" lon="16.1608317"><ele>536.5</ele><time>2026-04-12T10:43:35.528Z</time></trkpt><trkpt lat="38.4032386" lon="16.1607585"><ele>536.0</ele><time>2026-04-12T10:43:36.534Z</time></trkpt><trkpt lat="38.4031962" lon="16.1606944"><ele>535.5</ele><time>2026-04-12T10:43:37.527Z</time></trkpt><trkpt lat="38.403146" lon="16.1606419"><ele>535.0</ele><time>2026-04-12T10:43:38.53Z</time></trkpt><trkpt lat="38.4030649" lon="16.1605482"><ele>534.5</ele><time>2026-04-12T10:43:40.541Z</time></trkpt><trkpt lat="38.4030121" lon="16.1604576"><ele>534.0</ele><time>2026-04-12T10:43:42.53Z</time></trkpt><trkpt lat="38.4029976" lon="16.160359"><ele>533.5</ele><time>2026-04-12T10:43:44.521Z</time></trkpt><trkpt lat="38.4030162" lon="16.1602679"><ele>533.0</ele><time>2026-04-12T10:43:46.537Z</time></trkpt><trkpt lat="38.4030497" lon="16.1601751"><ele>533.0</ele><time>2026-04-12T10:43:48.53Z</time></trkpt><trkpt lat="38.403135" lon="16.1599045"><ele>533.0</ele><time>2026-04-12T10:43:52.537Z</time></trkpt><trkpt lat="38.4031651" lon="16.1598044"><ele>533.0</ele><time>2026-04-12T10:43:53.527Z</time></trkpt><trkpt lat="38.4032" lon="16.1596863"><ele>533.0</ele><time>2026-04-12T10:43:54.535Z</time></trkpt><trkpt lat="38.4032406" lon="16.1595445"><ele>531.25</ele><time>2026-04-12T10:43:55.533Z</time></trkpt><trkpt lat="38.4032874" lon="16.1593867"><ele>529.5</ele><time>2026-04-12T10:43:56.529Z</time></trkpt><trkpt lat="38.4033413" lon="16.1592169"><ele>527.75</ele><time>2026-04-12T10:43:57.542Z</time></trkpt><trkpt lat="38.4033996" lon="16.1590329"><ele>526.0</ele><time>2026-04-12T10:43:58.53Z</time></trkpt><trkpt lat="38.40346" lon="16.158836"><ele>524.3333333333334</ele><time>2026-04-12T10:43:59.527Z</time></trkpt><trkpt lat="38.4035225" lon="16.1586275"><ele>522.6666666666666</ele><time>2026-04-12T10:44:00.53Z</time></trkpt><trkpt lat="38.4035854" lon="16.1584164"><ele>521.0</ele><time>2026-04-12T10:44:01.537Z</time></trkpt><trkpt lat="38.4036474" lon="16.1582045"><ele>522.0</ele><time>2026-04-12T10:44:02.52Z</time></trkpt><trkpt lat="38.4037103" lon="16.1579914"><ele>523.0</ele><time>2026-04-12T10:44:03.538Z</time></trkpt><trkpt lat="38.4037715" lon="16.1577788"><ele>524.0</ele><time>2026-04-12T10:44:04.535Z</time></trkpt><trkpt lat="38.403832" lon="16.1575668"><ele>517.3333333333333</ele><time>2026-04-12T10:44:05.544Z</time></trkpt><trkpt lat="38.4038938" lon="16.1573552"><ele>510.66666666666663</ele><time>2026-04-12T10:44:06.526Z</time></trkpt><trkpt lat="38.4039549" lon="16.157144"><ele>504.0</ele><time>2026-04-12T10:44:07.53Z</time></trkpt><trkpt lat="38.4040136" lon="16.1569347"><ele>504.0</ele><time>2026-04-12T10:44:08.527Z</time></trkpt><trkpt lat="38.4040683" lon="16.1567339"><ele>504.0</ele><time>2026-04-12T10:44:09.528Z</time></trkpt><trkpt lat="38.4041814" lon="16.1563259"><ele>503.66666666666663</ele><time>2026-04-12T10:44:11.525Z</time></trkpt><trkpt lat="38.4042431" lon="16.1561194"><ele>503.3333333333333</ele><time>2026-04-12T10:44:12.528Z</time></trkpt><trkpt lat="38.4043076" lon="16.1559076"><ele>503.0</ele><time>2026-04-12T10:44:13.526Z</time></trkpt><trkpt lat="38.4043709" lon="16.155689"><ele>502.3333333333333</ele><time>2026-04-12T10:44:14.526Z</time></trkpt><trkpt lat="38.404437" lon="16.1554616"><ele>501.66666666666663</ele><time>2026-04-12T10:44:15.525Z</time></trkpt><trkpt lat="38.4045085" lon="16.1552233"><ele>501.0</ele><time>2026-04-12T10:44:16.542Z</time></trkpt><trkpt lat="38.4045848" lon="16.1549753"><ele>496.0</ele><time>2026-04-12T10:44:17.529Z</time></trkpt><trkpt lat="38.4046629" lon="16.1547195"><ele>491.0</ele><time>2026-04-12T10:44:18.534Z</time></trkpt><trkpt lat="38.404739" lon="16.1544702"><ele>486.0</ele><time>2026-04-12T10:44:19.53Z</time></trkpt><trkpt lat="38.4048148" lon="16.1542267"><ele>486.33333333333337</ele><time>2026-04-12T10:44:20.532Z</time></trkpt><trkpt lat="38.4048948" lon="16.1539871"><ele>486.6666666666667</ele><time>2026-04-12T10:44:21.528Z</time></trkpt><trkpt lat="38.4049765" lon="16.1537479"><ele>487.0</ele><time>2026-04-12T10:44:22.525Z</time></trkpt><trkpt lat="38.4050621" lon="16.1535086"><ele>487.0</ele><time>2026-04-12T10:44:23.526Z</time></trkpt><trkpt lat="38.4051508" lon="16.1532652"><ele>487.0</ele><time>2026-04-12T10:44:24.532Z</time></trkpt><trkpt lat="38.4052442" lon="16.1530166"><ele>487.0</ele><time>2026-04-12T10:44:25.523Z</time></trkpt><trkpt lat="38.4053419" lon="16.1527671"><ele>485.0</ele><time>2026-04-12T10:44:26.53Z</time></trkpt><trkpt lat="38.4054426" lon="16.1525204"><ele>483.0</ele><time>2026-04-12T10:44:27.535Z</time></trkpt><trkpt lat="38.4055454" lon="16.1522763"><ele>481.0</ele><time>2026-04-12T10:44:28.529Z</time></trkpt><trkpt lat="38.4056518" lon="16.1520327"><ele>479.0</ele><time>2026-04-12T10:44:29.532Z</time></trkpt><trkpt lat="38.4057623" lon="16.1517922"><ele>477.0</ele><time>2026-04-12T10:44:30.522Z</time></trkpt><trkpt lat="38.4059845" lon="16.1513206"><ele>476.33333333333337</ele><time>2026-04-12T10:44:32.526Z</time></trkpt><trkpt lat="38.4060964" lon="16.1510941"><ele>475.6666666666667</ele><time>2026-04-12T10:44:33.538Z</time></trkpt><trkpt lat="38.4062084" lon="16.1508723"><ele>475.0</ele><time>2026-04-12T10:44:34.535Z</time></trkpt><trkpt lat="38.4063209" lon="16.1506547"><ele>474.6666666666667</ele><time>2026-04-12T10:44:35.532Z</time></trkpt><trkpt lat="38.4064342" lon="16.1504421"><ele>474.33333333333337</ele><time>2026-04-12T10:44:36.533Z</time></trkpt><trkpt lat="38.406546" lon="16.1502299"><ele>474.0</ele><time>2026-04-12T10:44:37.531Z</time></trkpt><trkpt lat="38.406658" lon="16.150014"><ele>470.66666666666663</ele><time>2026-04-12T10:44:38.529Z</time></trkpt><trkpt lat="38.4067723" lon="16.1497957"><ele>467.3333333333333</ele><time>2026-04-12T10:44:39.538Z</time></trkpt><trkpt lat="38.4068868" lon="16.1495752"><ele>464.0</ele><time>2026-04-12T10:44:40.534Z</time></trkpt><trkpt lat="38.4069977" lon="16.1493587"><ele>464.0</ele><time>2026-04-12T10:44:41.539Z</time></trkpt><trkpt lat="38.4071042" lon="16.1491532"><ele>464.0</ele><time>2026-04-12T10:44:42.532Z</time></trkpt><trkpt lat="38.4072055" lon="16.148957"><ele>464.0</ele><time>2026-04-12T10:44:43.537Z</time></trkpt><trkpt lat="38.4073048" lon="16.1487641"><ele>464.3333333333333</ele><time>2026-04-12T10:44:44.536Z</time></trkpt><trkpt lat="38.4073989" lon="16.1485852"><ele>464.66666666666663</ele><time>2026-04-12T10:44:45.53Z</time></trkpt><trkpt lat="38.4074865" lon="16.1484177"><ele>465.0</ele><time>2026-04-12T10:44:46.533Z</time></trkpt><trkpt lat="38.407574" lon="16.1482534"><ele>464.0</ele><time>2026-04-12T10:44:47.538Z</time></trkpt><trkpt lat="38.4076631" lon="16.1480867"><ele>463.0</ele><time>2026-04-12T10:44:48.526Z</time></trkpt><trkpt lat="38.4077552" lon="16.147916"><ele>462.0</ele><time>2026-04-12T10:44:49.526Z</time></trkpt><trkpt lat="38.4078486" lon="16.1477397"><ele>462.0</ele><time>2026-04-12T10:44:50.531Z</time></trkpt><trkpt lat="38.407941" lon="16.1475634"><ele>462.0</ele><time>2026-04-12T10:44:51.535Z</time></trkpt><trkpt lat="38.4081361" lon="16.1471926"><ele>460.0</ele><time>2026-04-12T10:44:53.527Z</time></trkpt><trkpt lat="38.40825" lon="16.1469712"><ele>458.0</ele><time>2026-04-12T10:44:54.53Z</time></trkpt><trkpt lat="38.4083648" lon="16.1467497"><ele>456.0</ele><time>2026-04-12T10:44:55.529Z</time></trkpt><trkpt lat="38.408474" lon="16.1465455"><ele>470.0</ele><time>2026-04-12T10:44:56.529Z</time></trkpt><trkpt lat="38.4085708" lon="16.1463673"><ele>484.0</ele><time>2026-04-12T10:44:57.527Z</time></trkpt><trkpt lat="38.4086614" lon="16.1462006"><ele>498.0</ele><time>2026-04-12T10:44:58.533Z</time></trkpt><trkpt lat="38.4087549" lon="16.1460245"><ele>471.0</ele><time>2026-04-12T10:44:59.532Z</time></trkpt><trkpt lat="38.4094347" lon="16.144631"><ele>471.0</ele><time>2026-04-12T10:45:07.522Z</time></trkpt><trkpt lat="38.4095582" lon="16.1445122"><ele>471.0</ele><time>2026-04-12T10:45:08.538Z</time></trkpt><trkpt lat="38.4096444" lon="16.144356"><ele>471.0</ele><time>2026-04-12T10:45:09.55Z</time></trkpt><trkpt lat="38.4097071" lon="16.1442213"><ele>471.0</ele><time>2026-04-12T10:45:10.541Z</time></trkpt><trkpt lat="38.4097847" lon="16.1440667"><ele>456.33333333333337</ele><time>2026-04-12T10:45:11.529Z</time></trkpt><trkpt lat="38.4098662" lon="16.1439166"><ele>441.6666666666667</ele><time>2026-04-12T10:45:12.532Z</time></trkpt><trkpt lat="38.4100277" lon="16.1436141"><ele>427.0</ele><time>2026-04-12T10:45:14.53Z</time></trkpt><trkpt lat="38.4101104" lon="16.1434514"><ele>427.0</ele><time>2026-04-12T10:45:15.571Z</time></trkpt><trkpt lat="38.4101946" lon="16.1432881"><ele>427.0</ele><time>2026-04-12T10:45:16.556Z</time></trkpt><trkpt lat="38.4102806" lon="16.1431334"><ele>427.0</ele><time>2026-04-12T10:45:17.537Z</time></trkpt><trkpt lat="38.4103611" lon="16.1429867"><ele>427.0</ele><time>2026-04-12T10:45:18.532Z</time></trkpt><trkpt lat="38.410448" lon="16.1428405"><ele>425.25</ele><time>2026-04-12T10:45:19.545Z</time></trkpt><trkpt lat="38.4105278" lon="16.1426986"><ele>423.5</ele><time>2026-04-12T10:45:20.528Z</time></trkpt><trkpt lat="38.4106065" lon="16.142557"><ele>421.75</ele><time>2026-04-12T10:45:21.548Z</time></trkpt><trkpt lat="38.410693" lon="16.1423844"><ele>420.0</ele><time>2026-04-12T10:45:22.532Z</time></trkpt><trkpt lat="38.4107847" lon="16.1422055"><ele>419.66666666666663</ele><time>2026-04-12T10:45:23.533Z</time></trkpt><trkpt lat="38.4108761" lon="16.1420322"><ele>419.3333333333333</ele><time>2026-04-12T10:45:24.542Z</time></trkpt><trkpt lat="38.4109661" lon="16.1418683"><ele>419.0</ele><time>2026-04-12T10:45:25.537Z</time></trkpt><trkpt lat="38.411055" lon="16.1417179"><ele>419.0</ele><time>2026-04-12T10:45:26.534Z</time></trkpt><trkpt lat="38.4111287" lon="16.1415698"><ele>419.0</ele><time>2026-04-12T10:45:27.54Z</time></trkpt><trkpt lat="38.4111989" lon="16.1414415"><ele>419.0</ele><time>2026-04-12T10:45:28.537Z</time></trkpt><trkpt lat="38.4112631" lon="16.1413274"><ele>419.0</ele><time>2026-04-12T10:45:29.54Z</time></trkpt><trkpt lat="38.411321" lon="16.1412225"><ele>418.0</ele><time>2026-04-12T10:45:30.528Z</time></trkpt><trkpt lat="38.4113731" lon="16.1411266"><ele>417.0</ele><time>2026-04-12T10:45:31.521Z</time></trkpt><trkpt lat="38.4114226" lon="16.1410406"><ele>416.0</ele><time>2026-04-12T10:45:32.541Z</time></trkpt><trkpt lat="38.4114724" lon="16.1409576"><ele>415.0</ele><time>2026-04-12T10:45:33.544Z</time></trkpt><trkpt lat="38.4115712" lon="16.1407918"><ele>414.0</ele><time>2026-04-12T10:45:35.534Z</time></trkpt><trkpt lat="38.4116193" lon="16.1407091"><ele>416.0</ele><time>2026-04-12T10:45:36.535Z</time></trkpt><trkpt lat="38.4116713" lon="16.1406234"><ele>418.0</ele><time>2026-04-12T10:45:37.531Z</time></trkpt><trkpt lat="38.411729" lon="16.1405256"><ele>420.0</ele><time>2026-04-12T10:45:38.534Z</time></trkpt><trkpt lat="38.4117993" lon="16.1404125"><ele>422.0</ele><time>2026-04-12T10:45:39.537Z</time></trkpt><trkpt lat="38.4118791" lon="16.1402816"><ele>424.0</ele><time>2026-04-12T10:45:40.534Z</time></trkpt><trkpt lat="38.4119657" lon="16.1401345"><ele>424.0</ele><time>2026-04-12T10:45:41.528Z</time></trkpt><trkpt lat="38.4120606" lon="16.1399711"><ele>424.0</ele><time>2026-04-12T10:45:42.531Z</time></trkpt><trkpt lat="38.4121612" lon="16.1397946"><ele>424.0</ele><time>2026-04-12T10:45:43.531Z</time></trkpt><trkpt lat="38.4122647" lon="16.1396106"><ele>418.6666666666667</ele><time>2026-04-12T10:45:44.541Z</time></trkpt><trkpt lat="38.4123652" lon="16.1394276"><ele>413.33333333333337</ele><time>2026-04-12T10:45:45.548Z</time></trkpt><trkpt lat="38.4124626" lon="16.1392469"><ele>408.0</ele><time>2026-04-12T10:45:46.543Z</time></trkpt><trkpt lat="38.4125598" lon="16.139059"><ele>408.66666666666663</ele><time>2026-04-12T10:45:47.525Z</time></trkpt><trkpt lat="38.4126621" lon="16.1388549"><ele>409.3333333333333</ele><time>2026-04-12T10:45:48.537Z</time></trkpt><trkpt lat="38.4127619" lon="16.1386381"><ele>410.0</ele><time>2026-04-12T10:45:49.533Z</time></trkpt><trkpt lat="38.4128553" lon="16.1384241"><ele>404.3333333333333</ele><time>2026-04-12T10:45:50.543Z</time></trkpt><trkpt lat="38.4129393" lon="16.1382164"><ele>398.66666666666663</ele><time>2026-04-12T10:45:51.531Z</time></trkpt><trkpt lat="38.4130164" lon="16.1380159"><ele>393.0</ele><time>2026-04-12T10:45:52.526Z</time></trkpt><trkpt lat="38.4130842" lon="16.1378222"><ele>393.0</ele><time>2026-04-12T10:45:53.531Z</time></trkpt><trkpt lat="38.4131431" lon="16.1376409"><ele>393.0</ele><time>2026-04-12T10:45:54.532Z</time></trkpt><trkpt lat="38.4132378" lon="16.1373481"><ele>393.0</ele><time>2026-04-12T10:45:56.535Z</time></trkpt><trkpt lat="38.4132718" lon="16.1372394"><ele>395.5</ele><time>2026-04-12T10:45:57.537Z</time></trkpt><trkpt lat="38.4132943" lon="16.137159"><ele>398.0</ele><time>2026-04-12T10:45:58.533Z</time></trkpt><trkpt lat="38.4133217" lon="16.1370547"><ele>400.5</ele><time>2026-04-12T10:46:00.528Z</time></trkpt><trkpt lat="38.4133259" lon="16.1369691"><ele>403.0</ele><time>2026-04-12T10:49:32.533Z</time></trkpt><trkpt lat="38.4133915" lon="16.1366439"><ele>402.0</ele><time>2026-04-12T10:49:35.533Z</time></trkpt><trkpt lat="38.4134209" lon="16.1364926"><ele>401.0</ele><time>2026-04-12T10:49:36.53Z</time></trkpt><trkpt lat="38.413449" lon="16.1363262"><ele>400.0</ele><time>2026-04-12T10:49:37.539Z</time></trkpt><trkpt lat="38.4134799" lon="16.1361367"><ele>399.0</ele><time>2026-04-12T10:49:38.535Z</time></trkpt><trkpt lat="38.413512" lon="16.1359064"><ele>395.66666666666663</ele><time>2026-04-12T10:49:39.541Z</time></trkpt><trkpt lat="38.4135405" lon="16.1356593"><ele>392.3333333333333</ele><time>2026-04-12T10:49:40.528Z</time></trkpt><trkpt lat="38.4135655" lon="16.1353923"><ele>389.0</ele><time>2026-04-12T10:49:41.538Z</time></trkpt><trkpt lat="38.4135899" lon="16.1351061"><ele>383.5</ele><time>2026-04-12T10:49:42.546Z</time></trkpt><trkpt lat="38.4136137" lon="16.1348074"><ele>378.0</ele><time>2026-04-12T10:49:43.547Z</time></trkpt><trkpt lat="38.4136378" lon="16.1344969"><ele>378.0</ele><time>2026-04-12T10:49:44.536Z</time></trkpt><trkpt lat="38.4136648" lon="16.134176"><ele>378.0</ele><time>2026-04-12T10:49:45.546Z</time></trkpt><trkpt lat="38.4136951" lon="16.1338446"><ele>376.5</ele><time>2026-04-12T10:49:46.529Z</time></trkpt><trkpt lat="38.4137317" lon="16.1334967"><ele>375.0</ele><time>2026-04-12T10:49:47.544Z</time></trkpt><trkpt lat="38.4137736" lon="16.1331431"><ele>376.0</ele><time>2026-04-12T10:49:48.531Z</time></trkpt><trkpt lat="38.4138274" lon="16.1327897"><ele>377.0</ele><time>2026-04-12T10:49:49.535Z</time></trkpt><trkpt lat="38.4138945" lon="16.132435"><ele>370.5</ele><time>2026-04-12T10:49:50.528Z</time></trkpt><trkpt lat="38.4139764" lon="16.1320801"><ele>364.0</ele><time>2026-04-12T10:49:51.54Z</time></trkpt><trkpt lat="38.4140733" lon="16.131722"><ele>362.0</ele><time>2026-04-12T10:49:52.531Z</time></trkpt><trkpt lat="38.4141849" lon="16.1313612"><ele>360.0</ele><time>2026-04-12T10:49:53.531Z</time></trkpt><trkpt lat="38.4144578" lon="16.1306276"><ele>360.0</ele><time>2026-04-12T10:49:55.54Z</time></trkpt><trkpt lat="38.4146158" lon="16.1302456"><ele>360.0</ele><time>2026-04-12T10:49:56.546Z</time></trkpt><trkpt lat="38.4147757" lon="16.1298674"><ele>357.5</ele><time>2026-04-12T10:49:57.552Z</time></trkpt><trkpt lat="38.4149293" lon="16.1295036"><ele>355.0</ele><time>2026-04-12T10:49:58.545Z</time></trkpt><trkpt lat="38.4150762" lon="16.1291607"><ele>357.5</ele><time>2026-04-12T10:49:59.535Z</time></trkpt><trkpt lat="38.4152079" lon="16.1288567"><ele>360.0</ele><time>2026-04-12T10:50:00.534Z</time></trkpt><trkpt lat="38.4153222" lon="16.1285914"><ele>360.0</ele><time>2026-04-12T10:50:01.551Z</time></trkpt><trkpt lat="38.4154291" lon="16.1283396"><ele>360.0</ele><time>2026-04-12T10:50:02.524Z</time></trkpt><trkpt lat="38.4155313" lon="16.1280983"><ele>360.0</ele><time>2026-04-12T10:50:03.541Z</time></trkpt><trkpt lat="38.4156317" lon="16.1278605"><ele>359.6666666666667</ele><time>2026-04-12T10:50:04.56Z</time></trkpt><trkpt lat="38.4157325" lon="16.1276275"><ele>359.33333333333337</ele><time>2026-04-12T10:50:05.532Z</time></trkpt><trkpt lat="38.4158322" lon="16.1273989"><ele>359.0</ele><time>2026-04-12T10:50:06.534Z</time></trkpt><trkpt lat="38.4159289" lon="16.1271725"><ele>359.0</ele><time>2026-04-12T10:50:07.539Z</time></trkpt><trkpt lat="38.4160204" lon="16.1269551"><ele>359.0</ele><time>2026-04-12T10:50:08.53Z</time></trkpt><trkpt lat="38.4161083" lon="16.126744"><ele>359.0</ele><time>2026-04-12T10:50:09.537Z</time></trkpt><trkpt lat="38.416194" lon="16.126537"><ele>359.0</ele><time>2026-04-12T10:50:10.537Z</time></trkpt><trkpt lat="38.4162806" lon="16.1263266"><ele>359.0</ele><time>2026-04-12T10:50:11.528Z</time></trkpt><trkpt lat="38.4163701" lon="16.1260981"><ele>359.0</ele><time>2026-04-12T10:50:12.525Z</time></trkpt><trkpt lat="38.4164633" lon="16.1258524"><ele>345.0</ele><time>2026-04-12T10:50:13.533Z</time></trkpt><trkpt lat="38.4165594" lon="16.1255957"><ele>331.0</ele><time>2026-04-12T10:50:14.529Z</time></trkpt><trkpt lat="38.41674" lon="16.1250874"><ele>330.3333333333333</ele><time>2026-04-12T10:50:16.527Z</time></trkpt><trkpt lat="38.4168206" lon="16.1248342"><ele>329.6666666666667</ele><time>2026-04-12T10:50:17.532Z</time></trkpt><trkpt lat="38.4168956" lon="16.1245767"><ele>329.0</ele><time>2026-04-12T10:50:18.526Z</time></trkpt><trkpt lat="38.4169684" lon="16.1243124"><ele>327.6666666666667</ele><time>2026-04-12T10:50:19.539Z</time></trkpt><trkpt lat="38.4170395" lon="16.1240438"><ele>326.3333333333333</ele><time>2026-04-12T10:50:20.534Z</time></trkpt><trkpt lat="38.417105" lon="16.1237708"><ele>325.0</ele><time>2026-04-12T10:50:21.534Z</time></trkpt><trkpt lat="38.417165" lon="16.1234926"><ele>327.5</ele><time>2026-04-12T10:50:22.529Z</time></trkpt><trkpt lat="38.4172208" lon="16.123208"><ele>330.0</ele><time>2026-04-12T10:50:23.543Z</time></trkpt><trkpt lat="38.4172719" lon="16.1229164"><ele>330.0</ele><time>2026-04-12T10:50:24.529Z</time></trkpt><trkpt lat="38.4173182" lon="16.1226199"><ele>330.0</ele><time>2026-04-12T10:50:25.544Z</time></trkpt><trkpt lat="38.4173626" lon="16.1223217"><ele>326.0</ele><time>2026-04-12T10:50:26.537Z</time></trkpt><trkpt lat="38.4174048" lon="16.1220244"><ele>322.0</ele><time>2026-04-12T10:50:27.538Z</time></trkpt><trkpt lat="38.4174438" lon="16.1217324"><ele>319.5</ele><time>2026-04-12T10:50:28.532Z</time></trkpt><trkpt lat="38.4174804" lon="16.1214446"><ele>317.0</ele><time>2026-04-12T10:50:29.537Z</time></trkpt><trkpt lat="38.417516" lon="16.1211578"><ele>317.0</ele><time>2026-04-12T10:50:30.527Z</time></trkpt><trkpt lat="38.4175527" lon="16.1208697"><ele>317.0</ele><time>2026-04-12T10:50:31.542Z</time></trkpt><trkpt lat="38.4175908" lon="16.1205807"><ele>314.5</ele><time>2026-04-12T10:50:32.522Z</time></trkpt><trkpt lat="38.4176278" lon="16.1202891"><ele>312.0</ele><time>2026-04-12T10:50:33.529Z</time></trkpt><trkpt lat="38.4176619" lon="16.1199929"><ele>311.5</ele><time>2026-04-12T10:50:34.532Z</time></trkpt><trkpt lat="38.4176935" lon="16.119695"><ele>311.0</ele><time>2026-04-12T10:50:35.535Z</time></trkpt><trkpt lat="38.4177438" lon="16.1190964"><ele>311.0</ele><time>2026-04-12T10:50:37.536Z</time></trkpt><trkpt lat="38.4177605" lon="16.1187955"><ele>311.0</ele><time>2026-04-12T10:50:38.527Z</time></trkpt><trkpt lat="38.4177726" lon="16.1184954"><ele>317.5</ele><time>2026-04-12T10:50:39.527Z</time></trkpt><trkpt lat="38.4177801" lon="16.118197"><ele>324.0</ele><time>2026-04-12T10:50:40.527Z</time></trkpt><trkpt lat="38.4177818" lon="16.1179032"><ele>324.0</ele><time>2026-04-12T10:50:41.527Z</time></trkpt><trkpt lat="38.4177788" lon="16.1176114"><ele>324.0</ele><time>2026-04-12T10:50:42.527Z</time></trkpt><trkpt lat="38.4177701" lon="16.1173189"><ele>325.5</ele><time>2026-04-12T10:50:43.528Z</time></trkpt><trkpt lat="38.4177554" lon="16.117026"><ele>327.0</ele><time>2026-04-12T10:50:44.528Z</time></trkpt><trkpt lat="38.417735" lon="16.1167308"><ele>321.5</ele><time>2026-04-12T10:50:45.533Z</time></trkpt><trkpt lat="38.4177094" lon="16.1164324"><ele>316.0</ele><time>2026-04-12T10:50:46.534Z</time></trkpt><trkpt lat="38.4176793" lon="16.1161347"><ele>316.0</ele><time>2026-04-12T10:50:47.527Z</time></trkpt><trkpt lat="38.4176437" lon="16.115841"><ele>316.0</ele><time>2026-04-12T10:50:48.533Z</time></trkpt><trkpt lat="38.4176014" lon="16.1155509"><ele>310.0</ele><time>2026-04-12T10:50:49.535Z</time></trkpt><trkpt lat="38.4175535" lon="16.1152634"><ele>304.0</ele><time>2026-04-12T10:50:50.534Z</time></trkpt><trkpt lat="38.417502" lon="16.1149778"><ele>299.0</ele><time>2026-04-12T10:50:51.525Z</time></trkpt><trkpt lat="38.4174464" lon="16.1146952"><ele>294.0</ele><time>2026-04-12T10:50:52.532Z</time></trkpt><trkpt lat="38.4173868" lon="16.114416"><ele>294.0</ele><time>2026-04-12T10:50:53.534Z</time></trkpt><trkpt lat="38.4173252" lon="16.1141387"><ele>294.0</ele><time>2026-04-12T10:50:54.532Z</time></trkpt><trkpt lat="38.4172606" lon="16.1138599"><ele>295.5</ele><time>2026-04-12T10:50:55.533Z</time></trkpt><trkpt lat="38.4171943" lon="16.1135829"><ele>297.0</ele><time>2026-04-12T10:50:56.536Z</time></trkpt><trkpt lat="38.4170644" lon="16.11305"><ele>297.0</ele><time>2026-04-12T10:50:58.531Z</time></trkpt><trkpt lat="38.4170102" lon="16.1128236"><ele>297.0</ele><time>2026-04-12T10:50:59.533Z</time></trkpt><trkpt lat="38.4169589" lon="16.1126108"><ele>297.0</ele><time>2026-04-12T10:51:00.528Z</time></trkpt><trkpt lat="38.4169092" lon="16.112398"><ele>296.0</ele><time>2026-04-12T10:51:01.53Z</time></trkpt><trkpt lat="38.4168632" lon="16.1121858"><ele>295.0</ele><time>2026-04-12T10:51:02.526Z</time></trkpt><trkpt lat="38.4168192" lon="16.1119709"><ele>294.0</ele><time>2026-04-12T10:51:03.524Z</time></trkpt><trkpt lat="38.4167758" lon="16.1117471"><ele>292.6666666666667</ele><time>2026-04-12T10:51:04.531Z</time></trkpt><trkpt lat="38.4167324" lon="16.1115105"><ele>291.33333333333337</ele><time>2026-04-12T10:51:05.536Z</time></trkpt><trkpt lat="38.4166889" lon="16.1112584"><ele>290.0</ele><time>2026-04-12T10:51:06.528Z</time></trkpt><trkpt lat="38.4166516" lon="16.1109921"><ele>288.5</ele><time>2026-04-12T10:51:07.54Z</time></trkpt><trkpt lat="38.4166225" lon="16.1107128"><ele>287.0</ele><time>2026-04-12T10:51:08.536Z</time></trkpt><trkpt lat="38.4165994" lon="16.1104201"><ele>287.0</ele><time>2026-04-12T10:51:09.535Z</time></trkpt><trkpt lat="38.4165821" lon="16.1101134"><ele>287.0</ele><time>2026-04-12T10:51:10.533Z</time></trkpt><trkpt lat="38.4165751" lon="16.1097993"><ele>283.5</ele><time>2026-04-12T10:51:11.525Z</time></trkpt><trkpt lat="38.4165757" lon="16.1094792"><ele>280.0</ele><time>2026-04-12T10:51:12.529Z</time></trkpt><trkpt lat="38.4165843" lon="16.109147"><ele>281.0</ele><time>2026-04-12T10:51:13.539Z</time></trkpt><trkpt lat="38.4166014" lon="16.1088046"><ele>282.0</ele><time>2026-04-12T10:51:14.524Z</time></trkpt><trkpt lat="38.4166269" lon="16.1084556"><ele>282.5</ele><time>2026-04-12T10:51:15.527Z</time></trkpt><trkpt lat="38.4166609" lon="16.108107"><ele>283.0</ele><time>2026-04-12T10:51:16.537Z</time></trkpt><trkpt lat="38.4167053" lon="16.1077587"><ele>275.0</ele><time>2026-04-12T10:51:17.525Z</time></trkpt><trkpt lat="38.4168215" lon="16.1070692"><ele>275.0</ele><time>2026-04-12T10:51:19.526Z</time></trkpt><trkpt lat="38.4168895" lon="16.1067373"><ele>275.0</ele><time>2026-04-12T10:51:20.534Z</time></trkpt><trkpt lat="38.4169662" lon="16.1064066"><ele>279.5</ele><time>2026-04-12T10:51:21.536Z</time></trkpt><trkpt lat="38.4170543" lon="16.1060742"><ele>284.0</ele><time>2026-04-12T10:51:22.528Z</time></trkpt><trkpt lat="38.4171537" lon="16.10574"><ele>274.0</ele><time>2026-04-12T10:51:23.524Z</time></trkpt><trkpt lat="38.4172608" lon="16.1054036"><ele>264.0</ele><time>2026-04-12T10:51:24.523Z</time></trkpt><trkpt lat="38.4173778" lon="16.1050669"><ele>264.5</ele><time>2026-04-12T10:51:25.527Z</time></trkpt><trkpt lat="38.4175068" lon="16.1047342"><ele>265.0</ele><time>2026-04-12T10:51:26.537Z</time></trkpt><trkpt lat="38.4176454" lon="16.1044054"><ele>265.0</ele><time>2026-04-12T10:51:27.531Z</time></trkpt><trkpt lat="38.417792" lon="16.1040788"><ele>265.0</ele><time>2026-04-12T10:51:28.533Z</time></trkpt><trkpt lat="38.4179488" lon="16.1037571"><ele>259.5</ele><time>2026-04-12T10:51:29.533Z</time></trkpt><trkpt lat="38.4181145" lon="16.1034436"><ele>254.0</ele><time>2026-04-12T10:51:30.527Z</time></trkpt><trkpt lat="38.4182701" lon="16.1031691"><ele>253.66666666666669</ele><time>2026-04-12T10:51:31.526Z</time></trkpt><trkpt lat="38.4184022" lon="16.1029492"><ele>253.33333333333331</ele><time>2026-04-12T10:51:32.532Z</time></trkpt><trkpt lat="38.4185218" lon="16.1027604"><ele>253.0</ele><time>2026-04-12T10:51:33.531Z</time></trkpt><trkpt lat="38.4186397" lon="16.1025767"><ele>252.66666666666666</ele><time>2026-04-12T10:51:34.533Z</time></trkpt><trkpt lat="38.4187572" lon="16.1023949"><ele>252.33333333333331</ele><time>2026-04-12T10:51:35.531Z</time></trkpt><trkpt lat="38.4188768" lon="16.1022109"><ele>252.0</ele><time>2026-04-12T10:51:36.531Z</time></trkpt><trkpt lat="38.4190026" lon="16.102024"><ele>249.5</ele><time>2026-04-12T10:51:37.533Z</time></trkpt><trkpt lat="38.419134" lon="16.1018349"><ele>247.0</ele><time>2026-04-12T10:51:38.53Z</time></trkpt><trkpt lat="38.4194043" lon="16.1014464"><ele>246.66666666666666</ele><time>2026-04-12T10:51:40.524Z</time></trkpt><trkpt lat="38.4195393" lon="16.1012488"><ele>246.33333333333331</ele><time>2026-04-12T10:51:41.525Z</time></trkpt><trkpt lat="38.4196744" lon="16.1010416"><ele>246.0</ele><time>2026-04-12T10:51:42.529Z</time></trkpt><trkpt lat="38.4198111" lon="16.1008273"><ele>244.33333333333331</ele><time>2026-04-12T10:51:43.528Z</time></trkpt><trkpt lat="38.4199466" lon="16.100609"><ele>242.66666666666666</ele><time>2026-04-12T10:51:44.526Z</time></trkpt><trkpt lat="38.4200806" lon="16.1003882"><ele>241.0</ele><time>2026-04-12T10:51:45.529Z</time></trkpt><trkpt lat="38.4202123" lon="16.1001586"><ele>241.0</ele><time>2026-04-12T10:51:46.526Z</time></trkpt><trkpt lat="38.4203391" lon="16.0999193"><ele>241.0</ele><time>2026-04-12T10:51:47.529Z</time></trkpt><trkpt lat="38.4204618" lon="16.0996708"><ele>240.0</ele><time>2026-04-12T10:51:48.529Z</time></trkpt><trkpt lat="38.4205811" lon="16.0994154"><ele>239.0</ele><time>2026-04-12T10:51:49.529Z</time></trkpt><trkpt lat="38.4206955" lon="16.099153"><ele>239.0</ele><time>2026-04-12T10:51:50.531Z</time></trkpt><trkpt lat="38.4208047" lon="16.098883"><ele>239.0</ele><time>2026-04-12T10:51:51.53Z</time></trkpt><trkpt lat="38.4209108" lon="16.0986079"><ele>239.0</ele><time>2026-04-12T10:51:52.532Z</time></trkpt><trkpt lat="38.4210122" lon="16.0983291"><ele>239.0</ele><time>2026-04-12T10:51:53.526Z</time></trkpt><trkpt lat="38.4211057" lon="16.0980432"><ele>237.5</ele><time>2026-04-12T10:51:54.536Z</time></trkpt><trkpt lat="38.4211912" lon="16.0977509"><ele>236.0</ele><time>2026-04-12T10:51:55.538Z</time></trkpt><trkpt lat="38.4212705" lon="16.0974545"><ele>234.5</ele><time>2026-04-12T10:51:56.533Z</time></trkpt><trkpt lat="38.4213502" lon="16.0971827"><ele>233.0</ele><time>2026-04-12T10:51:57.536Z</time></trkpt><trkpt lat="38.421415" lon="16.0968864"><ele>232.5</ele><time>2026-04-12T10:51:58.535Z</time></trkpt><trkpt lat="38.4214753" lon="16.0965847"><ele>232.0</ele><time>2026-04-12T10:51:59.542Z</time></trkpt><trkpt lat="38.4215718" lon="16.0959901"><ele>230.0</ele><time>2026-04-12T10:52:01.527Z</time></trkpt><trkpt lat="38.421609" lon="16.095687"><ele>228.0</ele><time>2026-04-12T10:52:02.533Z</time></trkpt><trkpt lat="38.4216433" lon="16.0953831"><ele>228.0</ele><time>2026-04-12T10:52:03.531Z</time></trkpt><trkpt lat="38.421663" lon="16.0950774"><ele>228.0</ele><time>2026-04-12T10:52:04.534Z</time></trkpt><trkpt lat="38.4216775" lon="16.0947746"><ele>228.5</ele><time>2026-04-12T10:52:05.532Z</time></trkpt><trkpt lat="38.4216835" lon="16.0944706"><ele>229.0</ele><time>2026-04-12T10:52:06.526Z</time></trkpt><trkpt lat="38.4216863" lon="16.0941689"><ele>233.0</ele><time>2026-04-12T10:52:07.531Z</time></trkpt><trkpt lat="38.4216831" lon="16.0938711"><ele>237.0</ele><time>2026-04-12T10:52:08.541Z</time></trkpt><trkpt lat="38.4216709" lon="16.093576"><ele>237.0</ele><time>2026-04-12T10:52:09.537Z</time></trkpt><trkpt lat="38.4216525" lon="16.0932891"><ele>237.0</ele><time>2026-04-12T10:52:10.531Z</time></trkpt><trkpt lat="38.4216234" lon="16.0929926"><ele>238.0</ele><time>2026-04-12T10:52:11.526Z</time></trkpt><trkpt lat="38.4215913" lon="16.0927012"><ele>239.0</ele><time>2026-04-12T10:52:12.53Z</time></trkpt><trkpt lat="38.4215536" lon="16.0924102"><ele>239.0</ele><time>2026-04-12T10:52:13.53Z</time></trkpt><trkpt lat="38.4215113" lon="16.0921227"><ele>239.0</ele><time>2026-04-12T10:52:14.532Z</time></trkpt><trkpt lat="38.42146" lon="16.0918388"><ele>239.0</ele><time>2026-04-12T10:52:15.539Z</time></trkpt><trkpt lat="38.4214027" lon="16.091555"><ele>239.0</ele><time>2026-04-12T10:52:16.528Z</time></trkpt><trkpt lat="38.4213361" lon="16.0912732"><ele>240.0</ele><time>2026-04-12T10:52:17.53Z</time></trkpt><trkpt lat="38.4212622" lon="16.0909916"><ele>241.0</ele><time>2026-04-12T10:52:18.534Z</time></trkpt><trkpt lat="38.4211875" lon="16.0907211"><ele>238.0</ele><time>2026-04-12T10:52:19.537Z</time></trkpt><trkpt lat="38.4211028" lon="16.090453"><ele>235.0</ele><time>2026-04-12T10:52:20.53Z</time></trkpt><trkpt lat="38.4209257" lon="16.089923"><ele>234.5</ele><time>2026-04-12T10:52:22.527Z</time></trkpt><trkpt lat="38.4208255" lon="16.0896581"><ele>234.0</ele><time>2026-04-12T10:52:23.528Z</time></trkpt><trkpt lat="38.4207174" lon="16.0893946"><ele>234.0</ele><time>2026-04-12T10:52:24.529Z</time></trkpt><trkpt lat="38.4206036" lon="16.0891342"><ele>234.0</ele><time>2026-04-12T10:52:25.527Z</time></trkpt><trkpt lat="38.4204821" lon="16.088874"><ele>236.0</ele><time>2026-04-12T10:52:26.531Z</time></trkpt><trkpt lat="38.4203544" lon="16.0886137"><ele>238.0</ele><time>2026-04-12T10:52:27.528Z</time></trkpt><trkpt lat="38.4202147" lon="16.088348"><ele>238.0</ele><time>2026-04-12T10:52:28.529Z</time></trkpt><trkpt lat="38.4200671" lon="16.0880719"><ele>238.0</ele><time>2026-04-12T10:52:29.533Z</time></trkpt><trkpt lat="38.4199092" lon="16.0877845"><ele>238.0</ele><time>2026-04-12T10:52:30.53Z</time></trkpt><trkpt lat="38.4197495" lon="16.0874967"><ele>238.0</ele><time>2026-04-12T10:52:31.536Z</time></trkpt><trkpt lat="38.4195926" lon="16.0872169"><ele>237.5</ele><time>2026-04-12T10:52:32.53Z</time></trkpt><trkpt lat="38.419448" lon="16.0869444"><ele>237.0</ele><time>2026-04-12T10:52:33.524Z</time></trkpt><trkpt lat="38.4193144" lon="16.0866791"><ele>236.0</ele><time>2026-04-12T10:52:34.537Z</time></trkpt><trkpt lat="38.419199" lon="16.0864245"><ele>235.0</ele><time>2026-04-12T10:52:35.53Z</time></trkpt><trkpt lat="38.4190964" lon="16.086189"><ele>234.0</ele><time>2026-04-12T10:52:36.541Z</time></trkpt><trkpt lat="38.4190131" lon="16.0859611"><ele>233.0</ele><time>2026-04-12T10:52:37.527Z</time></trkpt><trkpt lat="38.418941" lon="16.0857414"><ele>232.0</ele><time>2026-04-12T10:52:38.534Z</time></trkpt><trkpt lat="38.4188817" lon="16.0855296"><ele>231.0</ele><time>2026-04-12T10:52:39.523Z</time></trkpt><trkpt lat="38.4188296" lon="16.0853198"><ele>231.5</ele><time>2026-04-12T10:52:40.533Z</time></trkpt><trkpt lat="38.4187835" lon="16.0851088"><ele>232.0</ele><time>2026-04-12T10:52:41.533Z</time></trkpt><trkpt lat="38.4186909" lon="16.0846493"><ele>232.33333333333331</ele><time>2026-04-12T10:52:43.54Z</time></trkpt><trkpt lat="38.4186474" lon="16.0844134"><ele>232.66666666666669</ele><time>2026-04-12T10:52:44.534Z</time></trkpt><trkpt lat="38.4186062" lon="16.0841803"><ele>233.0</ele><time>2026-04-12T10:52:45.535Z</time></trkpt><trkpt lat="38.4185721" lon="16.0839638"><ele>233.0</ele><time>2026-04-12T10:52:46.532Z</time></trkpt><trkpt lat="38.4185462" lon="16.0837687"><ele>233.0</ele><time>2026-04-12T10:52:47.527Z</time></trkpt><trkpt lat="38.4185268" lon="16.0835946"><ele>233.0</ele><time>2026-04-12T10:52:48.537Z</time></trkpt><trkpt lat="38.4185111" lon="16.0834642"><ele>233.0</ele><time>2026-04-12T10:52:49.535Z</time></trkpt><trkpt lat="38.4184977" lon="16.0833587"><ele>233.00000000000003</ele><time>2026-04-12T10:52:50.551Z</time></trkpt><trkpt lat="38.4184908" lon="16.0832669"><ele>233.0</ele><time>2026-04-12T10:52:51.53Z</time></trkpt><trkpt lat="38.4184751" lon="16.0831351"><ele>233.0</ele><time>2026-04-12T10:52:53.531Z</time></trkpt><trkpt lat="38.4184553" lon="16.0830514"><ele>233.0</ele><time>2026-04-12T10:52:55.531Z</time></trkpt><trkpt lat="38.4184054" lon="16.0829516"><ele>233.00000000000003</ele><time>2026-04-12T10:52:58.533Z</time></trkpt><trkpt lat="38.4183368" lon="16.0829037"><ele>233.0</ele><time>2026-04-12T10:53:00.537Z</time></trkpt><trkpt lat="38.4182338" lon="16.0828769"><ele>232.8</ele><time>2026-04-12T10:53:02.528Z</time></trkpt><trkpt lat="38.4180404" lon="16.0829042"><ele>232.60000000000002</ele><time>2026-04-12T10:53:05.525Z</time></trkpt><trkpt lat="38.4179748" lon="16.0829163"><ele>232.39999999999998</ele><time>2026-04-12T10:53:06.535Z</time></trkpt><trkpt lat="38.4179036" lon="16.0829275"><ele>232.2</ele><time>2026-04-12T10:53:07.537Z</time></trkpt><trkpt lat="38.4178342" lon="16.0829383"><ele>232.0</ele><time>2026-04-12T10:53:08.537Z</time></trkpt><trkpt lat="38.4177603" lon="16.0829481"><ele>231.99999999999997</ele><time>2026-04-12T10:53:09.54Z</time></trkpt><trkpt lat="38.4176861" lon="16.082958"><ele>232.0</ele><time>2026-04-12T10:53:10.533Z</time></trkpt><trkpt lat="38.4176087" lon="16.0829668"><ele>232.0</ele><time>2026-04-12T10:53:11.53Z</time></trkpt><trkpt lat="38.417535" lon="16.0829713"><ele>232.0</ele><time>2026-04-12T10:53:12.538Z</time></trkpt><trkpt lat="38.4174596" lon="16.0829772"><ele>231.99999999999997</ele><time>2026-04-12T10:53:13.528Z</time></trkpt><trkpt lat="38.4173828" lon="16.0829811"><ele>232.0</ele><time>2026-04-12T10:53:14.531Z</time></trkpt><trkpt lat="38.4173083" lon="16.0829828"><ele>231.99999999999997</ele><time>2026-04-12T10:53:15.542Z</time></trkpt><trkpt lat="38.4172314" lon="16.0829934"><ele>232.0</ele><time>2026-04-12T10:53:16.535Z</time></trkpt><trkpt lat="38.4171524" lon="16.0830066"><ele>232.0</ele><time>2026-04-12T10:53:17.527Z</time></trkpt><trkpt lat="38.417072" lon="16.0830287"><ele>232.0</ele><time>2026-04-12T10:53:18.537Z</time></trkpt><trkpt lat="38.4169898" lon="16.0830568"><ele>231.99999999999997</ele><time>2026-04-12T10:53:19.531Z</time></trkpt><trkpt lat="38.4169047" lon="16.0830852"><ele>232.0</ele><time>2026-04-12T10:53:20.534Z</time></trkpt><trkpt lat="38.4168235" lon="16.0831126"><ele>232.25</ele><time>2026-04-12T10:53:21.537Z</time></trkpt><trkpt lat="38.4167337" lon="16.0831446"><ele>232.5</ele><time>2026-04-12T10:53:22.53Z</time></trkpt><trkpt lat="38.4166456" lon="16.0831845"><ele>232.75</ele><time>2026-04-12T10:53:23.54Z</time></trkpt><trkpt lat="38.41645" lon="16.0832413"><ele>233.0</ele><time>2026-04-12T10:53:25.525Z</time></trkpt><trkpt lat="38.4163517" lon="16.0832626"><ele>232.83333333333334</ele><time>2026-04-12T10:53:26.532Z</time></trkpt><trkpt lat="38.416262" lon="16.0832798"><ele>232.66666666666669</ele><time>2026-04-12T10:53:27.537Z</time></trkpt><trkpt lat="38.4161778" lon="16.0832867"><ele>232.5</ele><time>2026-04-12T10:53:28.532Z</time></trkpt><trkpt lat="38.4161031" lon="16.0832933"><ele>232.33333333333331</ele><time>2026-04-12T10:53:29.535Z</time></trkpt><trkpt lat="38.4160289" lon="16.0832747"><ele>232.16666666666666</ele><time>2026-04-12T10:53:30.532Z</time></trkpt><trkpt lat="38.4159182" lon="16.0832447"><ele>232.0</ele><time>2026-04-12T10:53:32.532Z</time></trkpt><trkpt lat="38.4158366" lon="16.083204"><ele>231.99999999999997</ele><time>2026-04-12T10:53:34.531Z</time></trkpt><trkpt lat="38.415731" lon="16.083148"><ele>232.0</ele><time>2026-04-12T10:53:36.535Z</time></trkpt><trkpt lat="38.4156669" lon="16.0831308"><ele>232.0</ele><time>2026-04-12T10:53:37.537Z</time></trkpt><trkpt lat="38.4155982" lon="16.0831236"><ele>232.0</ele><time>2026-04-12T10:53:38.538Z</time></trkpt><trkpt lat="38.4155226" lon="16.0831185"><ele>231.99999999999997</ele><time>2026-04-12T10:53:39.527Z</time></trkpt><trkpt lat="38.4154403" lon="16.0831091"><ele>232.0</ele><time>2026-04-12T10:53:40.541Z</time></trkpt><trkpt lat="38.4153587" lon="16.0830922"><ele>232.0</ele><time>2026-04-12T10:53:41.538Z</time></trkpt><trkpt lat="38.4152877" lon="16.0830672"><ele>232.0</ele><time>2026-04-12T10:53:42.539Z</time></trkpt><trkpt lat="38.4152146" lon="16.0830411"><ele>232.0</ele><time>2026-04-12T10:53:43.533Z</time></trkpt><trkpt lat="38.4151404" lon="16.0829892"><ele>232.0</ele><time>2026-04-12T10:53:44.538Z</time></trkpt><trkpt lat="38.4149592" lon="16.08285"><ele>232.0</ele><time>2026-04-12T10:53:46.536Z</time></trkpt><trkpt lat="38.4148622" lon="16.0827588"><ele>232.0</ele><time>2026-04-12T10:53:47.525Z</time></trkpt><trkpt lat="38.4147711" lon="16.082664"><ele>232.0</ele><time>2026-04-12T10:53:48.525Z</time></trkpt><trkpt lat="38.4146875" lon="16.0825697"><ele>232.0</ele><time>2026-04-12T10:53:49.525Z</time></trkpt><trkpt lat="38.4146048" lon="16.0824626"><ele>232.0</ele><time>2026-04-12T10:53:50.527Z</time></trkpt><trkpt lat="38.4145327" lon="16.082343"><ele>231.25</ele><time>2026-04-12T10:53:51.532Z</time></trkpt><trkpt lat="38.4144623" lon="16.0822205"><ele>230.5</ele><time>2026-04-12T10:53:52.536Z</time></trkpt><trkpt lat="38.4143825" lon="16.0820862"><ele>229.75</ele><time>2026-04-12T10:53:53.528Z</time></trkpt><trkpt lat="38.4143208" lon="16.0819513"><ele>229.0</ele><time>2026-04-12T10:53:54.532Z</time></trkpt><trkpt lat="38.414253" lon="16.0818107"><ele>229.0</ele><time>2026-04-12T10:53:55.531Z</time></trkpt><trkpt lat="38.4141841" lon="16.0816686"><ele>229.0</ele><time>2026-04-12T10:53:56.527Z</time></trkpt><trkpt lat="38.4141206" lon="16.0815173"><ele>229.0</ele><time>2026-04-12T10:53:57.541Z</time></trkpt><trkpt lat="38.4140519" lon="16.0813566"><ele>229.0</ele><time>2026-04-12T10:53:58.537Z</time></trkpt><trkpt lat="38.4139756" lon="16.0811863"><ele>228.0</ele><time>2026-04-12T10:53:59.535Z</time></trkpt><trkpt lat="38.4138994" lon="16.0810083"><ele>227.0</ele><time>2026-04-12T10:54:00.532Z</time></trkpt><trkpt lat="38.413822" lon="16.080836"><ele>226.0</ele><time>2026-04-12T10:54:01.537Z</time></trkpt><trkpt lat="38.4137447" lon="16.0806637"><ele>226.0</ele><time>2026-04-12T10:54:02.528Z</time></trkpt><trkpt lat="38.4136666" lon="16.0804899"><ele>226.0</ele><time>2026-04-12T10:54:03.539Z</time></trkpt><trkpt lat="38.4135852" lon="16.0803227"><ele>226.0</ele><time>2026-04-12T10:54:04.533Z</time></trkpt><trkpt lat="38.4135045" lon="16.080168"><ele>224.33333333333331</ele><time>2026-04-12T10:54:05.534Z</time></trkpt><trkpt lat="38.4133433" lon="16.0798996"><ele>222.66666666666669</ele><time>2026-04-12T10:54:07.533Z</time></trkpt><trkpt lat="38.413268" lon="16.0797721"><ele>221.0</ele><time>2026-04-12T10:54:08.527Z</time></trkpt><trkpt lat="38.4131996" lon="16.079653"><ele>221.0</ele><time>2026-04-12T10:54:09.528Z</time></trkpt><trkpt lat="38.4131328" lon="16.0795357"><ele>221.00000000000003</ele><time>2026-04-12T10:54:10.536Z</time></trkpt><trkpt lat="38.4130743" lon="16.0794406"><ele>221.00000000000003</ele><time>2026-04-12T10:54:11.528Z</time></trkpt><trkpt lat="38.4130128" lon="16.0793491"><ele>221.0</ele><time>2026-04-12T10:54:12.529Z</time></trkpt><trkpt lat="38.412955" lon="16.0792603"><ele>221.0</ele><time>2026-04-12T10:54:13.536Z</time></trkpt><trkpt lat="38.4128965" lon="16.0791702"><ele>221.20000000000002</ele><time>2026-04-12T10:54:14.522Z</time></trkpt><trkpt lat="38.4128365" lon="16.0790753"><ele>221.40000000000003</ele><time>2026-04-12T10:54:15.526Z</time></trkpt><trkpt lat="38.4127706" lon="16.0789706"><ele>221.6</ele><time>2026-04-12T10:54:16.528Z</time></trkpt><trkpt lat="38.4126982" lon="16.0788564"><ele>221.8</ele><time>2026-04-12T10:54:17.532Z</time></trkpt><trkpt lat="38.4126226" lon="16.0787346"><ele>222.0</ele><time>2026-04-12T10:54:18.531Z</time></trkpt><trkpt lat="38.4125467" lon="16.0786142"><ele>222.0</ele><time>2026-04-12T10:54:19.527Z</time></trkpt><trkpt lat="38.4124703" lon="16.0784884"><ele>222.0</ele><time>2026-04-12T10:54:20.534Z</time></trkpt><trkpt lat="38.4123971" lon="16.0783615"><ele>222.0</ele><time>2026-04-12T10:54:21.535Z</time></trkpt><trkpt lat="38.412331" lon="16.0782361"><ele>222.0</ele><time>2026-04-12T10:54:22.535Z</time></trkpt><trkpt lat="38.4122687" lon="16.078106"><ele>222.0</ele><time>2026-04-12T10:54:23.535Z</time></trkpt><trkpt lat="38.412211" lon="16.0779764"><ele>222.0</ele><time>2026-04-12T10:54:24.531Z</time></trkpt><trkpt lat="38.412162" lon="16.0778536"><ele>222.0</ele><time>2026-04-12T10:54:25.526Z</time></trkpt><trkpt lat="38.4121152" lon="16.0777454"><ele>222.0</ele><time>2026-04-12T10:54:26.535Z</time></trkpt><trkpt lat="38.412027" lon="16.0775633"><ele>221.8</ele><time>2026-04-12T10:54:28.534Z</time></trkpt><trkpt lat="38.4119929" lon="16.0774773"><ele>221.6</ele><time>2026-04-12T10:54:29.534Z</time></trkpt><trkpt lat="38.4119389" lon="16.0773488"><ele>221.40000000000003</ele><time>2026-04-12T10:54:31.524Z</time></trkpt><trkpt lat="38.4119328" lon="16.0772155"><ele>221.20000000000002</ele><time>2026-04-12T10:54:34.531Z</time></trkpt><trkpt lat="38.411937" lon="16.077111"><ele>221.0</ele><time>2026-04-12T10:54:36.528Z</time></trkpt><trkpt lat="38.4119001" lon="16.0770097"><ele>221.00000000000003</ele><time>2026-04-12T10:54:38.537Z</time></trkpt><trkpt lat="38.4118068" lon="16.0769167"><ele>221.0</ele><time>2026-04-12T10:54:40.527Z</time></trkpt><trkpt lat="38.4117548" lon="16.0768663"><ele>221.0</ele><time>2026-04-12T10:54:41.528Z</time></trkpt><trkpt lat="38.4117073" lon="16.0768079"><ele>221.0</ele><time>2026-04-12T10:54:42.533Z</time></trkpt><trkpt lat="38.411656" lon="16.0767489"><ele>221.00000000000003</ele><time>2026-04-12T10:54:43.529Z</time></trkpt><trkpt lat="38.4115983" lon="16.0766892"><ele>221.0</ele><time>2026-04-12T10:54:44.527Z</time></trkpt><trkpt lat="38.4115424" lon="16.0766301"><ele>220.75</ele><time>2026-04-12T10:54:45.528Z</time></trkpt><trkpt lat="38.4114871" lon="16.076569"><ele>220.5</ele><time>2026-04-12T10:54:46.533Z</time></trkpt><trkpt lat="38.4114389" lon="16.0765019"><ele>220.25</ele><time>2026-04-12T10:54:47.526Z</time></trkpt><trkpt lat="38.4113102" lon="16.0763161"><ele>220.0</ele><time>2026-04-12T10:54:50.531Z</time></trkpt><trkpt lat="38.4112028" lon="16.0762449"><ele>220.8</ele><time>2026-04-12T10:54:52.526Z</time></trkpt><trkpt lat="38.4111197" lon="16.0761569"><ele>221.6</ele><time>2026-04-12T10:54:54.532Z</time></trkpt><trkpt lat="38.4110247" lon="16.0760907"><ele>222.39999999999998</ele><time>2026-04-12T10:54:56.534Z</time></trkpt><trkpt lat="38.410933" lon="16.0760924"><ele>223.2</ele><time>2026-04-12T10:54:58.532Z</time></trkpt><trkpt lat="38.4108523" lon="16.0761828"><ele>224.0</ele><time>2026-04-12T10:55:00.54Z</time></trkpt><trkpt lat="38.4107939" lon="16.0763184"><ele>224.0</ele><time>2026-04-12T10:55:02.532Z</time></trkpt><trkpt lat="38.4107279" lon="16.0764338"><ele>223.99999999999997</ele><time>2026-04-12T10:55:04.535Z</time></trkpt><trkpt lat="38.4106638" lon="16.0765671"><ele>223.99999999999997</ele><time>2026-04-12T10:55:06.534Z</time></trkpt><trkpt lat="38.4106425" lon="16.0766432"><ele>224.0</ele><time>2026-04-12T10:55:07.534Z</time></trkpt><trkpt lat="38.410636" lon="16.0767994"><ele>224.0</ele><time>2026-04-12T10:55:09.537Z</time></trkpt><trkpt lat="38.4107291" lon="16.0770766"><ele>224.39999999999998</ele><time>2026-04-12T10:55:13.523Z</time></trkpt><trkpt lat="38.4108106" lon="16.0771771"><ele>224.79999999999998</ele><time>2026-04-12T10:55:15.535Z</time></trkpt><trkpt lat="38.41087" lon="16.0772163"><ele>225.20000000000002</ele><time>2026-04-12T10:55:16.57Z</time></trkpt><trkpt lat="38.4109417" lon="16.0772444"><ele>225.60000000000002</ele><time>2026-04-12T10:55:17.536Z</time></trkpt><trkpt lat="38.411032" lon="16.0772686"><ele>226.0</ele><time>2026-04-12T10:55:18.528Z</time></trkpt><trkpt lat="38.4111359" lon="16.0772909"><ele>226.0</ele><time>2026-04-12T10:55:19.535Z</time></trkpt><trkpt lat="38.4112548" lon="16.0773285"><ele>226.0</ele><time>2026-04-12T10:55:20.541Z</time></trkpt><trkpt lat="38.4113798" lon="16.0773538"><ele>226.0</ele><time>2026-04-12T10:55:21.538Z</time></trkpt><trkpt lat="38.4114999" lon="16.0774057"><ele>226.0</ele><time>2026-04-12T10:55:22.536Z</time></trkpt><trkpt lat="38.4116018" lon="16.077471"><ele>226.0</ele><time>2026-04-12T10:55:23.536Z</time></trkpt><trkpt lat="38.411687" lon="16.0775613"><ele>226.0</ele><time>2026-04-12T10:55:24.535Z</time></trkpt><trkpt lat="38.4117638" lon="16.0776934"><ele>226.0</ele><time>2026-04-12T10:55:25.541Z</time></trkpt><trkpt lat="38.4118176" lon="16.0778451"><ele>226.0</ele><time>2026-04-12T10:55:26.532Z</time></trkpt><trkpt lat="38.4118217" lon="16.0779883"><ele>226.0</ele><time>2026-04-12T10:55:27.542Z</time></trkpt><trkpt lat="38.4117854" lon="16.0781044"><ele>226.0</ele><time>2026-04-12T10:55:28.528Z</time></trkpt><trkpt lat="38.4117241" lon="16.0781941"><ele>226.0</ele><time>2026-04-12T10:55:29.525Z</time></trkpt><trkpt lat="38.4116421" lon="16.0782525"><ele>226.0</ele><time>2026-04-12T10:55:30.526Z</time></trkpt><trkpt lat="38.4114637" lon="16.0782636"><ele>226.0</ele><time>2026-04-12T10:55:32.536Z</time></trkpt><trkpt lat="38.411382" lon="16.0782146"><ele>226.00000000000003</ele><time>2026-04-12T10:55:33.529Z</time></trkpt><trkpt lat="38.411327" lon="16.0781187"><ele>226.00000000000003</ele><time>2026-04-12T10:55:34.529Z</time></trkpt><trkpt lat="38.4113017" lon="16.0780111"><ele>226.0</ele><time>2026-04-12T10:55:35.53Z</time></trkpt><trkpt lat="38.4113066" lon="16.0779007"><ele>226.0</ele><time>2026-04-12T10:55:36.543Z</time></trkpt><trkpt lat="38.4113176" lon="16.0777741"><ele>225.99999999999997</ele><time>2026-04-12T10:55:37.54Z</time></trkpt><trkpt lat="38.411328" lon="16.0776654"><ele>226.0</ele><time>2026-04-12T10:55:38.535Z</time></trkpt><trkpt lat="38.4113443" lon="16.0775129"><ele>226.0</ele><time>2026-04-12T10:55:40.53Z</time></trkpt><trkpt lat="38.4113531" lon="16.0774219"><ele>226.0</ele><time>2026-04-12T10:55:41.534Z</time></trkpt><trkpt lat="38.4113633" lon="16.0773273"><ele>225.99999999999997</ele><time>2026-04-12T10:55:42.526Z</time></trkpt><trkpt lat="38.4113793" lon="16.0772221"><ele>226.0</ele><time>2026-04-12T10:55:43.552Z</time></trkpt><trkpt lat="38.4113996" lon="16.0771089"><ele>225.0</ele><time>2026-04-12T10:55:44.54Z</time></trkpt><trkpt lat="38.4114202" lon="16.0769862"><ele>224.00000000000003</ele><time>2026-04-12T10:55:45.531Z</time></trkpt><trkpt lat="38.4114406" lon="16.0768544"><ele>223.00000000000003</ele><time>2026-04-12T10:55:46.537Z</time></trkpt><trkpt lat="38.4114609" lon="16.0767213"><ele>222.0</ele><time>2026-04-12T10:55:47.542Z</time></trkpt><trkpt lat="38.4114809" lon="16.0765828"><ele>221.0</ele><time>2026-04-12T10:55:48.529Z</time></trkpt><trkpt lat="38.4115043" lon="16.0764259"><ele>220.66666666666669</ele><time>2026-04-12T10:55:49.529Z</time></trkpt><trkpt lat="38.4115317" lon="16.0762485"><ele>220.33333333333331</ele><time>2026-04-12T10:55:50.534Z</time></trkpt><trkpt lat="38.4115659" lon="16.076058"><ele>220.0</ele><time>2026-04-12T10:55:51.524Z</time></trkpt><trkpt lat="38.4116319" lon="16.0756722"><ele>218.75</ele><time>2026-04-12T10:55:53.535Z</time></trkpt><trkpt lat="38.4116587" lon="16.0754853"><ele>217.5</ele><time>2026-04-12T10:55:54.525Z</time></trkpt><trkpt lat="38.411685" lon="16.0752982"><ele>216.25</ele><time>2026-04-12T10:55:55.534Z</time></trkpt><trkpt lat="38.4117122" lon="16.0751179"><ele>215.0</ele><time>2026-04-12T10:55:56.539Z</time></trkpt><trkpt lat="38.4117268" lon="16.0749389"><ele>213.66666666666669</ele><time>2026-04-12T10:55:57.534Z</time></trkpt><trkpt lat="38.4117314" lon="16.0747535"><ele>212.33333333333331</ele><time>2026-04-12T10:55:58.537Z</time></trkpt><trkpt lat="38.4117255" lon="16.0745621"><ele>211.0</ele><time>2026-04-12T10:55:59.531Z</time></trkpt><trkpt lat="38.4117107" lon="16.0743662"><ele>211.0</ele><time>2026-04-12T10:56:00.533Z</time></trkpt><trkpt lat="38.4116848" lon="16.0741685"><ele>211.0</ele><time>2026-04-12T10:56:01.54Z</time></trkpt><trkpt lat="38.4116487" lon="16.0739715"><ele>211.0</ele><time>2026-04-12T10:56:02.533Z</time></trkpt><trkpt lat="38.4116001" lon="16.0737756"><ele>211.0</ele><time>2026-04-12T10:56:03.531Z</time></trkpt><trkpt lat="38.4115416" lon="16.0735836"><ele>211.0</ele><time>2026-04-12T10:56:04.533Z</time></trkpt><trkpt lat="38.4114733" lon="16.0733974"><ele>211.0</ele><time>2026-04-12T10:56:05.536Z</time></trkpt><trkpt lat="38.4113931" lon="16.073219"><ele>209.66666666666666</ele><time>2026-04-12T10:56:06.53Z</time></trkpt><trkpt lat="38.4113044" lon="16.0730501"><ele>208.33333333333331</ele><time>2026-04-12T10:56:07.527Z</time></trkpt><trkpt lat="38.4112064" lon="16.0728889"><ele>207.0</ele><time>2026-04-12T10:56:08.539Z</time></trkpt><trkpt lat="38.4110988" lon="16.0727353"><ele>207.0</ele><time>2026-04-12T10:56:09.52Z</time></trkpt><trkpt lat="38.4109825" lon="16.0725907"><ele>207.0</ele><time>2026-04-12T10:56:10.538Z</time></trkpt><trkpt lat="38.4108605" lon="16.0724532"><ele>207.0</ele><time>2026-04-12T10:56:11.539Z</time></trkpt><trkpt lat="38.4107358" lon="16.0723164"><ele>208.0</ele><time>2026-04-12T10:56:12.534Z</time></trkpt><trkpt lat="38.4104737" lon="16.0720225"><ele>209.0</ele><time>2026-04-12T10:56:14.53Z</time></trkpt><trkpt lat="38.4103335" lon="16.0718727"><ele>209.0</ele><time>2026-04-12T10:56:15.537Z</time></trkpt><trkpt lat="38.4101899" lon="16.0717196"><ele>209.0</ele><time>2026-04-12T10:56:16.534Z</time></trkpt><trkpt lat="38.4100417" lon="16.0715603"><ele>209.0</ele><time>2026-04-12T10:56:17.53Z</time></trkpt><trkpt lat="38.4098901" lon="16.0713978"><ele>209.0</ele><time>2026-04-12T10:56:18.539Z</time></trkpt><trkpt lat="38.4097436" lon="16.0712412"><ele>209.0</ele><time>2026-04-12T10:56:19.543Z</time></trkpt><trkpt lat="38.4096024" lon="16.071089"><ele>209.0</ele><time>2026-04-12T10:56:20.529Z</time></trkpt><trkpt lat="38.4094625" lon="16.070939"><ele>209.0</ele><time>2026-04-12T10:56:21.532Z</time></trkpt><trkpt lat="38.4093238" lon="16.0707886"><ele>209.0</ele><time>2026-04-12T10:56:22.533Z</time></trkpt><trkpt lat="38.4091867" lon="16.070638"><ele>209.0</ele><time>2026-04-12T10:56:23.54Z</time></trkpt><trkpt lat="38.4090499" lon="16.0704875"><ele>209.0</ele><time>2026-04-12T10:56:24.527Z</time></trkpt><trkpt lat="38.4089116" lon="16.0703391"><ele>209.0</ele><time>2026-04-12T10:56:25.54Z</time></trkpt><trkpt lat="38.4087723" lon="16.0701951"><ele>209.0</ele><time>2026-04-12T10:56:26.533Z</time></trkpt><trkpt lat="38.40863" lon="16.0700623"><ele>209.0</ele><time>2026-04-12T10:56:27.538Z</time></trkpt><trkpt lat="38.4084799" lon="16.0699467"><ele>209.0</ele><time>2026-04-12T10:56:28.538Z</time></trkpt><trkpt lat="38.4083184" lon="16.0698446"><ele>209.0</ele><time>2026-04-12T10:56:29.534Z</time></trkpt><trkpt lat="38.4081567" lon="16.0697547"><ele>208.66666666666669</ele><time>2026-04-12T10:56:30.531Z</time></trkpt><trkpt lat="38.4079929" lon="16.0696709"><ele>208.33333333333331</ele><time>2026-04-12T10:56:31.544Z</time></trkpt><trkpt lat="38.407827" lon="16.0696051"><ele>208.0</ele><time>2026-04-12T10:56:32.53Z</time></trkpt><trkpt lat="38.4076636" lon="16.0695518"><ele>208.0</ele><time>2026-04-12T10:56:33.536Z</time></trkpt><trkpt lat="38.4073406" lon="16.0694588"><ele>208.0</ele><time>2026-04-12T10:56:35.532Z</time></trkpt><trkpt lat="38.4071888" lon="16.0694169"><ele>208.5</ele><time>2026-04-12T10:56:36.541Z</time></trkpt><trkpt lat="38.4070414" lon="16.0693752"><ele>209.0</ele><time>2026-04-12T10:56:37.537Z</time></trkpt><trkpt lat="38.4068997" lon="16.0693327"><ele>209.5</ele><time>2026-04-12T10:56:38.541Z</time></trkpt><trkpt lat="38.4067596" lon="16.0692911"><ele>210.0</ele><time>2026-04-12T10:56:39.531Z</time></trkpt><trkpt lat="38.4066208" lon="16.0692508"><ele>210.0</ele><time>2026-04-12T10:56:40.54Z</time></trkpt><trkpt lat="38.4064793" lon="16.0692089"><ele>210.0</ele><time>2026-04-12T10:56:41.53Z</time></trkpt><trkpt lat="38.4063332" lon="16.0691669"><ele>210.0</ele><time>2026-04-12T10:56:42.524Z</time></trkpt><trkpt lat="38.4061819" lon="16.0691251"><ele>209.66666666666669</ele><time>2026-04-12T10:56:43.55Z</time></trkpt><trkpt lat="38.4060252" lon="16.0690808"><ele>209.33333333333334</ele><time>2026-04-12T10:56:44.539Z</time></trkpt><trkpt lat="38.405865" lon="16.0690346"><ele>209.0</ele><time>2026-04-12T10:56:45.531Z</time></trkpt><trkpt lat="38.4057075" lon="16.0689902"><ele>209.0</ele><time>2026-04-12T10:56:46.539Z</time></trkpt><trkpt lat="38.4055509" lon="16.0689501"><ele>209.0</ele><time>2026-04-12T10:56:47.525Z</time></trkpt><trkpt lat="38.4053936" lon="16.0689083"><ele>209.0</ele><time>2026-04-12T10:56:48.53Z</time></trkpt><trkpt lat="38.4052338" lon="16.0688652"><ele>210.0</ele><time>2026-04-12T10:56:49.538Z</time></trkpt><trkpt lat="38.4050773" lon="16.0688211"><ele>211.0</ele><time>2026-04-12T10:56:50.526Z</time></trkpt><trkpt lat="38.4049241" lon="16.0687725"><ele>212.0</ele><time>2026-04-12T10:56:51.527Z</time></trkpt><trkpt lat="38.4047767" lon="16.0687181"><ele>212.33333333333334</ele><time>2026-04-12T10:56:52.535Z</time></trkpt><trkpt lat="38.4046377" lon="16.0686531"><ele>212.66666666666669</ele><time>2026-04-12T10:56:53.521Z</time></trkpt><trkpt lat="38.4044999" lon="16.0685813"><ele>213.0</ele><time>2026-04-12T10:56:54.531Z</time></trkpt><trkpt lat="38.4042294" lon="16.0684198"><ele>213.0</ele><time>2026-04-12T10:56:56.535Z</time></trkpt><trkpt lat="38.4041008" lon="16.0683418"><ele>213.0</ele><time>2026-04-12T10:56:57.533Z</time></trkpt><trkpt lat="38.4039754" lon="16.06826"><ele>213.0</ele><time>2026-04-12T10:56:58.534Z</time></trkpt><trkpt lat="38.4038517" lon="16.0681724"><ele>213.0</ele><time>2026-04-12T10:56:59.537Z</time></trkpt><trkpt lat="38.403724" lon="16.068087"><ele>213.0</ele><time>2026-04-12T10:57:00.539Z</time></trkpt><trkpt lat="38.4035955" lon="16.0680063"><ele>213.0</ele><time>2026-04-12T10:57:01.545Z</time></trkpt><trkpt lat="38.4034631" lon="16.0679334"><ele>213.0</ele><time>2026-04-12T10:57:02.536Z</time></trkpt><trkpt lat="38.4033272" lon="16.0678658"><ele>213.0</ele><time>2026-04-12T10:57:03.532Z</time></trkpt><trkpt lat="38.4031904" lon="16.0678011"><ele>213.0</ele><time>2026-04-12T10:57:04.534Z</time></trkpt><trkpt lat="38.4030541" lon="16.0677374"><ele>213.0</ele><time>2026-04-12T10:57:05.536Z</time></trkpt><trkpt lat="38.402918" lon="16.0676774"><ele>213.0</ele><time>2026-04-12T10:57:06.531Z</time></trkpt><trkpt lat="38.4027805" lon="16.0676204"><ele>213.0</ele><time>2026-04-12T10:57:07.527Z</time></trkpt><trkpt lat="38.4026446" lon="16.0675604"><ele>213.5</ele><time>2026-04-12T10:57:08.526Z</time></trkpt><trkpt lat="38.4025089" lon="16.0674959"><ele>214.0</ele><time>2026-04-12T10:57:09.524Z</time></trkpt><trkpt lat="38.4023698" lon="16.0674309"><ele>214.5</ele><time>2026-04-12T10:57:10.527Z</time></trkpt><trkpt lat="38.4022251" lon="16.0673647"><ele>215.0</ele><time>2026-04-12T10:57:11.532Z</time></trkpt><trkpt lat="38.4020773" lon="16.067295"><ele>215.33333333333334</ele><time>2026-04-12T10:57:12.527Z</time></trkpt><trkpt lat="38.4019265" lon="16.0672193"><ele>215.66666666666669</ele><time>2026-04-12T10:57:13.527Z</time></trkpt><trkpt lat="38.401781" lon="16.0671408"><ele>216.0</ele><time>2026-04-12T10:57:14.528Z</time></trkpt><trkpt lat="38.4016464" lon="16.0670613"><ele>216.0</ele><time>2026-04-12T10:57:15.529Z</time></trkpt><trkpt lat="38.4014388" lon="16.0669316"><ele>216.0</ele><time>2026-04-12T10:57:17.527Z</time></trkpt><trkpt lat="38.4013521" lon="16.0668772"><ele>216.0</ele><time>2026-04-12T10:57:18.529Z</time></trkpt><trkpt lat="38.401287" lon="16.0668354"><ele>216.0</ele><time>2026-04-12T10:57:19.53Z</time></trkpt><trkpt lat="38.4011911" lon="16.0667762"><ele>215.66666666666666</ele><time>2026-04-12T10:57:21.534Z</time></trkpt><trkpt lat="38.4011215" lon="16.0667234"><ele>215.33333333333331</ele><time>2026-04-12T10:57:23.528Z</time></trkpt><trkpt lat="38.4010796" lon="16.0666503"><ele>215.0</ele><time>2026-04-12T10:57:25.531Z</time></trkpt><trkpt lat="38.4010333" lon="16.066551"><ele>214.66666666666666</ele><time>2026-04-12T10:57:27.537Z</time></trkpt><trkpt lat="38.4009428" lon="16.0665172"><ele>214.33333333333331</ele><time>2026-04-12T10:57:29.53Z</time></trkpt><trkpt lat="38.4008576" lon="16.0665543"><ele>214.0</ele><time>2026-04-12T10:57:31.527Z</time></trkpt><trkpt lat="38.400807" lon="16.0666862"><ele>213.99999999999997</ele><time>2026-04-12T10:57:33.529Z</time></trkpt><trkpt lat="38.4007757" lon="16.0667666"><ele>214.0</ele><time>2026-04-12T10:57:34.534Z</time></trkpt><trkpt lat="38.4007388" lon="16.0668388"><ele>214.0</ele><time>2026-04-12T10:57:35.531Z</time></trkpt><trkpt lat="38.400699" lon="16.0669138"><ele>214.0</ele><time>2026-04-12T10:57:36.527Z</time></trkpt><trkpt lat="38.4006147" lon="16.067063"><ele>213.99999999999997</ele><time>2026-04-12T10:57:38.528Z</time></trkpt><trkpt lat="38.4005737" lon="16.0671415"><ele>214.0</ele><time>2026-04-12T10:57:39.527Z</time></trkpt><trkpt lat="38.4005363" lon="16.0672193"><ele>213.99999999999997</ele><time>2026-04-12T10:57:40.534Z</time></trkpt><trkpt lat="38.4005139" lon="16.067297"><ele>214.0</ele><time>2026-04-12T10:57:41.531Z</time></trkpt><trkpt lat="38.4004835" lon="16.0673683"><ele>214.0</ele><time>2026-04-12T10:57:42.523Z</time></trkpt><trkpt lat="38.4004358" lon="16.0674914"><ele>214.0</ele><time>2026-04-12T10:57:44.528Z</time></trkpt><trkpt lat="38.4004141" lon="16.067582"><ele>213.99999999999997</ele><time>2026-04-12T10:57:46.528Z</time></trkpt><trkpt lat="38.4003981" lon="16.0676664"><ele>214.0</ele><time>2026-04-12T10:57:48.529Z</time></trkpt><trkpt lat="38.400398" lon="16.0677784"><ele>214.39999999999998</ele><time>2026-04-12T10:57:50.527Z</time></trkpt><trkpt lat="38.400436" lon="16.0678818"><ele>214.79999999999998</ele><time>2026-04-12T10:57:52.535Z</time></trkpt><trkpt lat="38.4004872" lon="16.0679812"><ele>215.20000000000002</ele><time>2026-04-12T10:57:54.54Z</time></trkpt><trkpt lat="38.4004803" lon="16.0680684"><ele>215.60000000000002</ele><time>2026-04-12T10:57:56.535Z</time></trkpt><trkpt lat="38.400407" lon="16.0681977"><ele>216.0</ele><time>2026-04-12T10:57:58.538Z</time></trkpt><trkpt lat="38.4002974" lon="16.0683534"><ele>216.60000000000002</ele><time>2026-04-12T10:58:00.533Z</time></trkpt><trkpt lat="38.4002425" lon="16.0684428"><ele>217.20000000000002</ele><time>2026-04-12T10:58:01.528Z</time></trkpt><trkpt lat="38.400183" lon="16.0685393"><ele>217.79999999999998</ele><time>2026-04-12T10:58:02.534Z</time></trkpt><trkpt lat="38.400124" lon="16.0686378"><ele>218.39999999999998</ele><time>2026-04-12T10:58:03.532Z</time></trkpt><trkpt lat="38.400067" lon="16.0687399"><ele>219.0</ele><time>2026-04-12T10:58:04.529Z</time></trkpt><trkpt lat="38.4000156" lon="16.0688459"><ele>219.0</ele><time>2026-04-12T10:58:05.539Z</time></trkpt><trkpt lat="38.39997" lon="16.0689609"><ele>218.99999999999997</ele><time>2026-04-12T10:58:06.538Z</time></trkpt><trkpt lat="38.3999227" lon="16.0690804"><ele>218.99999999999997</ele><time>2026-04-12T10:58:07.53Z</time></trkpt><trkpt lat="38.3998769" lon="16.0692049"><ele>219.0</ele><time>2026-04-12T10:58:08.529Z</time></trkpt><trkpt lat="38.3998277" lon="16.0693274"><ele>219.0</ele><time>2026-04-12T10:58:09.527Z</time></trkpt><trkpt lat="38.3997795" lon="16.0694426"><ele>219.2</ele><time>2026-04-12T10:58:10.529Z</time></trkpt><trkpt lat="38.3997308" lon="16.0695583"><ele>219.39999999999998</ele><time>2026-04-12T10:58:11.528Z</time></trkpt><trkpt lat="38.3996817" lon="16.0696706"><ele>219.6</ele><time>2026-04-12T10:58:12.527Z</time></trkpt><trkpt lat="38.3996286" lon="16.069785"><ele>219.8</ele><time>2026-04-12T10:58:13.529Z</time></trkpt><trkpt lat="38.3995707" lon="16.0699019"><ele>220.0</ele><time>2026-04-12T10:58:14.538Z</time></trkpt><trkpt lat="38.3995077" lon="16.0700211"><ele>220.5</ele><time>2026-04-12T10:58:15.531Z</time></trkpt><trkpt lat="38.3994425" lon="16.0701425"><ele>221.0</ele><time>2026-04-12T10:58:16.539Z</time></trkpt><trkpt lat="38.3993745" lon="16.0702614"><ele>221.5</ele><time>2026-04-12T10:58:17.535Z</time></trkpt><trkpt lat="38.3993055" lon="16.0703812"><ele>222.0</ele><time>2026-04-12T10:58:18.532Z</time></trkpt><trkpt lat="38.3992361" lon="16.0705052"><ele>222.0</ele><time>2026-04-12T10:58:19.545Z</time></trkpt><trkpt lat="38.3990985" lon="16.0707645"><ele>222.0</ele><time>2026-04-12T10:58:21.545Z</time></trkpt><trkpt lat="38.3990328" lon="16.0708995"><ele>222.0</ele><time>2026-04-12T10:58:22.54Z</time></trkpt><trkpt lat="38.398969" lon="16.0710372"><ele>223.0</ele><time>2026-04-12T10:58:23.543Z</time></trkpt><trkpt lat="38.3989095" lon="16.0711777"><ele>224.0</ele><time>2026-04-12T10:58:24.545Z</time></trkpt><trkpt lat="38.3988467" lon="16.0713113"><ele>225.0</ele><time>2026-04-12T10:58:25.545Z</time></trkpt><trkpt lat="38.3987822" lon="16.0714324"><ele>226.0</ele><time>2026-04-12T10:58:26.542Z</time></trkpt><trkpt lat="38.3987212" lon="16.0715489"><ele>227.0</ele><time>2026-04-12T10:58:27.541Z</time></trkpt><trkpt lat="38.3986626" lon="16.0716664"><ele>228.0</ele><time>2026-04-12T10:58:28.539Z</time></trkpt><trkpt lat="38.3986067" lon="16.071792"><ele>229.0</ele><time>2026-04-12T10:58:29.541Z</time></trkpt><trkpt lat="38.3985534" lon="16.0719238"><ele>230.0</ele><time>2026-04-12T10:58:30.543Z</time></trkpt><trkpt lat="38.398499" lon="16.0720528"><ele>230.0</ele><time>2026-04-12T10:58:31.55Z</time></trkpt><trkpt lat="38.3984441" lon="16.0721817"><ele>230.0</ele><time>2026-04-12T10:58:32.531Z</time></trkpt><trkpt lat="38.398388" lon="16.0723083"><ele>230.0</ele><time>2026-04-12T10:58:33.534Z</time></trkpt><trkpt lat="38.3983301" lon="16.0724409"><ele>230.0</ele><time>2026-04-12T10:58:34.539Z</time></trkpt><trkpt lat="38.3982673" lon="16.0725763"><ele>231.25</ele><time>2026-04-12T10:58:35.54Z</time></trkpt><trkpt lat="38.3982044" lon="16.0727168"><ele>232.5</ele><time>2026-04-12T10:58:36.528Z</time></trkpt><trkpt lat="38.3981384" lon="16.0728611"><ele>233.75</ele><time>2026-04-12T10:58:37.534Z</time></trkpt><trkpt lat="38.3980696" lon="16.073004"><ele>235.0</ele><time>2026-04-12T10:58:38.539Z</time></trkpt><trkpt lat="38.3980064" lon="16.0731535"><ele>234.33333333333331</ele><time>2026-04-12T10:58:39.533Z</time></trkpt><trkpt lat="38.3979399" lon="16.0732901"><ele>233.66666666666669</ele><time>2026-04-12T10:58:40.534Z</time></trkpt><trkpt lat="38.3978172" lon="16.0735399"><ele>233.0</ele><time>2026-04-12T10:58:42.539Z</time></trkpt><trkpt lat="38.3977566" lon="16.0736575"><ele>233.0</ele><time>2026-04-12T10:58:43.524Z</time></trkpt><trkpt lat="38.3976882" lon="16.0737684"><ele>233.0</ele><time>2026-04-12T10:58:44.527Z</time></trkpt><trkpt lat="38.3976132" lon="16.073859"><ele>233.0</ele><time>2026-04-12T10:58:45.528Z</time></trkpt><trkpt lat="38.397542" lon="16.0739352"><ele>233.0</ele><time>2026-04-12T10:58:46.529Z</time></trkpt><trkpt lat="38.3974556" lon="16.0740015"><ele>233.0</ele><time>2026-04-12T10:58:47.544Z</time></trkpt><trkpt lat="38.3973672" lon="16.0740659"><ele>233.00000000000003</ele><time>2026-04-12T10:58:48.528Z</time></trkpt><trkpt lat="38.3972812" lon="16.0740947"><ele>233.0</ele><time>2026-04-12T10:58:49.536Z</time></trkpt><trkpt lat="38.3972069" lon="16.0741313"><ele>233.0</ele><time>2026-04-12T10:58:50.524Z</time></trkpt><trkpt lat="38.3971332" lon="16.0741676"><ele>233.0</ele><time>2026-04-12T10:58:51.535Z</time></trkpt><trkpt lat="38.3970571" lon="16.0742136"><ele>233.00000000000003</ele><time>2026-04-12T10:58:52.529Z</time></trkpt><trkpt lat="38.3969739" lon="16.0742712"><ele>233.0</ele><time>2026-04-12T10:58:53.528Z</time></trkpt><trkpt lat="38.3968868" lon="16.0743344"><ele>234.0</ele><time>2026-04-12T10:58:54.529Z</time></trkpt><trkpt lat="38.3967964" lon="16.074402"><ele>235.0</ele><time>2026-04-12T10:58:55.529Z</time></trkpt><trkpt lat="38.3967056" lon="16.0744792"><ele>236.0</ele><time>2026-04-12T10:58:56.536Z</time></trkpt><trkpt lat="38.3966165" lon="16.0745561"><ele>237.0</ele><time>2026-04-12T10:58:57.53Z</time></trkpt><trkpt lat="38.3965316" lon="16.0746297"><ele>238.0</ele><time>2026-04-12T10:58:58.535Z</time></trkpt><trkpt lat="38.3964437" lon="16.0747072"><ele>238.0</ele><time>2026-04-12T10:58:59.537Z</time></trkpt><trkpt lat="38.3963535" lon="16.0747983"><ele>238.0</ele><time>2026-04-12T10:59:00.54Z</time></trkpt><trkpt lat="38.3962617" lon="16.0749028"><ele>238.0</ele><time>2026-04-12T10:59:01.533Z</time></trkpt><trkpt lat="38.3960629" lon="16.0751179"><ele>238.5</ele><time>2026-04-12T10:59:03.531Z</time></trkpt><trkpt lat="38.3959645" lon="16.0752206"><ele>239.0</ele><time>2026-04-12T10:59:04.528Z</time></trkpt><trkpt lat="38.3958635" lon="16.0753188"><ele>239.5</ele><time>2026-04-12T10:59:05.534Z</time></trkpt><trkpt lat="38.3957655" lon="16.0754183"><ele>240.0</ele><time>2026-04-12T10:59:06.522Z</time></trkpt><trkpt lat="38.3956681" lon="16.0755177"><ele>240.0</ele><time>2026-04-12T10:59:07.524Z</time></trkpt><trkpt lat="38.3955685" lon="16.0756165"><ele>240.0</ele><time>2026-04-12T10:59:08.531Z</time></trkpt><trkpt lat="38.3954658" lon="16.0757076"><ele>240.0</ele><time>2026-04-12T10:59:09.542Z</time></trkpt><trkpt lat="38.3953664" lon="16.075802"><ele>240.0</ele><time>2026-04-12T10:59:10.535Z</time></trkpt><trkpt lat="38.3952666" lon="16.0758971"><ele>241.0</ele><time>2026-04-12T10:59:11.532Z</time></trkpt><trkpt lat="38.3951585" lon="16.0759862"><ele>242.0</ele><time>2026-04-12T10:59:12.533Z</time></trkpt><trkpt lat="38.3950583" lon="16.0760817"><ele>243.0</ele><time>2026-04-12T10:59:13.529Z</time></trkpt><trkpt lat="38.3949426" lon="16.0761504"><ele>244.0</ele><time>2026-04-12T10:59:14.529Z</time></trkpt><trkpt lat="38.3948139" lon="16.0761929"><ele>244.0</ele><time>2026-04-12T10:59:15.522Z</time></trkpt><trkpt lat="38.394692" lon="16.0762129"><ele>244.0</ele><time>2026-04-12T10:59:16.538Z</time></trkpt><trkpt lat="38.3945709" lon="16.0762208"><ele>244.0</ele><time>2026-04-12T10:59:17.537Z</time></trkpt><trkpt lat="38.3944382" lon="16.076226"><ele>244.0</ele><time>2026-04-12T10:59:18.537Z</time></trkpt><trkpt lat="38.394306" lon="16.0762311"><ele>244.25</ele><time>2026-04-12T10:59:19.543Z</time></trkpt><trkpt lat="38.3941677" lon="16.0762329"><ele>244.5</ele><time>2026-04-12T10:59:20.54Z</time></trkpt><trkpt lat="38.3940338" lon="16.0762373"><ele>244.75</ele><time>2026-04-12T10:59:21.528Z</time></trkpt><trkpt lat="38.3939068" lon="16.0762403"><ele>245.0</ele><time>2026-04-12T10:59:22.532Z</time></trkpt><trkpt lat="38.3936382" lon="16.0762524"><ele>245.0</ele><time>2026-04-12T10:59:24.534Z</time></trkpt><trkpt lat="38.3934995" lon="16.0762511"><ele>245.0</ele><time>2026-04-12T10:59:25.531Z</time></trkpt><trkpt lat="38.3933567" lon="16.0762451"><ele>245.0</ele><time>2026-04-12T10:59:26.528Z</time></trkpt><trkpt lat="38.3932115" lon="16.076244"><ele>245.0</ele><time>2026-04-12T10:59:27.521Z</time></trkpt><trkpt lat="38.3930643" lon="16.0762394"><ele>245.25</ele><time>2026-04-12T10:59:28.526Z</time></trkpt><trkpt lat="38.3929171" lon="16.0762222"><ele>245.5</ele><time>2026-04-12T10:59:29.531Z</time></trkpt><trkpt lat="38.3927704" lon="16.0761978"><ele>245.75</ele><time>2026-04-12T10:59:30.527Z</time></trkpt><trkpt lat="38.392631" lon="16.0761697"><ele>246.0</ele><time>2026-04-12T10:59:31.541Z</time></trkpt><trkpt lat="38.3924923" lon="16.0761373"><ele>246.0</ele><time>2026-04-12T10:59:32.534Z</time></trkpt><trkpt lat="38.3923509" lon="16.0761111"><ele>246.0</ele><time>2026-04-12T10:59:33.523Z</time></trkpt><trkpt lat="38.3922127" lon="16.076094"><ele>246.0</ele><time>2026-04-12T10:59:34.525Z</time></trkpt><trkpt lat="38.3920836" lon="16.0760828"><ele>246.0</ele><time>2026-04-12T10:59:35.53Z</time></trkpt><trkpt lat="38.3919733" lon="16.0760709"><ele>245.66666666666666</ele><time>2026-04-12T10:59:36.53Z</time></trkpt><trkpt lat="38.3918735" lon="16.0760574"><ele>245.33333333333331</ele><time>2026-04-12T10:59:37.533Z</time></trkpt><trkpt lat="38.3917778" lon="16.076045"><ele>245.0</ele><time>2026-04-12T10:59:38.53Z</time></trkpt><trkpt lat="38.3916913" lon="16.0760305"><ele>244.66666666666666</ele><time>2026-04-12T10:59:39.521Z</time></trkpt><trkpt lat="38.3916133" lon="16.0760174"><ele>244.33333333333331</ele><time>2026-04-12T10:59:40.538Z</time></trkpt><trkpt lat="38.3915415" lon="16.0760053"><ele>244.0</ele><time>2026-04-12T10:59:41.53Z</time></trkpt><trkpt lat="38.3914341" lon="16.0759813"><ele>243.39999999999998</ele><time>2026-04-12T10:59:43.562Z</time></trkpt><trkpt lat="38.3912756" lon="16.075937"><ele>242.79999999999998</ele><time>2026-04-12T10:59:47.54Z</time></trkpt><trkpt lat="38.3912399" lon="16.0758641"><ele>242.20000000000002</ele><time>2026-04-12T10:59:49.528Z</time></trkpt><trkpt lat="38.3912329" lon="16.0757537"><ele>241.60000000000002</ele><time>2026-04-12T10:59:51.534Z</time></trkpt><trkpt lat="38.3912445" lon="16.0756342"><ele>241.0</ele><time>2026-04-12T10:59:53.534Z</time></trkpt><trkpt lat="38.3912578" lon="16.0755545"><ele>238.0</ele><time>2026-04-12T10:59:55.533Z</time></trkpt><trkpt lat="38.3912808" lon="16.0754491"><ele>238.0</ele><time>2026-04-12T10:59:58.528Z</time></trkpt><trkpt lat="38.39129" lon="16.0753477"><ele>238.0</ele><time>2026-04-12T11:00:01.526Z</time></trkpt><trkpt lat="38.3913531" lon="16.0752837"><ele>238.0</ele><time>2026-04-12T11:00:05.532Z</time></trkpt></trkseg><trkseg><trkpt lat="38.8384989" lon="16.2624375"><ele>80.7</ele><time>2026-04-19T07:19:49.796Z</time></trkpt></trkseg></trk></gpx>